﻿<?xml version="1.0" encoding="utf-8"?><gpx creator="Garmin Desktop App" version="1.1" xsi:schemaLocation="http://www.topografix.com/GPX/1/1 http://www.topografix.com/GPX/1/1/gpx.xsd http://www.garmin.com/xmlschemas/WaypointExtension/v1 http://www8.garmin.com/xmlschemas/WaypointExtensionv1.xsd http://www.garmin.com/xmlschemas/TrackPointExtension/v1 http://www.garmin.com/xmlschemas/TrackPointExtensionv1.xsd http://www.garmin.com/xmlschemas/GpxExtensions/v3 http://www8.garmin.com/xmlschemas/GpxExtensionsv3.xsd http://www.garmin.com/xmlschemas/ActivityExtension/v1 http://www8.garmin.com/xmlschemas/ActivityExtensionv1.xsd http://www.garmin.com/xmlschemas/AdventuresExtensions/v1 http://www8.garmin.com/xmlschemas/AdventuresExtensionv1.xsd http://www.garmin.com/xmlschemas/PressureExtension/v1 http://www.garmin.com/xmlschemas/PressureExtensionv1.xsd http://www.garmin.com/xmlschemas/TripExtensions/v1 http://www.garmin.com/xmlschemas/TripExtensionsv1.xsd http://www.garmin.com/xmlschemas/TripMetaDataExtensions/v1 http://www.garmin.com/xmlschemas/TripMetaDataExtensionsv1.xsd http://www.garmin.com/xmlschemas/ViaPointTransportationModeExtensions/v1 http://www.garmin.com/xmlschemas/ViaPointTransportationModeExtensionsv1.xsd http://www.garmin.com/xmlschemas/CreationTimeExtension/v1 http://www.garmin.com/xmlschemas/CreationTimeExtensionsv1.xsd http://www.garmin.com/xmlschemas/AccelerationExtension/v1 http://www.garmin.com/xmlschemas/AccelerationExtensionv1.xsd http://www.garmin.com/xmlschemas/PowerExtension/v1 http://www.garmin.com/xmlschemas/PowerExtensionv1.xsd http://www.garmin.com/xmlschemas/VideoExtension/v1 http://www.garmin.com/xmlschemas/VideoExtensionv1.xsd" xmlns="http://www.topografix.com/GPX/1/1" xmlns:xsi="http://www.w3.org/2001/XMLSchema-instance" xmlns:wptx1="http://www.garmin.com/xmlschemas/WaypointExtension/v1" xmlns:gpxtrx="http://www.garmin.com/xmlschemas/GpxExtensions/v3" xmlns:gpxtpx="http://www.garmin.com/xmlschemas/TrackPointExtension/v1" xmlns:gpxx="http://www.garmin.com/xmlschemas/GpxExtensions/v3" xmlns:trp="http://www.garmin.com/xmlschemas/TripExtensions/v1" xmlns:adv="http://www.garmin.com/xmlschemas/AdventuresExtensions/v1" xmlns:prs="http://www.garmin.com/xmlschemas/PressureExtension/v1" xmlns:tmd="http://www.garmin.com/xmlschemas/TripMetaDataExtensions/v1" xmlns:vptm="http://www.garmin.com/xmlschemas/ViaPointTransportationModeExtensions/v1" xmlns:ctx="http://www.garmin.com/xmlschemas/CreationTimeExtension/v1" xmlns:gpxacc="http://www.garmin.com/xmlschemas/AccelerationExtension/v1" xmlns:gpxpx="http://www.garmin.com/xmlschemas/PowerExtension/v1" xmlns:vidx1="http://www.garmin.com/xmlschemas/VideoExtension/v1">

  <metadata>
    <link href="http://www.garmin.com">
      <text>Garmin International</text>
    </link>
    <time>2021-02-20T10:51:34Z</time>
    <bounds maxlat="42.524971850216389" maxlon="13.581166695803404" minlat="42.441247031092644" minlon="13.535780869424343" />
  </metadata>

  <trk>
    <name>1-g-pietracamela2013-09-08</name>
    <extensions>
      <gpxx:TrackExtension>
        <gpxx:DisplayColor>Yellow</gpxx:DisplayColor>
      </gpxx:TrackExtension>
    </extensions>
    <trkseg>
      <trkpt lat="42.499679122120142" lon="13.558922717347741">
        <ele>1458.9400000000001</ele>
        <time>2013-09-08T07:01:43Z</time>
      </trkpt>
      <trkpt lat="42.499682474881411" lon="13.558874940499663">
        <ele>1457.02</ele>
        <time>2013-09-08T07:01:46Z</time>
      </trkpt>
      <trkpt lat="42.499696388840675" lon="13.558717276901007">
        <ele>1454.6099999999999</ele>
        <time>2013-09-08T07:01:56Z</time>
      </trkpt>
      <trkpt lat="42.499728994444013" lon="13.558529941365123">
        <ele>1454.1300000000001</ele>
        <time>2013-09-08T07:02:09Z</time>
      </trkpt>
      <trkpt lat="42.499759756028652" lon="13.558322908356786">
        <ele>1453.6500000000001</ele>
        <time>2013-09-08T07:02:25Z</time>
      </trkpt>
      <trkpt lat="42.499770736321807" lon="13.558300444856286">
        <ele>1454.1300000000001</ele>
        <time>2013-09-08T07:02:27Z</time>
      </trkpt>
      <trkpt lat="42.4997728317976" lon="13.558188462629914">
        <ele>1453.1700000000001</ele>
        <time>2013-09-08T07:02:41Z</time>
      </trkpt>
      <trkpt lat="42.499782219529152" lon="13.558099279180169">
        <ele>1453.1700000000001</ele>
        <time>2013-09-08T07:02:56Z</time>
      </trkpt>
      <trkpt lat="42.499808119609952" lon="13.557946728542447">
        <ele>1452.6900000000001</ele>
        <time>2013-09-08T07:03:06Z</time>
      </trkpt>
      <trkpt lat="42.499807113781571" lon="13.557798536494374">
        <ele>1452.6900000000001</ele>
        <time>2013-09-08T07:03:19Z</time>
      </trkpt>
      <trkpt lat="42.49981926754117" lon="13.557748161256313">
        <ele>1452.21</ele>
        <time>2013-09-08T07:03:23Z</time>
      </trkpt>
      <trkpt lat="42.49985103495419" lon="13.557620253413916">
        <ele>1451.73</ele>
        <time>2013-09-08T07:03:35Z</time>
      </trkpt>
      <trkpt lat="42.4998798687011" lon="13.557450855150819">
        <ele>1450.77</ele>
        <time>2013-09-08T07:03:47Z</time>
      </trkpt>
      <trkpt lat="42.499914234504104" lon="13.557227393612266">
        <ele>1449.8099999999999</ele>
        <time>2013-09-08T07:04:02Z</time>
      </trkpt>
      <trkpt lat="42.49995119869709" lon="13.557023461908102">
        <ele>1449.3199999999999</ele>
        <time>2013-09-08T07:04:18Z</time>
      </trkpt>
      <trkpt lat="42.499985815957189" lon="13.556839562952518">
        <ele>1448.3599999999999</ele>
        <time>2013-09-08T07:04:34Z</time>
      </trkpt>
      <trkpt lat="42.500004591420293" lon="13.556823469698429">
        <ele>1448.3599999999999</ele>
        <time>2013-09-08T07:04:36Z</time>
      </trkpt>
      <trkpt lat="42.500101402401924" lon="13.556836294010282">
        <ele>1445.96</ele>
        <time>2013-09-08T07:04:50Z</time>
      </trkpt>
      <trkpt lat="42.500216905027628" lon="13.556761862710118">
        <ele>1443.5599999999999</ele>
        <time>2013-09-08T07:05:05Z</time>
      </trkpt>
      <trkpt lat="42.500334000214934" lon="13.556658178567886">
        <ele>1441.1500000000001</ele>
        <time>2013-09-08T07:05:20Z</time>
      </trkpt>
      <trkpt lat="42.500395942479372" lon="13.556562960147858">
        <ele>1438.75</ele>
        <time>2013-09-08T07:05:36Z</time>
      </trkpt>
      <trkpt lat="42.500410778447986" lon="13.556549632921815">
        <ele>1439.23</ele>
        <time>2013-09-08T07:05:41Z</time>
      </trkpt>
      <trkpt lat="42.500514378771186" lon="13.55648928321898">
        <ele>1438.27</ele>
        <time>2013-09-08T07:05:50Z</time>
      </trkpt>
      <trkpt lat="42.500545810908079" lon="13.556460784748197">
        <ele>1437.79</ele>
        <time>2013-09-08T07:05:57Z</time>
      </trkpt>
      <trkpt lat="42.500615129247308" lon="13.5563725233078">
        <ele>1436.3499999999999</ele>
        <time>2013-09-08T07:06:05Z</time>
      </trkpt>
      <trkpt lat="42.500628959387541" lon="13.556358860805631">
        <ele>1435.8699999999999</ele>
        <time>2013-09-08T07:06:07Z</time>
      </trkpt>
      <trkpt lat="42.500692745670676" lon="13.55628551915288">
        <ele>1434.4200000000001</ele>
        <time>2013-09-08T07:06:18Z</time>
      </trkpt>
      <trkpt lat="42.500697942450643" lon="13.556279735639691">
        <ele>1434.4200000000001</ele>
        <time>2013-09-08T07:06:20Z</time>
      </trkpt>
      <trkpt lat="42.500753179192543" lon="13.556235311552882">
        <ele>1433.46</ele>
        <time>2013-09-08T07:06:34Z</time>
      </trkpt>
      <trkpt lat="42.500759633257985" lon="13.556218463927507">
        <ele>1433.46</ele>
        <time>2013-09-08T07:06:47Z</time>
      </trkpt>
      <trkpt lat="42.500773714855313" lon="13.556184181943536">
        <ele>1432.98</ele>
        <time>2013-09-08T07:06:51Z</time>
      </trkpt>
      <trkpt lat="42.500854013487697" lon="13.556025009602308">
        <ele>1430.5799999999999</ele>
        <time>2013-09-08T07:07:06Z</time>
      </trkpt>
      <trkpt lat="42.501001283526421" lon="13.555943621322513">
        <ele>1428.1800000000001</ele>
        <time>2013-09-08T07:07:23Z</time>
      </trkpt>
      <trkpt lat="42.50101544894278" lon="13.555922666564584">
        <ele>1428.1800000000001</ele>
        <time>2013-09-08T07:07:25Z</time>
      </trkpt>
      <trkpt lat="42.501139165833592" lon="13.555805822834373">
        <ele>1425.29</ele>
        <time>2013-09-08T07:07:40Z</time>
      </trkpt>
      <trkpt lat="42.501256596297026" lon="13.555704820901155">
        <ele>1423.8499999999999</ele>
        <time>2013-09-08T07:07:54Z</time>
      </trkpt>
      <trkpt lat="42.501368578523397" lon="13.555685458704829">
        <ele>1421.9300000000001</ele>
        <time>2013-09-08T07:08:06Z</time>
      </trkpt>
      <trkpt lat="42.501526325941086" lon="13.555631060153246">
        <ele>1420</ele>
        <time>2013-09-08T07:08:21Z</time>
      </trkpt>
      <trkpt lat="42.501706620678306" lon="13.555557299405336">
        <ele>1417.5999999999999</ele>
        <time>2013-09-08T07:08:39Z</time>
      </trkpt>
      <trkpt lat="42.501790942624211" lon="13.555537015199661">
        <ele>1416.6400000000001</ele>
        <time>2013-09-08T07:08:48Z</time>
      </trkpt>
      <trkpt lat="42.501956233754754" lon="13.555379854515195">
        <ele>1413.76</ele>
        <time>2013-09-08T07:09:07Z</time>
      </trkpt>
      <trkpt lat="42.502064779400826" lon="13.55529360473156">
        <ele>1412.3099999999999</ele>
        <time>2013-09-08T07:09:19Z</time>
      </trkpt>
      <trkpt lat="42.50218078494072" lon="13.555196207016706">
        <ele>1410.3900000000001</ele>
        <time>2013-09-08T07:09:33Z</time>
      </trkpt>
      <trkpt lat="42.502281870692968" lon="13.555114315822721">
        <ele>1409.4300000000001</ele>
        <time>2013-09-08T07:09:44Z</time>
      </trkpt>
      <trkpt lat="42.502306681126356" lon="13.555056480690837">
        <ele>1408.47</ele>
        <time>2013-09-08T07:09:48Z</time>
      </trkpt>
      <trkpt lat="42.502381531521678" lon="13.554868558421731">
        <ele>1407.99</ele>
        <time>2013-09-08T07:10:03Z</time>
      </trkpt>
      <trkpt lat="42.50240215100348" lon="13.554842323064804">
        <ele>1407.03</ele>
        <time>2013-09-08T07:10:06Z</time>
      </trkpt>
      <trkpt lat="42.502466272562742" lon="13.554826229810715">
        <ele>1406.0699999999999</ele>
        <time>2013-09-08T07:10:23Z</time>
      </trkpt>
      <trkpt lat="42.502554366365075" lon="13.55485481210053">
        <ele>1405.5799999999999</ele>
        <time>2013-09-08T07:10:38Z</time>
      </trkpt>
      <trkpt lat="42.502667605876923" lon="13.554915077984333">
        <ele>1404.6199999999999</ele>
        <time>2013-09-08T07:10:52Z</time>
      </trkpt>
      <trkpt lat="42.502808757126331" lon="13.554994538426399">
        <ele>1402.22</ele>
        <time>2013-09-08T07:11:07Z</time>
      </trkpt>
      <trkpt lat="42.502901712432504" lon="13.555017337203026">
        <ele>1401.26</ele>
        <time>2013-09-08T07:11:15Z</time>
      </trkpt>
      <trkpt lat="42.503069182857871" lon="13.55503024533391">
        <ele>1400.3</ele>
        <time>2013-09-08T07:11:30Z</time>
      </trkpt>
      <trkpt lat="42.503128945827484" lon="13.554982133209705">
        <ele>1398.8599999999999</ele>
        <time>2013-09-08T07:11:38Z</time>
      </trkpt>
      <trkpt lat="42.503260876983404" lon="13.554922286421061">
        <ele>1397.8900000000001</ele>
        <time>2013-09-08T07:11:52Z</time>
      </trkpt>
      <trkpt lat="42.503482075408101" lon="13.554903594776988">
        <ele>1396.9300000000001</ele>
        <time>2013-09-08T07:12:10Z</time>
      </trkpt>
      <trkpt lat="42.503599757328629" lon="13.554778285324574">
        <ele>1395.01</ele>
        <time>2013-09-08T07:12:25Z</time>
      </trkpt>
      <trkpt lat="42.503747446462512" lon="13.554683066904545">
        <ele>1394.53</ele>
        <time>2013-09-08T07:12:39Z</time>
      </trkpt>
      <trkpt lat="42.503876863047481" lon="13.55463252402842">
        <ele>1393.5699999999999</ele>
        <time>2013-09-08T07:12:52Z</time>
      </trkpt>
      <trkpt lat="42.504053050652146" lon="13.554530935361981">
        <ele>1392.6099999999999</ele>
        <time>2013-09-08T07:13:08Z</time>
      </trkpt>
      <trkpt lat="42.504201242700219" lon="13.554383246228099">
        <ele>1391.1700000000001</ele>
        <time>2013-09-08T07:13:25Z</time>
      </trkpt>
      <trkpt lat="42.504286402836442" lon="13.554209405556321">
        <ele>1390.2</ele>
        <time>2013-09-08T07:13:39Z</time>
      </trkpt>
      <trkpt lat="42.504308447241783" lon="13.554164143279195">
        <ele>1390.2</ele>
        <time>2013-09-08T07:13:56Z</time>
      </trkpt>
      <trkpt lat="42.504316242411733" lon="13.554173028096557">
        <ele>1389.72</ele>
        <time>2013-09-08T07:14:33Z</time>
      </trkpt>
      <trkpt lat="42.50432537868619" lon="13.554151235148311">
        <ele>1389.72</ele>
        <time>2013-09-08T07:14:43Z</time>
      </trkpt>
      <trkpt lat="42.504381034523249" lon="13.554143523797393">
        <ele>1390.2</ele>
        <time>2013-09-08T07:14:48Z</time>
      </trkpt>
      <trkpt lat="42.504575829952955" lon="13.554055178537965">
        <ele>1389.24</ele>
        <time>2013-09-08T07:15:05Z</time>
      </trkpt>
      <trkpt lat="42.504716813564301" lon="13.553980831056833">
        <ele>1387.8</ele>
        <time>2013-09-08T07:15:19Z</time>
      </trkpt>
      <trkpt lat="42.504821503534913" lon="13.553893323987722">
        <ele>1387.3199999999999</ele>
        <time>2013-09-08T07:15:34Z</time>
      </trkpt>
      <trkpt lat="42.504961229860783" lon="13.553792908787727">
        <ele>1387.3199999999999</ele>
        <time>2013-09-08T07:15:48Z</time>
      </trkpt>
      <trkpt lat="42.505000289529562" lon="13.553764326497912">
        <ele>1386.8399999999999</ele>
        <time>2013-09-08T07:15:52Z</time>
      </trkpt>
      <trkpt lat="42.505140602588654" lon="13.553726356476545">
        <ele>1386.3599999999999</ele>
        <time>2013-09-08T07:16:08Z</time>
      </trkpt>
      <trkpt lat="42.505147811025381" lon="13.553724261000752">
        <ele>1386.8399999999999</ele>
        <time>2013-09-08T07:16:09Z</time>
      </trkpt>
      <trkpt lat="42.505327267572284" lon="13.553664749488235">
        <ele>1384.9200000000001</ele>
        <time>2013-09-08T07:16:25Z</time>
      </trkpt>
      <trkpt lat="42.505528684705496" lon="13.553658546879888">
        <ele>1383.47</ele>
        <time>2013-09-08T07:16:42Z</time>
      </trkpt>
      <trkpt lat="42.505748625844717" lon="13.553756363689899">
        <ele>1383.47</ele>
        <time>2013-09-08T07:17:03Z</time>
      </trkpt>
      <trkpt lat="42.50592372380197" lon="13.553788382560015">
        <ele>1382.51</ele>
        <time>2013-09-08T07:17:20Z</time>
      </trkpt>
      <trkpt lat="42.506114998832345" lon="13.553819144144654">
        <ele>1381.0699999999999</ele>
        <time>2013-09-08T07:17:37Z</time>
      </trkpt>
      <trkpt lat="42.506319181993604" lon="13.553817635402083">
        <ele>1381.0699999999999</ele>
        <time>2013-09-08T07:17:55Z</time>
      </trkpt>
      <trkpt lat="42.506500566378236" lon="13.553823921829462">
        <ele>1379.6300000000001</ele>
        <time>2013-09-08T07:18:12Z</time>
      </trkpt>
      <trkpt lat="42.50670550391078" lon="13.553850157186389">
        <ele>1379.1500000000001</ele>
        <time>2013-09-08T07:18:29Z</time>
      </trkpt>
      <trkpt lat="42.506813379004598" lon="13.553849989548326">
        <ele>1379.1500000000001</ele>
        <time>2013-09-08T07:18:38Z</time>
      </trkpt>
      <trkpt lat="42.506976658478379" lon="13.553871614858508">
        <ele>1378.6700000000001</ele>
        <time>2013-09-08T07:18:53Z</time>
      </trkpt>
      <trkpt lat="42.50706609338522" lon="13.553894748911262">
        <ele>1378.1900000000001</ele>
        <time>2013-09-08T07:19:02Z</time>
      </trkpt>
      <trkpt lat="42.507182937115431" lon="13.554021064192057">
        <ele>1377.23</ele>
        <time>2013-09-08T07:19:16Z</time>
      </trkpt>
      <trkpt lat="42.507224343717098" lon="13.554045623168349">
        <ele>1376.75</ele>
        <time>2013-09-08T07:19:22Z</time>
      </trkpt>
      <trkpt lat="42.507315706461668" lon="13.553989296779037">
        <ele>1377.23</ele>
        <time>2013-09-08T07:19:30Z</time>
      </trkpt>
      <trkpt lat="42.5074711907655" lon="13.553940681740642">
        <ele>1376.75</ele>
        <time>2013-09-08T07:19:48Z</time>
      </trkpt>
      <trkpt lat="42.507516453042626" lon="13.553953925147653">
        <ele>1376.75</ele>
        <time>2013-09-08T07:20:03Z</time>
      </trkpt>
      <trkpt lat="42.507521063089371" lon="13.553958535194397">
        <ele>1376.75</ele>
        <time>2013-09-08T07:20:04Z</time>
      </trkpt>
      <trkpt lat="42.507555931806564" lon="13.553992314264178">
        <ele>1376.26</ele>
        <time>2013-09-08T07:20:19Z</time>
      </trkpt>
      <trkpt lat="42.507687779143453" lon="13.554114773869514">
        <ele>1373.8599999999999</ele>
        <time>2013-09-08T07:20:35Z</time>
      </trkpt>
      <trkpt lat="42.507706135511398" lon="13.554105889052153">
        <ele>1373.3800000000001</ele>
        <time>2013-09-08T07:20:47Z</time>
      </trkpt>
      <trkpt lat="42.507776459679008" lon="13.554197167977691">
        <ele>1370.5</ele>
        <time>2013-09-08T07:21:02Z</time>
      </trkpt>
      <trkpt lat="42.507837312296033" lon="13.554241508245468">
        <ele>1368.5699999999999</ele>
        <time>2013-09-08T07:21:14Z</time>
      </trkpt>
      <trkpt lat="42.507936637848616" lon="13.554340330883861">
        <ele>1366.1700000000001</ele>
        <time>2013-09-08T07:21:28Z</time>
      </trkpt>
      <trkpt lat="42.508062366396189" lon="13.554462706670165">
        <ele>1363.29</ele>
        <time>2013-09-08T07:21:41Z</time>
      </trkpt>
      <trkpt lat="42.508164122700691" lon="13.554558344185352">
        <ele>1361.3599999999999</ele>
        <time>2013-09-08T07:21:55Z</time>
      </trkpt>
      <trkpt lat="42.508179461583495" lon="13.554562451317906">
        <ele>1360.8800000000001</ele>
        <time>2013-09-08T07:22:07Z</time>
      </trkpt>
      <trkpt lat="42.508276859298348" lon="13.55468868277967">
        <ele>1358.48</ele>
        <time>2013-09-08T07:22:21Z</time>
      </trkpt>
      <trkpt lat="42.50831357203424" lon="13.554724138230085">
        <ele>1357.04</ele>
        <time>2013-09-08T07:22:35Z</time>
      </trkpt>
      <trkpt lat="42.508313320577145" lon="13.554745931178331">
        <ele>1357.04</ele>
        <time>2013-09-08T07:22:50Z</time>
      </trkpt>
      <trkpt lat="42.508314745500684" lon="13.554767221212387">
        <ele>1356.5599999999999</ele>
        <time>2013-09-08T07:23:06Z</time>
      </trkpt>
      <trkpt lat="42.508399151265621" lon="13.554877862334251">
        <ele>1355.1199999999999</ele>
        <time>2013-09-08T07:23:16Z</time>
      </trkpt>
      <trkpt lat="42.508418178185821" lon="13.55487828142941">
        <ele>1355.5999999999999</ele>
        <time>2013-09-08T07:23:21Z</time>
      </trkpt>
      <trkpt lat="42.508530663326383" lon="13.554989844560623">
        <ele>1352.23</ele>
        <time>2013-09-08T07:23:36Z</time>
      </trkpt>
      <trkpt lat="42.508582212030888" lon="13.55503661558032">
        <ele>1350.3099999999999</ele>
        <time>2013-09-08T07:23:48Z</time>
      </trkpt>
      <trkpt lat="42.508680028840899" lon="13.555125212296844">
        <ele>1348.3900000000001</ele>
        <time>2013-09-08T07:24:03Z</time>
      </trkpt>
      <trkpt lat="42.50880072824657" lon="13.555209031328559">
        <ele>1345.5</ele>
        <time>2013-09-08T07:24:18Z</time>
      </trkpt>
      <trkpt lat="42.508849343284965" lon="13.555272314697504">
        <ele>1344.0599999999999</ele>
        <time>2013-09-08T07:24:26Z</time>
      </trkpt>
      <trkpt lat="42.508963253349066" lon="13.555274493992329">
        <ele>1340.22</ele>
        <time>2013-09-08T07:24:39Z</time>
      </trkpt>
      <trkpt lat="42.509102392941713" lon="13.555308692157269">
        <ele>1337.3299999999999</ele>
        <time>2013-09-08T07:24:54Z</time>
      </trkpt>
      <trkpt lat="42.509158384054899" lon="13.55527751147747">
        <ele>1334.45</ele>
        <time>2013-09-08T07:25:05Z</time>
      </trkpt>
      <trkpt lat="42.509211022406816" lon="13.555327216163278">
        <ele>1333.01</ele>
        <time>2013-09-08T07:25:15Z</time>
      </trkpt>
      <trkpt lat="42.509306157007813" lon="13.555381949990988">
        <ele>1331.0799999999999</ele>
        <time>2013-09-08T07:25:26Z</time>
      </trkpt>
      <trkpt lat="42.509374553337693" lon="13.555412124842405">
        <ele>1330.5999999999999</ele>
        <time>2013-09-08T07:25:37Z</time>
      </trkpt>
      <trkpt lat="42.509403303265572" lon="13.55541137047112">
        <ele>1330.1199999999999</ele>
        <time>2013-09-08T07:25:41Z</time>
      </trkpt>
      <trkpt lat="42.50955275259912" lon="13.555450681596994">
        <ele>1328.6800000000001</ele>
        <time>2013-09-08T07:25:53Z</time>
      </trkpt>
      <trkpt lat="42.509591225534678" lon="13.555514300242066">
        <ele>1328.2</ele>
        <time>2013-09-08T07:26:05Z</time>
      </trkpt>
      <trkpt lat="42.509661549702287" lon="13.555505834519863">
        <ele>1327.24</ele>
        <time>2013-09-08T07:26:18Z</time>
      </trkpt>
      <trkpt lat="42.509791385382414" lon="13.55549979954958">
        <ele>1325.8</ele>
        <time>2013-09-08T07:26:33Z</time>
      </trkpt>
      <trkpt lat="42.509880736470222" lon="13.555564507842064">
        <ele>1324.8299999999999</ele>
        <time>2013-09-08T07:26:45Z</time>
      </trkpt>
      <trkpt lat="42.509957430884242" lon="13.555593173950911">
        <ele>1324.3499999999999</ele>
        <time>2013-09-08T07:26:59Z</time>
      </trkpt>
      <trkpt lat="42.509974949061871" lon="13.55559853836894">
        <ele>1323.8699999999999</ele>
        <time>2013-09-08T07:27:13Z</time>
      </trkpt>
      <trkpt lat="42.510089613497257" lon="13.555652853101492">
        <ele>1322.9100000000001</ele>
        <time>2013-09-08T07:27:29Z</time>
      </trkpt>
      <trkpt lat="42.510186089202762" lon="13.555685793980956">
        <ele>1321.47</ele>
        <time>2013-09-08T07:27:43Z</time>
      </trkpt>
      <trkpt lat="42.510262951254845" lon="13.555665342137218">
        <ele>1320.51</ele>
        <time>2013-09-08T07:27:56Z</time>
      </trkpt>
      <trkpt lat="42.510343585163355" lon="13.555615050718188">
        <ele>1319.0699999999999</ele>
        <time>2013-09-08T07:28:07Z</time>
      </trkpt>
      <trkpt lat="42.510467385873199" lon="13.55553693138063">
        <ele>1317.1400000000001</ele>
        <time>2013-09-08T07:28:22Z</time>
      </trkpt>
      <trkpt lat="42.510578529909253" lon="13.555520502850413">
        <ele>1315.7</ele>
        <time>2013-09-08T07:28:35Z</time>
      </trkpt>
      <trkpt lat="42.510635610669851" lon="13.555500470101833">
        <ele>1315.22</ele>
        <time>2013-09-08T07:28:43Z</time>
      </trkpt>
      <trkpt lat="42.510756058618426" lon="13.555489322170615">
        <ele>1314.26</ele>
        <time>2013-09-08T07:28:59Z</time>
      </trkpt>
      <trkpt lat="42.51084222458303" lon="13.55549443513155">
        <ele>1313.78</ele>
        <time>2013-09-08T07:29:12Z</time>
      </trkpt>
      <trkpt lat="42.510889749974012" lon="13.555487142875791">
        <ele>1311.8599999999999</ele>
        <time>2013-09-08T07:29:21Z</time>
      </trkpt>
      <trkpt lat="42.510993853211403" lon="13.55546853505075">
        <ele>1310.4100000000001</ele>
        <time>2013-09-08T07:29:35Z</time>
      </trkpt>
      <trkpt lat="42.511060237884521" lon="13.555427882820368">
        <ele>1310.4100000000001</ele>
        <time>2013-09-08T07:29:49Z</time>
      </trkpt>
      <trkpt lat="42.511115809902549" lon="13.555434672161937">
        <ele>1309.45</ele>
        <time>2013-09-08T07:30:03Z</time>
      </trkpt>
      <trkpt lat="42.511173309758306" lon="13.555436097085476">
        <ele>1308.97</ele>
        <time>2013-09-08T07:30:19Z</time>
      </trkpt>
      <trkpt lat="42.51126098446548" lon="13.555367784574628">
        <ele>1308.01</ele>
        <time>2013-09-08T07:30:33Z</time>
      </trkpt>
      <trkpt lat="42.51132988370955" lon="13.555350517854095">
        <ele>1308.01</ele>
        <time>2013-09-08T07:30:46Z</time>
      </trkpt>
      <trkpt lat="42.511446727439761" lon="13.555323695763946">
        <ele>1307.53</ele>
        <time>2013-09-08T07:30:59Z</time>
      </trkpt>
      <trkpt lat="42.511573629453778" lon="13.555370382964611">
        <ele>1306.0899999999999</ele>
        <time>2013-09-08T07:31:13Z</time>
      </trkpt>
      <trkpt lat="42.511665243655443" lon="13.555418914183974">
        <ele>1304.6500000000001</ele>
        <time>2013-09-08T07:31:27Z</time>
      </trkpt>
      <trkpt lat="42.511749481782317" lon="13.555389242246747">
        <ele>1303.2</ele>
        <time>2013-09-08T07:31:41Z</time>
      </trkpt>
      <trkpt lat="42.511829528957605" lon="13.555391672998667">
        <ele>1301.76</ele>
        <time>2013-09-08T07:31:55Z</time>
      </trkpt>
      <trkpt lat="42.511922232806683" lon="13.555398378521204">
        <ele>1299.8399999999999</ele>
        <time>2013-09-08T07:32:04Z</time>
      </trkpt>
      <trkpt lat="42.511981660500169" lon="13.555435258895159">
        <ele>1299.8399999999999</ele>
        <time>2013-09-08T07:32:16Z</time>
      </trkpt>
      <trkpt lat="42.512092385441065" lon="13.555479599162936">
        <ele>1299.3599999999999</ele>
        <time>2013-09-08T07:32:29Z</time>
      </trkpt>
      <trkpt lat="42.512214425951242" lon="13.555525364354253">
        <ele>1297.4400000000001</ele>
        <time>2013-09-08T07:32:42Z</time>
      </trkpt>
      <trkpt lat="42.512278631329536" lon="13.555630557239056">
        <ele>1295.51</ele>
        <time>2013-09-08T07:32:56Z</time>
      </trkpt>
      <trkpt lat="42.512412406504154" lon="13.555713035166264">
        <ele>1292.6300000000001</ele>
        <time>2013-09-08T07:33:12Z</time>
      </trkpt>
      <trkpt lat="42.512504439800978" lon="13.555780593305826">
        <ele>1291.1900000000001</ele>
        <time>2013-09-08T07:33:25Z</time>
      </trkpt>
      <trkpt lat="42.512594796717167" lon="13.555835830047727">
        <ele>1289.75</ele>
        <time>2013-09-08T07:33:37Z</time>
      </trkpt>
      <trkpt lat="42.512701498344541" lon="13.555860053747892">
        <ele>1287.3399999999999</ele>
        <time>2013-09-08T07:33:49Z</time>
      </trkpt>
      <trkpt lat="42.512765200808644" lon="13.555882601067424">
        <ele>1286.8599999999999</ele>
        <time>2013-09-08T07:34:01Z</time>
      </trkpt>
      <trkpt lat="42.51284466125071" lon="13.555884445086122">
        <ele>1285.9000000000001</ele>
        <time>2013-09-08T07:34:13Z</time>
      </trkpt>
      <trkpt lat="42.512915907427669" lon="13.555864412337542">
        <ele>1283.5</ele>
        <time>2013-09-08T07:34:23Z</time>
      </trkpt>
      <trkpt lat="42.512990506365895" lon="13.555775228887796">
        <ele>1281.5699999999999</ele>
        <time>2013-09-08T07:34:37Z</time>
      </trkpt>
      <trkpt lat="42.513036774471402" lon="13.5556645039469">
        <ele>1278.6900000000001</ele>
        <time>2013-09-08T07:34:50Z</time>
      </trkpt>
      <trkpt lat="42.51308212056756" lon="13.555622175335884">
        <ele>1277.25</ele>
        <time>2013-09-08T07:34:57Z</time>
      </trkpt>
      <trkpt lat="42.513163592666388" lon="13.555536093190312">
        <ele>1275.3299999999999</ele>
        <time>2013-09-08T07:35:10Z</time>
      </trkpt>
      <trkpt lat="42.513206759467721" lon="13.555409107357264">
        <ele>1273.4000000000001</ele>
        <time>2013-09-08T07:35:25Z</time>
      </trkpt>
      <trkpt lat="42.513240538537502" lon="13.555298633873463">
        <ele>1271.96</ele>
        <time>2013-09-08T07:35:40Z</time>
      </trkpt>
      <trkpt lat="42.513251267373562" lon="13.555252952501178">
        <ele>1271.96</ele>
        <time>2013-09-08T07:35:50Z</time>
      </trkpt>
      <trkpt lat="42.513299295678735" lon="13.555165193974972">
        <ele>1268.5999999999999</ele>
        <time>2013-09-08T07:36:04Z</time>
      </trkpt>
      <trkpt lat="42.513284459710121" lon="13.55508841574192">
        <ele>1266.6700000000001</ele>
        <time>2013-09-08T07:36:15Z</time>
      </trkpt>
      <trkpt lat="42.513259397819638" lon="13.555016247555614">
        <ele>1265.71</ele>
        <time>2013-09-08T07:36:26Z</time>
      </trkpt>
      <trkpt lat="42.513201981782913" lon="13.554908540099859">
        <ele>1263.79</ele>
        <time>2013-09-08T07:36:40Z</time>
      </trkpt>
      <trkpt lat="42.513220254331827" lon="13.55488465167582">
        <ele>1263.79</ele>
        <time>2013-09-08T07:36:51Z</time>
      </trkpt>
      <trkpt lat="42.513287141919136" lon="13.554882556200027">
        <ele>1262.3499999999999</ele>
        <time>2013-09-08T07:37:02Z</time>
      </trkpt>
      <trkpt lat="42.513321507722139" lon="13.554924298077822">
        <ele>1261.3900000000001</ele>
        <time>2013-09-08T07:37:15Z</time>
      </trkpt>
      <trkpt lat="42.513380851596594" lon="13.554858081042767">
        <ele>1259.46</ele>
        <time>2013-09-08T07:37:31Z</time>
      </trkpt>
      <trkpt lat="42.513444470241666" lon="13.554833605885506">
        <ele>1257.54</ele>
        <time>2013-09-08T07:37:41Z</time>
      </trkpt>
      <trkpt lat="42.513524936512113" lon="13.554792115464807">
        <ele>1256.5799999999999</ele>
        <time>2013-09-08T07:37:50Z</time>
      </trkpt>
      <trkpt lat="42.513657370582223" lon="13.554718438535929">
        <ele>1253.7</ele>
        <time>2013-09-08T07:38:04Z</time>
      </trkpt>
      <trkpt lat="42.513705566525459" lon="13.55475171469152">
        <ele>1252.74</ele>
        <time>2013-09-08T07:38:18Z</time>
      </trkpt>
      <trkpt lat="42.513794330880046" lon="13.554804604500532">
        <ele>1252.74</ele>
        <time>2013-09-08T07:38:46Z</time>
      </trkpt>
      <trkpt lat="42.513844957575202" lon="13.554812567308545">
        <ele>1251.77</ele>
        <time>2013-09-08T07:39:01Z</time>
      </trkpt>
      <trkpt lat="42.513820398598909" lon="13.554818350821733">
        <ele>1252.25</ele>
        <time>2013-09-08T07:39:22Z</time>
      </trkpt>
      <trkpt lat="42.513847136870027" lon="13.55487341992557">
        <ele>1251.77</ele>
        <time>2013-09-08T07:39:43Z</time>
      </trkpt>
      <trkpt lat="42.513845209032297" lon="13.554862942546606">
        <ele>1252.25</ele>
        <time>2013-09-08T07:40:00Z</time>
      </trkpt>
      <trkpt lat="42.513883849605918" lon="13.554918095469475">
        <ele>1251.77</ele>
        <time>2013-09-08T07:40:17Z</time>
      </trkpt>
      <trkpt lat="42.513799946755171" lon="13.554825559258461">
        <ele>1251.77</ele>
        <time>2013-09-08T07:40:44Z</time>
      </trkpt>
      <trkpt lat="42.513817381113768" lon="13.554804939776659">
        <ele>1251.77</ele>
        <time>2013-09-08T07:41:04Z</time>
      </trkpt>
      <trkpt lat="42.513820566236973" lon="13.554880041629076">
        <ele>1253.7</ele>
        <time>2013-09-08T07:41:23Z</time>
      </trkpt>
      <trkpt lat="42.51379206776619" lon="13.554928405210376">
        <ele>1254.6600000000001</ele>
        <time>2013-09-08T07:41:38Z</time>
      </trkpt>
      <trkpt lat="42.513763485476375" lon="13.554948186501861">
        <ele>1255.6199999999999</ele>
        <time>2013-09-08T07:41:51Z</time>
      </trkpt>
      <trkpt lat="42.513706153258681" lon="13.554949695244431">
        <ele>1257.0599999999999</ele>
        <time>2013-09-08T07:42:04Z</time>
      </trkpt>
      <trkpt lat="42.513648569583893" lon="13.55495355091989">
        <ele>1258.5</ele>
        <time>2013-09-08T07:42:20Z</time>
      </trkpt>
      <trkpt lat="42.513610599562526" lon="13.554967800155282">
        <ele>1259.46</ele>
        <time>2013-09-08T07:42:36Z</time>
      </trkpt>
      <trkpt lat="42.513563325628638" lon="13.555002836510539">
        <ele>1260.4300000000001</ele>
        <time>2013-09-08T07:42:47Z</time>
      </trkpt>
      <trkpt lat="42.513516135513783" lon="13.555003926157951">
        <ele>1262.3499999999999</ele>
        <time>2013-09-08T07:43:02Z</time>
      </trkpt>
      <trkpt lat="42.513446984812617" lon="13.555039465427399">
        <ele>1263.3099999999999</ele>
        <time>2013-09-08T07:43:14Z</time>
      </trkpt>
      <trkpt lat="42.513378923758864" lon="13.555095372721553">
        <ele>1266.6700000000001</ele>
        <time>2013-09-08T07:43:30Z</time>
      </trkpt>
      <trkpt lat="42.513355538249016" lon="13.555128648877144">
        <ele>1268.1199999999999</ele>
        <time>2013-09-08T07:43:45Z</time>
      </trkpt>
      <trkpt lat="42.513322597369552" lon="13.555131750181317">
        <ele>1268.1199999999999</ele>
        <time>2013-09-08T07:44:02Z</time>
      </trkpt>
      <trkpt lat="42.513313377276063" lon="13.55508791282773">
        <ele>1267.6400000000001</ele>
        <time>2013-09-08T07:44:13Z</time>
      </trkpt>
      <trkpt lat="42.513393256813288" lon="13.555034352466464">
        <ele>1265.23</ele>
        <time>2013-09-08T07:44:26Z</time>
      </trkpt>
      <trkpt lat="42.513442961499095" lon="13.554988754913211">
        <ele>1263.79</ele>
        <time>2013-09-08T07:44:37Z</time>
      </trkpt>
      <trkpt lat="42.51346324570477" lon="13.554970314726233">
        <ele>1263.3099999999999</ele>
        <time>2013-09-08T07:44:48Z</time>
      </trkpt>
      <trkpt lat="42.513549914583564" lon="13.554925639182329">
        <ele>1260.9100000000001</ele>
        <time>2013-09-08T07:45:01Z</time>
      </trkpt>
      <trkpt lat="42.513598026707768" lon="13.554883226752281">
        <ele>1258.98</ele>
        <time>2013-09-08T07:45:08Z</time>
      </trkpt>
      <trkpt lat="42.513608084991574" lon="13.554871324449778">
        <ele>1258.5</ele>
        <time>2013-09-08T07:45:09Z</time>
      </trkpt>
      <trkpt lat="42.513708835467696" lon="13.554864786565304">
        <ele>1256.5799999999999</ele>
        <time>2013-09-08T07:45:22Z</time>
      </trkpt>
      <trkpt lat="42.513745380565524" lon="13.554763533174992">
        <ele>1253.7</ele>
        <time>2013-09-08T07:45:33Z</time>
      </trkpt>
      <trkpt lat="42.513754181563854" lon="13.554754061624408">
        <ele>1253.22</ele>
        <time>2013-09-08T07:45:35Z</time>
      </trkpt>
      <trkpt lat="42.513808580115438" lon="13.554775519296527">
        <ele>1252.25</ele>
        <time>2013-09-08T07:45:46Z</time>
      </trkpt>
      <trkpt lat="42.513740938156843" lon="13.554832097142935">
        <ele>1252.74</ele>
        <time>2013-09-08T07:46:01Z</time>
      </trkpt>
      <trkpt lat="42.51383800059557" lon="13.554765293374658">
        <ele>1251.29</ele>
        <time>2013-09-08T07:46:18Z</time>
      </trkpt>
      <trkpt lat="42.513878736644983" lon="13.554784068837762">
        <ele>1250.8099999999999</ele>
        <time>2013-09-08T07:46:29Z</time>
      </trkpt>
      <trkpt lat="42.513905391097069" lon="13.554808963090181">
        <ele>1249.8499999999999</ele>
        <time>2013-09-08T07:46:49Z</time>
      </trkpt>
      <trkpt lat="42.513935230672359" lon="13.554790606722236">
        <ele>1249.3699999999999</ele>
        <time>2013-09-08T07:47:05Z</time>
      </trkpt>
      <trkpt lat="42.514039501547813" lon="13.554792450740933">
        <ele>1248.4100000000001</ele>
        <time>2013-09-08T07:47:21Z</time>
      </trkpt>
      <trkpt lat="42.514135390520096" lon="13.554801503196359">
        <ele>1246.49</ele>
        <time>2013-09-08T07:47:34Z</time>
      </trkpt>
      <trkpt lat="42.514235386624932" lon="13.5548528842628">
        <ele>1244.5599999999999</ele>
        <time>2013-09-08T07:47:48Z</time>
      </trkpt>
      <trkpt lat="42.514379974454641" lon="13.554856739938259">
        <ele>1243.1199999999999</ele>
        <time>2013-09-08T07:48:04Z</time>
      </trkpt>
      <trkpt lat="42.514369245618582" lon="13.554839976131916">
        <ele>1241.6800000000001</ele>
        <time>2013-09-08T07:48:16Z</time>
      </trkpt>
      <trkpt lat="42.51444292254746" lon="13.554898397997022">
        <ele>1242.1600000000001</ele>
        <time>2013-09-08T07:48:29Z</time>
      </trkpt>
      <trkpt lat="42.514475611969829" lon="13.554952964186668">
        <ele>1242.1600000000001</ele>
        <time>2013-09-08T07:48:45Z</time>
      </trkpt>
      <trkpt lat="42.514535458758473" lon="13.554912395775318">
        <ele>1240.24</ele>
        <time>2013-09-08T07:48:57Z</time>
      </trkpt>
      <trkpt lat="42.514590611681342" lon="13.554968638345599">
        <ele>1239.28</ele>
        <time>2013-09-08T07:49:14Z</time>
      </trkpt>
      <trkpt lat="42.514594215899706" lon="13.554991018027067">
        <ele>1238.8</ele>
        <time>2013-09-08T07:49:30Z</time>
      </trkpt>
      <trkpt lat="42.51468482427299" lon="13.554934691637754">
        <ele>1236.8699999999999</ele>
        <time>2013-09-08T07:49:43Z</time>
      </trkpt>
      <trkpt lat="42.514802841469646" lon="13.554987916722894">
        <ele>1235.9100000000001</ele>
        <time>2013-09-08T07:49:58Z</time>
      </trkpt>
      <trkpt lat="42.5148621853441" lon="13.55495204217732">
        <ele>1234.95</ele>
        <time>2013-09-08T07:50:06Z</time>
      </trkpt>
      <trkpt lat="42.514953715726733" lon="13.554950198158622">
        <ele>1233.51</ele>
        <time>2013-09-08T07:50:20Z</time>
      </trkpt>
      <trkpt lat="42.515008952468634" lon="13.554910803213716">
        <ele>1232.55</ele>
        <time>2013-09-08T07:50:32Z</time>
      </trkpt>
      <trkpt lat="42.515101153403521" lon="13.554880125448108">
        <ele>1230.1400000000001</ele>
        <time>2013-09-08T07:50:45Z</time>
      </trkpt>
      <trkpt lat="42.515205340459943" lon="13.554855901747942">
        <ele>1228.7</ele>
        <time>2013-09-08T07:50:59Z</time>
      </trkpt>
      <trkpt lat="42.515285471454263" lon="13.554920358583331">
        <ele>1228.22</ele>
        <time>2013-09-08T07:51:13Z</time>
      </trkpt>
      <trkpt lat="42.515408685430884" lon="13.554925974458456">
        <ele>1226.3</ele>
        <time>2013-09-08T07:51:24Z</time>
      </trkpt>
      <trkpt lat="42.515434166416526" lon="13.554959837347269">
        <ele>1225.8199999999999</ele>
        <time>2013-09-08T07:51:25Z</time>
      </trkpt>
      <trkpt lat="42.515513710677624" lon="13.555146921426058">
        <ele>1223.9000000000001</ele>
        <time>2013-09-08T07:51:41Z</time>
      </trkpt>
      <trkpt lat="42.515601385384798" lon="13.555178856477141">
        <ele>1223.9000000000001</ele>
        <time>2013-09-08T07:51:54Z</time>
      </trkpt>
      <trkpt lat="42.51564254052937" lon="13.555201487615705">
        <ele>1223.4200000000001</ele>
        <time>2013-09-08T07:52:07Z</time>
      </trkpt>
      <trkpt lat="42.515741279348731" lon="13.555252198129892">
        <ele>1222.9300000000001</ele>
        <time>2013-09-08T07:52:20Z</time>
      </trkpt>
      <trkpt lat="42.515792828053236" lon="13.555269045755267">
        <ele>1221.97</ele>
        <time>2013-09-08T07:52:26Z</time>
      </trkpt>
      <trkpt lat="42.515839096158743" lon="13.555281953886151">
        <ele>1221.49</ele>
        <time>2013-09-08T07:52:31Z</time>
      </trkpt>
      <trkpt lat="42.515889639034867" lon="13.555307602509856">
        <ele>1220.53</ele>
        <time>2013-09-08T07:52:36Z</time>
      </trkpt>
      <trkpt lat="42.516010086983442" lon="13.555363174527884">
        <ele>1220.53</ele>
        <time>2013-09-08T07:52:52Z</time>
      </trkpt>
      <trkpt lat="42.516131037846208" lon="13.555388655513525">
        <ele>1219.0899999999999</ele>
        <time>2013-09-08T07:53:07Z</time>
      </trkpt>
      <trkpt lat="42.516212090849876" lon="13.555402737110853">
        <ele>1217.6500000000001</ele>
        <time>2013-09-08T07:53:16Z</time>
      </trkpt>
      <trkpt lat="42.516285181045532" lon="13.555431654676795">
        <ele>1217.1700000000001</ele>
        <time>2013-09-08T07:53:32Z</time>
      </trkpt>
      <trkpt lat="42.516310075297952" lon="13.555427715182304">
        <ele>1216.21</ele>
        <time>2013-09-08T07:53:38Z</time>
      </trkpt>
      <trkpt lat="42.516444604843855" lon="13.555408101528883">
        <ele>1215.72</ele>
        <time>2013-09-08T07:53:52Z</time>
      </trkpt>
      <trkpt lat="42.516557425260544" lon="13.555403407663107">
        <ele>1214.28</ele>
        <time>2013-09-08T07:54:03Z</time>
      </trkpt>
      <trkpt lat="42.516609225422144" lon="13.555411705747247">
        <ele>1214.28</ele>
        <time>2013-09-08T07:54:08Z</time>
      </trkpt>
      <trkpt lat="42.516822796314955" lon="13.555419081822038">
        <ele>1212.8399999999999</ele>
        <time>2013-09-08T07:54:25Z</time>
      </trkpt>
      <trkpt lat="42.516969731077552" lon="13.555451603606343">
        <ele>1211.8800000000001</ele>
        <time>2013-09-08T07:54:40Z</time>
      </trkpt>
      <trkpt lat="42.517065871506929" lon="13.555460823699832">
        <ele>1211.4000000000001</ele>
        <time>2013-09-08T07:54:50Z</time>
      </trkpt>
      <trkpt lat="42.51711624674499" lon="13.555487645789981">
        <ele>1210.9200000000001</ele>
        <time>2013-09-08T07:55:04Z</time>
      </trkpt>
      <trkpt lat="42.517140805721283" lon="13.555477671325207">
        <ele>1210.9200000000001</ele>
        <time>2013-09-08T07:55:20Z</time>
      </trkpt>
      <trkpt lat="42.517234850674868" lon="13.555459817871451">
        <ele>1209.96</ele>
        <time>2013-09-08T07:55:35Z</time>
      </trkpt>
      <trkpt lat="42.517311796545982" lon="13.555420590564609">
        <ele>1209.48</ele>
        <time>2013-09-08T07:55:49Z</time>
      </trkpt>
      <trkpt lat="42.517348257824779" lon="13.555515054613352">
        <ele>1209</ele>
        <time>2013-09-08T07:56:02Z</time>
      </trkpt>
      <trkpt lat="42.517428137362003" lon="13.555494770407677">
        <ele>1208.51</ele>
        <time>2013-09-08T07:56:15Z</time>
      </trkpt>
      <trkpt lat="42.517481530085206" lon="13.555482532829046">
        <ele>1208.03</ele>
        <time>2013-09-08T07:56:23Z</time>
      </trkpt>
      <trkpt lat="42.517637014389038" lon="13.555467193946242">
        <ele>1207.0699999999999</ele>
        <time>2013-09-08T07:56:39Z</time>
      </trkpt>
      <trkpt lat="42.517698369920254" lon="13.555457722395658">
        <ele>1206.5899999999999</ele>
        <time>2013-09-08T07:56:49Z</time>
      </trkpt>
      <trkpt lat="42.517779003828764" lon="13.555499631911516">
        <ele>1205.6300000000001</ele>
        <time>2013-09-08T07:56:58Z</time>
      </trkpt>
      <trkpt lat="42.517857123166323" lon="13.555507510900497">
        <ele>1205.1500000000001</ele>
        <time>2013-09-08T07:57:06Z</time>
      </trkpt>
      <trkpt lat="42.517965920269489" lon="13.555569788441062">
        <ele>1204.1900000000001</ele>
        <time>2013-09-08T07:57:21Z</time>
      </trkpt>
      <trkpt lat="42.518130792304873" lon="13.555615302175283">
        <ele>1202.75</ele>
        <time>2013-09-08T07:57:37Z</time>
      </trkpt>
      <trkpt lat="42.51831385307014" lon="13.555656960234046">
        <ele>1202.75</ele>
        <time>2013-09-08T07:57:55Z</time>
      </trkpt>
      <trkpt lat="42.518479060381651" lon="13.555682189762592">
        <ele>1201.3</ele>
        <time>2013-09-08T07:58:10Z</time>
      </trkpt>
      <trkpt lat="42.518671173602343" lon="13.555668359622359">
        <ele>1199.3800000000001</ele>
        <time>2013-09-08T07:58:27Z</time>
      </trkpt>
      <trkpt lat="42.518736468628049" lon="13.555708089843392">
        <ele>1198.9000000000001</ele>
        <time>2013-09-08T07:58:33Z</time>
      </trkpt>
      <trkpt lat="42.518932353705168" lon="13.555661821737885">
        <ele>1197.46</ele>
        <time>2013-09-08T07:58:52Z</time>
      </trkpt>
      <trkpt lat="42.519136536866426" lon="13.555542128160596">
        <ele>1197.46</ele>
        <time>2013-09-08T07:59:12Z</time>
      </trkpt>
      <trkpt lat="42.519274838268757" lon="13.555462164804339">
        <ele>1197.9400000000001</ele>
        <time>2013-09-08T07:59:30Z</time>
      </trkpt>
      <trkpt lat="42.51931993290782" lon="13.555458812043071">
        <ele>1197.9400000000001</ele>
        <time>2013-09-08T07:59:34Z</time>
      </trkpt>
      <trkpt lat="42.519545322284102" lon="13.555517736822367">
        <ele>1197.46</ele>
        <time>2013-09-08T07:59:52Z</time>
      </trkpt>
      <trkpt lat="42.519641630351543" lon="13.555610859766603">
        <ele>1196.98</ele>
        <time>2013-09-08T08:00:03Z</time>
      </trkpt>
      <trkpt lat="42.519765179604292" lon="13.55567523278296">
        <ele>1194.0899999999999</ele>
        <time>2013-09-08T08:00:19Z</time>
      </trkpt>
      <trkpt lat="42.519848411902785" lon="13.555701468139887">
        <ele>1191.6900000000001</ele>
        <time>2013-09-08T08:00:32Z</time>
      </trkpt>
      <trkpt lat="42.519923094660044" lon="13.555707922205329">
        <ele>1189.29</ele>
        <time>2013-09-08T08:00:45Z</time>
      </trkpt>
      <trkpt lat="42.519929297268391" lon="13.555733235552907">
        <ele>1188.8099999999999</ele>
        <time>2013-09-08T08:00:47Z</time>
      </trkpt>
      <trkpt lat="42.519909264519811" lon="13.555808337405324">
        <ele>1185.4400000000001</ele>
        <time>2013-09-08T08:01:01Z</time>
      </trkpt>
      <trkpt lat="42.519925106316805" lon="13.555810516700149">
        <ele>1183.52</ele>
        <time>2013-09-08T08:01:15Z</time>
      </trkpt>
      <trkpt lat="42.520031556487083" lon="13.555765589699149">
        <ele>1181.5999999999999</ele>
        <time>2013-09-08T08:01:29Z</time>
      </trkpt>
      <trkpt lat="42.52010858617723" lon="13.555759470909834">
        <ele>1179.1900000000001</ele>
        <time>2013-09-08T08:01:41Z</time>
      </trkpt>
      <trkpt lat="42.520164744928479" lon="13.555736839771271">
        <ele>1178.71</ele>
        <time>2013-09-08T08:01:47Z</time>
      </trkpt>
      <trkpt lat="42.520210510119796" lon="13.555699205026031">
        <ele>1175.3499999999999</ele>
        <time>2013-09-08T08:02:00Z</time>
      </trkpt>
      <trkpt lat="42.520256526768208" lon="13.555673556402326">
        <ele>1174.8699999999999</ele>
        <time>2013-09-08T08:02:08Z</time>
      </trkpt>
      <trkpt lat="42.520335065200925" lon="13.555562915280461">
        <ele>1171.98</ele>
        <time>2013-09-08T08:02:24Z</time>
      </trkpt>
      <trkpt lat="42.520348057150841" lon="13.555556461215019">
        <ele>1171.5</ele>
        <time>2013-09-08T08:02:26Z</time>
      </trkpt>
      <trkpt lat="42.520389128476381" lon="13.555552521720529">
        <ele>1170.54</ele>
        <time>2013-09-08T08:02:30Z</time>
      </trkpt>
      <trkpt lat="42.520415615290403" lon="13.555550426244736">
        <ele>1170.0599999999999</ele>
        <time>2013-09-08T08:02:33Z</time>
      </trkpt>
      <trkpt lat="42.520547630265355" lon="13.55536786839366">
        <ele>1168.6199999999999</ele>
        <time>2013-09-08T08:02:50Z</time>
      </trkpt>
      <trkpt lat="42.520635891705751" lon="13.555302489548922">
        <ele>1166.22</ele>
        <time>2013-09-08T08:03:03Z</time>
      </trkpt>
      <trkpt lat="42.52068467438221" lon="13.55529754422605">
        <ele>1165.26</ele>
        <time>2013-09-08T08:03:08Z</time>
      </trkpt>
      <trkpt lat="42.52075701020658" lon="13.555232333019376">
        <ele>1161.4100000000001</ele>
        <time>2013-09-08T08:03:21Z</time>
      </trkpt>
      <trkpt lat="42.520840242505074" lon="13.555198889225721">
        <ele>1158.05</ele>
        <time>2013-09-08T08:03:33Z</time>
      </trkpt>
      <trkpt lat="42.520914170891047" lon="13.555087661370635">
        <ele>1155.1600000000001</ele>
        <time>2013-09-08T08:03:45Z</time>
      </trkpt>
      <trkpt lat="42.520979968830943" lon="13.555027563124895">
        <ele>1152.76</ele>
        <time>2013-09-08T08:03:55Z</time>
      </trkpt>
      <trkpt lat="42.521049790084362" lon="13.554941648617387">
        <ele>1150.3499999999999</ele>
        <time>2013-09-08T08:04:08Z</time>
      </trkpt>
      <trkpt lat="42.521084658801556" lon="13.554939134046435">
        <ele>1149.3900000000001</ele>
        <time>2013-09-08T08:04:20Z</time>
      </trkpt>
      <trkpt lat="42.521094968542457" lon="13.554866798222065">
        <ele>1148.4300000000001</ele>
        <time>2013-09-08T08:04:34Z</time>
      </trkpt>
      <trkpt lat="42.521128663793206" lon="13.554808376356959">
        <ele>1147.47</ele>
        <time>2013-09-08T08:04:40Z</time>
      </trkpt>
      <trkpt lat="42.521160263568163" lon="13.554716175422072">
        <ele>1144.5899999999999</ele>
        <time>2013-09-08T08:04:53Z</time>
      </trkpt>
      <trkpt lat="42.5212118960917" lon="13.55465398170054">
        <ele>1142.1800000000001</ele>
        <time>2013-09-08T08:05:04Z</time>
      </trkpt>
      <trkpt lat="42.521282220259309" lon="13.554649958387017">
        <ele>1140.74</ele>
        <time>2013-09-08T08:05:16Z</time>
      </trkpt>
      <trkpt lat="42.521338379010558" lon="13.554552476853132">
        <ele>1138.3399999999999</ele>
        <time>2013-09-08T08:05:30Z</time>
      </trkpt>
      <trkpt lat="42.521400153636932" lon="13.554472429677844">
        <ele>1137.8599999999999</ele>
        <time>2013-09-08T08:05:44Z</time>
      </trkpt>
      <trkpt lat="42.521412475034595" lon="13.554391209036112">
        <ele>1136.9000000000001</ele>
        <time>2013-09-08T08:05:59Z</time>
      </trkpt>
      <trkpt lat="42.521409122273326" lon="13.554317783564329">
        <ele>1135.45</ele>
        <time>2013-09-08T08:06:13Z</time>
      </trkpt>
      <trkpt lat="42.521404763683677" lon="13.554297666996717">
        <ele>1134.01</ele>
        <time>2013-09-08T08:06:15Z</time>
      </trkpt>
      <trkpt lat="42.521460670977831" lon="13.554274616762996">
        <ele>1133.05</ele>
        <time>2013-09-08T08:06:32Z</time>
      </trkpt>
      <trkpt lat="42.521530240774155" lon="13.554375115782022">
        <ele>1130.1700000000001</ele>
        <time>2013-09-08T08:06:46Z</time>
      </trkpt>
      <trkpt lat="42.521554632112384" lon="13.554414510726929">
        <ele>1129.21</ele>
        <time>2013-09-08T08:06:50Z</time>
      </trkpt>
      <trkpt lat="42.521582460030913" lon="13.554454240947962">
        <ele>1128.73</ele>
        <time>2013-09-08T08:07:05Z</time>
      </trkpt>
      <trkpt lat="42.521584136411548" lon="13.554419707506895">
        <ele>1126.8</ele>
        <time>2013-09-08T08:07:09Z</time>
      </trkpt>
      <trkpt lat="42.521599140018225" lon="13.554306384176016">
        <ele>1124.4000000000001</ele>
        <time>2013-09-08T08:07:21Z</time>
      </trkpt>
      <trkpt lat="42.52162872813642" lon="13.554200185462832">
        <ele>1121.03</ele>
        <time>2013-09-08T08:07:33Z</time>
      </trkpt>
      <trkpt lat="42.521670470014215" lon="13.554108235985041">
        <ele>1117.6700000000001</ele>
        <time>2013-09-08T08:07:44Z</time>
      </trkpt>
      <trkpt lat="42.521698465570807" lon="13.554082754999399">
        <ele>1117.1900000000001</ele>
        <time>2013-09-08T08:08:02Z</time>
      </trkpt>
      <trkpt lat="42.521704668179154" lon="13.553951494395733">
        <ele>1114.3099999999999</ele>
        <time>2013-09-08T08:08:14Z</time>
      </trkpt>
      <trkpt lat="42.521718665957451" lon="13.553834483027458">
        <ele>1111.9000000000001</ele>
        <time>2013-09-08T08:08:28Z</time>
      </trkpt>
      <trkpt lat="42.521723946556449" lon="13.553685788065195">
        <ele>1110.46</ele>
        <time>2013-09-08T08:08:41Z</time>
      </trkpt>
      <trkpt lat="42.521752696484327" lon="13.553537176921964">
        <ele>1107.5799999999999</ele>
        <time>2013-09-08T08:08:54Z</time>
      </trkpt>
      <trkpt lat="42.521776584908366" lon="13.553380435332656">
        <ele>1104.6900000000001</ele>
        <time>2013-09-08T08:09:09Z</time>
      </trkpt>
      <trkpt lat="42.521798964589834" lon="13.553244397044182">
        <ele>1101.8099999999999</ele>
        <time>2013-09-08T08:09:21Z</time>
      </trkpt>
      <trkpt lat="42.52178069204092" lon="13.553149178624153">
        <ele>1100.3699999999999</ele>
        <time>2013-09-08T08:09:38Z</time>
      </trkpt>
      <trkpt lat="42.521820841357112" lon="13.552990509197116">
        <ele>1096.52</ele>
        <time>2013-09-08T08:09:54Z</time>
      </trkpt>
      <trkpt lat="42.521831737831235" lon="13.552966872230172">
        <ele>1096.04</ele>
        <time>2013-09-08T08:09:56Z</time>
      </trkpt>
      <trkpt lat="42.521857637912035" lon="13.552942061796784">
        <ele>1096.04</ele>
        <time>2013-09-08T08:09:59Z</time>
      </trkpt>
      <trkpt lat="42.521944893524051" lon="13.552883807569742">
        <ele>1093.6400000000001</ele>
        <time>2013-09-08T08:10:13Z</time>
      </trkpt>
      <trkpt lat="42.52196392044425" lon="13.552878778427839">
        <ele>1094.1199999999999</ele>
        <time>2013-09-08T08:10:30Z</time>
      </trkpt>
      <trkpt lat="42.522009266540408" lon="13.552976511418819">
        <ele>1095.0799999999999</ele>
        <time>2013-09-08T08:10:39Z</time>
      </trkpt>
      <trkpt lat="42.522084200754762" lon="13.553090421482921">
        <ele>1095.5599999999999</ele>
        <time>2013-09-08T08:10:53Z</time>
      </trkpt>
      <trkpt lat="42.52208068035543" lon="13.553065778687596">
        <ele>1095.0799999999999</ele>
        <time>2013-09-08T08:11:08Z</time>
      </trkpt>
      <trkpt lat="42.522104317322373" lon="13.553093522787094">
        <ele>1095.0799999999999</ele>
        <time>2013-09-08T08:11:22Z</time>
      </trkpt>
      <trkpt lat="42.522125355899334" lon="13.553090505301952">
        <ele>1095.0799999999999</ele>
        <time>2013-09-08T08:11:31Z</time>
      </trkpt>
      <trkpt lat="42.522274469956756" lon="13.553010541945696">
        <ele>1095.0799999999999</ele>
        <time>2013-09-08T08:11:46Z</time>
      </trkpt>
      <trkpt lat="42.522398354485631" lon="13.552956562489271">
        <ele>1093.1600000000001</ele>
        <time>2013-09-08T08:12:01Z</time>
      </trkpt>
      <trkpt lat="42.522402042523026" lon="13.552954383194447">
        <ele>1092.6800000000001</ele>
        <time>2013-09-08T08:12:14Z</time>
      </trkpt>
      <trkpt lat="42.522393492981791" lon="13.552964357659221">
        <ele>1092.6800000000001</ele>
        <time>2013-09-08T08:12:15Z</time>
      </trkpt>
      <trkpt lat="42.522312439978123" lon="13.553048092871904">
        <ele>1094.1199999999999</ele>
        <time>2013-09-08T08:12:25Z</time>
      </trkpt>
      <trkpt lat="42.522285282611847" lon="13.553079776465893">
        <ele>1094.1199999999999</ele>
        <time>2013-09-08T08:12:31Z</time>
      </trkpt>
      <trkpt lat="42.522298274561763" lon="13.553237440064549">
        <ele>1093.1600000000001</ele>
        <time>2013-09-08T08:12:44Z</time>
      </trkpt>
      <trkpt lat="42.522294167429209" lon="13.553244145587087">
        <ele>1093.6400000000001</ele>
        <time>2013-09-08T08:12:45Z</time>
      </trkpt>
      <trkpt lat="42.52225561067462" lon="13.553279098123312">
        <ele>1093.1600000000001</ele>
        <time>2013-09-08T08:12:49Z</time>
      </trkpt>
      <trkpt lat="42.522234655916691" lon="13.553297203034163">
        <ele>1092.6800000000001</ele>
        <time>2013-09-08T08:13:04Z</time>
      </trkpt>
      <trkpt lat="42.522237002849579" lon="13.553284713998437">
        <ele>1092.6800000000001</ele>
        <time>2013-09-08T08:13:06Z</time>
      </trkpt>
      <trkpt lat="42.522260723635554" lon="13.55322914198041">
        <ele>1092.6800000000001</ele>
        <time>2013-09-08T08:13:11Z</time>
      </trkpt>
      <trkpt lat="42.522278157994151" lon="13.553206427022815">
        <ele>1092.6800000000001</ele>
        <time>2013-09-08T08:13:14Z</time>
      </trkpt>
      <trkpt lat="42.522332053631544" lon="13.553155045956373">
        <ele>1093.1600000000001</ele>
        <time>2013-09-08T08:13:31Z</time>
      </trkpt>
      <trkpt lat="42.522290563210845" lon="13.553165104240179">
        <ele>1093.1600000000001</ele>
        <time>2013-09-08T08:13:46Z</time>
      </trkpt>
      <trkpt lat="42.522202134132385" lon="13.553175749257207">
        <ele>1093.1600000000001</ele>
        <time>2013-09-08T08:13:54Z</time>
      </trkpt>
      <trkpt lat="42.522139437496662" lon="13.553193770349026">
        <ele>1093.1600000000001</ele>
        <time>2013-09-08T08:14:01Z</time>
      </trkpt>
      <trkpt lat="42.522088810801506" lon="13.553217239677906">
        <ele>1093.6400000000001</ele>
        <time>2013-09-08T08:14:14Z</time>
      </trkpt>
      <trkpt lat="42.522067939862609" lon="13.55316711589694">
        <ele>1094.1199999999999</ele>
        <time>2013-09-08T08:14:30Z</time>
      </trkpt>
      <trkpt lat="42.522059390321374" lon="13.55314951390028">
        <ele>1094.5999999999999</ele>
        <time>2013-09-08T08:14:44Z</time>
      </trkpt>
      <trkpt lat="42.52204061485827" lon="13.553074831143022">
        <ele>1094.5999999999999</ele>
        <time>2013-09-08T08:14:56Z</time>
      </trkpt>
      <trkpt lat="42.521945144981146" lon="13.552873078733683">
        <ele>1092.2</ele>
        <time>2013-09-08T08:15:13Z</time>
      </trkpt>
      <trkpt lat="42.521871132776141" lon="13.552735950797796">
        <ele>1088.8299999999999</ele>
        <time>2013-09-08T08:15:27Z</time>
      </trkpt>
      <trkpt lat="42.521805167198181" lon="13.552595637738705">
        <ele>1085.47</ele>
        <time>2013-09-08T08:15:39Z</time>
      </trkpt>
      <trkpt lat="42.521801143884659" lon="13.552579963579774">
        <ele>1085.47</ele>
        <time>2013-09-08T08:15:40Z</time>
      </trkpt>
      <trkpt lat="42.521796617656946" lon="13.552517266944051">
        <ele>1084.99</ele>
        <time>2013-09-08T08:15:44Z</time>
      </trkpt>
      <trkpt lat="42.521808771416545" lon="13.552422132343054">
        <ele>1084.5</ele>
        <time>2013-09-08T08:15:56Z</time>
      </trkpt>
      <trkpt lat="42.521810363978148" lon="13.552440237253904">
        <ele>1084.99</ele>
        <time>2013-09-08T08:16:18Z</time>
      </trkpt>
      <trkpt lat="42.521829642355442" lon="13.552456414327025">
        <ele>1084.99</ele>
        <time>2013-09-08T08:16:23Z</time>
      </trkpt>
      <trkpt lat="42.521832156926394" lon="13.552494551986456">
        <ele>1084.5</ele>
        <time>2013-09-08T08:16:27Z</time>
      </trkpt>
      <trkpt lat="42.521798042580485" lon="13.55252455919981">
        <ele>1084.5</ele>
        <time>2013-09-08T08:16:31Z</time>
      </trkpt>
      <trkpt lat="42.521719504147768" lon="13.55251383036375">
        <ele>1081.6199999999999</ele>
        <time>2013-09-08T08:16:40Z</time>
      </trkpt>
      <trkpt lat="42.521712966263294" lon="13.552507208660245">
        <ele>1081.6199999999999</ele>
        <time>2013-09-08T08:16:41Z</time>
      </trkpt>
      <trkpt lat="42.521681282669306" lon="13.552416684105992">
        <ele>1080.1800000000001</ele>
        <time>2013-09-08T08:16:48Z</time>
      </trkpt>
      <trkpt lat="42.521603163331747" lon="13.552322890609503">
        <ele>1079.22</ele>
        <time>2013-09-08T08:17:02Z</time>
      </trkpt>
      <trkpt lat="42.52160819247365" lon="13.552334373816848">
        <ele>1079.7</ele>
        <time>2013-09-08T08:17:08Z</time>
      </trkpt>
      <trkpt lat="42.521673571318388" lon="13.552468148991466">
        <ele>1080.6600000000001</ele>
        <time>2013-09-08T08:17:23Z</time>
      </trkpt>
      <trkpt lat="42.521795528009534" lon="13.552536461502314">
        <ele>1084.02</ele>
        <time>2013-09-08T08:17:37Z</time>
      </trkpt>
      <trkpt lat="42.521851435303688" lon="13.552645510062575">
        <ele>1086.9100000000001</ele>
        <time>2013-09-08T08:17:48Z</time>
      </trkpt>
      <trkpt lat="42.521909940987825" lon="13.552765036001801">
        <ele>1089.79</ele>
        <time>2013-09-08T08:18:03Z</time>
      </trkpt>
      <trkpt lat="42.521946066990495" lon="13.552871653810143">
        <ele>1091.71</ele>
        <time>2013-09-08T08:18:16Z</time>
      </trkpt>
      <trkpt lat="42.52196735702455" lon="13.552893446758389">
        <ele>1092.6800000000001</ele>
        <time>2013-09-08T08:18:21Z</time>
      </trkpt>
      <trkpt lat="42.52198931761086" lon="13.552962597459555">
        <ele>1093.6400000000001</ele>
        <time>2013-09-08T08:18:27Z</time>
      </trkpt>
      <trkpt lat="42.522011026740074" lon="13.553007608279586">
        <ele>1093.6400000000001</ele>
        <time>2013-09-08T08:18:32Z</time>
      </trkpt>
      <trkpt lat="42.522019995376468" lon="13.553039375692606">
        <ele>1093.6400000000001</ele>
        <time>2013-09-08T08:18:35Z</time>
      </trkpt>
      <trkpt lat="42.522015636786819" lon="13.553062928840518">
        <ele>1094.5999999999999</ele>
        <time>2013-09-08T08:18:38Z</time>
      </trkpt>
      <trkpt lat="42.522051595151424" lon="13.553153704851866">
        <ele>1094.1199999999999</ele>
        <time>2013-09-08T08:18:53Z</time>
      </trkpt>
      <trkpt lat="42.522103227674961" lon="13.553189495578408">
        <ele>1093.1600000000001</ele>
        <time>2013-09-08T08:19:05Z</time>
      </trkpt>
      <trkpt lat="42.522137258201838" lon="13.553335843607783">
        <ele>1091.71</ele>
        <time>2013-09-08T08:19:17Z</time>
      </trkpt>
      <trkpt lat="42.522177239879966" lon="13.553377753123641">
        <ele>1091.23</ele>
        <time>2013-09-08T08:19:35Z</time>
      </trkpt>
      <trkpt lat="42.522169779986143" lon="13.553355624899268">
        <ele>1091.23</ele>
        <time>2013-09-08T08:19:51Z</time>
      </trkpt>
      <trkpt lat="42.522191740572453" lon="13.553325450047851">
        <ele>1091.71</ele>
        <time>2013-09-08T08:20:04Z</time>
      </trkpt>
      <trkpt lat="42.522166091948748" lon="13.553307931870222">
        <ele>1091.71</ele>
        <time>2013-09-08T08:20:19Z</time>
      </trkpt>
      <trkpt lat="42.52213885076344" lon="13.553285384550691">
        <ele>1091.71</ele>
        <time>2013-09-08T08:20:35Z</time>
      </trkpt>
      <trkpt lat="42.522172881290317" lon="13.553237272426486">
        <ele>1091.23</ele>
        <time>2013-09-08T08:20:49Z</time>
      </trkpt>
      <trkpt lat="42.522165002301335" lon="13.553240457549691">
        <ele>1091.71</ele>
        <time>2013-09-08T08:21:05Z</time>
      </trkpt>
      <trkpt lat="42.522178497165442" lon="13.553243726491928">
        <ele>1091.71</ele>
        <time>2013-09-08T08:21:23Z</time>
      </trkpt>
      <trkpt lat="42.52213348634541" lon="13.553158985450864">
        <ele>1092.2</ele>
        <time>2013-09-08T08:21:36Z</time>
      </trkpt>
      <trkpt lat="42.52212418243289" lon="13.553158147260547">
        <ele>1091.71</ele>
        <time>2013-09-08T08:22:02Z</time>
      </trkpt>
      <trkpt lat="42.522122003138065" lon="13.553159236907959">
        <ele>1091.71</ele>
        <time>2013-09-08T08:22:17Z</time>
      </trkpt>
      <trkpt lat="42.522144299000502" lon="13.553198799490929">
        <ele>1091.71</ele>
        <time>2013-09-08T08:22:33Z</time>
      </trkpt>
      <trkpt lat="42.522126277908683" lon="13.553218245506287">
        <ele>1092.2</ele>
        <time>2013-09-08T08:22:47Z</time>
      </trkpt>
      <trkpt lat="42.522110603749752" lon="13.553214054554701">
        <ele>1091.71</ele>
        <time>2013-09-08T08:22:54Z</time>
      </trkpt>
      <trkpt lat="42.522082859650254" lon="13.553128559142351">
        <ele>1093.1600000000001</ele>
        <time>2013-09-08T08:23:02Z</time>
      </trkpt>
      <trkpt lat="42.522078920155764" lon="13.553084218874574">
        <ele>1093.1600000000001</ele>
        <time>2013-09-08T08:23:16Z</time>
      </trkpt>
      <trkpt lat="42.522084536030889" lon="13.553123530000448">
        <ele>1093.1600000000001</ele>
        <time>2013-09-08T08:23:29Z</time>
      </trkpt>
      <trkpt lat="42.522108172997832" lon="13.553179521113634">
        <ele>1092.6800000000001</ele>
        <time>2013-09-08T08:23:43Z</time>
      </trkpt>
      <trkpt lat="42.522122506052256" lon="13.55325018055737">
        <ele>1091.71</ele>
        <time>2013-09-08T08:23:57Z</time>
      </trkpt>
      <trkpt lat="42.522137928754091" lon="13.553277757018805">
        <ele>1091.23</ele>
        <time>2013-09-08T08:24:13Z</time>
      </trkpt>
      <trkpt lat="42.522137425839901" lon="13.553462997078896">
        <ele>1089.3099999999999</ele>
        <time>2013-09-08T08:24:31Z</time>
      </trkpt>
      <trkpt lat="42.522194087505341" lon="13.553607752546668">
        <ele>1086.4300000000001</ele>
        <time>2013-09-08T08:24:45Z</time>
      </trkpt>
      <trkpt lat="42.522241109982133" lon="13.553737755864859">
        <ele>1083.0599999999999</ele>
        <time>2013-09-08T08:24:57Z</time>
      </trkpt>
      <trkpt lat="42.522243456915021" lon="13.553908327594399">
        <ele>1080.1800000000001</ele>
        <time>2013-09-08T08:25:12Z</time>
      </trkpt>
      <trkpt lat="42.522273799404502" lon="13.553890390321612">
        <ele>1077.29</ele>
        <time>2013-09-08T08:25:27Z</time>
      </trkpt>
      <trkpt lat="42.522306572645903" lon="13.553739180788398">
        <ele>1074.4100000000001</ele>
        <time>2013-09-08T08:25:41Z</time>
      </trkpt>
      <trkpt lat="42.522358121350408" lon="13.553591491654515">
        <ele>1073.9300000000001</ele>
        <time>2013-09-08T08:25:54Z</time>
      </trkpt>
      <trkpt lat="42.522410759702325" lon="13.553519742563367">
        <ele>1073.9300000000001</ele>
        <time>2013-09-08T08:26:06Z</time>
      </trkpt>
      <trkpt lat="42.52242861315608" lon="13.553470792248845">
        <ele>1073.9300000000001</ele>
        <time>2013-09-08T08:26:15Z</time>
      </trkpt>
      <trkpt lat="42.522441940382123" lon="13.553372723981738">
        <ele>1073.9300000000001</ele>
        <time>2013-09-08T08:26:24Z</time>
      </trkpt>
      <trkpt lat="42.522486113011837" lon="13.553371382877231">
        <ele>1074.4100000000001</ele>
        <time>2013-09-08T08:26:30Z</time>
      </trkpt>
      <trkpt lat="42.522474462166429" lon="13.553389739245176">
        <ele>1074.4100000000001</ele>
        <time>2013-09-08T08:26:32Z</time>
      </trkpt>
      <trkpt lat="42.52239927649498" lon="13.553534159436822">
        <ele>1073.45</ele>
        <time>2013-09-08T08:26:47Z</time>
      </trkpt>
      <trkpt lat="42.522406149655581" lon="13.553536338731647">
        <ele>1073.9300000000001</ele>
        <time>2013-09-08T08:27:00Z</time>
      </trkpt>
      <trkpt lat="42.522440012544394" lon="13.553498284891248">
        <ele>1073.45</ele>
        <time>2013-09-08T08:27:14Z</time>
      </trkpt>
      <trkpt lat="42.522442862391472" lon="13.553462494164705">
        <ele>1073.45</ele>
        <time>2013-09-08T08:27:25Z</time>
      </trkpt>
      <trkpt lat="42.522511929273605" lon="13.553289826959372">
        <ele>1074.4100000000001</ele>
        <time>2013-09-08T08:27:42Z</time>
      </trkpt>
      <trkpt lat="42.522533973678946" lon="13.553256802260876">
        <ele>1074.4100000000001</ele>
        <time>2013-09-08T08:27:45Z</time>
      </trkpt>
      <trkpt lat="42.522579319775105" lon="13.553255377337337">
        <ele>1074.4100000000001</ele>
        <time>2013-09-08T08:28:02Z</time>
      </trkpt>
      <trkpt lat="42.52259231172502" lon="13.553247079253197">
        <ele>1074.8900000000001</ele>
        <time>2013-09-08T08:28:23Z</time>
      </trkpt>
      <trkpt lat="42.522621229290962" lon="13.553148256614804">
        <ele>1075.3699999999999</ele>
        <time>2013-09-08T08:28:33Z</time>
      </trkpt>
      <trkpt lat="42.522649057209492" lon="13.553059492260218">
        <ele>1075.3699999999999</ele>
        <time>2013-09-08T08:28:42Z</time>
      </trkpt>
      <trkpt lat="42.522651487961411" lon="13.553036609664559">
        <ele>1075.8499999999999</ele>
        <time>2013-09-08T08:28:44Z</time>
      </trkpt>
      <trkpt lat="42.52268266864121" lon="13.552949102595448">
        <ele>1075.8499999999999</ele>
        <time>2013-09-08T08:28:52Z</time>
      </trkpt>
      <trkpt lat="42.522676549851894" lon="13.552760677412152">
        <ele>1074.8900000000001</ele>
        <time>2013-09-08T08:29:08Z</time>
      </trkpt>
      <trkpt lat="42.522684764117002" lon="13.552779704332352">
        <ele>1074.8900000000001</ele>
        <time>2013-09-08T08:29:10Z</time>
      </trkpt>
      <trkpt lat="42.522684345021844" lon="13.552983552217484">
        <ele>1075.3699999999999</ele>
        <time>2013-09-08T08:29:27Z</time>
      </trkpt>
      <trkpt lat="42.522686272859573" lon="13.552953209728003">
        <ele>1075.3699999999999</ele>
        <time>2013-09-08T08:29:39Z</time>
      </trkpt>
      <trkpt lat="42.522688619792461" lon="13.55292814783752">
        <ele>1075.3699999999999</ele>
        <time>2013-09-08T08:29:41Z</time>
      </trkpt>
      <trkpt lat="42.522672777995467" lon="13.552773417904973">
        <ele>1074.4100000000001</ele>
        <time>2013-09-08T08:29:57Z</time>
      </trkpt>
      <trkpt lat="42.522664396092296" lon="13.552720611914992">
        <ele>1073.9300000000001</ele>
        <time>2013-09-08T08:30:01Z</time>
      </trkpt>
      <trkpt lat="42.522706976160407" lon="13.552663698792458">
        <ele>1071.53</ele>
        <time>2013-09-08T08:30:13Z</time>
      </trkpt>
      <trkpt lat="42.522723404690623" lon="13.552661938592792">
        <ele>1069.5999999999999</ele>
        <time>2013-09-08T08:30:29Z</time>
      </trkpt>
      <trkpt lat="42.522755926474929" lon="13.552660346031189">
        <ele>1068.1600000000001</ele>
        <time>2013-09-08T08:30:44Z</time>
      </trkpt>
      <trkpt lat="42.522775372490287" lon="13.552654478698969">
        <ele>1067.2</ele>
        <time>2013-09-08T08:30:59Z</time>
      </trkpt>
      <trkpt lat="42.522770091891289" lon="13.552660094574094">
        <ele>1067.2</ele>
        <time>2013-09-08T08:31:19Z</time>
      </trkpt>
      <trkpt lat="42.522763051092625" lon="13.552718432620168">
        <ele>1066.72</ele>
        <time>2013-09-08T08:31:39Z</time>
      </trkpt>
      <trkpt lat="42.522758273407817" lon="13.552734944969416">
        <ele>1065.76</ele>
        <time>2013-09-08T08:32:01Z</time>
      </trkpt>
      <trkpt lat="42.522775791585445" lon="13.552732262760401">
        <ele>1065.28</ele>
        <time>2013-09-08T08:32:17Z</time>
      </trkpt>
      <trkpt lat="42.52276036888361" lon="13.552682558074594">
        <ele>1066.72</ele>
        <time>2013-09-08T08:32:33Z</time>
      </trkpt>
      <trkpt lat="42.522752992808819" lon="13.552671913057566">
        <ele>1066.72</ele>
        <time>2013-09-08T08:32:50Z</time>
      </trkpt>
      <trkpt lat="42.522782413288951" lon="13.552595805376768">
        <ele>1065.28</ele>
        <time>2013-09-08T08:33:14Z</time>
      </trkpt>
      <trkpt lat="42.52284343354404" lon="13.552530845627189">
        <ele>1062.8699999999999</ele>
        <time>2013-09-08T08:33:28Z</time>
      </trkpt>
      <trkpt lat="42.522914931178093" lon="13.552554482594132">
        <ele>1060.47</ele>
        <time>2013-09-08T08:33:40Z</time>
      </trkpt>
      <trkpt lat="42.522940831258893" lon="13.552582142874599">
        <ele>1059.03</ele>
        <time>2013-09-08T08:33:51Z</time>
      </trkpt>
      <trkpt lat="42.522943513467908" lon="13.552517266944051">
        <ele>1058.0699999999999</ele>
        <time>2013-09-08T08:34:16Z</time>
      </trkpt>
      <trkpt lat="42.52292063087225" lon="13.552425149828196">
        <ele>1055.1800000000001</ele>
        <time>2013-09-08T08:34:29Z</time>
      </trkpt>
      <trkpt lat="42.52300176769495" lon="13.552449122071266">
        <ele>1053.74</ele>
        <time>2013-09-08T08:34:43Z</time>
      </trkpt>
      <trkpt lat="42.523034708574414" lon="13.552482146769762">
        <ele>1053.74</ele>
        <time>2013-09-08T08:35:12Z</time>
      </trkpt>
      <trkpt lat="42.523035043850541" lon="13.552454486489296">
        <ele>1054.22</ele>
        <time>2013-09-08T08:35:39Z</time>
      </trkpt>
      <trkpt lat="42.523020794615149" lon="13.552467729896307">
        <ele>1054.7</ele>
        <time>2013-09-08T08:36:10Z</time>
      </trkpt>
      <trkpt lat="42.52300713211298" lon="13.552460102364421">
        <ele>1055.1800000000001</ele>
        <time>2013-09-08T08:36:34Z</time>
      </trkpt>
      <trkpt lat="42.52305893227458" lon="13.552454654127359">
        <ele>1055.1800000000001</ele>
        <time>2013-09-08T08:37:04Z</time>
      </trkpt>
      <trkpt lat="42.523048706352711" lon="13.552454737946391">
        <ele>1055.1800000000001</ele>
        <time>2013-09-08T08:37:37Z</time>
      </trkpt>
      <trkpt lat="42.52301249653101" lon="13.55244442820549">
        <ele>1055.1800000000001</ele>
        <time>2013-09-08T08:38:11Z</time>
      </trkpt>
      <trkpt lat="42.523036133497953" lon="13.552446020767093">
        <ele>1055.6700000000001</ele>
        <time>2013-09-08T08:38:35Z</time>
      </trkpt>
      <trkpt lat="42.523028422147036" lon="13.552485583350062">
        <ele>1054.7</ele>
        <time>2013-09-08T08:38:49Z</time>
      </trkpt>
      <trkpt lat="42.523022638633847" lon="13.552525984123349">
        <ele>1054.7</ele>
        <time>2013-09-08T08:39:01Z</time>
      </trkpt>
      <trkpt lat="42.522960361093283" lon="13.552656909450889">
        <ele>1053.74</ele>
        <time>2013-09-08T08:39:07Z</time>
      </trkpt>
      <trkpt lat="42.523150462657213" lon="13.552688425406814">
        <ele>1052.78</ele>
        <time>2013-09-08T08:39:24Z</time>
      </trkpt>
      <trkpt lat="42.523128669708967" lon="13.552692197263241">
        <ele>1052.3</ele>
        <time>2013-09-08T08:39:45Z</time>
      </trkpt>
      <trkpt lat="42.523113917559385" lon="13.552653305232525">
        <ele>1052.3</ele>
        <time>2013-09-08T08:40:08Z</time>
      </trkpt>
      <trkpt lat="42.523206453770399" lon="13.552716337144375">
        <ele>1050.8599999999999</ele>
        <time>2013-09-08T08:40:22Z</time>
      </trkpt>
      <trkpt lat="42.523208213970065" lon="13.552690604701638">
        <ele>1050.8599999999999</ele>
        <time>2013-09-08T08:40:36Z</time>
      </trkpt>
      <trkpt lat="42.523135207593441" lon="13.552696639671922">
        <ele>1050.8599999999999</ele>
        <time>2013-09-08T08:40:52Z</time>
      </trkpt>
      <trkpt lat="42.523113917559385" lon="13.552697645500302">
        <ele>1052.3</ele>
        <time>2013-09-08T08:41:06Z</time>
      </trkpt>
      <trkpt lat="42.523125736042857" lon="13.552720863372087">
        <ele>1051.8199999999999</ele>
        <time>2013-09-08T08:41:31Z</time>
      </trkpt>
      <trkpt lat="42.523147528991103" lon="13.552728071808815">
        <ele>1051.8199999999999</ele>
        <time>2013-09-08T08:41:42Z</time>
      </trkpt>
      <trkpt lat="42.523131435737014" lon="13.55271122418344">
        <ele>1052.3</ele>
        <time>2013-09-08T08:41:55Z</time>
      </trkpt>
      <trkpt lat="42.523065553978086" lon="13.552672667428851">
        <ele>1051.8199999999999</ele>
        <time>2013-09-08T08:42:20Z</time>
      </trkpt>
      <trkpt lat="42.523069325834513" lon="13.552709296345711">
        <ele>1051.8199999999999</ele>
        <time>2013-09-08T08:42:22Z</time>
      </trkpt>
      <trkpt lat="42.523035882040858" lon="13.552917335182428">
        <ele>1052.3</ele>
        <time>2013-09-08T08:42:39Z</time>
      </trkpt>
      <trkpt lat="42.523023309186101" lon="13.55293937958777">
        <ele>1051.8199999999999</ele>
        <time>2013-09-08T08:42:54Z</time>
      </trkpt>
      <trkpt lat="42.523017190396786" lon="13.552972404286265">
        <ele>1051.8199999999999</ele>
        <time>2013-09-08T08:43:13Z</time>
      </trkpt>
      <trkpt lat="42.522966815158725" lon="13.553034598007798">
        <ele>1052.3</ele>
        <time>2013-09-08T08:43:28Z</time>
      </trkpt>
      <trkpt lat="42.522875452414155" lon="13.55309871956706">
        <ele>1051.8199999999999</ele>
        <time>2013-09-08T08:43:46Z</time>
      </trkpt>
      <trkpt lat="42.522852988913655" lon="13.553304327651858">
        <ele>1050.3800000000001</ele>
        <time>2013-09-08T08:44:06Z</time>
      </trkpt>
      <trkpt lat="42.522831195965409" lon="13.553373059257865">
        <ele>1050.3800000000001</ele>
        <time>2013-09-08T08:44:18Z</time>
      </trkpt>
      <trkpt lat="42.522807558998466" lon="13.553355038166046">
        <ele>1050.3800000000001</ele>
        <time>2013-09-08T08:44:29Z</time>
      </trkpt>
      <trkpt lat="42.522800015285611" lon="13.553408682346344">
        <ele>1050.3800000000001</ele>
        <time>2013-09-08T08:44:42Z</time>
      </trkpt>
      <trkpt lat="42.522802446037531" lon="13.553422931581736">
        <ele>1049.9000000000001</ele>
        <time>2013-09-08T08:44:55Z</time>
      </trkpt>
      <trkpt lat="42.522795489057899" lon="13.553412705659866">
        <ele>1050.3800000000001</ele>
        <time>2013-09-08T08:44:57Z</time>
      </trkpt>
      <trkpt lat="42.522782245650887" lon="13.553437096998096">
        <ele>1050.3800000000001</ele>
        <time>2013-09-08T08:45:00Z</time>
      </trkpt>
      <trkpt lat="42.522750981152058" lon="13.553454279899597">
        <ele>1050.3800000000001</ele>
        <time>2013-09-08T08:45:13Z</time>
      </trkpt>
      <trkpt lat="42.522801524028182" lon="13.55339527130127">
        <ele>1050.3800000000001</ele>
        <time>2013-09-08T08:45:25Z</time>
      </trkpt>
      <trkpt lat="42.522783922031522" lon="13.553433492779732">
        <ele>1050.8599999999999</ele>
        <time>2013-09-08T08:45:55Z</time>
      </trkpt>
      <trkpt lat="42.522768331691623" lon="13.553420584648848">
        <ele>1050.3800000000001</ele>
        <time>2013-09-08T08:46:21Z</time>
      </trkpt>
      <trkpt lat="42.52276573330164" lon="13.553474061191082">
        <ele>1050.3800000000001</ele>
        <time>2013-09-08T08:46:43Z</time>
      </trkpt>
      <trkpt lat="42.522806888446212" lon="13.553417734801769">
        <ele>1050.3800000000001</ele>
        <time>2013-09-08T08:46:59Z</time>
      </trkpt>
      <trkpt lat="42.52279506996274" lon="13.553418070077896">
        <ele>1050.3800000000001</ele>
        <time>2013-09-08T08:47:17Z</time>
      </trkpt>
      <trkpt lat="42.522815773263574" lon="13.553391331806779">
        <ele>1050.8599999999999</ele>
        <time>2013-09-08T08:47:31Z</time>
      </trkpt>
      <trkpt lat="42.522813510149717" lon="13.553345231339335">
        <ele>1050.3800000000001</ele>
        <time>2013-09-08T08:47:35Z</time>
      </trkpt>
      <trkpt lat="42.522831866517663" lon="13.553256299346685">
        <ele>1050.3800000000001</ele>
        <time>2013-09-08T08:47:42Z</time>
      </trkpt>
      <trkpt lat="42.522871429100633" lon="13.553221598267555">
        <ele>1050.8599999999999</ele>
        <time>2013-09-08T08:47:46Z</time>
      </trkpt>
      <trkpt lat="42.522898418828845" lon="13.553173905238509">
        <ele>1050.8599999999999</ele>
        <time>2013-09-08T08:47:50Z</time>
      </trkpt>
      <trkpt lat="42.522977963089943" lon="13.55304297991097">
        <ele>1051.8199999999999</ele>
        <time>2013-09-08T08:48:05Z</time>
      </trkpt>
      <trkpt lat="42.523020794615149" lon="13.552904678508639">
        <ele>1051.8199999999999</ele>
        <time>2013-09-08T08:48:21Z</time>
      </trkpt>
      <trkpt lat="42.523008892312646" lon="13.552880706265569">
        <ele>1051.8199999999999</ele>
        <time>2013-09-08T08:48:24Z</time>
      </trkpt>
      <trkpt lat="42.52307309769094" lon="13.552683899179101">
        <ele>1051.8199999999999</ele>
        <time>2013-09-08T08:48:40Z</time>
      </trkpt>
      <trkpt lat="42.523058177903295" lon="13.552688173949718">
        <ele>1051.3399999999999</ele>
        <time>2013-09-08T08:49:07Z</time>
      </trkpt>
      <trkpt lat="42.523085502907634" lon="13.552693873643875">
        <ele>1051.3399999999999</ele>
        <time>2013-09-08T08:49:25Z</time>
      </trkpt>
      <trkpt lat="42.523094890639186" lon="13.5528548900038">
        <ele>1051.3399999999999</ele>
        <time>2013-09-08T08:49:43Z</time>
      </trkpt>
      <trkpt lat="42.523070750758052" lon="13.55288221500814">
        <ele>1052.3</ele>
        <time>2013-09-08T08:49:46Z</time>
      </trkpt>
      <trkpt lat="42.523037474602461" lon="13.552958406507969">
        <ele>1051.8199999999999</ele>
        <time>2013-09-08T08:49:52Z</time>
      </trkpt>
      <trkpt lat="42.522904956713319" lon="13.553094360977411">
        <ele>1051.3399999999999</ele>
        <time>2013-09-08T08:50:07Z</time>
      </trkpt>
      <trkpt lat="42.52288106828928" lon="13.553119339048862">
        <ele>1050.8599999999999</ele>
        <time>2013-09-08T08:50:10Z</time>
      </trkpt>
      <trkpt lat="42.522882660850883" lon="13.553204080089927">
        <ele>1050.3800000000001</ele>
        <time>2013-09-08T08:50:15Z</time>
      </trkpt>
      <trkpt lat="42.522879978641868" lon="13.553362833335996">
        <ele>1049.9000000000001</ele>
        <time>2013-09-08T08:50:31Z</time>
      </trkpt>
      <trkpt lat="42.52286346629262" lon="13.55338697321713">
        <ele>1049.4200000000001</ele>
        <time>2013-09-08T08:50:47Z</time>
      </trkpt>
      <trkpt lat="42.522859107702971" lon="13.553381189703941">
        <ele>1048.9400000000001</ele>
        <time>2013-09-08T08:51:12Z</time>
      </trkpt>
      <trkpt lat="42.522858353331685" lon="13.553390325978398">
        <ele>1048.9400000000001</ele>
        <time>2013-09-08T08:51:27Z</time>
      </trkpt>
      <trkpt lat="42.52284100279212" lon="13.553402982652187">
        <ele>1049.4200000000001</ele>
        <time>2013-09-08T08:51:50Z</time>
      </trkpt>
      <trkpt lat="42.522843349725008" lon="13.553405413404107">
        <ele>1049.4200000000001</ele>
        <time>2013-09-08T08:52:00Z</time>
      </trkpt>
      <trkpt lat="42.522835386916995" lon="13.553446568548679">
        <ele>1049.9000000000001</ele>
        <time>2013-09-08T08:52:24Z</time>
      </trkpt>
      <trkpt lat="42.522827172651887" lon="13.553349170833826">
        <ele>1049.4200000000001</ele>
        <time>2013-09-08T08:52:38Z</time>
      </trkpt>
      <trkpt lat="42.522869249805808" lon="13.553306506946683">
        <ele>1049.9000000000001</ele>
        <time>2013-09-08T08:52:51Z</time>
      </trkpt>
      <trkpt lat="42.522900765761733" lon="13.553262753412127">
        <ele>1049.9000000000001</ele>
        <time>2013-09-08T08:53:05Z</time>
      </trkpt>
      <trkpt lat="42.522953152656555" lon="13.553272979333997">
        <ele>1049.9000000000001</ele>
        <time>2013-09-08T08:53:19Z</time>
      </trkpt>
      <trkpt lat="42.522968659177423" lon="13.553428966552019">
        <ele>1048.9400000000001</ele>
        <time>2013-09-08T08:53:35Z</time>
      </trkpt>
      <trkpt lat="42.522952649742365" lon="13.553443131968379">
        <ele>1048.9400000000001</ele>
        <time>2013-09-08T08:53:38Z</time>
      </trkpt>
      <trkpt lat="42.522960109636188" lon="13.553569531068206">
        <ele>1047.49</ele>
        <time>2013-09-08T08:53:52Z</time>
      </trkpt>
      <trkpt lat="42.522967318072915" lon="13.553691571578383">
        <ele>1047.01</ele>
        <time>2013-09-08T08:54:07Z</time>
      </trkpt>
      <trkpt lat="42.522975197061896" lon="13.553704228252172">
        <ele>1046.53</ele>
        <time>2013-09-08T08:54:20Z</time>
      </trkpt>
      <trkpt lat="42.523012412711978" lon="13.553774552419782">
        <ele>1046.53</ele>
        <time>2013-09-08T08:54:35Z</time>
      </trkpt>
      <trkpt lat="42.523076198995113" lon="13.553832471370697">
        <ele>1046.05</ele>
        <time>2013-09-08T08:54:48Z</time>
      </trkpt>
      <trkpt lat="42.523103859275579" lon="13.553852923214436">
        <ele>1046.05</ele>
        <time>2013-09-08T08:54:53Z</time>
      </trkpt>
      <trkpt lat="42.523152809590101" lon="13.553889049217105">
        <ele>1045.5699999999999</ele>
        <time>2013-09-08T08:55:06Z</time>
      </trkpt>
      <trkpt lat="42.5231390632689" lon="13.55385267175734">
        <ele>1045.5699999999999</ele>
        <time>2013-09-08T08:55:24Z</time>
      </trkpt>
      <trkpt lat="42.523150965571404" lon="13.553896760568023">
        <ele>1046.05</ele>
        <time>2013-09-08T08:55:39Z</time>
      </trkpt>
      <trkpt lat="42.523148451000452" lon="13.554289117455482">
        <ele>1045.5699999999999</ele>
        <time>2013-09-08T08:55:59Z</time>
      </trkpt>
      <trkpt lat="42.523191953077912" lon="13.554736208170652">
        <ele>1046.05</ele>
        <time>2013-09-08T08:56:18Z</time>
      </trkpt>
      <trkpt lat="42.523134285584092" lon="13.555491417646408">
        <ele>1045.5699999999999</ele>
        <time>2013-09-08T08:56:34Z</time>
      </trkpt>
      <trkpt lat="42.522988943383098" lon="13.55569182895124">
        <ele>1045.0899999999999</ele>
        <time>2013-09-08T08:56:54Z</time>
      </trkpt>
      <trkpt lat="42.522776713594794" lon="13.555495860055089">
        <ele>1044.6099999999999</ele>
        <time>2013-09-08T08:57:19Z</time>
      </trkpt>
      <trkpt lat="42.523001180961728" lon="13.554435716941953">
        <ele>1043.6500000000001</ele>
        <time>2013-09-08T08:57:46Z</time>
      </trkpt>
      <trkpt lat="42.523009646683931" lon="13.554098261520267">
        <ele>1042.6900000000001</ele>
        <time>2013-09-08T08:58:06Z</time>
      </trkpt>
      <trkpt lat="42.523009227588773" lon="13.554059872403741">
        <ele>1043.1700000000001</ele>
        <time>2013-09-08T08:58:09Z</time>
      </trkpt>
      <trkpt lat="42.523006042465568" lon="13.554044365882874">
        <ele>1042.6900000000001</ele>
        <time>2013-09-08T08:58:10Z</time>
      </trkpt>
      <trkpt lat="42.523000845685601" lon="13.55402760207653">
        <ele>1042.6900000000001</ele>
        <time>2013-09-08T08:58:11Z</time>
      </trkpt>
      <trkpt lat="42.522899759933352" lon="13.553800201043487">
        <ele>1042.6900000000001</ele>
        <time>2013-09-08T08:58:31Z</time>
      </trkpt>
      <trkpt lat="42.523000342771411" lon="13.554291212931275">
        <ele>1041.73</ele>
        <time>2013-09-08T08:58:54Z</time>
      </trkpt>
      <trkpt lat="42.523076785728335" lon="13.554239748045802">
        <ele>1041.25</ele>
        <time>2013-09-08T08:59:14Z</time>
      </trkpt>
      <trkpt lat="42.523102182894945" lon="13.554260367527604">
        <ele>1041.25</ele>
        <time>2013-09-08T08:59:27Z</time>
      </trkpt>
      <trkpt lat="42.52318549901247" lon="13.554168250411749">
        <ele>1041.25</ele>
        <time>2013-09-08T08:59:34Z</time>
      </trkpt>
      <trkpt lat="42.523303432390094" lon="13.554048640653491">
        <ele>1041.25</ele>
        <time>2013-09-08T08:59:50Z</time>
      </trkpt>
      <trkpt lat="42.523385658860207" lon="13.554124245420098">
        <ele>1041.73</ele>
        <time>2013-09-08T09:00:02Z</time>
      </trkpt>
      <trkpt lat="42.523538880050182" lon="13.554166490212083">
        <ele>1042.21</ele>
        <time>2013-09-08T09:00:18Z</time>
      </trkpt>
      <trkpt lat="42.523531252518296" lon="13.554194737225771">
        <ele>1042.6900000000001</ele>
        <time>2013-09-08T09:00:22Z</time>
      </trkpt>
      <trkpt lat="42.523521278053522" lon="13.554212674498558">
        <ele>1042.6900000000001</ele>
        <time>2013-09-08T09:00:24Z</time>
      </trkpt>
      <trkpt lat="42.523507699370384" lon="13.554258439689875">
        <ele>1043.6500000000001</ele>
        <time>2013-09-08T09:00:30Z</time>
      </trkpt>
      <trkpt lat="42.523553045466542" lon="13.554120473563671">
        <ele>1042.21</ele>
        <time>2013-09-08T09:00:41Z</time>
      </trkpt>
      <trkpt lat="42.523666117340326" lon="13.554111672565341">
        <ele>1042.21</ele>
        <time>2013-09-08T09:00:52Z</time>
      </trkpt>
      <trkpt lat="42.523805256932974" lon="13.554184259846807">
        <ele>1041.73</ele>
        <time>2013-09-08T09:01:08Z</time>
      </trkpt>
      <trkpt lat="42.523937607184052" lon="13.554135393351316">
        <ele>1041.25</ele>
        <time>2013-09-08T09:01:24Z</time>
      </trkpt>
      <trkpt lat="42.523980187252164" lon="13.554133716970682">
        <ele>1041.25</ele>
        <time>2013-09-08T09:01:26Z</time>
      </trkpt>
      <trkpt lat="42.524044727906585" lon="13.554146876558661">
        <ele>1040.28</ele>
        <time>2013-09-08T09:01:41Z</time>
      </trkpt>
      <trkpt lat="42.524189399555326" lon="13.554089292883873">
        <ele>1038.8399999999999</ele>
        <time>2013-09-08T09:01:55Z</time>
      </trkpt>
      <trkpt lat="42.524310853332281" lon="13.554192977026105">
        <ele>1038.8399999999999</ele>
        <time>2013-09-08T09:02:07Z</time>
      </trkpt>
      <trkpt lat="42.524344297125936" lon="13.55419515632093">
        <ele>1038.8399999999999</ele>
        <time>2013-09-08T09:02:19Z</time>
      </trkpt>
      <trkpt lat="42.524388553574681" lon="13.554200269281864">
        <ele>1038.8399999999999</ele>
        <time>2013-09-08T09:02:39Z</time>
      </trkpt>
      <trkpt lat="42.524395259097219" lon="13.554143020883203">
        <ele>1037.4000000000001</ele>
        <time>2013-09-08T09:02:47Z</time>
      </trkpt>
      <trkpt lat="42.524407664313912" lon="13.554100692272186">
        <ele>1036.9200000000001</ele>
        <time>2013-09-08T09:02:50Z</time>
      </trkpt>
      <trkpt lat="42.524423003196716" lon="13.554078815504909">
        <ele>1036.4400000000001</ele>
        <time>2013-09-08T09:02:52Z</time>
      </trkpt>
      <trkpt lat="42.524481927976012" lon="13.554087113589048">
        <ele>1035.96</ele>
        <time>2013-09-08T09:02:57Z</time>
      </trkpt>
      <trkpt lat="42.524537919089198" lon="13.554120557382703">
        <ele>1036.4400000000001</ele>
        <time>2013-09-08T09:03:10Z</time>
      </trkpt>
      <trkpt lat="42.524524675682187" lon="13.554113684222102">
        <ele>1035.96</ele>
        <time>2013-09-08T09:03:18Z</time>
      </trkpt>
      <trkpt lat="42.524416800588369" lon="13.554060710594058">
        <ele>1035.96</ele>
        <time>2013-09-08T09:03:32Z</time>
      </trkpt>
      <trkpt lat="42.524432558566332" lon="13.554107146337628">
        <ele>1036.4400000000001</ele>
        <time>2013-09-08T09:03:52Z</time>
      </trkpt>
      <trkpt lat="42.524380423128605" lon="13.55420446023345">
        <ele>1037.8800000000001</ele>
        <time>2013-09-08T09:04:06Z</time>
      </trkpt>
      <trkpt lat="42.524337088689208" lon="13.554212423041463">
        <ele>1038.8399999999999</ele>
        <time>2013-09-08T09:04:12Z</time>
      </trkpt>
      <trkpt lat="42.524255197495222" lon="13.55415215715766">
        <ele>1036.9200000000001</ele>
        <time>2013-09-08T09:04:25Z</time>
      </trkpt>
      <trkpt lat="42.524268105626106" lon="13.554048724472523">
        <ele>1034.04</ele>
        <time>2013-09-08T09:04:33Z</time>
      </trkpt>
      <trkpt lat="42.524316301569343" lon="13.553971191868186">
        <ele>1032.1099999999999</ele>
        <time>2013-09-08T09:04:41Z</time>
      </trkpt>
      <trkpt lat="42.524340525269508" lon="13.55395283550024">
        <ele>1031.1500000000001</ele>
        <time>2013-09-08T09:04:43Z</time>
      </trkpt>
      <trkpt lat="42.524355612695217" lon="13.553849402815104">
        <ele>1027.79</ele>
        <time>2013-09-08T09:04:54Z</time>
      </trkpt>
      <trkpt lat="42.524314792826772" lon="13.553835488855839">
        <ele>1027.3099999999999</ele>
        <time>2013-09-08T09:05:04Z</time>
      </trkpt>
      <trkpt lat="42.524269698187709" lon="13.553843200206757">
        <ele>1027.79</ele>
        <time>2013-09-08T09:05:18Z</time>
      </trkpt>
      <trkpt lat="42.52436357550323" lon="13.553731553256512">
        <ele>1025.8599999999999</ele>
        <time>2013-09-08T09:05:34Z</time>
      </trkpt>
      <trkpt lat="42.524437503889203" lon="13.55363910086453">
        <ele>1025.8599999999999</ele>
        <time>2013-09-08T09:05:49Z</time>
      </trkpt>
      <trkpt lat="42.524448651820421" lon="13.553652176633477">
        <ele>1025.8599999999999</ele>
        <time>2013-09-08T09:06:12Z</time>
      </trkpt>
      <trkpt lat="42.524346811696887" lon="13.553789304569364">
        <ele>1026.3399999999999</ele>
        <time>2013-09-08T09:06:26Z</time>
      </trkpt>
      <trkpt lat="42.524343710392714" lon="13.553788801655173">
        <ele>1027.3099999999999</ele>
        <time>2013-09-08T09:06:44Z</time>
      </trkpt>
      <trkpt lat="42.524337507784367" lon="13.553780671209097">
        <ele>1027.3099999999999</ele>
        <time>2013-09-08T09:07:23Z</time>
      </trkpt>
      <trkpt lat="42.524293418973684" lon="13.553822077810764">
        <ele>1027.3099999999999</ele>
        <time>2013-09-08T09:07:54Z</time>
      </trkpt>
      <trkpt lat="42.524380590766668" lon="13.553794417530298">
        <ele>1027.3099999999999</ele>
        <time>2013-09-08T09:08:18Z</time>
      </trkpt>
      <trkpt lat="42.524429876357317" lon="13.553795590996742">
        <ele>1026.8299999999999</ele>
        <time>2013-09-08T09:08:23Z</time>
      </trkpt>
      <trkpt lat="42.524450160562992" lon="13.553818138316274">
        <ele>1026.8299999999999</ele>
        <time>2013-09-08T09:08:25Z</time>
      </trkpt>
      <trkpt lat="42.524458710104227" lon="13.553844289854169">
        <ele>1026.8299999999999</ele>
        <time>2013-09-08T09:08:27Z</time>
      </trkpt>
      <trkpt lat="42.524506654590368" lon="13.553886786103249">
        <ele>1025.8599999999999</ele>
        <time>2013-09-08T09:08:31Z</time>
      </trkpt>
      <trkpt lat="42.524596005678177" lon="13.55392643250525">
        <ele>1025.3800000000001</ele>
        <time>2013-09-08T09:08:39Z</time>
      </trkpt>
      <trkpt lat="42.524648727849126" lon="13.553967420011759">
        <ele>1024.9000000000001</ele>
        <time>2013-09-08T09:08:47Z</time>
      </trkpt>
      <trkpt lat="42.524690302088857" lon="13.553975634276867">
        <ele>1025.3800000000001</ele>
        <time>2013-09-08T09:08:51Z</time>
      </trkpt>
      <trkpt lat="42.524723913520575" lon="13.553990470245481">
        <ele>1024.4200000000001</ele>
        <time>2013-09-08T09:08:54Z</time>
      </trkpt>
      <trkpt lat="42.524749813601375" lon="13.553980747237802">
        <ele>1024.4200000000001</ele>
        <time>2013-09-08T09:08:57Z</time>
      </trkpt>
      <trkpt lat="42.52476179972291" lon="13.553957110270858">
        <ele>1024.4200000000001</ele>
        <time>2013-09-08T09:08:59Z</time>
      </trkpt>
      <trkpt lat="42.52477596513927" lon="13.553803637623787">
        <ele>1023.9400000000001</ele>
        <time>2013-09-08T09:09:14Z</time>
      </trkpt>
      <trkpt lat="42.524770433083177" lon="13.553845379501581">
        <ele>1023.9400000000001</ele>
        <time>2013-09-08T09:09:27Z</time>
      </trkpt>
      <trkpt lat="42.524774707853794" lon="13.553896760568023">
        <ele>1023.9400000000001</ele>
        <time>2013-09-08T09:09:31Z</time>
      </trkpt>
      <trkpt lat="42.524740174412727" lon="13.554056519642472">
        <ele>1024.4200000000001</ele>
        <time>2013-09-08T09:09:44Z</time>
      </trkpt>
      <trkpt lat="42.524727517738938" lon="13.554047467187047">
        <ele>1024.4200000000001</ele>
        <time>2013-09-08T09:09:56Z</time>
      </trkpt>
      <trkpt lat="42.524724919348955" lon="13.553981585428119">
        <ele>1024.9000000000001</ele>
        <time>2013-09-08T09:10:10Z</time>
      </trkpt>
      <trkpt lat="42.524732295423746" lon="13.553972532972693">
        <ele>1024.9000000000001</ele>
        <time>2013-09-08T09:10:14Z</time>
      </trkpt>
      <trkpt lat="42.524586450308561" lon="13.553915536031127">
        <ele>1025.8599999999999</ele>
        <time>2013-09-08T09:10:27Z</time>
      </trkpt>
      <trkpt lat="42.52440850250423" lon="13.553830878809094">
        <ele>1026.3399999999999</ele>
        <time>2013-09-08T09:10:44Z</time>
      </trkpt>
      <trkpt lat="42.524402886629105" lon="13.55382970534265">
        <ele>1026.3399999999999</ele>
        <time>2013-09-08T09:10:45Z</time>
      </trkpt>
      <trkpt lat="42.524362150579691" lon="13.553834315389395">
        <ele>1026.3399999999999</ele>
        <time>2013-09-08T09:10:49Z</time>
      </trkpt>
      <trkpt lat="42.52436114475131" lon="13.553665336221457">
        <ele>1024.4200000000001</ele>
        <time>2013-09-08T09:11:02Z</time>
      </trkpt>
      <trkpt lat="42.524394420906901" lon="13.553559808060527">
        <ele>1022.5</ele>
        <time>2013-09-08T09:11:14Z</time>
      </trkpt>
      <trkpt lat="42.524365838617086" lon="13.553656367585063">
        <ele>1024.4200000000001</ele>
        <time>2013-09-08T09:11:27Z</time>
      </trkpt>
      <trkpt lat="42.524421829730272" lon="13.553649913519621">
        <ele>1025.3800000000001</ele>
        <time>2013-09-08T09:11:40Z</time>
      </trkpt>
      <trkpt lat="42.524436414241791" lon="13.553640525788069">
        <ele>1025.3800000000001</ele>
        <time>2013-09-08T09:11:54Z</time>
      </trkpt>
      <trkpt lat="42.52445007674396" lon="13.5535629093647">
        <ele>1025.3800000000001</ele>
        <time>2013-09-08T09:12:09Z</time>
      </trkpt>
      <trkpt lat="42.524464074522257" lon="13.553561400622129">
        <ele>1024.9000000000001</ele>
        <time>2013-09-08T09:12:28Z</time>
      </trkpt>
      <trkpt lat="42.524417387321591" lon="13.553654104471207">
        <ele>1024.9000000000001</ele>
        <time>2013-09-08T09:12:42Z</time>
      </trkpt>
      <trkpt lat="42.524379752576351" lon="13.553688134998083">
        <ele>1025.3800000000001</ele>
        <time>2013-09-08T09:13:06Z</time>
      </trkpt>
      <trkpt lat="42.524467427283525" lon="13.553611021488905">
        <ele>1024.9000000000001</ele>
        <time>2013-09-08T09:13:16Z</time>
      </trkpt>
      <trkpt lat="42.524531129747629" lon="13.553546061739326">
        <ele>1024.9000000000001</ele>
        <time>2013-09-08T09:13:24Z</time>
      </trkpt>
      <trkpt lat="42.524629030376673" lon="13.553580259904265">
        <ele>1024.4200000000001</ele>
        <time>2013-09-08T09:13:38Z</time>
      </trkpt>
      <trkpt lat="42.524638585746288" lon="13.553621917963028">
        <ele>1024.4200000000001</ele>
        <time>2013-09-08T09:14:01Z</time>
      </trkpt>
      <trkpt lat="42.524694995954633" lon="13.553698696196079">
        <ele>1022.98</ele>
        <time>2013-09-08T09:14:09Z</time>
      </trkpt>
      <trkpt lat="42.52467580139637" lon="13.553633568808436">
        <ele>1021.54</ele>
        <time>2013-09-08T09:14:15Z</time>
      </trkpt>
      <trkpt lat="42.524722153320909" lon="13.553471881896257">
        <ele>1018.17</ele>
        <time>2013-09-08T09:14:27Z</time>
      </trkpt>
      <trkpt lat="42.524790214374661" lon="13.553356295451522">
        <ele>1015.77</ele>
        <time>2013-09-08T09:14:37Z</time>
      </trkpt>
      <trkpt lat="42.524876883253455" lon="13.553259819746017">
        <ele>1013.85</ele>
        <time>2013-09-08T09:14:48Z</time>
      </trkpt>
      <trkpt lat="42.524969168007374" lon="13.55318421497941">
        <ele>1011.4400000000001</ele>
        <time>2013-09-08T09:15:01Z</time>
      </trkpt>
      <trkpt lat="42.524971850216389" lon="13.553187986835837">
        <ele>1011.9299999999999</ele>
        <time>2013-09-08T09:15:33Z</time>
      </trkpt>
      <trkpt lat="42.524898089468479" lon="13.553254874423146">
        <ele>1012.89</ele>
        <time>2013-09-08T09:15:46Z</time>
      </trkpt>
      <trkpt lat="42.524858862161636" lon="13.55330441147089">
        <ele>1013.85</ele>
        <time>2013-09-08T09:15:54Z</time>
      </trkpt>
      <trkpt lat="42.524785185232759" lon="13.553385548293591">
        <ele>1016.25</ele>
        <time>2013-09-08T09:16:09Z</time>
      </trkpt>
      <trkpt lat="42.524730116128922" lon="13.553515635430813">
        <ele>1018.65</ele>
        <time>2013-09-08T09:16:25Z</time>
      </trkpt>
      <trkpt lat="42.524690805003047" lon="13.553620157763362">
        <ele>1021.0599999999999</ele>
        <time>2013-09-08T09:16:39Z</time>
      </trkpt>
      <trkpt lat="42.52467093989253" lon="13.55367430485785">
        <ele>1022.98</ele>
        <time>2013-09-08T09:16:53Z</time>
      </trkpt>
      <trkpt lat="42.524636322632432" lon="13.553612278774381">
        <ele>1023.9400000000001</ele>
        <time>2013-09-08T09:17:00Z</time>
      </trkpt>
      <trkpt lat="42.524607153609395" lon="13.553582103922963">
        <ele>1024.4200000000001</ele>
        <time>2013-09-08T09:17:05Z</time>
      </trkpt>
      <trkpt lat="42.524518892168999" lon="13.553592497482896">
        <ele>1024.9000000000001</ele>
        <time>2013-09-08T09:17:20Z</time>
      </trkpt>
      <trkpt lat="42.524403976276517" lon="13.553635915741324">
        <ele>1024.9000000000001</ele>
        <time>2013-09-08T09:17:35Z</time>
      </trkpt>
      <trkpt lat="42.524412190541625" lon="13.553629880771041">
        <ele>1024.9000000000001</ele>
        <time>2013-09-08T09:17:57Z</time>
      </trkpt>
      <trkpt lat="42.524416381493211" lon="13.553581265732646">
        <ele>1024.4200000000001</ele>
        <time>2013-09-08T09:18:16Z</time>
      </trkpt>
      <trkpt lat="42.524390900507569" lon="13.55357707478106">
        <ele>1024.4200000000001</ele>
        <time>2013-09-08T09:18:36Z</time>
      </trkpt>
      <trkpt lat="42.524372041225433" lon="13.553632730618119">
        <ele>1024.4200000000001</ele>
        <time>2013-09-08T09:19:03Z</time>
      </trkpt>
      <trkpt lat="42.524428870528936" lon="13.553650751709938">
        <ele>1023.9400000000001</ele>
        <time>2013-09-08T09:19:32Z</time>
      </trkpt>
      <trkpt lat="42.524382937699556" lon="13.553652092814445">
        <ele>1023.9400000000001</ele>
        <time>2013-09-08T09:20:04Z</time>
      </trkpt>
      <trkpt lat="42.524391990154982" lon="13.553641363978386">
        <ele>1024.4200000000001</ele>
        <time>2013-09-08T09:20:34Z</time>
      </trkpt>
      <trkpt lat="42.524446556344628" lon="13.553652176633477">
        <ele>1024.4200000000001</ele>
        <time>2013-09-08T09:20:55Z</time>
      </trkpt>
      <trkpt lat="42.524429708719254" lon="13.553705234080553">
        <ele>1024.9000000000001</ele>
        <time>2013-09-08T09:21:15Z</time>
      </trkpt>
      <trkpt lat="42.524406155571342" lon="13.553676651790738">
        <ele>1024.9000000000001</ele>
        <time>2013-09-08T09:21:32Z</time>
      </trkpt>
      <trkpt lat="42.524395426735282" lon="13.553749741986394">
        <ele>1025.3800000000001</ele>
        <time>2013-09-08T09:21:39Z</time>
      </trkpt>
      <trkpt lat="42.524340022355318" lon="13.553787628188729">
        <ele>1026.3399999999999</ele>
        <time>2013-09-08T09:21:47Z</time>
      </trkpt>
      <trkpt lat="42.524200798943639" lon="13.553784694522619">
        <ele>1027.3099999999999</ele>
        <time>2013-09-08T09:22:02Z</time>
      </trkpt>
      <trkpt lat="42.524063587188721" lon="13.55379207059741">
        <ele>1028.75</ele>
        <time>2013-09-08T09:22:17Z</time>
      </trkpt>
      <trkpt lat="42.523880023509264" lon="13.553784191608429">
        <ele>1030.6700000000001</ele>
        <time>2013-09-08T09:22:35Z</time>
      </trkpt>
      <trkpt lat="42.523772567510605" lon="13.553756363689899">
        <ele>1031.6300000000001</ele>
        <time>2013-09-08T09:22:48Z</time>
      </trkpt>
      <trkpt lat="42.52364139072597" lon="13.55377983301878">
        <ele>1032.5899999999999</ele>
        <time>2013-09-08T09:23:03Z</time>
      </trkpt>
      <trkpt lat="42.523535192012787" lon="13.553851833567023">
        <ele>1033.55</ele>
        <time>2013-09-08T09:23:17Z</time>
      </trkpt>
      <trkpt lat="42.523512644693255" lon="13.553850827738643">
        <ele>1034.04</ele>
        <time>2013-09-08T09:23:19Z</time>
      </trkpt>
      <trkpt lat="42.523358250036836" lon="13.553872369229794">
        <ele>1035.48</ele>
        <time>2013-09-08T09:23:34Z</time>
      </trkpt>
      <trkpt lat="42.523217601701617" lon="13.553847894072533">
        <ele>1036.9200000000001</ele>
        <time>2013-09-08T09:23:48Z</time>
      </trkpt>
      <trkpt lat="42.523119365796447" lon="13.553841104730964">
        <ele>1037.8800000000001</ele>
        <time>2013-09-08T09:24:01Z</time>
      </trkpt>
      <trkpt lat="42.523105954751372" lon="13.553837835788727">
        <ele>1037.8800000000001</ele>
        <time>2013-09-08T09:24:13Z</time>
      </trkpt>
      <trkpt lat="42.523180302232504" lon="13.553797267377377">
        <ele>1037.4000000000001</ele>
        <time>2013-09-08T09:24:29Z</time>
      </trkpt>
      <trkpt lat="42.523166975006461" lon="13.553798776119947">
        <ele>1037.8800000000001</ele>
        <time>2013-09-08T09:24:46Z</time>
      </trkpt>
      <trkpt lat="42.523111067712307" lon="13.553788214921951">
        <ele>1038.3599999999999</ele>
        <time>2013-09-08T09:25:05Z</time>
      </trkpt>
      <trkpt lat="42.523079719394445" lon="13.55384822934866">
        <ele>1038.3599999999999</ele>
        <time>2013-09-08T09:25:17Z</time>
      </trkpt>
      <trkpt lat="42.523055663332343" lon="13.553868178278208">
        <ele>1038.3599999999999</ele>
        <time>2013-09-08T09:25:21Z</time>
      </trkpt>
      <trkpt lat="42.523114001378417" lon="13.553653853014112">
        <ele>1037.4000000000001</ele>
        <time>2013-09-08T09:26:23Z</time>
      </trkpt>
      <trkpt lat="42.523059602826834" lon="13.553724261000752">
        <ele>1038.3599999999999</ele>
        <time>2013-09-08T09:26:40Z</time>
      </trkpt>
      <trkpt lat="42.523089610040188" lon="13.553717220202088">
        <ele>1037.4000000000001</ele>
        <time>2013-09-08T09:26:55Z</time>
      </trkpt>
      <trkpt lat="42.52309950068593" lon="13.553722836077213">
        <ele>1037.4000000000001</ele>
        <time>2013-09-08T09:27:07Z</time>
      </trkpt>
      <trkpt lat="42.523098913952708" lon="13.553790394216776">
        <ele>1038.3599999999999</ele>
        <time>2013-09-08T09:27:21Z</time>
      </trkpt>
      <trkpt lat="42.523072510957718" lon="13.553765332326293">
        <ele>1038.3599999999999</ele>
        <time>2013-09-08T09:27:25Z</time>
      </trkpt>
      <trkpt lat="42.523036217316985" lon="13.553702970966697">
        <ele>1038.8399999999999</ele>
        <time>2013-09-08T09:27:32Z</time>
      </trkpt>
      <trkpt lat="42.522920463234186" lon="13.553653936833143">
        <ele>1039.8</ele>
        <time>2013-09-08T09:27:46Z</time>
      </trkpt>
      <trkpt lat="42.522847540676594" lon="13.553508594632149">
        <ele>1040.76</ele>
        <time>2013-09-08T09:27:59Z</time>
      </trkpt>
      <trkpt lat="42.522821808233857" lon="13.553426284343004">
        <ele>1041.73</ele>
        <time>2013-09-08T09:28:06Z</time>
      </trkpt>
      <trkpt lat="42.522793561220169" lon="13.553393511101604">
        <ele>1041.73</ele>
        <time>2013-09-08T09:28:10Z</time>
      </trkpt>
      <trkpt lat="42.522771852090955" lon="13.553338525816798">
        <ele>1040.76</ele>
        <time>2013-09-08T09:28:24Z</time>
      </trkpt>
      <trkpt lat="42.522782832384109" lon="13.55333223938942">
        <ele>1040.76</ele>
        <time>2013-09-08T09:28:53Z</time>
      </trkpt>
      <trkpt lat="42.522789286449552" lon="13.553335256874561">
        <ele>1040.76</ele>
        <time>2013-09-08T09:29:12Z</time>
      </trkpt>
      <trkpt lat="42.522766990587115" lon="13.553349925205112">
        <ele>1040.76</ele>
        <time>2013-09-08T09:29:29Z</time>
      </trkpt>
      <trkpt lat="42.522755172103643" lon="13.553332658484578">
        <ele>1040.76</ele>
        <time>2013-09-08T09:29:52Z</time>
      </trkpt>
      <trkpt lat="42.522790627554059" lon="13.553363084793091">
        <ele>1040.76</ele>
        <time>2013-09-08T09:30:20Z</time>
      </trkpt>
      <trkpt lat="42.522788280621171" lon="13.553371466696262">
        <ele>1040.76</ele>
        <time>2013-09-08T09:30:25Z</time>
      </trkpt>
      <trkpt lat="42.522770930081606" lon="13.553354702889919">
        <ele>1041.73</ele>
        <time>2013-09-08T09:30:32Z</time>
      </trkpt>
      <trkpt lat="42.522761877626181" lon="13.55338403955102">
        <ele>1041.73</ele>
        <time>2013-09-08T09:30:45Z</time>
      </trkpt>
      <trkpt lat="42.522737234830856" lon="13.553458387032151">
        <ele>1041.73</ele>
        <time>2013-09-08T09:30:56Z</time>
      </trkpt>
      <trkpt lat="42.522710328921676" lon="13.553631054237485">
        <ele>1041.73</ele>
        <time>2013-09-08T09:31:12Z</time>
      </trkpt>
      <trkpt lat="42.522706221789122" lon="13.553641531616449">
        <ele>1041.73</ele>
        <time>2013-09-08T09:31:13Z</time>
      </trkpt>
      <trkpt lat="42.522685434669256" lon="13.553684195503592">
        <ele>1043.1700000000001</ele>
        <time>2013-09-08T09:31:20Z</time>
      </trkpt>
      <trkpt lat="42.52268560230732" lon="13.553781677037477">
        <ele>1046.05</ele>
        <time>2013-09-08T09:31:33Z</time>
      </trkpt>
      <trkpt lat="42.522640507668257" lon="13.553833141922951">
        <ele>1047.97</ele>
        <time>2013-09-08T09:31:45Z</time>
      </trkpt>
      <trkpt lat="42.522573200985789" lon="13.553876727819443">
        <ele>1050.8599999999999</ele>
        <time>2013-09-08T09:32:00Z</time>
      </trkpt>
      <trkpt lat="42.522560209035873" lon="13.553984686732292">
        <ele>1053.26</ele>
        <time>2013-09-08T09:32:13Z</time>
      </trkpt>
      <trkpt lat="42.522492902353406" lon="13.554018214344978">
        <ele>1054.7</ele>
        <time>2013-09-08T09:32:26Z</time>
      </trkpt>
      <trkpt lat="42.522425763309002" lon="13.554090047255158">
        <ele>1057.1099999999999</ele>
        <time>2013-09-08T09:32:39Z</time>
      </trkpt>
      <trkpt lat="42.522375304251909" lon="13.554183840751648">
        <ele>1059.51</ele>
        <time>2013-09-08T09:32:55Z</time>
      </trkpt>
      <trkpt lat="42.52232157625258" lon="13.554263385012746">
        <ele>1061.9100000000001</ele>
        <time>2013-09-08T09:33:08Z</time>
      </trkpt>
      <trkpt lat="42.52224488183856" lon="13.554350472986698">
        <ele>1063.8399999999999</ele>
        <time>2013-09-08T09:33:19Z</time>
      </trkpt>
      <trkpt lat="42.522242786362767" lon="13.554364135488868">
        <ele>1063.3599999999999</ele>
        <time>2013-09-08T09:33:20Z</time>
      </trkpt>
      <trkpt lat="42.522223005071282" lon="13.554557505995035">
        <ele>1064.3199999999999</ele>
        <time>2013-09-08T09:33:35Z</time>
      </trkpt>
      <trkpt lat="42.522176066413522" lon="13.554775435477495">
        <ele>1066.72</ele>
        <time>2013-09-08T09:33:51Z</time>
      </trkpt>
      <trkpt lat="42.522116135805845" lon="13.554919771850109">
        <ele>1070.0799999999999</ele>
        <time>2013-09-08T09:34:06Z</time>
      </trkpt>
      <trkpt lat="42.522126361727715" lon="13.555040387436748">
        <ele>1072.49</ele>
        <time>2013-09-08T09:34:17Z</time>
      </trkpt>
      <trkpt lat="42.522142790257931" lon="13.555077770724893">
        <ele>1072.49</ele>
        <time>2013-09-08T09:34:20Z</time>
      </trkpt>
      <trkpt lat="42.522223256528378" lon="13.555184304714203">
        <ele>1074.4100000000001</ele>
        <time>2013-09-08T09:34:31Z</time>
      </trkpt>
      <trkpt lat="42.522295843809843" lon="13.555269297212362">
        <ele>1076.3299999999999</ele>
        <time>2013-09-08T09:34:42Z</time>
      </trkpt>
      <trkpt lat="42.522336160764098" lon="13.555263765156269">
        <ele>1076.8099999999999</ele>
        <time>2013-09-08T09:34:46Z</time>
      </trkpt>
      <trkpt lat="42.522484855726361" lon="13.555313218384981">
        <ele>1076.3299999999999</ele>
        <time>2013-09-08T09:35:00Z</time>
      </trkpt>
      <trkpt lat="42.522649979218841" lon="13.555208528414369">
        <ele>1076.3299999999999</ele>
        <time>2013-09-08T09:35:16Z</time>
      </trkpt>
      <trkpt lat="42.522678645327687" lon="13.555188244208694">
        <ele>1076.3299999999999</ele>
        <time>2013-09-08T09:35:19Z</time>
      </trkpt>
      <trkpt lat="42.522709406912327" lon="13.555108029395342">
        <ele>1075.3699999999999</ele>
        <time>2013-09-08T09:35:25Z</time>
      </trkpt>
      <trkpt lat="42.522880733013153" lon="13.555006105452776">
        <ele>1076.8099999999999</ele>
        <time>2013-09-08T09:35:44Z</time>
      </trkpt>
      <trkpt lat="42.52289766445756" lon="13.554895296692848">
        <ele>1080.1800000000001</ele>
        <time>2013-09-08T09:35:58Z</time>
      </trkpt>
      <trkpt lat="42.522940076887608" lon="13.554802089929581">
        <ele>1083.54</ele>
        <time>2013-09-08T09:36:11Z</time>
      </trkpt>
      <trkpt lat="42.522978633642197" lon="13.55478348210454">
        <ele>1084.02</ele>
        <time>2013-09-08T09:36:17Z</time>
      </trkpt>
      <trkpt lat="42.522964049130678" lon="13.5546784568578">
        <ele>1084.02</ele>
        <time>2013-09-08T09:36:32Z</time>
      </trkpt>
      <trkpt lat="42.522940579801798" lon="13.554571000859141">
        <ele>1082.0999999999999</ele>
        <time>2013-09-08T09:36:45Z</time>
      </trkpt>
      <trkpt lat="42.522935718297958" lon="13.554564211517572">
        <ele>1082.0999999999999</ele>
        <time>2013-09-08T09:37:01Z</time>
      </trkpt>
      <trkpt lat="42.522941837087274" lon="13.554553147405386">
        <ele>1082.0999999999999</ele>
        <time>2013-09-08T09:37:25Z</time>
      </trkpt>
      <trkpt lat="42.52294946461916" lon="13.554543256759644">
        <ele>1081.6199999999999</ele>
        <time>2013-09-08T09:37:46Z</time>
      </trkpt>
      <trkpt lat="42.522944854572415" lon="13.554556835442781">
        <ele>1081.6199999999999</ele>
        <time>2013-09-08T09:38:05Z</time>
      </trkpt>
      <trkpt lat="42.522951811552048" lon="13.554613413289189">
        <ele>1082.0999999999999</ele>
        <time>2013-09-08T09:38:22Z</time>
      </trkpt>
      <trkpt lat="42.522953739389777" lon="13.55459975078702">
        <ele>1082.5799999999999</ele>
        <time>2013-09-08T09:38:33Z</time>
      </trkpt>
      <trkpt lat="42.522943848744035" lon="13.554633613675833">
        <ele>1082.5799999999999</ele>
        <time>2013-09-08T09:38:49Z</time>
      </trkpt>
      <trkpt lat="42.522925492376089" lon="13.554604109376669">
        <ele>1082.5799999999999</ele>
        <time>2013-09-08T09:39:10Z</time>
      </trkpt>
      <trkpt lat="42.522923480719328" lon="13.554563205689192">
        <ele>1081.6199999999999</ele>
        <time>2013-09-08T09:39:26Z</time>
      </trkpt>
      <trkpt lat="42.522957930341363" lon="13.554572090506554">
        <ele>1082.0999999999999</ele>
        <time>2013-09-08T09:39:45Z</time>
      </trkpt>
      <trkpt lat="42.522994810715318" lon="13.554588854312897">
        <ele>1082.5799999999999</ele>
        <time>2013-09-08T09:39:58Z</time>
      </trkpt>
      <trkpt lat="42.522956253960729" lon="13.554604947566986">
        <ele>1082.5799999999999</ele>
        <time>2013-09-08T09:40:15Z</time>
      </trkpt>
      <trkpt lat="42.522949632257223" lon="13.554607881233096">
        <ele>1082.5799999999999</ele>
        <time>2013-09-08T09:40:39Z</time>
      </trkpt>
      <trkpt lat="42.522931527346373" lon="13.554607713595033">
        <ele>1082.5799999999999</ele>
        <time>2013-09-08T09:41:04Z</time>
      </trkpt>
      <trkpt lat="42.522946782410145" lon="13.55461684986949">
        <ele>1083.0599999999999</ele>
        <time>2013-09-08T09:41:18Z</time>
      </trkpt>
      <trkpt lat="42.522941082715988" lon="13.554650964215398">
        <ele>1083.0599999999999</ele>
        <time>2013-09-08T09:41:45Z</time>
      </trkpt>
      <trkpt lat="42.522944686934352" lon="13.554656328633428">
        <ele>1084.02</ele>
        <time>2013-09-08T09:41:57Z</time>
      </trkpt>
      <trkpt lat="42.522948626428843" lon="13.554639983922243">
        <ele>1084.02</ele>
        <time>2013-09-08T09:42:16Z</time>
      </trkpt>
      <trkpt lat="42.522951392456889" lon="13.554658005014062">
        <ele>1084.5</ele>
        <time>2013-09-08T09:42:36Z</time>
      </trkpt>
      <trkpt lat="42.522975616157055" lon="13.554697064682841">
        <ele>1084.5</ele>
        <time>2013-09-08T09:42:52Z</time>
      </trkpt>
      <trkpt lat="42.522983159869909" lon="13.554705111309886">
        <ele>1084.5</ele>
        <time>2013-09-08T09:42:53Z</time>
      </trkpt>
      <trkpt lat="42.522990871220827" lon="13.554799491539598">
        <ele>1084.5</ele>
        <time>2013-09-08T09:43:01Z</time>
      </trkpt>
      <trkpt lat="42.522940998896956" lon="13.554921867325902">
        <ele>1081.6199999999999</ele>
        <time>2013-09-08T09:43:13Z</time>
      </trkpt>
      <trkpt lat="42.522928761318326" lon="13.555025300011039">
        <ele>1077.78</ele>
        <time>2013-09-08T09:43:20Z</time>
      </trkpt>
      <trkpt lat="42.522917781025171" lon="13.555052122101188">
        <ele>1077.29</ele>
        <time>2013-09-08T09:43:22Z</time>
      </trkpt>
      <trkpt lat="42.522786604240537" lon="13.555137366056442">
        <ele>1075.3699999999999</ele>
        <time>2013-09-08T09:43:34Z</time>
      </trkpt>
      <trkpt lat="42.522702533751726" lon="13.555226884782314">
        <ele>1076.3299999999999</ele>
        <time>2013-09-08T09:43:46Z</time>
      </trkpt>
      <trkpt lat="42.522687278687954" lon="13.555253287777305">
        <ele>1076.3299999999999</ele>
        <time>2013-09-08T09:43:48Z</time>
      </trkpt>
      <trkpt lat="42.522547720000148" lon="13.555316319689155">
        <ele>1076.8099999999999</ele>
        <time>2013-09-08T09:44:02Z</time>
      </trkpt>
      <trkpt lat="42.522393660619855" lon="13.555335430428386">
        <ele>1077.29</ele>
        <time>2013-09-08T09:44:17Z</time>
      </trkpt>
      <trkpt lat="42.522320821881294" lon="13.555314475670457">
        <ele>1077.29</ele>
        <time>2013-09-08T09:44:27Z</time>
      </trkpt>
      <trkpt lat="42.522276816889644" lon="13.555293772369623">
        <ele>1076.3299999999999</ele>
        <time>2013-09-08T09:44:33Z</time>
      </trkpt>
      <trkpt lat="42.522247480228543" lon="13.55524473823607">
        <ele>1075.3699999999999</ele>
        <time>2013-09-08T09:44:38Z</time>
      </trkpt>
      <trkpt lat="42.522180173546076" lon="13.555189166218042">
        <ele>1074.4100000000001</ele>
        <time>2013-09-08T09:44:52Z</time>
      </trkpt>
      <trkpt lat="42.522128624841571" lon="13.5551084484905">
        <ele>1073.45</ele>
        <time>2013-09-08T09:45:07Z</time>
      </trkpt>
      <trkpt lat="42.522138934582472" lon="13.554937792941928">
        <ele>1071.53</ele>
        <time>2013-09-08T09:45:20Z</time>
      </trkpt>
      <trkpt lat="42.522150669246912" lon="13.554797898977995">
        <ele>1068.6400000000001</ele>
        <time>2013-09-08T09:45:34Z</time>
      </trkpt>
      <trkpt lat="42.522128121927381" lon="13.554716426879168">
        <ele>1066.72</ele>
        <time>2013-09-08T09:45:46Z</time>
      </trkpt>
      <trkpt lat="42.522123344242573" lon="13.554688096046448">
        <ele>1066.72</ele>
        <time>2013-09-08T09:45:49Z</time>
      </trkpt>
      <trkpt lat="42.522153686732054" lon="13.554509729146957">
        <ele>1064.3199999999999</ele>
        <time>2013-09-08T09:46:03Z</time>
      </trkpt>
      <trkpt lat="42.522154273465276" lon="13.554462790489197">
        <ele>1063.8399999999999</ele>
        <time>2013-09-08T09:46:06Z</time>
      </trkpt>
      <trkpt lat="42.522163158282638" lon="13.55438768863678">
        <ele>1063.3599999999999</ele>
        <time>2013-09-08T09:46:17Z</time>
      </trkpt>
      <trkpt lat="42.52217941917479" lon="13.55432566255331">
        <ele>1063.8399999999999</ele>
        <time>2013-09-08T09:46:21Z</time>
      </trkpt>
      <trkpt lat="42.522273883223534" lon="13.554183840751648">
        <ele>1060.47</ele>
        <time>2013-09-08T09:46:35Z</time>
      </trkpt>
      <trkpt lat="42.522329958155751" lon="13.554071774706244">
        <ele>1057.5899999999999</ele>
        <time>2013-09-08T09:46:48Z</time>
      </trkpt>
      <trkpt lat="42.522395672276616" lon="13.553995667025447">
        <ele>1054.7</ele>
        <time>2013-09-08T09:46:59Z</time>
      </trkpt>
      <trkpt lat="42.522450825199485" lon="13.553925510495901">
        <ele>1053.26</ele>
        <time>2013-09-08T09:47:07Z</time>
      </trkpt>
      <trkpt lat="42.522523663938046" lon="13.553856108337641">
        <ele>1050.3800000000001</ele>
        <time>2013-09-08T09:47:19Z</time>
      </trkpt>
      <trkpt lat="42.522550150752068" lon="13.553864490240812">
        <ele>1050.3800000000001</ele>
        <time>2013-09-08T09:47:37Z</time>
      </trkpt>
      <trkpt lat="42.522549731656909" lon="13.553779497742653">
        <ele>1049.9000000000001</ele>
        <time>2013-09-08T09:47:49Z</time>
      </trkpt>
      <trkpt lat="42.522615697234869" lon="13.553734151646495">
        <ele>1047.49</ele>
        <time>2013-09-08T09:47:59Z</time>
      </trkpt>
      <trkpt lat="42.522581163793802" lon="13.553643710911274">
        <ele>1045.0899999999999</ele>
        <time>2013-09-08T09:48:07Z</time>
      </trkpt>
      <trkpt lat="42.522651152685285" lon="13.553637927398086">
        <ele>1042.6900000000001</ele>
        <time>2013-09-08T09:48:16Z</time>
      </trkpt>
      <trkpt lat="42.522699264809489" lon="13.553643207997084">
        <ele>1042.21</ele>
        <time>2013-09-08T09:48:31Z</time>
      </trkpt>
      <trkpt lat="42.522697253152728" lon="13.553607920184731">
        <ele>1041.73</ele>
        <time>2013-09-08T09:48:34Z</time>
      </trkpt>
      <trkpt lat="42.522709239274263" lon="13.553507588803768">
        <ele>1041.25</ele>
        <time>2013-09-08T09:48:41Z</time>
      </trkpt>
      <trkpt lat="42.522799093276262" lon="13.553426032885909">
        <ele>1041.25</ele>
        <time>2013-09-08T09:48:54Z</time>
      </trkpt>
      <trkpt lat="42.522814096882939" lon="13.553415052592754">
        <ele>1041.73</ele>
        <time>2013-09-08T09:48:56Z</time>
      </trkpt>
      <trkpt lat="42.522835470736027" lon="13.553417231887579">
        <ele>1041.25</ele>
        <time>2013-09-08T09:48:58Z</time>
      </trkpt>
      <trkpt lat="42.522833878174424" lon="13.553503733128309">
        <ele>1040.76</ele>
        <time>2013-09-08T09:49:12Z</time>
      </trkpt>
      <trkpt lat="42.522824993357062" lon="13.553407341241837">
        <ele>1041.73</ele>
        <time>2013-09-08T09:49:23Z</time>
      </trkpt>
      <trkpt lat="42.522842846810818" lon="13.553346069529653">
        <ele>1041.73</ele>
        <time>2013-09-08T09:49:36Z</time>
      </trkpt>
      <trkpt lat="42.522831447422504" lon="13.553331736475229">
        <ele>1041.73</ele>
        <time>2013-09-08T09:49:56Z</time>
      </trkpt>
      <trkpt lat="42.522880397737026" lon="13.553326455876231">
        <ele>1041.73</ele>
        <time>2013-09-08T09:50:18Z</time>
      </trkpt>
      <trkpt lat="42.522870590910316" lon="13.553330143913627">
        <ele>1041.73</ele>
        <time>2013-09-08T09:50:30Z</time>
      </trkpt>
      <trkpt lat="42.522899005562067" lon="13.553335927426815">
        <ele>1041.73</ele>
        <time>2013-09-08T09:50:48Z</time>
      </trkpt>
      <trkpt lat="42.522870255634189" lon="13.55331664904952">
        <ele>1041.73</ele>
        <time>2013-09-08T09:51:07Z</time>
      </trkpt>
      <trkpt lat="42.522861370816827" lon="13.553315307945013">
        <ele>1041.73</ele>
        <time>2013-09-08T09:51:28Z</time>
      </trkpt>
      <trkpt lat="42.522880230098963" lon="13.553308015689254">
        <ele>1041.73</ele>
        <time>2013-09-08T09:51:44Z</time>
      </trkpt>
      <trkpt lat="42.522857766598463" lon="13.553320253267884">
        <ele>1042.21</ele>
        <time>2013-09-08T09:51:51Z</time>
      </trkpt>
      <trkpt lat="42.522759614512324" lon="13.553386218845844">
        <ele>1042.21</ele>
        <time>2013-09-08T09:52:05Z</time>
      </trkpt>
      <trkpt lat="42.522764476016164" lon="13.553401222452521">
        <ele>1042.6900000000001</ele>
        <time>2013-09-08T09:52:24Z</time>
      </trkpt>
      <trkpt lat="42.522754082456231" lon="13.553434330970049">
        <ele>1042.6900000000001</ele>
        <time>2013-09-08T09:52:41Z</time>
      </trkpt>
      <trkpt lat="42.52276673913002" lon="13.55343097820878">
        <ele>1042.21</ele>
        <time>2013-09-08T09:52:55Z</time>
      </trkpt>
      <trkpt lat="42.522742850705981" lon="13.553428798913956">
        <ele>1042.21</ele>
        <time>2013-09-08T09:53:05Z</time>
      </trkpt>
      <trkpt lat="42.522730529308319" lon="13.553406754508615">
        <ele>1042.6900000000001</ele>
        <time>2013-09-08T09:53:36Z</time>
      </trkpt>
      <trkpt lat="42.522722650319338" lon="13.55339870788157">
        <ele>1041.25</ele>
        <time>2013-09-08T09:53:51Z</time>
      </trkpt>
      <trkpt lat="42.522727344185114" lon="13.553425613790751">
        <ele>1041.73</ele>
        <time>2013-09-08T09:54:15Z</time>
      </trkpt>
      <trkpt lat="42.522717788815498" lon="13.553437935188413">
        <ele>1041.73</ele>
        <time>2013-09-08T09:54:42Z</time>
      </trkpt>
      <trkpt lat="42.522699600085616" lon="13.553449502214789">
        <ele>1041.73</ele>
        <time>2013-09-08T09:55:10Z</time>
      </trkpt>
      <trkpt lat="42.522699180990458" lon="13.553449502214789">
        <ele>1041.25</ele>
        <time>2013-09-08T09:55:41Z</time>
      </trkpt>
      <trkpt lat="42.522661127150059" lon="13.553441455587745">
        <ele>1041.25</ele>
        <time>2013-09-08T09:56:03Z</time>
      </trkpt>
      <trkpt lat="42.522663306444883" lon="13.553453525528312">
        <ele>1041.73</ele>
        <time>2013-09-08T09:56:26Z</time>
      </trkpt>
      <trkpt lat="42.52261821180582" lon="13.553444556891918">
        <ele>1041.25</ele>
        <time>2013-09-08T09:56:52Z</time>
      </trkpt>
      <trkpt lat="42.522770091891289" lon="13.553454112261534">
        <ele>1040.76</ele>
        <time>2013-09-08T09:57:20Z</time>
      </trkpt>
      <trkpt lat="42.522750059142709" lon="13.55344413779676">
        <ele>1040.76</ele>
        <time>2013-09-08T09:57:51Z</time>
      </trkpt>
      <trkpt lat="42.522727344185114" lon="13.553431984037161">
        <ele>1040.76</ele>
        <time>2013-09-08T09:58:14Z</time>
      </trkpt>
      <trkpt lat="42.522728098556399" lon="13.553427625447512">
        <ele>1040.76</ele>
        <time>2013-09-08T09:58:17Z</time>
      </trkpt>
      <trkpt lat="42.522747544571757" lon="13.553408766165376">
        <ele>1041.73</ele>
        <time>2013-09-08T09:58:25Z</time>
      </trkpt>
      <trkpt lat="42.522771935909986" lon="13.553373645991087">
        <ele>1041.73</ele>
        <time>2013-09-08T09:58:40Z</time>
      </trkpt>
      <trkpt lat="42.522831112146378" lon="13.553299298509955">
        <ele>1042.21</ele>
        <time>2013-09-08T09:58:53Z</time>
      </trkpt>
      <trkpt lat="42.522853408008814" lon="13.553338274359703">
        <ele>1042.21</ele>
        <time>2013-09-08T09:59:07Z</time>
      </trkpt>
      <trkpt lat="42.52279314212501" lon="13.553378591313958">
        <ele>1041.73</ele>
        <time>2013-09-08T09:59:19Z</time>
      </trkpt>
      <trkpt lat="42.522825412452221" lon="13.553337268531322">
        <ele>1041.73</ele>
        <time>2013-09-08T09:59:32Z</time>
      </trkpt>
      <trkpt lat="42.522849049419165" lon="13.553274823352695">
        <ele>1042.21</ele>
        <time>2013-09-08T09:59:46Z</time>
      </trkpt>
      <trkpt lat="42.522873608395457" lon="13.553277505561709">
        <ele>1041.73</ele>
        <time>2013-09-08T09:59:57Z</time>
      </trkpt>
      <trkpt lat="42.522869668900967" lon="13.553303321823478">
        <ele>1041.73</ele>
        <time>2013-09-08T10:00:24Z</time>
      </trkpt>
      <trkpt lat="42.522879643365741" lon="13.55328731238842">
        <ele>1041.73</ele>
        <time>2013-09-08T10:00:49Z</time>
      </trkpt>
      <trkpt lat="42.522891378030181" lon="13.553270800039172">
        <ele>1041.73</ele>
        <time>2013-09-08T10:01:02Z</time>
      </trkpt>
      <trkpt lat="42.522905878722668" lon="13.553232746198773">
        <ele>1042.21</ele>
        <time>2013-09-08T10:01:11Z</time>
      </trkpt>
      <trkpt lat="42.522965976968408" lon="13.553169881924987">
        <ele>1042.6900000000001</ele>
        <time>2013-09-08T10:01:18Z</time>
      </trkpt>
      <trkpt lat="42.523018447682261" lon="13.553163595497608">
        <ele>1042.6900000000001</ele>
        <time>2013-09-08T10:01:21Z</time>
      </trkpt>
      <trkpt lat="42.523205447942019" lon="13.553091930225492">
        <ele>1043.6500000000001</ele>
        <time>2013-09-08T10:01:32Z</time>
      </trkpt>
      <trkpt lat="42.523193461820483" lon="13.552951281890273">
        <ele>1043.6500000000001</ele>
        <time>2013-09-08T10:01:38Z</time>
      </trkpt>
      <trkpt lat="42.523172339424491" lon="13.552889842540026">
        <ele>1043.6500000000001</ele>
        <time>2013-09-08T10:01:41Z</time>
      </trkpt>
      <trkpt lat="42.52315716817975" lon="13.552688006311655">
        <ele>1043.1700000000001</ele>
        <time>2013-09-08T10:01:55Z</time>
      </trkpt>
      <trkpt lat="42.523195808753371" lon="13.552683060988784">
        <ele>1043.1700000000001</ele>
        <time>2013-09-08T10:02:08Z</time>
      </trkpt>
      <trkpt lat="42.523197568953037" lon="13.552676439285278">
        <ele>1043.1700000000001</ele>
        <time>2013-09-08T10:02:26Z</time>
      </trkpt>
      <trkpt lat="42.52321969717741" lon="13.552656406536698">
        <ele>1042.21</ele>
        <time>2013-09-08T10:02:50Z</time>
      </trkpt>
      <trkpt lat="42.523228162899613" lon="13.552632937207818">
        <ele>1041.25</ele>
        <time>2013-09-08T10:03:02Z</time>
      </trkpt>
      <trkpt lat="42.523209303617477" lon="13.552557332441211">
        <ele>1040.76</ele>
        <time>2013-09-08T10:03:13Z</time>
      </trkpt>
      <trkpt lat="42.52331055700779" lon="13.552492121234536">
        <ele>1039.3199999999999</ele>
        <time>2013-09-08T10:03:24Z</time>
      </trkpt>
      <trkpt lat="42.523333188146353" lon="13.552487762644887">
        <ele>1039.3199999999999</ele>
        <time>2013-09-08T10:03:26Z</time>
      </trkpt>
      <trkpt lat="42.523401752114296" lon="13.552457420155406">
        <ele>1038.3599999999999</ele>
        <time>2013-09-08T10:03:31Z</time>
      </trkpt>
      <trkpt lat="42.523347353562713" lon="13.552412493154407">
        <ele>1038.3599999999999</ele>
        <time>2013-09-08T10:03:42Z</time>
      </trkpt>
      <trkpt lat="42.523340061306953" lon="13.552402351051569">
        <ele>1037.8800000000001</ele>
        <time>2013-09-08T10:03:44Z</time>
      </trkpt>
      <trkpt lat="42.523305779322982" lon="13.552198419347405">
        <ele>1038.8399999999999</ele>
        <time>2013-09-08T10:04:00Z</time>
      </trkpt>
      <trkpt lat="42.523302510380745" lon="13.552144356071949">
        <ele>1038.8399999999999</ele>
        <time>2013-09-08T10:04:14Z</time>
      </trkpt>
      <trkpt lat="42.523307288065553" lon="13.552101692184806">
        <ele>1038.3599999999999</ele>
        <time>2013-09-08T10:04:27Z</time>
      </trkpt>
      <trkpt lat="42.523333188146353" lon="13.552064727991819">
        <ele>1038.8399999999999</ele>
        <time>2013-09-08T10:04:41Z</time>
      </trkpt>
      <trkpt lat="42.523306785151362" lon="13.552042348310351">
        <ele>1039.3199999999999</ele>
        <time>2013-09-08T10:05:02Z</time>
      </trkpt>
      <trkpt lat="42.523225983604789" lon="13.552031703293324">
        <ele>1040.76</ele>
        <time>2013-09-08T10:05:19Z</time>
      </trkpt>
      <trkpt lat="42.523251129314303" lon="13.552045365795493">
        <ele>1041.73</ele>
        <time>2013-09-08T10:05:36Z</time>
      </trkpt>
      <trkpt lat="42.5231943000108" lon="13.552026338875294">
        <ele>1040.76</ele>
        <time>2013-09-08T10:05:49Z</time>
      </trkpt>
      <trkpt lat="42.523141242563725" lon="13.551998762413859">
        <ele>1043.6500000000001</ele>
        <time>2013-09-08T10:06:09Z</time>
      </trkpt>
      <trkpt lat="42.523166388273239" lon="13.552033379673958">
        <ele>1044.1300000000001</ele>
        <time>2013-09-08T10:06:14Z</time>
      </trkpt>
      <trkpt lat="42.523219529539347" lon="13.552078893408179">
        <ele>1046.05</ele>
        <time>2013-09-08T10:06:27Z</time>
      </trkpt>
      <trkpt lat="42.523149289190769" lon="13.552033798769116">
        <ele>1048.9400000000001</ele>
        <time>2013-09-08T10:06:46Z</time>
      </trkpt>
      <trkpt lat="42.522999001666903" lon="13.552058022469282">
        <ele>1051.3399999999999</ele>
        <time>2013-09-08T10:07:07Z</time>
      </trkpt>
      <trkpt lat="42.522865813225508" lon="13.552071265876293">
        <ele>1051.3399999999999</ele>
        <time>2013-09-08T10:07:23Z</time>
      </trkpt>
      <trkpt lat="42.52279314212501" lon="13.552044862881303">
        <ele>1052.3</ele>
        <time>2013-09-08T10:07:38Z</time>
      </trkpt>
      <trkpt lat="42.522676717489958" lon="13.552113343030214">
        <ele>1055.1800000000001</ele>
        <time>2013-09-08T10:07:57Z</time>
      </trkpt>
      <trkpt lat="42.522578313946724" lon="13.552097585052252">
        <ele>1056.1500000000001</ele>
        <time>2013-09-08T10:08:11Z</time>
      </trkpt>
      <trkpt lat="42.522573787719011" lon="13.55213706381619">
        <ele>1057.1099999999999</ele>
        <time>2013-09-08T10:08:30Z</time>
      </trkpt>
      <trkpt lat="42.522528609260917" lon="13.552140668034554">
        <ele>1057.1099999999999</ele>
        <time>2013-09-08T10:08:47Z</time>
      </trkpt>
      <trkpt lat="42.522486867383122" lon="13.552139662206173">
        <ele>1057.1099999999999</ele>
        <time>2013-09-08T10:09:11Z</time>
      </trkpt>
      <trkpt lat="42.522495416924357" lon="13.552188444882631">
        <ele>1058.55</ele>
        <time>2013-09-08T10:09:30Z</time>
      </trkpt>
      <trkpt lat="42.522460883483291" lon="13.552175033837557">
        <ele>1058.55</ele>
        <time>2013-09-08T10:09:50Z</time>
      </trkpt>
      <trkpt lat="42.52236851491034" lon="13.552210405468941">
        <ele>1058.55</ele>
        <time>2013-09-08T10:10:21Z</time>
      </trkpt>
      <trkpt lat="42.522355271503329" lon="13.552202358841896">
        <ele>1058.55</ele>
        <time>2013-09-08T10:10:38Z</time>
      </trkpt>
      <trkpt lat="42.522368682548404" lon="13.552099848166108">
        <ele>1058.55</ele>
        <time>2013-09-08T10:10:55Z</time>
      </trkpt>
      <trkpt lat="42.522398270666599" lon="13.55209993198514">
        <ele>1057.5899999999999</ele>
        <time>2013-09-08T10:11:08Z</time>
      </trkpt>
      <trkpt lat="42.522418219596148" lon="13.552117282524705">
        <ele>1057.5899999999999</ele>
        <time>2013-09-08T10:11:35Z</time>
      </trkpt>
      <trkpt lat="42.522443700581789" lon="13.552133124321699">
        <ele>1057.1099999999999</ele>
        <time>2013-09-08T10:12:00Z</time>
      </trkpt>
      <trkpt lat="42.522425847128034" lon="13.552155420184135">
        <ele>1058.0699999999999</ele>
        <time>2013-09-08T10:12:13Z</time>
      </trkpt>
      <trkpt lat="42.522393241524696" lon="13.55219129472971">
        <ele>1058.55</ele>
        <time>2013-09-08T10:12:28Z</time>
      </trkpt>
      <trkpt lat="42.52232501283288" lon="13.55223429389298">
        <ele>1060.47</ele>
        <time>2013-09-08T10:12:43Z</time>
      </trkpt>
      <trkpt lat="42.522318139672279" lon="13.552235048264265">
        <ele>1061.4300000000001</ele>
        <time>2013-09-08T10:12:58Z</time>
      </trkpt>
      <trkpt lat="42.522279834374785" lon="13.552244519814849">
        <ele>1060.95</ele>
        <time>2013-09-08T10:13:06Z</time>
      </trkpt>
      <trkpt lat="42.522248150780797" lon="13.552219625562429">
        <ele>1060.95</ele>
        <time>2013-09-08T10:13:17Z</time>
      </trkpt>
      <trkpt lat="42.522262902930379" lon="13.552238317206502">
        <ele>1060.95</ele>
        <time>2013-09-08T10:13:24Z</time>
      </trkpt>
      <trkpt lat="42.522234153002501" lon="13.552283328026533">
        <ele>1060.47</ele>
        <time>2013-09-08T10:13:35Z</time>
      </trkpt>
      <trkpt lat="42.52214471809566" lon="13.552283914759755">
        <ele>1061.4300000000001</ele>
        <time>2013-09-08T10:13:47Z</time>
      </trkpt>
      <trkpt lat="42.522034579887986" lon="13.552277712151408">
        <ele>1061.9100000000001</ele>
        <time>2013-09-08T10:14:01Z</time>
      </trkpt>
      <trkpt lat="42.521955203264952" lon="13.552283914759755">
        <ele>1062.3900000000001</ele>
        <time>2013-09-08T10:14:18Z</time>
      </trkpt>
      <trkpt lat="42.521841125562787" lon="13.552327500656247">
        <ele>1063.8399999999999</ele>
        <time>2013-09-08T10:14:32Z</time>
      </trkpt>
      <trkpt lat="42.52177239395678" lon="13.552357172593474">
        <ele>1064.3199999999999</ele>
        <time>2013-09-08T10:14:47Z</time>
      </trkpt>
      <trkpt lat="42.521687066182494" lon="13.552360776811838">
        <ele>1066.24</ele>
        <time>2013-09-08T10:15:00Z</time>
      </trkpt>
      <trkpt lat="42.521634511649609" lon="13.55229833163321">
        <ele>1066.24</ele>
        <time>2013-09-08T10:15:16Z</time>
      </trkpt>
      <trkpt lat="42.52163652330637" lon="13.552324986085296">
        <ele>1066.24</ele>
        <time>2013-09-08T10:15:32Z</time>
      </trkpt>
      <trkpt lat="42.521630320698023" lon="13.552320376038551">
        <ele>1066.24</ele>
        <time>2013-09-08T10:15:58Z</time>
      </trkpt>
      <trkpt lat="42.521628560498357" lon="13.552333535626531">
        <ele>1066.24</ele>
        <time>2013-09-08T10:16:16Z</time>
      </trkpt>
      <trkpt lat="42.52171128988266" lon="13.552352981641889">
        <ele>1065.28</ele>
        <time>2013-09-08T10:16:31Z</time>
      </trkpt>
      <trkpt lat="42.521618166938424" lon="13.552309395745397">
        <ele>1065.76</ele>
        <time>2013-09-08T10:16:52Z</time>
      </trkpt>
      <trkpt lat="42.521617580205202" lon="13.552311407402158">
        <ele>1066.24</ele>
        <time>2013-09-08T10:17:10Z</time>
      </trkpt>
      <trkpt lat="42.521688407287002" lon="13.55238969437778">
        <ele>1067.2</ele>
        <time>2013-09-08T10:17:27Z</time>
      </trkpt>
      <trkpt lat="42.521746577695012" lon="13.552403775975108">
        <ele>1067.2</ele>
        <time>2013-09-08T10:17:43Z</time>
      </trkpt>
      <trkpt lat="42.521722605451941" lon="13.552413498982787">
        <ele>1067.2</ele>
        <time>2013-09-08T10:17:50Z</time>
      </trkpt>
      <trkpt lat="42.521642725914717" lon="13.552457336336374">
        <ele>1070.5699999999999</ele>
        <time>2013-09-08T10:18:06Z</time>
      </trkpt>
      <trkpt lat="42.52167072147131" lon="13.552452810108662">
        <ele>1071.05</ele>
        <time>2013-09-08T10:18:22Z</time>
      </trkpt>
      <trkpt lat="42.521842550486326" lon="13.552566468715668">
        <ele>1070.5699999999999</ele>
        <time>2013-09-08T10:18:49Z</time>
      </trkpt>
      <trkpt lat="42.52175772562623" lon="13.552544759586453">
        <ele>1070.0799999999999</ele>
        <time>2013-09-08T10:19:03Z</time>
      </trkpt>
      <trkpt lat="42.521749595180154" lon="13.552543669939041">
        <ele>1070.0799999999999</ele>
        <time>2013-09-08T10:19:04Z</time>
      </trkpt>
      <trkpt lat="42.521572317928076" lon="13.552372846752405">
        <ele>1067.6800000000001</ele>
        <time>2013-09-08T10:19:16Z</time>
      </trkpt>
      <trkpt lat="42.52154566347599" lon="13.552255248650908">
        <ele>1067.2</ele>
        <time>2013-09-08T10:19:30Z</time>
      </trkpt>
      <trkpt lat="42.521563014015555" lon="13.552262373268604">
        <ele>1067.6800000000001</ele>
        <time>2013-09-08T10:19:48Z</time>
      </trkpt>
      <trkpt lat="42.521533844992518" lon="13.552253488451242">
        <ele>1067.6800000000001</ele>
        <time>2013-09-08T10:19:59Z</time>
      </trkpt>
      <trkpt lat="42.521488750353456" lon="13.552257344126701">
        <ele>1067.6800000000001</ele>
        <time>2013-09-08T10:20:09Z</time>
      </trkpt>
      <trkpt lat="42.521444158628583" lon="13.552264049649239">
        <ele>1068.6400000000001</ele>
        <time>2013-09-08T10:20:16Z</time>
      </trkpt>
      <trkpt lat="42.521439883857965" lon="13.552293218672276">
        <ele>1071.53</ele>
        <time>2013-09-08T10:20:27Z</time>
      </trkpt>
      <trkpt lat="42.521420605480671" lon="13.552295649424195">
        <ele>1072.97</ele>
        <time>2013-09-08T10:20:33Z</time>
      </trkpt>
      <trkpt lat="42.521401075646281" lon="13.55227586813271">
        <ele>1072.97</ele>
        <time>2013-09-08T10:20:35Z</time>
      </trkpt>
      <trkpt lat="42.521384311839938" lon="13.552284920588136">
        <ele>1075.3699999999999</ele>
        <time>2013-09-08T10:20:43Z</time>
      </trkpt>
      <trkpt lat="42.521332176402211" lon="13.552293805405498">
        <ele>1078.26</ele>
        <time>2013-09-08T10:20:54Z</time>
      </trkpt>
      <trkpt lat="42.521249363198876" lon="13.552300008013844">
        <ele>1080.1800000000001</ele>
        <time>2013-09-08T10:21:06Z</time>
      </trkpt>
      <trkpt lat="42.521200831979513" lon="13.552288692444563">
        <ele>1082.0999999999999</ele>
        <time>2013-09-08T10:21:20Z</time>
      </trkpt>
      <trkpt lat="42.521149618551135" lon="13.552223145961761">
        <ele>1081.1400000000001</ele>
        <time>2013-09-08T10:21:34Z</time>
      </trkpt>
      <trkpt lat="42.521137716248631" lon="13.552137650549412">
        <ele>1079.22</ele>
        <time>2013-09-08T10:21:47Z</time>
      </trkpt>
      <trkpt lat="42.52114349976182" lon="13.552074870094657">
        <ele>1076.8099999999999</ele>
        <time>2013-09-08T10:22:01Z</time>
      </trkpt>
      <trkpt lat="42.521255314350128" lon="13.552062464877963">
        <ele>1074.8900000000001</ele>
        <time>2013-09-08T10:22:18Z</time>
      </trkpt>
      <trkpt lat="42.521216170862317" lon="13.552076378837228">
        <ele>1075.3699999999999</ele>
        <time>2013-09-08T10:22:33Z</time>
      </trkpt>
      <trkpt lat="42.52118406817317" lon="13.552093310281634">
        <ele>1076.3299999999999</ele>
        <time>2013-09-08T10:22:44Z</time>
      </trkpt>
      <trkpt lat="42.521151714026928" lon="13.552088784053922">
        <ele>1076.8099999999999</ele>
        <time>2013-09-08T10:22:57Z</time>
      </trkpt>
      <trkpt lat="42.52111759968102" lon="13.552089538425207">
        <ele>1077.29</ele>
        <time>2013-09-08T10:23:12Z</time>
      </trkpt>
      <trkpt lat="42.521097734570503" lon="13.552042348310351">
        <ele>1077.78</ele>
        <time>2013-09-08T10:23:25Z</time>
      </trkpt>
      <trkpt lat="42.521081389859319" lon="13.552044108510017">
        <ele>1077.78</ele>
        <time>2013-09-08T10:23:39Z</time>
      </trkpt>
      <trkpt lat="42.521095555275679" lon="13.552001696079969">
        <ele>1077.78</ele>
        <time>2013-09-08T10:24:00Z</time>
      </trkpt>
      <trkpt lat="42.521082228049636" lon="13.551993230357766">
        <ele>1077.29</ele>
        <time>2013-09-08T10:24:18Z</time>
      </trkpt>
      <trkpt lat="42.521091364324093" lon="13.551984010264277">
        <ele>1078.26</ele>
        <time>2013-09-08T10:24:35Z</time>
      </trkpt>
      <trkpt lat="42.52106093801558" lon="13.551985686644912">
        <ele>1078.26</ele>
        <time>2013-09-08T10:24:55Z</time>
      </trkpt>
      <trkpt lat="42.521034870296717" lon="13.551979819312692">
        <ele>1078.74</ele>
        <time>2013-09-08T10:25:16Z</time>
      </trkpt>
      <trkpt lat="42.521006958559155" lon="13.55197194032371">
        <ele>1078.74</ele>
        <time>2013-09-08T10:25:19Z</time>
      </trkpt>
      <trkpt lat="42.520875865593553" lon="13.551980406045914">
        <ele>1079.7</ele>
        <time>2013-09-08T10:25:33Z</time>
      </trkpt>
      <trkpt lat="42.520760195329785" lon="13.552003456279635">
        <ele>1080.6600000000001</ele>
        <time>2013-09-08T10:25:47Z</time>
      </trkpt>
      <trkpt lat="42.520746449008584" lon="13.551992978900671">
        <ele>1080.1800000000001</ele>
        <time>2013-09-08T10:25:50Z</time>
      </trkpt>
      <trkpt lat="42.520709568634629" lon="13.551982920616865">
        <ele>1080.6600000000001</ele>
        <time>2013-09-08T10:25:54Z</time>
      </trkpt>
      <trkpt lat="42.520687440410256" lon="13.551971688866615">
        <ele>1080.6600000000001</ele>
        <time>2013-09-08T10:25:56Z</time>
      </trkpt>
      <trkpt lat="42.52056498080492" lon="13.551949225366116">
        <ele>1080.6600000000001</ele>
        <time>2013-09-08T10:26:09Z</time>
      </trkpt>
      <trkpt lat="42.520435145124793" lon="13.551917038857937">
        <ele>1080.6600000000001</ele>
        <time>2013-09-08T10:26:22Z</time>
      </trkpt>
      <trkpt lat="42.520248396322131" lon="13.55190840549767">
        <ele>1081.6199999999999</ele>
        <time>2013-09-08T10:26:39Z</time>
      </trkpt>
      <trkpt lat="42.520098192617297" lon="13.551869262009859">
        <ele>1081.6199999999999</ele>
        <time>2013-09-08T10:26:54Z</time>
      </trkpt>
      <trkpt lat="42.5199737213552" lon="13.551812600344419">
        <ele>1080.1800000000001</ele>
        <time>2013-09-08T10:27:05Z</time>
      </trkpt>
      <trkpt lat="42.519820164889097" lon="13.551717046648264">
        <ele>1080.1800000000001</ele>
        <time>2013-09-08T10:27:19Z</time>
      </trkpt>
      <trkpt lat="42.519652359187603" lon="13.551686285063624">
        <ele>1081.1400000000001</ele>
        <time>2013-09-08T10:27:34Z</time>
      </trkpt>
      <trkpt lat="42.519521517679095" lon="13.551641022786498">
        <ele>1082.0999999999999</ele>
        <time>2013-09-08T10:27:49Z</time>
      </trkpt>
      <trkpt lat="42.51940643414855" lon="13.551601795479655">
        <ele>1083.54</ele>
        <time>2013-09-08T10:28:02Z</time>
      </trkpt>
      <trkpt lat="42.51938640139997" lon="13.551595089957118">
        <ele>1084.02</ele>
        <time>2013-09-08T10:28:14Z</time>
      </trkpt>
      <trkpt lat="42.519307443872094" lon="13.551643034443259">
        <ele>1085.95</ele>
        <time>2013-09-08T10:28:24Z</time>
      </trkpt>
      <trkpt lat="42.51918263733387" lon="13.551644459366798">
        <ele>1087.8699999999999</ele>
        <time>2013-09-08T10:28:36Z</time>
      </trkpt>
      <trkpt lat="42.519157072529197" lon="13.551627527922392">
        <ele>1088.8299999999999</ele>
        <time>2013-09-08T10:28:39Z</time>
      </trkpt>
      <trkpt lat="42.519095214083791" lon="13.551561310887337">
        <ele>1090.27</ele>
        <time>2013-09-08T10:28:50Z</time>
      </trkpt>
      <trkpt lat="42.519004940986633" lon="13.551542703062296">
        <ele>1091.23</ele>
        <time>2013-09-08T10:29:00Z</time>
      </trkpt>
      <trkpt lat="42.518869070336223" lon="13.551545217633247">
        <ele>1092.6800000000001</ele>
        <time>2013-09-08T10:29:15Z</time>
      </trkpt>
      <trkpt lat="42.518822131678462" lon="13.551540020853281">
        <ele>1092.6800000000001</ele>
        <time>2013-09-08T10:29:19Z</time>
      </trkpt>
      <trkpt lat="42.518677627667785" lon="13.551438180729747">
        <ele>1093.6400000000001</ele>
        <time>2013-09-08T10:29:35Z</time>
      </trkpt>
      <trkpt lat="42.51859531737864" lon="13.551374142989516">
        <ele>1094.1199999999999</ele>
        <time>2013-09-08T10:29:47Z</time>
      </trkpt>
      <trkpt lat="42.518465565517545" lon="13.551362743601203">
        <ele>1095.0799999999999</ele>
        <time>2013-09-08T10:30:02Z</time>
      </trkpt>
      <trkpt lat="42.518484340980649" lon="13.55135528370738">
        <ele>1095.5599999999999</ele>
        <time>2013-09-08T10:30:15Z</time>
      </trkpt>
      <trkpt lat="42.518299939110875" lon="13.551346817985177">
        <ele>1095.0799999999999</ele>
        <time>2013-09-08T10:30:30Z</time>
      </trkpt>
      <trkpt lat="42.518178652971983" lon="13.551312368363142">
        <ele>1095.0799999999999</ele>
        <time>2013-09-08T10:30:42Z</time>
      </trkpt>
      <trkpt lat="42.518158620223403" lon="13.551314044743776">
        <ele>1095.0799999999999</ele>
        <time>2013-09-08T10:30:44Z</time>
      </trkpt>
      <trkpt lat="42.518122494220734" lon="13.551311446353793">
        <ele>1095.0799999999999</ele>
        <time>2013-09-08T10:30:47Z</time>
      </trkpt>
      <trkpt lat="42.517980253323913" lon="13.551249336451292">
        <ele>1095.0799999999999</ele>
        <time>2013-09-08T10:31:02Z</time>
      </trkpt>
      <trkpt lat="42.517825691029429" lon="13.551128637045622">
        <ele>1095.5599999999999</ele>
        <time>2013-09-08T10:31:17Z</time>
      </trkpt>
      <trkpt lat="42.517695520073175" lon="13.550998466089368">
        <ele>1095.0799999999999</ele>
        <time>2013-09-08T10:31:34Z</time>
      </trkpt>
      <trkpt lat="42.517679343000054" lon="13.550979774445295">
        <ele>1095.0799999999999</ele>
        <time>2013-09-08T10:31:36Z</time>
      </trkpt>
      <trkpt lat="42.517550261691213" lon="13.550890926271677">
        <ele>1095.0799999999999</ele>
        <time>2013-09-08T10:31:50Z</time>
      </trkpt>
      <trkpt lat="42.517401399090886" lon="13.550801072269678">
        <ele>1095.5599999999999</ele>
        <time>2013-09-08T10:32:06Z</time>
      </trkpt>
      <trkpt lat="42.517333924770355" lon="13.55073913000524">
        <ele>1095.5599999999999</ele>
        <time>2013-09-08T10:32:14Z</time>
      </trkpt>
      <trkpt lat="42.517318753525615" lon="13.550717253237963">
        <ele>1095.5599999999999</ele>
        <time>2013-09-08T10:32:16Z</time>
      </trkpt>
      <trkpt lat="42.517184978350997" lon="13.550588339567184">
        <ele>1095.0799999999999</ele>
        <time>2013-09-08T10:32:31Z</time>
      </trkpt>
      <trkpt lat="42.517060171812773" lon="13.550443081185222">
        <ele>1095.0799999999999</ele>
        <time>2013-09-08T10:32:47Z</time>
      </trkpt>
      <trkpt lat="42.517054053023458" lon="13.550439393147826">
        <ele>1095.0799999999999</ele>
        <time>2013-09-08T10:32:48Z</time>
      </trkpt>
      <trkpt lat="42.517045168206096" lon="13.550418438389897">
        <ele>1095.0799999999999</ele>
        <time>2013-09-08T10:32:50Z</time>
      </trkpt>
      <trkpt lat="42.516991021111608" lon="13.550371918827295">
        <ele>1095.5599999999999</ele>
        <time>2013-09-08T10:32:55Z</time>
      </trkpt>
      <trkpt lat="42.516869064420462" lon="13.550238395109773">
        <ele>1095.5599999999999</ele>
        <time>2013-09-08T10:33:10Z</time>
      </trkpt>
      <trkpt lat="42.516779713332653" lon="13.55005650781095">
        <ele>1095.5599999999999</ele>
        <time>2013-09-08T10:33:25Z</time>
      </trkpt>
      <trkpt lat="42.516723973676562" lon="13.549951566383243">
        <ele>1096.04</ele>
        <time>2013-09-08T10:33:34Z</time>
      </trkpt>
      <trkpt lat="42.516720704734325" lon="13.549939077347517">
        <ele>1095.5599999999999</ele>
        <time>2013-09-08T10:33:35Z</time>
      </trkpt>
      <trkpt lat="42.516701761633158" lon="13.549915859475732">
        <ele>1095.5599999999999</ele>
        <time>2013-09-08T10:33:38Z</time>
      </trkpt>
      <trkpt lat="42.516601430252194" lon="13.549725925549865">
        <ele>1095.5599999999999</ele>
        <time>2013-09-08T10:33:52Z</time>
      </trkpt>
      <trkpt lat="42.516517359763384" lon="13.549631461501122">
        <ele>1096.52</ele>
        <time>2013-09-08T10:34:05Z</time>
      </trkpt>
      <trkpt lat="42.516413759440184" lon="13.549521071836352">
        <ele>1097.48</ele>
        <time>2013-09-08T10:34:21Z</time>
      </trkpt>
      <trkpt lat="42.51630119048059" lon="13.549435744062066">
        <ele>1099.8900000000001</ele>
        <time>2013-09-08T10:34:39Z</time>
      </trkpt>
      <trkpt lat="42.51623765565455" lon="13.549315128475428">
        <ele>1099.8900000000001</ele>
        <time>2013-09-08T10:34:56Z</time>
      </trkpt>
      <trkpt lat="42.516219550743699" lon="13.549268860369921">
        <ele>1103.73</ele>
        <time>2013-09-08T10:35:03Z</time>
      </trkpt>
      <trkpt lat="42.51621519215405" lon="13.549260478466749">
        <ele>1103.73</ele>
        <time>2013-09-08T10:35:04Z</time>
      </trkpt>
      <trkpt lat="42.516122320666909" lon="13.549125613644719">
        <ele>1104.21</ele>
        <time>2013-09-08T10:35:21Z</time>
      </trkpt>
      <trkpt lat="42.516023414209485" lon="13.549020839855075">
        <ele>1106.1300000000001</ele>
        <time>2013-09-08T10:35:37Z</time>
      </trkpt>
      <trkpt lat="42.515941355377436" lon="13.548942301422358">
        <ele>1107.5799999999999</ele>
        <time>2013-09-08T10:35:51Z</time>
      </trkpt>
      <trkpt lat="42.515867846086621" lon="13.548801066353917">
        <ele>1108.54</ele>
        <time>2013-09-08T10:36:03Z</time>
      </trkpt>
      <trkpt lat="42.51586583442986" lon="13.548786481842399">
        <ele>1109.02</ele>
        <time>2013-09-08T10:36:04Z</time>
      </trkpt>
      <trkpt lat="42.515802215784788" lon="13.548639547079802">
        <ele>1108.0599999999999</ele>
        <time>2013-09-08T10:36:18Z</time>
      </trkpt>
      <trkpt lat="42.51570213586092" lon="13.548524295911193">
        <ele>1108.54</ele>
        <time>2013-09-08T10:36:33Z</time>
      </trkpt>
      <trkpt lat="42.515604151412845" lon="13.548448607325554">
        <ele>1110.46</ele>
        <time>2013-09-08T10:36:49Z</time>
      </trkpt>
      <trkpt lat="42.515550842508674" lon="13.548377696424723">
        <ele>1112.3800000000001</ele>
        <time>2013-09-08T10:37:02Z</time>
      </trkpt>
      <trkpt lat="42.515453863888979" lon="13.548238221555948">
        <ele>1114.3099999999999</ele>
        <time>2013-09-08T10:37:17Z</time>
      </trkpt>
      <trkpt lat="42.515372978523374" lon="13.548136129975319">
        <ele>1115.75</ele>
        <time>2013-09-08T10:37:31Z</time>
      </trkpt>
      <trkpt lat="42.515333918854594" lon="13.548079719766974">
        <ele>1116.23</ele>
        <time>2013-09-08T10:37:38Z</time>
      </trkpt>
      <trkpt lat="42.515238951891661" lon="13.547979136928916">
        <ele>1117.1900000000001</ele>
        <time>2013-09-08T10:37:53Z</time>
      </trkpt>
      <trkpt lat="42.515154294669628" lon="13.547847624868155">
        <ele>1118.6300000000001</ele>
        <time>2013-09-08T10:38:07Z</time>
      </trkpt>
      <trkpt lat="42.515055723488331" lon="13.547763638198376">
        <ele>1120.55</ele>
        <time>2013-09-08T10:38:21Z</time>
      </trkpt>
      <trkpt lat="42.514947094023228" lon="13.547669425606728">
        <ele>1122</ele>
        <time>2013-09-08T10:38:35Z</time>
      </trkpt>
      <trkpt lat="42.514852546155453" lon="13.547557694837451">
        <ele>1122.96</ele>
        <time>2013-09-08T10:38:48Z</time>
      </trkpt>
      <trkpt lat="42.514748694375157" lon="13.54748678393662">
        <ele>1124.4000000000001</ele>
        <time>2013-09-08T10:39:02Z</time>
      </trkpt>
      <trkpt lat="42.514656577259302" lon="13.547400282695889">
        <ele>1125.8399999999999</ele>
        <time>2013-09-08T10:39:15Z</time>
      </trkpt>
      <trkpt lat="42.514603100717068" lon="13.547348231077194">
        <ele>1127.28</ele>
        <time>2013-09-08T10:39:29Z</time>
      </trkpt>
      <trkpt lat="42.514517605304718" lon="13.547280840575695">
        <ele>1129.21</ele>
        <time>2013-09-08T10:39:42Z</time>
      </trkpt>
      <trkpt lat="42.514410065487027" lon="13.547188388183713">
        <ele>1131.1300000000001</ele>
        <time>2013-09-08T10:39:59Z</time>
      </trkpt>
      <trkpt lat="42.514328761026263" lon="13.547067353501916">
        <ele>1133.05</ele>
        <time>2013-09-08T10:40:13Z</time>
      </trkpt>
      <trkpt lat="42.514183921739459" lon="13.547024773433805">
        <ele>1135.45</ele>
        <time>2013-09-08T10:40:30Z</time>
      </trkpt>
      <trkpt lat="42.514083087444305" lon="13.546915808692575">
        <ele>1136.9000000000001</ele>
        <time>2013-09-08T10:40:44Z</time>
      </trkpt>
      <trkpt lat="42.513999855145812" lon="13.546854956075549">
        <ele>1137.3800000000001</ele>
        <time>2013-09-08T10:40:53Z</time>
      </trkpt>
      <trkpt lat="42.513944115489721" lon="13.54679292999208">
        <ele>1137.3800000000001</ele>
        <time>2013-09-08T10:41:01Z</time>
      </trkpt>
      <trkpt lat="42.513807574287057" lon="13.54671229608357">
        <ele>1138.8199999999999</ele>
        <time>2013-09-08T10:41:16Z</time>
      </trkpt>
      <trkpt lat="42.513691736385226" lon="13.546628812327981">
        <ele>1140.26</ele>
        <time>2013-09-08T10:41:31Z</time>
      </trkpt>
      <trkpt lat="42.513594841584563" lon="13.546540047973394">
        <ele>1140.74</ele>
        <time>2013-09-08T10:41:44Z</time>
      </trkpt>
      <trkpt lat="42.513488559052348" lon="13.546437118202448">
        <ele>1141.22</ele>
        <time>2013-09-08T10:41:57Z</time>
      </trkpt>
      <trkpt lat="42.513477578759193" lon="13.546432089060545">
        <ele>1141.22</ele>
        <time>2013-09-08T10:41:58Z</time>
      </trkpt>
      <trkpt lat="42.513354197144508" lon="13.546324381604791">
        <ele>1140.74</ele>
        <time>2013-09-08T10:42:13Z</time>
      </trkpt>
      <trkpt lat="42.513253781944513" lon="13.546252297237515">
        <ele>1140.74</ele>
        <time>2013-09-08T10:42:25Z</time>
      </trkpt>
      <trkpt lat="42.513198377564549" lon="13.546221368014812">
        <ele>1141.22</ele>
        <time>2013-09-08T10:42:32Z</time>
      </trkpt>
      <trkpt lat="42.513111205771565" lon="13.546118019148707">
        <ele>1141.7</ele>
        <time>2013-09-08T10:42:47Z</time>
      </trkpt>
      <trkpt lat="42.513055047020316" lon="13.54605951346457">
        <ele>1142.1800000000001</ele>
        <time>2013-09-08T10:43:00Z</time>
      </trkpt>
      <trkpt lat="42.512994613498449" lon="13.546042162925005">
        <ele>1143.1400000000001</ele>
        <time>2013-09-08T10:43:08Z</time>
      </trkpt>
      <trkpt lat="42.512699738144875" lon="13.545993296429515">
        <ele>1143.1400000000001</ele>
        <time>2013-09-08T10:43:22Z</time>
      </trkpt>
      <trkpt lat="42.51284658908844" lon="13.545937808230519">
        <ele>1143.6300000000001</ele>
        <time>2013-09-08T10:43:30Z</time>
      </trkpt>
      <trkpt lat="42.512867208570242" lon="13.545917943120003">
        <ele>1143.6300000000001</ele>
        <time>2013-09-08T10:43:38Z</time>
      </trkpt>
      <trkpt lat="42.512782467529178" lon="13.545813420787454">
        <ele>1144.5899999999999</ele>
        <time>2013-09-08T10:43:53Z</time>
      </trkpt>
      <trkpt lat="42.512839045375586" lon="13.545883912593126">
        <ele>1143.6300000000001</ele>
        <time>2013-09-08T10:44:06Z</time>
      </trkpt>
      <trkpt lat="42.512851282954216" lon="13.545918865129352">
        <ele>1145.55</ele>
        <time>2013-09-08T10:44:19Z</time>
      </trkpt>
      <trkpt lat="42.512790430337191" lon="13.545962367206812">
        <ele>1146.51</ele>
        <time>2013-09-08T10:44:28Z</time>
      </trkpt>
      <trkpt lat="42.512756735086441" lon="13.545944429934025">
        <ele>1146.99</ele>
        <time>2013-09-08T10:44:32Z</time>
      </trkpt>
      <trkpt lat="42.51267115585506" lon="13.545843595638871">
        <ele>1147.47</ele>
        <time>2013-09-08T10:44:45Z</time>
      </trkpt>
      <trkpt lat="42.512577697634697" lon="13.54575214907527">
        <ele>1147.95</ele>
        <time>2013-09-08T10:45:00Z</time>
      </trkpt>
      <trkpt lat="42.512488681823015" lon="13.545689284801483">
        <ele>1150.8399999999999</ele>
        <time>2013-09-08T10:45:14Z</time>
      </trkpt>
      <trkpt lat="42.512344429269433" lon="13.545605130493641">
        <ele>1151.8</ele>
        <time>2013-09-08T10:45:29Z</time>
      </trkpt>
      <trkpt lat="42.512262035161257" lon="13.54557529091835">
        <ele>1153.72</ele>
        <time>2013-09-08T10:45:43Z</time>
      </trkpt>
      <trkpt lat="42.512177210301161" lon="13.545524748042226">
        <ele>1156.5999999999999</ele>
        <time>2013-09-08T10:45:58Z</time>
      </trkpt>
      <trkpt lat="42.51208090223372" lon="13.545476133003831">
        <ele>1157.5599999999999</ele>
        <time>2013-09-08T10:46:11Z</time>
      </trkpt>
      <trkpt lat="42.511946456506848" lon="13.545418549329042">
        <ele>1159.01</ele>
        <time>2013-09-08T10:46:26Z</time>
      </trkpt>
      <trkpt lat="42.511829361319542" lon="13.545368928462267">
        <ele>1160.9300000000001</ele>
        <time>2013-09-08T10:46:41Z</time>
      </trkpt>
      <trkpt lat="42.511756354942918" lon="13.545262310653925">
        <ele>1160.9300000000001</ele>
        <time>2013-09-08T10:46:56Z</time>
      </trkpt>
      <trkpt lat="42.511726683005691" lon="13.545216377824545">
        <ele>1161.4100000000001</ele>
        <time>2013-09-08T10:47:12Z</time>
      </trkpt>
      <trkpt lat="42.511630542576313" lon="13.545157201588154">
        <ele>1162.3699999999999</ele>
        <time>2013-09-08T10:47:35Z</time>
      </trkpt>
      <trkpt lat="42.511527864262462" lon="13.545141192153096">
        <ele>1162.8499999999999</ele>
        <time>2013-09-08T10:47:48Z</time>
      </trkpt>
      <trkpt lat="42.511425269767642" lon="13.545062905177474">
        <ele>1163.3299999999999</ele>
        <time>2013-09-08T10:48:01Z</time>
      </trkpt>
      <trkpt lat="42.511403895914555" lon="13.545054020360112">
        <ele>1163.3299999999999</ele>
        <time>2013-09-08T10:48:03Z</time>
      </trkpt>
      <trkpt lat="42.511280430480838" lon="13.545034909620881">
        <ele>1164.77</ele>
        <time>2013-09-08T10:48:16Z</time>
      </trkpt>
      <trkpt lat="42.51121312379837" lon="13.544999454170465">
        <ele>1165.74</ele>
        <time>2013-09-08T10:48:24Z</time>
      </trkpt>
      <trkpt lat="42.511074068024755" lon="13.544973051175475">
        <ele>1166.22</ele>
        <time>2013-09-08T10:48:39Z</time>
      </trkpt>
      <trkpt lat="42.510954877361655" lon="13.544909935444593">
        <ele>1166.7</ele>
        <time>2013-09-08T10:48:52Z</time>
      </trkpt>
      <trkpt lat="42.510839961469173" lon="13.544796276837587">
        <ele>1168.1400000000001</ele>
        <time>2013-09-08T10:49:08Z</time>
      </trkpt>
      <trkpt lat="42.510675508528948" lon="13.544715978205204">
        <ele>1168.1400000000001</ele>
        <time>2013-09-08T10:49:25Z</time>
      </trkpt>
      <trkpt lat="42.510556820780039" lon="13.544663172215223">
        <ele>1169.5799999999999</ele>
        <time>2013-09-08T10:49:38Z</time>
      </trkpt>
      <trkpt lat="42.510441401973367" lon="13.544579772278666">
        <ele>1170.54</ele>
        <time>2013-09-08T10:49:53Z</time>
      </trkpt>
      <trkpt lat="42.510344088077545" lon="13.544521685689688">
        <ele>1170.54</ele>
        <time>2013-09-08T10:50:07Z</time>
      </trkpt>
      <trkpt lat="42.510237386450171" lon="13.544502491131425">
        <ele>1171.5</ele>
        <time>2013-09-08T10:50:22Z</time>
      </trkpt>
      <trkpt lat="42.510121548548341" lon="13.544514309614897">
        <ele>1171.98</ele>
        <time>2013-09-08T10:50:37Z</time>
      </trkpt>
      <trkpt lat="42.510033454746008" lon="13.544513303786516">
        <ele>1173.4300000000001</ele>
        <time>2013-09-08T10:50:52Z</time>
      </trkpt>
      <trkpt lat="42.509924825280905" lon="13.544487152248621">
        <ele>1173.4300000000001</ele>
        <time>2013-09-08T10:51:05Z</time>
      </trkpt>
      <trkpt lat="42.509805299341679" lon="13.544442895799875">
        <ele>1175.3499999999999</ele>
        <time>2013-09-08T10:51:21Z</time>
      </trkpt>
      <trkpt lat="42.50967881642282" lon="13.544425126165152">
        <ele>1175.8299999999999</ele>
        <time>2013-09-08T10:51:37Z</time>
      </trkpt>
      <trkpt lat="42.509556021541357" lon="13.54437324218452">
        <ele>1176.79</ele>
        <time>2013-09-08T10:51:51Z</time>
      </trkpt>
      <trkpt lat="42.509461054578424" lon="13.544307108968496">
        <ele>1178.23</ele>
        <time>2013-09-08T10:52:06Z</time>
      </trkpt>
      <trkpt lat="42.509355442598462" lon="13.544256817549467">
        <ele>1177.75</ele>
        <time>2013-09-08T10:52:17Z</time>
      </trkpt>
      <trkpt lat="42.509212614968419" lon="13.544184481725097">
        <ele>1176.79</ele>
        <time>2013-09-08T10:52:33Z</time>
      </trkpt>
      <trkpt lat="42.509099123999476" lon="13.54411038570106">
        <ele>1175.3499999999999</ele>
        <time>2013-09-08T10:52:47Z</time>
      </trkpt>
      <trkpt lat="42.508976580575109" lon="13.544091107323766">
        <ele>1175.3499999999999</ele>
        <time>2013-09-08T10:53:00Z</time>
      </trkpt>
      <trkpt lat="42.508970545604825" lon="13.544087922200561">
        <ele>1174.8699999999999</ele>
        <time>2013-09-08T10:53:01Z</time>
      </trkpt>
      <trkpt lat="42.508895024657249" lon="13.544081803411245">
        <ele>1174.3900000000001</ele>
        <time>2013-09-08T10:53:10Z</time>
      </trkpt>
      <trkpt lat="42.508777258917689" lon="13.544112732633948">
        <ele>1174.8699999999999</ele>
        <time>2013-09-08T10:53:25Z</time>
      </trkpt>
      <trkpt lat="42.508660247549415" lon="13.544071493670344">
        <ele>1174.3900000000001</ele>
        <time>2013-09-08T10:53:40Z</time>
      </trkpt>
      <trkpt lat="42.508511720225215" lon="13.544042408466339">
        <ele>1173.4300000000001</ele>
        <time>2013-09-08T10:53:54Z</time>
      </trkpt>
      <trkpt lat="42.508359085768461" lon="13.54401751421392">
        <ele>1174.8699999999999</ele>
        <time>2013-09-08T10:54:13Z</time>
      </trkpt>
      <trkpt lat="42.508253557607532" lon="13.543983651325107">
        <ele>1175.8299999999999</ele>
        <time>2013-09-08T10:54:28Z</time>
      </trkpt>
      <trkpt lat="42.508134115487337" lon="13.543976778164506">
        <ele>1175.8299999999999</ele>
        <time>2013-09-08T10:54:40Z</time>
      </trkpt>
      <trkpt lat="42.508127996698022" lon="13.543975772336125">
        <ele>1176.3099999999999</ele>
        <time>2013-09-08T10:54:41Z</time>
      </trkpt>
      <trkpt lat="42.508000340312719" lon="13.543968312442303">
        <ele>1176.3099999999999</ele>
        <time>2013-09-08T10:54:56Z</time>
      </trkpt>
      <trkpt lat="42.507887352257967" lon="13.543944843113422">
        <ele>1177.27</ele>
        <time>2013-09-08T10:55:09Z</time>
      </trkpt>
      <trkpt lat="42.507758941501379" lon="13.543939813971519">
        <ele>1177.75</ele>
        <time>2013-09-08T10:55:26Z</time>
      </trkpt>
      <trkpt lat="42.507634637877345" lon="13.543962109833956">
        <ele>1178.23</ele>
        <time>2013-09-08T10:55:41Z</time>
      </trkpt>
      <trkpt lat="42.507581915706396" lon="13.543935371562839">
        <ele>1177.75</ele>
        <time>2013-09-08T10:55:52Z</time>
      </trkpt>
      <trkpt lat="42.507488541305065" lon="13.543954398483038">
        <ele>1179.1900000000001</ele>
        <time>2013-09-08T10:56:04Z</time>
      </trkpt>
      <trkpt lat="42.507394580170512" lon="13.543929923325777">
        <ele>1179.1900000000001</ele>
        <time>2013-09-08T10:56:17Z</time>
      </trkpt>
      <trkpt lat="42.507269186899066" lon="13.543902598321438">
        <ele>1179.1900000000001</ele>
        <time>2013-09-08T10:56:29Z</time>
      </trkpt>
      <trkpt lat="42.507156198844314" lon="13.543899161741138">
        <ele>1179.6700000000001</ele>
        <time>2013-09-08T10:56:43Z</time>
      </trkpt>
      <trkpt lat="42.507031392306089" lon="13.543881895020604">
        <ele>1180.1600000000001</ele>
        <time>2013-09-08T10:56:56Z</time>
      </trkpt>
      <trkpt lat="42.506911363452673" lon="13.543856665492058">
        <ele>1180.1600000000001</ele>
        <time>2013-09-08T10:57:10Z</time>
      </trkpt>
      <trkpt lat="42.506772726774216" lon="13.543851468712091">
        <ele>1180.1600000000001</ele>
        <time>2013-09-08T10:57:25Z</time>
      </trkpt>
      <trkpt lat="42.506636939942837" lon="13.543823473155499">
        <ele>1179.6700000000001</ele>
        <time>2013-09-08T10:57:38Z</time>
      </trkpt>
      <trkpt lat="42.506457567214966" lon="13.543809894472361">
        <ele>1179.6700000000001</ele>
        <time>2013-09-08T10:57:55Z</time>
      </trkpt>
      <trkpt lat="42.506342651322484" lon="13.543807966634631">
        <ele>1180.1600000000001</ele>
        <time>2013-09-08T10:58:08Z</time>
      </trkpt>
      <trkpt lat="42.506222622469068" lon="13.543794304132462">
        <ele>1179.6700000000001</ele>
        <time>2013-09-08T10:58:22Z</time>
      </trkpt>
      <trkpt lat="42.506079794839025" lon="13.543789191171527">
        <ele>1179.6700000000001</ele>
        <time>2013-09-08T10:58:36Z</time>
      </trkpt>
      <trkpt lat="42.50597208738327" lon="13.543775361031294">
        <ele>1179.6700000000001</ele>
        <time>2013-09-08T10:58:49Z</time>
      </trkpt>
      <trkpt lat="42.505888603627682" lon="13.543767314404249">
        <ele>1179.6700000000001</ele>
        <time>2013-09-08T10:59:01Z</time>
      </trkpt>
      <trkpt lat="42.505763629451394" lon="13.543793465942144">
        <ele>1179.1900000000001</ele>
        <time>2013-09-08T10:59:15Z</time>
      </trkpt>
      <trkpt lat="42.505635973066092" lon="13.543741498142481">
        <ele>1178.71</ele>
        <time>2013-09-08T10:59:29Z</time>
      </trkpt>
      <trkpt lat="42.505564978346229" lon="13.543741749599576">
        <ele>1178.23</ele>
        <time>2013-09-08T10:59:36Z</time>
      </trkpt>
      <trkpt lat="42.505516447126865" lon="13.543735463172197">
        <ele>1177.75</ele>
        <time>2013-09-08T10:59:40Z</time>
      </trkpt>
      <trkpt lat="42.505353586748242" lon="13.543701181188226">
        <ele>1177.75</ele>
        <time>2013-09-08T10:59:56Z</time>
      </trkpt>
      <trkpt lat="42.505217548459768" lon="13.543655415996909">
        <ele>1178.23</ele>
        <time>2013-09-08T11:00:11Z</time>
      </trkpt>
      <trkpt lat="42.505139093846083" lon="13.543666731566191">
        <ele>1178.23</ele>
        <time>2013-09-08T11:00:24Z</time>
      </trkpt>
      <trkpt lat="42.505118642002344" lon="13.543663211166859">
        <ele>1177.75</ele>
        <time>2013-09-08T11:00:26Z</time>
      </trkpt>
      <trkpt lat="42.504978999495506" lon="13.543680058792233">
        <ele>1177.75</ele>
        <time>2013-09-08T11:00:40Z</time>
      </trkpt>
      <trkpt lat="42.504902221262455" lon="13.543701348826289">
        <ele>1177.75</ele>
        <time>2013-09-08T11:00:51Z</time>
      </trkpt>
      <trkpt lat="42.504745731130242" lon="13.543680142611265">
        <ele>1178.71</ele>
        <time>2013-09-08T11:01:06Z</time>
      </trkpt>
      <trkpt lat="42.504666354507208" lon="13.543686848133802">
        <ele>1179.6700000000001</ele>
        <time>2013-09-08T11:01:18Z</time>
      </trkpt>
      <trkpt lat="42.504529226571321" lon="13.543688608333468">
        <ele>1181.1199999999999</ele>
        <time>2013-09-08T11:01:31Z</time>
      </trkpt>
      <trkpt lat="42.504403162747622" lon="13.543670000508428">
        <ele>1182.0799999999999</ele>
        <time>2013-09-08T11:01:45Z</time>
      </trkpt>
      <trkpt lat="42.504396541044116" lon="13.543665474280715">
        <ele>1182.0799999999999</ele>
        <time>2013-09-08T11:01:46Z</time>
      </trkpt>
      <trkpt lat="42.504288833588362" lon="13.543626330792904">
        <ele>1183.04</ele>
        <time>2013-09-08T11:02:01Z</time>
      </trkpt>
      <trkpt lat="42.504184562712908" lon="13.543602526187897">
        <ele>1183.52</ele>
        <time>2013-09-08T11:02:13Z</time>
      </trkpt>
      <trkpt lat="42.50410602428019" lon="13.543603280559182">
        <ele>1184.48</ele>
        <time>2013-09-08T11:02:25Z</time>
      </trkpt>
      <trkpt lat="42.503975182771683" lon="13.543623648583889">
        <ele>1185.4400000000001</ele>
        <time>2013-09-08T11:02:41Z</time>
      </trkpt>
      <trkpt lat="42.503893375396729" lon="13.543614679947495">
        <ele>1184.96</ele>
        <time>2013-09-08T11:02:50Z</time>
      </trkpt>
      <trkpt lat="42.503829337656498" lon="13.543622056022286">
        <ele>1185.4400000000001</ele>
        <time>2013-09-08T11:02:55Z</time>
      </trkpt>
      <trkpt lat="42.503738813102245" lon="13.543607052415609">
        <ele>1185.4400000000001</ele>
        <time>2013-09-08T11:03:06Z</time>
      </trkpt>
      <trkpt lat="42.503694975748658" lon="13.543610153719783">
        <ele>1185.9200000000001</ele>
        <time>2013-09-08T11:03:10Z</time>
      </trkpt>
      <trkpt lat="42.503561954945326" lon="13.543550809845328">
        <ele>1185.9200000000001</ele>
        <time>2013-09-08T11:03:24Z</time>
      </trkpt>
      <trkpt lat="42.50345466658473" lon="13.543558521196246">
        <ele>1186.8800000000001</ele>
        <time>2013-09-08T11:03:37Z</time>
      </trkpt>
      <trkpt lat="42.503401860594749" lon="13.543656757101417">
        <ele>1187.8499999999999</ele>
        <time>2013-09-08T11:03:50Z</time>
      </trkpt>
      <trkpt lat="42.503379313275218" lon="13.543682405725121">
        <ele>1188.8099999999999</ele>
        <time>2013-09-08T11:04:03Z</time>
      </trkpt>
      <trkpt lat="42.503297254443169" lon="13.543616943061352">
        <ele>1189.29</ele>
        <time>2013-09-08T11:04:18Z</time>
      </trkpt>
      <trkpt lat="42.503232210874557" lon="13.543606633320451">
        <ele>1189.77</ele>
        <time>2013-09-08T11:04:30Z</time>
      </trkpt>
      <trkpt lat="42.50314244069159" lon="13.543563969433308">
        <ele>1189.77</ele>
        <time>2013-09-08T11:04:43Z</time>
      </trkpt>
      <trkpt lat="42.503065578639507" lon="13.543566819280386">
        <ele>1189.77</ele>
        <time>2013-09-08T11:04:56Z</time>
      </trkpt>
      <trkpt lat="42.502961559221148" lon="13.54358316399157">
        <ele>1190.25</ele>
        <time>2013-09-08T11:05:09Z</time>
      </trkpt>
      <trkpt lat="42.502855779603124" lon="13.54355382733047">
        <ele>1190.25</ele>
        <time>2013-09-08T11:05:21Z</time>
      </trkpt>
      <trkpt lat="42.502760728821158" lon="13.543465984985232">
        <ele>1191.21</ele>
        <time>2013-09-08T11:05:34Z</time>
      </trkpt>
      <trkpt lat="42.502754023298621" lon="13.543462548404932">
        <ele>1191.21</ele>
        <time>2013-09-08T11:05:35Z</time>
      </trkpt>
      <trkpt lat="42.502661570906639" lon="13.543379232287407">
        <ele>1191.6900000000001</ele>
        <time>2013-09-08T11:05:49Z</time>
      </trkpt>
      <trkpt lat="42.502556126564741" lon="13.543372191488743">
        <ele>1192.6500000000001</ele>
        <time>2013-09-08T11:06:02Z</time>
      </trkpt>
      <trkpt lat="42.502484545111656" lon="13.543399767950177">
        <ele>1193.6099999999999</ele>
        <time>2013-09-08T11:06:13Z</time>
      </trkpt>
      <trkpt lat="42.502423105761409" lon="13.543426925316453">
        <ele>1194.0899999999999</ele>
        <time>2013-09-08T11:06:25Z</time>
      </trkpt>
      <trkpt lat="42.502344902604818" lon="13.543445197865367">
        <ele>1194.5799999999999</ele>
        <time>2013-09-08T11:06:38Z</time>
      </trkpt>
      <trkpt lat="42.502257227897644" lon="13.543537314981222">
        <ele>1195.54</ele>
        <time>2013-09-08T11:06:51Z</time>
      </trkpt>
      <trkpt lat="42.502170307561755" lon="13.543588863685727">
        <ele>1196.98</ele>
        <time>2013-09-08T11:07:04Z</time>
      </trkpt>
      <trkpt lat="42.502052709460258" lon="13.543594311922789">
        <ele>1198.4200000000001</ele>
        <time>2013-09-08T11:07:18Z</time>
      </trkpt>
      <trkpt lat="42.501937290653586" lon="13.543599173426628">
        <ele>1200.3399999999999</ele>
        <time>2013-09-08T11:07:33Z</time>
      </trkpt>
      <trkpt lat="42.501819357275963" lon="13.54361392557621">
        <ele>1200.8199999999999</ele>
        <time>2013-09-08T11:07:47Z</time>
      </trkpt>
      <trkpt lat="42.501734867691994" lon="13.543629013001919">
        <ele>1200.8199999999999</ele>
        <time>2013-09-08T11:07:59Z</time>
      </trkpt>
      <trkpt lat="42.501621125265956" lon="13.543658936396241">
        <ele>1200.8199999999999</ele>
        <time>2013-09-08T11:08:13Z</time>
      </trkpt>
      <trkpt lat="42.501540323719382" lon="13.543748874217272">
        <ele>1201.3</ele>
        <time>2013-09-08T11:08:28Z</time>
      </trkpt>
      <trkpt lat="42.501457342877984" lon="13.543786508962512">
        <ele>1202.27</ele>
        <time>2013-09-08T11:08:40Z</time>
      </trkpt>
      <trkpt lat="42.501268666237593" lon="13.543748455122113">
        <ele>1201.3</ele>
        <time>2013-09-08T11:08:56Z</time>
      </trkpt>
      <trkpt lat="42.501238407567143" lon="13.543746611103415">
        <ele>1202.75</ele>
        <time>2013-09-08T11:09:00Z</time>
      </trkpt>
      <trkpt lat="42.501154337078333" lon="13.543758513405919">
        <ele>1204.1900000000001</ele>
        <time>2013-09-08T11:09:14Z</time>
      </trkpt>
      <trkpt lat="42.501049395650625" lon="13.543761866167188">
        <ele>1205.6300000000001</ele>
        <time>2013-09-08T11:09:29Z</time>
      </trkpt>
      <trkpt lat="42.500991309061646" lon="13.543708557263017">
        <ele>1206.1099999999999</ele>
        <time>2013-09-08T11:09:40Z</time>
      </trkpt>
      <trkpt lat="42.500886032357812" lon="13.543643094599247">
        <ele>1208.03</ele>
        <time>2013-09-08T11:09:55Z</time>
      </trkpt>
      <trkpt lat="42.500790227204561" lon="13.543625492602587">
        <ele>1208.51</ele>
        <time>2013-09-08T11:10:08Z</time>
      </trkpt>
      <trkpt lat="42.500677574425936" lon="13.543605208396912">
        <ele>1210.4400000000001</ele>
        <time>2013-09-08T11:10:22Z</time>
      </trkpt>
      <trkpt lat="42.500548744574189" lon="13.54358802549541">
        <ele>1211.4000000000001</ele>
        <time>2013-09-08T11:10:37Z</time>
      </trkpt>
      <trkpt lat="42.500457465648651" lon="13.543543266132474">
        <ele>1211.8800000000001</ele>
        <time>2013-09-08T11:10:50Z</time>
      </trkpt>
      <trkpt lat="42.500389320775867" lon="13.543555838987231">
        <ele>1211.8800000000001</ele>
        <time>2013-09-08T11:10:55Z</time>
      </trkpt>
      <trkpt lat="42.500284044072032" lon="13.543524909764528">
        <ele>1211.8800000000001</ele>
        <time>2013-09-08T11:11:06Z</time>
      </trkpt>
      <trkpt lat="42.500221095979214" lon="13.54349615983665">
        <ele>1212.3599999999999</ele>
        <time>2013-09-08T11:11:14Z</time>
      </trkpt>
      <trkpt lat="42.500140378251672" lon="13.54345265775919">
        <ele>1212.3599999999999</ele>
        <time>2013-09-08T11:11:22Z</time>
      </trkpt>
      <trkpt lat="42.500104838982224" lon="13.543433379381895">
        <ele>1212.3599999999999</ele>
        <time>2013-09-08T11:11:25Z</time>
      </trkpt>
      <trkpt lat="42.500089500099421" lon="13.543434301391244">
        <ele>1211.8800000000001</ele>
        <time>2013-09-08T11:11:26Z</time>
      </trkpt>
      <trkpt lat="42.500077597796917" lon="13.543430278077722">
        <ele>1211.8800000000001</ele>
        <time>2013-09-08T11:11:27Z</time>
      </trkpt>
      <trkpt lat="42.500004759058356" lon="13.54343120008707">
        <ele>1211.8800000000001</ele>
        <time>2013-09-08T11:11:34Z</time>
      </trkpt>
      <trkpt lat="42.499894453212619" lon="13.543430278077722">
        <ele>1212.8399999999999</ele>
        <time>2013-09-08T11:11:48Z</time>
      </trkpt>
      <trkpt lat="42.499805856496096" lon="13.543456178158522">
        <ele>1213.8</ele>
        <time>2013-09-08T11:12:02Z</time>
      </trkpt>
      <trkpt lat="42.499755062162876" lon="13.543485095724463">
        <ele>1215.72</ele>
        <time>2013-09-08T11:12:16Z</time>
      </trkpt>
      <trkpt lat="42.49965263530612" lon="13.543539578095078">
        <ele>1217.6500000000001</ele>
        <time>2013-09-08T11:12:30Z</time>
      </trkpt>
      <trkpt lat="42.499472089111805" lon="13.543527005240321">
        <ele>1217.1700000000001</ele>
        <time>2013-09-08T11:12:45Z</time>
      </trkpt>
      <trkpt lat="42.499342169612646" lon="13.543544858694077">
        <ele>1217.1700000000001</ele>
        <time>2013-09-08T11:12:58Z</time>
      </trkpt>
      <trkpt lat="42.499265391379595" lon="13.543518874794245">
        <ele>1216.21</ele>
        <time>2013-09-08T11:13:09Z</time>
      </trkpt>
      <trkpt lat="42.499137399718165" lon="13.543507726863027">
        <ele>1216.21</ele>
        <time>2013-09-08T11:13:23Z</time>
      </trkpt>
      <trkpt lat="42.499037571251392" lon="13.543517533689737">
        <ele>1216.6900000000001</ele>
        <time>2013-09-08T11:13:34Z</time>
      </trkpt>
      <trkpt lat="42.498920811340213" lon="13.543499931693077">
        <ele>1216.6900000000001</ele>
        <time>2013-09-08T11:13:47Z</time>
      </trkpt>
      <trkpt lat="42.498776391148567" lon="13.543498087674379">
        <ele>1216.6900000000001</ele>
        <time>2013-09-08T11:14:03Z</time>
      </trkpt>
      <trkpt lat="42.498575141653419" lon="13.543412676081061">
        <ele>1217.1700000000001</ele>
        <time>2013-09-08T11:14:17Z</time>
      </trkpt>
      <trkpt lat="42.498548571020365" lon="13.543449221178889">
        <ele>1217.6500000000001</ele>
        <time>2013-09-08T11:14:31Z</time>
      </trkpt>
      <trkpt lat="42.498564328998327" lon="13.543443102389574">
        <ele>1217.6500000000001</ele>
        <time>2013-09-08T11:14:45Z</time>
      </trkpt>
      <trkpt lat="42.498574303463101" lon="13.54343949817121">
        <ele>1217.1700000000001</ele>
        <time>2013-09-08T11:15:02Z</time>
      </trkpt>
      <trkpt lat="42.498474894091487" lon="13.543438659980893">
        <ele>1217.1700000000001</ele>
        <time>2013-09-08T11:15:34Z</time>
      </trkpt>
      <trkpt lat="42.498620403930545" lon="13.543424997478724">
        <ele>1217.1700000000001</ele>
        <time>2013-09-08T11:16:03Z</time>
      </trkpt>
      <trkpt lat="42.498640604317188" lon="13.543413514271379">
        <ele>1217.6500000000001</ele>
        <time>2013-09-08T11:16:41Z</time>
      </trkpt>
      <trkpt lat="42.498624008148909" lon="13.543404377996922">
        <ele>1217.6500000000001</ele>
        <time>2013-09-08T11:17:07Z</time>
      </trkpt>
      <trkpt lat="42.498616548255086" lon="13.543354757130146">
        <ele>1217.1700000000001</ele>
        <time>2013-09-08T11:17:37Z</time>
      </trkpt>
      <trkpt lat="42.498490484431386" lon="13.54344729334116">
        <ele>1218.1300000000001</ele>
        <time>2013-09-08T11:18:03Z</time>
      </trkpt>
      <trkpt lat="42.49850925989449" lon="13.543473612517118">
        <ele>1218.6099999999999</ele>
        <time>2013-09-08T11:18:21Z</time>
      </trkpt>
      <trkpt lat="42.498469781130552" lon="13.543463386595249">
        <ele>1218.6099999999999</ele>
        <time>2013-09-08T11:18:47Z</time>
      </trkpt>
      <trkpt lat="42.498506996780634" lon="13.543414939194918">
        <ele>1218.6099999999999</ele>
        <time>2013-09-08T11:19:07Z</time>
      </trkpt>
      <trkpt lat="42.498528705909848" lon="13.54343019425869">
        <ele>1219.0899999999999</ele>
        <time>2013-09-08T11:19:37Z</time>
      </trkpt>
      <trkpt lat="42.498529460281134" lon="13.543383087962866">
        <ele>1219.0899999999999</ele>
        <time>2013-09-08T11:20:01Z</time>
      </trkpt>
      <trkpt lat="42.498527700081468" lon="13.543408820405602">
        <ele>1219.0899999999999</ele>
        <time>2013-09-08T11:20:27Z</time>
      </trkpt>
      <trkpt lat="42.498500542715192" lon="13.543464643880725">
        <ele>1219.0899999999999</ele>
        <time>2013-09-08T11:20:52Z</time>
      </trkpt>
      <trkpt lat="42.498437762260437" lon="13.543481240049005">
        <ele>1219.5699999999999</ele>
        <time>2013-09-08T11:21:20Z</time>
      </trkpt>
      <trkpt lat="42.498429464176297" lon="13.543442348018289">
        <ele>1220.05</ele>
        <time>2013-09-08T11:21:43Z</time>
      </trkpt>
      <trkpt lat="42.498442623764277" lon="13.543369844555855">
        <ele>1220.05</ele>
        <time>2013-09-08T11:22:05Z</time>
      </trkpt>
      <trkpt lat="42.498411862179637" lon="13.54335249401629">
        <ele>1220.53</ele>
        <time>2013-09-08T11:22:23Z</time>
      </trkpt>
      <trkpt lat="42.498400462791324" lon="13.543369676917791">
        <ele>1220.53</ele>
        <time>2013-09-08T11:22:42Z</time>
      </trkpt>
      <trkpt lat="42.498372048139572" lon="13.543364396318793">
        <ele>1220.53</ele>
        <time>2013-09-08T11:22:45Z</time>
      </trkpt>
      <trkpt lat="42.498257718980312" lon="13.543391805142164">
        <ele>1221.49</ele>
        <time>2013-09-08T11:23:00Z</time>
      </trkpt>
      <trkpt lat="42.498230645433068" lon="13.54340530000627">
        <ele>1221.49</ele>
        <time>2013-09-08T11:23:16Z</time>
      </trkpt>
      <trkpt lat="42.498217653483152" lon="13.54346732608974">
        <ele>1222.9300000000001</ele>
        <time>2013-09-08T11:23:36Z</time>
      </trkpt>
      <trkpt lat="42.498128470033407" lon="13.543408652767539">
        <ele>1222.9300000000001</ele>
        <time>2013-09-08T11:23:48Z</time>
      </trkpt>
      <trkpt lat="42.498099720105529" lon="13.543426841497421">
        <ele>1222.9300000000001</ele>
        <time>2013-09-08T11:23:55Z</time>
      </trkpt>
      <trkpt lat="42.498027803376317" lon="13.543457100167871">
        <ele>1224.3800000000001</ele>
        <time>2013-09-08T11:24:11Z</time>
      </trkpt>
      <trkpt lat="42.497939793393016" lon="13.54349272325635">
        <ele>1225.3399999999999</ele>
        <time>2013-09-08T11:24:25Z</time>
      </trkpt>
      <trkpt lat="42.497832421213388" lon="13.543501608073711">
        <ele>1226.3</ele>
        <time>2013-09-08T11:24:41Z</time>
      </trkpt>
      <trkpt lat="42.497715996578336" lon="13.543482162058353">
        <ele>1227.26</ele>
        <time>2013-09-08T11:24:55Z</time>
      </trkpt>
      <trkpt lat="42.497611390426755" lon="13.543455423787236">
        <ele>1228.22</ele>
        <time>2013-09-08T11:25:10Z</time>
      </trkpt>
      <trkpt lat="42.497531594708562" lon="13.54346833191812">
        <ele>1229.6600000000001</ele>
        <time>2013-09-08T11:25:25Z</time>
      </trkpt>
      <trkpt lat="42.497509215027094" lon="13.543491465970874">
        <ele>1229.6600000000001</ele>
        <time>2013-09-08T11:25:28Z</time>
      </trkpt>
      <trkpt lat="42.497389605268836" lon="13.543563717976213">
        <ele>1231.5899999999999</ele>
        <time>2013-09-08T11:25:41Z</time>
      </trkpt>
      <trkpt lat="42.497346773743629" lon="13.543644268065691">
        <ele>1233.03</ele>
        <time>2013-09-08T11:25:54Z</time>
      </trkpt>
      <trkpt lat="42.497287010774016" lon="13.543674107640982">
        <ele>1234.47</ele>
        <time>2013-09-08T11:26:08Z</time>
      </trkpt>
      <trkpt lat="42.49720654450357" lon="13.543642591685057">
        <ele>1234.95</ele>
        <time>2013-09-08T11:26:20Z</time>
      </trkpt>
      <trkpt lat="42.49710395000875" lon="13.543640160933137">
        <ele>1234.95</ele>
        <time>2013-09-08T11:26:35Z</time>
      </trkpt>
      <trkpt lat="42.496957685798407" lon="13.543671844527125">
        <ele>1234.95</ele>
        <time>2013-09-08T11:26:51Z</time>
      </trkpt>
      <trkpt lat="42.496831957250834" lon="13.543691877275705">
        <ele>1236.3900000000001</ele>
        <time>2013-09-08T11:27:05Z</time>
      </trkpt>
      <trkpt lat="42.496742019429803" lon="13.543713334947824">
        <ele>1237.8299999999999</ele>
        <time>2013-09-08T11:27:19Z</time>
      </trkpt>
      <trkpt lat="42.496664822101593" lon="13.543740408495069">
        <ele>1240.24</ele>
        <time>2013-09-08T11:27:33Z</time>
      </trkpt>
      <trkpt lat="42.496528951451182" lon="13.543782401829958">
        <ele>1241.2</ele>
        <time>2013-09-08T11:27:50Z</time>
      </trkpt>
      <trkpt lat="42.49644722789526" lon="13.543664468452334">
        <ele>1242.1600000000001</ele>
        <time>2013-09-08T11:28:04Z</time>
      </trkpt>
      <trkpt lat="42.496344717219472" lon="13.543662708252668">
        <ele>1243.1199999999999</ele>
        <time>2013-09-08T11:28:18Z</time>
      </trkpt>
      <trkpt lat="42.496277494356036" lon="13.543660780414939">
        <ele>1243.1199999999999</ele>
        <time>2013-09-08T11:28:34Z</time>
      </trkpt>
      <trkpt lat="42.496242709457874" lon="13.543546451255679">
        <ele>1243.5999999999999</ele>
        <time>2013-09-08T11:28:50Z</time>
      </trkpt>
      <trkpt lat="42.496187221258879" lon="13.543543601408601">
        <ele>1244.0799999999999</ele>
        <time>2013-09-08T11:29:07Z</time>
      </trkpt>
      <trkpt lat="42.496175235137343" lon="13.543524742126465">
        <ele>1243.1199999999999</ele>
        <time>2013-09-08T11:29:23Z</time>
      </trkpt>
      <trkpt lat="42.496127961203456" lon="13.543558269739151">
        <ele>1243.5999999999999</ele>
        <time>2013-09-08T11:29:47Z</time>
      </trkpt>
      <trkpt lat="42.496098540723324" lon="13.543542427942157">
        <ele>1243.5999999999999</ele>
        <time>2013-09-08T11:30:00Z</time>
      </trkpt>
      <trkpt lat="42.496086554601789" lon="13.543527340516448">
        <ele>1243.5999999999999</ele>
        <time>2013-09-08T11:30:02Z</time>
      </trkpt>
      <trkpt lat="42.49598940834403" lon="13.543495321646333">
        <ele>1244.5599999999999</ele>
        <time>2013-09-08T11:30:17Z</time>
      </trkpt>
      <trkpt lat="42.495932327583432" lon="13.543516946956515">
        <ele>1245.04</ele>
        <time>2013-09-08T11:30:28Z</time>
      </trkpt>
      <trkpt lat="42.495883041992784" lon="13.543562209233642">
        <ele>1245.53</ele>
        <time>2013-09-08T11:30:41Z</time>
      </trkpt>
      <trkpt lat="42.495798636227846" lon="13.54356556199491">
        <ele>1246.97</ele>
        <time>2013-09-08T11:30:52Z</time>
      </trkpt>
      <trkpt lat="42.495688078925014" lon="13.543540919199586">
        <ele>1247.45</ele>
        <time>2013-09-08T11:31:05Z</time>
      </trkpt>
      <trkpt lat="42.495590010657907" lon="13.543525077402592">
        <ele>1248.4100000000001</ele>
        <time>2013-09-08T11:31:20Z</time>
      </trkpt>
      <trkpt lat="42.495524380356073" lon="13.543426925316453">
        <ele>1248.8900000000001</ele>
        <time>2013-09-08T11:31:33Z</time>
      </trkpt>
      <trkpt lat="42.495461767539382" lon="13.543400773778558">
        <ele>1248.4100000000001</ele>
        <time>2013-09-08T11:31:40Z</time>
      </trkpt>
      <trkpt lat="42.495334027335048" lon="13.54333003051579">
        <ele>1248.4100000000001</ele>
        <time>2013-09-08T11:31:53Z</time>
      </trkpt>
      <trkpt lat="42.495230343192816" lon="13.543273620307446">
        <ele>1249.3699999999999</ele>
        <time>2013-09-08T11:32:06Z</time>
      </trkpt>
      <trkpt lat="42.495133616030216" lon="13.543351572006941">
        <ele>1250.3299999999999</ele>
        <time>2013-09-08T11:32:19Z</time>
      </trkpt>
      <trkpt lat="42.495028339326382" lon="13.543399851769209">
        <ele>1251.29</ele>
        <time>2013-09-08T11:32:34Z</time>
      </trkpt>
      <trkpt lat="42.494891714304686" lon="13.543410077691078">
        <ele>1252.74</ele>
        <time>2013-09-08T11:32:50Z</time>
      </trkpt>
      <trkpt lat="42.494742348790169" lon="13.543490711599588">
        <ele>1254.1800000000001</ele>
        <time>2013-09-08T11:33:05Z</time>
      </trkpt>
      <trkpt lat="42.494640424847603" lon="13.543599592521787">
        <ele>1255.1400000000001</ele>
        <time>2013-09-08T11:33:21Z</time>
      </trkpt>
      <trkpt lat="42.494573453441262" lon="13.543588193133473">
        <ele>1257.0599999999999</ele>
        <time>2013-09-08T11:33:37Z</time>
      </trkpt>
      <trkpt lat="42.494469936937094" lon="13.543590540066361">
        <ele>1258.02</ele>
        <time>2013-09-08T11:33:51Z</time>
      </trkpt>
      <trkpt lat="42.494328450411558" lon="13.543586181476712">
        <ele>1259.46</ele>
        <time>2013-09-08T11:34:07Z</time>
      </trkpt>
      <trkpt lat="42.494239518418908" lon="13.543582577258348">
        <ele>1260.4300000000001</ele>
        <time>2013-09-08T11:34:21Z</time>
      </trkpt>
      <trkpt lat="42.494148574769497" lon="13.543570339679718">
        <ele>1260.4300000000001</ele>
        <time>2013-09-08T11:34:36Z</time>
      </trkpt>
      <trkpt lat="42.494098534807563" lon="13.543602274730802">
        <ele>1260.4300000000001</ele>
        <time>2013-09-08T11:34:39Z</time>
      </trkpt>
      <trkpt lat="42.493961909785867" lon="13.543601520359516">
        <ele>1261.8699999999999</ele>
        <time>2013-09-08T11:34:55Z</time>
      </trkpt>
      <trkpt lat="42.493935758247972" lon="13.54361392557621">
        <ele>1261.8699999999999</ele>
        <time>2013-09-08T11:34:58Z</time>
      </trkpt>
      <trkpt lat="42.493788488209248" lon="13.543670084327459">
        <ele>1262.8299999999999</ele>
        <time>2013-09-08T11:35:16Z</time>
      </trkpt>
      <trkpt lat="42.493673572316766" lon="13.543686429038644">
        <ele>1263.79</ele>
        <time>2013-09-08T11:35:30Z</time>
      </trkpt>
      <trkpt lat="42.493567205965519" lon="13.543705372139812">
        <ele>1264.75</ele>
        <time>2013-09-08T11:35:47Z</time>
      </trkpt>
      <trkpt lat="42.49356041662395" lon="13.543729763478041">
        <ele>1264.75</ele>
        <time>2013-09-08T11:35:53Z</time>
      </trkpt>
      <trkpt lat="42.493438376113772" lon="13.543770667165518">
        <ele>1265.71</ele>
        <time>2013-09-08T11:36:09Z</time>
      </trkpt>
      <trkpt lat="42.493343157693744" lon="13.543813247233629">
        <ele>1266.6700000000001</ele>
        <time>2013-09-08T11:36:22Z</time>
      </trkpt>
      <trkpt lat="42.493241988122463" lon="13.543802350759506">
        <ele>1268.5999999999999</ele>
        <time>2013-09-08T11:36:35Z</time>
      </trkpt>
      <trkpt lat="42.493138974532485" lon="13.54384115897119">
        <ele>1269.5599999999999</ele>
        <time>2013-09-08T11:36:49Z</time>
      </trkpt>
      <trkpt lat="42.493105111643672" lon="13.543730098754168">
        <ele>1270.04</ele>
        <time>2013-09-08T11:37:02Z</time>
      </trkpt>
      <trkpt lat="42.492976197972894" lon="13.543731942772865">
        <ele>1271.48</ele>
        <time>2013-09-08T11:37:17Z</time>
      </trkpt>
      <trkpt lat="42.49287192709744" lon="13.543724315240979">
        <ele>1272.9200000000001</ele>
        <time>2013-09-08T11:37:29Z</time>
      </trkpt>
      <trkpt lat="42.492781318724155" lon="13.54368818923831">
        <ele>1273.8800000000001</ele>
        <time>2013-09-08T11:37:41Z</time>
      </trkpt>
      <trkpt lat="42.492774780839682" lon="13.543687434867024">
        <ele>1273.8800000000001</ele>
        <time>2013-09-08T11:37:42Z</time>
      </trkpt>
      <trkpt lat="42.492721304297447" lon="13.543702187016606">
        <ele>1274.8499999999999</ele>
        <time>2013-09-08T11:37:48Z</time>
      </trkpt>
      <trkpt lat="42.492606975138187" lon="13.543707216158509">
        <ele>1276.77</ele>
        <time>2013-09-08T11:38:03Z</time>
      </trkpt>
      <trkpt lat="42.492570681497455" lon="13.543746611103415">
        <ele>1277.73</ele>
        <time>2013-09-08T11:38:16Z</time>
      </trkpt>
      <trkpt lat="42.49247663654387" lon="13.543671006336808">
        <ele>1279.1700000000001</ele>
        <time>2013-09-08T11:38:33Z</time>
      </trkpt>
      <trkpt lat="42.492467164993286" lon="13.54364812374115">
        <ele>1279.1700000000001</ele>
        <time>2013-09-08T11:38:35Z</time>
      </trkpt>
      <trkpt lat="42.49236473813653" lon="13.543559862300754">
        <ele>1281.0899999999999</ele>
        <time>2013-09-08T11:38:50Z</time>
      </trkpt>
      <trkpt lat="42.492352668195963" lon="13.543550642207265">
        <ele>1281.0899999999999</ele>
        <time>2013-09-08T11:38:53Z</time>
      </trkpt>
      <trkpt lat="42.492308327928185" lon="13.543428517878056">
        <ele>1282.0599999999999</ele>
        <time>2013-09-08T11:39:07Z</time>
      </trkpt>
      <trkpt lat="42.492283517494798" lon="13.543281918391585">
        <ele>1281.5699999999999</ele>
        <time>2013-09-08T11:39:21Z</time>
      </trkpt>
      <trkpt lat="42.492281338199973" lon="13.543141772970557">
        <ele>1279.6500000000001</ele>
        <time>2013-09-08T11:39:32Z</time>
      </trkpt>
      <trkpt lat="42.492260215803981" lon="13.543081842362881">
        <ele>1278.21</ele>
        <time>2013-09-08T11:39:44Z</time>
      </trkpt>
      <trkpt lat="42.492314279079437" lon="13.543002717196941">
        <ele>1278.21</ele>
        <time>2013-09-08T11:40:00Z</time>
      </trkpt>
      <trkpt lat="42.492508320137858" lon="13.542831307277083">
        <ele>1277.73</ele>
        <time>2013-09-08T11:40:26Z</time>
      </trkpt>
      <trkpt lat="42.492425255477428" lon="13.54293960146606">
        <ele>1277.73</ele>
        <time>2013-09-08T11:40:52Z</time>
      </trkpt>
      <trkpt lat="42.492478480562568" lon="13.542838096618652">
        <ele>1277.73</ele>
        <time>2013-09-08T11:41:20Z</time>
      </trkpt>
      <trkpt lat="42.492404216900468" lon="13.542949743568897">
        <ele>1278.6900000000001</ele>
        <time>2013-09-08T11:41:47Z</time>
      </trkpt>
      <trkpt lat="42.492290558293462" lon="13.543120566755533">
        <ele>1278.6900000000001</ele>
        <time>2013-09-08T11:42:12Z</time>
      </trkpt>
      <trkpt lat="42.49218100681901" lon="13.543210420757532">
        <ele>1280.1300000000001</ele>
        <time>2013-09-08T11:42:26Z</time>
      </trkpt>
      <trkpt lat="42.492103390395641" lon="13.543251575902104">
        <ele>1283.02</ele>
        <time>2013-09-08T11:42:41Z</time>
      </trkpt>
      <trkpt lat="42.492033233866096" lon="13.543230788782239">
        <ele>1283.5</ele>
        <time>2013-09-08T11:42:55Z</time>
      </trkpt>
      <trkpt lat="42.492019906640053" lon="13.543326258659363">
        <ele>1283.98</ele>
        <time>2013-09-08T11:43:18Z</time>
      </trkpt>
      <trkpt lat="42.49202074483037" lon="13.543376130983233">
        <ele>1284.46</ele>
        <time>2013-09-08T11:43:31Z</time>
      </trkpt>
      <trkpt lat="42.492010686546564" lon="13.543385099619627">
        <ele>1284.46</ele>
        <time>2013-09-08T11:43:53Z</time>
      </trkpt>
      <trkpt lat="42.492024935781956" lon="13.543441006913781">
        <ele>1285.4200000000001</ele>
        <time>2013-09-08T11:44:07Z</time>
      </trkpt>
      <trkpt lat="42.492041783407331" lon="13.543326174840331">
        <ele>1284.9400000000001</ele>
        <time>2013-09-08T11:44:24Z</time>
      </trkpt>
      <trkpt lat="42.492028959095478" lon="13.5432103369385">
        <ele>1283.5</ele>
        <time>2013-09-08T11:44:36Z</time>
      </trkpt>
      <trkpt lat="42.491982690989971" lon="13.543186616152525">
        <ele>1283.98</ele>
        <time>2013-09-08T11:44:44Z</time>
      </trkpt>
      <trkpt lat="42.49188638292253" lon="13.54315803386271">
        <ele>1285.4200000000001</ele>
        <time>2013-09-08T11:44:57Z</time>
      </trkpt>
      <trkpt lat="42.491755373775959" lon="13.543161805719137">
        <ele>1287.8199999999999</ele>
        <time>2013-09-08T11:45:13Z</time>
      </trkpt>
      <trkpt lat="42.491674153134227" lon="13.543214611709118">
        <ele>1288.78</ele>
        <time>2013-09-08T11:45:25Z</time>
      </trkpt>
      <trkpt lat="42.491648672148585" lon="13.54320153594017">
        <ele>1288.3</ele>
        <time>2013-09-08T11:45:40Z</time>
      </trkpt>
      <trkpt lat="42.491633500903845" lon="13.543151160702109">
        <ele>1288.78</ele>
        <time>2013-09-08T11:46:02Z</time>
      </trkpt>
      <trkpt lat="42.49162788502872" lon="13.543186532333493">
        <ele>1288.78</ele>
        <time>2013-09-08T11:46:34Z</time>
      </trkpt>
      <trkpt lat="42.491754535585642" lon="13.543195584788918">
        <ele>1288.78</ele>
        <time>2013-09-08T11:47:05Z</time>
      </trkpt>
      <trkpt lat="42.491627214476466" lon="13.543301448225975">
        <ele>1288.78</ele>
        <time>2013-09-08T11:47:31Z</time>
      </trkpt>
      <trkpt lat="42.491434765979648" lon="13.543315529823303">
        <ele>1288.78</ele>
        <time>2013-09-08T11:48:04Z</time>
      </trkpt>
      <trkpt lat="42.491437112912536" lon="13.543251994997263">
        <ele>1288.78</ele>
        <time>2013-09-08T11:48:15Z</time>
      </trkpt>
      <trkpt lat="42.491044672206044" lon="13.543166164308786">
        <ele>1288.3</ele>
        <time>2013-09-08T11:48:39Z</time>
      </trkpt>
      <trkpt lat="42.491469802334905" lon="13.543029120191932">
        <ele>1288.78</ele>
        <time>2013-09-08T11:48:59Z</time>
      </trkpt>
      <trkpt lat="42.49160542152822" lon="13.543363139033318">
        <ele>1288.3</ele>
        <time>2013-09-08T11:49:33Z</time>
      </trkpt>
      <trkpt lat="42.491684211418033" lon="13.543411586433649">
        <ele>1288.78</ele>
        <time>2013-09-08T11:50:15Z</time>
      </trkpt>
      <trkpt lat="42.491792924702168" lon="13.543228022754192">
        <ele>1288.78</ele>
        <time>2013-09-08T11:50:50Z</time>
      </trkpt>
      <trkpt lat="42.491582203656435" lon="13.543262304738164">
        <ele>1288.3</ele>
        <time>2013-09-08T11:51:28Z</time>
      </trkpt>
      <trkpt lat="42.491734754294157" lon="13.543220143765211">
        <ele>1288.3</ele>
        <time>2013-09-08T11:52:10Z</time>
      </trkpt>
      <trkpt lat="42.491798121482134" lon="13.543226849287748">
        <ele>1288.78</ele>
        <time>2013-09-08T11:52:51Z</time>
      </trkpt>
      <trkpt lat="42.491785464808345" lon="13.543279403820634">
        <ele>1288.3</ele>
        <time>2013-09-08T11:53:32Z</time>
      </trkpt>
      <trkpt lat="42.491736682131886" lon="13.543203715234995">
        <ele>1288.3</ele>
        <time>2013-09-08T11:54:08Z</time>
      </trkpt>
      <trkpt lat="42.491663508117199" lon="13.543281583115458">
        <ele>1288.3</ele>
        <time>2013-09-08T11:54:46Z</time>
      </trkpt>
      <trkpt lat="42.491672476753592" lon="13.54312676936388">
        <ele>1289.27</ele>
        <time>2013-09-08T11:55:10Z</time>
      </trkpt>
      <trkpt lat="42.491623610258102" lon="13.543090559542179">
        <ele>1288.78</ele>
        <time>2013-09-08T11:55:44Z</time>
      </trkpt>
      <trkpt lat="42.491645570844412" lon="13.543158704414964">
        <ele>1289.75</ele>
        <time>2013-09-08T11:56:10Z</time>
      </trkpt>
      <trkpt lat="42.491676500067115" lon="13.543098103255033">
        <ele>1289.27</ele>
        <time>2013-09-08T11:56:33Z</time>
      </trkpt>
      <trkpt lat="42.491686558350921" lon="13.543081590905786">
        <ele>1290.23</ele>
        <time>2013-09-08T11:57:05Z</time>
      </trkpt>
      <trkpt lat="42.491669123992324" lon="13.543159877881408">
        <ele>1289.75</ele>
        <time>2013-09-08T11:57:29Z</time>
      </trkpt>
      <trkpt lat="42.491663424298167" lon="13.543106066063046">
        <ele>1290.71</ele>
        <time>2013-09-08T11:58:03Z</time>
      </trkpt>
      <trkpt lat="42.491662837564945" lon="13.543141353875399">
        <ele>1291.1900000000001</ele>
        <time>2013-09-08T11:58:35Z</time>
      </trkpt>
      <trkpt lat="42.491640709340572" lon="13.543157028034329">
        <ele>1291.1900000000001</ele>
        <time>2013-09-08T11:59:01Z</time>
      </trkpt>
      <trkpt lat="42.491618832573295" lon="13.543106149882078">
        <ele>1291.6700000000001</ele>
        <time>2013-09-08T11:59:21Z</time>
      </trkpt>
      <trkpt lat="42.491625370457768" lon="13.543067676946521">
        <ele>1291.6700000000001</ele>
        <time>2013-09-08T11:59:57Z</time>
      </trkpt>
      <trkpt lat="42.491633836179972" lon="13.543291306123137">
        <ele>1292.6300000000001</ele>
        <time>2013-09-08T12:00:27Z</time>
      </trkpt>
      <trkpt lat="42.491683540865779" lon="13.543280828744173">
        <ele>1293.1099999999999</ele>
        <time>2013-09-08T12:00:54Z</time>
      </trkpt>
      <trkpt lat="42.491651186719537" lon="13.543457100167871">
        <ele>1293.1099999999999</ele>
        <time>2013-09-08T12:01:22Z</time>
      </trkpt>
      <trkpt lat="42.49149302020669" lon="13.54353278875351">
        <ele>1293.1099999999999</ele>
        <time>2013-09-08T12:01:56Z</time>
      </trkpt>
      <trkpt lat="42.491621347144246" lon="13.543364563956857">
        <ele>1293.1099999999999</ele>
        <time>2013-09-08T12:02:35Z</time>
      </trkpt>
      <trkpt lat="42.491683876141906" lon="13.543390715494752">
        <ele>1293.5899999999999</ele>
        <time>2013-09-08T12:03:02Z</time>
      </trkpt>
      <trkpt lat="42.49151648953557" lon="13.543449053540826">
        <ele>1293.5899999999999</ele>
        <time>2013-09-08T12:03:33Z</time>
      </trkpt>
      <trkpt lat="42.491743303835392" lon="13.543198183178902">
        <ele>1294.0699999999999</ele>
        <time>2013-09-08T12:04:05Z</time>
      </trkpt>
      <trkpt lat="42.491783872246742" lon="13.543228022754192">
        <ele>1295.03</ele>
        <time>2013-09-08T12:04:33Z</time>
      </trkpt>
      <trkpt lat="42.491637356579304" lon="13.543342519551516">
        <ele>1295.03</ele>
        <time>2013-09-08T12:05:21Z</time>
      </trkpt>
      <trkpt lat="42.491672728210688" lon="13.543212935328484">
        <ele>1295.99</ele>
        <time>2013-09-08T12:05:51Z</time>
      </trkpt>
      <trkpt lat="42.491672728210688" lon="13.543032221496105">
        <ele>1295.99</ele>
        <time>2013-09-08T12:06:27Z</time>
      </trkpt>
      <trkpt lat="42.491786386817694" lon="13.543197344988585">
        <ele>1296.96</ele>
        <time>2013-09-08T12:07:04Z</time>
      </trkpt>
      <trkpt lat="42.491805497556925" lon="13.543202122673392">
        <ele>1296.96</ele>
        <time>2013-09-08T12:07:31Z</time>
      </trkpt>
      <trkpt lat="42.491807006299496" lon="13.543242942541838">
        <ele>1297.4400000000001</ele>
        <time>2013-09-08T12:08:00Z</time>
      </trkpt>
      <trkpt lat="42.491768365725875" lon="13.543242355808616">
        <ele>1297.9200000000001</ele>
        <time>2013-09-08T12:08:17Z</time>
      </trkpt>
      <trkpt lat="42.49177792109549" lon="13.543270267546177">
        <ele>1297.4400000000001</ele>
        <time>2013-09-08T12:08:44Z</time>
      </trkpt>
      <trkpt lat="42.491849334910512" lon="13.5433364007622">
        <ele>1296.96</ele>
        <time>2013-09-08T12:09:19Z</time>
      </trkpt>
      <trkpt lat="42.491849418729544" lon="13.543343860656023">
        <ele>1297.4400000000001</ele>
        <time>2013-09-08T12:09:40Z</time>
      </trkpt>
      <trkpt lat="42.491902308538556" lon="13.543252749368548">
        <ele>1297.4400000000001</ele>
        <time>2013-09-08T12:10:21Z</time>
      </trkpt>
      <trkpt lat="42.491827877238393" lon="13.543271776288748">
        <ele>1296.96</ele>
        <time>2013-09-08T12:11:02Z</time>
      </trkpt>
      <trkpt lat="42.491847658529878" lon="13.543328605592251">
        <ele>1297.4400000000001</ele>
        <time>2013-09-08T12:11:49Z</time>
      </trkpt>
      <trkpt lat="42.491842713207006" lon="13.543314104899764">
        <ele>1297.4400000000001</ele>
        <time>2013-09-08T12:12:01Z</time>
      </trkpt>
      <trkpt lat="42.491783620789647" lon="13.543243361636996">
        <ele>1297.9200000000001</ele>
        <time>2013-09-08T12:12:19Z</time>
      </trkpt>
      <trkpt lat="42.491776244714856" lon="13.543231291696429">
        <ele>1297.9200000000001</ele>
        <time>2013-09-08T12:12:34Z</time>
      </trkpt>
      <trkpt lat="42.491732826456428" lon="13.543262640014291">
        <ele>1297.9200000000001</ele>
        <time>2013-09-08T12:12:48Z</time>
      </trkpt>
      <trkpt lat="42.491627465933561" lon="13.543309159576893">
        <ele>1300.3199999999999</ele>
        <time>2013-09-08T12:13:05Z</time>
      </trkpt>
      <trkpt lat="42.491588406264782" lon="13.543382836505771">
        <ele>1301.76</ele>
        <time>2013-09-08T12:13:17Z</time>
      </trkpt>
      <trkpt lat="42.491519758477807" lon="13.543467242270708">
        <ele>1303.6900000000001</ele>
        <time>2013-09-08T12:13:32Z</time>
      </trkpt>
      <trkpt lat="42.491435101255774" lon="13.543486855924129">
        <ele>1304.1700000000001</ele>
        <time>2013-09-08T12:13:44Z</time>
      </trkpt>
      <trkpt lat="42.491293866187334" lon="13.543501859530807">
        <ele>1305.1300000000001</ele>
        <time>2013-09-08T12:14:03Z</time>
      </trkpt>
      <trkpt lat="42.491182554513216" lon="13.54353572241962">
        <ele>1306.5699999999999</ele>
        <time>2013-09-08T12:14:19Z</time>
      </trkpt>
      <trkpt lat="42.491100495681167" lon="13.543561454862356">
        <ele>1308.01</ele>
        <time>2013-09-08T12:14:31Z</time>
      </trkpt>
      <trkpt lat="42.49103226698935" lon="13.543569501489401">
        <ele>1309.45</ele>
        <time>2013-09-08T12:14:46Z</time>
      </trkpt>
      <trkpt lat="42.491031847894192" lon="13.543601855635643">
        <ele>1310.4100000000001</ele>
        <time>2013-09-08T12:14:59Z</time>
      </trkpt>
      <trkpt lat="42.49090570025146" lon="13.543572518974543">
        <ele>1311.3800000000001</ele>
        <time>2013-09-08T12:15:10Z</time>
      </trkpt>
      <trkpt lat="42.49082162976265" lon="13.543564975261688">
        <ele>1312.3399999999999</ele>
        <time>2013-09-08T12:15:24Z</time>
      </trkpt>
      <trkpt lat="42.49071417376399" lon="13.543565394356847">
        <ele>1313.78</ele>
        <time>2013-09-08T12:15:38Z</time>
      </trkpt>
      <trkpt lat="42.490622391924262" lon="13.543592216446996">
        <ele>1313.3</ele>
        <time>2013-09-08T12:15:51Z</time>
      </trkpt>
      <trkpt lat="42.49051577411592" lon="13.543614931404591">
        <ele>1314.26</ele>
        <time>2013-09-08T12:16:07Z</time>
      </trkpt>
      <trkpt lat="42.490389039739966" lon="13.543651727959514">
        <ele>1315.7</ele>
        <time>2013-09-08T12:16:23Z</time>
      </trkpt>
      <trkpt lat="42.490227436646819" lon="13.543668743222952">
        <ele>1317.6199999999999</ele>
        <time>2013-09-08T12:16:40Z</time>
      </trkpt>
      <trkpt lat="42.490080585703254" lon="13.543660780414939">
        <ele>1318.5899999999999</ele>
        <time>2013-09-08T12:16:52Z</time>
      </trkpt>
      <trkpt lat="42.489990815520287" lon="13.543707886710763">
        <ele>1320.51</ele>
        <time>2013-09-08T12:17:08Z</time>
      </trkpt>
      <trkpt lat="42.48993968591094" lon="13.543788185343146">
        <ele>1323.3900000000001</ele>
        <time>2013-09-08T12:17:22Z</time>
      </trkpt>
      <trkpt lat="42.48983608558774" lon="13.54382548481226">
        <ele>1326.76</ele>
        <time>2013-09-08T12:17:37Z</time>
      </trkpt>
      <trkpt lat="42.48973248526454" lon="13.543840991333127">
        <ele>1329.1600000000001</ele>
        <time>2013-09-08T12:17:53Z</time>
      </trkpt>
      <trkpt lat="42.489642715081573" lon="13.543892540037632">
        <ele>1332.04</ele>
        <time>2013-09-08T12:18:08Z</time>
      </trkpt>
      <trkpt lat="42.489581191912293" lon="13.543919948861003">
        <ele>1334.9300000000001</ele>
        <time>2013-09-08T12:18:23Z</time>
      </trkpt>
      <trkpt lat="42.489529810845852" lon="13.543928917497396">
        <ele>1338.29</ele>
        <time>2013-09-08T12:18:39Z</time>
      </trkpt>
      <trkpt lat="42.489508017897606" lon="13.543988596647978">
        <ele>1341.1800000000001</ele>
        <time>2013-09-08T12:18:56Z</time>
      </trkpt>
      <trkpt lat="42.489435933530331" lon="13.544042827561498">
        <ele>1344.0599999999999</ele>
        <time>2013-09-08T12:19:08Z</time>
      </trkpt>
      <trkpt lat="42.489344067871571" lon="13.544044252485037">
        <ele>1346.46</ele>
        <time>2013-09-08T12:19:25Z</time>
      </trkpt>
      <trkpt lat="42.489203503355384" lon="13.544014664366841">
        <ele>1349.3499999999999</ele>
        <time>2013-09-08T12:19:42Z</time>
      </trkpt>
      <trkpt lat="42.489125384017825" lon="13.544020280241966">
        <ele>1351.75</ele>
        <time>2013-09-08T12:19:57Z</time>
      </trkpt>
      <trkpt lat="42.489040559157729" lon="13.544022459536791">
        <ele>1354.1500000000001</ele>
        <time>2013-09-08T12:20:11Z</time>
      </trkpt>
      <trkpt lat="42.48894777148962" lon="13.544000582769513">
        <ele>1357.52</ele>
        <time>2013-09-08T12:20:27Z</time>
      </trkpt>
      <trkpt lat="42.488842159509659" lon="13.543921960517764">
        <ele>1359.9200000000001</ele>
        <time>2013-09-08T12:20:43Z</time>
      </trkpt>
      <trkpt lat="42.488751132041216" lon="13.543869070708752">
        <ele>1360.8800000000001</ele>
        <time>2013-09-08T12:20:58Z</time>
      </trkpt>
      <trkpt lat="42.488613585010171" lon="13.543830346316099">
        <ele>1363.29</ele>
        <time>2013-09-08T12:21:16Z</time>
      </trkpt>
      <trkpt lat="42.488512247800827" lon="13.54375122115016">
        <ele>1365.6900000000001</ele>
        <time>2013-09-08T12:21:33Z</time>
      </trkpt>
      <trkpt lat="42.488417699933052" lon="13.543727248907089">
        <ele>1369.05</ele>
        <time>2013-09-08T12:21:46Z</time>
      </trkpt>
      <trkpt lat="42.488300940021873" lon="13.543704114854336">
        <ele>1371.46</ele>
        <time>2013-09-08T12:21:59Z</time>
      </trkpt>
      <trkpt lat="42.488127183169127" lon="13.543656338006258">
        <ele>1372.9000000000001</ele>
        <time>2013-09-08T12:22:15Z</time>
      </trkpt>
      <trkpt lat="42.48811318539083" lon="13.543631695210934">
        <ele>1375.3</ele>
        <time>2013-09-08T12:22:31Z</time>
      </trkpt>
      <trkpt lat="42.48803598806262" lon="13.543615015223622">
        <ele>1377.71</ele>
        <time>2013-09-08T12:22:45Z</time>
      </trkpt>
      <trkpt lat="42.487975973635912" lon="13.543615266680717">
        <ele>1380.1099999999999</ele>
        <time>2013-09-08T12:23:00Z</time>
      </trkpt>
      <trkpt lat="42.487893747165799" lon="13.543578889220953">
        <ele>1382.03</ele>
        <time>2013-09-08T12:23:12Z</time>
      </trkpt>
      <trkpt lat="42.487854855135083" lon="13.543512923642993">
        <ele>1381.0699999999999</ele>
        <time>2013-09-08T12:23:24Z</time>
      </trkpt>
      <trkpt lat="42.487833229824901" lon="13.54343262501061">
        <ele>1379.1500000000001</ele>
        <time>2013-09-08T12:23:38Z</time>
      </trkpt>
      <trkpt lat="42.487778160721064" lon="13.543363977223635">
        <ele>1379.6300000000001</ele>
        <time>2013-09-08T12:23:52Z</time>
      </trkpt>
      <trkpt lat="42.487645307555795" lon="13.543334724381566">
        <ele>1382.03</ele>
        <time>2013-09-08T12:24:05Z</time>
      </trkpt>
      <trkpt lat="42.487654024735093" lon="13.54336816817522">
        <ele>1384.4400000000001</ele>
        <time>2013-09-08T12:24:20Z</time>
      </trkpt>
      <trkpt lat="42.487599710002542" lon="13.543397001922131">
        <ele>1385.4000000000001</ele>
        <time>2013-09-08T12:24:27Z</time>
      </trkpt>
      <trkpt lat="42.48750189319253" lon="13.543421728536487">
        <ele>1388.28</ele>
        <time>2013-09-08T12:24:41Z</time>
      </trkpt>
      <trkpt lat="42.48745009303093" lon="13.543453328311443">
        <ele>1390.6800000000001</ele>
        <time>2013-09-08T12:24:53Z</time>
      </trkpt>
      <trkpt lat="42.48740172944963" lon="13.54344779625535">
        <ele>1393.5699999999999</ele>
        <time>2013-09-08T12:25:07Z</time>
      </trkpt>
      <trkpt lat="42.487322520464659" lon="13.543460536748171">
        <ele>1395.49</ele>
        <time>2013-09-08T12:25:22Z</time>
      </trkpt>
      <trkpt lat="42.487285891547799" lon="13.543383926153183">
        <ele>1398.3699999999999</ele>
        <time>2013-09-08T12:25:38Z</time>
      </trkpt>
      <trkpt lat="42.487268708646297" lon="13.54330413043499">
        <ele>1398.8599999999999</ele>
        <time>2013-09-08T12:25:51Z</time>
      </trkpt>
      <trkpt lat="42.487196205183864" lon="13.543208409100771">
        <ele>1400.78</ele>
        <time>2013-09-08T12:26:05Z</time>
      </trkpt>
      <trkpt lat="42.487129820510745" lon="13.543145377188921">
        <ele>1403.1800000000001</ele>
        <time>2013-09-08T12:26:19Z</time>
      </trkpt>
      <trkpt lat="42.487027561292052" lon="13.543093409389257">
        <ele>1405.0999999999999</ele>
        <time>2013-09-08T12:26:34Z</time>
      </trkpt>
      <trkpt lat="42.48696687631309" lon="13.54305543936789">
        <ele>1406.0699999999999</ele>
        <time>2013-09-08T12:26:43Z</time>
      </trkpt>
      <trkpt lat="42.486909879371524" lon="13.542996263131499">
        <ele>1407.99</ele>
        <time>2013-09-08T12:26:55Z</time>
      </trkpt>
      <trkpt lat="42.486757328733802" lon="13.542954102158546">
        <ele>1410.8699999999999</ele>
        <time>2013-09-08T12:27:12Z</time>
      </trkpt>
      <trkpt lat="42.486641742289066" lon="13.542910516262054">
        <ele>1412.79</ele>
        <time>2013-09-08T12:27:32Z</time>
      </trkpt>
      <trkpt lat="42.486563706770539" lon="13.542918479070067">
        <ele>1415.2</ele>
        <time>2013-09-08T12:27:47Z</time>
      </trkpt>
      <trkpt lat="42.486597569659352" lon="13.543068850412965">
        <ele>1417.1199999999999</ele>
        <time>2013-09-08T12:28:07Z</time>
      </trkpt>
      <trkpt lat="42.48665657825768" lon="13.543256772682071">
        <ele>1420</ele>
        <time>2013-09-08T12:28:30Z</time>
      </trkpt>
      <trkpt lat="42.485128473490477" lon="13.542042821645737">
        <ele>1446.4400000000001</ele>
        <time>2013-09-08T12:31:04Z</time>
      </trkpt>
      <trkpt lat="42.485225787386298" lon="13.542047515511513">
        <ele>1448.8399999999999</ele>
        <time>2013-09-08T12:31:21Z</time>
      </trkpt>
      <trkpt lat="42.485549915581942" lon="13.542104260995984">
        <ele>1452.21</ele>
        <time>2013-09-08T12:31:40Z</time>
      </trkpt>
      <trkpt lat="42.485799277201295" lon="13.542169304564595">
        <ele>1453.1700000000001</ele>
        <time>2013-09-08T12:31:57Z</time>
      </trkpt>
      <trkpt lat="42.485928945243359" lon="13.542097639292479">
        <ele>1452.6900000000001</ele>
        <time>2013-09-08T12:32:07Z</time>
      </trkpt>
      <trkpt lat="42.485952163115144" lon="13.54205422103405">
        <ele>1451.25</ele>
        <time>2013-09-08T12:32:11Z</time>
      </trkpt>
      <trkpt lat="42.486007148399949" lon="13.541937880218029">
        <ele>1448.3599999999999</ele>
        <time>2013-09-08T12:32:26Z</time>
      </trkpt>
      <trkpt lat="42.486037071794271" lon="13.542027566581964">
        <ele>1448.8399999999999</ele>
        <time>2013-09-08T12:32:44Z</time>
      </trkpt>
      <trkpt lat="42.486119130626321" lon="13.542030584067106">
        <ele>1448.3599999999999</ele>
        <time>2013-09-08T12:33:06Z</time>
      </trkpt>
      <trkpt lat="42.486181743443012" lon="13.542037876322865">
        <ele>1448.3599999999999</ele>
        <time>2013-09-08T12:33:27Z</time>
      </trkpt>
      <trkpt lat="42.486207559704781" lon="13.54201071895659">
        <ele>1448.3599999999999</ele>
        <time>2013-09-08T12:33:54Z</time>
      </trkpt>
      <trkpt lat="42.486207308247685" lon="13.542072745040059">
        <ele>1449.3199999999999</ele>
        <time>2013-09-08T12:34:11Z</time>
      </trkpt>
      <trkpt lat="42.486233878880739" lon="13.5421397164464">
        <ele>1449.8099999999999</ele>
        <time>2013-09-08T12:34:30Z</time>
      </trkpt>
      <trkpt lat="42.48624125495553" lon="13.542101830244064">
        <ele>1450.29</ele>
        <time>2013-09-08T12:34:56Z</time>
      </trkpt>
      <trkpt lat="42.486168583855033" lon="13.542157066985965">
        <ele>1450.29</ele>
        <time>2013-09-08T12:35:12Z</time>
      </trkpt>
      <trkpt lat="42.486090799793601" lon="13.542175926268101">
        <ele>1449.8099999999999</ele>
        <time>2013-09-08T12:35:28Z</time>
      </trkpt>
      <trkpt lat="42.486030450090766" lon="13.542095124721527">
        <ele>1449.8099999999999</ele>
        <time>2013-09-08T12:35:37Z</time>
      </trkpt>
      <trkpt lat="42.486003544181585" lon="13.54190812446177">
        <ele>1449.8099999999999</ele>
        <time>2013-09-08T12:35:55Z</time>
      </trkpt>
      <trkpt lat="42.486049057915807" lon="13.542037205770612">
        <ele>1451.73</ele>
        <time>2013-09-08T12:36:11Z</time>
      </trkpt>
      <trkpt lat="42.486068923026323" lon="13.542224792763591">
        <ele>1454.1300000000001</ele>
        <time>2013-09-08T12:36:27Z</time>
      </trkpt>
      <trkpt lat="42.486033802852035" lon="13.54235814884305">
        <ele>1457.02</ele>
        <time>2013-09-08T12:36:43Z</time>
      </trkpt>
      <trkpt lat="42.485994827002287" lon="13.542482117190957">
        <ele>1459.9000000000001</ele>
        <time>2013-09-08T12:37:00Z</time>
      </trkpt>
      <trkpt lat="42.485986780375242" lon="13.542529055848718">
        <ele>1460.3800000000001</ele>
        <time>2013-09-08T12:37:04Z</time>
      </trkpt>
      <trkpt lat="42.485989043489099" lon="13.542597787454724">
        <ele>1461.8199999999999</ele>
        <time>2013-09-08T12:37:10Z</time>
      </trkpt>
      <trkpt lat="42.485989630222321" lon="13.542705159634352">
        <ele>1464.23</ele>
        <time>2013-09-08T12:37:24Z</time>
      </trkpt>
      <trkpt lat="42.486010501161218" lon="13.542787302285433">
        <ele>1464.71</ele>
        <time>2013-09-08T12:37:37Z</time>
      </trkpt>
      <trkpt lat="42.48616062104702" lon="13.542929627001286">
        <ele>1467.5899999999999</ele>
        <time>2013-09-08T12:37:53Z</time>
      </trkpt>
      <trkpt lat="42.486191298812628" lon="13.542953096330166">
        <ele>1468.0699999999999</ele>
        <time>2013-09-08T12:37:56Z</time>
      </trkpt>
      <trkpt lat="42.485899524763227" lon="13.54263667948544">
        <ele>1470.47</ele>
        <time>2013-09-08T12:38:09Z</time>
      </trkpt>
      <trkpt lat="42.485772455111146" lon="13.542477758601308">
        <ele>1472.8800000000001</ele>
        <time>2013-09-08T12:38:25Z</time>
      </trkpt>
      <trkpt lat="42.485670866444707" lon="13.542402405291796">
        <ele>1475.76</ele>
        <time>2013-09-08T12:38:40Z</time>
      </trkpt>
      <trkpt lat="42.485624011605978" lon="13.542373823001981">
        <ele>1476.24</ele>
        <time>2013-09-08T12:38:45Z</time>
      </trkpt>
      <trkpt lat="42.485494678840041" lon="13.542350605130196">
        <ele>1477.2</ele>
        <time>2013-09-08T12:38:57Z</time>
      </trkpt>
      <trkpt lat="42.485456122085452" lon="13.542357310652733">
        <ele>1478.6500000000001</ele>
        <time>2013-09-08T12:39:06Z</time>
      </trkpt>
      <trkpt lat="42.485448913648725" lon="13.542339960113168">
        <ele>1478.6500000000001</ele>
        <time>2013-09-08T12:39:07Z</time>
      </trkpt>
      <trkpt lat="42.485403902828693" lon="13.542184811085463">
        <ele>1475.28</ele>
        <time>2013-09-08T12:39:20Z</time>
      </trkpt>
      <trkpt lat="42.485389821231365" lon="13.54210015386343">
        <ele>1474.8</ele>
        <time>2013-09-08T12:39:23Z</time>
      </trkpt>
      <trkpt lat="42.485406082123518" lon="13.542072661221027">
        <ele>1473.8399999999999</ele>
        <time>2013-09-08T12:39:26Z</time>
      </trkpt>
      <trkpt lat="42.485381523147225" lon="13.541989764198661">
        <ele>1472.8800000000001</ele>
        <time>2013-09-08T12:39:40Z</time>
      </trkpt>
      <trkpt lat="42.485346654430032" lon="13.541970904916525">
        <ele>1472.8800000000001</ele>
        <time>2013-09-08T12:40:06Z</time>
      </trkpt>
      <trkpt lat="42.485398286953568" lon="13.542009964585304">
        <ele>1473.3599999999999</ele>
        <time>2013-09-08T12:40:27Z</time>
      </trkpt>
      <trkpt lat="42.485334081575274" lon="13.541943244636059">
        <ele>1472.8800000000001</ele>
        <time>2013-09-08T12:40:46Z</time>
      </trkpt>
      <trkpt lat="42.485325112938881" lon="13.541989261284471">
        <ele>1473.3599999999999</ele>
        <time>2013-09-08T12:41:05Z</time>
      </trkpt>
      <trkpt lat="42.485302481800318" lon="13.542022537440062">
        <ele>1473.8399999999999</ele>
        <time>2013-09-08T12:41:10Z</time>
      </trkpt>
      <trkpt lat="42.485258225351572" lon="13.542052963748574">
        <ele>1475.76</ele>
        <time>2013-09-08T12:41:23Z</time>
      </trkpt>
      <trkpt lat="42.485299631953239" lon="13.542125131934881">
        <ele>1477.6800000000001</ele>
        <time>2013-09-08T12:41:46Z</time>
      </trkpt>
      <trkpt lat="42.485315473750234" lon="13.542231330648065">
        <ele>1479.6099999999999</ele>
        <time>2013-09-08T12:42:02Z</time>
      </trkpt>
      <trkpt lat="42.485285801813006" lon="13.54222571477294">
        <ele>1480.5699999999999</ele>
        <time>2013-09-08T12:42:06Z</time>
      </trkpt>
      <trkpt lat="42.485235258936882" lon="13.542256141081452">
        <ele>1482.01</ele>
        <time>2013-09-08T12:42:19Z</time>
      </trkpt>
      <trkpt lat="42.485240371897817" lon="13.542247842997313">
        <ele>1481.05</ele>
        <time>2013-09-08T12:42:33Z</time>
      </trkpt>
      <trkpt lat="42.485200390219688" lon="13.542175088077784">
        <ele>1480.5699999999999</ele>
        <time>2013-09-08T12:42:47Z</time>
      </trkpt>
      <trkpt lat="42.485173316672444" lon="13.54217785410583">
        <ele>1480.5699999999999</ele>
        <time>2013-09-08T12:42:55Z</time>
      </trkpt>
      <trkpt lat="42.485153870657086" lon="13.542173495516181">
        <ele>1480.0899999999999</ele>
        <time>2013-09-08T12:42:57Z</time>
      </trkpt>
      <trkpt lat="42.48513501137495" lon="13.542138542979956">
        <ele>1479.6099999999999</ele>
        <time>2013-09-08T12:43:13Z</time>
      </trkpt>
      <trkpt lat="42.485188152641058" lon="13.54216662235558">
        <ele>1479.6099999999999</ele>
        <time>2013-09-08T12:43:33Z</time>
      </trkpt>
      <trkpt lat="42.485253782942891" lon="13.542185397818685">
        <ele>1480.0899999999999</ele>
        <time>2013-09-08T12:43:54Z</time>
      </trkpt>
      <trkpt lat="42.485266104340553" lon="13.542253039777279">
        <ele>1482.01</ele>
        <time>2013-09-08T12:44:08Z</time>
      </trkpt>
      <trkpt lat="42.485241545364261" lon="13.542299894616008">
        <ele>1482.49</ele>
        <time>2013-09-08T12:44:29Z</time>
      </trkpt>
      <trkpt lat="42.485231989994645" lon="13.542343312874436">
        <ele>1484.4100000000001</ele>
        <time>2013-09-08T12:44:37Z</time>
      </trkpt>
      <trkpt lat="42.48521120287478" lon="13.542403830215335">
        <ele>1486.3399999999999</ele>
        <time>2013-09-08T12:44:49Z</time>
      </trkpt>
      <trkpt lat="42.485195193439722" lon="13.542394358664751">
        <ele>1486.3399999999999</ele>
        <time>2013-09-08T12:45:06Z</time>
      </trkpt>
      <trkpt lat="42.485180357471108" lon="13.542467197403312">
        <ele>1486.8199999999999</ele>
        <time>2013-09-08T12:45:22Z</time>
      </trkpt>
      <trkpt lat="42.485139705240726" lon="13.54254087433219">
        <ele>1486.8199999999999</ele>
        <time>2013-09-08T12:45:34Z</time>
      </trkpt>
      <trkpt lat="42.485130652785301" lon="13.542540706694126">
        <ele>1486.3399999999999</ele>
        <time>2013-09-08T12:45:53Z</time>
      </trkpt>
      <trkpt lat="42.485131323337555" lon="13.542566858232021">
        <ele>1486.8199999999999</ele>
        <time>2013-09-08T12:46:08Z</time>
      </trkpt>
      <trkpt lat="42.485141633078456" lon="13.542552357539535">
        <ele>1486.8199999999999</ele>
        <time>2013-09-08T12:46:31Z</time>
      </trkpt>
      <trkpt lat="42.485133754089475" lon="13.542558308690786">
        <ele>1486.3399999999999</ele>
        <time>2013-09-08T12:46:51Z</time>
      </trkpt>
      <trkpt lat="42.485124869272113" lon="13.542552525177598">
        <ele>1486.3399999999999</ele>
        <time>2013-09-08T12:47:12Z</time>
      </trkpt>
      <trkpt lat="42.485102573409677" lon="13.542562667280436">
        <ele>1486.3399999999999</ele>
        <time>2013-09-08T12:47:25Z</time>
      </trkpt>
      <trkpt lat="42.48508027754724" lon="13.542593847960234">
        <ele>1486.8199999999999</ele>
        <time>2013-09-08T12:47:35Z</time>
      </trkpt>
      <trkpt lat="42.485041636973619" lon="13.542621005326509">
        <ele>1486.3399999999999</ele>
        <time>2013-09-08T12:47:39Z</time>
      </trkpt>
      <trkpt lat="42.484979946166277" lon="13.542638774961233">
        <ele>1486.8199999999999</ele>
        <time>2013-09-08T12:47:53Z</time>
      </trkpt>
      <trkpt lat="42.484945664182305" lon="13.542640032246709">
        <ele>1486.3399999999999</ele>
        <time>2013-09-08T12:48:09Z</time>
      </trkpt>
      <trkpt lat="42.484942395240068" lon="13.542631398886442">
        <ele>1486.8199999999999</ele>
        <time>2013-09-08T12:48:25Z</time>
      </trkpt>
      <trkpt lat="42.484930912032723" lon="13.54262444190681">
        <ele>1486.8199999999999</ele>
        <time>2013-09-08T12:48:41Z</time>
      </trkpt>
      <trkpt lat="42.484909957274795" lon="13.542628716677427">
        <ele>1486.8199999999999</ele>
        <time>2013-09-08T12:49:05Z</time>
      </trkpt>
      <trkpt lat="42.48492244631052" lon="13.542627040296793">
        <ele>1487.78</ele>
        <time>2013-09-08T12:49:19Z</time>
      </trkpt>
      <trkpt lat="42.48492194339633" lon="13.5425956081599">
        <ele>1487.3</ele>
        <time>2013-09-08T12:49:34Z</time>
      </trkpt>
      <trkpt lat="42.484892942011356" lon="13.542584963142872">
        <ele>1487.3</ele>
        <time>2013-09-08T12:50:02Z</time>
      </trkpt>
      <trkpt lat="42.484905682504177" lon="13.542621592059731">
        <ele>1487.3</ele>
        <time>2013-09-08T12:50:24Z</time>
      </trkpt>
      <trkpt lat="42.484917500987649" lon="13.542626956477761">
        <ele>1487.3</ele>
        <time>2013-09-08T12:50:43Z</time>
      </trkpt>
      <trkpt lat="42.484889421612024" lon="13.542604828253388">
        <ele>1486.8199999999999</ele>
        <time>2013-09-08T12:51:01Z</time>
      </trkpt>
      <trkpt lat="42.484900737181306" lon="13.542588483542204">
        <ele>1486.8199999999999</ele>
        <time>2013-09-08T12:51:17Z</time>
      </trkpt>
      <trkpt lat="42.484860923141241" lon="13.54260147549212">
        <ele>1486.8199999999999</ele>
        <time>2013-09-08T12:51:32Z</time>
      </trkpt>
      <trkpt lat="42.484769728034735" lon="13.542624525725842">
        <ele>1487.3</ele>
        <time>2013-09-08T12:51:45Z</time>
      </trkpt>
      <trkpt lat="42.484717341139913" lon="13.54263374581933">
        <ele>1487.3</ele>
        <time>2013-09-08T12:51:53Z</time>
      </trkpt>
      <trkpt lat="42.48459312133491" lon="13.542598206549883">
        <ele>1488.26</ele>
        <time>2013-09-08T12:52:06Z</time>
      </trkpt>
      <trkpt lat="42.484465884044766" lon="13.5425697080791">
        <ele>1489.7</ele>
        <time>2013-09-08T12:52:21Z</time>
      </trkpt>
      <trkpt lat="42.484348705038428" lon="13.542561326175928">
        <ele>1491.6199999999999</ele>
        <time>2013-09-08T12:52:34Z</time>
      </trkpt>
      <trkpt lat="42.484245272353292" lon="13.542603990063071">
        <ele>1494.03</ele>
        <time>2013-09-08T12:52:50Z</time>
      </trkpt>
      <trkpt lat="42.484241249039769" lon="13.542690323665738">
        <ele>1495.95</ele>
        <time>2013-09-08T12:53:02Z</time>
      </trkpt>
      <trkpt lat="42.484222557395697" lon="13.542785542085767">
        <ele>1497.8699999999999</ele>
        <time>2013-09-08T12:53:14Z</time>
      </trkpt>
      <trkpt lat="42.484232448041439" lon="13.542870115488768">
        <ele>1499.3099999999999</ele>
        <time>2013-09-08T12:53:26Z</time>
      </trkpt>
      <trkpt lat="42.484190370887518" lon="13.542930884286761">
        <ele>1500.27</ele>
        <time>2013-09-08T12:53:42Z</time>
      </trkpt>
      <trkpt lat="42.484072437509894" lon="13.542932728305459">
        <ele>1502.2</ele>
        <time>2013-09-08T12:53:59Z</time>
      </trkpt>
      <trkpt lat="42.484008064493537" lon="13.54294890537858">
        <ele>1504.5999999999999</ele>
        <time>2013-09-08T12:54:12Z</time>
      </trkpt>
      <trkpt lat="42.483900524675846" lon="13.542976649478078">
        <ele>1506.52</ele>
        <time>2013-09-08T12:54:25Z</time>
      </trkpt>
      <trkpt lat="42.483813604339957" lon="13.543002884835005">
        <ele>1509.4100000000001</ele>
        <time>2013-09-08T12:54:40Z</time>
      </trkpt>
      <trkpt lat="42.48370380140841" lon="13.542956197634339">
        <ele>1511.3299999999999</ele>
        <time>2013-09-08T12:54:56Z</time>
      </trkpt>
      <trkpt lat="42.483659964054823" lon="13.54295720346272">
        <ele>1512.77</ele>
        <time>2013-09-08T12:55:01Z</time>
      </trkpt>
      <trkpt lat="42.483581677079201" lon="13.543017720803618">
        <ele>1515.6600000000001</ele>
        <time>2013-09-08T12:55:21Z</time>
      </trkpt>
      <trkpt lat="42.483478328213096" lon="13.543057283386588">
        <ele>1517.0999999999999</ele>
        <time>2013-09-08T12:55:35Z</time>
      </trkpt>
      <trkpt lat="42.483358047902584" lon="13.543061641976237">
        <ele>1519.5</ele>
        <time>2013-09-08T12:55:52Z</time>
      </trkpt>
      <trkpt lat="42.483294261619449" lon="13.543092152103782">
        <ele>1521.9000000000001</ele>
        <time>2013-09-08T12:56:05Z</time>
      </trkpt>
      <trkpt lat="42.483181105926633" lon="13.543080082163215">
        <ele>1524.3099999999999</ele>
        <time>2013-09-08T12:56:19Z</time>
      </trkpt>
      <trkpt lat="42.483063759282231" lon="13.543101875111461">
        <ele>1525.75</ele>
        <time>2013-09-08T12:56:34Z</time>
      </trkpt>
      <trkpt lat="42.482962086796761" lon="13.543165158480406">
        <ele>1527.6700000000001</ele>
        <time>2013-09-08T12:56:48Z</time>
      </trkpt>
      <trkpt lat="42.482854630798101" lon="13.543173540383577">
        <ele>1529.1099999999999</ele>
        <time>2013-09-08T12:57:01Z</time>
      </trkpt>
      <trkpt lat="42.482793023809791" lon="13.543175049126148">
        <ele>1530.5599999999999</ele>
        <time>2013-09-08T12:57:12Z</time>
      </trkpt>
      <trkpt lat="42.482709037140012" lon="13.543192315846682">
        <ele>1532.96</ele>
        <time>2013-09-08T12:57:25Z</time>
      </trkpt>
      <trkpt lat="42.482632594183087" lon="13.543217210099101">
        <ele>1535.3599999999999</ele>
        <time>2013-09-08T12:57:39Z</time>
      </trkpt>
      <trkpt lat="42.48262295499444" lon="13.543229950591922">
        <ele>1535.8399999999999</ele>
        <time>2013-09-08T12:57:41Z</time>
      </trkpt>
      <trkpt lat="42.482531256973743" lon="13.54324646294117">
        <ele>1538.25</ele>
        <time>2013-09-08T12:57:55Z</time>
      </trkpt>
      <trkpt lat="42.482498316094279" lon="13.543247133493423">
        <ele>1539.21</ele>
        <time>2013-09-08T12:57:59Z</time>
      </trkpt>
      <trkpt lat="42.482376359403133" lon="13.54323330335319">
        <ele>1542.0899999999999</ele>
        <time>2013-09-08T12:58:13Z</time>
      </trkpt>
      <trkpt lat="42.482300586998463" lon="13.543182592839003">
        <ele>1543.53</ele>
        <time>2013-09-08T12:58:25Z</time>
      </trkpt>
      <trkpt lat="42.482244092971087" lon="13.54321327060461">
        <ele>1544.01</ele>
        <time>2013-09-08T12:58:35Z</time>
      </trkpt>
      <trkpt lat="42.482207966968417" lon="13.543204637244344">
        <ele>1544.5</ele>
        <time>2013-09-08T12:58:39Z</time>
      </trkpt>
      <trkpt lat="42.482113670557737" lon="13.543177060782909">
        <ele>1545.9400000000001</ele>
        <time>2013-09-08T12:58:53Z</time>
      </trkpt>
      <trkpt lat="42.482099588960409" lon="13.543161302804947">
        <ele>1545.9400000000001</ele>
        <time>2013-09-08T12:58:55Z</time>
      </trkpt>
      <trkpt lat="42.482108306139708" lon="13.543148646131158">
        <ele>1546.4200000000001</ele>
        <time>2013-09-08T12:59:12Z</time>
      </trkpt>
      <trkpt lat="42.482045190408826" lon="13.543131295591593">
        <ele>1546.9000000000001</ele>
        <time>2013-09-08T12:59:27Z</time>
      </trkpt>
      <trkpt lat="42.48191149905324" lon="13.543047225102782">
        <ele>1548.8199999999999</ele>
        <time>2013-09-08T12:59:45Z</time>
      </trkpt>
      <trkpt lat="42.481845784932375" lon="13.543046554550529">
        <ele>1550.74</ele>
        <time>2013-09-08T12:59:54Z</time>
      </trkpt>
      <trkpt lat="42.481793314218521" lon="13.543052338063717">
        <ele>1551.22</ele>
        <time>2013-09-08T13:00:01Z</time>
      </trkpt>
      <trkpt lat="42.48174536973238" lon="13.543043788522482">
        <ele>1553.1500000000001</ele>
        <time>2013-09-08T13:00:13Z</time>
      </trkpt>
      <trkpt lat="42.481646463274956" lon="13.543043034151196">
        <ele>1554.5899999999999</ele>
        <time>2013-09-08T13:00:29Z</time>
      </trkpt>
      <trkpt lat="42.481642188504338" lon="13.543041944503784">
        <ele>1554.5899999999999</ele>
        <time>2013-09-08T13:00:30Z</time>
      </trkpt>
      <trkpt lat="42.48165350407362" lon="13.543016882613301">
        <ele>1553.6300000000001</ele>
        <time>2013-09-08T13:00:37Z</time>
      </trkpt>
      <trkpt lat="42.481706393882632" lon="13.543062396347523">
        <ele>1553.6300000000001</ele>
        <time>2013-09-08T13:00:54Z</time>
      </trkpt>
      <trkpt lat="42.481752326712012" lon="13.543119393289089">
        <ele>1553.6300000000001</ele>
        <time>2013-09-08T13:01:12Z</time>
      </trkpt>
      <trkpt lat="42.481697257608175" lon="13.543060217052698">
        <ele>1553.6300000000001</ele>
        <time>2013-09-08T13:01:24Z</time>
      </trkpt>
      <trkpt lat="42.481646295636892" lon="13.543043620884418">
        <ele>1555.0699999999999</ele>
        <time>2013-09-08T13:01:33Z</time>
      </trkpt>
      <trkpt lat="42.481606565415859" lon="13.543034652248025">
        <ele>1555.0699999999999</ele>
        <time>2013-09-08T13:01:46Z</time>
      </trkpt>
      <trkpt lat="42.481570690870285" lon="13.542997520416975">
        <ele>1555.0699999999999</ele>
        <time>2013-09-08T13:02:00Z</time>
      </trkpt>
      <trkpt lat="42.48155920766294" lon="13.543004561215639">
        <ele>1555.0699999999999</ele>
        <time>2013-09-08T13:02:15Z</time>
      </trkpt>
      <trkpt lat="42.48153624124825" lon="13.542972123250365">
        <ele>1555.55</ele>
        <time>2013-09-08T13:02:37Z</time>
      </trkpt>
      <trkpt lat="42.481465414166451" lon="13.542986707761884">
        <ele>1556.99</ele>
        <time>2013-09-08T13:02:51Z</time>
      </trkpt>
      <trkpt lat="42.481379248201847" lon="13.542935745790601">
        <ele>1559.4000000000001</ele>
        <time>2013-09-08T13:03:04Z</time>
      </trkpt>
      <trkpt lat="42.481291322037578" lon="13.542875982820988">
        <ele>1561.3199999999999</ele>
        <time>2013-09-08T13:03:19Z</time>
      </trkpt>
      <trkpt lat="42.481155786663294" lon="13.542842036113143">
        <ele>1563.24</ele>
        <time>2013-09-08T13:03:35Z</time>
      </trkpt>
      <trkpt lat="42.481022849678993" lon="13.542810855433345">
        <ele>1564.6800000000001</ele>
        <time>2013-09-08T13:03:50Z</time>
      </trkpt>
      <trkpt lat="42.480918327346444" lon="13.542733741924167">
        <ele>1567.0899999999999</ele>
        <time>2013-09-08T13:04:02Z</time>
      </trkpt>
      <trkpt lat="42.480862168595195" lon="13.542697364464402">
        <ele>1568.05</ele>
        <time>2013-09-08T13:04:08Z</time>
      </trkpt>
      <trkpt lat="42.480710120871663" lon="13.542643636465073">
        <ele>1568.05</ele>
        <time>2013-09-08T13:04:22Z</time>
      </trkpt>
      <trkpt lat="42.48060735873878" lon="13.542539197951555">
        <ele>1569.49</ele>
        <time>2013-09-08T13:04:35Z</time>
      </trkpt>
      <trkpt lat="42.480582883581519" lon="13.542528720572591">
        <ele>1569.01</ele>
        <time>2013-09-08T13:04:37Z</time>
      </trkpt>
      <trkpt lat="42.480464279651642" lon="13.54252184741199">
        <ele>1571.4100000000001</ele>
        <time>2013-09-08T13:04:51Z</time>
      </trkpt>
      <trkpt lat="42.480360846966505" lon="13.542439537122846">
        <ele>1572.8499999999999</ele>
        <time>2013-09-08T13:05:04Z</time>
      </trkpt>
      <trkpt lat="42.480325140058994" lon="13.54244951158762">
        <ele>1573.3299999999999</ele>
        <time>2013-09-08T13:05:20Z</time>
      </trkpt>
      <trkpt lat="42.480293288826942" lon="13.542482787743211">
        <ele>1573.8199999999999</ele>
        <time>2013-09-08T13:05:35Z</time>
      </trkpt>
      <trkpt lat="42.480268562212586" lon="13.542531486600637">
        <ele>1575.26</ele>
        <time>2013-09-08T13:05:43Z</time>
      </trkpt>
      <trkpt lat="42.480204524472356" lon="13.542597955092788">
        <ele>1577.6600000000001</ele>
        <time>2013-09-08T13:05:56Z</time>
      </trkpt>
      <trkpt lat="42.480187676846981" lon="13.542602732777596">
        <ele>1578.1400000000001</ele>
        <time>2013-09-08T13:05:59Z</time>
      </trkpt>
      <trkpt lat="42.480160854756832" lon="13.54258731007576">
        <ele>1578.1400000000001</ele>
        <time>2013-09-08T13:06:03Z</time>
      </trkpt>
      <trkpt lat="42.480091201141477" lon="13.542396202683449">
        <ele>1578.1400000000001</ele>
        <time>2013-09-08T13:06:19Z</time>
      </trkpt>
      <trkpt lat="42.480028672143817" lon="13.542394358664751">
        <ele>1579.5799999999999</ele>
        <time>2013-09-08T13:06:32Z</time>
      </trkpt>
      <trkpt lat="42.479979386553168" lon="13.542360160499811">
        <ele>1581.51</ele>
        <time>2013-09-08T13:06:45Z</time>
      </trkpt>
      <trkpt lat="42.479954911395907" lon="13.542350521311164">
        <ele>1581.99</ele>
        <time>2013-09-08T13:06:48Z</time>
      </trkpt>
      <trkpt lat="42.479914678260684" lon="13.542327051982284">
        <ele>1582.95</ele>
        <time>2013-09-08T13:06:54Z</time>
      </trkpt>
      <trkpt lat="42.479850389063358" lon="13.542285729199648">
        <ele>1583.9100000000001</ele>
        <time>2013-09-08T13:07:07Z</time>
      </trkpt>
      <trkpt lat="42.479772940278053" lon="13.542297882959247">
        <ele>1585.3499999999999</ele>
        <time>2013-09-08T13:07:21Z</time>
      </trkpt>
      <trkpt lat="42.479699263349175" lon="13.542302660644054">
        <ele>1586.79</ele>
        <time>2013-09-08T13:07:34Z</time>
      </trkpt>
      <trkpt lat="42.479645367711782" lon="13.542346162721515">
        <ele>1589.2</ele>
        <time>2013-09-08T13:07:46Z</time>
      </trkpt>
      <trkpt lat="42.479575127363205" lon="13.542332081124187">
        <ele>1590.1600000000001</ele>
        <time>2013-09-08T13:07:55Z</time>
      </trkpt>
      <trkpt lat="42.47953237965703" lon="13.542210962623358">
        <ele>1589.6800000000001</ele>
        <time>2013-09-08T13:08:08Z</time>
      </trkpt>
      <trkpt lat="42.479434562847018" lon="13.542243568226695">
        <ele>1591.1199999999999</ele>
        <time>2013-09-08T13:08:22Z</time>
      </trkpt>
      <trkpt lat="42.479421906173229" lon="13.542233426123857">
        <ele>1591.1199999999999</ele>
        <time>2013-09-08T13:08:24Z</time>
      </trkpt>
      <trkpt lat="42.479369267821312" lon="13.542180033400655">
        <ele>1592.5599999999999</ele>
        <time>2013-09-08T13:08:32Z</time>
      </trkpt>
      <trkpt lat="42.479294082149863" lon="13.5420947894454">
        <ele>1594</ele>
        <time>2013-09-08T13:08:45Z</time>
      </trkpt>
      <trkpt lat="42.479268684983253" lon="13.542080372571945">
        <ele>1594.48</ele>
        <time>2013-09-08T13:08:48Z</time>
      </trkpt>
      <trkpt lat="42.479232056066394" lon="13.542031589895487">
        <ele>1594.48</ele>
        <time>2013-09-08T13:08:54Z</time>
      </trkpt>
      <trkpt lat="42.479141782969236" lon="13.541946848854423">
        <ele>1595.9300000000001</ele>
        <time>2013-09-08T13:09:09Z</time>
      </trkpt>
      <trkpt lat="42.479048073291779" lon="13.541862526908517">
        <ele>1596.4100000000001</ele>
        <time>2013-09-08T13:09:24Z</time>
      </trkpt>
      <trkpt lat="42.478905497118831" lon="13.541801255196333">
        <ele>1597.8499999999999</ele>
        <time>2013-09-08T13:09:39Z</time>
      </trkpt>
      <trkpt lat="42.478824947029352" lon="13.54174492880702">
        <ele>1599.29</ele>
        <time>2013-09-08T13:09:50Z</time>
      </trkpt>
      <trkpt lat="42.478715311735868" lon="13.541718190535903">
        <ele>1600.25</ele>
        <time>2013-09-08T13:10:03Z</time>
      </trkpt>
      <trkpt lat="42.478674240410328" lon="13.541729422286153">
        <ele>1600.25</ele>
        <time>2013-09-08T13:10:08Z</time>
      </trkpt>
      <trkpt lat="42.478569131344557" lon="13.541727745905519">
        <ele>1602.1700000000001</ele>
        <time>2013-09-08T13:10:22Z</time>
      </trkpt>
      <trkpt lat="42.478559324517846" lon="13.541730511933565">
        <ele>1602.1700000000001</ele>
        <time>2013-09-08T13:10:23Z</time>
      </trkpt>
      <trkpt lat="42.478482965379953" lon="13.541699163615704">
        <ele>1603.1400000000001</ele>
        <time>2013-09-08T13:10:35Z</time>
      </trkpt>
      <trkpt lat="42.478385819122195" lon="13.54167602956295">
        <ele>1604.0999999999999</ele>
        <time>2013-09-08T13:10:48Z</time>
      </trkpt>
      <trkpt lat="42.478267718106508" lon="13.541677538305521">
        <ele>1605.0599999999999</ele>
        <time>2013-09-08T13:11:02Z</time>
      </trkpt>
      <trkpt lat="42.478206446394324" lon="13.541661109775305">
        <ele>1604.5799999999999</ele>
        <time>2013-09-08T13:11:10Z</time>
      </trkpt>
      <trkpt lat="42.478107959032059" lon="13.541617942973971">
        <ele>1606.02</ele>
        <time>2013-09-08T13:11:27Z</time>
      </trkpt>
      <trkpt lat="42.478073928505182" lon="13.541607046499848">
        <ele>1606.02</ele>
        <time>2013-09-08T13:11:46Z</time>
      </trkpt>
      <trkpt lat="42.478027828037739" lon="13.54163839481771">
        <ele>1606.5</ele>
        <time>2013-09-08T13:11:56Z</time>
      </trkpt>
      <trkpt lat="42.478010980412364" lon="13.541658092290163">
        <ele>1606.5</ele>
        <time>2013-09-08T13:12:06Z</time>
      </trkpt>
      <trkpt lat="42.477996060624719" lon="13.541681729257107">
        <ele>1606.02</ele>
        <time>2013-09-08T13:12:18Z</time>
      </trkpt>
      <trkpt lat="42.477993294596672" lon="13.541660774499178">
        <ele>1606.02</ele>
        <time>2013-09-08T13:12:39Z</time>
      </trkpt>
      <trkpt lat="42.477953229099512" lon="13.541636215522885">
        <ele>1606.5</ele>
        <time>2013-09-08T13:13:10Z</time>
      </trkpt>
      <trkpt lat="42.477959766983986" lon="13.541636969894171">
        <ele>1606.5</ele>
        <time>2013-09-08T13:13:34Z</time>
      </trkpt>
      <trkpt lat="42.477967143058777" lon="13.541622301563621">
        <ele>1606.98</ele>
        <time>2013-09-08T13:14:04Z</time>
      </trkpt>
      <trkpt lat="42.477968987077475" lon="13.541605118662119">
        <ele>1607.46</ele>
        <time>2013-09-08T13:14:32Z</time>
      </trkpt>
      <trkpt lat="42.477957922965288" lon="13.541608974337578">
        <ele>1606.98</ele>
        <time>2013-09-08T13:14:53Z</time>
      </trkpt>
      <trkpt lat="42.477974016219378" lon="13.541643591597676">
        <ele>1607.46</ele>
        <time>2013-09-08T13:15:23Z</time>
      </trkpt>
      <trkpt lat="42.477957587689161" lon="13.541653146967292">
        <ele>1606.98</ele>
        <time>2013-09-08T13:15:47Z</time>
      </trkpt>
      <trkpt lat="42.477975776419044" lon="13.541682483628392">
        <ele>1606.98</ele>
        <time>2013-09-08T13:16:13Z</time>
      </trkpt>
      <trkpt lat="42.477962365373969" lon="13.541621714830399">
        <ele>1607.46</ele>
        <time>2013-09-08T13:16:45Z</time>
      </trkpt>
      <trkpt lat="42.477973513305187" lon="13.541647614911199">
        <ele>1607.9400000000001</ele>
        <time>2013-09-08T13:17:11Z</time>
      </trkpt>
      <trkpt lat="42.477976195514202" lon="13.541652644053102">
        <ele>1607.9400000000001</ele>
        <time>2013-09-08T13:17:45Z</time>
      </trkpt>
      <trkpt lat="42.477955408394337" lon="13.541626995429397">
        <ele>1607.9400000000001</ele>
        <time>2013-09-08T13:18:00Z</time>
      </trkpt>
      <trkpt lat="42.477950714528561" lon="13.541611488908529">
        <ele>1609.3800000000001</ele>
        <time>2013-09-08T13:18:09Z</time>
      </trkpt>
      <trkpt lat="42.477936381474137" lon="13.541540913283825">
        <ele>1608.9000000000001</ele>
        <time>2013-09-08T13:18:18Z</time>
      </trkpt>
      <trkpt lat="42.477903524413705" lon="13.541492046788335">
        <ele>1608.9000000000001</ele>
        <time>2013-09-08T13:18:24Z</time>
      </trkpt>
      <trkpt lat="42.477860860526562" lon="13.541379310190678">
        <ele>1607.9400000000001</ele>
        <time>2013-09-08T13:18:38Z</time>
      </trkpt>
      <trkpt lat="42.477827416732907" lon="13.541246457025409">
        <ele>1607.9400000000001</ele>
        <time>2013-09-08T13:18:49Z</time>
      </trkpt>
      <trkpt lat="42.477811742573977" lon="13.541176887229085">
        <ele>1607.9400000000001</ele>
        <time>2013-09-08T13:18:54Z</time>
      </trkpt>
      <trkpt lat="42.477790117263794" lon="13.540993575006723">
        <ele>1607.9400000000001</ele>
        <time>2013-09-08T13:19:07Z</time>
      </trkpt>
      <trkpt lat="42.477771677076817" lon="13.540933225303888">
        <ele>1608.4200000000001</ele>
        <time>2013-09-08T13:19:13Z</time>
      </trkpt>
      <trkpt lat="42.477719290181994" lon="13.540850831195712">
        <ele>1610.3499999999999</ele>
        <time>2013-09-08T13:19:26Z</time>
      </trkpt>
      <trkpt lat="42.477696156129241" lon="13.540758043527603">
        <ele>1612.27</ele>
        <time>2013-09-08T13:19:38Z</time>
      </trkpt>
      <trkpt lat="42.477667490020394" lon="13.540715966373682">
        <ele>1614.6700000000001</ele>
        <time>2013-09-08T13:19:48Z</time>
      </trkpt>
      <trkpt lat="42.477636728435755" lon="13.540655532851815">
        <ele>1616.5899999999999</ele>
        <time>2013-09-08T13:20:01Z</time>
      </trkpt>
      <trkpt lat="42.47761401347816" lon="13.540553525090218">
        <ele>1619.48</ele>
        <time>2013-09-08T13:20:14Z</time>
      </trkpt>
      <trkpt lat="42.477574031800032" lon="13.540487559512258">
        <ele>1621.8800000000001</ele>
        <time>2013-09-08T13:20:27Z</time>
      </trkpt>
      <trkpt lat="42.47755341231823" lon="13.54041731916368">
        <ele>1623.8</ele>
        <time>2013-09-08T13:20:39Z</time>
      </trkpt>
      <trkpt lat="42.477524913847446" lon="13.540334505960345">
        <ele>1626.6900000000001</ele>
        <time>2013-09-08T13:20:53Z</time>
      </trkpt>
      <trkpt lat="42.477521225810051" lon="13.540260577574372">
        <ele>1628.6099999999999</ele>
        <time>2013-09-08T13:21:05Z</time>
      </trkpt>
      <trkpt lat="42.477496834471822" lon="13.540180446580052">
        <ele>1631.01</ele>
        <time>2013-09-08T13:21:18Z</time>
      </trkpt>
      <trkpt lat="42.477470096200705" lon="13.540094951167703">
        <ele>1633.4200000000001</ele>
        <time>2013-09-08T13:21:31Z</time>
      </trkpt>
      <trkpt lat="42.477465653792024" lon="13.540091514587402">
        <ele>1633.9000000000001</ele>
        <time>2013-09-08T13:21:32Z</time>
      </trkpt>
      <trkpt lat="42.477465821430087" lon="13.539977939799428">
        <ele>1636.3</ele>
        <time>2013-09-08T13:21:47Z</time>
      </trkpt>
      <trkpt lat="42.477512173354626" lon="13.539962265640497">
        <ele>1637.26</ele>
        <time>2013-09-08T13:21:53Z</time>
      </trkpt>
      <trkpt lat="42.47759347781539" lon="13.539903592318296">
        <ele>1639.6700000000001</ele>
        <time>2013-09-08T13:22:07Z</time>
      </trkpt>
      <trkpt lat="42.477662712335587" lon="13.539884565398097">
        <ele>1641.5899999999999</ele>
        <time>2013-09-08T13:22:19Z</time>
      </trkpt>
      <trkpt lat="42.477619294077158" lon="13.539814073592424">
        <ele>1643.03</ele>
        <time>2013-09-08T13:22:33Z</time>
      </trkpt>
      <trkpt lat="42.477581240236759" lon="13.539755400270224">
        <ele>1644.95</ele>
        <time>2013-09-08T13:22:44Z</time>
      </trkpt>
      <trkpt lat="42.477557519450784" lon="13.539673509076238">
        <ele>1646.8800000000001</ele>
        <time>2013-09-08T13:22:58Z</time>
      </trkpt>
      <trkpt lat="42.477579060941935" lon="13.539616344496608">
        <ele>1648.8</ele>
        <time>2013-09-08T13:23:10Z</time>
      </trkpt>
      <trkpt lat="42.477641170844436" lon="13.539572171866894">
        <ele>1650.72</ele>
        <time>2013-09-08T13:23:20Z</time>
      </trkpt>
      <trkpt lat="42.477695569396019" lon="13.539523892104626">
        <ele>1652.6400000000001</ele>
        <time>2013-09-08T13:23:33Z</time>
      </trkpt>
      <trkpt lat="42.477657934650779" lon="13.539474438875914">
        <ele>1654.5699999999999</ele>
        <time>2013-09-08T13:23:47Z</time>
      </trkpt>
      <trkpt lat="42.47764284722507" lon="13.539422554895282">
        <ele>1656.49</ele>
        <time>2013-09-08T13:24:01Z</time>
      </trkpt>
      <trkpt lat="42.477624909952283" lon="13.539336137473583">
        <ele>1658.4100000000001</ele>
        <time>2013-09-08T13:24:15Z</time>
      </trkpt>
      <trkpt lat="42.477619126439095" lon="13.539314176887274">
        <ele>1659.3699999999999</ele>
        <time>2013-09-08T13:24:19Z</time>
      </trkpt>
      <trkpt lat="42.477544359862804" lon="13.5392074752599">
        <ele>1661.78</ele>
        <time>2013-09-08T13:24:39Z</time>
      </trkpt>
      <trkpt lat="42.477517202496529" lon="13.539144191890955">
        <ele>1663.22</ele>
        <time>2013-09-08T13:24:49Z</time>
      </trkpt>
      <trkpt lat="42.477459367364645" lon="13.539115525782108">
        <ele>1665.1400000000001</ele>
        <time>2013-09-08T13:25:04Z</time>
      </trkpt>
      <trkpt lat="42.47744251973927" lon="13.53907847777009">
        <ele>1667.0599999999999</ele>
        <time>2013-09-08T13:25:15Z</time>
      </trkpt>
      <trkpt lat="42.477415949106216" lon="13.539047716185451">
        <ele>1668.02</ele>
        <time>2013-09-08T13:25:26Z</time>
      </trkpt>
      <trkpt lat="42.477351324632764" lon="13.539007231593132">
        <ele>1670.9100000000001</ele>
        <time>2013-09-08T13:25:41Z</time>
      </trkpt>
      <trkpt lat="42.477288795635104" lon="13.538985187187791">
        <ele>1672.3499999999999</ele>
        <time>2013-09-08T13:25:56Z</time>
      </trkpt>
      <trkpt lat="42.477256022393703" lon="13.538950402289629">
        <ele>1673.79</ele>
        <time>2013-09-08T13:26:09Z</time>
      </trkpt>
      <trkpt lat="42.477246131747961" lon="13.538896339014173">
        <ele>1676.2</ele>
        <time>2013-09-08T13:26:24Z</time>
      </trkpt>
      <trkpt lat="42.477205479517579" lon="13.538839342072606">
        <ele>1679.0799999999999</ele>
        <time>2013-09-08T13:26:35Z</time>
      </trkpt>
      <trkpt lat="42.477200785651803" lon="13.538834061473608">
        <ele>1679.5599999999999</ele>
        <time>2013-09-08T13:26:36Z</time>
      </trkpt>
      <trkpt lat="42.477142615243793" lon="13.538811095058918">
        <ele>1682.9300000000001</ele>
        <time>2013-09-08T13:26:46Z</time>
      </trkpt>
      <trkpt lat="42.477089893072844" lon="13.538760636001825">
        <ele>1685.3299999999999</ele>
        <time>2013-09-08T13:26:59Z</time>
      </trkpt>
      <trkpt lat="42.477043038234115" lon="13.538750912994146">
        <ele>1686.77</ele>
        <time>2013-09-08T13:27:06Z</time>
      </trkpt>
      <trkpt lat="42.476961398497224" lon="13.538718055933714">
        <ele>1689.1700000000001</ele>
        <time>2013-09-08T13:27:19Z</time>
      </trkpt>
      <trkpt lat="42.476955112069845" lon="13.53869198821485">
        <ele>1690.6199999999999</ele>
        <time>2013-09-08T13:27:23Z</time>
      </trkpt>
      <trkpt lat="42.477011187002063" lon="13.538686791434884">
        <ele>1690.6199999999999</ele>
        <time>2013-09-08T13:27:30Z</time>
      </trkpt>
      <trkpt lat="42.477066926658154" lon="13.538692994043231">
        <ele>1692.0599999999999</ele>
        <time>2013-09-08T13:27:40Z</time>
      </trkpt>
      <trkpt lat="42.477104812860489" lon="13.538648234680295">
        <ele>1694.9400000000001</ele>
        <time>2013-09-08T13:27:50Z</time>
      </trkpt>
      <trkpt lat="42.477139430120587" lon="13.538599284365773">
        <ele>1698.3099999999999</ele>
        <time>2013-09-08T13:28:03Z</time>
      </trkpt>
      <trkpt lat="42.477202713489532" lon="13.538483865559101">
        <ele>1701.1900000000001</ele>
        <time>2013-09-08T13:28:23Z</time>
      </trkpt>
      <trkpt lat="42.477215118706226" lon="13.538545221090317">
        <ele>1696.3800000000001</ele>
        <time>2013-09-08T13:34:32Z</time>
      </trkpt>
      <trkpt lat="42.477237833663821" lon="13.538763150572777">
        <ele>1693.5</ele>
        <time>2013-09-08T13:34:47Z</time>
      </trkpt>
      <trkpt lat="42.477263901382685" lon="13.53871931321919">
        <ele>1690.6199999999999</ele>
        <time>2013-09-08T13:34:59Z</time>
      </trkpt>
      <trkpt lat="42.477283012121916" lon="13.538747141137719">
        <ele>1688.6900000000001</ele>
        <time>2013-09-08T13:35:11Z</time>
      </trkpt>
      <trkpt lat="42.477269265800714" lon="13.538844790309668">
        <ele>1685.8099999999999</ele>
        <time>2013-09-08T13:35:22Z</time>
      </trkpt>
      <trkpt lat="42.477219644933939" lon="13.538888040930033">
        <ele>1682.9300000000001</ele>
        <time>2013-09-08T13:35:33Z</time>
      </trkpt>
      <trkpt lat="42.477260967716575" lon="13.538911929354072">
        <ele>1680.04</ele>
        <time>2013-09-08T13:35:43Z</time>
      </trkpt>
      <trkpt lat="42.477255770936608" lon="13.538950234651566">
        <ele>1679.0799999999999</ele>
        <time>2013-09-08T13:35:46Z</time>
      </trkpt>
      <trkpt lat="42.47726071625948" lon="13.539070682600141">
        <ele>1675.72</ele>
        <time>2013-09-08T13:35:59Z</time>
      </trkpt>
      <trkpt lat="42.477348642423749" lon="13.53916984051466">
        <ele>1672.8299999999999</ele>
        <time>2013-09-08T13:36:10Z</time>
      </trkpt>
      <trkpt lat="42.477487111464143" lon="13.53939707390964">
        <ele>1669.95</ele>
        <time>2013-09-08T13:36:24Z</time>
      </trkpt>
      <trkpt lat="42.477594567462802" lon="13.539547529071569">
        <ele>1666.5799999999999</ele>
        <time>2013-09-08T13:36:36Z</time>
      </trkpt>
      <trkpt lat="42.477688444778323" lon="13.539707707241178">
        <ele>1664.6600000000001</ele>
        <time>2013-09-08T13:36:50Z</time>
      </trkpt>
      <trkpt lat="42.47770638205111" lon="13.539760010316968">
        <ele>1664.1800000000001</ele>
        <time>2013-09-08T13:36:52Z</time>
      </trkpt>
      <trkpt lat="42.477859351783991" lon="13.540036361664534">
        <ele>1660.8099999999999</ele>
        <time>2013-09-08T13:37:08Z</time>
      </trkpt>
      <trkpt lat="42.477965969592333" lon="13.540273820981383">
        <ele>1657.9300000000001</ele>
        <time>2013-09-08T13:37:23Z</time>
      </trkpt>
      <trkpt lat="42.478027828037739" lon="13.540466269478202">
        <ele>1655.05</ele>
        <time>2013-09-08T13:37:34Z</time>
      </trkpt>
      <trkpt lat="42.478026067838073" lon="13.540476579219103">
        <ele>1653.1199999999999</ele>
        <time>2013-09-08T13:37:41Z</time>
      </trkpt>
      <trkpt lat="42.477971920743585" lon="13.540497450158">
        <ele>1651.2</ele>
        <time>2013-09-08T13:37:48Z</time>
      </trkpt>
      <trkpt lat="42.477950043976307" lon="13.540565008297563">
        <ele>1648.8</ele>
        <time>2013-09-08T13:37:57Z</time>
      </trkpt>
      <trkpt lat="42.477961191907525" lon="13.540598955005407">
        <ele>1647.8399999999999</ele>
        <time>2013-09-08T13:38:00Z</time>
      </trkpt>
      <trkpt lat="42.477955324575305" lon="13.540578167885542">
        <ele>1646.8800000000001</ele>
        <time>2013-09-08T13:38:02Z</time>
      </trkpt>
      <trkpt lat="42.478024223819375" lon="13.540600799024105">
        <ele>1643.51</ele>
        <time>2013-09-08T13:38:12Z</time>
      </trkpt>
      <trkpt lat="42.478033527731895" lon="13.540562158450484">
        <ele>1642.55</ele>
        <time>2013-09-08T13:38:14Z</time>
      </trkpt>
      <trkpt lat="42.478027157485485" lon="13.540551010519266">
        <ele>1642.0699999999999</ele>
        <time>2013-09-08T13:38:15Z</time>
      </trkpt>
      <trkpt lat="42.477999497205019" lon="13.540518321096897">
        <ele>1641.1099999999999</ele>
        <time>2013-09-08T13:38:18Z</time>
      </trkpt>
      <trkpt lat="42.477970076724887" lon="13.540529301390052">
        <ele>1640.6300000000001</ele>
        <time>2013-09-08T13:38:20Z</time>
      </trkpt>
      <trkpt lat="42.477906625717878" lon="13.540581436827779">
        <ele>1638.7</ele>
        <time>2013-09-08T13:38:26Z</time>
      </trkpt>
      <trkpt lat="42.477822052314878" lon="13.54062887839973">
        <ele>1636.78</ele>
        <time>2013-09-08T13:38:33Z</time>
      </trkpt>
      <trkpt lat="42.477815179154277" lon="13.540647234767675">
        <ele>1636.78</ele>
        <time>2013-09-08T13:38:34Z</time>
      </trkpt>
      <trkpt lat="42.477829847484827" lon="13.540642457082868">
        <ele>1635.8199999999999</ele>
        <time>2013-09-08T13:38:36Z</time>
      </trkpt>
      <trkpt lat="42.47787494212389" lon="13.540637511759996">
        <ele>1634.8599999999999</ele>
        <time>2013-09-08T13:38:41Z</time>
      </trkpt>
      <trkpt lat="42.477887263521552" lon="13.54065477848053">
        <ele>1633.4200000000001</ele>
        <time>2013-09-08T13:38:44Z</time>
      </trkpt>
      <trkpt lat="42.477938560768962" lon="13.540611444041133">
        <ele>1630.05</ele>
        <time>2013-09-08T13:38:53Z</time>
      </trkpt>
      <trkpt lat="42.477939482778311" lon="13.540617311373353">
        <ele>1629.0899999999999</ele>
        <time>2013-09-08T13:38:55Z</time>
      </trkpt>
      <trkpt lat="42.477977452799678" lon="13.540647989138961">
        <ele>1625.73</ele>
        <time>2013-09-08T13:39:03Z</time>
      </trkpt>
      <trkpt lat="42.477987930178642" lon="13.540711104869843">
        <ele>1622.8399999999999</ele>
        <time>2013-09-08T13:39:08Z</time>
      </trkpt>
      <trkpt lat="42.478018272668123" lon="13.540728623047471">
        <ele>1621.4000000000001</ele>
        <time>2013-09-08T13:39:12Z</time>
      </trkpt>
      <trkpt lat="42.478014584630728" lon="13.540773969143629">
        <ele>1619.48</ele>
        <time>2013-09-08T13:39:16Z</time>
      </trkpt>
      <trkpt lat="42.478017015382648" lon="13.540786625817418">
        <ele>1619</ele>
        <time>2013-09-08T13:39:17Z</time>
      </trkpt>
      <trkpt lat="42.478051884099841" lon="13.540863236412406">
        <ele>1615.6300000000001</ele>
        <time>2013-09-08T13:39:25Z</time>
      </trkpt>
      <trkpt lat="42.478073006495833" lon="13.540912522003055">
        <ele>1614.1900000000001</ele>
        <time>2013-09-08T13:39:29Z</time>
      </trkpt>
      <trkpt lat="42.478094631806016" lon="13.540982091799378">
        <ele>1611.79</ele>
        <time>2013-09-08T13:39:35Z</time>
      </trkpt>
      <trkpt lat="42.478121956810355" lon="13.541011093184352">
        <ele>1610.3499999999999</ele>
        <time>2013-09-08T13:39:40Z</time>
      </trkpt>
      <trkpt lat="42.478098152205348" lon="13.541212761774659">
        <ele>1609.3800000000001</ele>
        <time>2013-09-08T13:39:51Z</time>
      </trkpt>
      <trkpt lat="42.478082226589322" lon="13.54127487167716">
        <ele>1609.3800000000001</ele>
        <time>2013-09-08T13:39:55Z</time>
      </trkpt>
      <trkpt lat="42.478098152205348" lon="13.541353242471814">
        <ele>1609.8599999999999</ele>
        <time>2013-09-08T13:40:00Z</time>
      </trkpt>
      <trkpt lat="42.478076359257102" lon="13.541397079825401">
        <ele>1609.8599999999999</ele>
        <time>2013-09-08T13:40:05Z</time>
      </trkpt>
      <trkpt lat="42.478066720068455" lon="13.541399007663131">
        <ele>1609.8599999999999</ele>
        <time>2013-09-08T13:40:06Z</time>
      </trkpt>
      <trkpt lat="42.478040149435401" lon="13.541530687361956">
        <ele>1610.8299999999999</ele>
        <time>2013-09-08T13:40:18Z</time>
      </trkpt>
      <trkpt lat="42.477821046486497" lon="13.541581062600017">
        <ele>1611.79</ele>
        <time>2013-09-08T13:40:26Z</time>
      </trkpt>
      <trkpt lat="42.477942081168294" lon="13.541662786155939">
        <ele>1612.27</ele>
        <time>2013-09-08T13:40:41Z</time>
      </trkpt>
      <trkpt lat="42.477964544668794" lon="13.541680555790663">
        <ele>1609.8599999999999</ele>
        <time>2013-09-08T13:40:56Z</time>
      </trkpt>
      <trkpt lat="42.477970495820045" lon="13.541727997362614">
        <ele>1609.8599999999999</ele>
        <time>2013-09-08T13:41:26Z</time>
      </trkpt>
      <trkpt lat="42.477972423657775" lon="13.541717603802681">
        <ele>1609.8599999999999</ele>
        <time>2013-09-08T13:41:52Z</time>
      </trkpt>
      <trkpt lat="42.47798340395093" lon="13.541723638772964">
        <ele>1609.8599999999999</ele>
        <time>2013-09-08T13:42:04Z</time>
      </trkpt>
      <trkpt lat="42.478011734783649" lon="13.541705701500177">
        <ele>1609.8599999999999</ele>
        <time>2013-09-08T13:42:36Z</time>
      </trkpt>
      <trkpt lat="42.477999329566956" lon="13.541735876351595">
        <ele>1609.3800000000001</ele>
        <time>2013-09-08T13:42:58Z</time>
      </trkpt>
      <trkpt lat="42.478030007332563" lon="13.541733864694834">
        <ele>1609.3800000000001</ele>
        <time>2013-09-08T13:43:20Z</time>
      </trkpt>
      <trkpt lat="42.478020200505853" lon="13.541701259091496">
        <ele>1608.9000000000001</ele>
        <time>2013-09-08T13:43:44Z</time>
      </trkpt>
      <trkpt lat="42.477988181635737" lon="13.541678627952933">
        <ele>1608.9000000000001</ele>
        <time>2013-09-08T13:44:04Z</time>
      </trkpt>
      <trkpt lat="42.477993378415704" lon="13.541696397587657">
        <ele>1608.9000000000001</ele>
        <time>2013-09-08T13:44:22Z</time>
      </trkpt>
      <trkpt lat="42.47801567427814" lon="13.541715759783983">
        <ele>1610.3499999999999</ele>
        <time>2013-09-08T13:44:43Z</time>
      </trkpt>
      <trkpt lat="42.478002263233066" lon="13.54172196239233">
        <ele>1610.3499999999999</ele>
        <time>2013-09-08T13:44:54Z</time>
      </trkpt>
      <trkpt lat="42.4780332762748" lon="13.541725315153599">
        <ele>1610.3499999999999</ele>
        <time>2013-09-08T13:45:15Z</time>
      </trkpt>
      <trkpt lat="42.478023804724216" lon="13.541702767834067">
        <ele>1610.3499999999999</ele>
        <time>2013-09-08T13:45:36Z</time>
      </trkpt>
      <trkpt lat="42.477995809167624" lon="13.541651051491499">
        <ele>1609.8599999999999</ele>
        <time>2013-09-08T13:46:01Z</time>
      </trkpt>
      <trkpt lat="42.478001089766622" lon="13.541706120595336">
        <ele>1609.8599999999999</ele>
        <time>2013-09-08T13:46:21Z</time>
      </trkpt>
      <trkpt lat="42.47799614444375" lon="13.541692877188325">
        <ele>1609.3800000000001</ele>
        <time>2013-09-08T13:46:48Z</time>
      </trkpt>
      <trkpt lat="42.477977368980646" lon="13.541697319597006">
        <ele>1609.3800000000001</ele>
        <time>2013-09-08T13:47:20Z</time>
      </trkpt>
      <trkpt lat="42.478003352880478" lon="13.541703354567289">
        <ele>1609.3800000000001</ele>
        <time>2013-09-08T13:48:02Z</time>
      </trkpt>
      <trkpt lat="42.477991450577974" lon="13.541714251041412">
        <ele>1609.8599999999999</ele>
        <time>2013-09-08T13:48:39Z</time>
      </trkpt>
      <trkpt lat="42.477981811389327" lon="13.541699331253767">
        <ele>1609.8599999999999</ele>
        <time>2013-09-08T13:49:18Z</time>
      </trkpt>
      <trkpt lat="42.478001927956939" lon="13.541724979877472">
        <ele>1609.3800000000001</ele>
        <time>2013-09-08T13:50:02Z</time>
      </trkpt>
      <trkpt lat="42.477999916300178" lon="13.541709389537573">
        <ele>1609.3800000000001</ele>
        <time>2013-09-08T13:50:34Z</time>
      </trkpt>
      <trkpt lat="42.477989187464118" lon="13.541696732863784">
        <ele>1609.3800000000001</ele>
        <time>2013-09-08T13:51:05Z</time>
      </trkpt>
      <trkpt lat="42.477976614609361" lon="13.54171559214592">
        <ele>1608.9000000000001</ele>
        <time>2013-09-08T13:51:47Z</time>
      </trkpt>
      <trkpt lat="42.477972339838743" lon="13.541711149737239">
        <ele>1610.3499999999999</ele>
        <time>2013-09-08T13:52:12Z</time>
      </trkpt>
      <trkpt lat="42.47803914360702" lon="13.541688099503517">
        <ele>1609.8599999999999</ele>
        <time>2013-09-08T13:52:25Z</time>
      </trkpt>
      <trkpt lat="42.478010142222047" lon="13.541680304333568">
        <ele>1610.3499999999999</ele>
        <time>2013-09-08T13:52:44Z</time>
      </trkpt>
      <trkpt lat="42.478021457791328" lon="13.541679801419377">
        <ele>1609.3800000000001</ele>
        <time>2013-09-08T13:52:57Z</time>
      </trkpt>
      <trkpt lat="42.478028163313866" lon="13.541705198585987">
        <ele>1608.9000000000001</ele>
        <time>2013-09-08T13:53:12Z</time>
      </trkpt>
      <trkpt lat="42.47805280610919" lon="13.541682986542583">
        <ele>1609.3800000000001</ele>
        <time>2013-09-08T13:53:31Z</time>
      </trkpt>
      <trkpt lat="42.478122878819704" lon="13.541665552183986">
        <ele>1608.9000000000001</ele>
        <time>2013-09-08T13:53:41Z</time>
      </trkpt>
      <trkpt lat="42.478270316496491" lon="13.54169656522572">
        <ele>1607.46</ele>
        <time>2013-09-08T13:53:56Z</time>
      </trkpt>
      <trkpt lat="42.478384478017688" lon="13.541720286011696">
        <ele>1607.46</ele>
        <time>2013-09-08T13:54:10Z</time>
      </trkpt>
      <trkpt lat="42.478512302041054" lon="13.541748533025384">
        <ele>1606.02</ele>
        <time>2013-09-08T13:54:24Z</time>
      </trkpt>
      <trkpt lat="42.47855169698596" lon="13.541757501661777">
        <ele>1606.5</ele>
        <time>2013-09-08T13:54:28Z</time>
      </trkpt>
      <trkpt lat="42.478616405278444" lon="13.5417908616364">
        <ele>1605.54</ele>
        <time>2013-09-08T13:54:35Z</time>
      </trkpt>
      <trkpt lat="42.47873249463737" lon="13.541762614622712">
        <ele>1604.5799999999999</ele>
        <time>2013-09-08T13:54:48Z</time>
      </trkpt>
      <trkpt lat="42.478736685588956" lon="13.54176102206111">
        <ele>1604.5799999999999</ele>
        <time>2013-09-08T13:54:49Z</time>
      </trkpt>
      <trkpt lat="42.478756383061409" lon="13.541753981262445">
        <ele>1604.0999999999999</ele>
        <time>2013-09-08T13:54:51Z</time>
      </trkpt>
      <trkpt lat="42.478778259828687" lon="13.54174492880702">
        <ele>1603.6199999999999</ele>
        <time>2013-09-08T13:54:53Z</time>
      </trkpt>
      <trkpt lat="42.478947741910815" lon="13.541797902435064">
        <ele>1601.6900000000001</ele>
        <time>2013-09-08T13:55:08Z</time>
      </trkpt>
      <trkpt lat="42.479015216231346" lon="13.541821874678135">
        <ele>1601.6900000000001</ele>
        <time>2013-09-08T13:55:16Z</time>
      </trkpt>
      <trkpt lat="42.479087635874748" lon="13.541861521080136">
        <ele>1600.73</ele>
        <time>2013-09-08T13:55:24Z</time>
      </trkpt>
      <trkpt lat="42.47921914793551" lon="13.541980208829045">
        <ele>1599.77</ele>
        <time>2013-09-08T13:55:38Z</time>
      </trkpt>
      <trkpt lat="42.479334231466055" lon="13.542066877707839">
        <ele>1598.8099999999999</ele>
        <time>2013-09-08T13:55:52Z</time>
      </trkpt>
      <trkpt lat="42.479320485144854" lon="13.542099231854081">
        <ele>1597.8499999999999</ele>
        <time>2013-09-08T13:55:56Z</time>
      </trkpt>
      <trkpt lat="42.479341942816973" lon="13.542104093357921">
        <ele>1598.3299999999999</ele>
        <time>2013-09-08T13:55:58Z</time>
      </trkpt>
      <trkpt lat="42.47945811599493" lon="13.542114151641726">
        <ele>1596.8900000000001</ele>
        <time>2013-09-08T13:56:12Z</time>
      </trkpt>
      <trkpt lat="42.479462893679738" lon="13.542114151641726">
        <ele>1596.8900000000001</ele>
        <time>2013-09-08T13:56:16Z</time>
      </trkpt>
      <trkpt lat="42.479522237554193" lon="13.542125131934881">
        <ele>1595.9300000000001</ele>
        <time>2013-09-08T13:56:23Z</time>
      </trkpt>
      <trkpt lat="42.479596585035324" lon="13.542208364233375">
        <ele>1594</ele>
        <time>2013-09-08T13:56:35Z</time>
      </trkpt>
      <trkpt lat="42.479618126526475" lon="13.542318670079112">
        <ele>1594</ele>
        <time>2013-09-08T13:56:44Z</time>
      </trkpt>
      <trkpt lat="42.479656683281064" lon="13.542348509654403">
        <ele>1594.48</ele>
        <time>2013-09-08T13:56:53Z</time>
      </trkpt>
      <trkpt lat="42.479710411280394" lon="13.542325040325522">
        <ele>1592.5599999999999</ele>
        <time>2013-09-08T13:57:01Z</time>
      </trkpt>
      <trkpt lat="42.479799762368202" lon="13.542291177436709">
        <ele>1590.1600000000001</ele>
        <time>2013-09-08T13:57:16Z</time>
      </trkpt>
      <trkpt lat="42.479824405163527" lon="13.542268462479115">
        <ele>1589.6800000000001</ele>
        <time>2013-09-08T13:57:23Z</time>
      </trkpt>
      <trkpt lat="42.479963293299079" lon="13.542322358116508">
        <ele>1588.24</ele>
        <time>2013-09-08T13:57:37Z</time>
      </trkpt>
      <trkpt lat="42.480055158957839" lon="13.542379690334201">
        <ele>1585.3499999999999</ele>
        <time>2013-09-08T13:57:51Z</time>
      </trkpt>
      <trkpt lat="42.480152891948819" lon="13.542409697547555">
        <ele>1583.9100000000001</ele>
        <time>2013-09-08T13:58:03Z</time>
      </trkpt>
      <trkpt lat="42.480230843648314" lon="13.54241237975657">
        <ele>1581.03</ele>
        <time>2013-09-08T13:58:16Z</time>
      </trkpt>
      <trkpt lat="42.480237884446979" lon="13.542417660355568">
        <ele>1581.03</ele>
        <time>2013-09-08T13:58:17Z</time>
      </trkpt>
      <trkpt lat="42.480349279940128" lon="13.542439956218004">
        <ele>1579.5799999999999</ele>
        <time>2013-09-08T13:58:31Z</time>
      </trkpt>
      <trkpt lat="42.480405103415251" lon="13.542428053915501">
        <ele>1578.6199999999999</ele>
        <time>2013-09-08T13:58:44Z</time>
      </trkpt>
      <trkpt lat="42.480446761474013" lon="13.542463844642043">
        <ele>1578.6199999999999</ele>
        <time>2013-09-08T13:58:50Z</time>
      </trkpt>
      <trkpt lat="42.480477774515748" lon="13.5424988809973">
        <ele>1577.6600000000001</ele>
        <time>2013-09-08T13:59:03Z</time>
      </trkpt>
      <trkpt lat="42.480493113398552" lon="13.542484631761909">
        <ele>1577.1800000000001</ele>
        <time>2013-09-08T13:59:06Z</time>
      </trkpt>
      <trkpt lat="42.480559414252639" lon="13.542467951774597">
        <ele>1575.74</ele>
        <time>2013-09-08T13:59:13Z</time>
      </trkpt>
      <trkpt lat="42.480652201920748" lon="13.542552189901471">
        <ele>1574.3</ele>
        <time>2013-09-08T13:59:26Z</time>
      </trkpt>
      <trkpt lat="42.480724034830928" lon="13.542568953707814">
        <ele>1573.8199999999999</ele>
        <time>2013-09-08T13:59:34Z</time>
      </trkpt>
      <trkpt lat="42.480856301262975" lon="13.54263567365706">
        <ele>1571.4100000000001</ele>
        <time>2013-09-08T13:59:50Z</time>
      </trkpt>
      <trkpt lat="42.480868371203542" lon="13.54263667948544">
        <ele>1570.9300000000001</ele>
        <time>2013-09-08T13:59:51Z</time>
      </trkpt>
      <trkpt lat="42.480936348438263" lon="13.54264791123569">
        <ele>1569.49</ele>
        <time>2013-09-08T13:59:57Z</time>
      </trkpt>
      <trkpt lat="42.480978006497025" lon="13.542632991448045">
        <ele>1569.01</ele>
        <time>2013-09-08T14:00:01Z</time>
      </trkpt>
      <trkpt lat="42.481033159419894" lon="13.542654616758227">
        <ele>1567.5699999999999</ele>
        <time>2013-09-08T14:00:08Z</time>
      </trkpt>
      <trkpt lat="42.481133742257953" lon="13.542703902348876">
        <ele>1565.1600000000001</ele>
        <time>2013-09-08T14:00:20Z</time>
      </trkpt>
      <trkpt lat="42.481254274025559" lon="13.542754277586937">
        <ele>1561.8</ele>
        <time>2013-09-08T14:00:33Z</time>
      </trkpt>
      <trkpt lat="42.481434484943748" lon="13.542795265093446">
        <ele>1558.4300000000001</ele>
        <time>2013-09-08T14:00:51Z</time>
      </trkpt>
      <trkpt lat="42.481585526838899" lon="13.54279107414186">
        <ele>1556.03</ele>
        <time>2013-09-08T14:01:06Z</time>
      </trkpt>
      <trkpt lat="42.481735311448574" lon="13.542837845161557">
        <ele>1553.6300000000001</ele>
        <time>2013-09-08T14:01:21Z</time>
      </trkpt>
      <trkpt lat="42.481894735246897" lon="13.542926274240017">
        <ele>1552.6700000000001</ele>
        <time>2013-09-08T14:01:37Z</time>
      </trkpt>
      <trkpt lat="42.482075281441212" lon="13.542992742732167">
        <ele>1550.26</ele>
        <time>2013-09-08T14:01:57Z</time>
      </trkpt>
      <trkpt lat="42.482202770188451" lon="13.543019900098443">
        <ele>1548.3399999999999</ele>
        <time>2013-09-08T14:02:10Z</time>
      </trkpt>
      <trkpt lat="42.482224814593792" lon="13.543019900098443">
        <ele>1547.8599999999999</ele>
        <time>2013-09-08T14:02:13Z</time>
      </trkpt>
      <trkpt lat="42.482367139309645" lon="13.543026857078075">
        <ele>1544.98</ele>
        <time>2013-09-08T14:02:28Z</time>
      </trkpt>
      <trkpt lat="42.482452383264899" lon="13.542995005846024">
        <ele>1542.0899999999999</ele>
        <time>2013-09-08T14:02:40Z</time>
      </trkpt>
      <trkpt lat="42.482562437653542" lon="13.54297773912549">
        <ele>1539.6900000000001</ele>
        <time>2013-09-08T14:02:53Z</time>
      </trkpt>
      <trkpt lat="42.482676180079579" lon="13.542988216504455">
        <ele>1537.29</ele>
        <time>2013-09-08T14:03:04Z</time>
      </trkpt>
      <trkpt lat="42.482777936384082" lon="13.543008416891098">
        <ele>1535.8399999999999</ele>
        <time>2013-09-08T14:03:16Z</time>
      </trkpt>
      <trkpt lat="42.482806602492929" lon="13.542997520416975">
        <ele>1535.8399999999999</ele>
        <time>2013-09-08T14:03:25Z</time>
      </trkpt>
      <trkpt lat="42.482859157025814" lon="13.542974973097444">
        <ele>1535.3599999999999</ele>
        <time>2013-09-08T14:03:31Z</time>
      </trkpt>
      <trkpt lat="42.482962254434824" lon="13.542934488505125">
        <ele>1533.4400000000001</ele>
        <time>2013-09-08T14:03:44Z</time>
      </trkpt>
      <trkpt lat="42.482970468699932" lon="13.542927447706461">
        <ele>1533.4400000000001</ele>
        <time>2013-09-08T14:03:45Z</time>
      </trkpt>
      <trkpt lat="42.483120504766703" lon="13.542919149622321">
        <ele>1529.5899999999999</ele>
        <time>2013-09-08T14:04:01Z</time>
      </trkpt>
      <trkpt lat="42.483129221946001" lon="13.54292250238359">
        <ele>1529.5899999999999</ele>
        <time>2013-09-08T14:04:02Z</time>
      </trkpt>
      <trkpt lat="42.483252938836813" lon="13.54291076771915">
        <ele>1525.75</ele>
        <time>2013-09-08T14:04:13Z</time>
      </trkpt>
      <trkpt lat="42.483273893594742" lon="13.542903140187263">
        <ele>1525.75</ele>
        <time>2013-09-08T14:04:15Z</time>
      </trkpt>
      <trkpt lat="42.483344469219446" lon="13.542859638109803">
        <ele>1523.3499999999999</ele>
        <time>2013-09-08T14:04:23Z</time>
      </trkpt>
      <trkpt lat="42.483363999053836" lon="13.542851926758885">
        <ele>1522.8699999999999</ele>
        <time>2013-09-08T14:04:26Z</time>
      </trkpt>
      <trkpt lat="42.483443208038807" lon="13.542818985879421">
        <ele>1520.46</ele>
        <time>2013-09-08T14:04:36Z</time>
      </trkpt>
      <trkpt lat="42.483464917168021" lon="13.542789397761226">
        <ele>1519.98</ele>
        <time>2013-09-08T14:04:39Z</time>
      </trkpt>
      <trkpt lat="42.483590058982372" lon="13.54281697422266">
        <ele>1517.0999999999999</ele>
        <time>2013-09-08T14:04:52Z</time>
      </trkpt>
      <trkpt lat="42.483618725091219" lon="13.542825020849705">
        <ele>1516.6199999999999</ele>
        <time>2013-09-08T14:04:56Z</time>
      </trkpt>
      <trkpt lat="42.483770940452814" lon="13.542789733037353">
        <ele>1512.77</ele>
        <time>2013-09-08T14:05:12Z</time>
      </trkpt>
      <trkpt lat="42.483859704807401" lon="13.542793756350875">
        <ele>1510.8499999999999</ele>
        <time>2013-09-08T14:05:23Z</time>
      </trkpt>
      <trkpt lat="42.483927849680185" lon="13.542828122153878">
        <ele>1508.9300000000001</ele>
        <time>2013-09-08T14:05:30Z</time>
      </trkpt>
      <trkpt lat="42.484057601541281" lon="13.542835749685764">
        <ele>1506.52</ele>
        <time>2013-09-08T14:05:44Z</time>
      </trkpt>
      <trkpt lat="42.484168410301208" lon="13.54281160980463">
        <ele>1505.5599999999999</ele>
        <time>2013-09-08T14:05:57Z</time>
      </trkpt>
      <trkpt lat="42.484245607629418" lon="13.542704991996288">
        <ele>1503.1600000000001</ele>
        <time>2013-09-08T14:06:10Z</time>
      </trkpt>
      <trkpt lat="42.484317105263472" lon="13.542607007548213">
        <ele>1500.27</ele>
        <time>2013-09-08T14:06:23Z</time>
      </trkpt>
      <trkpt lat="42.484431099146605" lon="13.542590998113155">
        <ele>1497.8699999999999</ele>
        <time>2013-09-08T14:06:35Z</time>
      </trkpt>
      <trkpt lat="42.484488179907203" lon="13.542585968971252">
        <ele>1496.9100000000001</ele>
        <time>2013-09-08T14:06:40Z</time>
      </trkpt>
      <trkpt lat="42.484525060281157" lon="13.54260734282434">
        <ele>1496.9100000000001</ele>
        <time>2013-09-08T14:06:43Z</time>
      </trkpt>
      <trkpt lat="42.484693368896842" lon="13.542685378342867">
        <ele>1495.47</ele>
        <time>2013-09-08T14:07:00Z</time>
      </trkpt>
      <trkpt lat="42.484823372215033" lon="13.542712787166238">
        <ele>1494.03</ele>
        <time>2013-09-08T14:07:14Z</time>
      </trkpt>
      <trkpt lat="42.484993860125542" lon="13.542652521282434">
        <ele>1493.0599999999999</ele>
        <time>2013-09-08T14:07:32Z</time>
      </trkpt>
      <trkpt lat="42.48504750430584" lon="13.542636428028345">
        <ele>1492.5799999999999</ele>
        <time>2013-09-08T14:07:37Z</time>
      </trkpt>
      <trkpt lat="42.48509050346911" lon="13.542612371966243">
        <ele>1492.0999999999999</ele>
        <time>2013-09-08T14:07:41Z</time>
      </trkpt>
      <trkpt lat="42.48514917679131" lon="13.542539281770587">
        <ele>1492.5799999999999</ele>
        <time>2013-09-08T14:07:49Z</time>
      </trkpt>
      <trkpt lat="42.48519167304039" lon="13.542473400011659">
        <ele>1493.55</ele>
        <time>2013-09-08T14:08:04Z</time>
      </trkpt>
      <trkpt lat="42.485203742980957" lon="13.542472645640373">
        <ele>1493.0599999999999</ele>
        <time>2013-09-08T14:08:25Z</time>
      </trkpt>
      <trkpt lat="42.48523416928947" lon="13.542440794408321">
        <ele>1492.5799999999999</ele>
        <time>2013-09-08T14:08:39Z</time>
      </trkpt>
      <trkpt lat="42.485233163461089" lon="13.542370805516839">
        <ele>1492.0999999999999</ele>
        <time>2013-09-08T14:08:53Z</time>
      </trkpt>
      <trkpt lat="42.485304912552238" lon="13.542434340342879">
        <ele>1490.6600000000001</ele>
        <time>2013-09-08T14:09:10Z</time>
      </trkpt>
      <trkpt lat="42.485307678580284" lon="13.542427131906152">
        <ele>1489.7</ele>
        <time>2013-09-08T14:09:21Z</time>
      </trkpt>
      <trkpt lat="42.485301224514842" lon="13.542413637042046">
        <ele>1490.6600000000001</ele>
        <time>2013-09-08T14:09:23Z</time>
      </trkpt>
      <trkpt lat="42.485395185649395" lon="13.542384300380945">
        <ele>1488.26</ele>
        <time>2013-09-08T14:09:36Z</time>
      </trkpt>
      <trkpt lat="42.485512113198638" lon="13.542418666183949">
        <ele>1485.8499999999999</ele>
        <time>2013-09-08T14:09:50Z</time>
      </trkpt>
      <trkpt lat="42.485616467893124" lon="13.542404668405652">
        <ele>1483.9300000000001</ele>
        <time>2013-09-08T14:10:00Z</time>
      </trkpt>
      <trkpt lat="42.485714536160231" lon="13.542413888499141">
        <ele>1482.97</ele>
        <time>2013-09-08T14:10:10Z</time>
      </trkpt>
      <trkpt lat="42.48579123057425" lon="13.542584711685777">
        <ele>1479.6099999999999</ele>
        <time>2013-09-08T14:10:25Z</time>
      </trkpt>
      <trkpt lat="42.485848646610975" lon="13.542667357251048">
        <ele>1476.24</ele>
        <time>2013-09-08T14:10:35Z</time>
      </trkpt>
      <trkpt lat="42.485903296619654" lon="13.542720666155219">
        <ele>1473.8399999999999</ele>
        <time>2013-09-08T14:10:45Z</time>
      </trkpt>
      <trkpt lat="42.485941601917148" lon="13.542711278423667">
        <ele>1472.8800000000001</ele>
        <time>2013-09-08T14:11:00Z</time>
      </trkpt>
      <trkpt lat="42.485937410965562" lon="13.54273583739996">
        <ele>1472.8800000000001</ele>
        <time>2013-09-08T14:11:15Z</time>
      </trkpt>
      <trkpt lat="42.485969346016645" lon="13.542788391932845">
        <ele>1471.4400000000001</ele>
        <time>2013-09-08T14:11:27Z</time>
      </trkpt>
      <trkpt lat="42.485964819788933" lon="13.542758552357554">
        <ele>1471.4400000000001</ele>
        <time>2013-09-08T14:11:47Z</time>
      </trkpt>
      <trkpt lat="42.486026594415307" lon="13.542773891240358">
        <ele>1469.51</ele>
        <time>2013-09-08T14:11:59Z</time>
      </trkpt>
      <trkpt lat="42.486090213060379" lon="13.542815716937184">
        <ele>1468.0699999999999</ele>
        <time>2013-09-08T14:12:10Z</time>
      </trkpt>
      <trkpt lat="42.486180318519473" lon="13.5429323092103">
        <ele>1466.6300000000001</ele>
        <time>2013-09-08T14:12:24Z</time>
      </trkpt>
      <trkpt lat="42.48619775287807" lon="13.542949911206961">
        <ele>1466.1500000000001</ele>
        <time>2013-09-08T14:12:26Z</time>
      </trkpt>
      <trkpt lat="42.486272603273392" lon="13.54312433861196">
        <ele>1464.23</ele>
        <time>2013-09-08T14:12:41Z</time>
      </trkpt>
      <trkpt lat="42.486309316009283" lon="13.543213438242674">
        <ele>1463.26</ele>
        <time>2013-09-08T14:12:49Z</time>
      </trkpt>
      <trkpt lat="42.486318787559867" lon="13.543268674984574">
        <ele>1463.26</ele>
        <time>2013-09-08T14:12:54Z</time>
      </trkpt>
      <trkpt lat="42.486378718167543" lon="13.543500686064363">
        <ele>1463.26</ele>
        <time>2013-09-08T14:13:09Z</time>
      </trkpt>
      <trkpt lat="42.486472511664033" lon="13.543676286935806">
        <ele>1463.26</ele>
        <time>2013-09-08T14:13:25Z</time>
      </trkpt>
      <trkpt lat="42.486578961834311" lon="13.543824143707752">
        <ele>1462.3</ele>
        <time>2013-09-08T14:13:41Z</time>
      </trkpt>
      <trkpt lat="42.486661188304424" lon="13.5439183562994">
        <ele>1461.3399999999999</ele>
        <time>2013-09-08T14:13:54Z</time>
      </trkpt>
      <trkpt lat="42.486770069226623" lon="13.543993458151817">
        <ele>1460.8599999999999</ele>
        <time>2013-09-08T14:14:08Z</time>
      </trkpt>
      <trkpt lat="42.486842572689056" lon="13.544073840603232">
        <ele>1458.46</ele>
        <time>2013-09-08T14:14:21Z</time>
      </trkpt>
      <trkpt lat="42.486888086423278" lon="13.54414944536984">
        <ele>1458.46</ele>
        <time>2013-09-08T14:14:39Z</time>
      </trkpt>
      <trkpt lat="42.48689261265099" lon="13.544160258024931">
        <ele>1458.46</ele>
        <time>2013-09-08T14:14:40Z</time>
      </trkpt>
      <trkpt lat="42.486969558522105" lon="13.544321106746793">
        <ele>1457.5</ele>
        <time>2013-09-08T14:14:56Z</time>
      </trkpt>
      <trkpt lat="42.487035943195224" lon="13.54441087692976">
        <ele>1457.02</ele>
        <time>2013-09-08T14:15:11Z</time>
      </trkpt>
      <trkpt lat="42.487140465527773" lon="13.544518835842609">
        <ele>1457.98</ele>
        <time>2013-09-08T14:15:26Z</time>
      </trkpt>
      <trkpt lat="42.487215315923095" lon="13.544605504721403">
        <ele>1459.9000000000001</ele>
        <time>2013-09-08T14:15:40Z</time>
      </trkpt>
      <trkpt lat="42.487279772758484" lon="13.544691419228911">
        <ele>1462.3</ele>
        <time>2013-09-08T14:15:54Z</time>
      </trkpt>
      <trkpt lat="42.487336602061987" lon="13.544757468625903">
        <ele>1464.71</ele>
        <time>2013-09-08T14:16:06Z</time>
      </trkpt>
      <trkpt lat="42.487417990341783" lon="13.544812621548772">
        <ele>1465.6700000000001</ele>
        <time>2013-09-08T14:16:19Z</time>
      </trkpt>
      <trkpt lat="42.487496109679341" lon="13.544875485822558">
        <ele>1468.0699999999999</ele>
        <time>2013-09-08T14:16:33Z</time>
      </trkpt>
      <trkpt lat="42.487519076094031" lon="13.544893255457282">
        <ele>1468.55</ele>
        <time>2013-09-08T14:16:38Z</time>
      </trkpt>
      <trkpt lat="42.487582443282008" lon="13.544968022033572">
        <ele>1469.51</ele>
        <time>2013-09-08T14:16:51Z</time>
      </trkpt>
      <trkpt lat="42.487629465758801" lon="13.545011943206191">
        <ele>1469.99</ele>
        <time>2013-09-08T14:16:57Z</time>
      </trkpt>
      <trkpt lat="42.487708423286676" lon="13.545094672590494">
        <ele>1471.4400000000001</ele>
        <time>2013-09-08T14:17:08Z</time>
      </trkpt>
      <trkpt lat="42.487845299765468" lon="13.545186202973127">
        <ele>1471.9200000000001</ele>
        <time>2013-09-08T14:17:24Z</time>
      </trkpt>
      <trkpt lat="42.487866254523396" lon="13.545197350904346">
        <ele>1471.4400000000001</ele>
        <time>2013-09-08T14:17:26Z</time>
      </trkpt>
      <trkpt lat="42.488013608381152" lon="13.545369599014521">
        <ele>1470.47</ele>
        <time>2013-09-08T14:17:44Z</time>
      </trkpt>
      <trkpt lat="42.48803062364459" lon="13.545376555994153">
        <ele>1470.47</ele>
        <time>2013-09-08T14:17:46Z</time>
      </trkpt>
      <trkpt lat="42.488063648343086" lon="13.545383848249912">
        <ele>1469.99</ele>
        <time>2013-09-08T14:17:49Z</time>
      </trkpt>
      <trkpt lat="42.488154843449593" lon="13.545538745820522">
        <ele>1469.51</ele>
        <time>2013-09-08T14:18:04Z</time>
      </trkpt>
      <trkpt lat="42.488170014694333" lon="13.545585181564093">
        <ele>1469.51</ele>
        <time>2013-09-08T14:18:08Z</time>
      </trkpt>
      <trkpt lat="42.488206392154098" lon="13.545701773837209">
        <ele>1469.51</ele>
        <time>2013-09-08T14:18:17Z</time>
      </trkpt>
      <trkpt lat="42.488318122923374" lon="13.545813672244549">
        <ele>1470.47</ele>
        <time>2013-09-08T14:18:31Z</time>
      </trkpt>
      <trkpt lat="42.488394314423203" lon="13.545917104929686">
        <ele>1471.9200000000001</ele>
        <time>2013-09-08T14:18:43Z</time>
      </trkpt>
      <trkpt lat="42.488474445417523" lon="13.546023303642869">
        <ele>1473.8399999999999</ele>
        <time>2013-09-08T14:18:56Z</time>
      </trkpt>
      <trkpt lat="42.488552145659924" lon="13.546128664165735">
        <ele>1475.28</ele>
        <time>2013-09-08T14:19:08Z</time>
      </trkpt>
      <trkpt lat="42.488635629415512" lon="13.54625103995204">
        <ele>1476.72</ele>
        <time>2013-09-08T14:19:22Z</time>
      </trkpt>
      <trkpt lat="42.488704780116677" lon="13.546361345797777">
        <ele>1479.6099999999999</ele>
        <time>2013-09-08T14:19:36Z</time>
      </trkpt>
      <trkpt lat="42.488764123991132" lon="13.546449607238173">
        <ele>1480.0899999999999</ele>
        <time>2013-09-08T14:19:48Z</time>
      </trkpt>
      <trkpt lat="42.488868897780776" lon="13.54658623225987">
        <ele>1482.49</ele>
        <time>2013-09-08T14:20:04Z</time>
      </trkpt>
      <trkpt lat="42.48897903598845" lon="13.546751020476222">
        <ele>1483.9300000000001</ele>
        <time>2013-09-08T14:20:21Z</time>
      </trkpt>
      <trkpt lat="42.48905380256474" lon="13.546865684911609">
        <ele>1485.3699999999999</ele>
        <time>2013-09-08T14:20:35Z</time>
      </trkpt>
      <trkpt lat="42.489137789234519" lon="13.546949084848166">
        <ele>1486.3399999999999</ele>
        <time>2013-09-08T14:20:47Z</time>
      </trkpt>
      <trkpt lat="42.489179447293282" lon="13.54700842872262">
        <ele>1486.8199999999999</ele>
        <time>2013-09-08T14:20:54Z</time>
      </trkpt>
      <trkpt lat="42.489198474213481" lon="13.547027036547661">
        <ele>1486.8199999999999</ele>
        <time>2013-09-08T14:20:57Z</time>
      </trkpt>
      <trkpt lat="42.489305008202791" lon="13.547172043472528">
        <ele>1487.78</ele>
        <time>2013-09-08T14:21:12Z</time>
      </trkpt>
      <trkpt lat="42.489320263266563" lon="13.547199703752995">
        <ele>1488.26</ele>
        <time>2013-09-08T14:21:15Z</time>
      </trkpt>
      <trkpt lat="42.489349767565727" lon="13.54729525744915">
        <ele>1489.7</ele>
        <time>2013-09-08T14:21:23Z</time>
      </trkpt>
      <trkpt lat="42.489380445331335" lon="13.54742375202477">
        <ele>1492.0999999999999</ele>
        <time>2013-09-08T14:21:36Z</time>
      </trkpt>
      <trkpt lat="42.489409111440182" lon="13.54754445143044">
        <ele>1494.99</ele>
        <time>2013-09-08T14:21:49Z</time>
      </trkpt>
      <trkpt lat="42.489449763670564" lon="13.547664731740952">
        <ele>1496.9100000000001</ele>
        <time>2013-09-08T14:22:03Z</time>
      </trkpt>
      <trkpt lat="42.489501228556037" lon="13.547778390347958">
        <ele>1499.79</ele>
        <time>2013-09-08T14:22:19Z</time>
      </trkpt>
      <trkpt lat="42.489507766440511" lon="13.547892300412059">
        <ele>1502.2</ele>
        <time>2013-09-08T14:22:33Z</time>
      </trkpt>
      <trkpt lat="42.489530481398106" lon="13.547991458326578">
        <ele>1505.0799999999999</ele>
        <time>2013-09-08T14:22:47Z</time>
      </trkpt>
      <trkpt lat="42.489573899656534" lon="13.548108218237758">
        <ele>1506.52</ele>
        <time>2013-09-08T14:22:59Z</time>
      </trkpt>
      <trkpt lat="42.489587981253862" lon="13.548122551292181">
        <ele>1507</ele>
        <time>2013-09-08T14:23:01Z</time>
      </trkpt>
      <trkpt lat="42.489666352048516" lon="13.54826370254159">
        <ele>1507.97</ele>
        <time>2013-09-08T14:23:16Z</time>
      </trkpt>
      <trkpt lat="42.489808006212115" lon="13.548380378633738">
        <ele>1508.45</ele>
        <time>2013-09-08T14:23:31Z</time>
      </trkpt>
      <trkpt lat="42.489965921267867" lon="13.548477608710527">
        <ele>1507.48</ele>
        <time>2013-09-08T14:23:48Z</time>
      </trkpt>
      <trkpt lat="42.490099780261517" lon="13.548558410257101">
        <ele>1507.48</ele>
        <time>2013-09-08T14:24:03Z</time>
      </trkpt>
      <trkpt lat="42.490112772211432" lon="13.548569893464446">
        <ele>1507.97</ele>
        <time>2013-09-08T14:24:05Z</time>
      </trkpt>
      <trkpt lat="42.490259539335966" lon="13.548614652827382">
        <ele>1507.97</ele>
        <time>2013-09-08T14:24:19Z</time>
      </trkpt>
      <trkpt lat="42.490384178236127" lon="13.548598559573293">
        <ele>1509.4100000000001</ele>
        <time>2013-09-08T14:24:32Z</time>
      </trkpt>
      <trkpt lat="42.490439498797059" lon="13.548603756353259">
        <ele>1509.8900000000001</ele>
        <time>2013-09-08T14:24:38Z</time>
      </trkpt>
      <trkpt lat="42.490456262603402" lon="13.548600738868117">
        <ele>1510.3699999999999</ele>
        <time>2013-09-08T14:24:40Z</time>
      </trkpt>
      <trkpt lat="42.490577213466167" lon="13.548594787716866">
        <ele>1512.29</ele>
        <time>2013-09-08T14:24:53Z</time>
      </trkpt>
      <trkpt lat="42.490599593147635" lon="13.548591351136565">
        <ele>1512.29</ele>
        <time>2013-09-08T14:24:55Z</time>
      </trkpt>
      <trkpt lat="42.490764632821083" lon="13.548610713332891">
        <ele>1513.73</ele>
        <time>2013-09-08T14:25:11Z</time>
      </trkpt>
      <trkpt lat="42.490929672494531" lon="13.54861699976027">
        <ele>1514.21</ele>
        <time>2013-09-08T14:25:27Z</time>
      </trkpt>
      <trkpt lat="42.491074092686176" lon="13.548598056659102">
        <ele>1515.6600000000001</ele>
        <time>2013-09-08T14:25:41Z</time>
      </trkpt>
      <trkpt lat="42.491203844547272" lon="13.548560924828053">
        <ele>1516.1400000000001</ele>
        <time>2013-09-08T14:25:53Z</time>
      </trkpt>
      <trkpt lat="42.491323286667466" lon="13.548546843230724">
        <ele>1517.5799999999999</ele>
        <time>2013-09-08T14:26:06Z</time>
      </trkpt>
      <trkpt lat="42.49144658446312" lon="13.548509879037738">
        <ele>1519.5</ele>
        <time>2013-09-08T14:26:19Z</time>
      </trkpt>
      <trkpt lat="42.491554543375969" lon="13.548445086926222">
        <ele>1520.46</ele>
        <time>2013-09-08T14:26:31Z</time>
      </trkpt>
      <trkpt lat="42.491682032123208" lon="13.54838146828115">
        <ele>1520.9400000000001</ele>
        <time>2013-09-08T14:26:44Z</time>
      </trkpt>
      <trkpt lat="42.49179451726377" lon="13.548368392512202">
        <ele>1521.9000000000001</ele>
        <time>2013-09-08T14:26:55Z</time>
      </trkpt>
      <trkpt lat="42.491803653538227" lon="13.548363447189331">
        <ele>1521.9000000000001</ele>
        <time>2013-09-08T14:26:56Z</time>
      </trkpt>
      <trkpt lat="42.491945391520858" lon="13.548320112749934">
        <ele>1524.3099999999999</ele>
        <time>2013-09-08T14:27:11Z</time>
      </trkpt>
      <trkpt lat="42.49203591607511" lon="13.548336625099182">
        <ele>1524.3099999999999</ele>
        <time>2013-09-08T14:27:20Z</time>
      </trkpt>
      <trkpt lat="42.492181928828359" lon="13.548349449411035">
        <ele>1522.3900000000001</ele>
        <time>2013-09-08T14:27:33Z</time>
      </trkpt>
      <trkpt lat="42.4922333098948" lon="13.548368979245424">
        <ele>1522.8699999999999</ele>
        <time>2013-09-08T14:27:38Z</time>
      </trkpt>
      <trkpt lat="42.492375550791621" lon="13.548411559313536">
        <ele>1524.3099999999999</ele>
        <time>2013-09-08T14:27:51Z</time>
      </trkpt>
      <trkpt lat="42.492520809173584" lon="13.548452211543918">
        <ele>1526.23</ele>
        <time>2013-09-08T14:28:05Z</time>
      </trkpt>
      <trkpt lat="42.492588283494115" lon="13.548457575961947">
        <ele>1527.6700000000001</ele>
        <time>2013-09-08T14:28:12Z</time>
      </trkpt>
      <trkpt lat="42.492634300142527" lon="13.548469142988324">
        <ele>1528.1500000000001</ele>
        <time>2013-09-08T14:28:17Z</time>
      </trkpt>
      <trkpt lat="42.492699762806296" lon="13.548472411930561">
        <ele>1529.5899999999999</ele>
        <time>2013-09-08T14:28:25Z</time>
      </trkpt>
      <trkpt lat="42.492827083915472" lon="13.548512477427721">
        <ele>1532</ele>
        <time>2013-09-08T14:28:40Z</time>
      </trkpt>
      <trkpt lat="42.492905370891094" lon="13.548604091629386">
        <ele>1534.4000000000001</ele>
        <time>2013-09-08T14:28:53Z</time>
      </trkpt>
      <trkpt lat="42.492966642603278" lon="13.548667458817363">
        <ele>1536.8</ele>
        <time>2013-09-08T14:29:04Z</time>
      </trkpt>
      <trkpt lat="42.492996817454696" lon="13.548703836277127">
        <ele>1537.77</ele>
        <time>2013-09-08T14:29:10Z</time>
      </trkpt>
      <trkpt lat="42.493028752505779" lon="13.548761503770947">
        <ele>1539.6900000000001</ele>
        <time>2013-09-08T14:29:16Z</time>
      </trkpt>
      <trkpt lat="42.493108715862036" lon="13.548824032768607">
        <ele>1541.6099999999999</ele>
        <time>2013-09-08T14:29:29Z</time>
      </trkpt>
      <trkpt lat="42.493173256516457" lon="13.548942720517516">
        <ele>1544.01</ele>
        <time>2013-09-08T14:29:41Z</time>
      </trkpt>
      <trkpt lat="42.493262607604265" lon="13.549063419923186">
        <ele>1546.4200000000001</ele>
        <time>2013-09-08T14:29:55Z</time>
      </trkpt>
      <trkpt lat="42.493348522111773" lon="13.549225274473429">
        <ele>1547.3800000000001</ele>
        <time>2013-09-08T14:30:09Z</time>
      </trkpt>
      <trkpt lat="42.493399316444993" lon="13.549308758229017">
        <ele>1546.9000000000001</ele>
        <time>2013-09-08T14:30:17Z</time>
      </trkpt>
      <trkpt lat="42.493512975051999" lon="13.549463823437691">
        <ele>1546.4200000000001</ele>
        <time>2013-09-08T14:30:31Z</time>
      </trkpt>
      <trkpt lat="42.493584724143147" lon="13.549606651067734">
        <ele>1546.9000000000001</ele>
        <time>2013-09-08T14:30:44Z</time>
      </trkpt>
      <trkpt lat="42.493673656135798" lon="13.549758531153202">
        <ele>1545.46</ele>
        <time>2013-09-08T14:30:58Z</time>
      </trkpt>
      <trkpt lat="42.493694359436631" lon="13.549797926098108">
        <ele>1544.98</ele>
        <time>2013-09-08T14:31:02Z</time>
      </trkpt>
      <trkpt lat="42.493768371641636" lon="13.549898425117135">
        <ele>1543.53</ele>
        <time>2013-09-08T14:31:13Z</time>
      </trkpt>
      <trkpt lat="42.493830565363169" lon="13.550034295767546">
        <ele>1541.6099999999999</ele>
        <time>2013-09-08T14:31:26Z</time>
      </trkpt>
      <trkpt lat="42.493890998885036" lon="13.550193719565868">
        <ele>1539.21</ele>
        <time>2013-09-08T14:31:40Z</time>
      </trkpt>
      <trkpt lat="42.493932321667671" lon="13.55027049779892">
        <ele>1539.21</ele>
        <time>2013-09-08T14:31:54Z</time>
      </trkpt>
      <trkpt lat="42.494023432955146" lon="13.55041709728539">
        <ele>1537.77</ele>
        <time>2013-09-08T14:32:08Z</time>
      </trkpt>
      <trkpt lat="42.494112532585859" lon="13.550597140565515">
        <ele>1534.8800000000001</ele>
        <time>2013-09-08T14:32:24Z</time>
      </trkpt>
      <trkpt lat="42.494127033278346" lon="13.550642402842641">
        <ele>1534.8800000000001</ele>
        <time>2013-09-08T14:32:28Z</time>
      </trkpt>
      <trkpt lat="42.494178246706724" lon="13.550688922405243">
        <ele>1533.9200000000001</ele>
        <time>2013-09-08T14:32:44Z</time>
      </trkpt>
      <trkpt lat="42.494271453469992" lon="13.550771903246641">
        <ele>1532.48</ele>
        <time>2013-09-08T14:32:59Z</time>
      </trkpt>
      <trkpt lat="42.494323002174497" lon="13.550788667052984">
        <ele>1532.48</ele>
        <time>2013-09-08T14:33:14Z</time>
      </trkpt>
      <trkpt lat="42.494367426261306" lon="13.550797887146473">
        <ele>1532</ele>
        <time>2013-09-08T14:33:18Z</time>
      </trkpt>
      <trkpt lat="42.494412269443274" lon="13.550875084474683">
        <ele>1532.48</ele>
        <time>2013-09-08T14:33:28Z</time>
      </trkpt>
      <trkpt lat="42.494414867833257" lon="13.550890926271677">
        <ele>1531.52</ele>
        <time>2013-09-08T14:33:39Z</time>
      </trkpt>
      <trkpt lat="42.494445377960801" lon="13.550912216305733">
        <ele>1531.52</ele>
        <time>2013-09-08T14:34:05Z</time>
      </trkpt>
      <trkpt lat="42.494421824812889" lon="13.55087298899889">
        <ele>1531.04</ele>
        <time>2013-09-08T14:34:22Z</time>
      </trkpt>
      <trkpt lat="42.494395924732089" lon="13.550803083926439">
        <ele>1531.52</ele>
        <time>2013-09-08T14:34:40Z</time>
      </trkpt>
      <trkpt lat="42.49438276514411" lon="13.550806269049644">
        <ele>1531.04</ele>
        <time>2013-09-08T14:35:00Z</time>
      </trkpt>
      <trkpt lat="42.494415622204542" lon="13.550737537443638">
        <ele>1530.0799999999999</ele>
        <time>2013-09-08T14:35:12Z</time>
      </trkpt>
      <trkpt lat="42.494415203109384" lon="13.550737788900733">
        <ele>1530.0799999999999</ele>
        <time>2013-09-08T14:35:27Z</time>
      </trkpt>
      <trkpt lat="42.494404055178165" lon="13.550720773637295">
        <ele>1530.5599999999999</ele>
        <time>2013-09-08T14:35:49Z</time>
      </trkpt>
      <trkpt lat="42.494405061006546" lon="13.550719348713756">
        <ele>1530.0799999999999</ele>
        <time>2013-09-08T14:36:11Z</time>
      </trkpt>
      <trkpt lat="42.494387878105044" lon="13.550739632919431">
        <ele>1531.04</ele>
        <time>2013-09-08T14:36:35Z</time>
      </trkpt>
      <trkpt lat="42.494387375190854" lon="13.550722450017929">
        <ele>1530.5599999999999</ele>
        <time>2013-09-08T14:36:59Z</time>
      </trkpt>
      <trkpt lat="42.494384944438934" lon="13.550727814435959">
        <ele>1530.5599999999999</ele>
        <time>2013-09-08T14:37:16Z</time>
      </trkpt>
      <trkpt lat="42.494387207552791" lon="13.550737788900733">
        <ele>1531.04</ele>
        <time>2013-09-08T14:37:44Z</time>
      </trkpt>
      <trkpt lat="42.494388548657298" lon="13.550741896033287">
        <ele>1531.04</ele>
        <time>2013-09-08T14:38:10Z</time>
      </trkpt>
      <trkpt lat="42.494379412382841" lon="13.550760420039296">
        <ele>1531.52</ele>
        <time>2013-09-08T14:38:42Z</time>
      </trkpt>
      <trkpt lat="42.494354266673326" lon="13.550775423645973">
        <ele>1531.04</ele>
        <time>2013-09-08T14:39:08Z</time>
      </trkpt>
      <trkpt lat="42.494361810386181" lon="13.550778441131115">
        <ele>1531.52</ele>
        <time>2013-09-08T14:39:33Z</time>
      </trkpt>
      <trkpt lat="42.494370779022574" lon="13.550808364525437">
        <ele>1532.48</ele>
        <time>2013-09-08T14:40:05Z</time>
      </trkpt>
      <trkpt lat="42.494413945823908" lon="13.550748182460666">
        <ele>1532.96</ele>
        <time>2013-09-08T14:40:24Z</time>
      </trkpt>
      <trkpt lat="42.494432050734758" lon="13.550779111683369">
        <ele>1532.96</ele>
        <time>2013-09-08T14:40:48Z</time>
      </trkpt>
      <trkpt lat="42.49442576430738" lon="13.55073032900691">
        <ele>1532.48</ele>
        <time>2013-09-08T14:41:11Z</time>
      </trkpt>
      <trkpt lat="42.494470272213221" lon="13.55059739202261">
        <ele>1531.04</ele>
        <time>2013-09-08T14:41:25Z</time>
      </trkpt>
      <trkpt lat="42.494511008262634" lon="13.550537209957838">
        <ele>1529.5899999999999</ele>
        <time>2013-09-08T14:41:37Z</time>
      </trkpt>
      <trkpt lat="42.494525257498026" lon="13.55053243227303">
        <ele>1529.5899999999999</ele>
        <time>2013-09-08T14:41:39Z</time>
      </trkpt>
      <trkpt lat="42.494607651606202" lon="13.550426149740815">
        <ele>1528.6300000000001</ele>
        <time>2013-09-08T14:41:51Z</time>
      </trkpt>
      <trkpt lat="42.49464126303792" lon="13.550379211083055">
        <ele>1527.1900000000001</ele>
        <time>2013-09-08T14:41:56Z</time>
      </trkpt>
      <trkpt lat="42.494801105931401" lon="13.550352640450001">
        <ele>1524.3099999999999</ele>
        <time>2013-09-08T14:42:12Z</time>
      </trkpt>
      <trkpt lat="42.494959020987153" lon="13.55034870095551">
        <ele>1521.9000000000001</ele>
        <time>2013-09-08T14:42:27Z</time>
      </trkpt>
      <trkpt lat="42.495044264942408" lon="13.550341408699751">
        <ele>1520.9400000000001</ele>
        <time>2013-09-08T14:42:35Z</time>
      </trkpt>
      <trkpt lat="42.495107464492321" lon="13.550383988767862">
        <ele>1519.98</ele>
        <time>2013-09-08T14:42:43Z</time>
      </trkpt>
      <trkpt lat="42.495114421471953" lon="13.550507705658674">
        <ele>1519.98</ele>
        <time>2013-09-08T14:42:56Z</time>
      </trkpt>
      <trkpt lat="42.49511132016778" lon="13.550527486950159">
        <ele>1519.5</ele>
        <time>2013-09-08T14:42:58Z</time>
      </trkpt>
      <trkpt lat="42.495135208591819" lon="13.55061449110508">
        <ele>1518.0599999999999</ele>
        <time>2013-09-08T14:43:07Z</time>
      </trkpt>
      <trkpt lat="42.495141914114356" lon="13.550624884665012">
        <ele>1518.0599999999999</ele>
        <time>2013-09-08T14:43:08Z</time>
      </trkpt>
      <trkpt lat="42.495271079242229" lon="13.550715493038297">
        <ele>1516.1400000000001</ele>
        <time>2013-09-08T14:43:22Z</time>
      </trkpt>
      <trkpt lat="42.495330674573779" lon="13.550710882991552">
        <ele>1514.6900000000001</ele>
        <time>2013-09-08T14:43:31Z</time>
      </trkpt>
      <trkpt lat="42.495385659858584" lon="13.550743237137794">
        <ele>1513.25</ele>
        <time>2013-09-08T14:43:40Z</time>
      </trkpt>
      <trkpt lat="42.495435196906328" lon="13.550804508849978">
        <ele>1512.29</ele>
        <time>2013-09-08T14:43:47Z</time>
      </trkpt>
      <trkpt lat="42.495481800287962" lon="13.550872402265668">
        <ele>1511.3299999999999</ele>
        <time>2013-09-08T14:44:02Z</time>
      </trkpt>
      <trkpt lat="42.495570229366422" lon="13.55100492015481">
        <ele>1510.3699999999999</ele>
        <time>2013-09-08T14:44:16Z</time>
      </trkpt>
      <trkpt lat="42.495678523555398" lon="13.551130816340446">
        <ele>1507.97</ele>
        <time>2013-09-08T14:44:32Z</time>
      </trkpt>
      <trkpt lat="42.495789835229516" lon="13.551205582916737">
        <ele>1506.52</ele>
        <time>2013-09-08T14:44:46Z</time>
      </trkpt>
      <trkpt lat="42.495884131640196" lon="13.551281271502376">
        <ele>1506.04</ele>
        <time>2013-09-08T14:44:59Z</time>
      </trkpt>
      <trkpt lat="42.49597180634737" lon="13.551364755257964">
        <ele>1505.0799999999999</ele>
        <time>2013-09-08T14:45:11Z</time>
      </trkpt>
      <trkpt lat="42.496103988960385" lon="13.551415298134089">
        <ele>1503.1600000000001</ele>
        <time>2013-09-08T14:45:26Z</time>
      </trkpt>
      <trkpt lat="42.496214713901281" lon="13.551467098295689">
        <ele>1501.24</ele>
        <time>2013-09-08T14:45:41Z</time>
      </trkpt>
      <trkpt lat="42.496348321437836" lon="13.551511690020561">
        <ele>1499.3099999999999</ele>
        <time>2013-09-08T14:45:55Z</time>
      </trkpt>
      <trkpt lat="42.496456950902939" lon="13.551594084128737">
        <ele>1497.3900000000001</ele>
        <time>2013-09-08T14:46:07Z</time>
      </trkpt>
      <trkpt lat="42.496555102989078" lon="13.551661977544427">
        <ele>1495.47</ele>
        <time>2013-09-08T14:46:20Z</time>
      </trkpt>
      <trkpt lat="42.496675886213779" lon="13.551677567884326">
        <ele>1493.0599999999999</ele>
        <time>2013-09-08T14:46:33Z</time>
      </trkpt>
      <trkpt lat="42.496798345819116" lon="13.551744958385825">
        <ele>1491.1400000000001</ele>
        <time>2013-09-08T14:46:46Z</time>
      </trkpt>
      <trkpt lat="42.49691535718739" lon="13.551767002791166">
        <ele>1488.74</ele>
        <time>2013-09-08T14:47:00Z</time>
      </trkpt>
      <trkpt lat="42.497042594477534" lon="13.551795249804854">
        <ele>1486.3399999999999</ele>
        <time>2013-09-08T14:47:16Z</time>
      </trkpt>
      <trkpt lat="42.49716212041676" lon="13.551797261461616">
        <ele>1484.4100000000001</ele>
        <time>2013-09-08T14:47:29Z</time>
      </trkpt>
      <trkpt lat="42.497253734618425" lon="13.551811259239912">
        <ele>1482.49</ele>
        <time>2013-09-08T14:47:40Z</time>
      </trkpt>
      <trkpt lat="42.497383486479521" lon="13.551858952268958">
        <ele>1479.1300000000001</ele>
        <time>2013-09-08T14:47:53Z</time>
      </trkpt>
      <trkpt lat="42.497487086802721" lon="13.551970096305013">
        <ele>1476.72</ele>
        <time>2013-09-08T14:48:06Z</time>
      </trkpt>
      <trkpt lat="42.497591860592365" lon="13.552073026075959">
        <ele>1473.8399999999999</ele>
        <time>2013-09-08T14:48:21Z</time>
      </trkpt>
      <trkpt lat="42.497693952172995" lon="13.552093645557761">
        <ele>1472.4000000000001</ele>
        <time>2013-09-08T14:48:30Z</time>
      </trkpt>
      <trkpt lat="42.497790344059467" lon="13.552172016352415">
        <ele>1471.4400000000001</ele>
        <time>2013-09-08T14:48:33Z</time>
      </trkpt>
      <trkpt lat="42.497909953817725" lon="13.552253488451242">
        <ele>1468.55</ele>
        <time>2013-09-08T14:48:48Z</time>
      </trkpt>
      <trkpt lat="42.498045237734914" lon="13.552343929186463">
        <ele>1465.6700000000001</ele>
        <time>2013-09-08T14:49:04Z</time>
      </trkpt>
      <trkpt lat="42.498156046494842" lon="13.552461275830865">
        <ele>1463.26</ele>
        <time>2013-09-08T14:49:18Z</time>
      </trkpt>
      <trkpt lat="42.498178007081151" lon="13.552490025758743">
        <ele>1463.26</ele>
        <time>2013-09-08T14:49:21Z</time>
      </trkpt>
      <trkpt lat="42.498185383155942" lon="13.552508717402816">
        <ele>1463.26</ele>
        <time>2013-09-08T14:49:22Z</time>
      </trkpt>
      <trkpt lat="42.4982790928334" lon="13.552654813975096">
        <ele>1461.8199999999999</ele>
        <time>2013-09-08T14:49:36Z</time>
      </trkpt>
      <trkpt lat="42.498366851359606" lon="13.552816333249211">
        <ele>1460.3800000000001</ele>
        <time>2013-09-08T14:49:50Z</time>
      </trkpt>
      <trkpt lat="42.498471792787313" lon="13.553016996011138">
        <ele>1459.4200000000001</ele>
        <time>2013-09-08T14:50:06Z</time>
      </trkpt>
      <trkpt lat="42.498575728386641" lon="13.553213886916637">
        <ele>1458.46</ele>
        <time>2013-09-08T14:50:22Z</time>
      </trkpt>
      <trkpt lat="42.498675808310509" lon="13.553404910489917">
        <ele>1457.98</ele>
        <time>2013-09-08T14:50:37Z</time>
      </trkpt>
      <trkpt lat="42.498777229338884" lon="13.553593503311276">
        <ele>1457.5</ele>
        <time>2013-09-08T14:50:53Z</time>
      </trkpt>
      <trkpt lat="42.498880745843053" lon="13.553806403651834">
        <ele>1456.05</ele>
        <time>2013-09-08T14:51:10Z</time>
      </trkpt>
      <trkpt lat="42.498973784968257" lon="13.553993655368686">
        <ele>1454.1300000000001</ele>
        <time>2013-09-08T14:51:26Z</time>
      </trkpt>
      <trkpt lat="42.499006809666753" lon="13.554062806069851">
        <ele>1452.6900000000001</ele>
        <time>2013-09-08T14:51:31Z</time>
      </trkpt>
      <trkpt lat="42.499112337827682" lon="13.554250812157989">
        <ele>1450.77</ele>
        <time>2013-09-08T14:51:47Z</time>
      </trkpt>
      <trkpt lat="42.499229181557894" lon="13.554496737197042">
        <ele>1449.8099999999999</ele>
        <time>2013-09-08T14:52:06Z</time>
      </trkpt>
      <trkpt lat="42.499363543465734" lon="13.554710727185011">
        <ele>1449.3199999999999</ele>
        <time>2013-09-08T14:52:24Z</time>
      </trkpt>
      <trkpt lat="42.499468149617314" lon="13.554870653897524">
        <ele>1448.8399999999999</ele>
        <time>2013-09-08T14:52:38Z</time>
      </trkpt>
      <trkpt lat="42.499584909528494" lon="13.555071484297514">
        <ele>1448.8399999999999</ele>
        <time>2013-09-08T14:52:55Z</time>
      </trkpt>
      <trkpt lat="42.499674009159207" lon="13.555229315534234">
        <ele>1449.3199999999999</ele>
        <time>2013-09-08T14:53:10Z</time>
      </trkpt>
      <trkpt lat="42.499678786844015" lon="13.555240295827389">
        <ele>1449.3199999999999</ele>
        <time>2013-09-08T14:53:11Z</time>
      </trkpt>
      <trkpt lat="42.499727066606283" lon="13.55534783564508">
        <ele>1448.3599999999999</ele>
        <time>2013-09-08T14:53:23Z</time>
      </trkpt>
      <trkpt lat="42.499796887859702" lon="13.555488064885139">
        <ele>1448.8399999999999</ele>
        <time>2013-09-08T14:53:36Z</time>
      </trkpt>
      <trkpt lat="42.499838629737496" lon="13.555714208632708">
        <ele>1449.8099999999999</ele>
        <time>2013-09-08T14:53:52Z</time>
      </trkpt>
      <trkpt lat="42.499863775447011" lon="13.555927779525518">
        <ele>1451.25</ele>
        <time>2013-09-08T14:54:09Z</time>
      </trkpt>
      <trkpt lat="42.499883221462369" lon="13.556019980460405">
        <ele>1451.73</ele>
        <time>2013-09-08T14:54:17Z</time>
      </trkpt>
      <trkpt lat="42.4999247957021" lon="13.556196838617325">
        <ele>1452.21</ele>
        <time>2013-09-08T14:54:31Z</time>
      </trkpt>
      <trkpt lat="42.499936865642667" lon="13.556280825287104">
        <ele>1452.21</ele>
        <time>2013-09-08T14:54:37Z</time>
      </trkpt>
      <trkpt lat="42.499945582821965" lon="13.556307731196284">
        <ele>1453.1700000000001</ele>
        <time>2013-09-08T14:54:39Z</time>
      </trkpt>
      <trkpt lat="42.499978020787239" lon="13.556520463898778">
        <ele>1453.1700000000001</ele>
        <time>2013-09-08T14:54:54Z</time>
      </trkpt>
      <trkpt lat="42.499986821785569" lon="13.556748954579234">
        <ele>1453.6500000000001</ele>
        <time>2013-09-08T14:55:10Z</time>
      </trkpt>
      <trkpt lat="42.499970393255353" lon="13.556898487731814">
        <ele>1454.1300000000001</ele>
        <time>2013-09-08T14:55:22Z</time>
      </trkpt>
      <trkpt lat="42.499973075464368" lon="13.556925980374217">
        <ele>1454.6099999999999</ele>
        <time>2013-09-08T14:55:24Z</time>
      </trkpt>
      <trkpt lat="42.499958742409945" lon="13.556994376704097">
        <ele>1455.0899999999999</ele>
        <time>2013-09-08T14:55:39Z</time>
      </trkpt>
      <trkpt lat="42.499966789036989" lon="13.557091187685728">
        <ele>1454.6099999999999</ele>
        <time>2013-09-08T14:55:48Z</time>
      </trkpt>
      <trkpt lat="42.499940721318126" lon="13.557266788557172">
        <ele>1455.5699999999999</ele>
        <time>2013-09-08T14:56:02Z</time>
      </trkpt>
      <trkpt lat="42.499892776831985" lon="13.557407604530454">
        <ele>1456.05</ele>
        <time>2013-09-08T14:56:14Z</time>
      </trkpt>
      <trkpt lat="42.499851118773222" lon="13.557607512921095">
        <ele>1457.02</ele>
        <time>2013-09-08T14:56:29Z</time>
      </trkpt>
      <trkpt lat="42.499811891466379" lon="13.557781521230936">
        <ele>1457.02</ele>
        <time>2013-09-08T14:56:43Z</time>
      </trkpt>
      <trkpt lat="42.499775514006615" lon="13.557984530925751">
        <ele>1458.46</ele>
        <time>2013-09-08T14:56:58Z</time>
      </trkpt>
      <trkpt lat="42.499758414924145" lon="13.558069774881005">
        <ele>1458.9400000000001</ele>
        <time>2013-09-08T14:57:05Z</time>
      </trkpt>
      <trkpt lat="42.499692365527153" lon="13.558256607502699">
        <ele>1459.9000000000001</ele>
        <time>2013-09-08T14:57:21Z</time>
      </trkpt>
      <trkpt lat="42.499605864286423" lon="13.558412343263626">
        <ele>1460.8599999999999</ele>
        <time>2013-09-08T14:57:36Z</time>
      </trkpt>
      <trkpt lat="42.499560182914138" lon="13.558510830625892">
        <ele>1461.3399999999999</ele>
        <time>2013-09-08T14:57:46Z</time>
      </trkpt>
      <trkpt lat="42.499558674171567" lon="13.558535473421216">
        <ele>1461.8199999999999</ele>
        <time>2013-09-08T14:57:48Z</time>
      </trkpt>
      <trkpt lat="42.49950947239995" lon="13.558705290779471">
        <ele>1461.8199999999999</ele>
        <time>2013-09-08T14:58:02Z</time>
      </trkpt>
      <trkpt lat="42.499479465186596" lon="13.558879215270281">
        <ele>1462.3</ele>
        <time>2013-09-08T14:58:17Z</time>
      </trkpt>
      <trkpt lat="42.499483153223991" lon="13.55904190801084">
        <ele>1462.78</ele>
        <time>2013-09-08T14:58:29Z</time>
      </trkpt>
      <trkpt lat="42.499487679451704" lon="13.55908440425992">
        <ele>1463.26</ele>
        <time>2013-09-08T14:58:32Z</time>
      </trkpt>
      <trkpt lat="42.499474352225661" lon="13.559283977374434">
        <ele>1463.74</ele>
        <time>2013-09-08T14:58:48Z</time>
      </trkpt>
      <trkpt lat="42.499454654753208" lon="13.55950802564621">
        <ele>1464.71</ele>
        <time>2013-09-08T14:59:05Z</time>
      </trkpt>
      <trkpt lat="42.499452056363225" lon="13.559521101415157">
        <ele>1464.71</ele>
        <time>2013-09-08T14:59:06Z</time>
      </trkpt>
      <trkpt lat="42.499420624226332" lon="13.559709107503295">
        <ele>1465.1900000000001</ele>
        <time>2013-09-08T14:59:22Z</time>
      </trkpt>
      <trkpt lat="42.499411907047033" lon="13.559923432767391">
        <ele>1465.6700000000001</ele>
        <time>2013-09-08T14:59:39Z</time>
      </trkpt>
      <trkpt lat="42.499390449374914" lon="13.560086963698268">
        <ele>1466.1500000000001</ele>
        <time>2013-09-08T14:59:53Z</time>
      </trkpt>
      <trkpt lat="42.499392125755548" lon="13.560235071927309">
        <ele>1466.6300000000001</ele>
        <time>2013-09-08T15:00:04Z</time>
      </trkpt>
      <trkpt lat="42.499285591766238" lon="13.560182601213455">
        <ele>1469.51</ele>
        <time>2013-09-08T15:00:19Z</time>
      </trkpt>
      <trkpt lat="42.499244939535856" lon="13.560100626200438">
        <ele>1470.95</ele>
        <time>2013-09-08T15:00:28Z</time>
      </trkpt>
      <trkpt lat="42.499231025576591" lon="13.56009291484952">
        <ele>1470.95</ele>
        <time>2013-09-08T15:00:31Z</time>
      </trkpt>
      <trkpt lat="42.499186182394624" lon="13.560025105252862">
        <ele>1472.8800000000001</ele>
        <time>2013-09-08T15:00:46Z</time>
      </trkpt>
      <trkpt lat="42.499208310618997" lon="13.560145301744342">
        <ele>1472.4000000000001</ele>
        <time>2013-09-08T15:01:01Z</time>
      </trkpt>
    </trkseg>
  </trk>

  <trk>
    <name>2-g-rif-franchetti2013-09-09 11:56:12</name>
    <extensions>
      <gpxx:TrackExtension>
        <gpxx:DisplayColor>Yellow</gpxx:DisplayColor>
      </gpxx:TrackExtension>
    </extensions>
    <trkseg>
      <trkpt lat="42.501526661217213" lon="13.578974073752761">
        <ele>1645.4300000000001</ele>
        <time>2013-09-09T06:59:38Z</time>
      </trkpt>
      <trkpt lat="42.501540491357446" lon="13.578986646607518">
        <ele>1643.99</ele>
        <time>2013-09-09T06:59:46Z</time>
      </trkpt>
      <trkpt lat="42.501493385061622" lon="13.579025790095329">
        <ele>1645.4300000000001</ele>
        <time>2013-09-09T06:59:54Z</time>
      </trkpt>
      <trkpt lat="42.501473519951105" lon="13.579050935804844">
        <ele>1648.8</ele>
        <time>2013-09-09T06:59:58Z</time>
      </trkpt>
      <trkpt lat="42.501458013430238" lon="13.579067112877965">
        <ele>1649.76</ele>
        <time>2013-09-09T07:00:00Z</time>
      </trkpt>
      <trkpt lat="42.501361286267638" lon="13.579215472564101">
        <ele>1649.76</ele>
        <time>2013-09-09T07:00:16Z</time>
      </trkpt>
      <trkpt lat="42.501199934631586" lon="13.579374980181456">
        <ele>1651.6800000000001</ele>
        <time>2013-09-09T07:00:30Z</time>
      </trkpt>
      <trkpt lat="42.501109158620238" lon="13.579454021528363">
        <ele>1654.5699999999999</ele>
        <time>2013-09-09T07:00:42Z</time>
      </trkpt>
      <trkpt lat="42.501091053709388" lon="13.579480424523354">
        <ele>1655.05</ele>
        <time>2013-09-09T07:00:45Z</time>
      </trkpt>
      <trkpt lat="42.501062219962478" lon="13.579518394544721">
        <ele>1656.97</ele>
        <time>2013-09-09T07:00:49Z</time>
      </trkpt>
      <trkpt lat="42.500937832519412" lon="13.579620067030191">
        <ele>1656.97</ele>
        <time>2013-09-09T07:01:03Z</time>
      </trkpt>
      <trkpt lat="42.500873375684023" lon="13.579655271023512">
        <ele>1657.45</ele>
        <time>2013-09-09T07:01:11Z</time>
      </trkpt>
      <trkpt lat="42.500748988240957" lon="13.579710759222507">
        <ele>1658.8900000000001</ele>
        <time>2013-09-09T07:01:27Z</time>
      </trkpt>
      <trkpt lat="42.500618230551481" lon="13.579762307927012">
        <ele>1660.3299999999999</ele>
        <time>2013-09-09T07:01:42Z</time>
      </trkpt>
      <trkpt lat="42.500498034060001" lon="13.57986917719245">
        <ele>1661.78</ele>
        <time>2013-09-09T07:01:58Z</time>
      </trkpt>
      <trkpt lat="42.500391416251659" lon="13.579958695918322">
        <ele>1664.1800000000001</ele>
        <time>2013-09-09T07:02:12Z</time>
      </trkpt>
      <trkpt lat="42.500261915847659" lon="13.580019632354379">
        <ele>1666.0999999999999</ele>
        <time>2013-09-09T07:02:28Z</time>
      </trkpt>
      <trkpt lat="42.500119926407933" lon="13.580111917108297">
        <ele>1667.0599999999999</ele>
        <time>2013-09-09T07:02:44Z</time>
      </trkpt>
      <trkpt lat="42.500091595575213" lon="13.580173691734672">
        <ele>1667.54</ele>
        <time>2013-09-09T07:02:50Z</time>
      </trkpt>
      <trkpt lat="42.499980283901095" lon="13.580276453867555">
        <ele>1670.9100000000001</ele>
        <time>2013-09-09T07:03:05Z</time>
      </trkpt>
      <trkpt lat="42.499850448220968" lon="13.58039790764451">
        <ele>1671.3900000000001</ele>
        <time>2013-09-09T07:03:21Z</time>
      </trkpt>
      <trkpt lat="42.49978163279593" lon="13.580483654513955">
        <ele>1674.75</ele>
        <time>2013-09-09T07:03:31Z</time>
      </trkpt>
      <trkpt lat="42.499680379405618" lon="13.580576609820127">
        <ele>1673.79</ele>
        <time>2013-09-09T07:03:44Z</time>
      </trkpt>
      <trkpt lat="42.49958180822432" lon="13.580699907615781">
        <ele>1674.75</ele>
        <time>2013-09-09T07:03:59Z</time>
      </trkpt>
      <trkpt lat="42.499521961435676" lon="13.580792108550668">
        <ele>1676.2</ele>
        <time>2013-09-09T07:04:12Z</time>
      </trkpt>
      <trkpt lat="42.499467227607965" lon="13.580855308100581">
        <ele>1675.72</ele>
        <time>2013-09-09T07:04:28Z</time>
      </trkpt>
      <trkpt lat="42.499448284506798" lon="13.580840723589063">
        <ele>1677.6400000000001</ele>
        <time>2013-09-09T07:04:33Z</time>
      </trkpt>
      <trkpt lat="42.499451972544193" lon="13.580836784094572">
        <ele>1678.5999999999999</ele>
        <time>2013-09-09T07:04:43Z</time>
      </trkpt>
      <trkpt lat="42.499406710267067" lon="13.580949436873198">
        <ele>1679.0799999999999</ele>
        <time>2013-09-09T07:04:55Z</time>
      </trkpt>
      <trkpt lat="42.499383827671409" lon="13.580968882888556">
        <ele>1679.5599999999999</ele>
        <time>2013-09-09T07:04:58Z</time>
      </trkpt>
      <trkpt lat="42.499282490462065" lon="13.581068376079202">
        <ele>1680.52</ele>
        <time>2013-09-09T07:05:12Z</time>
      </trkpt>
      <trkpt lat="42.499175537377596" lon="13.581109028309584">
        <ele>1683.4100000000001</ele>
        <time>2013-09-09T07:05:27Z</time>
      </trkpt>
      <trkpt lat="42.499074703082442" lon="13.581117913126945">
        <ele>1687.73</ele>
        <time>2013-09-09T07:05:39Z</time>
      </trkpt>
      <trkpt lat="42.498956015333533" lon="13.581121768802404">
        <ele>1687.73</ele>
        <time>2013-09-09T07:05:53Z</time>
      </trkpt>
      <trkpt lat="42.498850235715508" lon="13.581136101856828">
        <ele>1689.6500000000001</ele>
        <time>2013-09-09T07:06:06Z</time>
      </trkpt>
      <trkpt lat="42.498842608183622" lon="13.581136520951986">
        <ele>1689.6500000000001</ele>
        <time>2013-09-09T07:06:07Z</time>
      </trkpt>
      <trkpt lat="42.498706234619021" lon="13.581146914511919">
        <ele>1688.6900000000001</ele>
        <time>2013-09-09T07:06:22Z</time>
      </trkpt>
      <trkpt lat="42.498691063374281" lon="13.581103160977364">
        <ele>1689.6500000000001</ele>
        <time>2013-09-09T07:06:29Z</time>
      </trkpt>
      <trkpt lat="42.498691063374281" lon="13.581086397171021">
        <ele>1689.6500000000001</ele>
        <time>2013-09-09T07:06:42Z</time>
      </trkpt>
      <trkpt lat="42.498676646500826" lon="13.581101484596729">
        <ele>1690.6199999999999</ele>
        <time>2013-09-09T07:06:50Z</time>
      </trkpt>
      <trkpt lat="42.498666252940893" lon="13.581109028309584">
        <ele>1693.98</ele>
        <time>2013-09-09T07:06:57Z</time>
      </trkpt>
      <trkpt lat="42.498666336759925" lon="13.581111626699567">
        <ele>1693.02</ele>
        <time>2013-09-09T07:06:58Z</time>
      </trkpt>
      <trkpt lat="42.498665750026703" lon="13.581117242574692">
        <ele>1689.6500000000001</ele>
        <time>2013-09-09T07:07:00Z</time>
      </trkpt>
      <trkpt lat="42.498664828017354" lon="13.581120679154992">
        <ele>1689.6500000000001</ele>
        <time>2013-09-09T07:07:01Z</time>
      </trkpt>
      <trkpt lat="42.498657619580626" lon="13.581122439354658">
        <ele>1690.1400000000001</ele>
        <time>2013-09-09T07:07:02Z</time>
      </trkpt>
      <trkpt lat="42.498634569346905" lon="13.581119170412421">
        <ele>1691.0999999999999</ele>
        <time>2013-09-09T07:07:04Z</time>
      </trkpt>
      <trkpt lat="42.498611938208342" lon="13.581124283373356">
        <ele>1692.54</ele>
        <time>2013-09-09T07:07:06Z</time>
      </trkpt>
      <trkpt lat="42.498516049236059" lon="13.581143980845809">
        <ele>1693.02</ele>
        <time>2013-09-09T07:07:15Z</time>
      </trkpt>
      <trkpt lat="42.498342795297503" lon="13.581166695803404">
        <ele>1691.0999999999999</ele>
        <time>2013-09-09T07:07:31Z</time>
      </trkpt>
      <trkpt lat="42.498314632102847" lon="13.581165103241801">
        <ele>1693.02</ele>
        <time>2013-09-09T07:07:34Z</time>
      </trkpt>
      <trkpt lat="42.498311195522547" lon="13.581154709681869">
        <ele>1694.9400000000001</ele>
        <time>2013-09-09T07:07:46Z</time>
      </trkpt>
      <trkpt lat="42.498311195522547" lon="13.58114305883646">
        <ele>1694.9400000000001</ele>
        <time>2013-09-09T07:07:47Z</time>
      </trkpt>
      <trkpt lat="42.498310441151261" lon="13.581103244796395">
        <ele>1693.5</ele>
        <time>2013-09-09T07:07:51Z</time>
      </trkpt>
      <trkpt lat="42.498318152502179" lon="13.581067034974694">
        <ele>1689.6500000000001</ele>
        <time>2013-09-09T07:07:54Z</time>
      </trkpt>
      <trkpt lat="42.498330725356936" lon="13.58103459700942">
        <ele>1691.0999999999999</ele>
        <time>2013-09-09T07:07:57Z</time>
      </trkpt>
      <trkpt lat="42.498377161100507" lon="13.58095002360642">
        <ele>1693.02</ele>
        <time>2013-09-09T07:08:05Z</time>
      </trkpt>
      <trkpt lat="42.498413873836398" lon="13.580819936469197">
        <ele>1694.9400000000001</ele>
        <time>2013-09-09T07:08:19Z</time>
      </trkpt>
      <trkpt lat="42.498452598229051" lon="13.58073896728456">
        <ele>1695.9000000000001</ele>
        <time>2013-09-09T07:08:28Z</time>
      </trkpt>
      <trkpt lat="42.49845989048481" lon="13.580628242343664">
        <ele>1698.3099999999999</ele>
        <time>2013-09-09T07:08:41Z</time>
      </trkpt>
      <trkpt lat="42.498458046466112" lon="13.58062363229692">
        <ele>1698.79</ele>
        <time>2013-09-09T07:08:42Z</time>
      </trkpt>
      <trkpt lat="42.498473552986979" lon="13.580623967573047">
        <ele>1696.8599999999999</ele>
        <time>2013-09-09T07:08:51Z</time>
      </trkpt>
      <trkpt lat="42.498473720625043" lon="13.580636372789741">
        <ele>1698.3099999999999</ele>
        <time>2013-09-09T07:09:14Z</time>
      </trkpt>
      <trkpt lat="42.498460477218032" lon="13.580627236515284">
        <ele>1696.8599999999999</ele>
        <time>2013-09-09T07:09:20Z</time>
      </trkpt>
      <trkpt lat="42.498455867171288" lon="13.5806246381253">
        <ele>1694.9400000000001</ele>
        <time>2013-09-09T07:09:27Z</time>
      </trkpt>
      <trkpt lat="42.498459303751588" lon="13.580642910674214">
        <ele>1695.4200000000001</ele>
        <time>2013-09-09T07:09:38Z</time>
      </trkpt>
      <trkpt lat="42.498361067846417" lon="13.580571413040161">
        <ele>1698.3099999999999</ele>
        <time>2013-09-09T07:09:52Z</time>
      </trkpt>
      <trkpt lat="42.498351512476802" lon="13.580554230138659">
        <ele>1698.79</ele>
        <time>2013-09-09T07:09:54Z</time>
      </trkpt>
      <trkpt lat="42.498322846367955" lon="13.580444762483239">
        <ele>1699.27</ele>
        <time>2013-09-09T07:10:06Z</time>
      </trkpt>
      <trkpt lat="42.498300801962614" lon="13.580418024212122">
        <ele>1700.23</ele>
        <time>2013-09-09T07:10:10Z</time>
      </trkpt>
      <trkpt lat="42.498249253258109" lon="13.580286344513297">
        <ele>1702.1500000000001</ele>
        <time>2013-09-09T07:10:24Z</time>
      </trkpt>
      <trkpt lat="42.4982566293329" lon="13.580236053094268">
        <ele>1702.6300000000001</ele>
        <time>2013-09-09T07:10:29Z</time>
      </trkpt>
      <trkpt lat="42.498296778649092" lon="13.580130022019148">
        <ele>1703.1099999999999</ele>
        <time>2013-09-09T07:10:40Z</time>
      </trkpt>
      <trkpt lat="42.498341789469123" lon="13.580140583217144">
        <ele>1704.0699999999999</ele>
        <time>2013-09-09T07:10:49Z</time>
      </trkpt>
      <trkpt lat="42.498347740620375" lon="13.58014821074903">
        <ele>1704.55</ele>
        <time>2013-09-09T07:11:02Z</time>
      </trkpt>
      <trkpt lat="42.49834313057363" lon="13.580140331760049">
        <ele>1708.8800000000001</ele>
        <time>2013-09-09T07:11:09Z</time>
      </trkpt>
      <trkpt lat="42.498345645144582" lon="13.580110827460885">
        <ele>1711.76</ele>
        <time>2013-09-09T07:11:13Z</time>
      </trkpt>
      <trkpt lat="42.498358888551593" lon="13.580071600154042">
        <ele>1708.8800000000001</ele>
        <time>2013-09-09T07:11:18Z</time>
      </trkpt>
      <trkpt lat="42.498355619609356" lon="13.580055003985763">
        <ele>1707.9200000000001</ele>
        <time>2013-09-09T07:11:20Z</time>
      </trkpt>
      <trkpt lat="42.498473636806011" lon="13.579975459724665">
        <ele>1706.96</ele>
        <time>2013-09-09T07:11:37Z</time>
      </trkpt>
      <trkpt lat="42.498495848849416" lon="13.579954840242863">
        <ele>1706.48</ele>
        <time>2013-09-09T07:11:48Z</time>
      </trkpt>
      <trkpt lat="42.498630462214351" lon="13.579897759482265">
        <ele>1709.8399999999999</ele>
        <time>2013-09-09T07:12:03Z</time>
      </trkpt>
      <trkpt lat="42.498669689521194" lon="13.579796086996794">
        <ele>1712.25</ele>
        <time>2013-09-09T07:12:16Z</time>
      </trkpt>
      <trkpt lat="42.498736074194312" lon="13.579716291278601">
        <ele>1710.8</ele>
        <time>2013-09-09T07:12:27Z</time>
      </trkpt>
      <trkpt lat="42.498783180490136" lon="13.579593412578106">
        <ele>1714.1700000000001</ele>
        <time>2013-09-09T07:12:41Z</time>
      </trkpt>
      <trkpt lat="42.498702211305499" lon="13.579556029289961">
        <ele>1717.53</ele>
        <time>2013-09-09T07:12:55Z</time>
      </trkpt>
      <trkpt lat="42.498603388667107" lon="13.579544462263584">
        <ele>1720.9000000000001</ele>
        <time>2013-09-09T07:13:11Z</time>
      </trkpt>
      <trkpt lat="42.498611519113183" lon="13.579554855823517">
        <ele>1719.9400000000001</ele>
        <time>2013-09-09T07:13:23Z</time>
      </trkpt>
      <trkpt lat="42.498540775850415" lon="13.579507078975439">
        <ele>1721.3800000000001</ele>
        <time>2013-09-09T07:13:39Z</time>
      </trkpt>
      <trkpt lat="42.498513031750917" lon="13.57943776063621">
        <ele>1724.26</ele>
        <time>2013-09-09T07:13:48Z</time>
      </trkpt>
      <trkpt lat="42.498511271551251" lon="13.579428875818849">
        <ele>1724.74</ele>
        <time>2013-09-09T07:13:49Z</time>
      </trkpt>
      <trkpt lat="42.498438097536564" lon="13.579395096749067">
        <ele>1723.78</ele>
        <time>2013-09-09T07:14:02Z</time>
      </trkpt>
      <trkpt lat="42.498387303203344" lon="13.579337680712342">
        <ele>1727.6300000000001</ele>
        <time>2013-09-09T07:14:15Z</time>
      </trkpt>
      <trkpt lat="42.498385794460773" lon="13.579328879714012">
        <ele>1727.6300000000001</ele>
        <time>2013-09-09T07:14:16Z</time>
      </trkpt>
      <trkpt lat="42.498379591852427" lon="13.579322677105665">
        <ele>1729.0699999999999</ele>
        <time>2013-09-09T07:14:18Z</time>
      </trkpt>
      <trkpt lat="42.498358469456434" lon="13.57933022081852">
        <ele>1732.4300000000001</ele>
        <time>2013-09-09T07:14:22Z</time>
      </trkpt>
      <trkpt lat="42.498310692608356" lon="13.579307841137052">
        <ele>1735.8</ele>
        <time>2013-09-09T07:14:31Z</time>
      </trkpt>
      <trkpt lat="42.498302813619375" lon="13.579297615215182">
        <ele>1733.3900000000001</ele>
        <time>2013-09-09T07:14:34Z</time>
      </trkpt>
      <trkpt lat="42.498281272128224" lon="13.579284874722362">
        <ele>1729.55</ele>
        <time>2013-09-09T07:14:39Z</time>
      </trkpt>
      <trkpt lat="42.498254533857107" lon="13.57921103015542">
        <ele>1733.3900000000001</ele>
        <time>2013-09-09T07:14:51Z</time>
      </trkpt>
      <trkpt lat="42.498239446431398" lon="13.579206336289644">
        <ele>1735.3199999999999</ele>
        <time>2013-09-09T07:14:54Z</time>
      </trkpt>
      <trkpt lat="42.498208433389664" lon="13.579196780920029">
        <ele>1735.8</ele>
        <time>2013-09-09T07:14:59Z</time>
      </trkpt>
      <trkpt lat="42.498176246881485" lon="13.579143472015858">
        <ele>1733.8800000000001</ele>
        <time>2013-09-09T07:15:08Z</time>
      </trkpt>
      <trkpt lat="42.498172391206026" lon="13.579111956059933">
        <ele>1736.76</ele>
        <time>2013-09-09T07:15:13Z</time>
      </trkpt>
      <trkpt lat="42.498144898563623" lon="13.579086475074291">
        <ele>1732.9100000000001</ele>
        <time>2013-09-09T07:15:19Z</time>
      </trkpt>
      <trkpt lat="42.498139115050435" lon="13.57907859608531">
        <ele>1736.28</ele>
        <time>2013-09-09T07:15:21Z</time>
      </trkpt>
      <trkpt lat="42.498132241889834" lon="13.579073902219534">
        <ele>1735.8</ele>
        <time>2013-09-09T07:15:22Z</time>
      </trkpt>
      <trkpt lat="42.498126877471805" lon="13.579048672690988">
        <ele>1731.47</ele>
        <time>2013-09-09T07:15:26Z</time>
      </trkpt>
      <trkpt lat="42.498128302395344" lon="13.579043308272958">
        <ele>1731.95</ele>
        <time>2013-09-09T07:15:27Z</time>
      </trkpt>
      <trkpt lat="42.498106677085161" lon="13.579016150906682">
        <ele>1733.8800000000001</ele>
        <time>2013-09-09T07:15:32Z</time>
      </trkpt>
      <trkpt lat="42.498083543032408" lon="13.578993184491992">
        <ele>1734.8399999999999</ele>
        <time>2013-09-09T07:15:46Z</time>
      </trkpt>
      <trkpt lat="42.498053703457117" lon="13.578985556960106">
        <ele>1734.3599999999999</ele>
        <time>2013-09-09T07:16:08Z</time>
      </trkpt>
      <trkpt lat="42.498086309060454" lon="13.578961752355099">
        <ele>1736.76</ele>
        <time>2013-09-09T07:16:31Z</time>
      </trkpt>
      <trkpt lat="42.498097373172641" lon="13.578922357410192">
        <ele>1738.2</ele>
        <time>2013-09-09T07:16:52Z</time>
      </trkpt>
      <trkpt lat="42.498078094795346" lon="13.578925123438239">
        <ele>1738.6800000000001</ele>
        <time>2013-09-09T07:16:55Z</time>
      </trkpt>
      <trkpt lat="42.497977931052446" lon="13.578859241679311">
        <ele>1740.1199999999999</ele>
        <time>2013-09-09T07:17:09Z</time>
      </trkpt>
      <trkpt lat="42.497947588562965" lon="13.578731250017881">
        <ele>1740.5999999999999</ele>
        <time>2013-09-09T07:17:25Z</time>
      </trkpt>
      <trkpt lat="42.497916743159294" lon="13.578667547553778">
        <ele>1743.49</ele>
        <time>2013-09-09T07:17:32Z</time>
      </trkpt>
      <trkpt lat="42.497893609106541" lon="13.578575598075986">
        <ele>1744.45</ele>
        <time>2013-09-09T07:17:44Z</time>
      </trkpt>
      <trkpt lat="42.497840970754623" lon="13.578450456261635">
        <ele>1745.8900000000001</ele>
        <time>2013-09-09T07:18:01Z</time>
      </trkpt>
      <trkpt lat="42.497836025431752" lon="13.578416844829917">
        <ele>1748.29</ele>
        <time>2013-09-09T07:18:05Z</time>
      </trkpt>
      <trkpt lat="42.497818926349282" lon="13.57837644405663">
        <ele>1750.7</ele>
        <time>2013-09-09T07:18:11Z</time>
      </trkpt>
      <trkpt lat="42.497796546667814" lon="13.578313579782844">
        <ele>1753.5799999999999</ele>
        <time>2013-09-09T07:18:20Z</time>
      </trkpt>
      <trkpt lat="42.4977523740381" lon="13.578213835135102">
        <ele>1753.5799999999999</ele>
        <time>2013-09-09T07:18:34Z</time>
      </trkpt>
      <trkpt lat="42.497728066518903" lon="13.578206794336438">
        <ele>1755.99</ele>
        <time>2013-09-09T07:18:40Z</time>
      </trkpt>
      <trkpt lat="42.497636619955301" lon="13.578120628371835">
        <ele>1756.95</ele>
        <time>2013-09-09T07:19:00Z</time>
      </trkpt>
      <trkpt lat="42.497596219182014" lon="13.578056422993541">
        <ele>1760.79</ele>
        <time>2013-09-09T07:19:12Z</time>
      </trkpt>
      <trkpt lat="42.497591776773334" lon="13.578055500984192">
        <ele>1761.27</ele>
        <time>2013-09-09T07:19:13Z</time>
      </trkpt>
      <trkpt lat="42.497573588043451" lon="13.578031361103058">
        <ele>1760.3099999999999</ele>
        <time>2013-09-09T07:19:19Z</time>
      </trkpt>
      <trkpt lat="42.497555818408728" lon="13.577955588698387">
        <ele>1761.27</ele>
        <time>2013-09-09T07:19:31Z</time>
      </trkpt>
      <trkpt lat="42.497560176998377" lon="13.577915858477354">
        <ele>1763.2</ele>
        <time>2013-09-09T07:19:39Z</time>
      </trkpt>
      <trkpt lat="42.497582472860813" lon="13.577894400805235">
        <ele>1761.27</ele>
        <time>2013-09-09T07:19:54Z</time>
      </trkpt>
      <trkpt lat="42.497626058757305" lon="13.577820640057325">
        <ele>1762.23</ele>
        <time>2013-09-09T07:20:03Z</time>
      </trkpt>
      <trkpt lat="42.497622789815068" lon="13.577783927321434">
        <ele>1763.2</ele>
        <time>2013-09-09T07:20:14Z</time>
      </trkpt>
      <trkpt lat="42.497614994645119" lon="13.577813431620598">
        <ele>1763.2</ele>
        <time>2013-09-09T07:20:16Z</time>
      </trkpt>
      <trkpt lat="42.497528241947293" lon="13.577861376106739">
        <ele>1762.23</ele>
        <time>2013-09-09T07:20:29Z</time>
      </trkpt>
      <trkpt lat="42.497502928599715" lon="13.577804295346141">
        <ele>1763.2</ele>
        <time>2013-09-09T07:20:35Z</time>
      </trkpt>
      <trkpt lat="42.497445764020085" lon="13.577707400545478">
        <ele>1763.6800000000001</ele>
        <time>2013-09-09T07:20:50Z</time>
      </trkpt>
      <trkpt lat="42.497431430965662" lon="13.577679824084044">
        <ele>1766.0799999999999</ele>
        <time>2013-09-09T07:20:57Z</time>
      </trkpt>
      <trkpt lat="42.497402597218752" lon="13.577643865719438">
        <ele>1768</ele>
        <time>2013-09-09T07:21:04Z</time>
      </trkpt>
      <trkpt lat="42.497377535328269" lon="13.577551580965519">
        <ele>1771.3699999999999</ele>
        <time>2013-09-09T07:21:16Z</time>
      </trkpt>
      <trkpt lat="42.497377954423428" lon="13.577542444691062">
        <ele>1771.8499999999999</ele>
        <time>2013-09-09T07:21:17Z</time>
      </trkpt>
      <trkpt lat="42.49735708348453" lon="13.577480502426624">
        <ele>1776.6500000000001</ele>
        <time>2013-09-09T07:21:25Z</time>
      </trkpt>
      <trkpt lat="42.497353730723262" lon="13.57747295871377">
        <ele>1775.21</ele>
        <time>2013-09-09T07:21:26Z</time>
      </trkpt>
      <trkpt lat="42.497349372133613" lon="13.577450243756175">
        <ele>1775.21</ele>
        <time>2013-09-09T07:21:41Z</time>
      </trkpt>
      <trkpt lat="42.497351132333279" lon="13.577447226271033">
        <ele>1772.8099999999999</ele>
        <time>2013-09-09T07:22:08Z</time>
      </trkpt>
      <trkpt lat="42.4973482824862" lon="13.577451584860682">
        <ele>1774.73</ele>
        <time>2013-09-09T07:22:17Z</time>
      </trkpt>
      <trkpt lat="42.497323304414749" lon="13.57742803171277">
        <ele>1776.1700000000001</ele>
        <time>2013-09-09T07:22:42Z</time>
      </trkpt>
      <trkpt lat="42.497304696589708" lon="13.577341698110104">
        <ele>1778.5799999999999</ele>
        <time>2013-09-09T07:23:06Z</time>
      </trkpt>
      <trkpt lat="42.497239904478192" lon="13.577289395034313">
        <ele>1780.98</ele>
        <time>2013-09-09T07:23:21Z</time>
      </trkpt>
      <trkpt lat="42.497168071568012" lon="13.57726626098156">
        <ele>1784.3399999999999</ele>
        <time>2013-09-09T07:23:35Z</time>
      </trkpt>
      <trkpt lat="42.497157258912921" lon="13.577261902391911">
        <ele>1785.3099999999999</ele>
        <time>2013-09-09T07:23:37Z</time>
      </trkpt>
      <trkpt lat="42.497127670794725" lon="13.577259974554181">
        <ele>1784.8199999999999</ele>
        <time>2013-09-09T07:23:41Z</time>
      </trkpt>
      <trkpt lat="42.497043516486883" lon="13.577231224626303">
        <ele>1787.71</ele>
        <time>2013-09-09T07:23:54Z</time>
      </trkpt>
      <trkpt lat="42.496961373835802" lon="13.577126953750849">
        <ele>1789.1500000000001</ele>
        <time>2013-09-09T07:24:06Z</time>
      </trkpt>
      <trkpt lat="42.496902532875538" lon="13.577066017314792">
        <ele>1790.5899999999999</ele>
        <time>2013-09-09T07:24:20Z</time>
      </trkpt>
      <trkpt lat="42.4969148542732" lon="13.577011367306113">
        <ele>1796.8399999999999</ele>
        <time>2013-09-09T07:24:27Z</time>
      </trkpt>
      <trkpt lat="42.496921727433801" lon="13.576998962089419">
        <ele>1799.24</ele>
        <time>2013-09-09T07:24:29Z</time>
      </trkpt>
      <trkpt lat="42.496928181499243" lon="13.576978677883744">
        <ele>1795.8800000000001</ele>
        <time>2013-09-09T07:24:32Z</time>
      </trkpt>
      <trkpt lat="42.496926337480545" lon="13.576913718134165">
        <ele>1794.9200000000001</ele>
        <time>2013-09-09T07:24:40Z</time>
      </trkpt>
      <trkpt lat="42.496925834566355" lon="13.576847920194268">
        <ele>1796.3599999999999</ele>
        <time>2013-09-09T07:24:50Z</time>
      </trkpt>
      <trkpt lat="42.496945532038808" lon="13.576738787814975">
        <ele>1799.24</ele>
        <time>2013-09-09T07:25:04Z</time>
      </trkpt>
      <trkpt lat="42.496918123215437" lon="13.576698722317815">
        <ele>1803.0899999999999</ele>
        <time>2013-09-09T07:25:18Z</time>
      </trkpt>
      <trkpt lat="42.496877554804087" lon="13.576613394543529">
        <ele>1805.49</ele>
        <time>2013-09-09T07:25:34Z</time>
      </trkpt>
      <trkpt lat="42.496917536482215" lon="13.576534269377589">
        <ele>1808.3800000000001</ele>
        <time>2013-09-09T07:25:44Z</time>
      </trkpt>
      <trkpt lat="42.496917620301247" lon="13.576412983238697">
        <ele>1807.9000000000001</ele>
        <time>2013-09-09T07:26:01Z</time>
      </trkpt>
      <trkpt lat="42.496918123215437" lon="13.576360931620002">
        <ele>1809.3399999999999</ele>
        <time>2013-09-09T07:26:07Z</time>
      </trkpt>
      <trkpt lat="42.49691192060709" lon="13.576262947171926">
        <ele>1812.22</ele>
        <time>2013-09-09T07:26:22Z</time>
      </trkpt>
      <trkpt lat="42.496901527047157" lon="13.576177535578609">
        <ele>1814.1500000000001</ele>
        <time>2013-09-09T07:26:36Z</time>
      </trkpt>
      <trkpt lat="42.496894653886557" lon="13.576092626899481">
        <ele>1814.6300000000001</ele>
        <time>2013-09-09T07:26:47Z</time>
      </trkpt>
      <trkpt lat="42.496889624744654" lon="13.576030433177948">
        <ele>1815.1099999999999</ele>
        <time>2013-09-09T07:26:53Z</time>
      </trkpt>
      <trkpt lat="42.496882332488894" lon="13.576011992990971">
        <ele>1814.1500000000001</ele>
        <time>2013-09-09T07:26:55Z</time>
      </trkpt>
      <trkpt lat="42.496853834018111" lon="13.575869249179959">
        <ele>1817.03</ele>
        <time>2013-09-09T07:27:09Z</time>
      </trkpt>
      <trkpt lat="42.496823659166694" lon="13.575768498703837">
        <ele>1817.99</ele>
        <time>2013-09-09T07:27:25Z</time>
      </trkpt>
      <trkpt lat="42.496801530942321" lon="13.575680907815695">
        <ele>1821.3499999999999</ele>
        <time>2013-09-09T07:27:37Z</time>
      </trkpt>
      <trkpt lat="42.496762052178383" lon="13.575591053813696">
        <ele>1823.28</ele>
        <time>2013-09-09T07:27:52Z</time>
      </trkpt>
      <trkpt lat="42.496722573414445" lon="13.575495164841413">
        <ele>1824.24</ele>
        <time>2013-09-09T07:28:08Z</time>
      </trkpt>
      <trkpt lat="42.496693655848503" lon="13.575468426570296">
        <ele>1825.6800000000001</ele>
        <time>2013-09-09T07:28:20Z</time>
      </trkpt>
      <trkpt lat="42.496656272560358" lon="13.575409082695842">
        <ele>1826.6400000000001</ele>
        <time>2013-09-09T07:28:37Z</time>
      </trkpt>
      <trkpt lat="42.496597599238157" lon="13.575281426310539">
        <ele>1828.0799999999999</ele>
        <time>2013-09-09T07:28:54Z</time>
      </trkpt>
      <trkpt lat="42.496564323082566" lon="13.575223591178656">
        <ele>1830.97</ele>
        <time>2013-09-09T07:29:09Z</time>
      </trkpt>
      <trkpt lat="42.496514283120632" lon="13.575125355273485">
        <ele>1832.4100000000001</ele>
        <time>2013-09-09T07:29:22Z</time>
      </trkpt>
      <trkpt lat="42.496510343626142" lon="13.575119152665138">
        <ele>1832.8900000000001</ele>
        <time>2013-09-09T07:29:23Z</time>
      </trkpt>
      <trkpt lat="42.496454017236829" lon="13.574981521815062">
        <ele>1834.3299999999999</ele>
        <time>2013-09-09T07:29:39Z</time>
      </trkpt>
      <trkpt lat="42.496427865698934" lon="13.574887476861477">
        <ele>1834.3299999999999</ele>
        <time>2013-09-09T07:29:54Z</time>
      </trkpt>
      <trkpt lat="42.496383273974061" lon="13.574825869873166">
        <ele>1837.7</ele>
        <time>2013-09-09T07:30:10Z</time>
      </trkpt>
      <trkpt lat="42.496343040838838" lon="13.574761161580682">
        <ele>1837.7</ele>
        <time>2013-09-09T07:30:26Z</time>
      </trkpt>
      <trkpt lat="42.496296688914299" lon="13.574685892090201">
        <ele>1840.0999999999999</ele>
        <time>2013-09-09T07:30:42Z</time>
      </trkpt>
      <trkpt lat="42.49627280049026" lon="13.574641048908234">
        <ele>1840.0999999999999</ele>
        <time>2013-09-09T07:30:47Z</time>
      </trkpt>
      <trkpt lat="42.496210187673569" lon="13.574578100815415">
        <ele>1842.02</ele>
        <time>2013-09-09T07:31:02Z</time>
      </trkpt>
      <trkpt lat="42.496149921789765" lon="13.574516829103231">
        <ele>1843.95</ele>
        <time>2013-09-09T07:31:17Z</time>
      </trkpt>
      <trkpt lat="42.496117735281587" lon="13.574459329247475">
        <ele>1843.47</ele>
        <time>2013-09-09T07:31:26Z</time>
      </trkpt>
      <trkpt lat="42.496068365871906" lon="13.574412390589714">
        <ele>1842.98</ele>
        <time>2013-09-09T07:31:34Z</time>
      </trkpt>
      <trkpt lat="42.496059564873576" lon="13.574402835220098">
        <ele>1844.4300000000001</ele>
        <time>2013-09-09T07:31:36Z</time>
      </trkpt>
      <trkpt lat="42.496031653136015" lon="13.574364027008414">
        <ele>1840.5799999999999</ele>
        <time>2013-09-09T07:31:41Z</time>
      </trkpt>
      <trkpt lat="42.495952192693949" lon="13.574268138036132">
        <ele>1841.0599999999999</ele>
        <time>2013-09-09T07:31:56Z</time>
      </trkpt>
      <trkpt lat="42.495950348675251" lon="13.574260510504246">
        <ele>1853.0799999999999</ele>
        <time>2013-09-09T07:31:57Z</time>
      </trkpt>
      <trkpt lat="42.495934423059225" lon="13.574241315945983">
        <ele>1849.71</ele>
        <time>2013-09-09T07:32:06Z</time>
      </trkpt>
      <trkpt lat="42.495932579040527" lon="13.574241735041142">
        <ele>1849.71</ele>
        <time>2013-09-09T07:32:07Z</time>
      </trkpt>
      <trkpt lat="42.495925538241863" lon="13.574251206591725">
        <ele>1849.71</ele>
        <time>2013-09-09T07:32:37Z</time>
      </trkpt>
      <trkpt lat="42.495914474129677" lon="13.57422555796802">
        <ele>1848.75</ele>
        <time>2013-09-09T07:32:52Z</time>
      </trkpt>
      <trkpt lat="42.495891340076923" lon="13.574203932657838">
        <ele>1849.23</ele>
        <time>2013-09-09T07:32:56Z</time>
      </trkpt>
      <trkpt lat="42.495850352570415" lon="13.574151461943984">
        <ele>1850.1900000000001</ele>
        <time>2013-09-09T07:33:03Z</time>
      </trkpt>
      <trkpt lat="42.495780698955059" lon="13.574086837470531">
        <ele>1852.5999999999999</ele>
        <time>2013-09-09T07:33:13Z</time>
      </trkpt>
      <trkpt lat="42.49576460570097" lon="13.574073677882552">
        <ele>1853.5599999999999</ele>
        <time>2013-09-09T07:33:15Z</time>
      </trkpt>
      <trkpt lat="42.495739543810487" lon="13.574050292372704">
        <ele>1854.52</ele>
        <time>2013-09-09T07:33:18Z</time>
      </trkpt>
      <trkpt lat="42.495687324553728" lon="13.573982231318951">
        <ele>1855.48</ele>
        <time>2013-09-09T07:33:26Z</time>
      </trkpt>
      <trkpt lat="42.495658155530691" lon="13.573920791968703">
        <ele>1856.4400000000001</ele>
        <time>2013-09-09T07:33:31Z</time>
      </trkpt>
      <trkpt lat="42.495579281821847" lon="13.573829932138324">
        <ele>1856.4400000000001</ele>
        <time>2013-09-09T07:33:41Z</time>
      </trkpt>
      <trkpt lat="42.495482470840216" lon="13.573700347915292">
        <ele>1856.4400000000001</ele>
        <time>2013-09-09T07:33:57Z</time>
      </trkpt>
      <trkpt lat="42.495390186086297" lon="13.573618205264211">
        <ele>1859.3299999999999</ele>
        <time>2013-09-09T07:34:12Z</time>
      </trkpt>
      <trkpt lat="42.495385743677616" lon="13.57361719943583">
        <ele>1859.8099999999999</ele>
        <time>2013-09-09T07:34:13Z</time>
      </trkpt>
      <trkpt lat="42.495356407016516" lon="13.573607224971056">
        <ele>1861.73</ele>
        <time>2013-09-09T07:34:17Z</time>
      </trkpt>
      <trkpt lat="42.495275270193815" lon="13.573514018207788">
        <ele>1863.1700000000001</ele>
        <time>2013-09-09T07:34:30Z</time>
      </trkpt>
      <trkpt lat="42.495237467810512" lon="13.57347697019577">
        <ele>1863.1700000000001</ele>
        <time>2013-09-09T07:34:36Z</time>
      </trkpt>
      <trkpt lat="42.495180806145072" lon="13.573439754545689">
        <ele>1862.21</ele>
        <time>2013-09-09T07:34:44Z</time>
      </trkpt>
      <trkpt lat="42.495124312117696" lon="13.573382841423154">
        <ele>1863.6500000000001</ele>
        <time>2013-09-09T07:34:53Z</time>
      </trkpt>
      <trkpt lat="42.495046025142074" lon="13.573303213343024">
        <ele>1867.02</ele>
        <time>2013-09-09T07:35:05Z</time>
      </trkpt>
      <trkpt lat="42.494970671832561" lon="13.573208162561059">
        <ele>1867.02</ele>
        <time>2013-09-09T07:35:18Z</time>
      </trkpt>
      <trkpt lat="42.494946448132396" lon="13.573176227509975">
        <ele>1869.9000000000001</ele>
        <time>2013-09-09T07:35:33Z</time>
      </trkpt>
      <trkpt lat="42.494936473667622" lon="13.573173712939024">
        <ele>1869.9000000000001</ele>
        <time>2013-09-09T07:35:34Z</time>
      </trkpt>
      <trkpt lat="42.494827844202518" lon="13.573113530874252">
        <ele>1870.3800000000001</ele>
        <time>2013-09-09T07:35:49Z</time>
      </trkpt>
      <trkpt lat="42.494778726249933" lon="13.573069777339697">
        <ele>1871.8199999999999</ele>
        <time>2013-09-09T07:35:58Z</time>
      </trkpt>
      <trkpt lat="42.494694823399186" lon="13.573009595274925">
        <ele>1873.75</ele>
        <time>2013-09-09T07:36:12Z</time>
      </trkpt>
      <trkpt lat="42.494625756517053" lon="13.572945976629853">
        <ele>1874.23</ele>
        <time>2013-09-09T07:36:25Z</time>
      </trkpt>
      <trkpt lat="42.494561886414886" lon="13.572894176468253">
        <ele>1877.5899999999999</ele>
        <time>2013-09-09T07:36:38Z</time>
      </trkpt>
      <trkpt lat="42.494555599987507" lon="13.572889650240541">
        <ele>1877.5899999999999</ele>
        <time>2013-09-09T07:36:39Z</time>
      </trkpt>
      <trkpt lat="42.494483264163136" lon="13.572882022708654">
        <ele>1876.6300000000001</ele>
        <time>2013-09-09T07:36:51Z</time>
      </trkpt>
      <trkpt lat="42.494395086541772" lon="13.572855954989791">
        <ele>1877.5899999999999</ele>
        <time>2013-09-09T07:37:07Z</time>
      </trkpt>
      <trkpt lat="42.494347309693694" lon="13.572844052687287">
        <ele>1877.1099999999999</ele>
        <time>2013-09-09T07:37:17Z</time>
      </trkpt>
      <trkpt lat="42.494333731010556" lon="13.57284078374505">
        <ele>1879.03</ele>
        <time>2013-09-09T07:37:20Z</time>
      </trkpt>
      <trkpt lat="42.494300035759807" lon="13.572823265567422">
        <ele>1880.48</ele>
        <time>2013-09-09T07:37:26Z</time>
      </trkpt>
      <trkpt lat="42.494269106537104" lon="13.572815302759409">
        <ele>1881.4400000000001</ele>
        <time>2013-09-09T07:37:31Z</time>
      </trkpt>
      <trkpt lat="42.494191993027925" lon="13.572789570316672">
        <ele>1883.8399999999999</ele>
        <time>2013-09-09T07:37:43Z</time>
      </trkpt>
      <trkpt lat="42.494188137352467" lon="13.572786888107657">
        <ele>1884.3199999999999</ele>
        <time>2013-09-09T07:37:44Z</time>
      </trkpt>
      <trkpt lat="42.494111442938447" lon="13.572772722691298">
        <ele>1886.72</ele>
        <time>2013-09-09T07:37:57Z</time>
      </trkpt>
      <trkpt lat="42.494022343307734" lon="13.57274204492569">
        <ele>1888.6500000000001</ele>
        <time>2013-09-09T07:38:11Z</time>
      </trkpt>
      <trkpt lat="42.493962831795216" lon="13.57272544875741">
        <ele>1891.53</ele>
        <time>2013-09-09T07:38:21Z</time>
      </trkpt>
      <trkpt lat="42.493872977793217" lon="13.572706924751401">
        <ele>1891.05</ele>
        <time>2013-09-09T07:38:36Z</time>
      </trkpt>
      <trkpt lat="42.493771221488714" lon="13.572706170380116">
        <ele>1892.97</ele>
        <time>2013-09-09T07:38:52Z</time>
      </trkpt>
      <trkpt lat="42.493692263960838" lon="13.572706338018179">
        <ele>1895.8599999999999</ele>
        <time>2013-09-09T07:39:04Z</time>
      </trkpt>
      <trkpt lat="42.493677008897066" lon="13.572701392695308">
        <ele>1894.4200000000001</ele>
        <time>2013-09-09T07:39:06Z</time>
      </trkpt>
      <trkpt lat="42.493656389415264" lon="13.572677336633205">
        <ele>1893.9300000000001</ele>
        <time>2013-09-09T07:39:11Z</time>
      </trkpt>
      <trkpt lat="42.493583969771862" lon="13.572640959173441">
        <ele>1891.53</ele>
        <time>2013-09-09T07:39:23Z</time>
      </trkpt>
      <trkpt lat="42.493568127974868" lon="13.572635930031538">
        <ele>1893.9300000000001</ele>
        <time>2013-09-09T07:39:25Z</time>
      </trkpt>
      <trkpt lat="42.493544491007924" lon="13.572633666917682">
        <ele>1892.49</ele>
        <time>2013-09-09T07:39:28Z</time>
      </trkpt>
      <trkpt lat="42.493512304499745" lon="13.572617322206497">
        <ele>1895.8599999999999</ele>
        <time>2013-09-09T07:39:33Z</time>
      </trkpt>
      <trkpt lat="42.493509454652667" lon="13.572605084627867">
        <ele>1895.3800000000001</ele>
        <time>2013-09-09T07:39:34Z</time>
      </trkpt>
      <trkpt lat="42.493511633947492" lon="13.572588488459587">
        <ele>1893.9300000000001</ele>
        <time>2013-09-09T07:39:40Z</time>
      </trkpt>
      <trkpt lat="42.493472993373871" lon="13.572621261700988">
        <ele>1895.3800000000001</ele>
        <time>2013-09-09T07:39:54Z</time>
      </trkpt>
      <trkpt lat="42.493435358628631" lon="13.572602905333042">
        <ele>1896.3399999999999</ele>
        <time>2013-09-09T07:39:59Z</time>
      </trkpt>
      <trkpt lat="42.493418511003256" lon="13.572589745745063">
        <ele>1896.8199999999999</ele>
        <time>2013-09-09T07:40:01Z</time>
      </trkpt>
      <trkpt lat="42.493390599265695" lon="13.572569712996483">
        <ele>1899.7</ele>
        <time>2013-09-09T07:40:05Z</time>
      </trkpt>
      <trkpt lat="42.493385318666697" lon="13.572566863149405">
        <ele>1899.22</ele>
        <time>2013-09-09T07:40:06Z</time>
      </trkpt>
      <trkpt lat="42.49332195147872" lon="13.572532832622528">
        <ele>1903.0699999999999</ele>
        <time>2013-09-09T07:40:13Z</time>
      </trkpt>
      <trkpt lat="42.493309630081058" lon="13.572527803480625">
        <ele>1903.55</ele>
        <time>2013-09-09T07:40:14Z</time>
      </trkpt>
      <trkpt lat="42.493250034749508" lon="13.57252755202353">
        <ele>1902.1099999999999</ele>
        <time>2013-09-09T07:40:21Z</time>
      </trkpt>
      <trkpt lat="42.493214746937156" lon="13.572529479861259">
        <ele>1904.03</ele>
        <time>2013-09-09T07:40:25Z</time>
      </trkpt>
      <trkpt lat="42.493134029209614" lon="13.572505591437221">
        <ele>1900.6600000000001</ele>
        <time>2013-09-09T07:40:34Z</time>
      </trkpt>
      <trkpt lat="42.493126066401601" lon="13.572500143200159">
        <ele>1901.1400000000001</ele>
        <time>2013-09-09T07:40:35Z</time>
      </trkpt>
      <trkpt lat="42.493041325360537" lon="13.572496538981795">
        <ele>1897.3</ele>
        <time>2013-09-09T07:40:45Z</time>
      </trkpt>
      <trkpt lat="42.493017436936498" lon="13.572483211755753">
        <ele>1900.6600000000001</ele>
        <time>2013-09-09T07:40:48Z</time>
      </trkpt>
      <trkpt lat="42.492978628724813" lon="13.572465861216187">
        <ele>1900.1800000000001</ele>
        <time>2013-09-09T07:40:53Z</time>
      </trkpt>
      <trkpt lat="42.492870418354869" lon="13.57246938161552">
        <ele>1903.55</ele>
        <time>2013-09-09T07:41:07Z</time>
      </trkpt>
      <trkpt lat="42.492779223248363" lon="13.572491090744734">
        <ele>1903.55</ele>
        <time>2013-09-09T07:41:20Z</time>
      </trkpt>
      <trkpt lat="42.492662128061056" lon="13.572484469041228">
        <ele>1905.47</ele>
        <time>2013-09-09T07:41:33Z</time>
      </trkpt>
      <trkpt lat="42.49256607145071" lon="13.572422526776791">
        <ele>1906.4300000000001</ele>
        <time>2013-09-09T07:41:45Z</time>
      </trkpt>
      <trkpt lat="42.492558611556888" lon="13.572414480149746">
        <ele>1906.4300000000001</ele>
        <time>2013-09-09T07:41:46Z</time>
      </trkpt>
      <trkpt lat="42.49248007312417" lon="13.572339629754424">
        <ele>1902.5899999999999</ele>
        <time>2013-09-09T07:41:58Z</time>
      </trkpt>
      <trkpt lat="42.492476385086775" lon="13.572334935888648">
        <ele>1902.5899999999999</ele>
        <time>2013-09-09T07:41:59Z</time>
      </trkpt>
      <trkpt lat="42.492465656250715" lon="13.572315908968449">
        <ele>1905.95</ele>
        <time>2013-09-09T07:42:02Z</time>
      </trkpt>
      <trkpt lat="42.492458783090115" lon="13.572311718016863">
        <ele>1906.4300000000001</ele>
        <time>2013-09-09T07:42:03Z</time>
      </trkpt>
      <trkpt lat="42.492349734529853" lon="13.572232760488987">
        <ele>1905.47</ele>
        <time>2013-09-09T07:42:18Z</time>
      </trkpt>
      <trkpt lat="42.492231968790293" lon="13.572129663079977">
        <ele>1906.9100000000001</ele>
        <time>2013-09-09T07:42:35Z</time>
      </trkpt>
      <trkpt lat="42.492140354588628" lon="13.572032516822219">
        <ele>1911.24</ele>
        <time>2013-09-09T07:42:50Z</time>
      </trkpt>
      <trkpt lat="42.492133062332869" lon="13.572028828784823">
        <ele>1911.24</ele>
        <time>2013-09-09T07:42:51Z</time>
      </trkpt>
      <trkpt lat="42.492059217765927" lon="13.571954565122724">
        <ele>1912.2</ele>
        <time>2013-09-09T07:43:05Z</time>
      </trkpt>
      <trkpt lat="42.49202367849648" lon="13.571919109672308">
        <ele>1913.1600000000001</ele>
        <time>2013-09-09T07:43:11Z</time>
      </trkpt>
      <trkpt lat="42.492025606334209" lon="13.571882732212543">
        <ele>1909.3199999999999</ele>
        <time>2013-09-09T07:43:14Z</time>
      </trkpt>
      <trkpt lat="42.492016889154911" lon="13.571863621473312">
        <ele>1910.28</ele>
        <time>2013-09-09T07:43:19Z</time>
      </trkpt>
      <trkpt lat="42.491999370977283" lon="13.571858843788505">
        <ele>1912.2</ele>
        <time>2013-09-09T07:43:21Z</time>
      </trkpt>
      <trkpt lat="42.491983026266098" lon="13.571847612038255">
        <ele>1914.1199999999999</ele>
        <time>2013-09-09T07:43:23Z</time>
      </trkpt>
      <trkpt lat="42.49196651391685" lon="13.571826405823231">
        <ele>1917.97</ele>
        <time>2013-09-09T07:43:26Z</time>
      </trkpt>
      <trkpt lat="42.491873977705836" lon="13.571721632033587">
        <ele>1917.01</ele>
        <time>2013-09-09T07:43:40Z</time>
      </trkpt>
      <trkpt lat="42.491867104545236" lon="13.571715177968144">
        <ele>1917.01</ele>
        <time>2013-09-09T07:43:41Z</time>
      </trkpt>
      <trkpt lat="42.491852855309844" lon="13.571705119684339">
        <ele>1921.8099999999999</ele>
        <time>2013-09-09T07:43:43Z</time>
      </trkpt>
      <trkpt lat="42.49184631742537" lon="13.571699587628245">
        <ele>1920.8499999999999</ele>
        <time>2013-09-09T07:43:44Z</time>
      </trkpt>
      <trkpt lat="42.49182092025876" lon="13.571671340614557">
        <ele>1923.74</ele>
        <time>2013-09-09T07:43:48Z</time>
      </trkpt>
      <trkpt lat="42.491809437051415" lon="13.571661617606878">
        <ele>1926.1400000000001</ele>
        <time>2013-09-09T07:43:50Z</time>
      </trkpt>
      <trkpt lat="42.49180281534791" lon="13.571641752496362">
        <ele>1924.7</ele>
        <time>2013-09-09T07:43:52Z</time>
      </trkpt>
      <trkpt lat="42.491802144795656" lon="13.571633119136095">
        <ele>1918.45</ele>
        <time>2013-09-09T07:43:53Z</time>
      </trkpt>
      <trkpt lat="42.491801138967276" lon="13.571630520746112">
        <ele>1918.45</ele>
        <time>2013-09-09T07:43:54Z</time>
      </trkpt>
      <trkpt lat="42.491785297170281" lon="13.571629012003541">
        <ele>1925.6600000000001</ele>
        <time>2013-09-09T07:43:57Z</time>
      </trkpt>
      <trkpt lat="42.491778088733554" lon="13.571626245975494">
        <ele>1925.6600000000001</ele>
        <time>2013-09-09T07:43:58Z</time>
      </trkpt>
      <trkpt lat="42.491764593869448" lon="13.571608057245612">
        <ele>1923.25</ele>
        <time>2013-09-09T07:44:00Z</time>
      </trkpt>
      <trkpt lat="42.49174028635025" lon="13.571540834382176">
        <ele>1923.25</ele>
        <time>2013-09-09T07:44:06Z</time>
      </trkpt>
      <trkpt lat="42.491687647998333" lon="13.571507558226585">
        <ele>1924.7</ele>
        <time>2013-09-09T07:44:14Z</time>
      </trkpt>
      <trkpt lat="42.491609947755933" lon="13.57137436978519">
        <ele>1923.74</ele>
        <time>2013-09-09T07:44:30Z</time>
      </trkpt>
      <trkpt lat="42.491597039625049" lon="13.571369927376509">
        <ele>1926.6199999999999</ele>
        <time>2013-09-09T07:44:33Z</time>
      </trkpt>
      <trkpt lat="42.491581197828054" lon="13.571364479139447">
        <ele>1928.0599999999999</ele>
        <time>2013-09-09T07:44:35Z</time>
      </trkpt>
      <trkpt lat="42.491569714620709" lon="13.571343524381518">
        <ele>1925.1800000000001</ele>
        <time>2013-09-09T07:44:39Z</time>
      </trkpt>
      <trkpt lat="42.49150819145143" lon="13.571239924058318">
        <ele>1924.7</ele>
        <time>2013-09-09T07:44:52Z</time>
      </trkpt>
      <trkpt lat="42.491455301642418" lon="13.571194997057319">
        <ele>1924.22</ele>
        <time>2013-09-09T07:45:01Z</time>
      </trkpt>
      <trkpt lat="42.491422109305859" lon="13.571175634860992">
        <ele>1922.29</ele>
        <time>2013-09-09T07:45:08Z</time>
      </trkpt>
      <trkpt lat="42.491352120414376" lon="13.571127522736788">
        <ele>1925.6600000000001</ele>
        <time>2013-09-09T07:45:17Z</time>
      </trkpt>
      <trkpt lat="42.491290094330907" lon="13.571074716746807">
        <ele>1928.0599999999999</ele>
        <time>2013-09-09T07:45:25Z</time>
      </trkpt>
      <trkpt lat="42.49119789339602" lon="13.570978492498398">
        <ele>1926.6199999999999</ele>
        <time>2013-09-09T07:45:39Z</time>
      </trkpt>
      <trkpt lat="42.491110721603036" lon="13.570851841941476">
        <ele>1924.7</ele>
        <time>2013-09-09T07:45:54Z</time>
      </trkpt>
      <trkpt lat="42.491016844287515" lon="13.570750001817942">
        <ele>1926.6199999999999</ele>
        <time>2013-09-09T07:46:09Z</time>
      </trkpt>
      <trkpt lat="42.490915507078171" lon="13.570677917450666">
        <ele>1928.0599999999999</ele>
        <time>2013-09-09T07:46:25Z</time>
      </trkpt>
      <trkpt lat="42.490910729393363" lon="13.570671966299415">
        <ele>1928.54</ele>
        <time>2013-09-09T07:46:26Z</time>
      </trkpt>
      <trkpt lat="42.49087150208652" lon="13.570626536384225">
        <ele>1930.46</ele>
        <time>2013-09-09T07:46:35Z</time>
      </trkpt>
      <trkpt lat="42.490813247859478" lon="13.570507597178221">
        <ele>1933.8299999999999</ele>
        <time>2013-09-09T07:46:49Z</time>
      </trkpt>
      <trkpt lat="42.490808973088861" lon="13.570501897484064">
        <ele>1932.8699999999999</ele>
        <time>2013-09-09T07:46:50Z</time>
      </trkpt>
      <trkpt lat="42.490727668628097" lon="13.570397458970547">
        <ele>1933.8299999999999</ele>
        <time>2013-09-09T07:47:05Z</time>
      </trkpt>
      <trkpt lat="42.490662625059485" lon="13.570326212793589">
        <ele>1936.71</ele>
        <time>2013-09-09T07:47:18Z</time>
      </trkpt>
      <trkpt lat="42.490640161558986" lon="13.570312969386578">
        <ele>1940.5599999999999</ele>
        <time>2013-09-09T07:47:23Z</time>
      </trkpt>
      <trkpt lat="42.4906325340271" lon="13.570314645767212">
        <ele>1940.0799999999999</ele>
        <time>2013-09-09T07:47:24Z</time>
      </trkpt>
      <trkpt lat="42.49057536944747" lon="13.570288913324475">
        <ele>1941.52</ele>
        <time>2013-09-09T07:47:34Z</time>
      </trkpt>
      <trkpt lat="42.490506051108241" lon="13.570244153961539">
        <ele>1944.4000000000001</ele>
        <time>2013-09-09T07:47:47Z</time>
      </trkpt>
      <trkpt lat="42.490496831014752" lon="13.570239460095763">
        <ele>1949.21</ele>
        <time>2013-09-09T07:47:49Z</time>
      </trkpt>
      <trkpt lat="42.49048350378871" lon="13.570232754573226">
        <ele>1950.6500000000001</ele>
        <time>2013-09-09T07:47:51Z</time>
      </trkpt>
      <trkpt lat="42.490461962297559" lon="13.570203837007284">
        <ele>1947.29</ele>
        <time>2013-09-09T07:47:57Z</time>
      </trkpt>
      <trkpt lat="42.490456514060497" lon="13.570201573893428">
        <ele>1947.29</ele>
        <time>2013-09-09T07:47:58Z</time>
      </trkpt>
      <trkpt lat="42.490441678091884" lon="13.570185983553529">
        <ele>1948.73</ele>
        <time>2013-09-09T07:48:01Z</time>
      </trkpt>
      <trkpt lat="42.490365905687213" lon="13.570131165906787">
        <ele>1951.1300000000001</ele>
        <time>2013-09-09T07:48:17Z</time>
      </trkpt>
      <trkpt lat="42.490313015878201" lon="13.570081042125821">
        <ele>1948.25</ele>
        <time>2013-09-09T07:48:27Z</time>
      </trkpt>
      <trkpt lat="42.490251995623112" lon="13.570016417652369">
        <ele>1946.3299999999999</ele>
        <time>2013-09-09T07:48:39Z</time>
      </trkpt>
      <trkpt lat="42.49023238196969" lon="13.569997139275074">
        <ele>1947.77</ele>
        <time>2013-09-09T07:48:53Z</time>
      </trkpt>
      <trkpt lat="42.490183431655169" lon="13.569947266951203">
        <ele>1951.1300000000001</ele>
        <time>2013-09-09T07:49:06Z</time>
      </trkpt>
      <trkpt lat="42.4901092518121" lon="13.569865208119154">
        <ele>1952.5699999999999</ele>
        <time>2013-09-09T07:49:22Z</time>
      </trkpt>
      <trkpt lat="42.490073796361685" lon="13.569814497604966">
        <ele>1954.02</ele>
        <time>2013-09-09T07:49:37Z</time>
      </trkpt>
      <trkpt lat="42.48999391682446" lon="13.569749621674418">
        <ele>1956.9000000000001</ele>
        <time>2013-09-09T07:49:48Z</time>
      </trkpt>
      <trkpt lat="42.489911019802094" lon="13.569699749350548">
        <ele>1957.8599999999999</ele>
        <time>2013-09-09T07:50:00Z</time>
      </trkpt>
      <trkpt lat="42.489867014810443" lon="13.569650631397963">
        <ele>1955.46</ele>
        <time>2013-09-09T07:50:08Z</time>
      </trkpt>
      <trkpt lat="42.489846646785736" lon="13.569634705781937">
        <ele>1957.3800000000001</ele>
        <time>2013-09-09T07:50:12Z</time>
      </trkpt>
      <trkpt lat="42.489819405600429" lon="13.569603525102139">
        <ele>1954.98</ele>
        <time>2013-09-09T07:50:17Z</time>
      </trkpt>
      <trkpt lat="42.489799372851849" lon="13.569584246724844">
        <ele>1958.8199999999999</ele>
        <time>2013-09-09T07:50:21Z</time>
      </trkpt>
      <trkpt lat="42.489770790562034" lon="13.569559771567583">
        <ele>1963.6300000000001</ele>
        <time>2013-09-09T07:50:26Z</time>
      </trkpt>
      <trkpt lat="42.489766934886575" lon="13.56955130584538">
        <ele>1962.6700000000001</ele>
        <time>2013-09-09T07:50:27Z</time>
      </trkpt>
      <trkpt lat="42.489713374525309" lon="13.569477880373597">
        <ele>1964.5899999999999</ele>
        <time>2013-09-09T07:50:39Z</time>
      </trkpt>
      <trkpt lat="42.48969241976738" lon="13.569455165416002">
        <ele>1963.1500000000001</ele>
        <time>2013-09-09T07:50:42Z</time>
      </trkpt>
      <trkpt lat="42.489610528573394" lon="13.5693568456918">
        <ele>1964.5899999999999</ele>
        <time>2013-09-09T07:50:58Z</time>
      </trkpt>
      <trkpt lat="42.489535510540009" lon="13.569278055801988">
        <ele>1965.55</ele>
        <time>2013-09-09T07:51:14Z</time>
      </trkpt>
      <trkpt lat="42.489486895501614" lon="13.569246958941221">
        <ele>1967.96</ele>
        <time>2013-09-09T07:51:23Z</time>
      </trkpt>
      <trkpt lat="42.489425372332335" lon="13.569212509319186">
        <ele>1970.3599999999999</ele>
        <time>2013-09-09T07:51:32Z</time>
      </trkpt>
      <trkpt lat="42.4894202593714" lon="13.569220136851072">
        <ele>1975.1700000000001</ele>
        <time>2013-09-09T07:51:33Z</time>
      </trkpt>
      <trkpt lat="42.489414308220148" lon="13.56922977603972">
        <ele>1973.24</ele>
        <time>2013-09-09T07:51:34Z</time>
      </trkpt>
      <trkpt lat="42.489399472251534" lon="13.569224663078785">
        <ele>1972.76</ele>
        <time>2013-09-09T07:51:36Z</time>
      </trkpt>
      <trkpt lat="42.489353539422154" lon="13.56912768445909">
        <ele>1976.1300000000001</ele>
        <time>2013-09-09T07:51:48Z</time>
      </trkpt>
      <trkpt lat="42.489343816414475" lon="13.569112429395318">
        <ele>1977.5699999999999</ele>
        <time>2013-09-09T07:51:50Z</time>
      </trkpt>
      <trkpt lat="42.489335937425494" lon="13.569084014743567">
        <ele>1974.6900000000001</ele>
        <time>2013-09-09T07:51:53Z</time>
      </trkpt>
      <trkpt lat="42.489331746473908" lon="13.569078650325537">
        <ele>1974.6900000000001</ele>
        <time>2013-09-09T07:51:54Z</time>
      </trkpt>
      <trkpt lat="42.489274330437183" lon="13.569027772173285">
        <ele>1976.6099999999999</ele>
        <time>2013-09-09T07:52:05Z</time>
      </trkpt>
      <trkpt lat="42.4892648588866" lon="13.56901771388948">
        <ele>1974.6900000000001</ele>
        <time>2013-09-09T07:52:07Z</time>
      </trkpt>
      <trkpt lat="42.489251866936684" lon="13.569016624242067">
        <ele>1976.1300000000001</ele>
        <time>2013-09-09T07:52:09Z</time>
      </trkpt>
      <trkpt lat="42.489209622144699" lon="13.569005308672786">
        <ele>1980.45</ele>
        <time>2013-09-09T07:52:16Z</time>
      </trkpt>
      <trkpt lat="42.489201743155718" lon="13.569003297016025">
        <ele>1980.45</ele>
        <time>2013-09-09T07:52:17Z</time>
      </trkpt>
      <trkpt lat="42.489177519455552" lon="13.569000447168946">
        <ele>1977.5699999999999</ele>
        <time>2013-09-09T07:52:21Z</time>
      </trkpt>
      <trkpt lat="42.489170143380761" lon="13.568997010588646">
        <ele>1979.01</ele>
        <time>2013-09-09T07:52:22Z</time>
      </trkpt>
      <trkpt lat="42.489140471443534" lon="13.568951329216361">
        <ele>1980.9300000000001</ele>
        <time>2013-09-09T07:52:28Z</time>
      </trkpt>
      <trkpt lat="42.489122031256557" lon="13.568945294246078">
        <ele>1983.3399999999999</ele>
        <time>2013-09-09T07:52:33Z</time>
      </trkpt>
      <trkpt lat="42.489072494208813" lon="13.568871868774295">
        <ele>1984.3</ele>
        <time>2013-09-09T07:52:43Z</time>
      </trkpt>
      <trkpt lat="42.489002840593457" lon="13.568811686709523">
        <ele>1984.3</ele>
        <time>2013-09-09T07:52:54Z</time>
      </trkpt>
      <trkpt lat="42.488968726247549" lon="13.56879148632288">
        <ele>1984.3</ele>
        <time>2013-09-09T07:53:01Z</time>
      </trkpt>
      <trkpt lat="42.488866299390793" lon="13.568794252350926">
        <ele>1985.74</ele>
        <time>2013-09-09T07:53:16Z</time>
      </trkpt>
      <trkpt lat="42.488792706280947" lon="13.568768687546253">
        <ele>1986.7</ele>
        <time>2013-09-09T07:53:27Z</time>
      </trkpt>
      <trkpt lat="42.488769488409162" lon="13.568762233480811">
        <ele>1985.26</ele>
        <time>2013-09-09T07:53:31Z</time>
      </trkpt>
      <trkpt lat="42.488640826195478" lon="13.568793749436736">
        <ele>1987.6600000000001</ele>
        <time>2013-09-09T07:53:49Z</time>
      </trkpt>
      <trkpt lat="42.488552061840892" lon="13.568719066679478">
        <ele>1987.6600000000001</ele>
        <time>2013-09-09T07:54:04Z</time>
      </trkpt>
      <trkpt lat="42.488525994122028" lon="13.56867766007781">
        <ele>1990.0699999999999</ele>
        <time>2013-09-09T07:54:10Z</time>
      </trkpt>
      <trkpt lat="42.488424992188811" lon="13.568631056696177">
        <ele>1991.03</ele>
        <time>2013-09-09T07:54:26Z</time>
      </trkpt>
      <trkpt lat="42.48831351287663" lon="13.568580262362957">
        <ele>1991.99</ele>
        <time>2013-09-09T07:54:43Z</time>
      </trkpt>
      <trkpt lat="42.488299096003175" lon="13.568559139966965">
        <ele>1994.3900000000001</ele>
        <time>2013-09-09T07:54:45Z</time>
      </trkpt>
      <trkpt lat="42.488220306113362" lon="13.568482864648104">
        <ele>1993.4300000000001</ele>
        <time>2013-09-09T07:54:58Z</time>
      </trkpt>
      <trkpt lat="42.488193735480309" lon="13.568474901840091">
        <ele>1995.3499999999999</ele>
        <time>2013-09-09T07:55:02Z</time>
      </trkpt>
      <trkpt lat="42.488101534545422" lon="13.568455958738923">
        <ele>1993.9100000000001</ele>
        <time>2013-09-09T07:55:17Z</time>
      </trkpt>
      <trkpt lat="42.488024840131402" lon="13.568418323993683">
        <ele>1996.8</ele>
        <time>2013-09-09T07:55:28Z</time>
      </trkpt>
      <trkpt lat="42.487988881766796" lon="13.568391418084502">
        <ele>2000.6400000000001</ele>
        <time>2013-09-09T07:55:33Z</time>
      </trkpt>
      <trkpt lat="42.487996090203524" lon="13.568408852443099">
        <ele>2000.1600000000001</ele>
        <time>2013-09-09T07:55:48Z</time>
      </trkpt>
      <trkpt lat="42.48799491673708" lon="13.568406086415052">
        <ele>2002.5599999999999</ele>
        <time>2013-09-09T07:55:52Z</time>
      </trkpt>
      <trkpt lat="42.487997431308031" lon="13.568408768624067">
        <ele>2001.1199999999999</ele>
        <time>2013-09-09T07:55:55Z</time>
      </trkpt>
      <trkpt lat="42.487999275326729" lon="13.568406673148274">
        <ele>1998.72</ele>
        <time>2013-09-09T07:56:07Z</time>
      </trkpt>
      <trkpt lat="42.487995671108365" lon="13.568413462489843">
        <ele>2000.6400000000001</ele>
        <time>2013-09-09T07:56:10Z</time>
      </trkpt>
      <trkpt lat="42.487991061061621" lon="13.568409103900194">
        <ele>1999.2</ele>
        <time>2013-09-09T07:56:14Z</time>
      </trkpt>
      <trkpt lat="42.48798661865294" lon="13.568408600986004">
        <ele>2000.6400000000001</ele>
        <time>2013-09-09T07:56:18Z</time>
      </trkpt>
      <trkpt lat="42.487956611439586" lon="13.568383203819394">
        <ele>1998.24</ele>
        <time>2013-09-09T07:56:27Z</time>
      </trkpt>
      <trkpt lat="42.487881174311042" lon="13.568317154422402">
        <ele>1999.2</ele>
        <time>2013-09-09T07:56:43Z</time>
      </trkpt>
      <trkpt lat="42.487794673070312" lon="13.568266276270151">
        <ele>2004.97</ele>
        <time>2013-09-09T07:56:55Z</time>
      </trkpt>
      <trkpt lat="42.487766174599528" lon="13.568241717293859">
        <ele>2002.5599999999999</ele>
        <time>2013-09-09T07:57:01Z</time>
      </trkpt>
      <trkpt lat="42.487748572602868" lon="13.568237107247114">
        <ele>2005.9300000000001</ele>
        <time>2013-09-09T07:57:04Z</time>
      </trkpt>
      <trkpt lat="42.487629633396864" lon="13.56822763569653">
        <ele>2006.8900000000001</ele>
        <time>2013-09-09T07:57:21Z</time>
      </trkpt>
      <trkpt lat="42.487609265372157" lon="13.568230737000704">
        <ele>2009.29</ele>
        <time>2013-09-09T07:57:24Z</time>
      </trkpt>
      <trkpt lat="42.48759375885129" lon="13.568242639303207">
        <ele>2009.77</ele>
        <time>2013-09-09T07:57:26Z</time>
      </trkpt>
      <trkpt lat="42.487557213753462" lon="13.568263007327914">
        <ele>2013.6199999999999</ele>
        <time>2013-09-09T07:57:30Z</time>
      </trkpt>
      <trkpt lat="42.487528631463647" lon="13.56826669536531">
        <ele>2016.02</ele>
        <time>2013-09-09T07:57:33Z</time>
      </trkpt>
      <trkpt lat="42.487521003931761" lon="13.568269209936261">
        <ele>2012.6600000000001</ele>
        <time>2013-09-09T07:57:34Z</time>
      </trkpt>
      <trkpt lat="42.487515220418572" lon="13.56827306561172">
        <ele>2013.1400000000001</ele>
        <time>2013-09-09T07:57:35Z</time>
      </trkpt>
      <trkpt lat="42.487490409985185" lon="13.568303994834423">
        <ele>2012.1800000000001</ele>
        <time>2013-09-09T07:57:39Z</time>
      </trkpt>
      <trkpt lat="42.487364178523421" lon="13.56833366677165">
        <ele>2008.8099999999999</ele>
        <time>2013-09-09T07:57:53Z</time>
      </trkpt>
      <trkpt lat="42.487325789406896" lon="13.568279100582004">
        <ele>2010.25</ele>
        <time>2013-09-09T07:58:04Z</time>
      </trkpt>
      <trkpt lat="42.487304583191872" lon="13.568296618759632">
        <ele>2012.1800000000001</ele>
        <time>2013-09-09T07:58:16Z</time>
      </trkpt>
      <trkpt lat="42.487305924296379" lon="13.568315058946609">
        <ele>2011.22</ele>
        <time>2013-09-09T07:58:42Z</time>
      </trkpt>
      <trkpt lat="42.48730156570673" lon="13.568314556032419">
        <ele>2014.5799999999999</ele>
        <time>2013-09-09T07:58:58Z</time>
      </trkpt>
      <trkpt lat="42.487302320078015" lon="13.568265438079834">
        <ele>2013.1400000000001</ele>
        <time>2013-09-09T07:59:19Z</time>
      </trkpt>
      <trkpt lat="42.487303493544459" lon="13.568254457786679">
        <ele>2009.29</ele>
        <time>2013-09-09T07:59:29Z</time>
      </trkpt>
      <trkpt lat="42.487302739173174" lon="13.568252110853791">
        <ele>2009.29</ele>
        <time>2013-09-09T07:59:30Z</time>
      </trkpt>
      <trkpt lat="42.487300727516413" lon="13.568251943215728">
        <ele>2007.3699999999999</ele>
        <time>2013-09-09T07:59:32Z</time>
      </trkpt>
      <trkpt lat="42.487305337563157" lon="13.568267030641437">
        <ele>2007.3699999999999</ele>
        <time>2013-09-09T07:59:54Z</time>
      </trkpt>
      <trkpt lat="42.487322520464659" lon="13.568276250734925">
        <ele>2008.3299999999999</ele>
        <time>2013-09-09T08:00:10Z</time>
      </trkpt>
      <trkpt lat="42.48732159845531" lon="13.56827792711556">
        <ele>2007.8499999999999</ele>
        <time>2013-09-09T08:00:34Z</time>
      </trkpt>
      <trkpt lat="42.487326376140118" lon="13.56827306561172">
        <ele>2009.77</ele>
        <time>2013-09-09T08:00:47Z</time>
      </trkpt>
      <trkpt lat="42.487329645082355" lon="13.568271975964308">
        <ele>2011.22</ele>
        <time>2013-09-09T08:00:49Z</time>
      </trkpt>
      <trkpt lat="42.487317742779851" lon="13.568270048126578">
        <ele>2010.73</ele>
        <time>2013-09-09T08:00:57Z</time>
      </trkpt>
      <trkpt lat="42.487320005893707" lon="13.568271640688181">
        <ele>2008.3299999999999</ele>
        <time>2013-09-09T08:00:59Z</time>
      </trkpt>
      <trkpt lat="42.487303661182523" lon="13.568256217986345">
        <ele>2010.73</ele>
        <time>2013-09-09T08:01:08Z</time>
      </trkpt>
      <trkpt lat="42.487295949831605" lon="13.568300642073154">
        <ele>2009.29</ele>
        <time>2013-09-09T08:01:26Z</time>
      </trkpt>
      <trkpt lat="42.487306762486696" lon="13.568300139158964">
        <ele>2012.6600000000001</ele>
        <time>2013-09-09T08:01:46Z</time>
      </trkpt>
      <trkpt lat="42.487304750829935" lon="13.568290499970317">
        <ele>2016.5</ele>
        <time>2013-09-09T08:01:53Z</time>
      </trkpt>
      <trkpt lat="42.487306175753474" lon="13.568288320675492">
        <ele>2016.5</ele>
        <time>2013-09-09T08:01:54Z</time>
      </trkpt>
      <trkpt lat="42.487303745001554" lon="13.568282872438431">
        <ele>2016.5</ele>
        <time>2013-09-09T08:02:13Z</time>
      </trkpt>
      <trkpt lat="42.487306008115411" lon="13.568280441686511">
        <ele>2015.54</ele>
        <time>2013-09-09T08:02:15Z</time>
      </trkpt>
      <trkpt lat="42.487309947609901" lon="13.568279100582004">
        <ele>2017.46</ele>
        <time>2013-09-09T08:02:18Z</time>
      </trkpt>
      <trkpt lat="42.487305756658316" lon="13.568282788619399">
        <ele>2018.9100000000001</ele>
        <time>2013-09-09T08:02:21Z</time>
      </trkpt>
      <trkpt lat="42.487305672839284" lon="13.56828480027616">
        <ele>2020.3499999999999</ele>
        <time>2013-09-09T08:02:28Z</time>
      </trkpt>
      <trkpt lat="42.487306594848633" lon="13.568286057561636">
        <ele>2016.5</ele>
        <time>2013-09-09T08:02:36Z</time>
      </trkpt>
      <trkpt lat="42.487309277057648" lon="13.568299300968647">
        <ele>2017.9400000000001</ele>
        <time>2013-09-09T08:02:41Z</time>
      </trkpt>
      <trkpt lat="42.48731967061758" lon="13.568302150815725">
        <ele>2017.9400000000001</ele>
        <time>2013-09-09T08:02:46Z</time>
      </trkpt>
      <trkpt lat="42.487331237643957" lon="13.568282285705209">
        <ele>2014.5799999999999</ele>
        <time>2013-09-09T08:03:01Z</time>
      </trkpt>
      <trkpt lat="42.487330567091703" lon="13.568283542990685">
        <ele>2015.54</ele>
        <time>2013-09-09T08:03:07Z</time>
      </trkpt>
      <trkpt lat="42.487332327291369" lon="13.568285303190351">
        <ele>2016.02</ele>
        <time>2013-09-09T08:03:11Z</time>
      </trkpt>
      <trkpt lat="42.487340960651636" lon="13.568291673436761">
        <ele>2017.46</ele>
        <time>2013-09-09T08:03:38Z</time>
      </trkpt>
      <trkpt lat="42.487339787185192" lon="13.568295277655125">
        <ele>2020.3499999999999</ele>
        <time>2013-09-09T08:03:47Z</time>
      </trkpt>
      <trkpt lat="42.487346408888698" lon="13.568300390616059">
        <ele>2016.98</ele>
        <time>2013-09-09T08:04:03Z</time>
      </trkpt>
      <trkpt lat="42.487329142168164" lon="13.568328637629747">
        <ele>2017.9400000000001</ele>
        <time>2013-09-09T08:04:25Z</time>
      </trkpt>
      <trkpt lat="42.487335260957479" lon="13.568292260169983">
        <ele>2018.4300000000001</ele>
        <time>2013-09-09T08:04:40Z</time>
      </trkpt>
      <trkpt lat="42.487328639253974" lon="13.568293014541268">
        <ele>2015.0599999999999</ele>
        <time>2013-09-09T08:04:45Z</time>
      </trkpt>
      <trkpt lat="42.487328052520752" lon="13.568294942378998">
        <ele>2015.54</ele>
        <time>2013-09-09T08:04:46Z</time>
      </trkpt>
      <trkpt lat="42.487311959266663" lon="13.56830189935863">
        <ele>2013.1400000000001</ele>
        <time>2013-09-09T08:04:58Z</time>
      </trkpt>
      <trkpt lat="42.487311707809567" lon="13.568309107795358">
        <ele>2016.98</ele>
        <time>2013-09-09T08:05:00Z</time>
      </trkpt>
      <trkpt lat="42.487309360876679" lon="13.56831070035696">
        <ele>2016.02</ele>
        <time>2013-09-09T08:05:01Z</time>
      </trkpt>
      <trkpt lat="42.487304164096713" lon="13.568305671215057">
        <ele>2014.5799999999999</ele>
        <time>2013-09-09T08:05:03Z</time>
      </trkpt>
      <trkpt lat="42.48728253878653" lon="13.568306425586343">
        <ele>2013.6199999999999</ele>
        <time>2013-09-09T08:05:18Z</time>
      </trkpt>
      <trkpt lat="42.487253453582525" lon="13.568294188007712">
        <ele>2016.98</ele>
        <time>2013-09-09T08:05:23Z</time>
      </trkpt>
      <trkpt lat="42.487244484946132" lon="13.568293852731586">
        <ele>2016.5</ele>
        <time>2013-09-09T08:05:24Z</time>
      </trkpt>
      <trkpt lat="42.487197211012244" lon="13.56827943585813">
        <ele>2019.8699999999999</ele>
        <time>2013-09-09T08:05:32Z</time>
      </trkpt>
      <trkpt lat="42.487159660086036" lon="13.56823643669486">
        <ele>2017.46</ele>
        <time>2013-09-09T08:05:40Z</time>
      </trkpt>
      <trkpt lat="42.487136777490377" lon="13.56820173561573">
        <ele>2023.23</ele>
        <time>2013-09-09T08:05:45Z</time>
      </trkpt>
      <trkpt lat="42.48713300563395" lon="13.568199472501874">
        <ele>2022.75</ele>
        <time>2013-09-09T08:05:46Z</time>
      </trkpt>
      <trkpt lat="42.487117666751146" lon="13.568185474723577">
        <ele>2019.8699999999999</ele>
        <time>2013-09-09T08:05:50Z</time>
      </trkpt>
      <trkpt lat="42.487102076411247" lon="13.568152030929923">
        <ele>2015.54</ele>
        <time>2013-09-09T08:05:54Z</time>
      </trkpt>
      <trkpt lat="42.487095706164837" lon="13.568142391741276">
        <ele>2016.02</ele>
        <time>2013-09-09T08:05:55Z</time>
      </trkpt>
      <trkpt lat="42.487085731700063" lon="13.568121856078506">
        <ele>2017.46</ele>
        <time>2013-09-09T08:05:57Z</time>
      </trkpt>
      <trkpt lat="42.487080283463001" lon="13.568112635985017">
        <ele>2021.3099999999999</ele>
        <time>2013-09-09T08:05:58Z</time>
      </trkpt>
      <trkpt lat="42.487062010914087" lon="13.568081958219409">
        <ele>2017.9400000000001</ele>
        <time>2013-09-09T08:06:01Z</time>
      </trkpt>
      <trkpt lat="42.487050192430615" lon="13.56806393712759">
        <ele>2016.98</ele>
        <time>2013-09-09T08:06:03Z</time>
      </trkpt>
      <trkpt lat="42.487042229622602" lon="13.568042227998376">
        <ele>2019.8699999999999</ele>
        <time>2013-09-09T08:06:06Z</time>
      </trkpt>
      <trkpt lat="42.487041810527444" lon="13.568033091723919">
        <ele>2019.3900000000001</ele>
        <time>2013-09-09T08:06:07Z</time>
      </trkpt>
      <trkpt lat="42.487038876861334" lon="13.56802093796432">
        <ele>2018.4300000000001</ele>
        <time>2013-09-09T08:06:09Z</time>
      </trkpt>
      <trkpt lat="42.486998895183206" lon="13.567962013185024">
        <ele>2017.46</ele>
        <time>2013-09-09T08:06:21Z</time>
      </trkpt>
      <trkpt lat="42.487019347026944" lon="13.567922953516245">
        <ele>2019.3900000000001</ele>
        <time>2013-09-09T08:06:25Z</time>
      </trkpt>
      <trkpt lat="42.487049270421267" lon="13.567873500287533">
        <ele>2020.3499999999999</ele>
        <time>2013-09-09T08:06:35Z</time>
      </trkpt>
      <trkpt lat="42.487058071419597" lon="13.567874003201723">
        <ele>2023.23</ele>
        <time>2013-09-09T08:06:43Z</time>
      </trkpt>
      <trkpt lat="42.487056478857994" lon="13.567873081192374">
        <ele>2024.6700000000001</ele>
        <time>2013-09-09T08:06:44Z</time>
      </trkpt>
      <trkpt lat="42.487065028399229" lon="13.567839553579688">
        <ele>2029</ele>
        <time>2013-09-09T08:06:47Z</time>
      </trkpt>
      <trkpt lat="42.487074667587876" lon="13.567805271595716">
        <ele>2023.71</ele>
        <time>2013-09-09T08:06:50Z</time>
      </trkpt>
      <trkpt lat="42.48707827180624" lon="13.567793369293213">
        <ele>2023.71</ele>
        <time>2013-09-09T08:06:51Z</time>
      </trkpt>
      <trkpt lat="42.487078607082367" lon="13.567756824195385">
        <ele>2021.79</ele>
        <time>2013-09-09T08:06:54Z</time>
      </trkpt>
      <trkpt lat="42.487057652324438" lon="13.567751543596387">
        <ele>2024.1900000000001</ele>
        <time>2013-09-09T08:06:57Z</time>
      </trkpt>
      <trkpt lat="42.487021358683705" lon="13.567704604938626">
        <ele>2027.5599999999999</ele>
        <time>2013-09-09T08:07:06Z</time>
      </trkpt>
      <trkpt lat="42.486953297629952" lon="13.567679291591048">
        <ele>2026.1199999999999</ele>
        <time>2013-09-09T08:07:20Z</time>
      </trkpt>
      <trkpt lat="42.486927062273026" lon="13.567659091204405">
        <ele>2028.52</ele>
        <time>2013-09-09T08:07:24Z</time>
      </trkpt>
      <trkpt lat="42.486917842179537" lon="13.567645009607077">
        <ele>2031.8800000000001</ele>
        <time>2013-09-09T08:07:28Z</time>
      </trkpt>
      <trkpt lat="42.486906023696065" lon="13.567639142274857">
        <ele>2036.21</ele>
        <time>2013-09-09T08:07:30Z</time>
      </trkpt>
      <trkpt lat="42.486893450841308" lon="13.567634196951985">
        <ele>2040.05</ele>
        <time>2013-09-09T08:07:32Z</time>
      </trkpt>
      <trkpt lat="42.486881883814931" lon="13.56762514449656">
        <ele>2040.54</ele>
        <time>2013-09-09T08:07:34Z</time>
      </trkpt>
      <trkpt lat="42.486856402829289" lon="13.567586839199066">
        <ele>2039.0899999999999</ele>
        <time>2013-09-09T08:07:42Z</time>
      </trkpt>
      <trkpt lat="42.486838800832629" lon="13.567579630762339">
        <ele>2036.6900000000001</ele>
        <time>2013-09-09T08:07:46Z</time>
      </trkpt>
      <trkpt lat="42.486821785569191" lon="13.567576948553324">
        <ele>2034.77</ele>
        <time>2013-09-09T08:07:50Z</time>
      </trkpt>
      <trkpt lat="42.486801249906421" lon="13.567574936896563">
        <ele>2037.6500000000001</ele>
        <time>2013-09-09T08:07:57Z</time>
      </trkpt>
      <trkpt lat="42.486806362867355" lon="13.567577367648482">
        <ele>2035.25</ele>
        <time>2013-09-09T08:08:01Z</time>
      </trkpt>
      <trkpt lat="42.486808123067021" lon="13.567581223323941">
        <ele>2033.3299999999999</ele>
        <time>2013-09-09T08:08:04Z</time>
      </trkpt>
      <trkpt lat="42.486795382574201" lon="13.567547528073192">
        <ele>2036.21</ele>
        <time>2013-09-09T08:08:16Z</time>
      </trkpt>
      <trkpt lat="42.48678901232779" lon="13.567531602457166">
        <ele>2032.8399999999999</ele>
        <time>2013-09-09T08:08:25Z</time>
      </trkpt>
      <trkpt lat="42.486802004277706" lon="13.567565465345979">
        <ele>2029.48</ele>
        <time>2013-09-09T08:08:33Z</time>
      </trkpt>
      <trkpt lat="42.486764788627625" lon="13.567571332678199">
        <ele>2032.8399999999999</ele>
        <time>2013-09-09T08:08:42Z</time>
      </trkpt>
      <trkpt lat="42.486753473058343" lon="13.56754987500608">
        <ele>2039.0899999999999</ele>
        <time>2013-09-09T08:08:51Z</time>
      </trkpt>
      <trkpt lat="42.486754143610597" lon="13.567553227767348">
        <ele>2037.6500000000001</ele>
        <time>2013-09-09T08:08:52Z</time>
      </trkpt>
      <trkpt lat="42.486759759485722" lon="13.567548952996731">
        <ele>2034.29</ele>
        <time>2013-09-09T08:08:55Z</time>
      </trkpt>
      <trkpt lat="42.486763196066022" lon="13.567545684054494">
        <ele>2038.1300000000001</ele>
        <time>2013-09-09T08:09:00Z</time>
      </trkpt>
      <trkpt lat="42.486764620989561" lon="13.567545600235462">
        <ele>2038.6099999999999</ele>
        <time>2013-09-09T08:09:01Z</time>
      </trkpt>
      <trkpt lat="42.486764872446656" lon="13.567545432597399">
        <ele>2035.25</ele>
        <time>2013-09-09T08:09:09Z</time>
      </trkpt>
      <trkpt lat="42.486765794456005" lon="13.567543169483542">
        <ele>2034.29</ele>
        <time>2013-09-09T08:09:11Z</time>
      </trkpt>
      <trkpt lat="42.48676554299891" lon="13.567542666569352">
        <ele>2033.3299999999999</ele>
        <time>2013-09-09T08:09:15Z</time>
      </trkpt>
      <trkpt lat="42.486764285713434" lon="13.567542918026447">
        <ele>2039.0899999999999</ele>
        <time>2013-09-09T08:09:17Z</time>
      </trkpt>
      <trkpt lat="42.486764285713434" lon="13.567542331293225">
        <ele>2038.1300000000001</ele>
        <time>2013-09-09T08:09:18Z</time>
      </trkpt>
      <trkpt lat="42.486764537170529" lon="13.567542918026447">
        <ele>2037.6500000000001</ele>
        <time>2013-09-09T08:09:20Z</time>
      </trkpt>
      <trkpt lat="42.486765962094069" lon="13.567549455910921">
        <ele>2041.5</ele>
        <time>2013-09-09T08:09:30Z</time>
      </trkpt>
      <trkpt lat="42.486765962094069" lon="13.567550629377365">
        <ele>2041.5</ele>
        <time>2013-09-09T08:09:31Z</time>
      </trkpt>
      <trkpt lat="42.486775014549494" lon="13.567550964653492">
        <ele>2039.5699999999999</ele>
        <time>2013-09-09T08:09:34Z</time>
      </trkpt>
      <trkpt lat="42.486776690930128" lon="13.56755867600441">
        <ele>2038.6099999999999</ele>
        <time>2013-09-09T08:09:35Z</time>
      </trkpt>
      <trkpt lat="42.486769985407591" lon="13.567587258294225">
        <ele>2037.1700000000001</ele>
        <time>2013-09-09T08:09:37Z</time>
      </trkpt>
      <trkpt lat="42.486755400896072" lon="13.56760997325182">
        <ele>2041.02</ele>
        <time>2013-09-09T08:09:40Z</time>
      </trkpt>
      <trkpt lat="42.486746516078711" lon="13.567598322406411">
        <ele>2038.6099999999999</ele>
        <time>2013-09-09T08:09:43Z</time>
      </trkpt>
      <trkpt lat="42.486735284328461" lon="13.567605866119266">
        <ele>2035.25</ele>
        <time>2013-09-09T08:09:45Z</time>
      </trkpt>
      <trkpt lat="42.486759759485722" lon="13.56755968183279">
        <ele>2036.6900000000001</ele>
        <time>2013-09-09T08:09:56Z</time>
      </trkpt>
      <trkpt lat="42.486752467229962" lon="13.567559430375695">
        <ele>2033.3299999999999</ele>
        <time>2013-09-09T08:10:01Z</time>
      </trkpt>
      <trkpt lat="42.486745929345489" lon="13.567574182525277">
        <ele>2032.3599999999999</ele>
        <time>2013-09-09T08:10:14Z</time>
      </trkpt>
      <trkpt lat="42.486753975972533" lon="13.567571584135294">
        <ele>2034.29</ele>
        <time>2013-09-09T08:10:21Z</time>
      </trkpt>
      <trkpt lat="42.486771661788225" lon="13.567564627155662">
        <ele>2037.6500000000001</ele>
        <time>2013-09-09T08:10:29Z</time>
      </trkpt>
      <trkpt lat="42.486778032034636" lon="13.567574098706245">
        <ele>2034.29</ele>
        <time>2013-09-09T08:10:34Z</time>
      </trkpt>
      <trkpt lat="42.486778786405921" lon="13.567575942724943">
        <ele>2031.4000000000001</ele>
        <time>2013-09-09T08:10:40Z</time>
      </trkpt>
      <trkpt lat="42.486784569919109" lon="13.567580385133624">
        <ele>2029.48</ele>
        <time>2013-09-09T08:10:45Z</time>
      </trkpt>
      <trkpt lat="42.486785408109426" lon="13.567575523629785">
        <ele>2030.9200000000001</ele>
        <time>2013-09-09T08:10:51Z</time>
      </trkpt>
      <trkpt lat="42.486785827204585" lon="13.567575607448816">
        <ele>2030.4400000000001</ele>
        <time>2013-09-09T08:10:59Z</time>
      </trkpt>
      <trkpt lat="42.486788844689727" lon="13.567582815885544">
        <ele>2031.4000000000001</ele>
        <time>2013-09-09T08:11:10Z</time>
      </trkpt>
      <trkpt lat="42.486792365089059" lon="13.567583821713924">
        <ele>2032.3599999999999</ele>
        <time>2013-09-09T08:11:15Z</time>
      </trkpt>
      <trkpt lat="42.486801836639643" lon="13.567567141726613">
        <ele>2035.25</ele>
        <time>2013-09-09T08:11:35Z</time>
      </trkpt>
      <trkpt lat="42.48680611141026" lon="13.567557921633124">
        <ele>2036.6900000000001</ele>
        <time>2013-09-09T08:11:38Z</time>
      </trkpt>
      <trkpt lat="42.486793957650661" lon="13.567570662125945">
        <ele>2034.77</ele>
        <time>2013-09-09T08:11:45Z</time>
      </trkpt>
      <trkpt lat="42.486800411716104" lon="13.567572422325611">
        <ele>2037.6500000000001</ele>
        <time>2013-09-09T08:11:50Z</time>
      </trkpt>
      <trkpt lat="42.486801166087389" lon="13.567575607448816">
        <ele>2037.6500000000001</ele>
        <time>2013-09-09T08:11:51Z</time>
      </trkpt>
      <trkpt lat="42.486795634031296" lon="13.567575272172689">
        <ele>2041.02</ele>
        <time>2013-09-09T08:11:56Z</time>
      </trkpt>
      <trkpt lat="42.486798735335469" lon="13.567573009058833">
        <ele>2041.5</ele>
        <time>2013-09-09T08:12:00Z</time>
      </trkpt>
      <trkpt lat="42.486804854124784" lon="13.567580133676529">
        <ele>2038.6099999999999</ele>
        <time>2013-09-09T08:12:06Z</time>
      </trkpt>
      <trkpt lat="42.486806195229292" lon="13.56758407317102">
        <ele>2037.1700000000001</ele>
        <time>2013-09-09T08:12:08Z</time>
      </trkpt>
      <trkpt lat="42.486814074218273" lon="13.567545600235462">
        <ele>2033.3299999999999</ele>
        <time>2013-09-09T08:12:29Z</time>
      </trkpt>
      <trkpt lat="42.486827652901411" lon="13.567560268566012">
        <ele>2030.9200000000001</ele>
        <time>2013-09-09T08:12:32Z</time>
      </trkpt>
      <trkpt lat="42.486815582960844" lon="13.567585330456495">
        <ele>2028.52</ele>
        <time>2013-09-09T08:12:37Z</time>
      </trkpt>
      <trkpt lat="42.486818516626954" lon="13.567606955766678">
        <ele>2032.8399999999999</ele>
        <time>2013-09-09T08:12:39Z</time>
      </trkpt>
      <trkpt lat="42.486812565475702" lon="13.567599998787045">
        <ele>2032.3599999999999</ele>
        <time>2013-09-09T08:12:50Z</time>
      </trkpt>
      <trkpt lat="42.486793957650661" lon="13.567611565813422">
        <ele>2033.3299999999999</ele>
        <time>2013-09-09T08:13:02Z</time>
      </trkpt>
      <trkpt lat="42.486790353432298" lon="13.567611230537295">
        <ele>2034.29</ele>
        <time>2013-09-09T08:13:10Z</time>
      </trkpt>
      <trkpt lat="42.486787084490061" lon="13.567621540278196">
        <ele>2035.25</ele>
        <time>2013-09-09T08:13:17Z</time>
      </trkpt>
      <trkpt lat="42.486763782799244" lon="13.56767694465816">
        <ele>2039.5699999999999</ele>
        <time>2013-09-09T08:13:23Z</time>
      </trkpt>
      <trkpt lat="42.486764872446656" lon="13.567678285762668">
        <ele>2034.29</ele>
        <time>2013-09-09T08:13:27Z</time>
      </trkpt>
      <trkpt lat="42.486768309026957" lon="13.567676777020097">
        <ele>2034.29</ele>
        <time>2013-09-09T08:13:28Z</time>
      </trkpt>
      <trkpt lat="42.48677677474916" lon="13.567679543048143">
        <ele>2038.1300000000001</ele>
        <time>2013-09-09T08:13:30Z</time>
      </trkpt>
      <trkpt lat="42.486782725900412" lon="13.567680213600397">
        <ele>2034.29</ele>
        <time>2013-09-09T08:13:31Z</time>
      </trkpt>
      <trkpt lat="42.486789766699076" lon="13.567690774798393">
        <ele>2030.9200000000001</ele>
        <time>2013-09-09T08:13:33Z</time>
      </trkpt>
      <trkpt lat="42.486757161095738" lon="13.567700413987041">
        <ele>2029</ele>
        <time>2013-09-09T08:13:37Z</time>
      </trkpt>
      <trkpt lat="42.486736876890063" lon="13.567688260227442">
        <ele>2028.04</ele>
        <time>2013-09-09T08:13:39Z</time>
      </trkpt>
      <trkpt lat="42.486679879948497" lon="13.567688595503569">
        <ele>2028.52</ele>
        <time>2013-09-09T08:13:47Z</time>
      </trkpt>
      <trkpt lat="42.486668648198247" lon="13.567693121731281">
        <ele>2028.04</ele>
        <time>2013-09-09T08:13:49Z</time>
      </trkpt>
      <trkpt lat="42.486627157777548" lon="13.567717680707574">
        <ele>2026.1199999999999</ele>
        <time>2013-09-09T08:13:59Z</time>
      </trkpt>
      <trkpt lat="42.486605532467365" lon="13.567713489755988">
        <ele>2027.0799999999999</ele>
        <time>2013-09-09T08:14:01Z</time>
      </trkpt>
      <trkpt lat="42.486593462526798" lon="13.567713992670178">
        <ele>2027.0799999999999</ele>
        <time>2013-09-09T08:14:03Z</time>
      </trkpt>
      <trkpt lat="42.486512493342161" lon="13.567702593281865">
        <ele>2027.0799999999999</ele>
        <time>2013-09-09T08:14:15Z</time>
      </trkpt>
      <trkpt lat="42.486468153074384" lon="13.567665377631783">
        <ele>2027.0799999999999</ele>
        <time>2013-09-09T08:14:25Z</time>
      </trkpt>
      <trkpt lat="42.486435463652015" lon="13.567615672945976">
        <ele>2028.52</ele>
        <time>2013-09-09T08:14:33Z</time>
      </trkpt>
      <trkpt lat="42.486408725380898" lon="13.567528417333961">
        <ele>2029.48</ele>
        <time>2013-09-09T08:14:47Z</time>
      </trkpt>
      <trkpt lat="42.486350052058697" lon="13.567442251369357">
        <ele>2028.52</ele>
        <time>2013-09-09T08:15:01Z</time>
      </trkpt>
      <trkpt lat="42.486322643235326" lon="13.56742775067687">
        <ele>2031.8800000000001</ele>
        <time>2013-09-09T08:15:08Z</time>
      </trkpt>
      <trkpt lat="42.486299341544509" lon="13.567393803969026">
        <ele>2035.25</ele>
        <time>2013-09-09T08:15:14Z</time>
      </trkpt>
      <trkpt lat="42.486286098137498" lon="13.567366311326623">
        <ele>2031.8800000000001</ele>
        <time>2013-09-09T08:15:20Z</time>
      </trkpt>
      <trkpt lat="42.486283918842673" lon="13.567360192537308">
        <ele>2031.8800000000001</ele>
        <time>2013-09-09T08:15:21Z</time>
      </trkpt>
      <trkpt lat="42.486274866387248" lon="13.567327922210097">
        <ele>2031.4000000000001</ele>
        <time>2013-09-09T08:15:25Z</time>
      </trkpt>
      <trkpt lat="42.486261120066047" lon="13.56731484644115">
        <ele>2034.77</ele>
        <time>2013-09-09T08:15:28Z</time>
      </trkpt>
      <trkpt lat="42.486255588009953" lon="13.56729288585484">
        <ele>2038.6099999999999</ele>
        <time>2013-09-09T08:15:31Z</time>
      </trkpt>
      <trkpt lat="42.48624611645937" lon="13.56726991944015">
        <ele>2039.5699999999999</ele>
        <time>2013-09-09T08:15:35Z</time>
      </trkpt>
      <trkpt lat="42.486220970749855" lon="13.567209988832474">
        <ele>2040.54</ele>
        <time>2013-09-09T08:15:47Z</time>
      </trkpt>
      <trkpt lat="42.486226838082075" lon="13.567184340208769">
        <ele>2043.4200000000001</ele>
        <time>2013-09-09T08:15:50Z</time>
      </trkpt>
      <trkpt lat="42.486233795061707" lon="13.567097168415785">
        <ele>2040.05</ele>
        <time>2013-09-09T08:16:02Z</time>
      </trkpt>
      <trkpt lat="42.486239327117801" lon="13.567079231142998">
        <ele>2045.8199999999999</ele>
        <time>2013-09-09T08:16:05Z</time>
      </trkpt>
      <trkpt lat="42.486193897202611" lon="13.567024245858192">
        <ele>2047.75</ele>
        <time>2013-09-09T08:16:16Z</time>
      </trkpt>
      <trkpt lat="42.486175121739507" lon="13.567003458738327">
        <ele>2049.1900000000001</ele>
        <time>2013-09-09T08:16:20Z</time>
      </trkpt>
      <trkpt lat="42.486151233315468" lon="13.566989880055189">
        <ele>2045.8199999999999</ele>
        <time>2013-09-09T08:16:24Z</time>
      </trkpt>
      <trkpt lat="42.486141594126821" lon="13.566980240866542">
        <ele>2044.8599999999999</ele>
        <time>2013-09-09T08:16:26Z</time>
      </trkpt>
      <trkpt lat="42.486134553328156" lon="13.566974708810449">
        <ele>2046.3</ele>
        <time>2013-09-09T08:16:28Z</time>
      </trkpt>
      <trkpt lat="42.486106138676405" lon="13.566939337179065">
        <ele>2047.26</ele>
        <time>2013-09-09T08:16:33Z</time>
      </trkpt>
      <trkpt lat="42.48610345646739" lon="13.566907653585076">
        <ele>2042.9400000000001</ele>
        <time>2013-09-09T08:16:37Z</time>
      </trkpt>
      <trkpt lat="42.4861063901335" lon="13.566899271681905">
        <ele>2042.9400000000001</ele>
        <time>2013-09-09T08:16:38Z</time>
      </trkpt>
      <trkpt lat="42.486094404011965" lon="13.566880915313959">
        <ele>2039.5699999999999</ele>
        <time>2013-09-09T08:16:41Z</time>
      </trkpt>
      <trkpt lat="42.486044783145189" lon="13.566827438771725">
        <ele>2042.9400000000001</ele>
        <time>2013-09-09T08:16:52Z</time>
      </trkpt>
      <trkpt lat="42.485985942184925" lon="13.566768346354365">
        <ele>2046.3</ele>
        <time>2013-09-09T08:17:04Z</time>
      </trkpt>
      <trkpt lat="42.485927520319819" lon="13.566734064370394">
        <ele>2050.1500000000001</ele>
        <time>2013-09-09T08:17:15Z</time>
      </trkpt>
      <trkpt lat="42.485921066254377" lon="13.566733645275235">
        <ele>2050.1500000000001</ele>
        <time>2013-09-09T08:17:16Z</time>
      </trkpt>
      <trkpt lat="42.485872702673078" lon="13.566686203703284">
        <ele>2055.9200000000001</ele>
        <time>2013-09-09T08:17:27Z</time>
      </trkpt>
      <trkpt lat="42.485862895846367" lon="13.566686371341348">
        <ele>2057.8400000000001</ele>
        <time>2013-09-09T08:17:29Z</time>
      </trkpt>
      <trkpt lat="42.485849233344197" lon="13.566670613363385">
        <ele>2055.9200000000001</ele>
        <time>2013-09-09T08:17:32Z</time>
      </trkpt>
      <trkpt lat="42.48582593165338" lon="13.566639600321651">
        <ele>2053.9899999999998</ele>
        <time>2013-09-09T08:17:38Z</time>
      </trkpt>
      <trkpt lat="42.485815621912479" lon="13.566626608371735">
        <ele>2056.8800000000001</ele>
        <time>2013-09-09T08:17:46Z</time>
      </trkpt>
      <trkpt lat="42.485828446224332" lon="13.566613784059882">
        <ele>2058.8000000000002</ele>
        <time>2013-09-09T08:18:00Z</time>
      </trkpt>
      <trkpt lat="42.485831631347537" lon="13.566596768796444">
        <ele>2063.1300000000001</ele>
        <time>2013-09-09T08:18:05Z</time>
      </trkpt>
      <trkpt lat="42.485825680196285" lon="13.566580424085259">
        <ele>2064.0900000000001</ele>
        <time>2013-09-09T08:18:07Z</time>
      </trkpt>
      <trkpt lat="42.485817298293114" lon="13.566560726612806">
        <ele>2060.7199999999998</ele>
        <time>2013-09-09T08:18:10Z</time>
      </trkpt>
      <trkpt lat="42.485818136483431" lon="13.566557290032506">
        <ele>2057.3600000000001</ele>
        <time>2013-09-09T08:18:11Z</time>
      </trkpt>
      <trkpt lat="42.485815873369575" lon="13.566552009433508">
        <ele>2057.3600000000001</ele>
        <time>2013-09-09T08:18:12Z</time>
      </trkpt>
      <trkpt lat="42.485808664932847" lon="13.566548489034176">
        <ele>2062.6500000000001</ele>
        <time>2013-09-09T08:18:14Z</time>
      </trkpt>
      <trkpt lat="42.485805228352547" lon="13.566546309739351">
        <ele>2061.1999999999998</ele>
        <time>2013-09-09T08:18:15Z</time>
      </trkpt>
      <trkpt lat="42.485782345756888" lon="13.566522002220154">
        <ele>2064.0900000000001</ele>
        <time>2013-09-09T08:18:20Z</time>
      </trkpt>
      <trkpt lat="42.485777987167239" lon="13.566509429365396">
        <ele>2061.6799999999998</ele>
        <time>2013-09-09T08:18:22Z</time>
      </trkpt>
      <trkpt lat="42.485750997439027" lon="13.566460059955716">
        <ele>2057.3600000000001</ele>
        <time>2013-09-09T08:18:30Z</time>
      </trkpt>
      <trkpt lat="42.485746219754219" lon="13.566453689709306">
        <ele>2057.3600000000001</ele>
        <time>2013-09-09T08:18:31Z</time>
      </trkpt>
      <trkpt lat="42.485742196440697" lon="13.566432483494282">
        <ele>2061.1999999999998</ele>
        <time>2013-09-09T08:18:33Z</time>
      </trkpt>
      <trkpt lat="42.485738005489111" lon="13.566410774365067">
        <ele>2057.8400000000001</ele>
        <time>2013-09-09T08:18:36Z</time>
      </trkpt>
      <trkpt lat="42.485694671049714" lon="13.566322680562735">
        <ele>2056.8800000000001</ele>
        <time>2013-09-09T08:18:50Z</time>
      </trkpt>
      <trkpt lat="42.485668184235692" lon="13.566308347508311">
        <ele>2059.7600000000002</ele>
        <time>2013-09-09T08:18:56Z</time>
      </trkpt>
      <trkpt lat="42.485626358538866" lon="13.5662623308599">
        <ele>2061.6799999999998</ele>
        <time>2013-09-09T08:19:10Z</time>
      </trkpt>
      <trkpt lat="42.485603559762239" lon="13.566233078017831">
        <ele>2065.0500000000002</ele>
        <time>2013-09-09T08:19:19Z</time>
      </trkpt>
      <trkpt lat="42.485601464286447" lon="13.566230982542038">
        <ele>2064.5700000000002</ele>
        <time>2013-09-09T08:19:20Z</time>
      </trkpt>
      <trkpt lat="42.485585790127516" lon="13.566217571496964">
        <ele>2068.8899999999999</ele>
        <time>2013-09-09T08:19:26Z</time>
      </trkpt>
      <trkpt lat="42.485582940280437" lon="13.566216062754393">
        <ele>2068.8899999999999</ele>
        <time>2013-09-09T08:19:27Z</time>
      </trkpt>
      <trkpt lat="42.485567098483443" lon="13.566171051934361">
        <ele>2071.3000000000002</ele>
        <time>2013-09-09T08:19:36Z</time>
      </trkpt>
      <trkpt lat="42.485540024936199" lon="13.566158981993794">
        <ele>2074.6599999999999</ele>
        <time>2013-09-09T08:19:43Z</time>
      </trkpt>
      <trkpt lat="42.485536504536867" lon="13.566156886518002">
        <ele>2074.6599999999999</ele>
        <time>2013-09-09T08:19:44Z</time>
      </trkpt>
      <trkpt lat="42.485516974702477" lon="13.566107181832194">
        <ele>2075.6199999999999</ele>
        <time>2013-09-09T08:19:56Z</time>
      </trkpt>
      <trkpt lat="42.4855244345963" lon="13.566114390268922">
        <ele>2074.6599999999999</ele>
        <time>2013-09-09T08:20:01Z</time>
      </trkpt>
      <trkpt lat="42.48552979901433" lon="13.566091926768422">
        <ele>2070.8200000000002</ele>
        <time>2013-09-09T08:20:09Z</time>
      </trkpt>
      <trkpt lat="42.485523177310824" lon="13.566097877919674">
        <ele>2067.9299999999998</ele>
        <time>2013-09-09T08:20:18Z</time>
      </trkpt>
      <trkpt lat="42.48552150093019" lon="13.56609620153904">
        <ele>2067.4499999999998</ele>
        <time>2013-09-09T08:20:19Z</time>
      </trkpt>
      <trkpt lat="42.485488643869758" lon="13.566043060272932">
        <ele>2069.8600000000001</ele>
        <time>2013-09-09T08:20:31Z</time>
      </trkpt>
      <trkpt lat="42.485474478453398" lon="13.566015567630529">
        <ele>2073.2199999999998</ele>
        <time>2013-09-09T08:20:38Z</time>
      </trkpt>
      <trkpt lat="42.485456289723516" lon="13.565992014482617">
        <ele>2077.0700000000002</ele>
        <time>2013-09-09T08:20:45Z</time>
      </trkpt>
      <trkpt lat="42.485434748232365" lon="13.565924121066928">
        <ele>2077.0700000000002</ele>
        <time>2013-09-09T08:20:56Z</time>
      </trkpt>
      <trkpt lat="42.485408345237374" lon="13.565865783020854">
        <ele>2079.9499999999998</ele>
        <time>2013-09-09T08:21:09Z</time>
      </trkpt>
      <trkpt lat="42.485390743240714" lon="13.565834350883961">
        <ele>2081.8699999999999</ele>
        <time>2013-09-09T08:21:23Z</time>
      </trkpt>
      <trkpt lat="42.485360987484455" lon="13.565760506317019">
        <ele>2084.7600000000002</ele>
        <time>2013-09-09T08:21:36Z</time>
      </trkpt>
      <trkpt lat="42.485339529812336" lon="13.565761679783463">
        <ele>2087.6399999999999</ele>
        <time>2013-09-09T08:21:41Z</time>
      </trkpt>
      <trkpt lat="42.485354784876108" lon="13.565728655084968">
        <ele>2086.1999999999998</ele>
        <time>2013-09-09T08:21:56Z</time>
      </trkpt>
      <trkpt lat="42.485349336639047" lon="13.565750867128372">
        <ele>2088.1199999999999</ele>
        <time>2013-09-09T08:22:08Z</time>
      </trkpt>
      <trkpt lat="42.485342882573605" lon="13.565731840208173">
        <ele>2088.1199999999999</ele>
        <time>2013-09-09T08:22:21Z</time>
      </trkpt>
      <trkpt lat="42.485331315547228" lon="13.565623126924038">
        <ele>2091.4899999999998</ele>
        <time>2013-09-09T08:22:34Z</time>
      </trkpt>
      <trkpt lat="42.485301811248064" lon="13.565540313720703">
        <ele>2092.9299999999998</ele>
        <time>2013-09-09T08:22:48Z</time>
      </trkpt>
      <trkpt lat="42.485294099897146" lon="13.565509049221873">
        <ele>2095.3299999999999</ele>
        <time>2013-09-09T08:22:52Z</time>
      </trkpt>
      <trkpt lat="42.485265685245395" lon="13.565452303737402">
        <ele>2097.73</ele>
        <time>2013-09-09T08:22:59Z</time>
      </trkpt>
      <trkpt lat="42.485226457938552" lon="13.565378291532397">
        <ele>2096.77</ele>
        <time>2013-09-09T08:23:07Z</time>
      </trkpt>
      <trkpt lat="42.485213885083795" lon="13.565353229641914">
        <ele>2095.3299999999999</ele>
        <time>2013-09-09T08:23:10Z</time>
      </trkpt>
      <trkpt lat="42.485207263380289" lon="13.565332274883986">
        <ele>2095.3299999999999</ele>
        <time>2013-09-09T08:23:22Z</time>
      </trkpt>
      <trkpt lat="42.485212292522192" lon="13.565325736999512">
        <ele>2095.3299999999999</ele>
        <time>2013-09-09T08:23:29Z</time>
      </trkpt>
      <trkpt lat="42.485211957246065" lon="13.565331352874637">
        <ele>2091.4899999999998</ele>
        <time>2013-09-09T08:23:31Z</time>
      </trkpt>
      <trkpt lat="42.485211119055748" lon="13.565333280712366">
        <ele>2088.5999999999999</ele>
        <time>2013-09-09T08:23:32Z</time>
      </trkpt>
      <trkpt lat="42.485213885083795" lon="13.565326994284987">
        <ele>2085.7199999999998</ele>
        <time>2013-09-09T08:23:35Z</time>
      </trkpt>
      <trkpt lat="42.485213382169604" lon="13.565324814990163">
        <ele>2089.5599999999999</ele>
        <time>2013-09-09T08:23:36Z</time>
      </trkpt>
      <trkpt lat="42.485212963074446" lon="13.565325904637575">
        <ele>2096.29</ele>
        <time>2013-09-09T08:23:37Z</time>
      </trkpt>
      <trkpt lat="42.485212041065097" lon="13.565325988456607">
        <ele>2095.3299999999999</ele>
        <time>2013-09-09T08:23:38Z</time>
      </trkpt>
      <trkpt lat="42.485213633626699" lon="13.565325234085321">
        <ele>2089.5599999999999</ele>
        <time>2013-09-09T08:23:39Z</time>
      </trkpt>
      <trkpt lat="42.485211454331875" lon="13.565326659008861">
        <ele>2091.4899999999998</ele>
        <time>2013-09-09T08:23:40Z</time>
      </trkpt>
      <trkpt lat="42.485215058550239" lon="13.565335040912032">
        <ele>2087.1599999999999</ele>
        <time>2013-09-09T08:23:48Z</time>
      </trkpt>
      <trkpt lat="42.485223524272442" lon="13.565342919901013">
        <ele>2085.2399999999998</ele>
        <time>2013-09-09T08:23:50Z</time>
      </trkpt>
      <trkpt lat="42.485251938924193" lon="13.565407963469625">
        <ele>2088.1199999999999</ele>
        <time>2013-09-09T08:23:56Z</time>
      </trkpt>
      <trkpt lat="42.485277839004993" lon="13.565449453890324">
        <ele>2091</ele>
        <time>2013-09-09T08:24:01Z</time>
      </trkpt>
      <trkpt lat="42.485292507335544" lon="13.565481808036566">
        <ele>2094.8499999999999</ele>
        <time>2013-09-09T08:24:05Z</time>
      </trkpt>
      <trkpt lat="42.485302649438381" lon="13.565519526600838">
        <ele>2091.4899999999998</ele>
        <time>2013-09-09T08:24:15Z</time>
      </trkpt>
      <trkpt lat="42.485308684408665" lon="13.565520532429218">
        <ele>2091</ele>
        <time>2013-09-09T08:24:16Z</time>
      </trkpt>
      <trkpt lat="42.485294099897146" lon="13.56552405282855">
        <ele>2091.9699999999998</ele>
        <time>2013-09-09T08:24:25Z</time>
      </trkpt>
      <trkpt lat="42.485301056876779" lon="13.565514581277966">
        <ele>2093.8899999999999</ele>
        <time>2013-09-09T08:24:35Z</time>
      </trkpt>
      <trkpt lat="42.485310947522521" lon="13.565507205203176">
        <ele>2094.8499999999999</ele>
        <time>2013-09-09T08:25:09Z</time>
      </trkpt>
      <trkpt lat="42.485319916158915" lon="13.565510725602508">
        <ele>2098.21</ele>
        <time>2013-09-09T08:25:13Z</time>
      </trkpt>
      <trkpt lat="42.485319580882788" lon="13.565506367012858">
        <ele>2093.8899999999999</ele>
        <time>2013-09-09T08:25:26Z</time>
      </trkpt>
      <trkpt lat="42.485318742692471" lon="13.565504522994161">
        <ele>2094.3699999999999</ele>
        <time>2013-09-09T08:25:27Z</time>
      </trkpt>
      <trkpt lat="42.485318155959249" lon="13.565502427518368">
        <ele>2094.3699999999999</ele>
        <time>2013-09-09T08:25:50Z</time>
      </trkpt>
      <trkpt lat="42.485299129039049" lon="13.565518856048584">
        <ele>2093.4099999999999</ele>
        <time>2013-09-09T08:26:19Z</time>
      </trkpt>
      <trkpt lat="42.485302146524191" lon="13.565517095848918">
        <ele>2090.04</ele>
        <time>2013-09-09T08:26:21Z</time>
      </trkpt>
      <trkpt lat="42.485304325819016" lon="13.56551818549633">
        <ele>2090.04</ele>
        <time>2013-09-09T08:26:22Z</time>
      </trkpt>
      <trkpt lat="42.48530600219965" lon="13.565522963181138">
        <ele>2093.8899999999999</ele>
        <time>2013-09-09T08:26:23Z</time>
      </trkpt>
      <trkpt lat="42.485310863703489" lon="13.565523633733392">
        <ele>2094.8499999999999</ele>
        <time>2013-09-09T08:26:25Z</time>
      </trkpt>
      <trkpt lat="42.485305750742555" lon="13.565538721159101">
        <ele>2093.8899999999999</ele>
        <time>2013-09-09T08:26:27Z</time>
      </trkpt>
      <trkpt lat="42.485326454043388" lon="13.56560661457479">
        <ele>2095.3299999999999</ele>
        <time>2013-09-09T08:26:40Z</time>
      </trkpt>
      <trkpt lat="42.485337099060416" lon="13.565616589039564">
        <ele>2098.21</ele>
        <time>2013-09-09T08:26:45Z</time>
      </trkpt>
      <trkpt lat="42.485332991927862" lon="13.565620193257928">
        <ele>2092.9299999999998</ele>
        <time>2013-09-09T08:26:49Z</time>
      </trkpt>
      <trkpt lat="42.485329890623689" lon="13.565616337582469">
        <ele>2092.9299999999998</ele>
        <time>2013-09-09T08:26:50Z</time>
      </trkpt>
      <trkpt lat="42.485322346910834" lon="13.565612314268947">
        <ele>2097.25</ele>
        <time>2013-09-09T08:26:52Z</time>
      </trkpt>
      <trkpt lat="42.485321592539549" lon="13.565613823011518">
        <ele>2095.3299999999999</ele>
        <time>2013-09-09T08:26:53Z</time>
      </trkpt>
      <trkpt lat="42.485322095453739" lon="13.56560904532671">
        <ele>2091.4899999999998</ele>
        <time>2013-09-09T08:27:00Z</time>
      </trkpt>
      <trkpt lat="42.485318994149566" lon="13.565604351460934">
        <ele>2095.3299999999999</ele>
        <time>2013-09-09T08:27:05Z</time>
      </trkpt>
      <trkpt lat="42.485318575054407" lon="13.565606446936727">
        <ele>2095.3299999999999</ele>
        <time>2013-09-09T08:27:06Z</time>
      </trkpt>
      <trkpt lat="42.485320921987295" lon="13.565611727535725">
        <ele>2098.6999999999998</ele>
        <time>2013-09-09T08:27:09Z</time>
      </trkpt>
      <trkpt lat="42.485324442386627" lon="13.565610805526376">
        <ele>2093.8899999999999</ele>
        <time>2013-09-09T08:27:11Z</time>
      </trkpt>
      <trkpt lat="42.485325029119849" lon="13.565609967336059">
        <ele>2096.77</ele>
        <time>2013-09-09T08:27:12Z</time>
      </trkpt>
      <trkpt lat="42.48533139936626" lon="13.56561440974474">
        <ele>2092.9299999999998</ele>
        <time>2013-09-09T08:27:23Z</time>
      </trkpt>
      <trkpt lat="42.485331986099482" lon="13.565610470250249">
        <ele>2091.9699999999998</ele>
        <time>2013-09-09T08:27:25Z</time>
      </trkpt>
      <trkpt lat="42.485330225899816" lon="13.565610805526376">
        <ele>2094.8499999999999</ele>
        <time>2013-09-09T08:27:29Z</time>
      </trkpt>
      <trkpt lat="42.485330896452069" lon="13.565610973164439">
        <ele>2095.8099999999999</ele>
        <time>2013-09-09T08:27:31Z</time>
      </trkpt>
      <trkpt lat="42.485328717157245" lon="13.56560711748898">
        <ele>2092.4499999999998</ele>
        <time>2013-09-09T08:27:35Z</time>
      </trkpt>
      <trkpt lat="42.485322849825025" lon="13.565612565726042">
        <ele>2093.8899999999999</ele>
        <time>2013-09-09T08:27:39Z</time>
      </trkpt>
      <trkpt lat="42.485329303890467" lon="13.565614745020866">
        <ele>2093.4099999999999</ele>
        <time>2013-09-09T08:27:45Z</time>
      </trkpt>
      <trkpt lat="42.485329220071435" lon="13.565613823011518">
        <ele>2090.04</ele>
        <time>2013-09-09T08:27:46Z</time>
      </trkpt>
      <trkpt lat="42.485330477356911" lon="13.565611308440566">
        <ele>2086.6799999999998</ele>
        <time>2013-09-09T08:27:47Z</time>
      </trkpt>
      <trkpt lat="42.485329136252403" lon="13.565610889345407">
        <ele>2089.0799999999999</ele>
        <time>2013-09-09T08:27:48Z</time>
      </trkpt>
      <trkpt lat="42.485330142080784" lon="13.565611476078629">
        <ele>2088.5999999999999</ele>
        <time>2013-09-09T08:27:57Z</time>
      </trkpt>
      <trkpt lat="42.485327627509832" lon="13.565617259591818">
        <ele>2088.5999999999999</ele>
        <time>2013-09-09T08:28:06Z</time>
      </trkpt>
      <trkpt lat="42.485326956957579" lon="13.565613403916359">
        <ele>2092.4499999999998</ele>
        <time>2013-09-09T08:28:09Z</time>
      </trkpt>
      <trkpt lat="42.485324610024691" lon="13.565616589039564">
        <ele>2088.5999999999999</ele>
        <time>2013-09-09T08:28:15Z</time>
      </trkpt>
      <trkpt lat="42.485341541469097" lon="13.565612817183137">
        <ele>2089.0799999999999</ele>
        <time>2013-09-09T08:28:33Z</time>
      </trkpt>
      <trkpt lat="42.485346654430032" lon="13.565602675080299">
        <ele>2092.4499999999998</ele>
        <time>2013-09-09T08:28:49Z</time>
      </trkpt>
      <trkpt lat="42.485339529812336" lon="13.565609129145741">
        <ele>2093.4099999999999</ele>
        <time>2013-09-09T08:28:51Z</time>
      </trkpt>
      <trkpt lat="42.485355120152235" lon="13.565619690343738">
        <ele>2092.9299999999998</ele>
        <time>2013-09-09T08:28:56Z</time>
      </trkpt>
      <trkpt lat="42.485350426286459" lon="13.565619522705674">
        <ele>2095.3299999999999</ele>
        <time>2013-09-09T08:29:00Z</time>
      </trkpt>
      <trkpt lat="42.485353192314506" lon="13.565628156065941">
        <ele>2092.9299999999998</ele>
        <time>2013-09-09T08:29:03Z</time>
      </trkpt>
      <trkpt lat="42.48535143211484" lon="13.565661180764437">
        <ele>2092.4499999999998</ele>
        <time>2013-09-09T08:29:08Z</time>
      </trkpt>
      <trkpt lat="42.485355287790298" lon="13.565711639821529">
        <ele>2091</ele>
        <time>2013-09-09T08:29:14Z</time>
      </trkpt>
      <trkpt lat="42.485388647764921" lon="13.565789088606834">
        <ele>2086.6799999999998</ele>
        <time>2013-09-09T08:29:23Z</time>
      </trkpt>
      <trkpt lat="42.485389905050397" lon="13.565797051414847">
        <ele>2087.6399999999999</ele>
        <time>2013-09-09T08:29:24Z</time>
      </trkpt>
      <trkpt lat="42.4853949341923" lon="13.565796716138721">
        <ele>2088.1199999999999</ele>
        <time>2013-09-09T08:29:26Z</time>
      </trkpt>
      <trkpt lat="42.485392838716507" lon="13.565811216831207">
        <ele>2085.2399999999998</ele>
        <time>2013-09-09T08:29:32Z</time>
      </trkpt>
      <trkpt lat="42.485383786261082" lon="13.565815407782793">
        <ele>2084.7600000000002</ele>
        <time>2013-09-09T08:29:40Z</time>
      </trkpt>
      <trkpt lat="42.485391413792968" lon="13.565868465229869">
        <ele>2084.2800000000002</ele>
        <time>2013-09-09T08:29:55Z</time>
      </trkpt>
      <trkpt lat="42.485397951677442" lon="13.565895790234208">
        <ele>2082.8299999999999</ele>
        <time>2013-09-09T08:29:58Z</time>
      </trkpt>
      <trkpt lat="42.485399376600981" lon="13.565952870994806">
        <ele>2080.4299999999998</ele>
        <time>2013-09-09T08:30:04Z</time>
      </trkpt>
      <trkpt lat="42.485408848151565" lon="13.566002575680614">
        <ele>2079.4699999999998</ele>
        <time>2013-09-09T08:30:08Z</time>
      </trkpt>
      <trkpt lat="42.485409770160913" lon="13.566013975068927">
        <ele>2079.9499999999998</ele>
        <time>2013-09-09T08:30:09Z</time>
      </trkpt>
      <trkpt lat="42.48542376793921" lon="13.566090920940042">
        <ele>2080.9099999999999</ele>
        <time>2013-09-09T08:30:16Z</time>
      </trkpt>
      <trkpt lat="42.485426869243383" lon="13.566103493794799">
        <ele>2079.4699999999998</ele>
        <time>2013-09-09T08:30:18Z</time>
      </trkpt>
      <trkpt lat="42.485432988032699" lon="13.566120676696301">
        <ele>2078.0300000000002</ele>
        <time>2013-09-09T08:30:20Z</time>
      </trkpt>
      <trkpt lat="42.48544187285006" lon="13.566148085519671">
        <ele>2077.0700000000002</ele>
        <time>2013-09-09T08:30:22Z</time>
      </trkpt>
      <trkpt lat="42.485442124307156" lon="13.566159820184112">
        <ele>2076.0999999999999</ele>
        <time>2013-09-09T08:30:23Z</time>
      </trkpt>
      <trkpt lat="42.485449751839042" lon="13.566188486292958">
        <ele>2070.3400000000001</ele>
        <time>2013-09-09T08:30:25Z</time>
      </trkpt>
      <trkpt lat="42.485450422391295" lon="13.566195778548717">
        <ele>2070.3400000000001</ele>
        <time>2013-09-09T08:30:26Z</time>
      </trkpt>
      <trkpt lat="42.485453775152564" lon="13.566203825175762">
        <ele>2073.6999999999998</ele>
        <time>2013-09-09T08:30:29Z</time>
      </trkpt>
      <trkpt lat="42.485454361885786" lon="13.566233413293958">
        <ele>2076.5900000000001</ele>
        <time>2013-09-09T08:30:33Z</time>
      </trkpt>
      <trkpt lat="42.485431311652064" lon="13.566298540681601">
        <ele>2074.1799999999998</ele>
        <time>2013-09-09T08:30:39Z</time>
      </trkpt>
      <trkpt lat="42.485389737412333" lon="13.566362913697958">
        <ele>2075.6199999999999</ele>
        <time>2013-09-09T08:30:50Z</time>
      </trkpt>
      <trkpt lat="42.485319664701819" lon="13.566411528736353">
        <ele>2075.6199999999999</ele>
        <time>2013-09-09T08:31:06Z</time>
      </trkpt>
      <trkpt lat="42.485300470143557" lon="13.566399458795786">
        <ele>2076.0999999999999</ele>
        <time>2013-09-09T08:31:22Z</time>
      </trkpt>
      <trkpt lat="42.485261410474777" lon="13.566439608111978">
        <ele>2075.1399999999999</ele>
        <time>2013-09-09T08:31:36Z</time>
      </trkpt>
      <trkpt lat="42.485182955861092" lon="13.566479505971074">
        <ele>2078.0300000000002</ele>
        <time>2013-09-09T08:31:50Z</time>
      </trkpt>
      <trkpt lat="42.485133251175284" lon="13.566520744934678">
        <ele>2079.9499999999998</ele>
        <time>2013-09-09T08:32:02Z</time>
      </trkpt>
      <trkpt lat="42.485078517347574" lon="13.566531641408801">
        <ele>2081.3899999999999</ele>
        <time>2013-09-09T08:32:11Z</time>
      </trkpt>
      <trkpt lat="42.484994949772954" lon="13.566543711349368">
        <ele>2081.3899999999999</ele>
        <time>2013-09-09T08:32:25Z</time>
      </trkpt>
      <trkpt lat="42.485007774084806" lon="13.566528623923659">
        <ele>2080.9099999999999</ele>
        <time>2013-09-09T08:32:35Z</time>
      </trkpt>
      <trkpt lat="42.485004588961601" lon="13.566530551761389">
        <ele>2081.3899999999999</ele>
        <time>2013-09-09T08:32:59Z</time>
      </trkpt>
      <trkpt lat="42.485005175694823" lon="13.56652669608593">
        <ele>2081.8699999999999</ele>
        <time>2013-09-09T08:33:00Z</time>
      </trkpt>
      <trkpt lat="42.484982628375292" lon="13.566538346931338">
        <ele>2083.3099999999999</ele>
        <time>2013-09-09T08:33:12Z</time>
      </trkpt>
      <trkpt lat="42.484980197623372" lon="13.566522756591439">
        <ele>2082.8299999999999</ele>
        <time>2013-09-09T08:33:19Z</time>
      </trkpt>
      <trkpt lat="42.484987154603004" lon="13.566521164029837">
        <ele>2081.3899999999999</ele>
        <time>2013-09-09T08:33:27Z</time>
      </trkpt>
      <trkpt lat="42.484983215108514" lon="13.566521750763059">
        <ele>2083.3099999999999</ele>
        <time>2013-09-09T08:33:30Z</time>
      </trkpt>
      <trkpt lat="42.484995368868113" lon="13.566531557589769">
        <ele>2083.79</ele>
        <time>2013-09-09T08:33:47Z</time>
      </trkpt>
      <trkpt lat="42.48499134555459" lon="13.566538263112307">
        <ele>2084.2800000000002</ele>
        <time>2013-09-09T08:34:00Z</time>
      </trkpt>
      <trkpt lat="42.484968043863773" lon="13.566547650843859">
        <ele>2086.1999999999998</ele>
        <time>2013-09-09T08:34:12Z</time>
      </trkpt>
      <trkpt lat="42.484940886497498" lon="13.566538346931338">
        <ele>2087.6399999999999</ele>
        <time>2013-09-09T08:34:16Z</time>
      </trkpt>
      <trkpt lat="42.484855307266116" lon="13.566566929221153">
        <ele>2091.4899999999998</ele>
        <time>2013-09-09T08:34:30Z</time>
      </trkpt>
      <trkpt lat="42.484849020838737" lon="13.566567432135344">
        <ele>2091.9699999999998</ele>
        <time>2013-09-09T08:34:31Z</time>
      </trkpt>
      <trkpt lat="42.484830748289824" lon="13.566573467105627">
        <ele>2090.52</ele>
        <time>2013-09-09T08:34:34Z</time>
      </trkpt>
      <trkpt lat="42.484720107167959" lon="13.566602133214474">
        <ele>2090.52</ele>
        <time>2013-09-09T08:34:51Z</time>
      </trkpt>
      <trkpt lat="42.484630001708865" lon="13.566608838737011">
        <ele>2091.4899999999998</ele>
        <time>2013-09-09T08:35:06Z</time>
      </trkpt>
      <trkpt lat="42.484558755531907" lon="13.566584698855877">
        <ele>2092.9299999999998</ele>
        <time>2013-09-09T08:35:20Z</time>
      </trkpt>
      <trkpt lat="42.484529921784997" lon="13.566526612266898">
        <ele>2096.77</ele>
        <time>2013-09-09T08:35:27Z</time>
      </trkpt>
      <trkpt lat="42.484523551538587" lon="13.566517978906631">
        <ele>2097.25</ele>
        <time>2013-09-09T08:35:28Z</time>
      </trkpt>
      <trkpt lat="42.484498489648104" lon="13.566483445465565">
        <ele>2097.73</ele>
        <time>2013-09-09T08:35:42Z</time>
      </trkpt>
      <trkpt lat="42.484456244856119" lon="13.566432064399123">
        <ele>2097.73</ele>
        <time>2013-09-09T08:35:56Z</time>
      </trkpt>
      <trkpt lat="42.48444945551455" lon="13.566424017772079">
        <ele>2099.1799999999998</ele>
        <time>2013-09-09T08:35:59Z</time>
      </trkpt>
      <trkpt lat="42.484402181580663" lon="13.566387137398124">
        <ele>2098.21</ele>
        <time>2013-09-09T08:36:05Z</time>
      </trkpt>
      <trkpt lat="42.484397068619728" lon="13.566381018608809">
        <ele>2098.6999999999998</ele>
        <time>2013-09-09T08:36:06Z</time>
      </trkpt>
      <trkpt lat="42.484277626499534" lon="13.56633709743619">
        <ele>2099.1799999999998</ele>
        <time>2013-09-09T08:36:18Z</time>
      </trkpt>
      <trkpt lat="42.484232699498534" lon="13.566336678341031">
        <ele>2098.6999999999998</ele>
        <time>2013-09-09T08:36:23Z</time>
      </trkpt>
      <trkpt lat="42.48411132954061" lon="13.566321339458227">
        <ele>2099.6599999999999</ele>
        <time>2013-09-09T08:36:37Z</time>
      </trkpt>
      <trkpt lat="42.484006052836776" lon="13.566380767151713">
        <ele>2102.0599999999999</ele>
        <time>2013-09-09T08:36:52Z</time>
      </trkpt>
      <trkpt lat="42.483958192169666" lon="13.566392753273249">
        <ele>2103.02</ele>
        <time>2013-09-09T08:37:05Z</time>
      </trkpt>
      <trkpt lat="42.483941679820418" lon="13.5663659311831">
        <ele>2103.5</ele>
        <time>2013-09-09T08:37:16Z</time>
      </trkpt>
      <trkpt lat="42.483954336494207" lon="13.566313460469246">
        <ele>2106.8699999999999</ele>
        <time>2013-09-09T08:37:26Z</time>
      </trkpt>
      <trkpt lat="42.483998760581017" lon="13.566241627559066">
        <ele>2106.8699999999999</ele>
        <time>2013-09-09T08:37:41Z</time>
      </trkpt>
      <trkpt lat="42.484026337042451" lon="13.566242381930351">
        <ele>2109.75</ele>
        <time>2013-09-09T08:37:45Z</time>
      </trkpt>
      <trkpt lat="42.484038239344954" lon="13.566258139908314">
        <ele>2107.8299999999999</ele>
        <time>2013-09-09T08:38:00Z</time>
      </trkpt>
      <trkpt lat="42.484028181061149" lon="13.566225450485945">
        <ele>2109.27</ele>
        <time>2013-09-09T08:38:17Z</time>
      </trkpt>
      <trkpt lat="42.483994988724589" lon="13.566248752176762">
        <ele>2110.23</ele>
        <time>2013-09-09T08:38:43Z</time>
      </trkpt>
      <trkpt lat="42.483945284038782" lon="13.56622670777142">
        <ele>2109.27</ele>
        <time>2013-09-09T08:38:53Z</time>
      </trkpt>
      <trkpt lat="42.483913935720921" lon="13.566251266747713">
        <ele>2110.71</ele>
        <time>2013-09-09T08:39:10Z</time>
      </trkpt>
      <trkpt lat="42.483830535784364" lon="13.56628973968327">
        <ele>2110.71</ele>
        <time>2013-09-09T08:39:24Z</time>
      </trkpt>
      <trkpt lat="42.483733724802732" lon="13.566220672801137">
        <ele>2112.1500000000001</ele>
        <time>2013-09-09T08:39:39Z</time>
      </trkpt>
      <trkpt lat="42.483653761446476" lon="13.566095614805818">
        <ele>2111.1900000000001</ele>
        <time>2013-09-09T08:39:55Z</time>
      </trkpt>
      <trkpt lat="42.483608080074191" lon="13.566083880141377">
        <ele>2110.23</ele>
        <time>2013-09-09T08:40:05Z</time>
      </trkpt>
      <trkpt lat="42.483520824462175" lon="13.566019423305988">
        <ele>2108.79</ele>
        <time>2013-09-09T08:40:18Z</time>
      </trkpt>
      <trkpt lat="42.483475646004081" lon="13.565923953428864">
        <ele>2106.8699999999999</ele>
        <time>2013-09-09T08:40:30Z</time>
      </trkpt>
      <trkpt lat="42.483379254117608" lon="13.565817084163427">
        <ele>2106.8699999999999</ele>
        <time>2013-09-09T08:40:45Z</time>
      </trkpt>
      <trkpt lat="42.483308427035809" lon="13.56573804281652">
        <ele>2108.79</ele>
        <time>2013-09-09T08:41:02Z</time>
      </trkpt>
      <trkpt lat="42.483295602723956" lon="13.565725386142731">
        <ele>2109.75</ele>
        <time>2013-09-09T08:41:15Z</time>
      </trkpt>
      <trkpt lat="42.483299458399415" lon="13.565692696720362">
        <ele>2110.71</ele>
        <time>2013-09-09T08:41:34Z</time>
      </trkpt>
      <trkpt lat="42.483286885544658" lon="13.565672328695655">
        <ele>2111.1900000000001</ele>
        <time>2013-09-09T08:41:49Z</time>
      </trkpt>
      <trkpt lat="42.48328018002212" lon="13.565748268738389">
        <ele>2111.1900000000001</ele>
        <time>2013-09-09T08:42:07Z</time>
      </trkpt>
      <trkpt lat="42.483282694593072" lon="13.565758662298322">
        <ele>2111.6700000000001</ele>
        <time>2013-09-09T08:42:30Z</time>
      </trkpt>
      <trkpt lat="42.483265260234475" lon="13.565813563764095">
        <ele>2110.71</ele>
        <time>2013-09-09T08:42:50Z</time>
      </trkpt>
      <trkpt lat="42.48326257802546" lon="13.56581037864089">
        <ele>2110.23</ele>
        <time>2013-09-09T08:43:08Z</time>
      </trkpt>
      <trkpt lat="42.48324547894299" lon="13.565805098041892">
        <ele>2110.23</ele>
        <time>2013-09-09T08:43:28Z</time>
      </trkpt>
      <trkpt lat="42.483177501708269" lon="13.565792357549071">
        <ele>2112.1500000000001</ele>
        <time>2013-09-09T08:43:43Z</time>
      </trkpt>
      <trkpt lat="42.483135759830475" lon="13.565728906542063">
        <ele>2113.5999999999999</ele>
        <time>2013-09-09T08:43:54Z</time>
      </trkpt>
      <trkpt lat="42.483107764273882" lon="13.565608374774456">
        <ele>2115.52</ele>
        <time>2013-09-09T08:44:10Z</time>
      </trkpt>
      <trkpt lat="42.483057891950011" lon="13.565579289570451">
        <ele>2116.48</ele>
        <time>2013-09-09T08:44:22Z</time>
      </trkpt>
      <trkpt lat="42.483010953292251" lon="13.565579038113356">
        <ele>2117.9200000000001</ele>
        <time>2013-09-09T08:44:38Z</time>
      </trkpt>
      <trkpt lat="42.482949011027813" lon="13.565539978444576">
        <ele>2119.3600000000001</ele>
        <time>2013-09-09T08:44:56Z</time>
      </trkpt>
      <trkpt lat="42.48283208347857" lon="13.565526315942407">
        <ele>2121.29</ele>
        <time>2013-09-09T08:45:13Z</time>
      </trkpt>
      <trkpt lat="42.482794700190425" lon="13.565474264323711">
        <ele>2123.6900000000001</ele>
        <time>2013-09-09T08:45:27Z</time>
      </trkpt>
      <trkpt lat="42.482894025743008" lon="13.565419279038906">
        <ele>2125.1300000000001</ele>
        <time>2013-09-09T08:45:39Z</time>
      </trkpt>
      <trkpt lat="42.482863180339336" lon="13.565383404493332">
        <ele>2127.0500000000002</ele>
        <time>2013-09-09T08:45:52Z</time>
      </trkpt>
      <trkpt lat="42.482809871435165" lon="13.565366389229894">
        <ele>2127.5300000000002</ele>
        <time>2013-09-09T08:46:04Z</time>
      </trkpt>
      <trkpt lat="42.482802495360374" lon="13.565331185236573">
        <ele>2127.5300000000002</ele>
        <time>2013-09-09T08:46:17Z</time>
      </trkpt>
      <trkpt lat="42.482784641906619" lon="13.565337639302015">
        <ele>2128.98</ele>
        <time>2013-09-09T08:46:31Z</time>
      </trkpt>
      <trkpt lat="42.482715491205454" lon="13.565301010385156">
        <ele>2131.3800000000001</ele>
        <time>2013-09-09T08:46:44Z</time>
      </trkpt>
      <trkpt lat="42.482683304697275" lon="13.565243426710367">
        <ele>2134.2600000000002</ele>
        <time>2013-09-09T08:46:57Z</time>
      </trkpt>
      <trkpt lat="42.482667965814471" lon="13.565281480550766">
        <ele>2136.1900000000001</ele>
        <time>2013-09-09T08:47:14Z</time>
      </trkpt>
      <trkpt lat="42.482653800398111" lon="13.565271086990833">
        <ele>2135.71</ele>
        <time>2013-09-09T08:47:32Z</time>
      </trkpt>
      <trkpt lat="42.482606023550034" lon="13.565258933231235">
        <ele>2137.6300000000001</ele>
        <time>2013-09-09T08:47:50Z</time>
      </trkpt>
      <trkpt lat="42.482553469017148" lon="13.565228506922722">
        <ele>2139.0700000000002</ele>
        <time>2013-09-09T08:48:04Z</time>
      </trkpt>
      <trkpt lat="42.482520025223494" lon="13.565205456689">
        <ele>2140.0300000000002</ele>
        <time>2013-09-09T08:48:19Z</time>
      </trkpt>
      <trkpt lat="42.482508709654212" lon="13.565218616276979">
        <ele>2140.0300000000002</ele>
        <time>2013-09-09T08:48:28Z</time>
      </trkpt>
      <trkpt lat="42.482428411021829" lon="13.565127924084663">
        <ele>2140.5100000000002</ele>
        <time>2013-09-09T08:48:42Z</time>
      </trkpt>
      <trkpt lat="42.48237962834537" lon="13.565115770325065">
        <ele>2140.9899999999998</ele>
        <time>2013-09-09T08:48:54Z</time>
      </trkpt>
      <trkpt lat="42.482302598655224" lon="13.5650569293648">
        <ele>2141.4699999999998</ele>
        <time>2013-09-09T08:49:07Z</time>
      </trkpt>
      <trkpt lat="42.482191538438201" lon="13.565123733133078">
        <ele>2141.9499999999998</ele>
        <time>2013-09-09T08:49:22Z</time>
      </trkpt>
      <trkpt lat="42.482113586738706" lon="13.565113507211208">
        <ele>2143.8800000000001</ele>
        <time>2013-09-09T08:49:34Z</time>
      </trkpt>
      <trkpt lat="42.482052985578775" lon="13.565174359828234">
        <ele>2145.3200000000002</ele>
        <time>2013-09-09T08:49:48Z</time>
      </trkpt>
      <trkpt lat="42.481978051364422" lon="13.565202355384827">
        <ele>2146.7600000000002</ele>
        <time>2013-09-09T08:50:02Z</time>
      </trkpt>
      <trkpt lat="42.481970004737377" lon="13.565200511366129">
        <ele>2147.2399999999998</ele>
        <time>2013-09-09T08:50:03Z</time>
      </trkpt>
      <trkpt lat="42.48192080296576" lon="13.56518835760653">
        <ele>2148.1999999999998</ele>
        <time>2013-09-09T08:50:11Z</time>
      </trkpt>
      <trkpt lat="42.481818459928036" lon="13.565236134454608">
        <ele>2149.6500000000001</ele>
        <time>2013-09-09T08:50:23Z</time>
      </trkpt>
      <trkpt lat="42.481745285913348" lon="13.565245103091002">
        <ele>2152.0500000000002</ele>
        <time>2013-09-09T08:50:36Z</time>
      </trkpt>
      <trkpt lat="42.481778897345066" lon="13.565236302092671">
        <ele>2152.0500000000002</ele>
        <time>2013-09-09T08:50:53Z</time>
      </trkpt>
      <trkpt lat="42.481751991435885" lon="13.565295143052936">
        <ele>2152.5300000000002</ele>
        <time>2013-09-09T08:51:08Z</time>
      </trkpt>
      <trkpt lat="42.481666831299663" lon="13.565287347882986">
        <ele>2153.9699999999998</ele>
        <time>2013-09-09T08:51:20Z</time>
      </trkpt>
      <trkpt lat="42.481622155755758" lon="13.565332526341081">
        <ele>2153.0100000000002</ele>
        <time>2013-09-09T08:51:32Z</time>
      </trkpt>
      <trkpt lat="42.481536408886313" lon="13.565295981243253">
        <ele>2152.0500000000002</ele>
        <time>2013-09-09T08:51:45Z</time>
      </trkpt>
      <trkpt lat="42.481539091095328" lon="13.565266896039248">
        <ele>2151.5700000000002</ele>
        <time>2013-09-09T08:52:00Z</time>
      </trkpt>
      <trkpt lat="42.481541438028216" lon="13.565256334841251">
        <ele>2152.0500000000002</ele>
        <time>2013-09-09T08:52:20Z</time>
      </trkpt>
      <trkpt lat="42.481543617323041" lon="13.565255329012871">
        <ele>2153.9699999999998</ele>
        <time>2013-09-09T08:52:55Z</time>
      </trkpt>
      <trkpt lat="42.481514699757099" lon="13.565295143052936">
        <ele>2153.0100000000002</ele>
        <time>2013-09-09T08:53:20Z</time>
      </trkpt>
      <trkpt lat="42.481519225984812" lon="13.565290868282318">
        <ele>2153.4899999999998</ele>
        <time>2013-09-09T08:53:37Z</time>
      </trkpt>
      <trkpt lat="42.481535319238901" lon="13.565276954323053">
        <ele>2152.5300000000002</ele>
        <time>2013-09-09T08:54:08Z</time>
      </trkpt>
      <trkpt lat="42.481534564867616" lon="13.565281061455607">
        <ele>2152.5300000000002</ele>
        <time>2013-09-09T08:54:09Z</time>
      </trkpt>
      <trkpt lat="42.481471868231893" lon="13.565330179408193">
        <ele>2153.0100000000002</ele>
        <time>2013-09-09T08:54:21Z</time>
      </trkpt>
      <trkpt lat="42.481371788308024" lon="13.565326575189829">
        <ele>2154.4499999999998</ele>
        <time>2013-09-09T08:54:42Z</time>
      </trkpt>
      <trkpt lat="42.481353683397174" lon="13.565341327339411">
        <ele>2156.8600000000001</ele>
        <time>2013-09-09T08:55:01Z</time>
      </trkpt>
      <trkpt lat="42.481314791366458" lon="13.565338393673301">
        <ele>2157.8200000000002</ele>
        <time>2013-09-09T08:55:14Z</time>
      </trkpt>
      <trkpt lat="42.481302805244923" lon="13.565358091145754">
        <ele>2157.8200000000002</ele>
        <time>2013-09-09T08:55:28Z</time>
      </trkpt>
      <trkpt lat="42.481213789433241" lon="13.565392540767789">
        <ele>2158.7800000000002</ele>
        <time>2013-09-09T08:55:42Z</time>
      </trkpt>
      <trkpt lat="42.481124857440591" lon="13.565398324280977">
        <ele>2161.6599999999999</ele>
        <time>2013-09-09T08:55:55Z</time>
      </trkpt>
      <trkpt lat="42.481069285422564" lon="13.565432019531727">
        <ele>2162.6199999999999</ele>
        <time>2013-09-09T08:56:06Z</time>
      </trkpt>
      <trkpt lat="42.480995440855622" lon="13.565420871600509">
        <ele>2163.0999999999999</ele>
        <time>2013-09-09T08:56:20Z</time>
      </trkpt>
      <trkpt lat="42.480923356488347" lon="13.565450711175799">
        <ele>2164.5500000000002</ele>
        <time>2013-09-09T08:56:33Z</time>
      </trkpt>
      <trkpt lat="42.480835681781173" lon="13.565490944311023">
        <ele>2166.9499999999998</ele>
        <time>2013-09-09T08:56:49Z</time>
      </trkpt>
      <trkpt lat="42.480849009007215" lon="13.565352223813534">
        <ele>2168.3899999999999</ele>
        <time>2013-09-09T08:57:03Z</time>
      </trkpt>
      <trkpt lat="42.480783546343446" lon="13.565485244616866">
        <ele>2168.3899999999999</ele>
        <time>2013-09-09T08:57:18Z</time>
      </trkpt>
      <trkpt lat="42.480740966275334" lon="13.565527740865946">
        <ele>2169.3499999999999</ele>
        <time>2013-09-09T08:57:33Z</time>
      </trkpt>
      <trkpt lat="42.480677431449294" lon="13.565473593771458">
        <ele>2171.27</ele>
        <time>2013-09-09T08:57:45Z</time>
      </trkpt>
      <trkpt lat="42.480651699006557" lon="13.565439814701676">
        <ele>2172.7199999999998</ele>
        <time>2013-09-09T08:57:58Z</time>
      </trkpt>
      <trkpt lat="42.480625128373504" lon="13.565496644005179">
        <ele>2175.1199999999999</ele>
        <time>2013-09-09T08:58:08Z</time>
      </trkpt>
      <trkpt lat="42.480598725378513" lon="13.565524974837899">
        <ele>2174.1599999999999</ele>
        <time>2013-09-09T08:58:13Z</time>
      </trkpt>
      <trkpt lat="42.480536196380854" lon="13.565526818856597">
        <ele>2175.1199999999999</ele>
        <time>2013-09-09T08:58:22Z</time>
      </trkpt>
      <trkpt lat="42.480478947982192" lon="13.56552111916244">
        <ele>2174.6399999999999</ele>
        <time>2013-09-09T08:58:36Z</time>
      </trkpt>
      <trkpt lat="42.480434356257319" lon="13.565538050606847">
        <ele>2176.5599999999999</ele>
        <time>2013-09-09T08:58:43Z</time>
      </trkpt>
      <trkpt lat="42.480358080938458" lon="13.565625138580799">
        <ele>2179.4499999999998</ele>
        <time>2013-09-09T08:58:59Z</time>
      </trkpt>
      <trkpt lat="42.480336204171181" lon="13.565647434443235">
        <ele>2180.4099999999999</ele>
        <time>2013-09-09T08:59:03Z</time>
      </trkpt>
      <trkpt lat="42.48029219917953" lon="13.565708706155419">
        <ele>2182.3299999999999</ele>
        <time>2013-09-09T08:59:17Z</time>
      </trkpt>
      <trkpt lat="42.48023453168571" lon="13.565754722803831">
        <ele>2181.8499999999999</ele>
        <time>2013-09-09T08:59:34Z</time>
      </trkpt>
      <trkpt lat="42.4802056979388" lon="13.56594524346292">
        <ele>2182.8099999999999</ele>
        <time>2013-09-09T08:59:53Z</time>
      </trkpt>
      <trkpt lat="42.480203183367848" lon="13.566088490188122">
        <ele>2183.29</ele>
        <time>2013-09-09T09:00:08Z</time>
      </trkpt>
      <trkpt lat="42.480239393189549" lon="13.566097626462579">
        <ele>2182.3299999999999</ele>
        <time>2013-09-09T09:00:32Z</time>
      </trkpt>
      <trkpt lat="42.480261353775859" lon="13.566147247329354">
        <ele>2182.8099999999999</ele>
        <time>2013-09-09T09:00:58Z</time>
      </trkpt>
      <trkpt lat="42.480250792577863" lon="13.566137943416834">
        <ele>2184.73</ele>
        <time>2013-09-09T09:01:20Z</time>
      </trkpt>
      <trkpt lat="42.480287337675691" lon="13.566235173493624">
        <ele>2183.29</ele>
        <time>2013-09-09T09:01:34Z</time>
      </trkpt>
      <trkpt lat="42.480312986299396" lon="13.566236514598131">
        <ele>2182.8099999999999</ele>
        <time>2013-09-09T09:01:37Z</time>
      </trkpt>
      <trkpt lat="42.480251044034958" lon="13.566250847652555">
        <ele>2182.8099999999999</ele>
        <time>2013-09-09T09:01:52Z</time>
      </trkpt>
      <trkpt lat="42.480263533070683" lon="13.566275741904974">
        <ele>2185.21</ele>
        <time>2013-09-09T09:02:04Z</time>
      </trkpt>
      <trkpt lat="42.48027459718287" lon="13.566302563995123">
        <ele>2186.6599999999999</ele>
        <time>2013-09-09T09:02:17Z</time>
      </trkpt>
      <trkpt lat="42.480285326018929" lon="13.566323099657893">
        <ele>2189.54</ele>
        <time>2013-09-09T09:02:34Z</time>
      </trkpt>
      <trkpt lat="42.48029706068337" lon="13.566366517916322">
        <ele>2190.5</ele>
        <time>2013-09-09T09:02:45Z</time>
      </trkpt>
      <trkpt lat="42.480319524183869" lon="13.566417144611478">
        <ele>2191.46</ele>
        <time>2013-09-09T09:02:55Z</time>
      </trkpt>
      <trkpt lat="42.480331677943468" lon="13.566468944773078">
        <ele>2191.9400000000001</ele>
        <time>2013-09-09T09:03:10Z</time>
      </trkpt>
      <trkpt lat="42.48034886084497" lon="13.566566174849868">
        <ele>2192.4200000000001</ele>
        <time>2013-09-09T09:03:23Z</time>
      </trkpt>
      <trkpt lat="42.480324385687709" lon="13.566594757139683">
        <ele>2194.3499999999999</ele>
        <time>2013-09-09T09:03:31Z</time>
      </trkpt>
      <trkpt lat="42.480304855853319" lon="13.566600205376744">
        <ele>2193.3899999999999</ele>
        <time>2013-09-09T09:04:00Z</time>
      </trkpt>
      <trkpt lat="42.4802799616009" lon="13.566585034132004">
        <ele>2194.8299999999999</ele>
        <time>2013-09-09T09:04:19Z</time>
      </trkpt>
      <trkpt lat="42.480232687667012" lon="13.566541783511639">
        <ele>2198.1900000000001</ele>
        <time>2013-09-09T09:04:28Z</time>
      </trkpt>
      <trkpt lat="42.480168398469687" lon="13.566432232037187">
        <ele>2197.23</ele>
        <time>2013-09-09T09:04:44Z</time>
      </trkpt>
      <trkpt lat="42.480149455368519" lon="13.566425610333681">
        <ele>2200.5900000000001</ele>
        <time>2013-09-09T09:04:46Z</time>
      </trkpt>
      <trkpt lat="42.480139816179872" lon="13.566421167925">
        <ele>2200.5900000000001</ele>
        <time>2013-09-09T09:04:47Z</time>
      </trkpt>
      <trkpt lat="42.480104360729456" lon="13.566391412168741">
        <ele>2199.6300000000001</ele>
        <time>2013-09-09T09:04:55Z</time>
      </trkpt>
      <trkpt lat="42.480000341311097" lon="13.566341791301966">
        <ele>2202.04</ele>
        <time>2013-09-09T09:05:11Z</time>
      </trkpt>
      <trkpt lat="42.479930017143488" lon="13.566336762160063">
        <ele>2204.4400000000001</ele>
        <time>2013-09-09T09:05:27Z</time>
      </trkpt>
      <trkpt lat="42.479899171739817" lon="13.566312035545707">
        <ele>2205.4000000000001</ele>
        <time>2013-09-09T09:05:33Z</time>
      </trkpt>
      <trkpt lat="42.479895148426294" lon="13.566307341679931">
        <ele>2205.4000000000001</ele>
        <time>2013-09-09T09:05:34Z</time>
      </trkpt>
      <trkpt lat="42.47995600104332" lon="13.566226791590452">
        <ele>2207.3200000000002</ele>
        <time>2013-09-09T09:05:48Z</time>
      </trkpt>
      <trkpt lat="42.48001073487103" lon="13.566169124096632">
        <ele>2207.8099999999999</ele>
        <time>2013-09-09T09:06:02Z</time>
      </trkpt>
      <trkpt lat="42.47993990778923" lon="13.566159652546048">
        <ele>2208.77</ele>
        <time>2013-09-09T09:06:15Z</time>
      </trkpt>
      <trkpt lat="42.479893052950501" lon="13.566160658374429">
        <ele>2209.73</ele>
        <time>2013-09-09T09:06:32Z</time>
      </trkpt>
      <trkpt lat="42.479886682704091" lon="13.566185384988785">
        <ele>2210.21</ele>
        <time>2013-09-09T09:06:56Z</time>
      </trkpt>
      <trkpt lat="42.479860028252006" lon="13.566197790205479">
        <ele>2210.6900000000001</ele>
        <time>2013-09-09T09:07:19Z</time>
      </trkpt>
      <trkpt lat="42.479852735996246" lon="13.566211871802807">
        <ele>2212.1300000000001</ele>
        <time>2013-09-09T09:07:42Z</time>
      </trkpt>
      <trkpt lat="42.479888442903757" lon="13.566171722486615">
        <ele>2211.6500000000001</ele>
        <time>2013-09-09T09:08:06Z</time>
      </trkpt>
      <trkpt lat="42.479897830635309" lon="13.566212458536029">
        <ele>2211.1700000000001</ele>
        <time>2013-09-09T09:08:29Z</time>
      </trkpt>
      <trkpt lat="42.479829769581556" lon="13.566238107159734">
        <ele>2211.6500000000001</ele>
        <time>2013-09-09T09:08:56Z</time>
      </trkpt>
      <trkpt lat="42.479833541437984" lon="13.5662433039397">
        <ele>2211.6500000000001</ele>
        <time>2013-09-09T09:09:14Z</time>
      </trkpt>
      <trkpt lat="42.479802444577217" lon="13.566234083846211">
        <ele>2213.0900000000001</ele>
        <time>2013-09-09T09:09:28Z</time>
      </trkpt>
      <trkpt lat="42.479755841195583" lon="13.566244980320334">
        <ele>2213.5700000000002</ele>
        <time>2013-09-09T09:09:42Z</time>
      </trkpt>
      <trkpt lat="42.479714350774884" lon="13.566205333918333">
        <ele>2215.98</ele>
        <time>2013-09-09T09:09:57Z</time>
      </trkpt>
      <trkpt lat="42.479752907529473" lon="13.566104164347053">
        <ele>2217.4200000000001</ele>
        <time>2013-09-09T09:10:13Z</time>
      </trkpt>
      <trkpt lat="42.479703705757856" lon="13.566122688353062">
        <ele>2220.3000000000002</ele>
        <time>2013-09-09T09:10:28Z</time>
      </trkpt>
      <trkpt lat="42.47966380789876" lon="13.566124616190791">
        <ele>2222.2199999999998</ele>
        <time>2013-09-09T09:10:43Z</time>
      </trkpt>
      <trkpt lat="42.47967503964901" lon="13.566115479916334">
        <ele>2223.6700000000001</ele>
        <time>2013-09-09T09:11:06Z</time>
      </trkpt>
      <trkpt lat="42.479666825383902" lon="13.566138781607151">
        <ele>2223.6700000000001</ele>
        <time>2013-09-09T09:11:31Z</time>
      </trkpt>
      <trkpt lat="42.479630280286074" lon="13.566140038892627">
        <ele>2224.6300000000001</ele>
        <time>2013-09-09T09:11:50Z</time>
      </trkpt>
      <trkpt lat="42.479634722694755" lon="13.56604783795774">
        <ele>2227.5100000000002</ele>
        <time>2013-09-09T09:12:02Z</time>
      </trkpt>
      <trkpt lat="42.47966774739325" lon="13.566002156585455">
        <ele>2228.4699999999998</ele>
        <time>2013-09-09T09:12:11Z</time>
      </trkpt>
      <trkpt lat="42.479668501764536" lon="13.565979106351733">
        <ele>2230.4000000000001</ele>
        <time>2013-09-09T09:12:17Z</time>
      </trkpt>
      <trkpt lat="42.479695240035653" lon="13.565914314240217">
        <ele>2231.8400000000001</ele>
        <time>2013-09-09T09:12:30Z</time>
      </trkpt>
      <trkpt lat="42.479773527011275" lon="13.565854635089636">
        <ele>2234.2399999999998</ele>
        <time>2013-09-09T09:12:44Z</time>
      </trkpt>
      <trkpt lat="42.47982800938189" lon="13.56579520739615">
        <ele>2236.6399999999999</ele>
        <time>2013-09-09T09:12:59Z</time>
      </trkpt>
      <trkpt lat="42.479802444577217" lon="13.56572044081986">
        <ele>2238.5700000000002</ele>
        <time>2013-09-09T09:13:13Z</time>
      </trkpt>
      <trkpt lat="42.47975081205368" lon="13.565702000632882">
        <ele>2239.0500000000002</ele>
        <time>2013-09-09T09:13:26Z</time>
      </trkpt>
      <trkpt lat="42.47974737547338" lon="13.565631844103336">
        <ele>2241.4499999999998</ele>
        <time>2013-09-09T09:13:37Z</time>
      </trkpt>
      <trkpt lat="42.479716362431645" lon="13.565522124990821">
        <ele>2242.8899999999999</ele>
        <time>2013-09-09T09:13:52Z</time>
      </trkpt>
      <trkpt lat="42.479675458744168" lon="13.565544253215194">
        <ele>2245.7800000000002</ele>
        <time>2013-09-09T09:14:06Z</time>
      </trkpt>
      <trkpt lat="42.479654923081398" lon="13.565616421401501">
        <ele>2247.2199999999998</ele>
        <time>2013-09-09T09:14:19Z</time>
      </trkpt>
      <trkpt lat="42.47961301356554" lon="13.565590102225542">
        <ele>2249.6199999999999</ele>
        <time>2013-09-09T09:14:32Z</time>
      </trkpt>
      <trkpt lat="42.479591388255358" lon="13.565528579056263">
        <ele>2252.9899999999998</ele>
        <time>2013-09-09T09:14:44Z</time>
      </trkpt>
      <trkpt lat="42.479595663025975" lon="13.565446687862277">
        <ele>2254.4299999999998</ele>
        <time>2013-09-09T09:15:01Z</time>
      </trkpt>
      <trkpt lat="42.479594824835658" lon="13.565372172743082">
        <ele>2257.3099999999999</ele>
        <time>2013-09-09T09:15:13Z</time>
      </trkpt>
      <trkpt lat="42.479598680511117" lon="13.565320121124387">
        <ele>2259.2399999999998</ele>
        <time>2013-09-09T09:15:24Z</time>
      </trkpt>
      <trkpt lat="42.479605050757527" lon="13.565240493044257">
        <ele>2261.1599999999999</ele>
        <time>2013-09-09T09:15:48Z</time>
      </trkpt>
      <trkpt lat="42.479583928361535" lon="13.565207133069634">
        <ele>2262.1199999999999</ele>
        <time>2013-09-09T09:15:53Z</time>
      </trkpt>
      <trkpt lat="42.479584431275725" lon="13.565069921314716">
        <ele>2264.04</ele>
        <time>2013-09-09T09:16:08Z</time>
      </trkpt>
      <trkpt lat="42.479606810957193" lon="13.564971014857292">
        <ele>2265.48</ele>
        <time>2013-09-09T09:16:22Z</time>
      </trkpt>
      <trkpt lat="42.479567583650351" lon="13.565031867474318">
        <ele>2265.96</ele>
        <time>2013-09-09T09:16:33Z</time>
      </trkpt>
      <trkpt lat="42.479554256424308" lon="13.56507838703692">
        <ele>2266.9299999999998</ele>
        <time>2013-09-09T09:16:44Z</time>
      </trkpt>
      <trkpt lat="42.479555765166879" lon="13.565116357058287">
        <ele>2266.9299999999998</ele>
        <time>2013-09-09T09:16:48Z</time>
      </trkpt>
      <trkpt lat="42.479553082957864" lon="13.565237894654274">
        <ele>2269.3299999999999</ele>
        <time>2013-09-09T09:17:02Z</time>
      </trkpt>
      <trkpt lat="42.479536654427648" lon="13.565319450572133">
        <ele>2272.21</ele>
        <time>2013-09-09T09:17:16Z</time>
      </trkpt>
      <trkpt lat="42.479514358565211" lon="13.56539698317647">
        <ele>2272.6900000000001</ele>
        <time>2013-09-09T09:17:29Z</time>
      </trkpt>
      <trkpt lat="42.479472365230322" lon="13.565381811931729">
        <ele>2273.6599999999999</ele>
        <time>2013-09-09T09:17:48Z</time>
      </trkpt>
      <trkpt lat="42.479475634172559" lon="13.565278379246593">
        <ele>2276.54</ele>
        <time>2013-09-09T09:18:03Z</time>
      </trkpt>
      <trkpt lat="42.479446548968554" lon="13.565306290984154">
        <ele>2276.54</ele>
        <time>2013-09-09T09:18:16Z</time>
      </trkpt>
      <trkpt lat="42.479410003870726" lon="13.565331771969795">
        <ele>2277.98</ele>
        <time>2013-09-09T09:18:26Z</time>
      </trkpt>
      <trkpt lat="42.479387540370226" lon="13.565294807776809">
        <ele>2280.3800000000001</ele>
        <time>2013-09-09T09:18:36Z</time>
      </trkpt>
      <trkpt lat="42.479395000264049" lon="13.565221466124058">
        <ele>2282.3099999999999</ele>
        <time>2013-09-09T09:18:48Z</time>
      </trkpt>
      <trkpt lat="42.479390641674399" lon="13.565143849700689">
        <ele>2283.75</ele>
        <time>2013-09-09T09:19:03Z</time>
      </trkpt>
      <trkpt lat="42.479406734928489" lon="13.565111830830574">
        <ele>2283.75</ele>
        <time>2013-09-09T09:19:33Z</time>
      </trkpt>
      <trkpt lat="42.479412769898772" lon="13.565077716484666">
        <ele>2283.27</ele>
        <time>2013-09-09T09:19:36Z</time>
      </trkpt>
      <trkpt lat="42.479409333318472" lon="13.564969841390848">
        <ele>2285.6700000000001</ele>
        <time>2013-09-09T09:19:50Z</time>
      </trkpt>
      <trkpt lat="42.479395838454366" lon="13.564862133935094">
        <ele>2288.0799999999999</ele>
        <time>2013-09-09T09:20:04Z</time>
      </trkpt>
      <trkpt lat="42.479378320276737" lon="13.564775381237268">
        <ele>2290</ele>
        <time>2013-09-09T09:20:18Z</time>
      </trkpt>
      <trkpt lat="42.479360634461045" lon="13.564707236364484">
        <ele>2290.96</ele>
        <time>2013-09-09T09:20:29Z</time>
      </trkpt>
      <trkpt lat="42.479368764907122" lon="13.564696758985519">
        <ele>2290.48</ele>
        <time>2013-09-09T09:20:54Z</time>
      </trkpt>
      <trkpt lat="42.479335404932499" lon="13.564626686275005">
        <ele>2291.4400000000001</ele>
        <time>2013-09-09T09:21:07Z</time>
      </trkpt>
      <trkpt lat="42.47932375408709" lon="13.564734058454633">
        <ele>2291.9200000000001</ele>
        <time>2013-09-09T09:21:21Z</time>
      </trkpt>
      <trkpt lat="42.479299698024988" lon="13.564844951033592">
        <ele>2293.3600000000001</ele>
        <time>2013-09-09T09:21:32Z</time>
      </trkpt>
      <trkpt lat="42.479272037744522" lon="13.564838077872992">
        <ele>2293.3600000000001</ele>
        <time>2013-09-09T09:21:33Z</time>
      </trkpt>
      <trkpt lat="42.479253262281418" lon="13.564983000978827">
        <ele>2296.25</ele>
        <time>2013-09-09T09:21:47Z</time>
      </trkpt>
      <trkpt lat="42.479230798780918" lon="13.565054917708039">
        <ele>2297.21</ele>
        <time>2013-09-09T09:21:55Z</time>
      </trkpt>
      <trkpt lat="42.479211939498782" lon="13.56517368927598">
        <ele>2299.6100000000001</ele>
        <time>2013-09-09T09:22:09Z</time>
      </trkpt>
      <trkpt lat="42.479170616716146" lon="13.565085092559457">
        <ele>2301.5300000000002</ele>
        <time>2013-09-09T09:22:21Z</time>
      </trkpt>
      <trkpt lat="42.479159217327833" lon="13.565029771998525">
        <ele>2304.4200000000001</ele>
        <time>2013-09-09T09:22:30Z</time>
      </trkpt>
      <trkpt lat="42.479162067174911" lon="13.565019462257624">
        <ele>2305.3800000000001</ele>
        <time>2013-09-09T09:22:32Z</time>
      </trkpt>
      <trkpt lat="42.479148572310805" lon="13.564942432567477">
        <ele>2307.3000000000002</ele>
        <time>2013-09-09T09:22:46Z</time>
      </trkpt>
      <trkpt lat="42.479147482663393" lon="13.564913347363472">
        <ele>2304.4200000000001</ele>
        <time>2013-09-09T09:22:51Z</time>
      </trkpt>
      <trkpt lat="42.479134323075414" lon="13.564845370128751">
        <ele>2305.3800000000001</ele>
        <time>2013-09-09T09:23:05Z</time>
      </trkpt>
      <trkpt lat="42.479113200679421" lon="13.564789211377501">
        <ele>2307.7800000000002</ele>
        <time>2013-09-09T09:23:19Z</time>
      </trkpt>
      <trkpt lat="42.47909844852984" lon="13.564729448407888">
        <ele>2308.2600000000002</ele>
        <time>2013-09-09T09:23:31Z</time>
      </trkpt>
      <trkpt lat="42.479067351669073" lon="13.564640348777175">
        <ele>2310.1900000000001</ele>
        <time>2013-09-09T09:23:45Z</time>
      </trkpt>
      <trkpt lat="42.479029214009643" lon="13.564587291330099">
        <ele>2312.1100000000001</ele>
        <time>2013-09-09T09:23:59Z</time>
      </trkpt>
      <trkpt lat="42.479021837934852" lon="13.564631044864655">
        <ele>2312.1100000000001</ele>
        <time>2013-09-09T09:24:10Z</time>
      </trkpt>
      <trkpt lat="42.479019742459059" lon="13.564685191959143">
        <ele>2315.4699999999998</ele>
        <time>2013-09-09T09:24:23Z</time>
      </trkpt>
      <trkpt lat="42.478994512930512" lon="13.564646383747458">
        <ele>2318.3600000000001</ele>
        <time>2013-09-09T09:24:32Z</time>
      </trkpt>
      <trkpt lat="42.478966601192951" lon="13.564658118411899">
        <ele>2321.2399999999998</ele>
        <time>2013-09-09T09:24:40Z</time>
      </trkpt>
      <trkpt lat="42.478943215683103" lon="13.564702626317739">
        <ele>2322.6799999999998</ele>
        <time>2013-09-09T09:24:50Z</time>
      </trkpt>
      <trkpt lat="42.478884626179934" lon="13.564641019329429">
        <ele>2326.5300000000002</ele>
        <time>2013-09-09T09:25:00Z</time>
      </trkpt>
      <trkpt lat="42.478818744421005" lon="13.564599696546793">
        <ele>2327.9699999999998</ele>
        <time>2013-09-09T09:25:13Z</time>
      </trkpt>
      <trkpt lat="42.478813715279102" lon="13.564597265794873">
        <ele>2328.4499999999998</ele>
        <time>2013-09-09T09:25:14Z</time>
      </trkpt>
      <trkpt lat="42.478771721944213" lon="13.564511016011238">
        <ele>2331.3299999999999</ele>
        <time>2013-09-09T09:25:27Z</time>
      </trkpt>
      <trkpt lat="42.478770380839705" lon="13.564438177272677">
        <ele>2334.6999999999998</ele>
        <time>2013-09-09T09:25:38Z</time>
      </trkpt>
      <trkpt lat="42.478725286200643" lon="13.564365673810244">
        <ele>2335.1799999999998</ele>
        <time>2013-09-09T09:25:52Z</time>
      </trkpt>
      <trkpt lat="42.478677844628692" lon="13.56428730301559">
        <ele>2336.6199999999999</ele>
        <time>2013-09-09T09:26:05Z</time>
      </trkpt>
      <trkpt lat="42.478644149377942" lon="13.564180685207248">
        <ele>2339.02</ele>
        <time>2013-09-09T09:26:21Z</time>
      </trkpt>
      <trkpt lat="42.478622272610664" lon="13.564140871167183">
        <ele>2340.4699999999998</ele>
        <time>2013-09-09T09:26:37Z</time>
      </trkpt>
      <trkpt lat="42.478633085265756" lon="13.564271964132786">
        <ele>2339.02</ele>
        <time>2013-09-09T09:26:52Z</time>
      </trkpt>
      <trkpt lat="42.478642389178276" lon="13.564372211694717">
        <ele>2340.9499999999998</ele>
        <time>2013-09-09T09:27:04Z</time>
      </trkpt>
      <trkpt lat="42.478623194620013" lon="13.564448906108737">
        <ele>2341.4299999999998</ele>
        <time>2013-09-09T09:27:18Z</time>
      </trkpt>
      <trkpt lat="42.478582626208663" lon="13.564513614401221">
        <ele>2344.3099999999999</ele>
        <time>2013-09-09T09:27:29Z</time>
      </trkpt>
      <trkpt lat="42.478572735562921" lon="13.564556362107396">
        <ele>2345.27</ele>
        <time>2013-09-09T09:27:35Z</time>
      </trkpt>
      <trkpt lat="42.478544656187296" lon="13.564661890268326">
        <ele>2345.27</ele>
        <time>2013-09-09T09:27:48Z</time>
      </trkpt>
      <trkpt lat="42.47854926623404" lon="13.564733471721411">
        <ele>2348.1599999999999</ele>
        <time>2013-09-09T09:27:56Z</time>
      </trkpt>
      <trkpt lat="42.478565443307161" lon="13.564840592443943">
        <ele>2349.5999999999999</ele>
        <time>2013-09-09T09:28:11Z</time>
      </trkpt>
      <trkpt lat="42.478533172979951" lon="13.564840005710721">
        <ele>2348.1599999999999</ele>
        <time>2013-09-09T09:28:17Z</time>
      </trkpt>
      <trkpt lat="42.478481456637383" lon="13.564811339601874">
        <ele>2348.1599999999999</ele>
        <time>2013-09-09T09:28:28Z</time>
      </trkpt>
      <trkpt lat="42.478389758616686" lon="13.564698770642281">
        <ele>2349.5999999999999</ele>
        <time>2013-09-09T09:28:46Z</time>
      </trkpt>
      <trkpt lat="42.478372575715184" lon="13.564571281895041">
        <ele>2349.5999999999999</ele>
        <time>2013-09-09T09:29:01Z</time>
      </trkpt>
      <trkpt lat="42.478326726704836" lon="13.56447690166533">
        <ele>2351.04</ele>
        <time>2013-09-09T09:29:15Z</time>
      </trkpt>
      <trkpt lat="42.478273920714855" lon="13.56436257250607">
        <ele>2353.4400000000001</ele>
        <time>2013-09-09T09:29:31Z</time>
      </trkpt>
      <trkpt lat="42.478213319554925" lon="13.56431320309639">
        <ele>2354.8899999999999</ele>
        <time>2013-09-09T09:29:43Z</time>
      </trkpt>
      <trkpt lat="42.478176020085812" lon="13.564192000776529">
        <ele>2357.29</ele>
        <time>2013-09-09T09:29:58Z</time>
      </trkpt>
      <trkpt lat="42.478161519393325" lon="13.564109690487385">
        <ele>2359.6900000000001</ele>
        <time>2013-09-09T09:30:11Z</time>
      </trkpt>
      <trkpt lat="42.478120028972626" lon="13.564069624990225">
        <ele>2361.6199999999999</ele>
        <time>2013-09-09T09:30:24Z</time>
      </trkpt>
      <trkpt lat="42.478091949597001" lon="13.563954709097743">
        <ele>2362.0999999999999</ele>
        <time>2013-09-09T09:30:39Z</time>
      </trkpt>
      <trkpt lat="42.478057332336903" lon="13.56386854313314">
        <ele>2363.54</ele>
        <time>2013-09-09T09:30:52Z</time>
      </trkpt>
      <trkpt lat="42.478005699813366" lon="13.563794950023293">
        <ele>2365.46</ele>
        <time>2013-09-09T09:31:05Z</time>
      </trkpt>
      <trkpt lat="42.477998491376638" lon="13.563786903396249">
        <ele>2365.46</ele>
        <time>2013-09-09T09:31:07Z</time>
      </trkpt>
      <trkpt lat="42.477953815832734" lon="13.563749771565199">
        <ele>2366.9000000000001</ele>
        <time>2013-09-09T09:31:18Z</time>
      </trkpt>
      <trkpt lat="42.477914756163955" lon="13.56367165222764">
        <ele>2368.3499999999999</ele>
        <time>2013-09-09T09:31:29Z</time>
      </trkpt>
      <trkpt lat="42.477891873568296" lon="13.563606357201934">
        <ele>2368.8299999999999</ele>
        <time>2013-09-09T09:31:40Z</time>
      </trkpt>
      <trkpt lat="42.47790670953691" lon="13.563552629202604">
        <ele>2370.27</ele>
        <time>2013-09-09T09:31:53Z</time>
      </trkpt>
      <trkpt lat="42.47792431153357" lon="13.563528656959534">
        <ele>2371.23</ele>
        <time>2013-09-09T09:32:06Z</time>
      </trkpt>
      <trkpt lat="42.477903692051768" lon="13.563526561483741">
        <ele>2371.71</ele>
        <time>2013-09-09T09:32:19Z</time>
      </trkpt>
      <trkpt lat="42.477875277400017" lon="13.563509462401271">
        <ele>2372.1900000000001</ele>
        <time>2013-09-09T09:32:30Z</time>
      </trkpt>
      <trkpt lat="42.477893801406026" lon="13.563453974202275">
        <ele>2372.1900000000001</ele>
        <time>2013-09-09T09:32:42Z</time>
      </trkpt>
      <trkpt lat="42.477891370654106" lon="13.563454644754529">
        <ele>2371.71</ele>
        <time>2013-09-09T09:33:08Z</time>
      </trkpt>
      <trkpt lat="42.477894639596343" lon="13.563454980030656">
        <ele>2371.23</ele>
        <time>2013-09-09T09:33:24Z</time>
      </trkpt>
      <trkpt lat="42.477902350947261" lon="13.563455985859036">
        <ele>2370.75</ele>
        <time>2013-09-09T09:33:41Z</time>
      </trkpt>
      <trkpt lat="42.477900423109531" lon="13.56344785541296">
        <ele>2370.27</ele>
        <time>2013-09-09T09:33:57Z</time>
      </trkpt>
      <trkpt lat="42.477902853861451" lon="13.563453303650022">
        <ele>2371.71</ele>
        <time>2013-09-09T09:34:19Z</time>
      </trkpt>
      <trkpt lat="42.477916348725557" lon="13.56347668915987">
        <ele>2371.23</ele>
        <time>2013-09-09T09:34:41Z</time>
      </trkpt>
      <trkpt lat="42.477914839982986" lon="13.563438467681408">
        <ele>2371.71</ele>
        <time>2013-09-09T09:35:01Z</time>
      </trkpt>
      <trkpt lat="42.477904781699181" lon="13.563319947570562">
        <ele>2373.1500000000001</ele>
        <time>2013-09-09T09:35:14Z</time>
      </trkpt>
      <trkpt lat="42.477908888831735" lon="13.563210899010301">
        <ele>2375.0700000000002</ele>
        <time>2013-09-09T09:35:28Z</time>
      </trkpt>
      <trkpt lat="42.477920791134238" lon="13.563176449388266">
        <ele>2375.5500000000002</ele>
        <time>2013-09-09T09:35:43Z</time>
      </trkpt>
      <trkpt lat="42.477904194965959" lon="13.563118362799287">
        <ele>2377</ele>
        <time>2013-09-09T09:35:58Z</time>
      </trkpt>
      <trkpt lat="42.477858094498515" lon="13.563082739710808">
        <ele>2379.4000000000001</ele>
        <time>2013-09-09T09:36:14Z</time>
      </trkpt>
      <trkpt lat="42.47783781029284" lon="13.563155746087432">
        <ele>2380.8400000000001</ele>
        <time>2013-09-09T09:36:27Z</time>
      </trkpt>
      <trkpt lat="42.477798163890839" lon="13.563088104128838">
        <ele>2382.7600000000002</ele>
        <time>2013-09-09T09:36:42Z</time>
      </trkpt>
      <trkpt lat="42.477758685126901" lon="13.563113920390606">
        <ele>2384.6900000000001</ele>
        <time>2013-09-09T09:36:57Z</time>
      </trkpt>
      <trkpt lat="42.477753488346934" lon="13.563176533207297">
        <ele>2385.6500000000001</ele>
        <time>2013-09-09T09:37:13Z</time>
      </trkpt>
      <trkpt lat="42.477702107280493" lon="13.563242414966226">
        <ele>2388.5300000000002</ele>
        <time>2013-09-09T09:37:29Z</time>
      </trkpt>
      <trkpt lat="42.477697832509875" lon="13.563249539583921">
        <ele>2388.5300000000002</ele>
        <time>2013-09-09T09:37:30Z</time>
      </trkpt>
      <trkpt lat="42.477631364017725" lon="13.563314331695437">
        <ele>2389.9699999999998</ele>
        <time>2013-09-09T09:37:44Z</time>
      </trkpt>
      <trkpt lat="42.477586017921567" lon="13.563378872349858">
        <ele>2391.4200000000001</ele>
        <time>2013-09-09T09:37:58Z</time>
      </trkpt>
      <trkpt lat="42.477534301578999" lon="13.563429331406951">
        <ele>2392.3800000000001</ele>
        <time>2013-09-09T09:38:10Z</time>
      </trkpt>
      <trkpt lat="42.477523824200034" lon="13.56350258924067">
        <ele>2393.8200000000002</ele>
        <time>2013-09-09T09:38:22Z</time>
      </trkpt>
      <trkpt lat="42.477479819208384" lon="13.563585989177227">
        <ele>2395.7399999999998</ele>
        <time>2013-09-09T09:38:35Z</time>
      </trkpt>
      <trkpt lat="42.477462217211723" lon="13.563618678599596">
        <ele>2396.2199999999998</ele>
        <time>2013-09-09T09:38:43Z</time>
      </trkpt>
      <trkpt lat="42.477432796731591" lon="13.563705515116453">
        <ele>2394.7800000000002</ele>
        <time>2013-09-09T09:38:54Z</time>
      </trkpt>
      <trkpt lat="42.477430701255798" lon="13.563726637512445">
        <ele>2395.2600000000002</ele>
        <time>2013-09-09T09:38:56Z</time>
      </trkpt>
      <trkpt lat="42.477421816438437" lon="13.563762176781893">
        <ele>2394.7800000000002</ele>
        <time>2013-09-09T09:39:00Z</time>
      </trkpt>
      <trkpt lat="42.477396167814732" lon="13.563874075189233">
        <ele>2393.8200000000002</ele>
        <time>2013-09-09T09:39:11Z</time>
      </trkpt>
      <trkpt lat="42.477392898872495" lon="13.563904417678714">
        <ele>2394.3000000000002</ele>
        <time>2013-09-09T09:39:26Z</time>
      </trkpt>
      <trkpt lat="42.47737605124712" lon="13.563994523137808">
        <ele>2394.3000000000002</ele>
        <time>2013-09-09T09:39:45Z</time>
      </trkpt>
      <trkpt lat="42.47734478674829" lon="13.564056381583214">
        <ele>2395.7399999999998</ele>
        <time>2013-09-09T09:39:59Z</time>
      </trkpt>
      <trkpt lat="42.477328944951296" lon="13.564074151217937">
        <ele>2396.2199999999998</ele>
        <time>2013-09-09T09:40:21Z</time>
      </trkpt>
      <trkpt lat="42.4772959202528" lon="13.564101308584213">
        <ele>2397.1799999999998</ele>
        <time>2013-09-09T09:40:34Z</time>
      </trkpt>
      <trkpt lat="42.477262811735272" lon="13.56415000744164">
        <ele>2397.6700000000001</ele>
        <time>2013-09-09T09:40:47Z</time>
      </trkpt>
      <trkpt lat="42.477240264415741" lon="13.564252099022269">
        <ele>2399.5900000000001</ele>
        <time>2013-09-09T09:41:02Z</time>
      </trkpt>
      <trkpt lat="42.477184273302555" lon="13.564322087913752">
        <ele>2402.4699999999998</ele>
        <time>2013-09-09T09:41:17Z</time>
      </trkpt>
      <trkpt lat="42.477166168391705" lon="13.564275484532118">
        <ele>2403.4299999999998</ele>
        <time>2013-09-09T09:41:26Z</time>
      </trkpt>
      <trkpt lat="42.477146973833442" lon="13.564303899183869">
        <ele>2404.3899999999999</ele>
        <time>2013-09-09T09:41:38Z</time>
      </trkpt>
      <trkpt lat="42.477127443999052" lon="13.564289817586541">
        <ele>2405.8400000000001</ele>
        <time>2013-09-09T09:41:52Z</time>
      </trkpt>
      <trkpt lat="42.47707748785615" lon="13.564253272488713">
        <ele>2408.2399999999998</ele>
        <time>2013-09-09T09:42:06Z</time>
      </trkpt>
      <trkpt lat="42.477062819525599" lon="13.564282860606909">
        <ele>2409.6799999999998</ele>
        <time>2013-09-09T09:42:17Z</time>
      </trkpt>
      <trkpt lat="42.477097017690539" lon="13.564319992437959">
        <ele>2411.1199999999999</ele>
        <time>2013-09-09T09:42:29Z</time>
      </trkpt>
      <trkpt lat="42.477104226127267" lon="13.56443733908236">
        <ele>2414.0100000000002</ele>
        <time>2013-09-09T09:42:44Z</time>
      </trkpt>
      <trkpt lat="42.477045971900225" lon="13.564452677965164">
        <ele>2414.4899999999998</ele>
        <time>2013-09-09T09:42:57Z</time>
      </trkpt>
      <trkpt lat="42.477037254720926" lon="13.564462652429938">
        <ele>2415.9299999999998</ele>
        <time>2013-09-09T09:43:10Z</time>
      </trkpt>
      <trkpt lat="42.477029543370008" lon="13.564545717090368">
        <ele>2415.9299999999998</ele>
        <time>2013-09-09T09:43:28Z</time>
      </trkpt>
      <trkpt lat="42.477000961080194" lon="13.564574047923088">
        <ele>2417.3699999999999</ele>
        <time>2013-09-09T09:43:42Z</time>
      </trkpt>
      <trkpt lat="42.476975144818425" lon="13.564620651304722">
        <ele>2417.3699999999999</ele>
        <time>2013-09-09T09:44:01Z</time>
      </trkpt>
      <trkpt lat="42.476915884763002" lon="13.564612856134772">
        <ele>2418.3299999999999</ele>
        <time>2013-09-09T09:44:13Z</time>
      </trkpt>
      <trkpt lat="42.476910855621099" lon="13.564600367099047">
        <ele>2420.2600000000002</ele>
        <time>2013-09-09T09:44:27Z</time>
      </trkpt>
      <trkpt lat="42.476990986615419" lon="13.564660465344787">
        <ele>2421.6999999999998</ele>
        <time>2013-09-09T09:44:42Z</time>
      </trkpt>
      <trkpt lat="42.477037841454148" lon="13.564759623259306">
        <ele>2423.1399999999999</ele>
        <time>2013-09-09T09:44:57Z</time>
      </trkpt>
      <trkpt lat="42.476962404325604" lon="13.564785858616233">
        <ele>2425.0599999999999</ele>
        <time>2013-09-09T09:45:13Z</time>
      </trkpt>
      <trkpt lat="42.47695972211659" lon="13.564795413985848">
        <ele>2426.9899999999998</ele>
        <time>2013-09-09T09:45:28Z</time>
      </trkpt>
      <trkpt lat="42.476993249729276" lon="13.564873281866312">
        <ele>2427.9499999999998</ele>
        <time>2013-09-09T09:45:45Z</time>
      </trkpt>
      <trkpt lat="42.477000541985035" lon="13.564921645447612">
        <ele>2428.4299999999998</ele>
        <time>2013-09-09T09:46:01Z</time>
      </trkpt>
      <trkpt lat="42.477038260549307" lon="13.565010325983167">
        <ele>2429.3899999999999</ele>
        <time>2013-09-09T09:46:16Z</time>
      </trkpt>
      <trkpt lat="42.477077823132277" lon="13.565079309046268">
        <ele>2430.8299999999999</ele>
        <time>2013-09-09T09:46:30Z</time>
      </trkpt>
      <trkpt lat="42.477086121216416" lon="13.565114345401525">
        <ele>2430.3499999999999</ele>
        <time>2013-09-09T09:46:53Z</time>
      </trkpt>
      <trkpt lat="42.47711512260139" lon="13.56518492102623">
        <ele>2431.3099999999999</ele>
        <time>2013-09-09T09:47:07Z</time>
      </trkpt>
      <trkpt lat="42.477146973833442" lon="13.565184585750103">
        <ele>2431.79</ele>
        <time>2013-09-09T09:47:21Z</time>
      </trkpt>
      <trkpt lat="42.477159043774009" lon="13.565173102542758">
        <ele>2431.79</ele>
        <time>2013-09-09T09:47:43Z</time>
      </trkpt>
      <trkpt lat="42.477185782045126" lon="13.565163044258952">
        <ele>2433.23</ele>
        <time>2013-09-09T09:47:59Z</time>
      </trkpt>
      <trkpt lat="42.477222997695208" lon="13.565170839428902">
        <ele>2433.71</ele>
        <time>2013-09-09T09:48:15Z</time>
      </trkpt>
      <trkpt lat="42.47722459025681" lon="13.565173521637917">
        <ele>2432.75</ele>
        <time>2013-09-09T09:48:26Z</time>
      </trkpt>
      <trkpt lat="42.477273540571332" lon="13.565229428932071">
        <ele>2434.1999999999998</ele>
        <time>2013-09-09T09:48:39Z</time>
      </trkpt>
      <trkpt lat="42.477265410125256" lon="13.565245354548097">
        <ele>2434.6799999999998</ele>
        <time>2013-09-09T09:48:55Z</time>
      </trkpt>
      <trkpt lat="42.47724462300539" lon="13.565269745886326">
        <ele>2434.6799999999998</ele>
        <time>2013-09-09T09:49:17Z</time>
      </trkpt>
      <trkpt lat="42.477285275235772" lon="13.565246360376477">
        <ele>2435.1599999999999</ele>
        <time>2013-09-09T09:49:36Z</time>
      </trkpt>
      <trkpt lat="42.477243114262819" lon="13.565278379246593">
        <ele>2435.6399999999999</ele>
        <time>2013-09-09T09:49:52Z</time>
      </trkpt>
      <trkpt lat="42.477231798693538" lon="13.565257592126727">
        <ele>2436.1199999999999</ele>
        <time>2013-09-09T09:50:04Z</time>
      </trkpt>
      <trkpt lat="42.477219309657812" lon="13.565233955159783">
        <ele>2435.6399999999999</ele>
        <time>2013-09-09T09:50:25Z</time>
      </trkpt>
      <trkpt lat="42.477216124534607" lon="13.565245103091002">
        <ele>2435.1599999999999</ele>
        <time>2013-09-09T09:50:45Z</time>
      </trkpt>
      <trkpt lat="42.477207574993372" lon="13.565241415053606">
        <ele>2435.6399999999999</ele>
        <time>2013-09-09T09:51:15Z</time>
      </trkpt>
      <trkpt lat="42.477205144241452" lon="13.565244683995843">
        <ele>2435.1599999999999</ele>
        <time>2013-09-09T09:51:24Z</time>
      </trkpt>
      <trkpt lat="42.477203970775008" lon="13.565238900482655">
        <ele>2435.1599999999999</ele>
        <time>2013-09-09T09:51:51Z</time>
      </trkpt>
      <trkpt lat="42.477239426225424" lon="13.565238984301686">
        <ele>2434.6799999999998</ele>
        <time>2013-09-09T09:52:19Z</time>
      </trkpt>
      <trkpt lat="42.477236576378345" lon="13.565240828320384">
        <ele>2434.6799999999998</ele>
        <time>2013-09-09T09:52:34Z</time>
      </trkpt>
      <trkpt lat="42.477241773158312" lon="13.565244264900684">
        <ele>2435.1599999999999</ele>
        <time>2013-09-09T09:52:51Z</time>
      </trkpt>
      <trkpt lat="42.477238839492202" lon="13.565244181081653">
        <ele>2434.1999999999998</ele>
        <time>2013-09-09T09:53:10Z</time>
      </trkpt>
      <trkpt lat="42.477219142019749" lon="13.565282486379147">
        <ele>2435.1599999999999</ele>
        <time>2013-09-09T09:53:34Z</time>
      </trkpt>
      <trkpt lat="42.477161809802055" lon="13.565235715359449">
        <ele>2435.6399999999999</ele>
        <time>2013-09-09T09:53:56Z</time>
      </trkpt>
      <trkpt lat="42.477157283574343" lon="13.565214425325394">
        <ele>2435.1599999999999</ele>
        <time>2013-09-09T09:54:24Z</time>
      </trkpt>
      <trkpt lat="42.477114200592041" lon="13.565263962373137">
        <ele>2435.1599999999999</ele>
        <time>2013-09-09T09:54:45Z</time>
      </trkpt>
      <trkpt lat="42.477291645482183" lon="13.565193470567465">
        <ele>2435.6399999999999</ele>
        <time>2013-09-09T09:55:13Z</time>
      </trkpt>
      <trkpt lat="42.477154014632106" lon="13.565246360376477">
        <ele>2435.6399999999999</ele>
        <time>2013-09-09T09:56:03Z</time>
      </trkpt>
    </trkseg>
  </trk>

  <trk>
    <name>3-g-ferrata-corno-orient-e-occ2013-09-10</name>
    <extensions>
      <gpxx:TrackExtension>
        <gpxx:DisplayColor>Yellow</gpxx:DisplayColor>
      </gpxx:TrackExtension>
    </extensions>
    <trkseg>
      <trkpt lat="42.47597174718976" lon="13.566735154017806">
        <ele>2395.2600000000002</ele>
        <time>2013-09-10T06:29:19Z</time>
      </trkpt>
      <trkpt lat="42.4759834818542" lon="13.566678576171398">
        <ele>2403.9099999999999</ele>
        <time>2013-09-10T06:29:21Z</time>
      </trkpt>
      <trkpt lat="42.475986750796437" lon="13.56665669940412">
        <ele>2407.7600000000002</ele>
        <time>2013-09-10T06:29:22Z</time>
      </trkpt>
      <trkpt lat="42.47598490677774" lon="13.566642366349697">
        <ele>2411.5999999999999</ele>
        <time>2013-09-10T06:29:23Z</time>
      </trkpt>
      <trkpt lat="42.475983146578074" lon="13.566624093800783">
        <ele>2414.4899999999998</ele>
        <time>2013-09-10T06:29:24Z</time>
      </trkpt>
      <trkpt lat="42.475985828787088" lon="13.566600373014808">
        <ele>2417.8499999999999</ele>
        <time>2013-09-10T06:29:25Z</time>
      </trkpt>
      <trkpt lat="42.475998736917973" lon="13.566538346931338">
        <ele>2423.6199999999999</ele>
        <time>2013-09-10T06:29:27Z</time>
      </trkpt>
      <trkpt lat="42.476027151569724" lon="13.56641722843051">
        <ele>2430.8299999999999</ele>
        <time>2013-09-10T06:29:30Z</time>
      </trkpt>
      <trkpt lat="42.476040394976735" lon="13.566341791301966">
        <ele>2437.5599999999999</ele>
        <time>2013-09-10T06:29:33Z</time>
      </trkpt>
      <trkpt lat="42.47604793868959" lon="13.566310610622168">
        <ele>2437.5599999999999</ele>
        <time>2013-09-10T06:29:34Z</time>
      </trkpt>
      <trkpt lat="42.476049615070224" lon="13.566284961998463">
        <ele>2441.4099999999999</ele>
        <time>2013-09-10T06:29:37Z</time>
      </trkpt>
      <trkpt lat="42.476047268137336" lon="13.566276580095291">
        <ele>2444.77</ele>
        <time>2013-09-10T06:29:40Z</time>
      </trkpt>
      <trkpt lat="42.476055230945349" lon="13.566227462142706">
        <ele>2448.1300000000001</ele>
        <time>2013-09-10T06:29:43Z</time>
      </trkpt>
      <trkpt lat="42.476044921204448" lon="13.5662174038589">
        <ele>2451.5</ele>
        <time>2013-09-10T06:29:47Z</time>
      </trkpt>
      <trkpt lat="42.476052213460207" lon="13.566225618124008">
        <ele>2454.3800000000001</ele>
        <time>2013-09-10T06:29:51Z</time>
      </trkpt>
      <trkpt lat="42.476054392755032" lon="13.566227043047547">
        <ele>2454.3800000000001</ele>
        <time>2013-09-10T06:29:52Z</time>
      </trkpt>
      <trkpt lat="42.476060427725315" lon="13.566233329474926">
        <ele>2457.75</ele>
        <time>2013-09-10T06:29:58Z</time>
      </trkpt>
      <trkpt lat="42.476071491837502" lon="13.566263001412153">
        <ele>2458.23</ele>
        <time>2013-09-10T06:30:02Z</time>
      </trkpt>
      <trkpt lat="42.476095883175731" lon="13.566274903714657">
        <ele>2458.23</ele>
        <time>2013-09-10T06:30:12Z</time>
      </trkpt>
      <trkpt lat="42.476084986701608" lon="13.566310442984104">
        <ele>2459.1900000000001</ele>
        <time>2013-09-10T06:30:16Z</time>
      </trkpt>
      <trkpt lat="42.476070821285248" lon="13.566370038315654">
        <ele>2459.1900000000001</ele>
        <time>2013-09-10T06:30:22Z</time>
      </trkpt>
      <trkpt lat="42.476115329191089" lon="13.566463831812143">
        <ele>2458.71</ele>
        <time>2013-09-10T06:30:31Z</time>
      </trkpt>
      <trkpt lat="42.47609487734735" lon="13.566590398550034">
        <ele>2463.04</ele>
        <time>2013-09-10T06:30:44Z</time>
      </trkpt>
      <trkpt lat="42.476062523201108" lon="13.566765747964382">
        <ele>2463.04</ele>
        <time>2013-09-10T06:31:02Z</time>
      </trkpt>
      <trkpt lat="42.476026061922312" lon="13.566948724910617">
        <ele>2462.5500000000002</ele>
        <time>2013-09-10T06:31:19Z</time>
      </trkpt>
      <trkpt lat="42.476017260923982" lon="13.566959956660867">
        <ele>2463.04</ele>
        <time>2013-09-10T06:31:20Z</time>
      </trkpt>
      <trkpt lat="42.475929586216807" lon="13.56704369187355">
        <ele>2461.1100000000001</ele>
        <time>2013-09-10T06:31:35Z</time>
      </trkpt>
      <trkpt lat="42.475919192656875" lon="13.567056935280561">
        <ele>2457.75</ele>
        <time>2013-09-10T06:31:40Z</time>
      </trkpt>
      <trkpt lat="42.475920114666224" lon="13.567053666338325">
        <ele>2457.75</ele>
        <time>2013-09-10T06:31:41Z</time>
      </trkpt>
      <trkpt lat="42.475925981998444" lon="13.567119380459189">
        <ele>2458.71</ele>
        <time>2013-09-10T06:31:54Z</time>
      </trkpt>
      <trkpt lat="42.47594635002315" lon="13.567207558080554">
        <ele>2457.75</ele>
        <time>2013-09-10T06:32:09Z</time>
      </trkpt>
      <trkpt lat="42.475946852937341" lon="13.567269165068865">
        <ele>2456.79</ele>
        <time>2013-09-10T06:32:22Z</time>
      </trkpt>
      <trkpt lat="42.475984990596771" lon="13.567432276904583">
        <ele>2458.23</ele>
        <time>2013-09-10T06:32:38Z</time>
      </trkpt>
      <trkpt lat="42.476009381935" lon="13.567574350163341">
        <ele>2460.6300000000001</ele>
        <time>2013-09-10T06:32:54Z</time>
      </trkpt>
      <trkpt lat="42.476031510159373" lon="13.567681973800063">
        <ele>2460.6300000000001</ele>
        <time>2013-09-10T06:33:09Z</time>
      </trkpt>
      <trkpt lat="42.476037545129657" lon="13.567705946043134">
        <ele>2462.0700000000002</ele>
        <time>2013-09-10T06:33:13Z</time>
      </trkpt>
      <trkpt lat="42.476048525422812" lon="13.567747855558991">
        <ele>2462.5500000000002</ele>
        <time>2013-09-10T06:33:20Z</time>
      </trkpt>
      <trkpt lat="42.47609487734735" lon="13.56787383556366">
        <ele>2463.52</ele>
        <time>2013-09-10T06:33:36Z</time>
      </trkpt>
      <trkpt lat="42.476125136017799" lon="13.567941309884191">
        <ele>2464.96</ele>
        <time>2013-09-10T06:33:52Z</time>
      </trkpt>
      <trkpt lat="42.476141732186079" lon="13.567969473078847">
        <ele>2465.4400000000001</ele>
        <time>2013-09-10T06:34:09Z</time>
      </trkpt>
      <trkpt lat="42.476113485172391" lon="13.56796964071691">
        <ele>2464.48</ele>
        <time>2013-09-10T06:34:33Z</time>
      </trkpt>
      <trkpt lat="42.476135278120637" lon="13.567953798919916">
        <ele>2464.48</ele>
        <time>2013-09-10T06:35:00Z</time>
      </trkpt>
      <trkpt lat="42.476133937016129" lon="13.567908201366663">
        <ele>2464.48</ele>
        <time>2013-09-10T06:35:33Z</time>
      </trkpt>
      <trkpt lat="42.476126477122307" lon="13.567959414795041">
        <ele>2464.96</ele>
        <time>2013-09-10T06:36:02Z</time>
      </trkpt>
      <trkpt lat="42.476149359717965" lon="13.567971317097545">
        <ele>2464.48</ele>
        <time>2013-09-10T06:36:29Z</time>
      </trkpt>
      <trkpt lat="42.476138966158032" lon="13.567973161116242">
        <ele>2463.04</ele>
        <time>2013-09-10T06:36:48Z</time>
      </trkpt>
      <trkpt lat="42.476172409951687" lon="13.567899148911238">
        <ele>2463.04</ele>
        <time>2013-09-10T06:37:17Z</time>
      </trkpt>
      <trkpt lat="42.476124297827482" lon="13.567984811961651">
        <ele>2464.96</ele>
        <time>2013-09-10T06:37:31Z</time>
      </trkpt>
      <trkpt lat="42.476099487394094" lon="13.568067876622081">
        <ele>2464.48</ele>
        <time>2013-09-10T06:37:50Z</time>
      </trkpt>
      <trkpt lat="42.476103091612458" lon="13.568077934905887">
        <ele>2464.96</ele>
        <time>2013-09-10T06:38:06Z</time>
      </trkpt>
      <trkpt lat="42.476110635325313" lon="13.568085394799709">
        <ele>2465.4400000000001</ele>
        <time>2013-09-10T06:38:22Z</time>
      </trkpt>
      <trkpt lat="42.476136535406113" lon="13.568074917420745">
        <ele>2464.96</ele>
        <time>2013-09-10T06:38:46Z</time>
      </trkpt>
      <trkpt lat="42.476142318919301" lon="13.56812110170722">
        <ele>2465.9200000000001</ele>
        <time>2013-09-10T06:39:01Z</time>
      </trkpt>
      <trkpt lat="42.476165201514959" lon="13.568108109757304">
        <ele>2467.3600000000001</ele>
        <time>2013-09-10T06:39:24Z</time>
      </trkpt>
      <trkpt lat="42.476195292547345" lon="13.568089753389359">
        <ele>2467.8400000000001</ele>
        <time>2013-09-10T06:39:49Z</time>
      </trkpt>
      <trkpt lat="42.476173331961036" lon="13.568075587972999">
        <ele>2467.3600000000001</ele>
        <time>2013-09-10T06:40:08Z</time>
      </trkpt>
      <trkpt lat="42.476189592853189" lon="13.568031499162316">
        <ele>2468.3200000000002</ele>
        <time>2013-09-10T06:40:30Z</time>
      </trkpt>
      <trkpt lat="42.476264862343669" lon="13.568012723699212">
        <ele>2469.2800000000002</ele>
        <time>2013-09-10T06:40:55Z</time>
      </trkpt>
      <trkpt lat="42.476229574531317" lon="13.567890347912908">
        <ele>2469.2800000000002</ele>
        <time>2013-09-10T06:41:17Z</time>
      </trkpt>
      <trkpt lat="42.476237956434488" lon="13.567907027900219">
        <ele>2468.8000000000002</ele>
        <time>2013-09-10T06:41:21Z</time>
      </trkpt>
      <trkpt lat="42.476171907037497" lon="13.568066619336605">
        <ele>2469.2800000000002</ele>
        <time>2013-09-10T06:41:41Z</time>
      </trkpt>
      <trkpt lat="42.47635530307889" lon="13.567520538344979">
        <ele>2469.2800000000002</ele>
        <time>2013-09-10T06:42:01Z</time>
      </trkpt>
      <trkpt lat="42.476354632526636" lon="13.567467564716935">
        <ele>2469.7600000000002</ele>
        <time>2013-09-10T06:42:24Z</time>
      </trkpt>
      <trkpt lat="42.476320266723633" lon="13.567821113392711">
        <ele>2469.7600000000002</ele>
        <time>2013-09-10T06:42:45Z</time>
      </trkpt>
      <trkpt lat="42.476321524009109" lon="13.567730840295553">
        <ele>2470.2399999999998</ele>
        <time>2013-09-10T06:43:07Z</time>
      </trkpt>
      <trkpt lat="42.476334264501929" lon="13.567739725112915">
        <ele>2471.6900000000001</ele>
        <time>2013-09-10T06:43:36Z</time>
      </trkpt>
      <trkpt lat="42.476380281150341" lon="13.567625395953655">
        <ele>2471.6900000000001</ele>
        <time>2013-09-10T06:44:00Z</time>
      </trkpt>
      <trkpt lat="42.476431662216783" lon="13.567482568323612">
        <ele>2473.1300000000001</ele>
        <time>2013-09-10T06:44:22Z</time>
      </trkpt>
      <trkpt lat="42.47649016790092" lon="13.567425906658173">
        <ele>2474.5700000000002</ele>
        <time>2013-09-10T06:44:43Z</time>
      </trkpt>
      <trkpt lat="42.476473823189735" lon="13.567477539181709">
        <ele>2475.5300000000002</ele>
        <time>2013-09-10T06:45:02Z</time>
      </trkpt>
      <trkpt lat="42.476468794047832" lon="13.567548282444477">
        <ele>2476.4899999999998</ele>
        <time>2013-09-10T06:45:19Z</time>
      </trkpt>
      <trkpt lat="42.476441133767366" lon="13.567666551098228">
        <ele>2478.4200000000001</ele>
        <time>2013-09-10T06:45:40Z</time>
      </trkpt>
      <trkpt lat="42.476432584226131" lon="13.567691193893552">
        <ele>2479.3800000000001</ele>
        <time>2013-09-10T06:45:50Z</time>
      </trkpt>
      <trkpt lat="42.47649310156703" lon="13.567549958825111">
        <ele>2481.3000000000002</ele>
        <time>2013-09-10T06:46:10Z</time>
      </trkpt>
      <trkpt lat="42.476537609472871" lon="13.567525316029787">
        <ele>2481.7800000000002</ele>
        <time>2013-09-10T06:46:28Z</time>
      </trkpt>
      <trkpt lat="42.476536016911268" lon="13.567434372380376">
        <ele>2482.7399999999998</ele>
        <time>2013-09-10T06:46:48Z</time>
      </trkpt>
      <trkpt lat="42.476563593372703" lon="13.567518778145313">
        <ele>2485.6300000000001</ele>
        <time>2013-09-10T06:47:09Z</time>
      </trkpt>
      <trkpt lat="42.476683538407087" lon="13.567304788157344">
        <ele>2486.1100000000001</ele>
        <time>2013-09-10T06:47:34Z</time>
      </trkpt>
      <trkpt lat="42.476665433496237" lon="13.567352145910263">
        <ele>2487.5500000000002</ele>
        <time>2013-09-10T06:47:38Z</time>
      </trkpt>
      <trkpt lat="42.476639449596405" lon="13.567421045154333">
        <ele>2487.0700000000002</ele>
        <time>2013-09-10T06:47:52Z</time>
      </trkpt>
      <trkpt lat="42.476587481796741" lon="13.567751375958323">
        <ele>2490.9099999999999</ele>
        <time>2013-09-10T06:48:11Z</time>
      </trkpt>
      <trkpt lat="42.476500812917948" lon="13.568022111430764">
        <ele>2492.3600000000001</ele>
        <time>2013-09-10T06:48:33Z</time>
      </trkpt>
      <trkpt lat="42.476492263376713" lon="13.568114899098873">
        <ele>2494.7600000000002</ele>
        <time>2013-09-10T06:48:52Z</time>
      </trkpt>
      <trkpt lat="42.476431913673878" lon="13.568172231316566">
        <ele>2494.7600000000002</ele>
        <time>2013-09-10T06:49:12Z</time>
      </trkpt>
      <trkpt lat="42.476431243121624" lon="13.568275412544608">
        <ele>2498.1199999999999</ele>
        <time>2013-09-10T06:49:27Z</time>
      </trkpt>
      <trkpt lat="42.47645647265017" lon="13.568314723670483">
        <ele>2497.6399999999999</ele>
        <time>2013-09-10T06:49:46Z</time>
      </trkpt>
      <trkpt lat="42.476441133767366" lon="13.568312041461468">
        <ele>2499.0799999999999</ele>
        <time>2013-09-10T06:50:11Z</time>
      </trkpt>
      <trkpt lat="42.476439457386732" lon="13.568308772519231">
        <ele>2498.1199999999999</ele>
        <time>2013-09-10T06:50:37Z</time>
      </trkpt>
      <trkpt lat="42.476481953635812" lon="13.568351268768311">
        <ele>2499.0799999999999</ele>
        <time>2013-09-10T06:50:58Z</time>
      </trkpt>
      <trkpt lat="42.476460495963693" lon="13.568375408649445">
        <ele>2496.6799999999998</ele>
        <time>2013-09-10T06:51:07Z</time>
      </trkpt>
      <trkpt lat="42.476419173181057" lon="13.56840692460537">
        <ele>2499.0799999999999</ele>
        <time>2013-09-10T06:51:24Z</time>
      </trkpt>
      <trkpt lat="42.476404001936316" lon="13.568407176062465">
        <ele>2499.0799999999999</ele>
        <time>2013-09-10T06:51:33Z</time>
      </trkpt>
      <trkpt lat="42.476379945874214" lon="13.568420503288507">
        <ele>2500.0500000000002</ele>
        <time>2013-09-10T06:51:53Z</time>
      </trkpt>
      <trkpt lat="42.476380448788404" lon="13.568418491631746">
        <ele>2501.4899999999998</ele>
        <time>2013-09-10T06:52:12Z</time>
      </trkpt>
      <trkpt lat="42.476396877318621" lon="13.568457551300526">
        <ele>2500.0500000000002</ele>
        <time>2013-09-10T06:52:28Z</time>
      </trkpt>
      <trkpt lat="42.476399727165699" lon="13.568481020629406">
        <ele>2501.4899999999998</ele>
        <time>2013-09-10T06:52:32Z</time>
      </trkpt>
      <trkpt lat="42.476386483758688" lon="13.568481272086501">
        <ele>2502.9299999999998</ele>
        <time>2013-09-10T06:52:50Z</time>
      </trkpt>
      <trkpt lat="42.476395200937986" lon="13.568494766950607">
        <ele>2503.8899999999999</ele>
        <time>2013-09-10T06:53:11Z</time>
      </trkpt>
      <trkpt lat="42.476395117118955" lon="13.568530138581991">
        <ele>2505.3299999999999</ele>
        <time>2013-09-10T06:53:20Z</time>
      </trkpt>
      <trkpt lat="42.476408947259188" lon="13.568495269864798">
        <ele>2505.8099999999999</ele>
        <time>2013-09-10T06:53:46Z</time>
      </trkpt>
      <trkpt lat="42.476416071876884" lon="13.568545980378985">
        <ele>2506.29</ele>
        <time>2013-09-10T06:54:06Z</time>
      </trkpt>
      <trkpt lat="42.476382125169039" lon="13.568558637052774">
        <ele>2507.2600000000002</ele>
        <time>2013-09-10T06:54:29Z</time>
      </trkpt>
      <trkpt lat="42.476416323333979" lon="13.568570204079151">
        <ele>2508.2199999999998</ele>
        <time>2013-09-10T06:54:55Z</time>
      </trkpt>
      <trkpt lat="42.47642520815134" lon="13.568606078624725">
        <ele>2509.6599999999999</ele>
        <time>2013-09-10T06:55:21Z</time>
      </trkpt>
      <trkpt lat="42.476413808763027" lon="13.568621836602688">
        <ele>2509.1799999999998</ele>
        <time>2013-09-10T06:55:40Z</time>
      </trkpt>
      <trkpt lat="42.476433757692575" lon="13.568629631772637">
        <ele>2512.0599999999999</ele>
        <time>2013-09-10T06:55:59Z</time>
      </trkpt>
      <trkpt lat="42.476434428244829" lon="13.568637259304523">
        <ele>2512.0599999999999</ele>
        <time>2013-09-10T06:56:00Z</time>
      </trkpt>
      <trkpt lat="42.476421687752008" lon="13.568681348115206">
        <ele>2512.54</ele>
        <time>2013-09-10T06:56:18Z</time>
      </trkpt>
      <trkpt lat="42.476406013593078" lon="13.568710433319211">
        <ele>2514.4699999999998</ele>
        <time>2013-09-10T06:56:24Z</time>
      </trkpt>
      <trkpt lat="42.476390171796083" lon="13.568751085549593">
        <ele>2516.8699999999999</ele>
        <time>2013-09-10T06:56:30Z</time>
      </trkpt>
      <trkpt lat="42.476386483758688" lon="13.568790983408689">
        <ele>2517.8299999999999</ele>
        <time>2013-09-10T06:56:37Z</time>
      </trkpt>
      <trkpt lat="42.476402912288904" lon="13.568862397223711">
        <ele>2518.79</ele>
        <time>2013-09-10T06:56:54Z</time>
      </trkpt>
      <trkpt lat="42.476415736600757" lon="13.568861810490489">
        <ele>2522.1599999999999</ele>
        <time>2013-09-10T06:57:08Z</time>
      </trkpt>
      <trkpt lat="42.476418921723962" lon="13.568858876824379">
        <ele>2522.1599999999999</ele>
        <time>2013-09-10T06:57:09Z</time>
      </trkpt>
      <trkpt lat="42.476434679701924" lon="13.568847225978971">
        <ele>2519.75</ele>
        <time>2013-09-10T06:57:14Z</time>
      </trkpt>
      <trkpt lat="42.476429985836148" lon="13.568841191008687">
        <ele>2520.23</ele>
        <time>2013-09-10T06:57:26Z</time>
      </trkpt>
      <trkpt lat="42.476406935602427" lon="13.568865079432726">
        <ele>2516.8699999999999</ele>
        <time>2013-09-10T06:57:45Z</time>
      </trkpt>
      <trkpt lat="42.476414563134313" lon="13.568881340324879">
        <ele>2519.27</ele>
        <time>2013-09-10T06:58:06Z</time>
      </trkpt>
      <trkpt lat="42.476402493193746" lon="13.568889973685145">
        <ele>2522.6399999999999</ele>
        <time>2013-09-10T06:58:26Z</time>
      </trkpt>
      <trkpt lat="42.476406767964363" lon="13.5689302906394">
        <ele>2523.1199999999999</ele>
        <time>2013-09-10T06:58:45Z</time>
      </trkpt>
      <trkpt lat="42.476405594497919" lon="13.568955017253757">
        <ele>2523.1199999999999</ele>
        <time>2013-09-10T06:59:02Z</time>
      </trkpt>
      <trkpt lat="42.476355219259858" lon="13.568950742483139">
        <ele>2524.5599999999999</ele>
        <time>2013-09-10T06:59:22Z</time>
      </trkpt>
      <trkpt lat="42.476388914510608" lon="13.569022407755256">
        <ele>2524.5599999999999</ele>
        <time>2013-09-10T06:59:44Z</time>
      </trkpt>
      <trkpt lat="42.476437278091908" lon="13.569051409140229">
        <ele>2525.04</ele>
        <time>2013-09-10T07:00:10Z</time>
      </trkpt>
      <trkpt lat="42.476448006927967" lon="13.569039423018694">
        <ele>2527.9200000000001</ele>
        <time>2013-09-10T07:00:27Z</time>
      </trkpt>
      <trkpt lat="42.476453958079219" lon="13.569055767729878">
        <ele>2525.04</ele>
        <time>2013-09-10T07:00:36Z</time>
      </trkpt>
      <trkpt lat="42.476459322497249" lon="13.569055264815688">
        <ele>2526.96</ele>
        <time>2013-09-10T07:00:40Z</time>
      </trkpt>
      <trkpt lat="42.476452449336648" lon="13.569059120491147">
        <ele>2526.48</ele>
        <time>2013-09-10T07:00:47Z</time>
      </trkpt>
      <trkpt lat="42.476452868431807" lon="13.569069094955921">
        <ele>2529.3699999999999</ele>
        <time>2013-09-10T07:00:51Z</time>
      </trkpt>
      <trkpt lat="42.476451192051172" lon="13.569067250937223">
        <ele>2529.3699999999999</ele>
        <time>2013-09-10T07:00:52Z</time>
      </trkpt>
      <trkpt lat="42.476456724107265" lon="13.569078147411346">
        <ele>2527.4400000000001</ele>
        <time>2013-09-10T07:00:55Z</time>
      </trkpt>
      <trkpt lat="42.476476840674877" lon="13.569077393040061">
        <ele>2526</ele>
        <time>2013-09-10T07:00:58Z</time>
      </trkpt>
      <trkpt lat="42.476482037454844" lon="13.569081416353583">
        <ele>2526.96</ele>
        <time>2013-09-10T07:01:00Z</time>
      </trkpt>
      <trkpt lat="42.476462591439486" lon="13.569072866812348">
        <ele>2527.4400000000001</ele>
        <time>2013-09-10T07:01:12Z</time>
      </trkpt>
      <trkpt lat="42.476455634459853" lon="13.56907638721168">
        <ele>2524.0799999999999</ele>
        <time>2013-09-10T07:01:26Z</time>
      </trkpt>
      <trkpt lat="42.476453790441155" lon="13.569075465202332">
        <ele>2524.0799999999999</ele>
        <time>2013-09-10T07:01:27Z</time>
      </trkpt>
      <trkpt lat="42.476455047726631" lon="13.569073621183634">
        <ele>2527.4400000000001</ele>
        <time>2013-09-10T07:01:31Z</time>
      </trkpt>
      <trkpt lat="42.476457813754678" lon="13.56907295063138">
        <ele>2527.4400000000001</ele>
        <time>2013-09-10T07:01:32Z</time>
      </trkpt>
      <trkpt lat="42.476469045504928" lon="13.569101197645068">
        <ele>2528.4000000000001</ele>
        <time>2013-09-10T07:01:50Z</time>
      </trkpt>
      <trkpt lat="42.476457059383392" lon="13.569100946187973">
        <ele>2527.9200000000001</ele>
        <time>2013-09-10T07:01:59Z</time>
      </trkpt>
      <trkpt lat="42.47644180431962" lon="13.569103460758924">
        <ele>2528.8899999999999</ele>
        <time>2013-09-10T07:02:16Z</time>
      </trkpt>
      <trkpt lat="42.476453958079219" lon="13.569103125482798">
        <ele>2533.21</ele>
        <time>2013-09-10T07:02:35Z</time>
      </trkpt>
      <trkpt lat="42.476500561460853" lon="13.56913941912353">
        <ele>2533.21</ele>
        <time>2013-09-10T07:02:54Z</time>
      </trkpt>
      <trkpt lat="42.476509613916278" lon="13.569153333082795">
        <ele>2532.25</ele>
        <time>2013-09-10T07:03:18Z</time>
      </trkpt>
      <trkpt lat="42.476505255326629" lon="13.569167079403996">
        <ele>2536.0999999999999</ele>
        <time>2013-09-10T07:03:20Z</time>
      </trkpt>
      <trkpt lat="42.476503746584058" lon="13.569180155172944">
        <ele>2538.02</ele>
        <time>2013-09-10T07:03:22Z</time>
      </trkpt>
      <trkpt lat="42.476510619744658" lon="13.569189878180623">
        <ele>2534.6500000000001</ele>
        <time>2013-09-10T07:03:26Z</time>
      </trkpt>
      <trkpt lat="42.476512799039483" lon="13.569200607016683">
        <ele>2538.5</ele>
        <time>2013-09-10T07:03:30Z</time>
      </trkpt>
      <trkpt lat="42.476513385772705" lon="13.569215023890138">
        <ele>2542.8200000000002</ele>
        <time>2013-09-10T07:03:37Z</time>
      </trkpt>
      <trkpt lat="42.476510871201754" lon="13.569220304489136">
        <ele>2541.8600000000001</ele>
        <time>2013-09-10T07:03:38Z</time>
      </trkpt>
      <trkpt lat="42.476496705785394" lon="13.569239163771272">
        <ele>2538.02</ele>
        <time>2013-09-10T07:03:42Z</time>
      </trkpt>
      <trkpt lat="42.476504165679216" lon="13.569291969761252">
        <ele>2536.0999999999999</ele>
        <time>2013-09-10T07:04:01Z</time>
      </trkpt>
      <trkpt lat="42.476506177335978" lon="13.569339495152235">
        <ele>2538.98</ele>
        <time>2013-09-10T07:04:25Z</time>
      </trkpt>
      <trkpt lat="42.476510116830468" lon="13.569419123232365">
        <ele>2539.9400000000001</ele>
        <time>2013-09-10T07:04:42Z</time>
      </trkpt>
      <trkpt lat="42.476543812081218" lon="13.569489950314164">
        <ele>2542.8200000000002</ele>
        <time>2013-09-10T07:04:58Z</time>
      </trkpt>
      <trkpt lat="42.476539704948664" lon="13.569545857608318">
        <ele>2543.3099999999999</ele>
        <time>2013-09-10T07:05:13Z</time>
      </trkpt>
      <trkpt lat="42.476518582552671" lon="13.569569997489452">
        <ele>2545.71</ele>
        <time>2013-09-10T07:05:27Z</time>
      </trkpt>
      <trkpt lat="42.476493520662189" lon="13.569649793207645">
        <ele>2548.5900000000001</ele>
        <time>2013-09-10T07:05:38Z</time>
      </trkpt>
      <trkpt lat="42.476492431014776" lon="13.569655660539865">
        <ele>2549.0700000000002</ele>
        <time>2013-09-10T07:05:39Z</time>
      </trkpt>
      <trkpt lat="42.476451443508267" lon="13.569699414074421">
        <ele>2550.0300000000002</ele>
        <time>2013-09-10T07:06:00Z</time>
      </trkpt>
      <trkpt lat="42.476428644731641" lon="13.569742999970913">
        <ele>2552.9200000000001</ele>
        <time>2013-09-10T07:06:16Z</time>
      </trkpt>
      <trkpt lat="42.476475415751338" lon="13.569805026054382">
        <ele>2554.3600000000001</ele>
        <time>2013-09-10T07:06:36Z</time>
      </trkpt>
      <trkpt lat="42.476521348580718" lon="13.569852216169238">
        <ele>2557.2399999999998</ele>
        <time>2013-09-10T07:06:56Z</time>
      </trkpt>
      <trkpt lat="42.476544482633471" lon="13.569861687719822">
        <ele>2560.6100000000001</ele>
        <time>2013-09-10T07:07:06Z</time>
      </trkpt>
      <trkpt lat="42.476539369672537" lon="13.569906279444695">
        <ele>2561.5700000000002</ele>
        <time>2013-09-10T07:07:21Z</time>
      </trkpt>
      <trkpt lat="42.476571891456842" lon="13.569979118183255">
        <ele>2560.6100000000001</ele>
        <time>2013-09-10T07:07:45Z</time>
      </trkpt>
      <trkpt lat="42.476650178432465" lon="13.57006243430078">
        <ele>2563.0100000000002</ele>
        <time>2013-09-10T07:08:04Z</time>
      </trkpt>
      <trkpt lat="42.476681442931294" lon="13.570110211148858">
        <ele>2566.3800000000001</ele>
        <time>2013-09-10T07:08:14Z</time>
      </trkpt>
      <trkpt lat="42.476667864248157" lon="13.570097722113132">
        <ele>2568.3000000000002</ele>
        <time>2013-09-10T07:08:35Z</time>
      </trkpt>
      <trkpt lat="42.476685047149658" lon="13.570132507011294">
        <ele>2569.7399999999998</ele>
        <time>2013-09-10T07:08:41Z</time>
      </trkpt>
      <trkpt lat="42.476698039099574" lon="13.570187743753195">
        <ele>2571.6599999999999</ele>
        <time>2013-09-10T07:08:58Z</time>
      </trkpt>
      <trkpt lat="42.476776074618101" lon="13.570225546136498">
        <ele>2572.1399999999999</ele>
        <time>2013-09-10T07:09:22Z</time>
      </trkpt>
      <trkpt lat="42.476739529520273" lon="13.570231581106782">
        <ele>2571.6599999999999</ele>
        <time>2013-09-10T07:09:49Z</time>
      </trkpt>
      <trkpt lat="42.47672276571393" lon="13.570275418460369">
        <ele>2575.0300000000002</ele>
        <time>2013-09-10T07:09:57Z</time>
      </trkpt>
      <trkpt lat="42.47672226279974" lon="13.570278519764543">
        <ele>2575.0300000000002</ele>
        <time>2013-09-10T07:09:58Z</time>
      </trkpt>
      <trkpt lat="42.476732991635799" lon="13.570285979658365">
        <ele>2574.5500000000002</ele>
        <time>2013-09-10T07:10:18Z</time>
      </trkpt>
      <trkpt lat="42.476760903373361" lon="13.570330571383238">
        <ele>2575.9899999999998</ele>
        <time>2013-09-10T07:10:36Z</time>
      </trkpt>
      <trkpt lat="42.476775655522943" lon="13.570360997691751">
        <ele>2579.8400000000001</ele>
        <time>2013-09-10T07:10:41Z</time>
      </trkpt>
      <trkpt lat="42.47677699662745" lon="13.570361165329814">
        <ele>2579.8400000000001</ele>
        <time>2013-09-10T07:10:42Z</time>
      </trkpt>
      <trkpt lat="42.476784037426114" lon="13.570363931357861">
        <ele>2577.4299999999998</ele>
        <time>2013-09-10T07:10:45Z</time>
      </trkpt>
      <trkpt lat="42.4767692014575" lon="13.570380192250013">
        <ele>2580.8000000000002</ele>
        <time>2013-09-10T07:10:50Z</time>
      </trkpt>
      <trkpt lat="42.476783953607082" lon="13.570402739569545">
        <ele>2580.3200000000002</ele>
        <time>2013-09-10T07:11:02Z</time>
      </trkpt>
      <trkpt lat="42.476791832596064" lon="13.57041472569108">
        <ele>2580.8000000000002</ele>
        <time>2013-09-10T07:11:07Z</time>
      </trkpt>
      <trkpt lat="42.476835669949651" lon="13.570417240262032">
        <ele>2581.7600000000002</ele>
        <time>2013-09-10T07:11:22Z</time>
      </trkpt>
      <trkpt lat="42.476803315803409" lon="13.570460239425302">
        <ele>2581.7600000000002</ele>
        <time>2013-09-10T07:11:40Z</time>
      </trkpt>
      <trkpt lat="42.476824857294559" lon="13.570506423711777">
        <ele>2582.7199999999998</ele>
        <time>2013-09-10T07:11:50Z</time>
      </trkpt>
      <trkpt lat="42.476805998012424" lon="13.570493431761861">
        <ele>2581.2800000000002</ele>
        <time>2013-09-10T07:12:03Z</time>
      </trkpt>
      <trkpt lat="42.47680289670825" lon="13.570501981303096">
        <ele>2583.1999999999998</ele>
        <time>2013-09-10T07:12:06Z</time>
      </trkpt>
      <trkpt lat="42.476792838424444" lon="13.570502316579223">
        <ele>2582.2399999999998</ele>
        <time>2013-09-10T07:12:10Z</time>
      </trkpt>
      <trkpt lat="42.476781522855163" lon="13.570524444803596">
        <ele>2585.5999999999999</ele>
        <time>2013-09-10T07:12:13Z</time>
      </trkpt>
      <trkpt lat="42.476785965263844" lon="13.570525031536818">
        <ele>2586.0799999999999</ele>
        <time>2013-09-10T07:12:14Z</time>
      </trkpt>
      <trkpt lat="42.476758472621441" lon="13.57053148560226">
        <ele>2586.5599999999999</ele>
        <time>2013-09-10T07:12:30Z</time>
      </trkpt>
      <trkpt lat="42.476731650531292" lon="13.570580016821623">
        <ele>2588.4899999999998</ele>
        <time>2013-09-10T07:12:49Z</time>
      </trkpt>
      <trkpt lat="42.476701643317938" lon="13.570607677102089">
        <ele>2588.9699999999998</ele>
        <time>2013-09-10T07:13:04Z</time>
      </trkpt>
      <trkpt lat="42.476686052978039" lon="13.570602815598249">
        <ele>2589.4499999999998</ele>
        <time>2013-09-10T07:13:15Z</time>
      </trkpt>
      <trkpt lat="42.476691082119942" lon="13.570598792284727">
        <ele>2591.3699999999999</ele>
        <time>2013-09-10T07:13:19Z</time>
      </trkpt>
      <trkpt lat="42.476629475131631" lon="13.570654364302754">
        <ele>2591.8499999999999</ele>
        <time>2013-09-10T07:13:34Z</time>
      </trkpt>
      <trkpt lat="42.476617321372032" lon="13.570667691528797">
        <ele>2591.3699999999999</ele>
        <time>2013-09-10T07:13:38Z</time>
      </trkpt>
      <trkpt lat="42.476633163169026" lon="13.570666434243321">
        <ele>2591.8499999999999</ele>
        <time>2013-09-10T07:13:56Z</time>
      </trkpt>
      <trkpt lat="42.47659720480442" lon="13.570678671821952">
        <ele>2595.2199999999998</ele>
        <time>2013-09-10T07:14:02Z</time>
      </trkpt>
      <trkpt lat="42.47659720480442" lon="13.570685544982553">
        <ele>2595.6999999999998</ele>
        <time>2013-09-10T07:14:14Z</time>
      </trkpt>
      <trkpt lat="42.47655370272696" lon="13.570687053725123">
        <ele>2595.2199999999998</ele>
        <time>2013-09-10T07:14:29Z</time>
      </trkpt>
      <trkpt lat="42.476565856486559" lon="13.570724353194237">
        <ele>2599.0599999999999</ele>
        <time>2013-09-10T07:14:42Z</time>
      </trkpt>
      <trkpt lat="42.47656979598105" lon="13.57074991799891">
        <ele>2598.5799999999999</ele>
        <time>2013-09-10T07:14:55Z</time>
      </trkpt>
      <trkpt lat="42.47656250372529" lon="13.570769196376204">
        <ele>2600.02</ele>
        <time>2013-09-10T07:15:00Z</time>
      </trkpt>
      <trkpt lat="42.476583793759346" lon="13.570808842778206">
        <ele>2601.9499999999998</ele>
        <time>2013-09-10T07:15:09Z</time>
      </trkpt>
      <trkpt lat="42.476560743525624" lon="13.570799119770527">
        <ele>2601.46</ele>
        <time>2013-09-10T07:15:20Z</time>
      </trkpt>
      <trkpt lat="42.476550601422787" lon="13.570811692625284">
        <ele>2602.9099999999999</ele>
        <time>2013-09-10T07:15:26Z</time>
      </trkpt>
      <trkpt lat="42.476537777110934" lon="13.570825858041644">
        <ele>2604.3499999999999</ele>
        <time>2013-09-10T07:15:29Z</time>
      </trkpt>
      <trkpt lat="42.476493855938315" lon="13.570817476138473">
        <ele>2607.23</ele>
        <time>2013-09-10T07:15:41Z</time>
      </trkpt>
      <trkpt lat="42.476499890908599" lon="13.570834491401911">
        <ele>2606.75</ele>
        <time>2013-09-10T07:15:55Z</time>
      </trkpt>
      <trkpt lat="42.476496957242489" lon="13.570831893011928">
        <ele>2606.75</ele>
        <time>2013-09-10T07:16:07Z</time>
      </trkpt>
      <trkpt lat="42.476507183164358" lon="13.570827785879374">
        <ele>2608.1900000000001</ele>
        <time>2013-09-10T07:16:23Z</time>
      </trkpt>
      <trkpt lat="42.476491341367364" lon="13.570828037336469">
        <ele>2609.1599999999999</ele>
        <time>2013-09-10T07:16:44Z</time>
      </trkpt>
      <trkpt lat="42.4764808639884" lon="13.570810267701745">
        <ele>2607.23</ele>
        <time>2013-09-10T07:16:48Z</time>
      </trkpt>
      <trkpt lat="42.476503159850836" lon="13.570819906890392">
        <ele>2608.1900000000001</ele>
        <time>2013-09-10T07:17:04Z</time>
      </trkpt>
      <trkpt lat="42.476522773504257" lon="13.570833234116435">
        <ele>2608.6700000000001</ele>
        <time>2013-09-10T07:17:30Z</time>
      </trkpt>
      <trkpt lat="42.476487150415778" lon="13.570826109498739">
        <ele>2609.6399999999999</ele>
        <time>2013-09-10T07:18:00Z</time>
      </trkpt>
      <trkpt lat="42.476491341367364" lon="13.570819068700075">
        <ele>2610.5999999999999</ele>
        <time>2013-09-10T07:18:11Z</time>
      </trkpt>
      <trkpt lat="42.476482121273875" lon="13.570817811414599">
        <ele>2608.6700000000001</ele>
        <time>2013-09-10T07:18:38Z</time>
      </trkpt>
      <trkpt lat="42.476492766290903" lon="13.57082711532712">
        <ele>2608.6700000000001</ele>
        <time>2013-09-10T07:19:02Z</time>
      </trkpt>
      <trkpt lat="42.476483210921288" lon="13.570818984881043">
        <ele>2608.6700000000001</ele>
        <time>2013-09-10T07:19:28Z</time>
      </trkpt>
      <trkpt lat="42.476499974727631" lon="13.570817811414599">
        <ele>2609.1599999999999</ele>
        <time>2013-09-10T07:19:49Z</time>
      </trkpt>
      <trkpt lat="42.476490084081888" lon="13.570825019851327">
        <ele>2607.71</ele>
        <time>2013-09-10T07:20:14Z</time>
      </trkpt>
      <trkpt lat="42.476472649723291" lon="13.570817140862346">
        <ele>2609.6399999999999</ele>
        <time>2013-09-10T07:20:34Z</time>
      </trkpt>
      <trkpt lat="42.476462591439486" lon="13.570816889405251">
        <ele>2609.6399999999999</ele>
        <time>2013-09-10T07:20:59Z</time>
      </trkpt>
      <trkpt lat="42.476459993049502" lon="13.570807669311762">
        <ele>2609.6399999999999</ele>
        <time>2013-09-10T07:21:19Z</time>
      </trkpt>
      <trkpt lat="42.476461920887232" lon="13.570806412026286">
        <ele>2609.1599999999999</ele>
        <time>2013-09-10T07:21:40Z</time>
      </trkpt>
      <trkpt lat="42.476454712450504" lon="13.570804987102747">
        <ele>2610.1199999999999</ele>
        <time>2013-09-10T07:22:04Z</time>
      </trkpt>
      <trkpt lat="42.476462675258517" lon="13.570809680968523">
        <ele>2609.1599999999999</ele>
        <time>2013-09-10T07:22:20Z</time>
      </trkpt>
      <trkpt lat="42.476455634459853" lon="13.570804484188557">
        <ele>2610.1199999999999</ele>
        <time>2013-09-10T07:22:27Z</time>
      </trkpt>
      <trkpt lat="42.476459490135312" lon="13.570800963789225">
        <ele>2610.5999999999999</ele>
        <time>2013-09-10T07:22:45Z</time>
      </trkpt>
      <trkpt lat="42.476447755470872" lon="13.570792246609926">
        <ele>2610.5999999999999</ele>
        <time>2013-09-10T07:23:00Z</time>
      </trkpt>
      <trkpt lat="42.476437613368034" lon="13.570793336257339">
        <ele>2610.5999999999999</ele>
        <time>2013-09-10T07:23:25Z</time>
      </trkpt>
      <trkpt lat="42.476448090746999" lon="13.570784032344818">
        <ele>2612.52</ele>
        <time>2013-09-10T07:23:41Z</time>
      </trkpt>
      <trkpt lat="42.47642520815134" lon="13.570793336257339">
        <ele>2612.52</ele>
        <time>2013-09-10T07:23:55Z</time>
      </trkpt>
      <trkpt lat="42.476423028856516" lon="13.570799371227622">
        <ele>2612.52</ele>
        <time>2013-09-10T07:24:09Z</time>
      </trkpt>
      <trkpt lat="42.476425375789404" lon="13.570779757574201">
        <ele>2612.52</ele>
        <time>2013-09-10T07:24:36Z</time>
      </trkpt>
      <trkpt lat="42.476416993886232" lon="13.570753941312432">
        <ele>2613.48</ele>
        <time>2013-09-10T07:24:52Z</time>
      </trkpt>
      <trkpt lat="42.476420262828469" lon="13.570742458105087">
        <ele>2613.96</ele>
        <time>2013-09-10T07:25:11Z</time>
      </trkpt>
      <trkpt lat="42.476414646953344" lon="13.570747235789895">
        <ele>2613.48</ele>
        <time>2013-09-10T07:25:32Z</time>
      </trkpt>
      <trkpt lat="42.476370977237821" lon="13.570736674591899">
        <ele>2613.48</ele>
        <time>2013-09-10T07:25:58Z</time>
      </trkpt>
      <trkpt lat="42.476375252008438" lon="13.570724353194237">
        <ele>2613.96</ele>
        <time>2013-09-10T07:26:22Z</time>
      </trkpt>
      <trkpt lat="42.476372150704265" lon="13.570733405649662">
        <ele>2616.3699999999999</ele>
        <time>2013-09-10T07:26:35Z</time>
      </trkpt>
      <trkpt lat="42.476364439353347" lon="13.570730807259679">
        <ele>2615.8800000000001</ele>
        <time>2013-09-10T07:26:53Z</time>
      </trkpt>
      <trkpt lat="42.476376676931977" lon="13.570746816694736">
        <ele>2616.3699999999999</ele>
        <time>2013-09-10T07:27:13Z</time>
      </trkpt>
      <trkpt lat="42.476372737437487" lon="13.570736926048994">
        <ele>2616.8499999999999</ele>
        <time>2013-09-10T07:27:32Z</time>
      </trkpt>
      <trkpt lat="42.47636754065752" lon="13.570748241618276">
        <ele>2618.29</ele>
        <time>2013-09-10T07:27:35Z</time>
      </trkpt>
      <trkpt lat="42.476342478767037" lon="13.570735165849328">
        <ele>2619.73</ele>
        <time>2013-09-10T07:27:48Z</time>
      </trkpt>
      <trkpt lat="42.476335437968373" lon="13.570708176121116">
        <ele>2619.73</ele>
        <time>2013-09-10T07:28:08Z</time>
      </trkpt>
      <trkpt lat="42.476326553151011" lon="13.570747151970863">
        <ele>2620.6900000000001</ele>
        <time>2013-09-10T07:28:27Z</time>
      </trkpt>
      <trkpt lat="42.476314986124635" lon="13.570748576894403">
        <ele>2619.25</ele>
        <time>2013-09-10T07:28:35Z</time>
      </trkpt>
      <trkpt lat="42.476343149319291" lon="13.570751678198576">
        <ele>2623.0900000000001</ele>
        <time>2013-09-10T07:28:49Z</time>
      </trkpt>
      <trkpt lat="42.476343316957355" lon="13.570750504732132">
        <ele>2623.0900000000001</ele>
        <time>2013-09-10T07:28:50Z</time>
      </trkpt>
      <trkpt lat="42.476341724395752" lon="13.570748576894403">
        <ele>2621.6500000000001</ele>
        <time>2013-09-10T07:28:53Z</time>
      </trkpt>
      <trkpt lat="42.476332923397422" lon="13.570736842229962">
        <ele>2622.1300000000001</ele>
        <time>2013-09-10T07:29:09Z</time>
      </trkpt>
      <trkpt lat="42.476322781294584" lon="13.570752684026957">
        <ele>2622.1300000000001</ele>
        <time>2013-09-10T07:29:31Z</time>
      </trkpt>
      <trkpt lat="42.476306101307273" lon="13.570740446448326">
        <ele>2625.02</ele>
        <time>2013-09-10T07:29:50Z</time>
      </trkpt>
      <trkpt lat="42.476297887042165" lon="13.570747068151832">
        <ele>2624.54</ele>
        <time>2013-09-10T07:30:08Z</time>
      </trkpt>
      <trkpt lat="42.476292187348008" lon="13.570755030959845">
        <ele>2626.9400000000001</ele>
        <time>2013-09-10T07:30:19Z</time>
      </trkpt>
      <trkpt lat="42.476267712190747" lon="13.570746732875705">
        <ele>2627.4200000000001</ele>
        <time>2013-09-10T07:30:42Z</time>
      </trkpt>
      <trkpt lat="42.476266454905272" lon="13.570747571066022">
        <ele>2628.8600000000001</ele>
        <time>2013-09-10T07:31:04Z</time>
      </trkpt>
      <trkpt lat="42.476292522624135" lon="13.570761904120445">
        <ele>2632.23</ele>
        <time>2013-09-10T07:31:14Z</time>
      </trkpt>
      <trkpt lat="42.476291097700596" lon="13.570762071758509">
        <ele>2632.23</ele>
        <time>2013-09-10T07:31:15Z</time>
      </trkpt>
      <trkpt lat="42.476264694705606" lon="13.570742206647992">
        <ele>2631.75</ele>
        <time>2013-09-10T07:31:23Z</time>
      </trkpt>
      <trkpt lat="42.476258408278227" lon="13.57073818333447">
        <ele>2630.3000000000002</ele>
        <time>2013-09-10T07:31:26Z</time>
      </trkpt>
      <trkpt lat="42.476265532895923" lon="13.570742458105087">
        <ele>2629.3400000000001</ele>
        <time>2013-09-10T07:31:45Z</time>
      </trkpt>
      <trkpt lat="42.476252540946007" lon="13.570743463933468">
        <ele>2631.27</ele>
        <time>2013-09-10T07:32:03Z</time>
      </trkpt>
      <trkpt lat="42.476206859573722" lon="13.570733405649662">
        <ele>2633.1900000000001</ele>
        <time>2013-09-10T07:32:16Z</time>
      </trkpt>
      <trkpt lat="42.476198393851519" lon="13.570725107565522">
        <ele>2635.1100000000001</ele>
        <time>2013-09-10T07:32:20Z</time>
      </trkpt>
      <trkpt lat="42.476183138787746" lon="13.570723850280046">
        <ele>2636.0700000000002</ele>
        <time>2013-09-10T07:32:33Z</time>
      </trkpt>
      <trkpt lat="42.476183725520968" lon="13.570729047060013">
        <ele>2636.0700000000002</ele>
        <time>2013-09-10T07:32:51Z</time>
      </trkpt>
      <trkpt lat="42.476164363324642" lon="13.570710774511099">
        <ele>2637.5100000000002</ele>
        <time>2013-09-10T07:33:08Z</time>
      </trkpt>
      <trkpt lat="42.476158998906612" lon="13.570718737319112">
        <ele>2637.9899999999998</ele>
        <time>2013-09-10T07:33:32Z</time>
      </trkpt>
      <trkpt lat="42.476149359717965" lon="13.570708846673369">
        <ele>2639.4400000000001</ele>
        <time>2013-09-10T07:33:48Z</time>
      </trkpt>
      <trkpt lat="42.476133769378066" lon="13.570690909400582">
        <ele>2641.3600000000001</ele>
        <time>2013-09-10T07:33:54Z</time>
      </trkpt>
      <trkpt lat="42.476140474900603" lon="13.570682276040316">
        <ele>2641.8400000000001</ele>
        <time>2013-09-10T07:34:15Z</time>
      </trkpt>
      <trkpt lat="42.476125974208117" lon="13.570661824196577">
        <ele>2641.3600000000001</ele>
        <time>2013-09-10T07:34:34Z</time>
      </trkpt>
      <trkpt lat="42.476114323362708" lon="13.570655286312103">
        <ele>2642.8000000000002</ele>
        <time>2013-09-10T07:34:43Z</time>
      </trkpt>
      <trkpt lat="42.476109210401773" lon="13.570678168907762">
        <ele>2642.3200000000002</ele>
        <time>2013-09-10T07:34:58Z</time>
      </trkpt>
      <trkpt lat="42.476120358332992" lon="13.570680264383554">
        <ele>2643.2800000000002</ele>
        <time>2013-09-10T07:35:14Z</time>
      </trkpt>
      <trkpt lat="42.476094290614128" lon="13.570694010704756">
        <ele>2644.2399999999998</ele>
        <time>2013-09-10T07:35:29Z</time>
      </trkpt>
      <trkpt lat="42.476089596748352" lon="13.570715887472034">
        <ele>2644.2399999999998</ele>
        <time>2013-09-10T07:35:53Z</time>
      </trkpt>
      <trkpt lat="42.476070318371058" lon="13.570735501125455">
        <ele>2644.7199999999998</ele>
        <time>2013-09-10T07:36:12Z</time>
      </trkpt>
      <trkpt lat="42.476058164611459" lon="13.57073281891644">
        <ele>2645.6900000000001</ele>
        <time>2013-09-10T07:36:30Z</time>
      </trkpt>
      <trkpt lat="42.476074593141675" lon="13.57075628824532">
        <ele>2646.6500000000001</ele>
        <time>2013-09-10T07:36:49Z</time>
      </trkpt>
      <trkpt lat="42.476079454645514" lon="13.570755617693067">
        <ele>2647.6100000000001</ele>
        <time>2013-09-10T07:37:04Z</time>
      </trkpt>
      <trkpt lat="42.476078616455197" lon="13.570749163627625">
        <ele>2648.0900000000001</ele>
        <time>2013-09-10T07:37:20Z</time>
      </trkpt>
      <trkpt lat="42.476078113541007" lon="13.570765340700746">
        <ele>2648.5700000000002</ele>
        <time>2013-09-10T07:37:38Z</time>
      </trkpt>
      <trkpt lat="42.476089177653193" lon="13.570757629349828">
        <ele>2649.0500000000002</ele>
        <time>2013-09-10T07:37:59Z</time>
      </trkpt>
      <trkpt lat="42.476074593141675" lon="13.570753019303083">
        <ele>2650.0100000000002</ele>
        <time>2013-09-10T07:38:14Z</time>
      </trkpt>
      <trkpt lat="42.476064283400774" lon="13.570756707340479">
        <ele>2650.4899999999998</ele>
        <time>2013-09-10T07:38:30Z</time>
      </trkpt>
      <trkpt lat="42.476068809628487" lon="13.570741536095738">
        <ele>2650.0100000000002</ele>
        <time>2013-09-10T07:38:54Z</time>
      </trkpt>
      <trkpt lat="42.476059421896935" lon="13.570732232183218">
        <ele>2653.3800000000001</ele>
        <time>2013-09-10T07:39:09Z</time>
      </trkpt>
      <trkpt lat="42.476046178489923" lon="13.57073332183063">
        <ele>2652.4200000000001</ele>
        <time>2013-09-10T07:39:29Z</time>
      </trkpt>
      <trkpt lat="42.476032683625817" lon="13.570722760632634">
        <ele>2653.8600000000001</ele>
        <time>2013-09-10T07:39:49Z</time>
      </trkpt>
      <trkpt lat="42.475979877635837" lon="13.570718402042985">
        <ele>2656.2600000000002</ele>
        <time>2013-09-10T07:40:05Z</time>
      </trkpt>
      <trkpt lat="42.475962108001113" lon="13.570715049281716">
        <ele>2656.7399999999998</ele>
        <time>2013-09-10T07:40:16Z</time>
      </trkpt>
      <trkpt lat="42.475962862372398" lon="13.570715552195907">
        <ele>2655.3000000000002</ele>
        <time>2013-09-10T07:40:19Z</time>
      </trkpt>
      <trkpt lat="42.475956995040178" lon="13.570710942149162">
        <ele>2656.2600000000002</ele>
        <time>2013-09-10T07:40:38Z</time>
      </trkpt>
      <trkpt lat="42.475955570116639" lon="13.570707673206925">
        <ele>2658.1799999999998</ele>
        <time>2013-09-10T07:40:48Z</time>
      </trkpt>
      <trkpt lat="42.475940147414804" lon="13.570723263546824">
        <ele>2659.6199999999999</ele>
        <time>2013-09-10T07:40:56Z</time>
      </trkpt>
      <trkpt lat="42.475879462435842" lon="13.57080465182662">
        <ele>2662.0300000000002</ele>
        <time>2013-09-10T07:41:12Z</time>
      </trkpt>
      <trkpt lat="42.475875355303288" lon="13.570807669311762">
        <ele>2663.4699999999998</ele>
        <time>2013-09-10T07:41:14Z</time>
      </trkpt>
      <trkpt lat="42.475869571790099" lon="13.570823678746819">
        <ele>2662.9899999999998</ele>
        <time>2013-09-10T07:41:34Z</time>
      </trkpt>
      <trkpt lat="42.475869152694941" lon="13.570821331813931">
        <ele>2666.3499999999999</ele>
        <time>2013-09-10T07:41:37Z</time>
      </trkpt>
      <trkpt lat="42.475868398323655" lon="13.570819068700075">
        <ele>2665.8699999999999</ele>
        <time>2013-09-10T07:41:38Z</time>
      </trkpt>
      <trkpt lat="42.475864542648196" lon="13.570820242166519">
        <ele>2662.5100000000002</ele>
        <time>2013-09-10T07:41:40Z</time>
      </trkpt>
      <trkpt lat="42.475861022248864" lon="13.570831725373864">
        <ele>2664.4299999999998</ele>
        <time>2013-09-10T07:41:45Z</time>
      </trkpt>
      <trkpt lat="42.47587108053267" lon="13.57082711532712">
        <ele>2663.9499999999998</ele>
        <time>2013-09-10T07:42:09Z</time>
      </trkpt>
      <trkpt lat="42.475840905681252" lon="13.57080657966435">
        <ele>2663.4699999999998</ele>
        <time>2013-09-10T07:42:29Z</time>
      </trkpt>
      <trkpt lat="42.47585691511631" lon="13.570811692625284">
        <ele>2661.5500000000002</ele>
        <time>2013-09-10T07:42:40Z</time>
      </trkpt>
      <trkpt lat="42.475843755528331" lon="13.570838682353497">
        <ele>2664.9099999999999</ele>
        <time>2013-09-10T07:42:59Z</time>
      </trkpt>
      <trkpt lat="42.475846940651536" lon="13.570837173610926">
        <ele>2661.0700000000002</ele>
        <time>2013-09-10T07:43:02Z</time>
      </trkpt>
      <trkpt lat="42.475846437737346" lon="13.57083541341126">
        <ele>2662.0300000000002</ele>
        <time>2013-09-10T07:43:03Z</time>
      </trkpt>
      <trkpt lat="42.475832859054208" lon="13.570813369005919">
        <ele>2664.9099999999999</ele>
        <time>2013-09-10T07:43:11Z</time>
      </trkpt>
      <trkpt lat="42.475798660889268" lon="13.570828707888722">
        <ele>2663.9499999999998</ele>
        <time>2013-09-10T07:43:24Z</time>
      </trkpt>
      <trkpt lat="42.475783322006464" lon="13.570856116712093">
        <ele>2667.3099999999999</ele>
        <time>2013-09-10T07:43:33Z</time>
      </trkpt>
      <trkpt lat="42.475780220702291" lon="13.570853769779205">
        <ele>2667.3099999999999</ele>
        <time>2013-09-10T07:43:34Z</time>
      </trkpt>
      <trkpt lat="42.475770665332675" lon="13.570873299613595">
        <ele>2669.2399999999998</ele>
        <time>2013-09-10T07:43:39Z</time>
      </trkpt>
      <trkpt lat="42.475752644240856" lon="13.570920070633292">
        <ele>2668.7600000000002</ele>
        <time>2013-09-10T07:43:54Z</time>
      </trkpt>
      <trkpt lat="42.475752057507634" lon="13.570909090340137">
        <ele>2672.1199999999999</ele>
        <time>2013-09-10T07:43:57Z</time>
      </trkpt>
      <trkpt lat="42.475744597613811" lon="13.570907581597567">
        <ele>2675.0100000000002</ele>
        <time>2013-09-10T07:44:00Z</time>
      </trkpt>
      <trkpt lat="42.475740825757384" lon="13.57090724632144">
        <ele>2671.6399999999999</ele>
        <time>2013-09-10T07:44:01Z</time>
      </trkpt>
      <trkpt lat="42.475738059729338" lon="13.570908503606915">
        <ele>2668.7600000000002</ele>
        <time>2013-09-10T07:44:02Z</time>
      </trkpt>
      <trkpt lat="42.475731521844864" lon="13.57092241756618">
        <ele>2668.2800000000002</ele>
        <time>2013-09-10T07:44:07Z</time>
      </trkpt>
      <trkpt lat="42.47573428787291" lon="13.570935493335128">
        <ele>2671.1599999999999</ele>
        <time>2013-09-10T07:44:10Z</time>
      </trkpt>
      <trkpt lat="42.475731186568737" lon="13.571015708148479">
        <ele>2672.5999999999999</ele>
        <time>2013-09-10T07:44:23Z</time>
      </trkpt>
      <trkpt lat="42.475703442469239" lon="13.571016965433955">
        <ele>2675.4899999999998</ele>
        <time>2013-09-10T07:44:34Z</time>
      </trkpt>
      <trkpt lat="42.475705035030842" lon="13.571040350943804">
        <ele>2675.4899999999998</ele>
        <time>2013-09-10T07:44:50Z</time>
      </trkpt>
      <trkpt lat="42.475686259567738" lon="13.57102551497519">
        <ele>2677.4099999999999</ele>
        <time>2013-09-10T07:45:12Z</time>
      </trkpt>
      <trkpt lat="42.47567368671298" lon="13.571015875786543">
        <ele>2677.8899999999999</ele>
        <time>2013-09-10T07:45:20Z</time>
      </trkpt>
      <trkpt lat="42.475656839087605" lon="13.571069184690714">
        <ele>2677.4099999999999</ele>
        <time>2013-09-10T07:45:32Z</time>
      </trkpt>
      <trkpt lat="42.475645188242197" lon="13.571074549108744">
        <ele>2679.8099999999999</ele>
        <time>2013-09-10T07:45:43Z</time>
      </trkpt>
      <trkpt lat="42.475625658407807" lon="13.571073543280363">
        <ele>2680.29</ele>
        <time>2013-09-10T07:45:58Z</time>
      </trkpt>
      <trkpt lat="42.475593136623502" lon="13.571090642362833">
        <ele>2682.6999999999998</ele>
        <time>2013-09-10T07:46:10Z</time>
      </trkpt>
      <trkpt lat="42.475577378645539" lon="13.571100868284702">
        <ele>2684.1399999999999</ele>
        <time>2013-09-10T07:46:18Z</time>
      </trkpt>
      <trkpt lat="42.475588191300631" lon="13.571109166368842">
        <ele>2684.6199999999999</ele>
        <time>2013-09-10T07:46:37Z</time>
      </trkpt>
      <trkpt lat="42.475543767213821" lon="13.571096593514085">
        <ele>2685.5799999999999</ele>
        <time>2013-09-10T07:46:53Z</time>
      </trkpt>
      <trkpt lat="42.4755466170609" lon="13.571108244359493">
        <ele>2685.5799999999999</ele>
        <time>2013-09-10T07:47:02Z</time>
      </trkpt>
      <trkpt lat="42.475518872961402" lon="13.571126265451312">
        <ele>2687.98</ele>
        <time>2013-09-10T07:47:10Z</time>
      </trkpt>
      <trkpt lat="42.47551292181015" lon="13.57112810947001">
        <ele>2690.3899999999999</ele>
        <time>2013-09-10T07:47:14Z</time>
      </trkpt>
      <trkpt lat="42.475504372268915" lon="13.571118805557489">
        <ele>2687.98</ele>
        <time>2013-09-10T07:47:19Z</time>
      </trkpt>
      <trkpt lat="42.475499678403139" lon="13.571121655404568">
        <ele>2690.8699999999999</ele>
        <time>2013-09-10T07:47:32Z</time>
      </trkpt>
      <trkpt lat="42.475455505773425" lon="13.571100113913417">
        <ele>2692.3099999999999</ele>
        <time>2013-09-10T07:47:45Z</time>
      </trkpt>
      <trkpt lat="42.475422816351056" lon="13.571101119741797">
        <ele>2693.27</ele>
        <time>2013-09-10T07:48:11Z</time>
      </trkpt>
      <trkpt lat="42.475363304838538" lon="13.571052001789212">
        <ele>2696.1500000000001</ele>
        <time>2013-09-10T07:48:28Z</time>
      </trkpt>
      <trkpt lat="42.475321814417839" lon="13.571021491661668">
        <ele>2697.5999999999999</ele>
        <time>2013-09-10T07:48:39Z</time>
      </trkpt>
      <trkpt lat="42.47530035674572" lon="13.571041775867343">
        <ele>2699.52</ele>
        <time>2013-09-10T07:48:50Z</time>
      </trkpt>
      <trkpt lat="42.475285604596138" lon="13.571040350943804">
        <ele>2699.04</ele>
        <time>2013-09-10T07:49:05Z</time>
      </trkpt>
      <trkpt lat="42.475266242399812" lon="13.571045380085707">
        <ele>2701.9200000000001</ele>
        <time>2013-09-10T07:49:14Z</time>
      </trkpt>
      <trkpt lat="42.475243443623185" lon="13.571030041202903">
        <ele>2700.96</ele>
        <time>2013-09-10T07:49:25Z</time>
      </trkpt>
      <trkpt lat="42.475239923223853" lon="13.571058288216591">
        <ele>2703.8499999999999</ele>
        <time>2013-09-10T07:49:42Z</time>
      </trkpt>
      <trkpt lat="42.475231122225523" lon="13.571108160540462">
        <ele>2704.3299999999999</ele>
        <time>2013-09-10T07:49:57Z</time>
      </trkpt>
      <trkpt lat="42.475235899910331" lon="13.571104640141129">
        <ele>2704.3299999999999</ele>
        <time>2013-09-10T07:50:09Z</time>
      </trkpt>
      <trkpt lat="42.47523682191968" lon="13.571109250187874">
        <ele>2702.8800000000001</ele>
        <time>2013-09-10T07:50:12Z</time>
      </trkpt>
      <trkpt lat="42.475234977900982" lon="13.571128863841295">
        <ele>2705.77</ele>
        <time>2013-09-10T07:50:16Z</time>
      </trkpt>
      <trkpt lat="42.475237911567092" lon="13.571133390069008">
        <ele>2705.77</ele>
        <time>2013-09-10T07:50:17Z</time>
      </trkpt>
      <trkpt lat="42.475233469158411" lon="13.571151327341795">
        <ele>2702.8800000000001</ele>
        <time>2013-09-10T07:50:33Z</time>
      </trkpt>
      <trkpt lat="42.475224165245891" lon="13.571180747821927">
        <ele>2706.25</ele>
        <time>2013-09-10T07:50:38Z</time>
      </trkpt>
      <trkpt lat="42.475221063941717" lon="13.571173707023263">
        <ele>2708.6500000000001</ele>
        <time>2013-09-10T07:50:45Z</time>
      </trkpt>
      <trkpt lat="42.475220309570432" lon="13.571192901581526">
        <ele>2709.6100000000001</ele>
        <time>2013-09-10T07:50:48Z</time>
      </trkpt>
      <trkpt lat="42.475230367854238" lon="13.571242019534111">
        <ele>2708.6500000000001</ele>
        <time>2013-09-10T07:51:04Z</time>
      </trkpt>
      <trkpt lat="42.475230032578111" lon="13.571212682873011">
        <ele>2707.6900000000001</ele>
        <time>2013-09-10T07:51:32Z</time>
      </trkpt>
      <trkpt lat="42.475223913788795" lon="13.571208491921425">
        <ele>2707.21</ele>
        <time>2013-09-10T07:51:56Z</time>
      </trkpt>
      <trkpt lat="42.475226428359747" lon="13.571229530498385">
        <ele>2710.5700000000002</ele>
        <time>2013-09-10T07:52:08Z</time>
      </trkpt>
      <trkpt lat="42.475234223529696" lon="13.571223998442292">
        <ele>2710.0900000000001</ele>
        <time>2013-09-10T07:52:36Z</time>
      </trkpt>
      <trkpt lat="42.475227769464254" lon="13.571200026199222">
        <ele>2707.6900000000001</ele>
        <time>2013-09-10T07:52:42Z</time>
      </trkpt>
      <trkpt lat="42.475232044234872" lon="13.571204049512744">
        <ele>2709.1300000000001</ele>
        <time>2013-09-10T07:52:52Z</time>
      </trkpt>
      <trkpt lat="42.47521142475307" lon="13.5711769759655">
        <ele>2707.6900000000001</ele>
        <time>2013-09-10T07:53:08Z</time>
      </trkpt>
      <trkpt lat="42.475202288478613" lon="13.571170773357153">
        <ele>2708.6500000000001</ele>
        <time>2013-09-10T07:53:30Z</time>
      </trkpt>
      <trkpt lat="42.475205641239882" lon="13.571177143603563">
        <ele>2708.6500000000001</ele>
        <time>2013-09-10T07:54:03Z</time>
      </trkpt>
      <trkpt lat="42.475179573521018" lon="13.571131126955152">
        <ele>2709.6100000000001</ele>
        <time>2013-09-10T07:54:16Z</time>
      </trkpt>
      <trkpt lat="42.475163647904992" lon="13.571082344278693">
        <ele>2710.0900000000001</ele>
        <time>2013-09-10T07:54:32Z</time>
      </trkpt>
      <trkpt lat="42.475132383406162" lon="13.571078572422266">
        <ele>2710.5700000000002</ele>
        <time>2013-09-10T07:54:56Z</time>
      </trkpt>
      <trkpt lat="42.475138083100319" lon="13.571077147498727">
        <ele>2713.46</ele>
        <time>2013-09-10T07:54:59Z</time>
      </trkpt>
      <trkpt lat="42.47512299567461" lon="13.571057701483369">
        <ele>2711.54</ele>
        <time>2013-09-10T07:55:03Z</time>
      </trkpt>
      <trkpt lat="42.47508829459548" lon="13.571007661521435">
        <ele>2714.4200000000001</ele>
        <time>2013-09-10T07:55:10Z</time>
      </trkpt>
      <trkpt lat="42.475085528567433" lon="13.57101428322494">
        <ele>2712.98</ele>
        <time>2013-09-10T07:55:25Z</time>
      </trkpt>
      <trkpt lat="42.475072201341391" lon="13.570978073403239">
        <ele>2713.9400000000001</ele>
        <time>2013-09-10T07:55:43Z</time>
      </trkpt>
      <trkpt lat="42.475040266290307" lon="13.570940941572189">
        <ele>2715.8600000000001</ele>
        <time>2013-09-10T07:55:58Z</time>
      </trkpt>
      <trkpt lat="42.475046468898654" lon="13.57094488106668">
        <ele>2716.3400000000001</ele>
        <time>2013-09-10T07:56:32Z</time>
      </trkpt>
      <trkpt lat="42.475005062296987" lon="13.570903809741139">
        <ele>2715.3800000000001</ele>
        <time>2013-09-10T07:56:48Z</time>
      </trkpt>
      <trkpt lat="42.474989639595151" lon="13.570872293785214">
        <ele>2718.75</ele>
        <time>2013-09-10T07:56:54Z</time>
      </trkpt>
      <trkpt lat="42.47495980001986" lon="13.570811441168189">
        <ele>2718.75</ele>
        <time>2013-09-10T07:57:10Z</time>
      </trkpt>
      <trkpt lat="42.474951837211847" lon="13.570754947140813">
        <ele>2720.6700000000001</ele>
        <time>2013-09-10T07:57:16Z</time>
      </trkpt>
      <trkpt lat="42.474916968494654" lon="13.570723431184888">
        <ele>2722.1100000000001</ele>
        <time>2013-09-10T07:57:23Z</time>
      </trkpt>
      <trkpt lat="42.474891822785139" lon="13.570685461163521">
        <ele>2723.5500000000002</ele>
        <time>2013-09-10T07:57:35Z</time>
      </trkpt>
      <trkpt lat="42.47486156411469" lon="13.570657884702086">
        <ele>2723.5500000000002</ele>
        <time>2013-09-10T07:57:51Z</time>
      </trkpt>
      <trkpt lat="42.474847314879298" lon="13.570655789226294">
        <ele>2724.5100000000002</ele>
        <time>2013-09-10T07:58:12Z</time>
      </trkpt>
      <trkpt lat="42.474813032895327" lon="13.570638271048665">
        <ele>2723.5500000000002</ele>
        <time>2013-09-10T07:58:20Z</time>
      </trkpt>
      <trkpt lat="42.474764669314027" lon="13.570591751486063">
        <ele>2726.4400000000001</ele>
        <time>2013-09-10T07:58:34Z</time>
      </trkpt>
      <trkpt lat="42.474738601595163" lon="13.570562414824963">
        <ele>2728.3600000000001</ele>
        <time>2013-09-10T07:58:45Z</time>
      </trkpt>
      <trkpt lat="42.474699206650257" lon="13.570481361821294">
        <ele>2727.8800000000001</ele>
        <time>2013-09-10T07:59:00Z</time>
      </trkpt>
      <trkpt lat="42.47467783279717" lon="13.570446996018291">
        <ele>2728.8400000000001</ele>
        <time>2013-09-10T07:59:14Z</time>
      </trkpt>
      <trkpt lat="42.474649921059608" lon="13.570441631600261">
        <ele>2732.1999999999998</ele>
        <time>2013-09-10T07:59:20Z</time>
      </trkpt>
      <trkpt lat="42.474641455337405" lon="13.570439117029309">
        <ele>2732.6799999999998</ele>
        <time>2013-09-10T07:59:22Z</time>
      </trkpt>
      <trkpt lat="42.474620919674635" lon="13.570450516417623">
        <ele>2731.7199999999998</ele>
        <time>2013-09-10T07:59:33Z</time>
      </trkpt>
      <trkpt lat="42.474624188616872" lon="13.57042939402163">
        <ele>2730.7600000000002</ele>
        <time>2013-09-10T07:59:53Z</time>
      </trkpt>
      <trkpt lat="42.474612118676305" lon="13.570431238040328">
        <ele>2737.4899999999998</ele>
        <time>2013-09-10T08:00:27Z</time>
      </trkpt>
      <trkpt lat="42.474658973515034" lon="13.570415647700429">
        <ele>2737.0100000000002</ele>
        <time>2013-09-10T08:00:36Z</time>
      </trkpt>
      <trkpt lat="42.474640198051929" lon="13.570414977148175">
        <ele>2737.0100000000002</ele>
        <time>2013-09-10T08:00:58Z</time>
      </trkpt>
      <trkpt lat="42.474649418145418" lon="13.570412378758192">
        <ele>2738.9299999999998</ele>
        <time>2013-09-10T08:01:26Z</time>
      </trkpt>
      <trkpt lat="42.474660314619541" lon="13.570417575538158">
        <ele>2737.9699999999998</ele>
        <time>2013-09-10T08:01:52Z</time>
      </trkpt>
      <trkpt lat="42.474654112011194" lon="13.570410283282399">
        <ele>2737.4899999999998</ele>
        <time>2013-09-10T08:02:25Z</time>
      </trkpt>
      <trkpt lat="42.474659141153097" lon="13.570412714034319">
        <ele>2736.0500000000002</ele>
        <time>2013-09-10T08:02:54Z</time>
      </trkpt>
      <trkpt lat="42.474658051505685" lon="13.570406511425972">
        <ele>2736.5300000000002</ele>
        <time>2013-09-10T08:03:01Z</time>
      </trkpt>
      <trkpt lat="42.474653106182814" lon="13.570418665185571">
        <ele>2738.4499999999998</ele>
        <time>2013-09-10T08:03:12Z</time>
      </trkpt>
      <trkpt lat="42.474639192223549" lon="13.570381030440331">
        <ele>2738.4499999999998</ele>
        <time>2013-09-10T08:03:17Z</time>
      </trkpt>
      <trkpt lat="42.474568448960781" lon="13.570314729586244">
        <ele>2738.9299999999998</ele>
        <time>2013-09-10T08:03:29Z</time>
      </trkpt>
      <trkpt lat="42.474479600787163" lon="13.570246584713459">
        <ele>2742.3000000000002</ele>
        <time>2013-09-10T08:03:43Z</time>
      </trkpt>
      <trkpt lat="42.474401565268636" lon="13.570180619135499">
        <ele>2744.2199999999998</ele>
        <time>2013-09-10T08:03:58Z</time>
      </trkpt>
      <trkpt lat="42.474349094554782" lon="13.570111971348524">
        <ele>2747.0999999999999</ele>
        <time>2013-09-10T08:04:12Z</time>
      </trkpt>
      <trkpt lat="42.474279440939426" lon="13.570066289976239">
        <ele>2749.9899999999998</ele>
        <time>2013-09-10T08:04:28Z</time>
      </trkpt>
      <trkpt lat="42.474227137863636" lon="13.570019351318479">
        <ele>2751.9099999999999</ele>
        <time>2013-09-10T08:04:42Z</time>
      </trkpt>
      <trkpt lat="42.474185815081" lon="13.569969227537513">
        <ele>2752.8699999999999</ele>
        <time>2013-09-10T08:04:53Z</time>
      </trkpt>
      <trkpt lat="42.474127560853958" lon="13.569883732125163">
        <ele>2755.7600000000002</ele>
        <time>2013-09-10T08:05:10Z</time>
      </trkpt>
      <trkpt lat="42.474056901410222" lon="13.569891024380922">
        <ele>2757.6799999999998</ele>
        <time>2013-09-10T08:05:25Z</time>
      </trkpt>
      <trkpt lat="42.474000994116068" lon="13.569800248369575">
        <ele>2760.5599999999999</ele>
        <time>2013-09-10T08:05:42Z</time>
      </trkpt>
      <trkpt lat="42.473996467888355" lon="13.569753477349877">
        <ele>2762</ele>
        <time>2013-09-10T08:06:00Z</time>
      </trkpt>
      <trkpt lat="42.473958497866988" lon="13.569734198972583">
        <ele>2762.9699999999998</ele>
        <time>2013-09-10T08:06:24Z</time>
      </trkpt>
      <trkpt lat="42.473901752382517" lon="13.569750627502799">
        <ele>2766.3299999999999</ele>
        <time>2013-09-10T08:06:38Z</time>
      </trkpt>
      <trkpt lat="42.473850538954139" lon="13.56975163333118">
        <ele>2767.77</ele>
        <time>2013-09-10T08:06:50Z</time>
      </trkpt>
      <trkpt lat="42.473819777369499" lon="13.569722715765238">
        <ele>2769.21</ele>
        <time>2013-09-10T08:07:03Z</time>
      </trkpt>
      <trkpt lat="42.473788512870669" lon="13.569703605026007">
        <ele>2773.0599999999999</ele>
        <time>2013-09-10T08:07:11Z</time>
      </trkpt>
      <trkpt lat="42.473785830661654" lon="13.569691032171249">
        <ele>2772.5799999999999</ele>
        <time>2013-09-10T08:07:12Z</time>
      </trkpt>
      <trkpt lat="42.473736880347133" lon="13.569614253938198">
        <ele>2774.02</ele>
        <time>2013-09-10T08:07:26Z</time>
      </trkpt>
      <trkpt lat="42.473727827891707" lon="13.569611236453056">
        <ele>2773.54</ele>
        <time>2013-09-10T08:07:28Z</time>
      </trkpt>
      <trkpt lat="42.473689103499055" lon="13.569586677476764">
        <ele>2774.98</ele>
        <time>2013-09-10T08:07:41Z</time>
      </trkpt>
      <trkpt lat="42.473659683018923" lon="13.569667981937528">
        <ele>2778.3499999999999</ele>
        <time>2013-09-10T08:07:55Z</time>
      </trkpt>
      <trkpt lat="42.473629508167505" lon="13.569679548963904">
        <ele>2778.8299999999999</ele>
        <time>2013-09-10T08:08:01Z</time>
      </trkpt>
      <trkpt lat="42.473614839836955" lon="13.569691870361567">
        <ele>2779.3099999999999</ele>
        <time>2013-09-10T08:08:05Z</time>
      </trkpt>
      <trkpt lat="42.47358868829906" lon="13.569673933088779">
        <ele>2779.79</ele>
        <time>2013-09-10T08:08:12Z</time>
      </trkpt>
      <trkpt lat="42.47354962863028" lon="13.569617858156562">
        <ele>2782.1900000000001</ele>
        <time>2013-09-10T08:08:27Z</time>
      </trkpt>
      <trkpt lat="42.473527584224939" lon="13.56956304050982">
        <ele>2785.5599999999999</ele>
        <time>2013-09-10T08:08:40Z</time>
      </trkpt>
      <trkpt lat="42.473506964743137" lon="13.569441754370928">
        <ele>2789.4000000000001</ele>
        <time>2013-09-10T08:08:52Z</time>
      </trkpt>
      <trkpt lat="42.473505288362503" lon="13.569437814876437">
        <ele>2789.4000000000001</ele>
        <time>2013-09-10T08:08:53Z</time>
      </trkpt>
      <trkpt lat="42.473497912287712" lon="13.569436306133866">
        <ele>2790.8400000000001</ele>
        <time>2013-09-10T08:08:55Z</time>
      </trkpt>
      <trkpt lat="42.473494727164507" lon="13.569431444630027">
        <ele>2791.8099999999999</ele>
        <time>2013-09-10T08:08:59Z</time>
      </trkpt>
      <trkpt lat="42.473491122946143" lon="13.569433372467756">
        <ele>2787.48</ele>
        <time>2013-09-10T08:09:01Z</time>
      </trkpt>
      <trkpt lat="42.473492464050651" lon="13.569434462115169">
        <ele>2788.4400000000001</ele>
        <time>2013-09-10T08:09:02Z</time>
      </trkpt>
      <trkpt lat="42.473489949479699" lon="13.569439826533198">
        <ele>2792.29</ele>
        <time>2013-09-10T08:09:05Z</time>
      </trkpt>
      <trkpt lat="42.473491877317429" lon="13.569446364417672">
        <ele>2789.4000000000001</ele>
        <time>2013-09-10T08:09:11Z</time>
      </trkpt>
      <trkpt lat="42.473493805155158" lon="13.569446532055736">
        <ele>2789.8800000000001</ele>
        <time>2013-09-10T08:09:12Z</time>
      </trkpt>
      <trkpt lat="42.473493469879031" lon="13.569440077990294">
        <ele>2788.4400000000001</ele>
        <time>2013-09-10T08:09:16Z</time>
      </trkpt>
      <trkpt lat="42.47349439188838" lon="13.569439155980945">
        <ele>2787.48</ele>
        <time>2013-09-10T08:09:23Z</time>
      </trkpt>
      <trkpt lat="42.473482824862003" lon="13.569449130445719">
        <ele>2784.5999999999999</ele>
        <time>2013-09-10T08:09:33Z</time>
      </trkpt>
      <trkpt lat="42.473484501242638" lon="13.569446532055736">
        <ele>2786.52</ele>
        <time>2013-09-10T08:09:37Z</time>
      </trkpt>
      <trkpt lat="42.473468240350485" lon="13.569498164579272">
        <ele>2786.04</ele>
        <time>2013-09-10T08:09:51Z</time>
      </trkpt>
      <trkpt lat="42.473449548706412" lon="13.569469917565584">
        <ele>2786.52</ele>
        <time>2013-09-10T08:10:03Z</time>
      </trkpt>
      <trkpt lat="42.473428258672357" lon="13.569516772404313">
        <ele>2787.96</ele>
        <time>2013-09-10T08:10:18Z</time>
      </trkpt>
      <trkpt lat="42.473430102691054" lon="13.569490117952228">
        <ele>2789.8800000000001</ele>
        <time>2013-09-10T08:10:27Z</time>
      </trkpt>
      <trkpt lat="42.473395988345146" lon="13.5695278365165">
        <ele>2789.8800000000001</ele>
        <time>2013-09-10T08:10:42Z</time>
      </trkpt>
      <trkpt lat="42.473366735503078" lon="13.569578463211656">
        <ele>2790.8400000000001</ele>
        <time>2013-09-10T08:10:58Z</time>
      </trkpt>
      <trkpt lat="42.473337817937136" lon="13.569596987217665">
        <ele>2794.6900000000001</ele>
        <time>2013-09-10T08:11:06Z</time>
      </trkpt>
      <trkpt lat="42.473327592015266" lon="13.569620540365577">
        <ele>2794.6900000000001</ele>
        <time>2013-09-10T08:11:18Z</time>
      </trkpt>
      <trkpt lat="42.473299093544483" lon="13.569682147353888">
        <ele>2795.1700000000001</ele>
        <time>2013-09-10T08:11:27Z</time>
      </trkpt>
      <trkpt lat="42.473287107422948" lon="13.569643590599298">
        <ele>2796.6100000000001</ele>
        <time>2013-09-10T08:11:42Z</time>
      </trkpt>
      <trkpt lat="42.473286269232631" lon="13.569631855934858">
        <ele>2798.54</ele>
        <time>2013-09-10T08:11:49Z</time>
      </trkpt>
      <trkpt lat="42.473312169313431" lon="13.569609979167581">
        <ele>2794.6900000000001</ele>
        <time>2013-09-10T08:12:07Z</time>
      </trkpt>
      <trkpt lat="42.473315102979541" lon="13.569610901176929">
        <ele>2798.0500000000002</ele>
        <time>2013-09-10T08:12:11Z</time>
      </trkpt>
      <trkpt lat="42.473289286717772" lon="13.569639399647713">
        <ele>2796.6100000000001</ele>
        <time>2013-09-10T08:12:29Z</time>
      </trkpt>
      <trkpt lat="42.473285850137472" lon="13.569632107391953">
        <ele>2797.5700000000002</ele>
        <time>2013-09-10T08:12:53Z</time>
      </trkpt>
      <trkpt lat="42.47328283265233" lon="13.56964317150414">
        <ele>2797.0900000000001</ele>
        <time>2013-09-10T08:13:15Z</time>
      </trkpt>
      <trkpt lat="42.473281994462013" lon="13.56964367441833">
        <ele>2795.6500000000001</ele>
        <time>2013-09-10T08:13:34Z</time>
      </trkpt>
      <trkpt lat="42.473282581195235" lon="13.569641998037696">
        <ele>2797.0900000000001</ele>
        <time>2013-09-10T08:13:36Z</time>
      </trkpt>
      <trkpt lat="42.473282413557172" lon="13.569639399647713">
        <ele>2798.0500000000002</ele>
        <time>2013-09-10T08:13:38Z</time>
      </trkpt>
      <trkpt lat="42.473284676671028" lon="13.569729924201965">
        <ele>2799.02</ele>
        <time>2013-09-10T08:13:58Z</time>
      </trkpt>
      <trkpt lat="42.473287861794233" lon="13.569741742685437">
        <ele>2797.5700000000002</ele>
        <time>2013-09-10T08:14:02Z</time>
      </trkpt>
      <trkpt lat="42.473279647529125" lon="13.569790860638022">
        <ele>2796.6100000000001</ele>
        <time>2013-09-10T08:14:17Z</time>
      </trkpt>
      <trkpt lat="42.473250646144152" lon="13.569789519533515">
        <ele>2798.0500000000002</ele>
        <time>2013-09-10T08:14:37Z</time>
      </trkpt>
      <trkpt lat="42.473222482949495" lon="13.569753058254719">
        <ele>2800.46</ele>
        <time>2013-09-10T08:14:51Z</time>
      </trkpt>
      <trkpt lat="42.473214603960514" lon="13.56973797082901">
        <ele>2803.8200000000002</ele>
        <time>2013-09-10T08:14:54Z</time>
      </trkpt>
      <trkpt lat="42.473203791305423" lon="13.569771833717823">
        <ele>2803.3400000000001</ele>
        <time>2013-09-10T08:15:06Z</time>
      </trkpt>
      <trkpt lat="42.473171604797244" lon="13.569831093773246">
        <ele>2804.3000000000002</ele>
        <time>2013-09-10T08:15:20Z</time>
      </trkpt>
      <trkpt lat="42.473152577877045" lon="13.569835536181927">
        <ele>2805.2600000000002</ele>
        <time>2013-09-10T08:15:32Z</time>
      </trkpt>
      <trkpt lat="42.473154589533806" lon="13.569822041317821">
        <ele>2805.75</ele>
        <time>2013-09-10T08:15:53Z</time>
      </trkpt>
      <trkpt lat="42.473160708323121" lon="13.56982053257525">
        <ele>2805.2600000000002</ele>
        <time>2013-09-10T08:16:07Z</time>
      </trkpt>
      <trkpt lat="42.473151991143823" lon="13.569810055196285">
        <ele>2804.7800000000002</ele>
        <time>2013-09-10T08:16:27Z</time>
      </trkpt>
      <trkpt lat="42.473159451037645" lon="13.56980737298727">
        <ele>2805.75</ele>
        <time>2013-09-10T08:16:54Z</time>
      </trkpt>
      <trkpt lat="42.473163055256009" lon="13.569800164550543">
        <ele>2804.7800000000002</ele>
        <time>2013-09-10T08:17:18Z</time>
      </trkpt>
      <trkpt lat="42.473167749121785" lon="13.569791531190276">
        <ele>2804.3000000000002</ele>
        <time>2013-09-10T08:17:30Z</time>
      </trkpt>
      <trkpt lat="42.473161546513438" lon="13.569772504270077">
        <ele>2805.75</ele>
        <time>2013-09-10T08:17:32Z</time>
      </trkpt>
      <trkpt lat="42.473127515986562" lon="13.569755237549543">
        <ele>2808.1500000000001</ele>
        <time>2013-09-10T08:17:40Z</time>
      </trkpt>
      <trkpt lat="42.473094575107098" lon="13.569798991084099">
        <ele>2808.6300000000001</ele>
        <time>2013-09-10T08:17:53Z</time>
      </trkpt>
      <trkpt lat="42.473096754401922" lon="13.569805780425668">
        <ele>2808.1500000000001</ele>
        <time>2013-09-10T08:18:10Z</time>
      </trkpt>
      <trkpt lat="42.473065322265029" lon="13.569778706878424">
        <ele>2808.6300000000001</ele>
        <time>2013-09-10T08:18:23Z</time>
      </trkpt>
      <trkpt lat="42.473071943968534" lon="13.569774851202965">
        <ele>2809.5900000000001</ele>
        <time>2013-09-10T08:18:36Z</time>
      </trkpt>
      <trkpt lat="42.473060879856348" lon="13.569753728806973">
        <ele>2809.1100000000001</ele>
        <time>2013-09-10T08:18:58Z</time>
      </trkpt>
      <trkpt lat="42.473070602864027" lon="13.569782311096787">
        <ele>2811.0300000000002</ele>
        <time>2013-09-10T08:19:16Z</time>
      </trkpt>
      <trkpt lat="42.473080828785896" lon="13.569778455421329">
        <ele>2809.5900000000001</ele>
        <time>2013-09-10T08:19:39Z</time>
      </trkpt>
      <trkpt lat="42.473091557621956" lon="13.569786418229342">
        <ele>2810.0700000000002</ele>
        <time>2013-09-10T08:20:04Z</time>
      </trkpt>
      <trkpt lat="42.473068675026298" lon="13.569793878123164">
        <ele>2810.0700000000002</ele>
        <time>2013-09-10T08:20:36Z</time>
      </trkpt>
      <trkpt lat="42.47303506359458" lon="13.569762445986271">
        <ele>2812.4699999999998</ele>
        <time>2013-09-10T08:20:49Z</time>
      </trkpt>
      <trkpt lat="42.473002709448338" lon="13.569749789312482">
        <ele>2813.4400000000001</ele>
        <time>2013-09-10T08:21:00Z</time>
      </trkpt>
      <trkpt lat="42.472965661436319" lon="13.569782311096787">
        <ele>2814.4000000000001</ele>
        <time>2013-09-10T08:21:11Z</time>
      </trkpt>
      <trkpt lat="42.472958704456687" lon="13.569764457643032">
        <ele>2818.2399999999998</ele>
        <time>2013-09-10T08:21:15Z</time>
      </trkpt>
      <trkpt lat="42.472942527383566" lon="13.569788513705134">
        <ele>2814.8800000000001</ele>
        <time>2013-09-10T08:21:21Z</time>
      </trkpt>
      <trkpt lat="42.472916711121798" lon="13.569790609180927">
        <ele>2812.4699999999998</ele>
        <time>2013-09-10T08:21:33Z</time>
      </trkpt>
      <trkpt lat="42.472926769405603" lon="13.569791363552213">
        <ele>2813.9200000000001</ele>
        <time>2013-09-10T08:21:49Z</time>
      </trkpt>
      <trkpt lat="42.472929283976555" lon="13.56979563832283">
        <ele>2813.9200000000001</ele>
        <time>2013-09-10T08:21:50Z</time>
      </trkpt>
      <trkpt lat="42.472936324775219" lon="13.569798655807972">
        <ele>2815.8400000000001</ele>
        <time>2013-09-10T08:21:53Z</time>
      </trkpt>
      <trkpt lat="42.472918890416622" lon="13.569828914478421">
        <ele>2817.7600000000002</ele>
        <time>2013-09-10T08:22:06Z</time>
      </trkpt>
      <trkpt lat="42.472876477986574" lon="13.569854898378253">
        <ele>2821.6100000000001</ele>
        <time>2013-09-10T08:22:17Z</time>
      </trkpt>
      <trkpt lat="42.4728924036026" lon="13.569836374372244">
        <ele>2817.7600000000002</ele>
        <time>2013-09-10T08:22:22Z</time>
      </trkpt>
      <trkpt lat="42.472892319783568" lon="13.569839056581259">
        <ele>2820.1599999999999</ele>
        <time>2013-09-10T08:22:25Z</time>
      </trkpt>
      <trkpt lat="42.472891565412283" lon="13.569835117086768">
        <ele>2816.8000000000002</ele>
        <time>2013-09-10T08:22:27Z</time>
      </trkpt>
      <trkpt lat="42.472891816869378" lon="13.569832518696785">
        <ele>2817.2800000000002</ele>
        <time>2013-09-10T08:22:28Z</time>
      </trkpt>
      <trkpt lat="42.472891146317124" lon="13.569829165935516">
        <ele>2818.2399999999998</ele>
        <time>2013-09-10T08:22:30Z</time>
      </trkpt>
      <trkpt lat="42.472888380289078" lon="13.569836793467402">
        <ele>2821.6100000000001</ele>
        <time>2013-09-10T08:22:33Z</time>
      </trkpt>
      <trkpt lat="42.472889805212617" lon="13.569846265017986">
        <ele>2821.1300000000001</ele>
        <time>2013-09-10T08:22:34Z</time>
      </trkpt>
      <trkpt lat="42.472860720008612" lon="13.569887755438685">
        <ele>2820.6500000000001</ele>
        <time>2013-09-10T08:22:49Z</time>
      </trkpt>
      <trkpt lat="42.472867509350181" lon="13.569912482053041">
        <ele>2824.4899999999998</ele>
        <time>2013-09-10T08:22:57Z</time>
      </trkpt>
      <trkpt lat="42.472860552370548" lon="13.56991533190012">
        <ele>2824.4899999999998</ele>
        <time>2013-09-10T08:22:58Z</time>
      </trkpt>
      <trkpt lat="42.472832975909114" lon="13.569947266951203">
        <ele>2826.4099999999999</ele>
        <time>2013-09-10T08:23:10Z</time>
      </trkpt>
      <trkpt lat="42.472840854898095" lon="13.569944333285093">
        <ele>2823.5300000000002</ele>
        <time>2013-09-10T08:23:12Z</time>
      </trkpt>
      <trkpt lat="42.472847728058696" lon="13.569935532286763">
        <ele>2822.5700000000002</ele>
        <time>2013-09-10T08:23:14Z</time>
      </trkpt>
      <trkpt lat="42.47284890152514" lon="13.569937627762556">
        <ele>2827.3699999999999</ele>
        <time>2013-09-10T08:23:15Z</time>
      </trkpt>
      <trkpt lat="42.472850913181901" lon="13.569941399618983">
        <ele>2827.3699999999999</ele>
        <time>2013-09-10T08:23:16Z</time>
      </trkpt>
      <trkpt lat="42.472803890705109" lon="13.569975513964891">
        <ele>2828.8200000000002</ele>
        <time>2013-09-10T08:23:27Z</time>
      </trkpt>
      <trkpt lat="42.472800118848681" lon="13.56998230330646">
        <ele>2830.2600000000002</ele>
        <time>2013-09-10T08:23:29Z</time>
      </trkpt>
      <trkpt lat="42.472769860178232" lon="13.569974591955543">
        <ele>2830.7399999999998</ele>
        <time>2013-09-10T08:23:42Z</time>
      </trkpt>
      <trkpt lat="42.472775224596262" lon="13.569991942495108">
        <ele>2834.0999999999999</ele>
        <time>2013-09-10T08:23:50Z</time>
      </trkpt>
      <trkpt lat="42.472774889320135" lon="13.569994708523154">
        <ele>2834.5799999999999</ele>
        <time>2013-09-10T08:23:51Z</time>
      </trkpt>
      <trkpt lat="42.472764663398266" lon="13.570032678544521">
        <ele>2832.1799999999998</ele>
        <time>2013-09-10T08:24:01Z</time>
      </trkpt>
      <trkpt lat="42.472751503810287" lon="13.570028068497777">
        <ele>2836.9899999999998</ele>
        <time>2013-09-10T08:24:06Z</time>
      </trkpt>
      <trkpt lat="42.472747648134828" lon="13.570026643574238">
        <ele>2837.4699999999998</ele>
        <time>2013-09-10T08:24:07Z</time>
      </trkpt>
      <trkpt lat="42.472744211554527" lon="13.570017088204622">
        <ele>2839.3899999999999</ele>
        <time>2013-09-10T08:24:11Z</time>
      </trkpt>
      <trkpt lat="42.472728453576565" lon="13.570032427087426">
        <ele>2838.4299999999998</ele>
        <time>2013-09-10T08:24:24Z</time>
      </trkpt>
      <trkpt lat="42.472732225432992" lon="13.570049190893769">
        <ele>2835.0599999999999</ele>
        <time>2013-09-10T08:24:33Z</time>
      </trkpt>
      <trkpt lat="42.472733482718468" lon="13.570051873102784">
        <ele>2835.0599999999999</ele>
        <time>2013-09-10T08:24:34Z</time>
      </trkpt>
      <trkpt lat="42.472739769145846" lon="13.570045670494437">
        <ele>2837.9499999999998</ele>
        <time>2013-09-10T08:24:41Z</time>
      </trkpt>
      <trkpt lat="42.472739601507783" lon="13.570039384067059">
        <ele>2833.6199999999999</ele>
        <time>2013-09-10T08:25:02Z</time>
      </trkpt>
      <trkpt lat="42.472737757489085" lon="13.570043826475739">
        <ele>2834.0999999999999</ele>
        <time>2013-09-10T08:25:03Z</time>
      </trkpt>
      <trkpt lat="42.472740355879068" lon="13.570057321339846">
        <ele>2835.5500000000002</ele>
        <time>2013-09-10T08:25:07Z</time>
      </trkpt>
      <trkpt lat="42.472698614001274" lon="13.570116749033332">
        <ele>2838.9099999999999</ele>
        <time>2013-09-10T08:25:19Z</time>
      </trkpt>
      <trkpt lat="42.472670115530491" lon="13.570102918893099">
        <ele>2842.2800000000002</ele>
        <time>2013-09-10T08:25:28Z</time>
      </trkpt>
      <trkpt lat="42.472666092216969" lon="13.570132674649358">
        <ele>2842.2800000000002</ele>
        <time>2013-09-10T08:25:35Z</time>
      </trkpt>
      <trkpt lat="42.472659386694431" lon="13.570137452334166">
        <ele>2843.7199999999998</ele>
        <time>2013-09-10T08:25:37Z</time>
      </trkpt>
      <trkpt lat="42.47266030870378" lon="13.570131165906787">
        <ele>2844.1999999999998</ele>
        <time>2013-09-10T08:25:44Z</time>
      </trkpt>
      <trkpt lat="42.47266223654151" lon="13.570128064602613">
        <ele>2841.3099999999999</ele>
        <time>2013-09-10T08:25:51Z</time>
      </trkpt>
      <trkpt lat="42.472666343674064" lon="13.570134937763214">
        <ele>2843.7199999999998</ele>
        <time>2013-09-10T08:25:55Z</time>
      </trkpt>
      <trkpt lat="42.472683694213629" lon="13.570147510617971">
        <ele>2841.79</ele>
        <time>2013-09-10T08:26:05Z</time>
      </trkpt>
      <trkpt lat="42.472690232098103" lon="13.57014843262732">
        <ele>2843.2399999999998</ele>
        <time>2013-09-10T08:26:15Z</time>
      </trkpt>
      <trkpt lat="42.472690735012293" lon="13.570147594437003">
        <ele>2842.2800000000002</ele>
        <time>2013-09-10T08:26:37Z</time>
      </trkpt>
      <trkpt lat="42.472683610394597" lon="13.570129824802279">
        <ele>2844.1999999999998</ele>
        <time>2013-09-10T08:26:45Z</time>
      </trkpt>
      <trkpt lat="42.472634827718139" lon="13.570185899734497">
        <ele>2844.6799999999998</ele>
        <time>2013-09-10T08:26:55Z</time>
      </trkpt>
      <trkpt lat="42.472581015899777" lon="13.570268210023642">
        <ele>2848.52</ele>
        <time>2013-09-10T08:27:09Z</time>
      </trkpt>
      <trkpt lat="42.472543297335505" lon="13.570265779271722">
        <ele>2848.52</ele>
        <time>2013-09-10T08:27:21Z</time>
      </trkpt>
      <trkpt lat="42.472518235445023" lon="13.570310706272721">
        <ele>2849</ele>
        <time>2013-09-10T08:27:34Z</time>
      </trkpt>
      <trkpt lat="42.472503231838346" lon="13.570328056812286">
        <ele>2851.4099999999999</ele>
        <time>2013-09-10T08:27:38Z</time>
      </trkpt>
      <trkpt lat="42.472494682297111" lon="13.570327218621969">
        <ele>2850.4499999999998</ele>
        <time>2013-09-10T08:27:40Z</time>
      </trkpt>
      <trkpt lat="42.472469788044691" lon="13.570316573604941">
        <ele>2853.8099999999999</ele>
        <time>2013-09-10T08:27:50Z</time>
      </trkpt>
      <trkpt lat="42.472447576001287" lon="13.570344988256693">
        <ele>2854.29</ele>
        <time>2013-09-10T08:28:05Z</time>
      </trkpt>
      <trkpt lat="42.472428046166897" lon="13.570373905822635">
        <ele>2856.6900000000001</ele>
        <time>2013-09-10T08:28:16Z</time>
      </trkpt>
      <trkpt lat="42.472417065873742" lon="13.570390334352851">
        <ele>2860.54</ele>
        <time>2013-09-10T08:28:23Z</time>
      </trkpt>
      <trkpt lat="42.472400134429336" lon="13.57041179202497">
        <ele>2861.02</ele>
        <time>2013-09-10T08:28:29Z</time>
      </trkpt>
      <trkpt lat="42.472377922385931" lon="13.570424281060696">
        <ele>2859.5799999999999</ele>
        <time>2013-09-10T08:28:40Z</time>
      </trkpt>
      <trkpt lat="42.472358727827668" lon="13.57046308927238">
        <ele>2860.0599999999999</ele>
        <time>2013-09-10T08:28:50Z</time>
      </trkpt>
      <trkpt lat="42.472362248227" lon="13.570476835593581">
        <ele>2864.3899999999999</ele>
        <time>2013-09-10T08:28:55Z</time>
      </trkpt>
      <trkpt lat="42.472363840788603" lon="13.57048069126904">
        <ele>2867.75</ele>
        <time>2013-09-10T08:28:58Z</time>
      </trkpt>
      <trkpt lat="42.47236417606473" lon="13.570499131456017">
        <ele>2868.23</ele>
        <time>2013-09-10T08:29:08Z</time>
      </trkpt>
      <trkpt lat="42.472368869930506" lon="13.570476500317454">
        <ele>2868.71</ele>
        <time>2013-09-10T08:29:14Z</time>
      </trkpt>
      <trkpt lat="42.472373647615314" lon="13.570476248860359">
        <ele>2864.8699999999999</ele>
        <time>2013-09-10T08:29:20Z</time>
      </trkpt>
      <trkpt lat="42.47235830873251" lon="13.570493264123797">
        <ele>2865.3499999999999</ele>
        <time>2013-09-10T08:29:35Z</time>
      </trkpt>
      <trkpt lat="42.472359985113144" lon="13.570495108142495">
        <ele>2861.98</ele>
        <time>2013-09-10T08:29:38Z</time>
      </trkpt>
      <trkpt lat="42.472358895465732" lon="13.570500640198588">
        <ele>2858.6199999999999</ele>
        <time>2013-09-10T08:29:45Z</time>
      </trkpt>
      <trkpt lat="42.472360320389271" lon="13.570504412055016">
        <ele>2864.8699999999999</ele>
        <time>2013-09-10T08:29:49Z</time>
      </trkpt>
      <trkpt lat="42.472359649837017" lon="13.570511369034648">
        <ele>2864.8699999999999</ele>
        <time>2013-09-10T08:29:50Z</time>
      </trkpt>
      <trkpt lat="42.472352273762226" lon="13.570528216660023">
        <ele>2867.27</ele>
        <time>2013-09-10T08:29:54Z</time>
      </trkpt>
      <trkpt lat="42.47233391739428" lon="13.570601139217615">
        <ele>2868.23</ele>
        <time>2013-09-10T08:30:06Z</time>
      </trkpt>
      <trkpt lat="42.472324445843697" lon="13.570628296583891">
        <ele>2865.8299999999999</ele>
        <time>2013-09-10T08:30:10Z</time>
      </trkpt>
      <trkpt lat="42.472303826361895" lon="13.570683533325791">
        <ele>2868.23</ele>
        <time>2013-09-10T08:30:26Z</time>
      </trkpt>
      <trkpt lat="42.472279602661729" lon="13.570713456720114">
        <ele>2871.1100000000001</ele>
        <time>2013-09-10T08:30:38Z</time>
      </trkpt>
      <trkpt lat="42.472269963473082" lon="13.570747235789895">
        <ele>2871.5999999999999</ele>
        <time>2013-09-10T08:30:49Z</time>
      </trkpt>
      <trkpt lat="42.472270969301462" lon="13.570758886635303">
        <ele>2874.96</ele>
        <time>2013-09-10T08:31:04Z</time>
      </trkpt>
      <trkpt lat="42.472269963473082" lon="13.570759138092399">
        <ele>2875.4400000000001</ele>
        <time>2013-09-10T08:31:05Z</time>
      </trkpt>
      <trkpt lat="42.4722620844841" lon="13.570753270760179">
        <ele>2877.3600000000001</ele>
        <time>2013-09-10T08:31:10Z</time>
      </trkpt>
      <trkpt lat="42.47226451523602" lon="13.570753270760179">
        <ele>2875.4400000000001</ele>
        <time>2013-09-10T08:31:13Z</time>
      </trkpt>
      <trkpt lat="42.472258312627673" lon="13.570780847221613">
        <ele>2875.9200000000001</ele>
        <time>2013-09-10T08:31:21Z</time>
      </trkpt>
      <trkpt lat="42.472250768914819" lon="13.570772632956505">
        <ele>2874.96</ele>
        <time>2013-09-10T08:31:40Z</time>
      </trkpt>
      <trkpt lat="42.472251858562231" lon="13.570771291851997">
        <ele>2874</ele>
        <time>2013-09-10T08:31:53Z</time>
      </trkpt>
      <trkpt lat="42.472251942381263" lon="13.570766011252999">
        <ele>2878.3200000000002</ele>
        <time>2013-09-10T08:31:57Z</time>
      </trkpt>
      <trkpt lat="42.472266191616654" lon="13.570761233568192">
        <ele>2881.21</ele>
        <time>2013-09-10T08:32:03Z</time>
      </trkpt>
      <trkpt lat="42.472259905189276" lon="13.570760982111096">
        <ele>2878.3200000000002</ele>
        <time>2013-09-10T08:32:09Z</time>
      </trkpt>
      <trkpt lat="42.47225278057158" lon="13.57078512199223">
        <ele>2874.48</ele>
        <time>2013-09-10T08:32:17Z</time>
      </trkpt>
      <trkpt lat="42.472258815541863" lon="13.570783948525786">
        <ele>2874</ele>
        <time>2013-09-10T08:32:24Z</time>
      </trkpt>
      <trkpt lat="42.47225034981966" lon="13.570826947689056">
        <ele>2874.48</ele>
        <time>2013-09-10T08:32:42Z</time>
      </trkpt>
      <trkpt lat="42.472240878269076" lon="13.57086818665266">
        <ele>2876.8800000000001</ele>
        <time>2013-09-10T08:32:47Z</time>
      </trkpt>
      <trkpt lat="42.472217576578259" lon="13.570877406746149">
        <ele>2878.8099999999999</ele>
        <time>2013-09-10T08:32:59Z</time>
      </trkpt>
      <trkpt lat="42.472219001501799" lon="13.570875898003578">
        <ele>2878.3200000000002</ele>
        <time>2013-09-10T08:33:03Z</time>
      </trkpt>
      <trkpt lat="42.472203159704804" lon="13.570886459201574">
        <ele>2879.77</ele>
        <time>2013-09-10T08:33:15Z</time>
      </trkpt>
      <trkpt lat="42.472174912691116" lon="13.570901295170188">
        <ele>2881.21</ele>
        <time>2013-09-10T08:33:30Z</time>
      </trkpt>
      <trkpt lat="42.472155634313822" lon="13.570921998471022">
        <ele>2882.1700000000001</ele>
        <time>2013-09-10T08:33:42Z</time>
      </trkpt>
      <trkpt lat="42.472142726182938" lon="13.570972625166178">
        <ele>2883.6100000000001</ele>
        <time>2013-09-10T08:33:55Z</time>
      </trkpt>
      <trkpt lat="42.472138619050384" lon="13.570981677621603">
        <ele>2885.5300000000002</ele>
        <time>2013-09-10T08:34:00Z</time>
      </trkpt>
      <trkpt lat="42.472125375643373" lon="13.570974553003907">
        <ele>2886.98</ele>
        <time>2013-09-10T08:34:04Z</time>
      </trkpt>
      <trkpt lat="42.472121100872755" lon="13.570968937128782">
        <ele>2886.5</ele>
        <time>2013-09-10T08:34:19Z</time>
      </trkpt>
      <trkpt lat="42.472104504704475" lon="13.570949826389551">
        <ele>2887.46</ele>
        <time>2013-09-10T08:34:33Z</time>
      </trkpt>
      <trkpt lat="42.472056057304144" lon="13.570887800306082">
        <ele>2890.3400000000001</ele>
        <time>2013-09-10T08:34:46Z</time>
      </trkpt>
      <trkpt lat="42.472013477236032" lon="13.570896433666348">
        <ele>2891.7800000000002</ele>
        <time>2013-09-10T08:34:57Z</time>
      </trkpt>
      <trkpt lat="42.471995791420341" lon="13.570904647931457">
        <ele>2893.71</ele>
        <time>2013-09-10T08:35:04Z</time>
      </trkpt>
      <trkpt lat="42.471991265192628" lon="13.570893835276365">
        <ele>2895.1500000000001</ele>
        <time>2013-09-10T08:35:06Z</time>
      </trkpt>
      <trkpt lat="42.471994869410992" lon="13.570877155289054">
        <ele>2893.71</ele>
        <time>2013-09-10T08:35:10Z</time>
      </trkpt>
      <trkpt lat="42.471993612125516" lon="13.570881430059671">
        <ele>2894.6700000000001</ele>
        <time>2013-09-10T08:35:12Z</time>
      </trkpt>
      <trkpt lat="42.471990594640374" lon="13.570868102833629">
        <ele>2892.7399999999998</ele>
        <time>2013-09-10T08:35:18Z</time>
      </trkpt>
      <trkpt lat="42.471989085897803" lon="13.570856368169188">
        <ele>2889.3800000000001</ele>
        <time>2013-09-10T08:35:25Z</time>
      </trkpt>
      <trkpt lat="42.471993863582611" lon="13.570862486958504">
        <ele>2892.7399999999998</ele>
        <time>2013-09-10T08:35:34Z</time>
      </trkpt>
      <trkpt lat="42.471992522478104" lon="13.570860726758838">
        <ele>2892.2600000000002</ele>
        <time>2013-09-10T08:35:35Z</time>
      </trkpt>
      <trkpt lat="42.471991684287786" lon="13.570863995701075">
        <ele>2893.23</ele>
        <time>2013-09-10T08:35:39Z</time>
      </trkpt>
      <trkpt lat="42.471996042877436" lon="13.570865085348487">
        <ele>2895.6300000000001</ele>
        <time>2013-09-10T08:35:44Z</time>
      </trkpt>
      <trkpt lat="42.471999814733863" lon="13.570866677910089">
        <ele>2896.5900000000001</ele>
        <time>2013-09-10T08:35:49Z</time>
      </trkpt>
      <trkpt lat="42.4720030836761" lon="13.570867767557502">
        <ele>2894.6700000000001</ele>
        <time>2013-09-10T08:35:54Z</time>
      </trkpt>
      <trkpt lat="42.471995791420341" lon="13.570872293785214">
        <ele>2892.2600000000002</ele>
        <time>2013-09-10T08:35:58Z</time>
      </trkpt>
      <trkpt lat="42.471996210515499" lon="13.57087061740458">
        <ele>2893.71</ele>
        <time>2013-09-10T08:36:00Z</time>
      </trkpt>
      <trkpt lat="42.47197768650949" lon="13.570834826678038">
        <ele>2897.0700000000002</ele>
        <time>2013-09-10T08:36:11Z</time>
      </trkpt>
      <trkpt lat="42.471973160281777" lon="13.570830971002579">
        <ele>2897.0700000000002</ele>
        <time>2013-09-10T08:36:12Z</time>
      </trkpt>
      <trkpt lat="42.47196695767343" lon="13.570834072306752">
        <ele>2898.5100000000002</ele>
        <time>2013-09-10T08:36:14Z</time>
      </trkpt>
      <trkpt lat="42.471931334584951" lon="13.570862570777535">
        <ele>2897.5500000000002</ele>
        <time>2013-09-10T08:36:27Z</time>
      </trkpt>
      <trkpt lat="42.471869895234704" lon="13.570842957124114">
        <ele>2898.5100000000002</ele>
        <time>2013-09-10T08:36:42Z</time>
      </trkpt>
      <trkpt lat="42.471849275752902" lon="13.570814374834299">
        <ele>2899.4699999999998</ele>
        <time>2013-09-10T08:36:57Z</time>
      </trkpt>
      <trkpt lat="42.47182278893888" lon="13.570782607421279">
        <ele>2902.3600000000001</ele>
        <time>2013-09-10T08:37:10Z</time>
      </trkpt>
      <trkpt lat="42.471817759796977" lon="13.570776237174869">
        <ele>2903.8000000000002</ele>
        <time>2013-09-10T08:37:12Z</time>
      </trkpt>
      <trkpt lat="42.471795631572604" lon="13.570725945755839">
        <ele>2906.6799999999998</ele>
        <time>2013-09-10T08:37:23Z</time>
      </trkpt>
      <trkpt lat="42.471774592995644" lon="13.570678504183888">
        <ele>2906.1999999999998</ele>
        <time>2013-09-10T08:37:29Z</time>
      </trkpt>
      <trkpt lat="42.471766546368599" lon="13.570640617981553">
        <ele>2904.2800000000002</ele>
        <time>2013-09-10T08:37:35Z</time>
      </trkpt>
      <trkpt lat="42.471760343760252" lon="13.570627206936479">
        <ele>2906.6799999999998</ele>
        <time>2013-09-10T08:37:37Z</time>
      </trkpt>
      <trkpt lat="42.471740813925862" lon="13.570565348491073">
        <ele>2906.1999999999998</ele>
        <time>2013-09-10T08:37:52Z</time>
      </trkpt>
      <trkpt lat="42.471738383173943" lon="13.570580519735813">
        <ele>2902.8400000000001</ele>
        <time>2013-09-10T08:38:14Z</time>
      </trkpt>
      <trkpt lat="42.471717009320855" lon="13.570604491978884">
        <ele>2904.7600000000002</ele>
        <time>2013-09-10T08:38:27Z</time>
      </trkpt>
      <trkpt lat="42.471700999885798" lon="13.57060968875885">
        <ele>2907.1599999999999</ele>
        <time>2013-09-10T08:38:39Z</time>
      </trkpt>
      <trkpt lat="42.471708040684462" lon="13.57064925134182">
        <ele>2905.7199999999998</ele>
        <time>2013-09-10T08:38:58Z</time>
      </trkpt>
      <trkpt lat="42.471710639074445" lon="13.570645898580551">
        <ele>2906.6799999999998</ele>
        <time>2013-09-10T08:39:03Z</time>
      </trkpt>
      <trkpt lat="42.471731845289469" lon="13.570601474493742">
        <ele>2904.7600000000002</ele>
        <time>2013-09-10T08:39:08Z</time>
      </trkpt>
      <trkpt lat="42.471735281869769" lon="13.570613209158182">
        <ele>2902.8400000000001</ele>
        <time>2013-09-10T08:39:10Z</time>
      </trkpt>
      <trkpt lat="42.471729079261422" lon="13.570624189451337">
        <ele>2904.7600000000002</ele>
        <time>2013-09-10T08:39:12Z</time>
      </trkpt>
      <trkpt lat="42.471723044291139" lon="13.570629553869367">
        <ele>2906.6799999999998</ele>
        <time>2013-09-10T08:39:15Z</time>
      </trkpt>
      <trkpt lat="42.471715835854411" lon="13.570642378181219">
        <ele>2908.6100000000001</ele>
        <time>2013-09-10T08:39:39Z</time>
      </trkpt>
      <trkpt lat="42.471708627417684" lon="13.570647742599249">
        <ele>2907.1599999999999</ele>
        <time>2013-09-10T08:39:42Z</time>
      </trkpt>
      <trkpt lat="42.471715668216348" lon="13.570642545819283">
        <ele>2902.3600000000001</ele>
        <time>2013-09-10T08:39:51Z</time>
      </trkpt>
      <trkpt lat="42.471716171130538" lon="13.570631062611938">
        <ele>2905.7199999999998</ele>
        <time>2013-09-10T08:39:53Z</time>
      </trkpt>
      <trkpt lat="42.471725475043058" lon="13.570599798113108">
        <ele>2906.1999999999998</ele>
        <time>2013-09-10T08:40:09Z</time>
      </trkpt>
      <trkpt lat="42.471724217757583" lon="13.570598121732473">
        <ele>2902.8400000000001</ele>
        <time>2013-09-10T08:40:13Z</time>
      </trkpt>
      <trkpt lat="42.471725642681122" lon="13.570601055398583">
        <ele>2902.3600000000001</ele>
        <time>2013-09-10T08:40:15Z</time>
      </trkpt>
      <trkpt lat="42.471721284091473" lon="13.570594852790236">
        <ele>2906.6799999999998</ele>
        <time>2013-09-10T08:40:19Z</time>
      </trkpt>
      <trkpt lat="42.47172019444406" lon="13.570597283542156">
        <ele>2906.6799999999998</ele>
        <time>2013-09-10T08:40:20Z</time>
      </trkpt>
      <trkpt lat="42.471711225807667" lon="13.570588482543826">
        <ele>2907.1599999999999</ele>
        <time>2013-09-10T08:40:36Z</time>
      </trkpt>
      <trkpt lat="42.471712902188301" lon="13.570587392896414">
        <ele>2907.1599999999999</ele>
        <time>2013-09-10T08:40:37Z</time>
      </trkpt>
      <trkpt lat="42.471727738156915" lon="13.570569958537817">
        <ele>2907.1599999999999</ele>
        <time>2013-09-10T08:41:11Z</time>
      </trkpt>
      <trkpt lat="42.471716003492475" lon="13.570585884153843">
        <ele>2910.5300000000002</ele>
        <time>2013-09-10T08:41:20Z</time>
      </trkpt>
      <trkpt lat="42.471722709015012" lon="13.570601055398583">
        <ele>2907.6500000000001</ele>
        <time>2013-09-10T08:41:27Z</time>
      </trkpt>
      <trkpt lat="42.471723379567266" lon="13.570586973801255">
        <ele>2906.6799999999998</ele>
        <time>2013-09-10T08:41:45Z</time>
      </trkpt>
      <trkpt lat="42.471743244677782" lon="13.570604491978884">
        <ele>2902.3600000000001</ele>
        <time>2013-09-10T08:41:49Z</time>
      </trkpt>
      <trkpt lat="42.471749112010002" lon="13.570590578019619">
        <ele>2907.6500000000001</ele>
        <time>2013-09-10T08:41:51Z</time>
      </trkpt>
      <trkpt lat="42.471761852502823" lon="13.570576496422291">
        <ele>2903.8000000000002</ele>
        <time>2013-09-10T08:41:53Z</time>
      </trkpt>
      <trkpt lat="42.471760762855411" lon="13.570607509464025">
        <ele>2903.3200000000002</ele>
        <time>2013-09-10T08:42:00Z</time>
      </trkpt>
      <trkpt lat="42.471764702349901" lon="13.570634415373206">
        <ele>2903.8000000000002</ele>
        <time>2013-09-10T08:42:14Z</time>
      </trkpt>
      <trkpt lat="42.47175045311451" lon="13.570597534999251">
        <ele>2903.8000000000002</ele>
        <time>2013-09-10T08:42:31Z</time>
      </trkpt>
      <trkpt lat="42.471717763692141" lon="13.570615639910102">
        <ele>2906.1999999999998</ele>
        <time>2013-09-10T08:42:44Z</time>
      </trkpt>
      <trkpt lat="42.471724888309836" lon="13.570620501413941">
        <ele>2905.2399999999998</ele>
        <time>2013-09-10T08:42:51Z</time>
      </trkpt>
      <trkpt lat="42.47173679061234" lon="13.57059451751411">
        <ele>2900.9200000000001</ele>
        <time>2013-09-10T08:42:59Z</time>
      </trkpt>
      <trkpt lat="42.471742574125528" lon="13.570587811991572">
        <ele>2902.8400000000001</ele>
        <time>2013-09-10T08:43:00Z</time>
      </trkpt>
      <trkpt lat="42.471759337931871" lon="13.570590494200587">
        <ele>2898.9899999999998</ele>
        <time>2013-09-10T08:43:02Z</time>
      </trkpt>
      <trkpt lat="42.471767719835043" lon="13.570610024034977">
        <ele>2905.2399999999998</ele>
        <time>2013-09-10T08:43:04Z</time>
      </trkpt>
      <trkpt lat="42.471765959635377" lon="13.570615807548165">
        <ele>2905.2399999999998</ele>
        <time>2013-09-10T08:43:05Z</time>
      </trkpt>
      <trkpt lat="42.471760427579284" lon="13.570633074268699">
        <ele>2904.7600000000002</ele>
        <time>2013-09-10T08:43:26Z</time>
      </trkpt>
      <trkpt lat="42.471759421750903" lon="13.570651346817613">
        <ele>2903.3200000000002</ele>
        <time>2013-09-10T08:43:31Z</time>
      </trkpt>
      <trkpt lat="42.471749614924192" lon="13.570715300738811">
        <ele>2904.7600000000002</ele>
        <time>2013-09-10T08:43:37Z</time>
      </trkpt>
      <trkpt lat="42.471766797825694" lon="13.570738770067692">
        <ele>2899.9499999999998</ele>
        <time>2013-09-10T08:43:43Z</time>
      </trkpt>
      <trkpt lat="42.471773754805326" lon="13.570728795602918">
        <ele>2900.9200000000001</ele>
        <time>2013-09-10T08:43:44Z</time>
      </trkpt>
      <trkpt lat="42.471811305731535" lon="13.570734830573201">
        <ele>2901.4000000000001</ele>
        <time>2013-09-10T08:43:57Z</time>
      </trkpt>
      <trkpt lat="42.471838798373938" lon="13.570764251053333">
        <ele>2901.4000000000001</ele>
        <time>2013-09-10T08:44:15Z</time>
      </trkpt>
      <trkpt lat="42.471858244389296" lon="13.570793503895402">
        <ele>2898.0300000000002</ele>
        <time>2013-09-10T08:44:21Z</time>
      </trkpt>
      <trkpt lat="42.471892107278109" lon="13.57083004899323">
        <ele>2897.5500000000002</ele>
        <time>2013-09-10T08:44:34Z</time>
      </trkpt>
      <trkpt lat="42.471919013187289" lon="13.570848572999239">
        <ele>2894.1900000000001</ele>
        <time>2013-09-10T08:44:42Z</time>
      </trkpt>
      <trkpt lat="42.471921946853399" lon="13.570853685960174">
        <ele>2896.1100000000001</ele>
        <time>2013-09-10T08:44:45Z</time>
      </trkpt>
      <trkpt lat="42.471943320706487" lon="13.570862570777535">
        <ele>2895.6300000000001</ele>
        <time>2013-09-10T08:44:49Z</time>
      </trkpt>
      <trkpt lat="42.471956228837371" lon="13.570873215794563">
        <ele>2893.23</ele>
        <time>2013-09-10T08:44:53Z</time>
      </trkpt>
      <trkpt lat="42.471980703994632" lon="13.570827199146152">
        <ele>2891.7800000000002</ele>
        <time>2013-09-10T08:45:04Z</time>
      </trkpt>
      <trkpt lat="42.471994701772928" lon="13.57085544615984">
        <ele>2894.1900000000001</ele>
        <time>2013-09-10T08:45:07Z</time>
      </trkpt>
      <trkpt lat="42.472015572711825" lon="13.570901965722442">
        <ele>2892.7399999999998</ele>
        <time>2013-09-10T08:45:21Z</time>
      </trkpt>
      <trkpt lat="42.472050357609987" lon="13.570902300998569">
        <ele>2888.9000000000001</ele>
        <time>2013-09-10T08:45:30Z</time>
      </trkpt>
      <trkpt lat="42.472053794190288" lon="13.570902636274695">
        <ele>2888.9000000000001</ele>
        <time>2013-09-10T08:45:31Z</time>
      </trkpt>
      <trkpt lat="42.472063852474093" lon="13.570915209129453">
        <ele>2890.3400000000001</ele>
        <time>2013-09-10T08:45:33Z</time>
      </trkpt>
      <trkpt lat="42.472076760604978" lon="13.5709282848984">
        <ele>2886.02</ele>
        <time>2013-09-10T08:45:38Z</time>
      </trkpt>
      <trkpt lat="42.472089165821671" lon="13.570908671244979">
        <ele>2890.3400000000001</ele>
        <time>2013-09-10T08:45:47Z</time>
      </trkpt>
      <trkpt lat="42.472088830545545" lon="13.570907078683376">
        <ele>2889.8600000000001</ele>
        <time>2013-09-10T08:45:48Z</time>
      </trkpt>
      <trkpt lat="42.472120430320501" lon="13.570934487506747">
        <ele>2886.5</ele>
        <time>2013-09-10T08:45:55Z</time>
      </trkpt>
      <trkpt lat="42.472133338451385" lon="13.570962399244308">
        <ele>2887.46</ele>
        <time>2013-09-10T08:45:59Z</time>
      </trkpt>
      <trkpt lat="42.472139373421669" lon="13.570964578539133">
        <ele>2883.6100000000001</ele>
        <time>2013-09-10T08:46:03Z</time>
      </trkpt>
      <trkpt lat="42.472135182470083" lon="13.570965752005577">
        <ele>2886.98</ele>
        <time>2013-09-10T08:46:05Z</time>
      </trkpt>
      <trkpt lat="42.472131745889783" lon="13.570960974320769">
        <ele>2886.98</ele>
        <time>2013-09-10T08:46:06Z</time>
      </trkpt>
      <trkpt lat="42.472125794738531" lon="13.570960471406579">
        <ele>2885.0500000000002</ele>
        <time>2013-09-10T08:46:20Z</time>
      </trkpt>
      <trkpt lat="42.472140546888113" lon="13.57093021273613">
        <ele>2884.5700000000002</ele>
        <time>2013-09-10T08:46:32Z</time>
      </trkpt>
      <trkpt lat="42.472155885770917" lon="13.570903055369854">
        <ele>2884.0900000000001</ele>
        <time>2013-09-10T08:46:45Z</time>
      </trkpt>
      <trkpt lat="42.472180696204305" lon="13.570869360119104">
        <ele>2882.6500000000001</ele>
        <time>2013-09-10T08:46:57Z</time>
      </trkpt>
      <trkpt lat="42.47220198623836" lon="13.570876400917768">
        <ele>2879.77</ele>
        <time>2013-09-10T08:47:11Z</time>
      </trkpt>
      <trkpt lat="42.472201650962234" lon="13.570877239108086">
        <ele>2880.25</ele>
        <time>2013-09-10T08:47:12Z</time>
      </trkpt>
      <trkpt lat="42.47221908532083" lon="13.570863241329789">
        <ele>2876.8800000000001</ele>
        <time>2013-09-10T08:47:23Z</time>
      </trkpt>
      <trkpt lat="42.472238950431347" lon="13.5707987844944">
        <ele>2877.3600000000001</ele>
        <time>2013-09-10T08:47:36Z</time>
      </trkpt>
      <trkpt lat="42.472265940159559" lon="13.570827702060342">
        <ele>2877.3600000000001</ele>
        <time>2013-09-10T08:47:48Z</time>
      </trkpt>
      <trkpt lat="42.472275914624333" lon="13.570791827514768">
        <ele>2877.8400000000001</ele>
        <time>2013-09-10T08:47:56Z</time>
      </trkpt>
      <trkpt lat="42.472266275435686" lon="13.570790402591228">
        <ele>2875.9200000000001</ele>
        <time>2013-09-10T08:48:04Z</time>
      </trkpt>
      <trkpt lat="42.472277004271746" lon="13.57076802290976">
        <ele>2874</ele>
        <time>2013-09-10T08:48:24Z</time>
      </trkpt>
      <trkpt lat="42.472273567691445" lon="13.570780763402581">
        <ele>2875.4400000000001</ele>
        <time>2013-09-10T08:48:39Z</time>
      </trkpt>
      <trkpt lat="42.472274238243699" lon="13.57078361324966">
        <ele>2873.52</ele>
        <time>2013-09-10T08:48:44Z</time>
      </trkpt>
      <trkpt lat="42.472275160253048" lon="13.570788307115436">
        <ele>2874.96</ele>
        <time>2013-09-10T08:49:08Z</time>
      </trkpt>
      <trkpt lat="42.472269544377923" lon="13.570785792544484">
        <ele>2876.8800000000001</ele>
        <time>2013-09-10T08:49:13Z</time>
      </trkpt>
      <trkpt lat="42.472273902967572" lon="13.570790234953165">
        <ele>2874</ele>
        <time>2013-09-10T08:49:23Z</time>
      </trkpt>
      <trkpt lat="42.472290582954884" lon="13.570719575509429">
        <ele>2872.5599999999999</ele>
        <time>2013-09-10T08:49:35Z</time>
      </trkpt>
      <trkpt lat="42.472306592389941" lon="13.570731645449996">
        <ele>2866.3099999999999</ele>
        <time>2013-09-10T08:49:38Z</time>
      </trkpt>
      <trkpt lat="42.472310699522495" lon="13.570742374286056">
        <ele>2871.1100000000001</ele>
        <time>2013-09-10T08:49:39Z</time>
      </trkpt>
      <trkpt lat="42.472325535491109" lon="13.570734076201916">
        <ele>2870.6300000000001</ele>
        <time>2013-09-10T08:49:46Z</time>
      </trkpt>
      <trkpt lat="42.472325284034014" lon="13.570708679035306">
        <ele>2870.1500000000001</ele>
        <time>2013-09-10T08:49:50Z</time>
      </trkpt>
      <trkpt lat="42.472323440015316" lon="13.570662662386894">
        <ele>2868.23</ele>
        <time>2013-09-10T08:49:56Z</time>
      </trkpt>
      <trkpt lat="42.472326876595616" lon="13.570647491142154">
        <ele>2870.1500000000001</ele>
        <time>2013-09-10T08:49:58Z</time>
      </trkpt>
      <trkpt lat="42.472346071153879" lon="13.570568198338151">
        <ele>2866.79</ele>
        <time>2013-09-10T08:50:10Z</time>
      </trkpt>
      <trkpt lat="42.472347747534513" lon="13.570560738444328">
        <ele>2867.27</ele>
        <time>2013-09-10T08:50:11Z</time>
      </trkpt>
      <trkpt lat="42.472369121387601" lon="13.570485720410943">
        <ele>2867.75</ele>
        <time>2013-09-10T08:50:23Z</time>
      </trkpt>
      <trkpt lat="42.472372725605965" lon="13.570474740117788">
        <ele>2866.3099999999999</ele>
        <time>2013-09-10T08:50:26Z</time>
      </trkpt>
      <trkpt lat="42.472378509119153" lon="13.570460742339492">
        <ele>2863.4200000000001</ele>
        <time>2013-09-10T08:50:31Z</time>
      </trkpt>
      <trkpt lat="42.472372641786933" lon="13.570440374314785">
        <ele>2864.3899999999999</ele>
        <time>2013-09-10T08:50:37Z</time>
      </trkpt>
      <trkpt lat="42.472375575453043" lon="13.570419922471046">
        <ele>2864.3899999999999</ele>
        <time>2013-09-10T08:50:51Z</time>
      </trkpt>
      <trkpt lat="42.472378592938185" lon="13.570393854752183">
        <ele>2860.0599999999999</ele>
        <time>2013-09-10T08:50:55Z</time>
      </trkpt>
      <trkpt lat="42.472384795546532" lon="13.570389831438661">
        <ele>2858.6199999999999</ele>
        <time>2013-09-10T08:50:57Z</time>
      </trkpt>
      <trkpt lat="42.472397536039352" lon="13.570387819781899">
        <ele>2861.98</ele>
        <time>2013-09-10T08:51:00Z</time>
      </trkpt>
      <trkpt lat="42.472409438341856" lon="13.570381868630648">
        <ele>2858.6199999999999</ele>
        <time>2013-09-10T08:51:02Z</time>
      </trkpt>
      <trkpt lat="42.472443720325828" lon="13.570365440100431">
        <ele>2854.29</ele>
        <time>2013-09-10T08:51:09Z</time>
      </trkpt>
      <trkpt lat="42.472447073087096" lon="13.570360159501433">
        <ele>2854.29</ele>
        <time>2013-09-10T08:51:10Z</time>
      </trkpt>
      <trkpt lat="42.472450928762555" lon="13.570350520312786">
        <ele>2851.8899999999999</ele>
        <time>2013-09-10T08:51:12Z</time>
      </trkpt>
      <trkpt lat="42.472461154684424" lon="13.570328895002604">
        <ele>2856.6900000000001</ele>
        <time>2013-09-10T08:51:17Z</time>
      </trkpt>
      <trkpt lat="42.472462495788932" lon="13.570339037105441">
        <ele>2856.6900000000001</ele>
        <time>2013-09-10T08:51:18Z</time>
      </trkpt>
      <trkpt lat="42.472459729760885" lon="13.570326380431652">
        <ele>2855.73</ele>
        <time>2013-09-10T08:51:31Z</time>
      </trkpt>
      <trkpt lat="42.472458388656378" lon="13.570323111489415">
        <ele>2854.77</ele>
        <time>2013-09-10T08:51:33Z</time>
      </trkpt>
      <trkpt lat="42.472457466647029" lon="13.570321183651686">
        <ele>2856.6900000000001</ele>
        <time>2013-09-10T08:51:36Z</time>
      </trkpt>
      <trkpt lat="42.472458807751536" lon="13.570309951901436">
        <ele>2858.1399999999999</ele>
        <time>2013-09-10T08:51:47Z</time>
      </trkpt>
      <trkpt lat="42.472450761124492" lon="13.570324033498764">
        <ele>2857.1799999999998</ele>
        <time>2013-09-10T08:51:57Z</time>
      </trkpt>
      <trkpt lat="42.472449000924826" lon="13.570315316319466">
        <ele>2857.6599999999999</ele>
        <time>2013-09-10T08:52:09Z</time>
      </trkpt>
      <trkpt lat="42.472451850771904" lon="13.570307772606611">
        <ele>2856.21</ele>
        <time>2013-09-10T08:52:11Z</time>
      </trkpt>
      <trkpt lat="42.472473476082087" lon="13.570307940244675">
        <ele>2856.6900000000001</ele>
        <time>2013-09-10T08:52:28Z</time>
      </trkpt>
      <trkpt lat="42.472477415576577" lon="13.570325709879398">
        <ele>2854.77</ele>
        <time>2013-09-10T08:52:45Z</time>
      </trkpt>
      <trkpt lat="42.472483869642019" lon="13.570305844768882">
        <ele>2852.8499999999999</ele>
        <time>2013-09-10T08:53:02Z</time>
      </trkpt>
      <trkpt lat="42.472483869642019" lon="13.570304252207279">
        <ele>2853.3299999999999</ele>
        <time>2013-09-10T08:53:16Z</time>
      </trkpt>
      <trkpt lat="42.472475739195943" lon="13.570323279127479">
        <ele>2854.77</ele>
        <time>2013-09-10T08:53:28Z</time>
      </trkpt>
      <trkpt lat="42.472501555457711" lon="13.570286901667714">
        <ele>2852.3699999999999</ele>
        <time>2013-09-10T08:53:39Z</time>
      </trkpt>
      <trkpt lat="42.47249954380095" lon="13.570281788706779">
        <ele>2851.8899999999999</ele>
        <time>2013-09-10T08:53:56Z</time>
      </trkpt>
      <trkpt lat="42.472505327314138" lon="13.57027692720294">
        <ele>2854.29</ele>
        <time>2013-09-10T08:54:04Z</time>
      </trkpt>
      <trkpt lat="42.472518738359213" lon="13.570271395146847">
        <ele>2852.3699999999999</ele>
        <time>2013-09-10T08:54:09Z</time>
      </trkpt>
      <trkpt lat="42.472528712823987" lon="13.570299642160535">
        <ele>2851.8899999999999</ele>
        <time>2013-09-10T08:54:22Z</time>
      </trkpt>
      <trkpt lat="42.472521336749196" lon="13.570292768999934">
        <ele>2851.8899999999999</ele>
        <time>2013-09-10T08:54:44Z</time>
      </trkpt>
      <trkpt lat="42.472573053091764" lon="13.570241974666715">
        <ele>2849.48</ele>
        <time>2013-09-10T08:54:59Z</time>
      </trkpt>
      <trkpt lat="42.472582692280412" lon="13.570243986323476">
        <ele>2848.52</ele>
        <time>2013-09-10T08:55:01Z</time>
      </trkpt>
      <trkpt lat="42.472584117203951" lon="13.570250356569886">
        <ele>2847.0799999999999</ele>
        <time>2013-09-10T08:55:04Z</time>
      </trkpt>
      <trkpt lat="42.472605742514133" lon="13.57024909928441">
        <ele>2845.6399999999999</ele>
        <time>2013-09-10T08:55:16Z</time>
      </trkpt>
      <trkpt lat="42.472620913758874" lon="13.570261336863041">
        <ele>2844.1999999999998</ele>
        <time>2013-09-10T08:55:26Z</time>
      </trkpt>
      <trkpt lat="42.472630050033331" lon="13.570200568065047">
        <ele>2844.1999999999998</ele>
        <time>2013-09-10T08:55:40Z</time>
      </trkpt>
      <trkpt lat="42.472634324803948" lon="13.570193275809288">
        <ele>2842.7600000000002</ele>
        <time>2013-09-10T08:55:42Z</time>
      </trkpt>
      <trkpt lat="42.472674557939172" lon="13.570149438455701">
        <ele>2843.7199999999998</ele>
        <time>2013-09-10T08:55:55Z</time>
      </trkpt>
      <trkpt lat="42.472691657021642" lon="13.570085735991597">
        <ele>2844.1999999999998</ele>
        <time>2013-09-10T08:56:08Z</time>
      </trkpt>
      <trkpt lat="42.472697189077735" lon="13.57007659971714">
        <ele>2839.8699999999999</ele>
        <time>2013-09-10T08:56:12Z</time>
      </trkpt>
      <trkpt lat="42.472694171592593" lon="13.570077605545521">
        <ele>2840.8299999999999</ele>
        <time>2013-09-10T08:56:13Z</time>
      </trkpt>
      <trkpt lat="42.472710935398936" lon="13.570094285532832">
        <ele>2839.3899999999999</ele>
        <time>2013-09-10T08:56:18Z</time>
      </trkpt>
      <trkpt lat="42.472740607336164" lon="13.570082215592265">
        <ele>2837.4699999999998</ele>
        <time>2013-09-10T08:56:30Z</time>
      </trkpt>
      <trkpt lat="42.472773212939501" lon="13.5700614284724">
        <ele>2836.5100000000002</ele>
        <time>2013-09-10T08:56:42Z</time>
      </trkpt>
      <trkpt lat="42.472775559872389" lon="13.570055142045021">
        <ele>2836.9899999999998</ele>
        <time>2013-09-10T08:56:51Z</time>
      </trkpt>
      <trkpt lat="42.472757874056697" lon="13.570062518119812">
        <ele>2834.5799999999999</ele>
        <time>2013-09-10T08:57:05Z</time>
      </trkpt>
      <trkpt lat="42.472770949825644" lon="13.570040306076407">
        <ele>2836.0300000000002</ele>
        <time>2013-09-10T08:57:20Z</time>
      </trkpt>
      <trkpt lat="42.472770111635327" lon="13.570049358531833">
        <ele>2832.6599999999999</ele>
        <time>2013-09-10T08:57:24Z</time>
      </trkpt>
      <trkpt lat="42.472769441083074" lon="13.57005069963634">
        <ele>2833.6199999999999</ele>
        <time>2013-09-10T08:57:25Z</time>
      </trkpt>
      <trkpt lat="42.472771620377898" lon="13.57005262747407">
        <ele>2837.4699999999998</ele>
        <time>2013-09-10T08:57:28Z</time>
      </trkpt>
      <trkpt lat="42.472766926512122" lon="13.570054890587926">
        <ele>2837.9499999999998</ele>
        <time>2013-09-10T08:57:33Z</time>
      </trkpt>
      <trkpt lat="42.47277514077723" lon="13.570050531998277">
        <ele>2834.0999999999999</ele>
        <time>2013-09-10T08:57:37Z</time>
      </trkpt>
      <trkpt lat="42.472778158262372" lon="13.570054387673736">
        <ele>2834.0999999999999</ele>
        <time>2013-09-10T08:57:38Z</time>
      </trkpt>
      <trkpt lat="42.472778577357531" lon="13.570050783455372">
        <ele>2836.5100000000002</ele>
        <time>2013-09-10T08:57:43Z</time>
      </trkpt>
      <trkpt lat="42.472793329507113" lon="13.570039216428995">
        <ele>2835.5500000000002</ele>
        <time>2013-09-10T08:57:56Z</time>
      </trkpt>
      <trkpt lat="42.472795927897096" lon="13.57002823613584">
        <ele>2836.5100000000002</ele>
        <time>2013-09-10T08:58:01Z</time>
      </trkpt>
      <trkpt lat="42.472792072221637" lon="13.570012059062719">
        <ele>2834.0999999999999</ele>
        <time>2013-09-10T08:58:04Z</time>
      </trkpt>
      <trkpt lat="42.472786456346512" lon="13.569986410439014">
        <ele>2830.2600000000002</ele>
        <time>2013-09-10T08:58:09Z</time>
      </trkpt>
      <trkpt lat="42.472782600671053" lon="13.569979956373572">
        <ele>2828.3400000000001</ele>
        <time>2013-09-10T08:58:11Z</time>
      </trkpt>
      <trkpt lat="42.472797017544508" lon="13.569960426539183">
        <ele>2824.9699999999998</ele>
        <time>2013-09-10T08:58:21Z</time>
      </trkpt>
      <trkpt lat="42.472807746380568" lon="13.569962689653039">
        <ele>2829.7800000000002</ele>
        <time>2013-09-10T08:58:25Z</time>
      </trkpt>
      <trkpt lat="42.472801711410284" lon="13.569963276386261">
        <ele>2826.4099999999999</ele>
        <time>2013-09-10T08:58:28Z</time>
      </trkpt>
      <trkpt lat="42.472815709188581" lon="13.569942824542522">
        <ele>2827.3699999999999</ele>
        <time>2013-09-10T08:58:38Z</time>
      </trkpt>
      <trkpt lat="42.472841860726476" lon="13.569945506751537">
        <ele>2823.0500000000002</ele>
        <time>2013-09-10T08:58:46Z</time>
      </trkpt>
      <trkpt lat="42.472843956202269" lon="13.569944752380252">
        <ele>2821.1300000000001</ele>
        <time>2013-09-10T08:58:48Z</time>
      </trkpt>
      <trkpt lat="42.472853511571884" lon="13.569945339113474">
        <ele>2824.4899999999998</ele>
        <time>2013-09-10T08:58:52Z</time>
      </trkpt>
      <trkpt lat="42.472855439409614" lon="13.56994366273284">
        <ele>2821.1300000000001</ele>
        <time>2013-09-10T08:58:53Z</time>
      </trkpt>
      <trkpt lat="42.472850158810616" lon="13.56993930414319">
        <ele>2824.4899999999998</ele>
        <time>2013-09-10T08:58:55Z</time>
      </trkpt>
      <trkpt lat="42.472839262336493" lon="13.569927820935845">
        <ele>2826.8899999999999</ele>
        <time>2013-09-10T08:58:58Z</time>
      </trkpt>
      <trkpt lat="42.472842950373888" lon="13.569904435425997">
        <ele>2822.5700000000002</ele>
        <time>2013-09-10T08:59:04Z</time>
      </trkpt>
      <trkpt lat="42.472859881818295" lon="13.569908626377583">
        <ele>2822.5700000000002</ele>
        <time>2013-09-10T08:59:12Z</time>
      </trkpt>
      <trkpt lat="42.472874131053686" lon="13.5698904376477">
        <ele>2818.7199999999998</ele>
        <time>2013-09-10T08:59:18Z</time>
      </trkpt>
      <trkpt lat="42.472864240407944" lon="13.569880379363894">
        <ele>2819.1999999999998</ele>
        <time>2013-09-10T08:59:22Z</time>
      </trkpt>
      <trkpt lat="42.472860384732485" lon="13.569871494546533">
        <ele>2820.6500000000001</ele>
        <time>2013-09-10T08:59:25Z</time>
      </trkpt>
      <trkpt lat="42.472872706130147" lon="13.569856490939856">
        <ele>2816.8000000000002</ele>
        <time>2013-09-10T08:59:30Z</time>
      </trkpt>
      <trkpt lat="42.472878657281399" lon="13.569863364100456">
        <ele>2819.6799999999998</ele>
        <time>2013-09-10T08:59:31Z</time>
      </trkpt>
      <trkpt lat="42.472897516563535" lon="13.569865543395281">
        <ele>2814.8800000000001</ele>
        <time>2013-09-10T08:59:36Z</time>
      </trkpt>
      <trkpt lat="42.472897516563535" lon="13.569859089329839">
        <ele>2814.8800000000001</ele>
        <time>2013-09-10T08:59:37Z</time>
      </trkpt>
      <trkpt lat="42.472908664494753" lon="13.56983226723969">
        <ele>2818.2399999999998</ele>
        <time>2013-09-10T08:59:44Z</time>
      </trkpt>
      <trkpt lat="42.472903383895755" lon="13.56982639990747">
        <ele>2815.8400000000001</ele>
        <time>2013-09-10T08:59:48Z</time>
      </trkpt>
      <trkpt lat="42.472883015871048" lon="13.569842409342527">
        <ele>2818.7199999999998</ele>
        <time>2013-09-10T08:59:53Z</time>
      </trkpt>
      <trkpt lat="42.472898187115788" lon="13.569842493161559">
        <ele>2817.2800000000002</ele>
        <time>2013-09-10T08:59:56Z</time>
      </trkpt>
      <trkpt lat="42.472916459664702" lon="13.569848025217652">
        <ele>2819.1999999999998</ele>
        <time>2013-09-10T09:00:02Z</time>
      </trkpt>
      <trkpt lat="42.472920147702098" lon="13.569836374372244">
        <ele>2813.4400000000001</ele>
        <time>2013-09-10T09:00:07Z</time>
      </trkpt>
      <trkpt lat="42.4729217402637" lon="13.569824807345867">
        <ele>2817.2800000000002</ele>
        <time>2013-09-10T09:00:09Z</time>
      </trkpt>
      <trkpt lat="42.472929200157523" lon="13.569826232269406">
        <ele>2813.9200000000001</ele>
        <time>2013-09-10T09:00:13Z</time>
      </trkpt>
      <trkpt lat="42.47291780076921" lon="13.569816257804632">
        <ele>2817.2800000000002</ele>
        <time>2013-09-10T09:00:19Z</time>
      </trkpt>
      <trkpt lat="42.472908245399594" lon="13.569808378815651">
        <ele>2818.2399999999998</ele>
        <time>2013-09-10T09:00:21Z</time>
      </trkpt>
      <trkpt lat="42.47291293926537" lon="13.569817179813981">
        <ele>2814.8800000000001</ele>
        <time>2013-09-10T09:00:25Z</time>
      </trkpt>
      <trkpt lat="42.472938420251012" lon="13.569809384644032">
        <ele>2815.8400000000001</ele>
        <time>2013-09-10T09:00:39Z</time>
      </trkpt>
      <trkpt lat="42.472935486584902" lon="13.569794548675418">
        <ele>2813.4400000000001</ele>
        <time>2013-09-10T09:00:49Z</time>
      </trkpt>
      <trkpt lat="42.47295199893415" lon="13.569768900051713">
        <ele>2812.96</ele>
        <time>2013-09-10T09:00:59Z</time>
      </trkpt>
      <trkpt lat="42.472927356138825" lon="13.569737803190947">
        <ele>2809.1100000000001</ele>
        <time>2013-09-10T09:01:08Z</time>
      </trkpt>
      <trkpt lat="42.472925428301096" lon="13.569732271134853">
        <ele>2809.5900000000001</ele>
        <time>2013-09-10T09:01:09Z</time>
      </trkpt>
      <trkpt lat="42.472936576232314" lon="13.569715842604637">
        <ele>2807.6700000000001</ele>
        <time>2013-09-10T09:01:21Z</time>
      </trkpt>
      <trkpt lat="42.472940515726805" lon="13.569729756563902">
        <ele>2809.5900000000001</ele>
        <time>2013-09-10T09:01:34Z</time>
      </trkpt>
      <trkpt lat="42.472945293411613" lon="13.569727744907141">
        <ele>2808.1500000000001</ele>
        <time>2013-09-10T09:01:43Z</time>
      </trkpt>
      <trkpt lat="42.472941521555185" lon="13.569706957787275">
        <ele>2807.6700000000001</ele>
        <time>2013-09-10T09:01:55Z</time>
      </trkpt>
      <trkpt lat="42.472959710285068" lon="13.56974727474153">
        <ele>2810.0700000000002</ele>
        <time>2013-09-10T09:02:09Z</time>
      </trkpt>
      <trkpt lat="42.472980245947838" lon="13.569751214236021">
        <ele>2812.4699999999998</ele>
        <time>2013-09-10T09:02:25Z</time>
      </trkpt>
      <trkpt lat="42.472980162128806" lon="13.569745514541864">
        <ele>2811.0300000000002</ele>
        <time>2013-09-10T09:02:28Z</time>
      </trkpt>
      <trkpt lat="42.472952920943499" lon="13.569751884788275">
        <ele>2811.9899999999998</ele>
        <time>2013-09-10T09:02:56Z</time>
      </trkpt>
      <trkpt lat="42.472954681143165" lon="13.569729588925838">
        <ele>2811.0300000000002</ele>
        <time>2013-09-10T09:03:09Z</time>
      </trkpt>
      <trkpt lat="42.472965326160192" lon="13.569741658866405">
        <ele>2812.4699999999998</ele>
        <time>2013-09-10T09:03:29Z</time>
      </trkpt>
      <trkpt lat="42.472980162128806" lon="13.569740150123835">
        <ele>2812.4699999999998</ele>
        <time>2013-09-10T09:03:44Z</time>
      </trkpt>
      <trkpt lat="42.472971109673381" lon="13.569730846211314">
        <ele>2812.4699999999998</ele>
        <time>2013-09-10T09:03:50Z</time>
      </trkpt>
      <trkpt lat="42.472972702234983" lon="13.569731265306473">
        <ele>2811.5100000000002</ele>
        <time>2013-09-10T09:03:57Z</time>
      </trkpt>
      <trkpt lat="42.472969433292747" lon="13.569726403802633">
        <ele>2810.0700000000002</ele>
        <time>2013-09-10T09:03:59Z</time>
      </trkpt>
      <trkpt lat="42.472964571788907" lon="13.56971156783402">
        <ele>2807.1900000000001</ele>
        <time>2013-09-10T09:04:10Z</time>
      </trkpt>
      <trkpt lat="42.472970942035317" lon="13.569711986929178">
        <ele>2808.6300000000001</ele>
        <time>2013-09-10T09:04:16Z</time>
      </trkpt>
      <trkpt lat="42.472977312281728" lon="13.56969547457993">
        <ele>2809.5900000000001</ele>
        <time>2013-09-10T09:04:33Z</time>
      </trkpt>
      <trkpt lat="42.472969768568873" lon="13.569714836776257">
        <ele>2809.1100000000001</ele>
        <time>2013-09-10T09:04:43Z</time>
      </trkpt>
      <trkpt lat="42.472954429686069" lon="13.569716261699796">
        <ele>2811.0300000000002</ele>
        <time>2013-09-10T09:04:47Z</time>
      </trkpt>
      <trkpt lat="42.472966751083732" lon="13.569747107103467">
        <ele>2808.6300000000001</ele>
        <time>2013-09-10T09:04:58Z</time>
      </trkpt>
      <trkpt lat="42.472975384443998" lon="13.569768900051713">
        <ele>2808.6300000000001</ele>
        <time>2013-09-10T09:05:24Z</time>
      </trkpt>
      <trkpt lat="42.472933391109109" lon="13.569739144295454">
        <ele>2808.1500000000001</ele>
        <time>2013-09-10T09:05:32Z</time>
      </trkpt>
      <trkpt lat="42.472896259278059" lon="13.569721877574921">
        <ele>2811.5100000000002</ele>
        <time>2013-09-10T09:05:38Z</time>
      </trkpt>
      <trkpt lat="42.472905479371548" lon="13.569733193144202">
        <ele>2807.6700000000001</ele>
        <time>2013-09-10T09:05:42Z</time>
      </trkpt>
      <trkpt lat="42.47290363535285" lon="13.569732187315822">
        <ele>2807.6700000000001</ele>
        <time>2013-09-10T09:05:43Z</time>
      </trkpt>
      <trkpt lat="42.472911011427641" lon="13.569713076576591">
        <ele>2804.7800000000002</ele>
        <time>2013-09-10T09:05:51Z</time>
      </trkpt>
      <trkpt lat="42.472908329218626" lon="13.569709472358227">
        <ele>2806.71</ele>
        <time>2013-09-10T09:06:01Z</time>
      </trkpt>
      <trkpt lat="42.472910759970546" lon="13.569704610854387">
        <ele>2805.75</ele>
        <time>2013-09-10T09:06:17Z</time>
      </trkpt>
      <trkpt lat="42.472899695858359" lon="13.569706287235022">
        <ele>2804.3000000000002</ele>
        <time>2013-09-10T09:06:34Z</time>
      </trkpt>
      <trkpt lat="42.472898354753852" lon="13.569625150412321">
        <ele>2801.4200000000001</ele>
        <time>2013-09-10T09:06:49Z</time>
      </trkpt>
      <trkpt lat="42.472900534048676" lon="13.569584917277098">
        <ele>2801.4200000000001</ele>
        <time>2013-09-10T09:07:02Z</time>
      </trkpt>
      <trkpt lat="42.472914783284068" lon="13.569556921720505">
        <ele>2798.0500000000002</ele>
        <time>2013-09-10T09:07:10Z</time>
      </trkpt>
      <trkpt lat="42.472916375845671" lon="13.569554323330522">
        <ele>2798.0500000000002</ele>
        <time>2013-09-10T09:07:11Z</time>
      </trkpt>
      <trkpt lat="42.472908832132816" lon="13.569601848721504">
        <ele>2796.6100000000001</ele>
        <time>2013-09-10T09:07:23Z</time>
      </trkpt>
      <trkpt lat="42.472930960357189" lon="13.569561950862408">
        <ele>2797.0900000000001</ele>
        <time>2013-09-10T09:07:37Z</time>
      </trkpt>
      <trkpt lat="42.472933307290077" lon="13.56948240660131">
        <ele>2794.21</ele>
        <time>2013-09-10T09:07:49Z</time>
      </trkpt>
      <trkpt lat="42.472890224307775" lon="13.569492548704147">
        <ele>2791.3299999999999</ele>
        <time>2013-09-10T09:08:01Z</time>
      </trkpt>
      <trkpt lat="42.472867425531149" lon="13.569512581452727">
        <ele>2789.8800000000001</ele>
        <time>2013-09-10T09:08:14Z</time>
      </trkpt>
      <trkpt lat="42.472836999222636" lon="13.56944527477026">
        <ele>2791.3299999999999</ele>
        <time>2013-09-10T09:08:31Z</time>
      </trkpt>
      <trkpt lat="42.472863905131817" lon="13.56946237385273">
        <ele>2787.96</ele>
        <time>2013-09-10T09:08:47Z</time>
      </trkpt>
      <trkpt lat="42.47288309969008" lon="13.569448292255402">
        <ele>2789.4000000000001</ele>
        <time>2013-09-10T09:09:05Z</time>
      </trkpt>
      <trkpt lat="42.472869185730815" lon="13.569464720785618">
        <ele>2789.8800000000001</ele>
        <time>2013-09-10T09:09:27Z</time>
      </trkpt>
      <trkpt lat="42.472859211266041" lon="13.569504031911492">
        <ele>2790.3600000000001</ele>
        <time>2013-09-10T09:09:53Z</time>
      </trkpt>
      <trkpt lat="42.472863402217627" lon="13.569501517340541">
        <ele>2790.3600000000001</ele>
        <time>2013-09-10T09:09:54Z</time>
      </trkpt>
      <trkpt lat="42.472884356975555" lon="13.569464134052396">
        <ele>2791.8099999999999</ele>
        <time>2013-09-10T09:10:00Z</time>
      </trkpt>
      <trkpt lat="42.47285183519125" lon="13.569464469328523">
        <ele>2791.3299999999999</ele>
        <time>2013-09-10T09:10:19Z</time>
      </trkpt>
      <trkpt lat="42.472877651453018" lon="13.569455416873097">
        <ele>2792.29</ele>
        <time>2013-09-10T09:10:47Z</time>
      </trkpt>
      <trkpt lat="42.47287287376821" lon="13.569466397166252">
        <ele>2789.8800000000001</ele>
        <time>2013-09-10T09:11:20Z</time>
      </trkpt>
      <trkpt lat="42.472854685038328" lon="13.569495733827353">
        <ele>2790.3600000000001</ele>
        <time>2013-09-10T09:11:41Z</time>
      </trkpt>
      <trkpt lat="42.472869101911783" lon="13.569489615038037">
        <ele>2789.8800000000001</ele>
        <time>2013-09-10T09:11:57Z</time>
      </trkpt>
      <trkpt lat="42.472865497693419" lon="13.56947167776525">
        <ele>2790.8400000000001</ele>
        <time>2013-09-10T09:12:12Z</time>
      </trkpt>
      <trkpt lat="42.472885446622968" lon="13.569443095475435">
        <ele>2790.3600000000001</ele>
        <time>2013-09-10T09:12:33Z</time>
      </trkpt>
      <trkpt lat="42.472860217094421" lon="13.569466648623347">
        <ele>2789.4000000000001</ele>
        <time>2013-09-10T09:12:45Z</time>
      </trkpt>
      <trkpt lat="42.472862144932151" lon="13.569501601159573">
        <ele>2789.4000000000001</ele>
        <time>2013-09-10T09:13:01Z</time>
      </trkpt>
      <trkpt lat="42.472839765250683" lon="13.569497661665082">
        <ele>2791.3299999999999</ele>
        <time>2013-09-10T09:13:19Z</time>
      </trkpt>
      <trkpt lat="42.472851499915123" lon="13.569493219256401">
        <ele>2789.8800000000001</ele>
        <time>2013-09-10T09:13:47Z</time>
      </trkpt>
      <trkpt lat="42.472862647846341" lon="13.569467486813664">
        <ele>2792.29</ele>
        <time>2013-09-10T09:14:03Z</time>
      </trkpt>
      <trkpt lat="42.472868347540498" lon="13.569457344710827">
        <ele>2789.4000000000001</ele>
        <time>2013-09-10T09:14:16Z</time>
      </trkpt>
      <trkpt lat="42.47284890152514" lon="13.569452986121178">
        <ele>2790.8400000000001</ele>
        <time>2013-09-10T09:14:30Z</time>
      </trkpt>
      <trkpt lat="42.472837753593922" lon="13.569417782127857">
        <ele>2788.4400000000001</ele>
        <time>2013-09-10T09:14:47Z</time>
      </trkpt>
      <trkpt lat="42.47283574193716" lon="13.569424236193299">
        <ele>2787.96</ele>
        <time>2013-09-10T09:14:48Z</time>
      </trkpt>
      <trkpt lat="42.472812440246344" lon="13.569411328062415">
        <ele>2784.5999999999999</ele>
        <time>2013-09-10T09:14:55Z</time>
      </trkpt>
      <trkpt lat="42.472810931503773" lon="13.569364137947559">
        <ele>2786.04</ele>
        <time>2013-09-10T09:15:07Z</time>
      </trkpt>
      <trkpt lat="42.472813446074724" lon="13.56938224285841">
        <ele>2784.5999999999999</ele>
        <time>2013-09-10T09:15:19Z</time>
      </trkpt>
      <trkpt lat="42.472797520458698" lon="13.569312589243054">
        <ele>2784.5999999999999</ele>
        <time>2013-09-10T09:15:31Z</time>
      </trkpt>
      <trkpt lat="42.472790479660034" lon="13.569281408563256">
        <ele>2783.1500000000001</ele>
        <time>2013-09-10T09:15:33Z</time>
      </trkpt>
      <trkpt lat="42.47282937169075" lon="13.569202702492476">
        <ele>2782.1900000000001</ele>
        <time>2013-09-10T09:15:45Z</time>
      </trkpt>
      <trkpt lat="42.472817385569215" lon="13.569147046655416">
        <ele>2780.75</ele>
        <time>2013-09-10T09:15:59Z</time>
      </trkpt>
      <trkpt lat="42.472814954817295" lon="13.569065826013684">
        <ele>2780.75</ele>
        <time>2013-09-10T09:16:08Z</time>
      </trkpt>
      <trkpt lat="42.472785450518131" lon="13.569019306451082">
        <ele>2780.75</ele>
        <time>2013-09-10T09:16:19Z</time>
      </trkpt>
      <trkpt lat="42.472797520458698" lon="13.569102874025702">
        <ele>2781.71</ele>
        <time>2013-09-10T09:16:34Z</time>
      </trkpt>
      <trkpt lat="42.472777403891087" lon="13.569088708609343">
        <ele>2779.79</ele>
        <time>2013-09-10T09:16:37Z</time>
      </trkpt>
      <trkpt lat="42.47276533395052" lon="13.569117961451411">
        <ele>2781.23</ele>
        <time>2013-09-10T09:16:42Z</time>
      </trkpt>
      <trkpt lat="42.472758628427982" lon="13.569134725257754">
        <ele>2781.23</ele>
        <time>2013-09-10T09:17:02Z</time>
      </trkpt>
      <trkpt lat="42.472755024209619" lon="13.56918535195291">
        <ele>2781.23</ele>
        <time>2013-09-10T09:17:26Z</time>
      </trkpt>
      <trkpt lat="42.472753431648016" lon="13.569199601188302">
        <ele>2781.71</ele>
        <time>2013-09-10T09:17:38Z</time>
      </trkpt>
      <trkpt lat="42.472784109413624" lon="13.569211922585964">
        <ele>2780.75</ele>
        <time>2013-09-10T09:17:53Z</time>
      </trkpt>
      <trkpt lat="42.472826605662704" lon="13.569208905100822">
        <ele>2778.3499999999999</ele>
        <time>2013-09-10T09:18:04Z</time>
      </trkpt>
      <trkpt lat="42.472820738330483" lon="13.569230530411005">
        <ele>2778.8299999999999</ele>
        <time>2013-09-10T09:18:23Z</time>
      </trkpt>
      <trkpt lat="42.472803555428982" lon="13.569217370823026">
        <ele>2778.3499999999999</ele>
        <time>2013-09-10T09:18:34Z</time>
      </trkpt>
      <trkpt lat="42.472793580964208" lon="13.569202283397317">
        <ele>2775.46</ele>
        <time>2013-09-10T09:18:47Z</time>
      </trkpt>
      <trkpt lat="42.472789641469717" lon="13.569180406630039">
        <ele>2774.02</ele>
        <time>2013-09-10T09:19:00Z</time>
      </trkpt>
      <trkpt lat="42.472782265394926" lon="13.569169761613011">
        <ele>2775.46</ele>
        <time>2013-09-10T09:19:14Z</time>
      </trkpt>
      <trkpt lat="42.472747983410954" lon="13.569171186536551">
        <ele>2773.0599999999999</ele>
        <time>2013-09-10T09:19:26Z</time>
      </trkpt>
      <trkpt lat="42.472728537395597" lon="13.569166157394648">
        <ele>2770.1799999999998</ele>
        <time>2013-09-10T09:19:38Z</time>
      </trkpt>
      <trkpt lat="42.47272920794785" lon="13.569152830168605">
        <ele>2771.6199999999999</ele>
        <time>2013-09-10T09:19:53Z</time>
      </trkpt>
      <trkpt lat="42.472739098593593" lon="13.569130031391978">
        <ele>2770.1799999999998</ele>
        <time>2013-09-10T09:20:08Z</time>
      </trkpt>
      <trkpt lat="42.472766172140837" lon="13.569124583154917">
        <ele>2770.6599999999999</ele>
        <time>2013-09-10T09:20:20Z</time>
      </trkpt>
      <trkpt lat="42.47276826761663" lon="13.569091642275453">
        <ele>2767.29</ele>
        <time>2013-09-10T09:20:31Z</time>
      </trkpt>
      <trkpt lat="42.472785618156195" lon="13.569053756073117">
        <ele>2764.8899999999999</ele>
        <time>2013-09-10T09:20:42Z</time>
      </trkpt>
      <trkpt lat="42.472762651741505" lon="13.569018132984638">
        <ele>2764.4099999999999</ele>
        <time>2013-09-10T09:20:54Z</time>
      </trkpt>
      <trkpt lat="42.472753012552857" lon="13.569055683910847">
        <ele>2765.3699999999999</ele>
        <time>2013-09-10T09:21:12Z</time>
      </trkpt>
      <trkpt lat="42.472770782187581" lon="13.569056438282132">
        <ele>2762.9699999999998</ele>
        <time>2013-09-10T09:21:30Z</time>
      </trkpt>
      <trkpt lat="42.472761645913124" lon="13.568949988111854">
        <ele>2763.9299999999998</ele>
        <time>2013-09-10T09:21:45Z</time>
      </trkpt>
      <trkpt lat="42.472747396677732" lon="13.568924004212022">
        <ele>2762.9699999999998</ele>
        <time>2013-09-10T09:21:58Z</time>
      </trkpt>
      <trkpt lat="42.472732895985246" lon="13.568876981735229">
        <ele>2762.9699999999998</ele>
        <time>2013-09-10T09:22:30Z</time>
      </trkpt>
      <trkpt lat="42.472731387242675" lon="13.568929033353925">
        <ele>2762</ele>
        <time>2013-09-10T09:22:57Z</time>
      </trkpt>
      <trkpt lat="42.472785785794258" lon="13.568900199607015">
        <ele>2762.9699999999998</ele>
        <time>2013-09-10T09:23:12Z</time>
      </trkpt>
      <trkpt lat="42.472778996452689" lon="13.568938840180635">
        <ele>2760.5599999999999</ele>
        <time>2013-09-10T09:23:20Z</time>
      </trkpt>
      <trkpt lat="42.472727866843343" lon="13.56892442330718">
        <ele>2758.6399999999999</ele>
        <time>2013-09-10T09:23:36Z</time>
      </trkpt>
      <trkpt lat="42.472703643143177" lon="13.568876981735229">
        <ele>2757.6799999999998</ele>
        <time>2013-09-10T09:23:51Z</time>
      </trkpt>
      <trkpt lat="42.472717054188251" lon="13.568914281204343">
        <ele>2757.1999999999998</ele>
        <time>2013-09-10T09:24:09Z</time>
      </trkpt>
      <trkpt lat="42.47270087711513" lon="13.568922244012356">
        <ele>2757.1999999999998</ele>
        <time>2013-09-10T09:24:22Z</time>
      </trkpt>
      <trkpt lat="42.472720155492425" lon="13.568921992555261">
        <ele>2756.7199999999998</ele>
        <time>2013-09-10T09:24:44Z</time>
      </trkpt>
      <trkpt lat="42.472710348665714" lon="13.568956777453423">
        <ele>2756.7199999999998</ele>
        <time>2013-09-10T09:24:59Z</time>
      </trkpt>
      <trkpt lat="42.472674138844013" lon="13.568958872929215">
        <ele>2757.6799999999998</ele>
        <time>2013-09-10T09:25:16Z</time>
      </trkpt>
      <trkpt lat="42.472642036154866" lon="13.568979576230049">
        <ele>2757.1999999999998</ele>
        <time>2013-09-10T09:25:32Z</time>
      </trkpt>
      <trkpt lat="42.472604988142848" lon="13.569009080529213">
        <ele>2757.6799999999998</ele>
        <time>2013-09-10T09:25:45Z</time>
      </trkpt>
      <trkpt lat="42.472642790526152" lon="13.568983431905508">
        <ele>2757.1999999999998</ele>
        <time>2013-09-10T09:25:56Z</time>
      </trkpt>
      <trkpt lat="42.472653770819306" lon="13.568974882364273">
        <ele>2759.5999999999999</ele>
        <time>2013-09-10T09:26:12Z</time>
      </trkpt>
      <trkpt lat="42.472671959549189" lon="13.568963818252087">
        <ele>2756.7199999999998</ele>
        <time>2013-09-10T09:26:25Z</time>
      </trkpt>
      <trkpt lat="42.472672630101442" lon="13.568965662270784">
        <ele>2756.2399999999998</ele>
        <time>2013-09-10T09:26:35Z</time>
      </trkpt>
      <trkpt lat="42.472649915143847" lon="13.568942276760936">
        <ele>2759.1199999999999</ele>
        <time>2013-09-10T09:27:05Z</time>
      </trkpt>
      <trkpt lat="42.472607837989926" lon="13.568946216255426">
        <ele>2756.7199999999998</ele>
        <time>2013-09-10T09:27:43Z</time>
      </trkpt>
      <trkpt lat="42.472619321197271" lon="13.568901205435395">
        <ele>2758.1599999999999</ele>
        <time>2013-09-10T09:28:23Z</time>
      </trkpt>
      <trkpt lat="42.472584452480078" lon="13.568894080817699">
        <ele>2758.1599999999999</ele>
        <time>2013-09-10T09:29:04Z</time>
      </trkpt>
      <trkpt lat="42.472668187692761" lon="13.568844459950924">
        <ele>2757.1999999999998</ele>
        <time>2013-09-10T09:29:26Z</time>
      </trkpt>
      <trkpt lat="42.47269500978291" lon="13.568782182410359">
        <ele>2756.7199999999998</ele>
        <time>2013-09-10T09:29:48Z</time>
      </trkpt>
      <trkpt lat="42.47269987128675" lon="13.568831300362945">
        <ele>2757.1999999999998</ele>
        <time>2013-09-10T09:30:13Z</time>
      </trkpt>
      <trkpt lat="42.472605239599943" lon="13.568887123838067">
        <ele>2757.1999999999998</ele>
        <time>2013-09-10T09:30:42Z</time>
      </trkpt>
      <trkpt lat="42.472579507157207" lon="13.568903217092156">
        <ele>2756.2399999999998</ele>
        <time>2013-09-10T09:30:58Z</time>
      </trkpt>
      <trkpt lat="42.472583698108792" lon="13.568911766633391">
        <ele>2758.1599999999999</ele>
        <time>2013-09-10T09:31:03Z</time>
      </trkpt>
      <trkpt lat="42.472570706158876" lon="13.568890392780304">
        <ele>2756.7199999999998</ele>
        <time>2013-09-10T09:31:37Z</time>
      </trkpt>
      <trkpt lat="42.472630050033331" lon="13.569004721939564">
        <ele>2758.1599999999999</ele>
        <time>2013-09-10T09:31:57Z</time>
      </trkpt>
      <trkpt lat="42.472630133852363" lon="13.569127265363932">
        <ele>2760.0799999999999</ele>
        <time>2013-09-10T09:32:19Z</time>
      </trkpt>
      <trkpt lat="42.472627619281411" lon="13.569136066362262">
        <ele>2762</ele>
        <time>2013-09-10T09:32:22Z</time>
      </trkpt>
      <trkpt lat="42.472591493278742" lon="13.569122487679124">
        <ele>2758.6399999999999</ele>
        <time>2013-09-10T09:32:34Z</time>
      </trkpt>
      <trkpt lat="42.472549248486757" lon="13.569077895954251">
        <ele>2757.1999999999998</ele>
        <time>2013-09-10T09:32:49Z</time>
      </trkpt>
      <trkpt lat="42.472532819956541" lon="13.569053253158927">
        <ele>2756.2399999999998</ele>
        <time>2013-09-10T09:33:04Z</time>
      </trkpt>
      <trkpt lat="42.472564671188593" lon="13.568999608978629">
        <ele>2754.3099999999999</ele>
        <time>2013-09-10T09:33:19Z</time>
      </trkpt>
      <trkpt lat="42.47257623821497" lon="13.568967757746577">
        <ele>2752.8699999999999</ele>
        <time>2013-09-10T09:33:33Z</time>
      </trkpt>
      <trkpt lat="42.472584452480078" lon="13.568961136043072">
        <ele>2750.9499999999998</ele>
        <time>2013-09-10T09:33:47Z</time>
      </trkpt>
      <trkpt lat="42.472588811069727" lon="13.568961890414357">
        <ele>2750.9499999999998</ele>
        <time>2013-09-10T09:34:00Z</time>
      </trkpt>
      <trkpt lat="42.472585290670395" lon="13.568941773846745">
        <ele>2750.9499999999998</ele>
        <time>2013-09-10T09:34:18Z</time>
      </trkpt>
      <trkpt lat="42.472591325640678" lon="13.568928027525544">
        <ele>2750.9499999999998</ele>
        <time>2013-09-10T09:34:39Z</time>
      </trkpt>
      <trkpt lat="42.47260021045804" lon="13.568855356425047">
        <ele>2750.9499999999998</ele>
        <time>2013-09-10T09:35:08Z</time>
      </trkpt>
      <trkpt lat="42.472545644268394" lon="13.568932972848415">
        <ele>2749.0300000000002</ele>
        <time>2013-09-10T09:35:26Z</time>
      </trkpt>
      <trkpt lat="42.472534663975239" lon="13.568900534883142">
        <ele>2749.5100000000002</ele>
        <time>2013-09-10T09:35:45Z</time>
      </trkpt>
      <trkpt lat="42.47258260846138" lon="13.568861307576299">
        <ele>2749.9899999999998</ele>
        <time>2013-09-10T09:36:01Z</time>
      </trkpt>
      <trkpt lat="42.472581267356873" lon="13.56890581548214">
        <ele>2749.5100000000002</ele>
        <time>2013-09-10T09:36:15Z</time>
      </trkpt>
      <trkpt lat="42.472558887675405" lon="13.56886968947947">
        <ele>2747.0999999999999</ele>
        <time>2013-09-10T09:36:35Z</time>
      </trkpt>
      <trkpt lat="42.472608759999275" lon="13.568817554041743">
        <ele>2746.6199999999999</ele>
        <time>2013-09-10T09:36:50Z</time>
      </trkpt>
      <trkpt lat="42.472623260691762" lon="13.568824762478471">
        <ele>2747.0999999999999</ele>
        <time>2013-09-10T09:37:06Z</time>
      </trkpt>
      <trkpt lat="42.472658129408956" lon="13.568805567920208">
        <ele>2747.0999999999999</ele>
        <time>2013-09-10T09:37:25Z</time>
      </trkpt>
      <trkpt lat="42.472658967599273" lon="13.568779919296503">
        <ele>2745.1799999999998</ele>
        <time>2013-09-10T09:37:38Z</time>
      </trkpt>
      <trkpt lat="42.472662990912795" lon="13.56879148632288">
        <ele>2744.6999999999998</ele>
        <time>2013-09-10T09:37:53Z</time>
      </trkpt>
      <trkpt lat="42.472684364765882" lon="13.56882375665009">
        <ele>2745.6599999999999</ele>
        <time>2013-09-10T09:38:11Z</time>
      </trkpt>
      <trkpt lat="42.472680760547519" lon="13.568813279271126">
        <ele>2744.6999999999998</ele>
        <time>2013-09-10T09:38:33Z</time>
      </trkpt>
      <trkpt lat="42.472658967599273" lon="13.568789726123214">
        <ele>2744.2199999999998</ele>
        <time>2013-09-10T09:38:46Z</time>
      </trkpt>
      <trkpt lat="42.472689310088754" lon="13.568781344220042">
        <ele>2743.7399999999998</ele>
        <time>2013-09-10T09:39:00Z</time>
      </trkpt>
      <trkpt lat="42.472680173814297" lon="13.568794587627053">
        <ele>2742.3000000000002</ele>
        <time>2013-09-10T09:39:17Z</time>
      </trkpt>
      <trkpt lat="42.472707834094763" lon="13.568776566535234">
        <ele>2742.3000000000002</ele>
        <time>2013-09-10T09:39:25Z</time>
      </trkpt>
      <trkpt lat="42.472783019766212" lon="13.568748403340578">
        <ele>2740.8600000000001</ele>
        <time>2013-09-10T09:39:35Z</time>
      </trkpt>
      <trkpt lat="42.47281227260828" lon="13.568722000345588">
        <ele>2737.9699999999998</ele>
        <time>2013-09-10T09:39:44Z</time>
      </trkpt>
      <trkpt lat="42.4728889670223" lon="13.568590572103858">
        <ele>2735.5700000000002</ele>
        <time>2013-09-10T09:39:58Z</time>
      </trkpt>
      <trkpt lat="42.47290313243866" lon="13.568539107218385">
        <ele>2733.1700000000001</ele>
        <time>2013-09-10T09:40:11Z</time>
      </trkpt>
      <trkpt lat="42.472968176007271" lon="13.568517984822392">
        <ele>2732.1999999999998</ele>
        <time>2013-09-10T09:40:28Z</time>
      </trkpt>
      <trkpt lat="42.472971864044666" lon="13.568493342027068">
        <ele>2732.1999999999998</ele>
        <time>2013-09-10T09:40:33Z</time>
      </trkpt>
      <trkpt lat="42.472973708063364" lon="13.568434584885836">
        <ele>2732.1999999999998</ele>
        <time>2013-09-10T09:40:47Z</time>
      </trkpt>
      <trkpt lat="42.473057862371206" lon="13.56833559460938">
        <ele>2728.8400000000001</ele>
        <time>2013-09-10T09:41:02Z</time>
      </trkpt>
      <trkpt lat="42.473087199032307" lon="13.56828236952424">
        <ele>2726.9200000000001</ele>
        <time>2013-09-10T09:41:16Z</time>
      </trkpt>
      <trkpt lat="42.47313279658556" lon="13.568250434473157">
        <ele>2724.9899999999998</ele>
        <time>2013-09-10T09:41:28Z</time>
      </trkpt>
      <trkpt lat="42.473197421059012" lon="13.568200226873159">
        <ele>2725.96</ele>
        <time>2013-09-10T09:41:42Z</time>
      </trkpt>
      <trkpt lat="42.473268080502748" lon="13.56812889687717">
        <ele>2725.48</ele>
        <time>2013-09-10T09:41:54Z</time>
      </trkpt>
      <trkpt lat="42.473322730511427" lon="13.568079443648458">
        <ele>2726.4400000000001</ele>
        <time>2013-09-10T09:42:10Z</time>
      </trkpt>
      <trkpt lat="42.47336246073246" lon="13.567976346239448">
        <ele>2725.96</ele>
        <time>2013-09-10T09:42:24Z</time>
      </trkpt>
      <trkpt lat="42.473369920626283" lon="13.567944662645459">
        <ele>2722.5900000000001</ele>
        <time>2013-09-10T09:42:29Z</time>
      </trkpt>
      <trkpt lat="42.473419290035963" lon="13.567831506952643">
        <ele>2720.6700000000001</ele>
        <time>2013-09-10T09:42:42Z</time>
      </trkpt>
      <trkpt lat="42.473463797941804" lon="13.567766044288874">
        <ele>2718.75</ele>
        <time>2013-09-10T09:42:52Z</time>
      </trkpt>
      <trkpt lat="42.473529931157827" lon="13.567704353481531">
        <ele>2719.23</ele>
        <time>2013-09-10T09:43:08Z</time>
      </trkpt>
      <trkpt lat="42.473566643893719" lon="13.56769991107285">
        <ele>2717.7800000000002</ele>
        <time>2013-09-10T09:43:14Z</time>
      </trkpt>
      <trkpt lat="42.473599584773183" lon="13.567643836140633">
        <ele>2718.75</ele>
        <time>2013-09-10T09:43:25Z</time>
      </trkpt>
      <trkpt lat="42.473626574501395" lon="13.567577535286546">
        <ele>2720.6700000000001</ele>
        <time>2013-09-10T09:43:38Z</time>
      </trkpt>
      <trkpt lat="42.473664879798889" lon="13.567528082057834">
        <ele>2721.1500000000001</ele>
        <time>2013-09-10T09:43:44Z</time>
      </trkpt>
      <trkpt lat="42.473748698830605" lon="13.567455327138305">
        <ele>2720.6700000000001</ele>
        <time>2013-09-10T09:43:55Z</time>
      </trkpt>
      <trkpt lat="42.473893202841282" lon="13.567311577498913">
        <ele>2721.6300000000001</ele>
        <time>2013-09-10T09:44:10Z</time>
      </trkpt>
      <trkpt lat="42.473978362977505" lon="13.567290371283889">
        <ele>2720.6700000000001</ele>
        <time>2013-09-10T09:44:23Z</time>
      </trkpt>
      <trkpt lat="42.473972998559475" lon="13.56729238294065">
        <ele>2721.1500000000001</ele>
        <time>2013-09-10T09:44:34Z</time>
      </trkpt>
      <trkpt lat="42.474014321342111" lon="13.567300597205758">
        <ele>2722.1100000000001</ele>
        <time>2013-09-10T09:44:50Z</time>
      </trkpt>
      <trkpt lat="42.473999233916402" lon="13.567337645217776">
        <ele>2722.1100000000001</ele>
        <time>2013-09-10T09:45:10Z</time>
      </trkpt>
      <trkpt lat="42.473998311907053" lon="13.567341333255172">
        <ele>2722.5900000000001</ele>
        <time>2013-09-10T09:45:11Z</time>
      </trkpt>
      <trkpt lat="42.474011387676001" lon="13.567358097061515">
        <ele>2723.5500000000002</ele>
        <time>2013-09-10T09:45:19Z</time>
      </trkpt>
      <trkpt lat="42.474046424031258" lon="13.56726011261344">
        <ele>2723.0700000000002</ele>
        <time>2013-09-10T09:45:33Z</time>
      </trkpt>
      <trkpt lat="42.474084226414561" lon="13.567202109843493">
        <ele>2723.0700000000002</ele>
        <time>2013-09-10T09:45:39Z</time>
      </trkpt>
      <trkpt lat="42.474138289690018" lon="13.567105382680893">
        <ele>2725.96</ele>
        <time>2013-09-10T09:45:53Z</time>
      </trkpt>
      <trkpt lat="42.474103085696697" lon="13.56704268604517">
        <ele>2729.3200000000002</ele>
        <time>2013-09-10T09:46:05Z</time>
      </trkpt>
      <trkpt lat="42.474125968292356" lon="13.566923243924975">
        <ele>2730.2800000000002</ele>
        <time>2013-09-10T09:46:19Z</time>
      </trkpt>
      <trkpt lat="42.474131416529417" lon="13.566914610564709">
        <ele>2730.2800000000002</ele>
        <time>2013-09-10T09:46:20Z</time>
      </trkpt>
      <trkpt lat="42.474132841452956" lon="13.566906396299601">
        <ele>2731.7199999999998</ele>
        <time>2013-09-10T09:46:21Z</time>
      </trkpt>
      <trkpt lat="42.474102834239602" lon="13.566878149285913">
        <ele>2732.1999999999998</ele>
        <time>2013-09-10T09:46:31Z</time>
      </trkpt>
      <trkpt lat="42.474095541983843" lon="13.566851578652859">
        <ele>2734.1300000000001</ele>
        <time>2013-09-10T09:46:37Z</time>
      </trkpt>
      <trkpt lat="42.47406855225563" lon="13.566783852875233">
        <ele>2732.6799999999998</ele>
        <time>2013-09-10T09:46:49Z</time>
      </trkpt>
      <trkpt lat="42.474046004936099" lon="13.566763820126653">
        <ele>2732.6799999999998</ele>
        <time>2013-09-10T09:47:01Z</time>
      </trkpt>
      <trkpt lat="42.472729627043009" lon="13.567000525072217">
        <ele>2732.6799999999998</ele>
        <time>2013-09-10T09:47:24Z</time>
      </trkpt>
      <trkpt lat="42.472625020891428" lon="13.566856859251857">
        <ele>2734.1300000000001</ele>
        <time>2013-09-10T09:47:38Z</time>
      </trkpt>
      <trkpt lat="42.472624182701111" lon="13.566837161779404">
        <ele>2735.5700000000002</ele>
        <time>2013-09-10T09:47:40Z</time>
      </trkpt>
      <trkpt lat="42.472597360610962" lon="13.566801119595766">
        <ele>2734.1300000000001</ele>
        <time>2013-09-10T09:47:47Z</time>
      </trkpt>
      <trkpt lat="42.472611526027322" lon="13.566737752407789">
        <ele>2734.6100000000001</ele>
        <time>2013-09-10T09:47:58Z</time>
      </trkpt>
      <trkpt lat="42.472593253478408" lon="13.566712690517306">
        <ele>2731.7199999999998</ele>
        <time>2013-09-10T09:48:04Z</time>
      </trkpt>
      <trkpt lat="42.472626278176904" lon="13.566642953082919">
        <ele>2731.2399999999998</ele>
        <time>2013-09-10T09:48:17Z</time>
      </trkpt>
      <trkpt lat="42.472607586532831" lon="13.566639684140682">
        <ele>2729.3200000000002</ele>
        <time>2013-09-10T09:48:21Z</time>
      </trkpt>
      <trkpt lat="42.472571460530162" lon="13.566767424345016">
        <ele>2731.7199999999998</ele>
        <time>2013-09-10T09:48:33Z</time>
      </trkpt>
      <trkpt lat="42.472603563219309" lon="13.566843615844846">
        <ele>2732.6799999999998</ele>
        <time>2013-09-10T09:48:42Z</time>
      </trkpt>
      <trkpt lat="42.472537094727159" lon="13.566934308037162">
        <ele>2735.0900000000001</ele>
        <time>2013-09-10T09:48:55Z</time>
      </trkpt>
      <trkpt lat="42.472519995644689" lon="13.566913101822138">
        <ele>2734.1300000000001</ele>
        <time>2013-09-10T09:49:17Z</time>
      </trkpt>
      <trkpt lat="42.472561318427324" lon="13.566904217004776">
        <ele>2733.6500000000001</ele>
        <time>2013-09-10T09:49:41Z</time>
      </trkpt>
      <trkpt lat="42.472494682297111" lon="13.566841688007116">
        <ele>2733.6500000000001</ele>
        <time>2013-09-10T09:50:07Z</time>
      </trkpt>
      <trkpt lat="42.472500801086426" lon="13.566799191758037">
        <ele>2732.6799999999998</ele>
        <time>2013-09-10T09:50:11Z</time>
      </trkpt>
      <trkpt lat="42.472530221566558" lon="13.566764909774065">
        <ele>2731.2399999999998</ele>
        <time>2013-09-10T09:50:13Z</time>
      </trkpt>
      <trkpt lat="42.472515301778913" lon="13.56668402440846">
        <ele>2729.8000000000002</ele>
        <time>2013-09-10T09:50:23Z</time>
      </trkpt>
      <trkpt lat="42.47252251021564" lon="13.566634403541684">
        <ele>2727.8800000000001</ele>
        <time>2013-09-10T09:50:28Z</time>
      </trkpt>
      <trkpt lat="42.472539441660047" lon="13.566535748541355">
        <ele>2725.96</ele>
        <time>2013-09-10T09:50:37Z</time>
      </trkpt>
      <trkpt lat="42.472525779157877" lon="13.566465675830841">
        <ele>2723.5500000000002</ele>
        <time>2013-09-10T09:50:48Z</time>
      </trkpt>
      <trkpt lat="42.472522677853703" lon="13.566451678052545">
        <ele>2723.0700000000002</ele>
        <time>2013-09-10T09:50:50Z</time>
      </trkpt>
      <trkpt lat="42.47254790738225" lon="13.56641286984086">
        <ele>2720.1900000000001</ele>
        <time>2013-09-10T09:50:57Z</time>
      </trkpt>
      <trkpt lat="42.472550170496106" lon="13.566400464624166">
        <ele>2720.1900000000001</ele>
        <time>2013-09-10T09:50:59Z</time>
      </trkpt>
      <trkpt lat="42.472549667581916" lon="13.566372552886605">
        <ele>2719.23</ele>
        <time>2013-09-10T09:51:01Z</time>
      </trkpt>
      <trkpt lat="42.472551260143518" lon="13.566305246204138">
        <ele>2717.7800000000002</ele>
        <time>2013-09-10T09:51:09Z</time>
      </trkpt>
      <trkpt lat="42.472545392811298" lon="13.566276077181101">
        <ele>2716.3400000000001</ele>
        <time>2013-09-10T09:51:12Z</time>
      </trkpt>
      <trkpt lat="42.472529886290431" lon="13.566258894279599">
        <ele>2716.8200000000002</ele>
        <time>2013-09-10T09:51:15Z</time>
      </trkpt>
      <trkpt lat="42.472495939582586" lon="13.566220505163074">
        <ele>2718.27</ele>
        <time>2013-09-10T09:51:20Z</time>
      </trkpt>
      <trkpt lat="42.472499208524823" lon="13.566164262592793">
        <ele>2717.7800000000002</ele>
        <time>2013-09-10T09:51:25Z</time>
      </trkpt>
      <trkpt lat="42.472473727539182" lon="13.566105589270592">
        <ele>2718.75</ele>
        <time>2013-09-10T09:51:32Z</time>
      </trkpt>
      <trkpt lat="42.472449252381921" lon="13.565924623981118">
        <ele>2718.75</ele>
        <time>2013-09-10T09:51:46Z</time>
      </trkpt>
      <trkpt lat="42.472450509667397" lon="13.565841559320688">
        <ele>2719.23</ele>
        <time>2013-09-10T09:52:01Z</time>
      </trkpt>
      <trkpt lat="42.472465513274074" lon="13.565731840208173">
        <ele>2718.75</ele>
        <time>2013-09-10T09:52:13Z</time>
      </trkpt>
      <trkpt lat="42.472468111664057" lon="13.565719183534384">
        <ele>2717.7800000000002</ele>
        <time>2013-09-10T09:52:14Z</time>
      </trkpt>
      <trkpt lat="42.472470793873072" lon="13.56568967923522">
        <ele>2717.7800000000002</ele>
        <time>2013-09-10T09:52:16Z</time>
      </trkpt>
      <trkpt lat="42.472477583214641" lon="13.56563301756978">
        <ele>2716.8200000000002</ele>
        <time>2013-09-10T09:52:21Z</time>
      </trkpt>
      <trkpt lat="42.472487473860383" lon="13.565611056983471">
        <ele>2716.3400000000001</ele>
        <time>2013-09-10T09:52:23Z</time>
      </trkpt>
      <trkpt lat="42.472516391426325" lon="13.565439814701676">
        <ele>2714.9000000000001</ele>
        <time>2013-09-10T09:52:37Z</time>
      </trkpt>
      <trkpt lat="42.472469033673406" lon="13.565366975963116">
        <ele>2713.46</ele>
        <time>2013-09-10T09:52:52Z</time>
      </trkpt>
      <trkpt lat="42.472493005916476" lon="13.565349038690329">
        <ele>2712.02</ele>
        <time>2013-09-10T09:52:54Z</time>
      </trkpt>
      <trkpt lat="42.472510356456041" lon="13.565287515521049">
        <ele>2710.5700000000002</ele>
        <time>2013-09-10T09:53:00Z</time>
      </trkpt>
      <trkpt lat="42.472526114434004" lon="13.565268740057945">
        <ele>2709.1300000000001</ele>
        <time>2013-09-10T09:53:03Z</time>
      </trkpt>
      <trkpt lat="42.472584536299109" lon="13.565229428932071">
        <ele>2706.25</ele>
        <time>2013-09-10T09:53:16Z</time>
      </trkpt>
      <trkpt lat="42.472589565441012" lon="13.565200679004192">
        <ele>2709.1300000000001</ele>
        <time>2013-09-10T09:53:37Z</time>
      </trkpt>
      <trkpt lat="42.472636755555868" lon="13.565219035372138">
        <ele>2708.1700000000001</ele>
        <time>2013-09-10T09:53:38Z</time>
      </trkpt>
      <trkpt lat="42.472667265683413" lon="13.565218364819884">
        <ele>2707.21</ele>
        <time>2013-09-10T09:53:40Z</time>
      </trkpt>
      <trkpt lat="42.472655866295099" lon="13.56517125852406">
        <ele>2707.21</ele>
        <time>2013-09-10T09:53:57Z</time>
      </trkpt>
      <trkpt lat="42.472678329795599" lon="13.565170420333743">
        <ele>2706.73</ele>
        <time>2013-09-10T09:53:59Z</time>
      </trkpt>
      <trkpt lat="42.472706912085414" lon="13.565171761438251">
        <ele>2704.3299999999999</ele>
        <time>2013-09-10T09:54:10Z</time>
      </trkpt>
      <trkpt lat="42.472645808011293" lon="13.565131444483995">
        <ele>2703.8499999999999</ele>
        <time>2013-09-10T09:54:42Z</time>
      </trkpt>
      <trkpt lat="42.472674222663045" lon="13.565145609900355">
        <ele>2705.77</ele>
        <time>2013-09-10T09:55:06Z</time>
      </trkpt>
      <trkpt lat="42.472608676180243" lon="13.565021473914385">
        <ele>2707.6900000000001</ele>
        <time>2013-09-10T09:55:22Z</time>
      </trkpt>
      <trkpt lat="42.472594426944852" lon="13.564954753965139">
        <ele>2709.6100000000001</ele>
        <time>2013-09-10T09:55:29Z</time>
      </trkpt>
      <trkpt lat="42.472582021728158" lon="13.564852075651288">
        <ele>2710.0900000000001</ele>
        <time>2013-09-10T09:55:41Z</time>
      </trkpt>
      <trkpt lat="42.472619907930493" lon="13.564770519733429">
        <ele>2710.5700000000002</ele>
        <time>2013-09-10T09:55:58Z</time>
      </trkpt>
      <trkpt lat="42.472638851031661" lon="13.56470606289804">
        <ele>2713.46</ele>
        <time>2013-09-10T09:56:08Z</time>
      </trkpt>
      <trkpt lat="42.472677491605282" lon="13.564679911360145">
        <ele>2713.46</ele>
        <time>2013-09-10T09:56:25Z</time>
      </trkpt>
      <trkpt lat="42.472674557939172" lon="13.56463473290205">
        <ele>2715.3800000000001</ele>
        <time>2013-09-10T09:56:52Z</time>
      </trkpt>
      <trkpt lat="42.472697608172894" lon="13.564493330195546">
        <ele>2715.3800000000001</ele>
        <time>2013-09-10T09:57:06Z</time>
      </trkpt>
      <trkpt lat="42.472701631486416" lon="13.564488720148802">
        <ele>2715.8600000000001</ele>
        <time>2013-09-10T09:57:19Z</time>
      </trkpt>
      <trkpt lat="42.472682688385248" lon="13.564443709328771">
        <ele>2716.3400000000001</ele>
        <time>2013-09-10T09:57:34Z</time>
      </trkpt>
      <trkpt lat="42.472683023661375" lon="13.564417893067002">
        <ele>2717.7800000000002</ele>
        <time>2013-09-10T09:57:46Z</time>
      </trkpt>
      <trkpt lat="42.472669361159205" lon="13.564379084855318">
        <ele>2717.3000000000002</ele>
        <time>2013-09-10T09:57:55Z</time>
      </trkpt>
      <trkpt lat="42.472670869901776" lon="13.564343545585871">
        <ele>2715.3800000000001</ele>
        <time>2013-09-10T09:57:58Z</time>
      </trkpt>
      <trkpt lat="42.472662990912795" lon="13.564224857836962">
        <ele>2715.3800000000001</ele>
        <time>2013-09-10T09:58:13Z</time>
      </trkpt>
      <trkpt lat="42.472664583474398" lon="13.564136680215597">
        <ele>2714.4200000000001</ele>
        <time>2013-09-10T09:58:26Z</time>
      </trkpt>
      <trkpt lat="42.472672378644347" lon="13.56409627944231">
        <ele>2713.9400000000001</ele>
        <time>2013-09-10T09:58:37Z</time>
      </trkpt>
      <trkpt lat="42.472683861851692" lon="13.563970383256674">
        <ele>2714.4200000000001</ele>
        <time>2013-09-10T09:58:50Z</time>
      </trkpt>
      <trkpt lat="42.472667349502444" lon="13.563925120979548">
        <ele>2715.3800000000001</ele>
        <time>2013-09-10T09:58:57Z</time>
      </trkpt>
      <trkpt lat="42.472683610394597" lon="13.563881786540151">
        <ele>2715.3800000000001</ele>
        <time>2013-09-10T09:59:01Z</time>
      </trkpt>
      <trkpt lat="42.472691405564547" lon="13.563823197036982">
        <ele>2713.46</ele>
        <time>2013-09-10T09:59:09Z</time>
      </trkpt>
      <trkpt lat="42.472690735012293" lon="13.563747340813279">
        <ele>2713.46</ele>
        <time>2013-09-10T09:59:25Z</time>
      </trkpt>
      <trkpt lat="42.472702721133828" lon="13.563654636964202">
        <ele>2712.98</ele>
        <time>2013-09-10T09:59:38Z</time>
      </trkpt>
      <trkpt lat="42.472701296210289" lon="13.563624378293753">
        <ele>2715.3800000000001</ele>
        <time>2013-09-10T09:59:44Z</time>
      </trkpt>
      <trkpt lat="42.472646059468389" lon="13.563576014712453">
        <ele>2716.8200000000002</ele>
        <time>2013-09-10T09:59:57Z</time>
      </trkpt>
      <trkpt lat="42.472612950950861" lon="13.563538044691086">
        <ele>2714.9000000000001</ele>
        <time>2013-09-10T10:00:12Z</time>
      </trkpt>
      <trkpt lat="42.472613537684083" lon="13.563525723293424">
        <ele>2713.9400000000001</ele>
        <time>2013-09-10T10:00:21Z</time>
      </trkpt>
      <trkpt lat="42.472629966214299" lon="13.56352505274117">
        <ele>2714.4200000000001</ele>
        <time>2013-09-10T10:00:34Z</time>
      </trkpt>
      <trkpt lat="42.472614124417305" lon="13.56351918540895">
        <ele>2713.9400000000001</ele>
        <time>2013-09-10T10:00:53Z</time>
      </trkpt>
      <trkpt lat="42.472618315368891" lon="13.563515245914459">
        <ele>2713.46</ele>
        <time>2013-09-10T10:00:58Z</time>
      </trkpt>
      <trkpt lat="42.472616722807288" lon="13.563511222600937">
        <ele>2715.3800000000001</ele>
        <time>2013-09-10T10:01:18Z</time>
      </trkpt>
      <trkpt lat="42.47261630371213" lon="13.56349965557456">
        <ele>2713.9400000000001</ele>
        <time>2013-09-10T10:01:37Z</time>
      </trkpt>
      <trkpt lat="42.472619656473398" lon="13.56350745074451">
        <ele>2714.4200000000001</ele>
        <time>2013-09-10T10:01:57Z</time>
      </trkpt>
      <trkpt lat="42.472631307318807" lon="13.563525639474392">
        <ele>2712.5</ele>
        <time>2013-09-10T10:02:15Z</time>
      </trkpt>
      <trkpt lat="42.47264857403934" lon="13.563515916466713">
        <ele>2712.02</ele>
        <time>2013-09-10T10:02:42Z</time>
      </trkpt>
      <trkpt lat="42.472636252641678" lon="13.563532093539834">
        <ele>2712.5</ele>
        <time>2013-09-10T10:03:10Z</time>
      </trkpt>
      <trkpt lat="42.472632648423314" lon="13.563535362482071">
        <ele>2712.98</ele>
        <time>2013-09-10T10:03:39Z</time>
      </trkpt>
      <trkpt lat="42.472613202407956" lon="13.56352454982698">
        <ele>2709.6100000000001</ele>
        <time>2013-09-10T10:04:00Z</time>
      </trkpt>
      <trkpt lat="42.472611609846354" lon="13.563544498756528">
        <ele>2712.02</ele>
        <time>2013-09-10T10:04:16Z</time>
      </trkpt>
      <trkpt lat="42.472612364217639" lon="13.563485071063042">
        <ele>2710.5700000000002</ele>
        <time>2013-09-10T10:04:35Z</time>
      </trkpt>
      <trkpt lat="42.472624517977238" lon="13.563494877889752">
        <ele>2710.0900000000001</ele>
        <time>2013-09-10T10:04:59Z</time>
      </trkpt>
      <trkpt lat="42.47263491153717" lon="13.563482305034995">
        <ele>2708.1700000000001</ele>
        <time>2013-09-10T10:05:29Z</time>
      </trkpt>
      <trkpt lat="42.472646813839674" lon="13.563464535400271">
        <ele>2707.6900000000001</ele>
        <time>2013-09-10T10:05:48Z</time>
      </trkpt>
      <trkpt lat="42.472679167985916" lon="13.563465708866715">
        <ele>2706.73</ele>
        <time>2013-09-10T10:06:07Z</time>
      </trkpt>
      <trkpt lat="42.472666930407286" lon="13.563455063849688">
        <ele>2705.77</ele>
        <time>2013-09-10T10:06:26Z</time>
      </trkpt>
      <trkpt lat="42.472651423886418" lon="13.563475515693426">
        <ele>2705.29</ele>
        <time>2013-09-10T10:06:37Z</time>
      </trkpt>
      <trkpt lat="42.472636085003614" lon="13.56347375549376">
        <ele>2705.29</ele>
        <time>2013-09-10T10:06:58Z</time>
      </trkpt>
      <trkpt lat="42.472625859081745" lon="13.563455818220973">
        <ele>2704.3299999999999</ele>
        <time>2013-09-10T10:07:20Z</time>
      </trkpt>
      <trkpt lat="42.472641449421644" lon="13.563411058858037">
        <ele>2704.8099999999999</ele>
        <time>2013-09-10T10:07:31Z</time>
      </trkpt>
      <trkpt lat="42.472655950114131" lon="13.563449867069721">
        <ele>2703.3600000000001</ele>
        <time>2013-09-10T10:07:50Z</time>
      </trkpt>
      <trkpt lat="42.47263927012682" lon="13.563443915918469">
        <ele>2702.8800000000001</ele>
        <time>2013-09-10T10:08:11Z</time>
      </trkpt>
      <trkpt lat="42.472630301490426" lon="13.563476605340838">
        <ele>2703.8499999999999</ele>
        <time>2013-09-10T10:08:31Z</time>
      </trkpt>
      <trkpt lat="42.472616136074066" lon="13.563470151275396">
        <ele>2705.29</ele>
        <time>2013-09-10T10:08:50Z</time>
      </trkpt>
      <trkpt lat="42.472612196579576" lon="13.563491525128484">
        <ele>2705.77</ele>
        <time>2013-09-10T10:09:08Z</time>
      </trkpt>
      <trkpt lat="42.472593253478408" lon="13.563506025820971">
        <ele>2705.77</ele>
        <time>2013-09-10T10:09:29Z</time>
      </trkpt>
      <trkpt lat="42.472578417509794" lon="13.563481383025646">
        <ele>2705.77</ele>
        <time>2013-09-10T10:09:48Z</time>
      </trkpt>
      <trkpt lat="42.472589481621981" lon="13.563477527350187">
        <ele>2705.77</ele>
        <time>2013-09-10T10:10:06Z</time>
      </trkpt>
      <trkpt lat="42.472585709765553" lon="13.563491022214293">
        <ele>2706.25</ele>
        <time>2013-09-10T10:10:29Z</time>
      </trkpt>
      <trkpt lat="42.47257623821497" lon="13.563494626432657">
        <ele>2707.21</ele>
        <time>2013-09-10T10:10:44Z</time>
      </trkpt>
      <trkpt lat="42.472573556005955" lon="13.563487669453025">
        <ele>2706.73</ele>
        <time>2013-09-10T10:11:04Z</time>
      </trkpt>
      <trkpt lat="42.472584955394268" lon="13.563491273671389">
        <ele>2707.21</ele>
        <time>2013-09-10T10:11:27Z</time>
      </trkpt>
      <trkpt lat="42.472570789977908" lon="13.563504265621305">
        <ele>2708.6500000000001</ele>
        <time>2013-09-10T10:11:49Z</time>
      </trkpt>
      <trkpt lat="42.472569616511464" lon="13.563530249521136">
        <ele>2710.5700000000002</ele>
        <time>2013-09-10T10:12:03Z</time>
      </trkpt>
      <trkpt lat="42.472534077242017" lon="13.563550282269716">
        <ele>2712.98</ele>
        <time>2013-09-10T10:12:23Z</time>
      </trkpt>
      <trkpt lat="42.472507171332836" lon="13.563563525676727">
        <ele>2714.4200000000001</ele>
        <time>2013-09-10T10:12:33Z</time>
      </trkpt>
      <trkpt lat="42.472498286515474" lon="13.563592443242669">
        <ele>2715.8600000000001</ele>
        <time>2013-09-10T10:12:45Z</time>
      </trkpt>
      <trkpt lat="42.472487641498446" lon="13.563647177070379">
        <ele>2717.3000000000002</ele>
        <time>2013-09-10T10:12:53Z</time>
      </trkpt>
      <trkpt lat="42.47250784188509" lon="13.563683303073049">
        <ele>2718.27</ele>
        <time>2013-09-10T10:13:04Z</time>
      </trkpt>
      <trkpt lat="42.472486048936844" lon="13.563721692189574">
        <ele>2718.75</ele>
        <time>2013-09-10T10:13:19Z</time>
      </trkpt>
      <trkpt lat="42.472460735589266" lon="13.563721105456352">
        <ele>2719.71</ele>
        <time>2013-09-10T10:13:31Z</time>
      </trkpt>
      <trkpt lat="42.472440116107464" lon="13.563685482367873">
        <ele>2721.1500000000001</ele>
        <time>2013-09-10T10:13:47Z</time>
      </trkpt>
      <trkpt lat="42.472429303452373" lon="13.563630664721131">
        <ele>2723.5500000000002</ele>
        <time>2013-09-10T10:14:01Z</time>
      </trkpt>
      <trkpt lat="42.472439277917147" lon="13.563614068552852">
        <ele>2724.9899999999998</ele>
        <time>2013-09-10T10:14:09Z</time>
      </trkpt>
      <trkpt lat="42.472449755296111" lon="13.563620019704103">
        <ele>2724.5100000000002</ele>
        <time>2013-09-10T10:14:26Z</time>
      </trkpt>
      <trkpt lat="42.472412539646029" lon="13.563628736883402">
        <ele>2726.4400000000001</ele>
        <time>2013-09-10T10:14:43Z</time>
      </trkpt>
      <trkpt lat="42.472381191328168" lon="13.563607530668378">
        <ele>2727.8800000000001</ele>
        <time>2013-09-10T10:14:58Z</time>
      </trkpt>
      <trkpt lat="42.472369121387601" lon="13.563595712184906">
        <ele>2727.4000000000001</ele>
        <time>2013-09-10T10:15:18Z</time>
      </trkpt>
      <trkpt lat="42.47236518189311" lon="13.56358322314918">
        <ele>2728.3600000000001</ele>
        <time>2013-09-10T10:15:36Z</time>
      </trkpt>
      <trkpt lat="42.472372725605965" lon="13.563597137108445">
        <ele>2728.3600000000001</ele>
        <time>2013-09-10T10:15:48Z</time>
      </trkpt>
      <trkpt lat="42.472391333431005" lon="13.563571320846677">
        <ele>2729.8000000000002</ele>
        <time>2013-09-10T10:16:00Z</time>
      </trkpt>
      <trkpt lat="42.472405163571239" lon="13.563525807112455">
        <ele>2730.7600000000002</ele>
        <time>2013-09-10T10:16:16Z</time>
      </trkpt>
      <trkpt lat="42.472335258498788" lon="13.563482975587249">
        <ele>2732.6799999999998</ele>
        <time>2013-09-10T10:16:23Z</time>
      </trkpt>
      <trkpt lat="42.472287397831678" lon="13.56345028616488">
        <ele>2731.7199999999998</ele>
        <time>2013-09-10T10:16:35Z</time>
      </trkpt>
      <trkpt lat="42.472250936552882" lon="13.563419273123145">
        <ele>2730.2800000000002</ele>
        <time>2013-09-10T10:16:52Z</time>
      </trkpt>
      <trkpt lat="42.472211290150881" lon="13.563319444656372">
        <ele>2727.4000000000001</ele>
        <time>2013-09-10T10:17:05Z</time>
      </trkpt>
      <trkpt lat="42.472171559929848" lon="13.563296729698777">
        <ele>2727.4000000000001</ele>
        <time>2013-09-10T10:17:20Z</time>
      </trkpt>
      <trkpt lat="42.472108108922839" lon="13.56323822401464">
        <ele>2725.96</ele>
        <time>2013-09-10T10:17:33Z</time>
      </trkpt>
      <trkpt lat="42.472071563825011" lon="13.563168235123158">
        <ele>2723.0700000000002</ele>
        <time>2013-09-10T10:17:47Z</time>
      </trkpt>
      <trkpt lat="42.47207148000598" lon="13.56316102668643">
        <ele>2722.5900000000001</ele>
        <time>2013-09-10T10:17:49Z</time>
      </trkpt>
      <trkpt lat="42.472068043425679" lon="13.563135713338852">
        <ele>2721.6300000000001</ele>
        <time>2013-09-10T10:18:05Z</time>
      </trkpt>
      <trkpt lat="42.47208321467042" lon="13.563132863491774">
        <ele>2721.6300000000001</ele>
        <time>2013-09-10T10:18:21Z</time>
      </trkpt>
      <trkpt lat="42.472073491662741" lon="13.563126493245363">
        <ele>2723.5500000000002</ele>
        <time>2013-09-10T10:18:39Z</time>
      </trkpt>
      <trkpt lat="42.472053207457066" lon="13.563109058886766">
        <ele>2724.5100000000002</ele>
        <time>2013-09-10T10:18:50Z</time>
      </trkpt>
      <trkpt lat="42.472046669572592" lon="13.563103107735515">
        <ele>2724.0300000000002</ele>
        <time>2013-09-10T10:19:14Z</time>
      </trkpt>
      <trkpt lat="42.472027307376266" lon="13.563064215704799">
        <ele>2725.48</ele>
        <time>2013-09-10T10:19:31Z</time>
      </trkpt>
      <trkpt lat="42.47200065292418" lon="13.562985844910145">
        <ele>2727.8800000000001</ele>
        <time>2013-09-10T10:19:45Z</time>
      </trkpt>
      <trkpt lat="42.471960335969925" lon="13.562903618440032">
        <ele>2728.8400000000001</ele>
        <time>2013-09-10T10:19:59Z</time>
      </trkpt>
      <trkpt lat="42.471928903833032" lon="13.562872940674424">
        <ele>2730.7600000000002</ele>
        <time>2013-09-10T10:20:11Z</time>
      </trkpt>
      <trkpt lat="42.47192932292819" lon="13.562865983694792">
        <ele>2730.7600000000002</ele>
        <time>2013-09-10T10:20:12Z</time>
      </trkpt>
      <trkpt lat="42.471909960731864" lon="13.562822146341205">
        <ele>2731.7199999999998</ele>
        <time>2013-09-10T10:20:27Z</time>
      </trkpt>
      <trkpt lat="42.471926975995302" lon="13.562830025330186">
        <ele>2731.2399999999998</ele>
        <time>2013-09-10T10:20:45Z</time>
      </trkpt>
      <trkpt lat="42.471894705668092" lon="13.562765568494797">
        <ele>2730.2800000000002</ele>
        <time>2013-09-10T10:21:05Z</time>
      </trkpt>
      <trkpt lat="42.471856232732534" lon="13.562687868252397">
        <ele>2726.9200000000001</ele>
        <time>2013-09-10T10:21:15Z</time>
      </trkpt>
      <trkpt lat="42.471854807808995" lon="13.562667332589626">
        <ele>2724.9899999999998</ele>
        <time>2013-09-10T10:21:26Z</time>
      </trkpt>
      <trkpt lat="42.47184818610549" lon="13.562623662874103">
        <ele>2724.9899999999998</ele>
        <time>2013-09-10T10:21:40Z</time>
      </trkpt>
      <trkpt lat="42.47182815335691" lon="13.562571359798312">
        <ele>2722.5900000000001</ele>
        <time>2013-09-10T10:21:54Z</time>
      </trkpt>
      <trkpt lat="42.47181499376893" lon="13.562526013702154">
        <ele>2721.6300000000001</ele>
        <time>2013-09-10T10:22:05Z</time>
      </trkpt>
      <trkpt lat="42.471812646836042" lon="13.562521487474442">
        <ele>2721.1500000000001</ele>
        <time>2013-09-10T10:22:06Z</time>
      </trkpt>
      <trkpt lat="42.471797475591302" lon="13.562501957640052">
        <ele>2721.6300000000001</ele>
        <time>2013-09-10T10:22:10Z</time>
      </trkpt>
      <trkpt lat="42.471788255497813" lon="13.562473794445395">
        <ele>2721.6300000000001</ele>
        <time>2013-09-10T10:22:26Z</time>
      </trkpt>
      <trkpt lat="42.47171675786376" lon="13.562420150265098">
        <ele>2724.0300000000002</ele>
        <time>2013-09-10T10:22:41Z</time>
      </trkpt>
      <trkpt lat="42.471626652404666" lon="13.562359800562263">
        <ele>2724.5100000000002</ele>
        <time>2013-09-10T10:22:52Z</time>
      </trkpt>
      <trkpt lat="42.471520956605673" lon="13.562257876619697">
        <ele>2722.1100000000001</ele>
        <time>2013-09-10T10:23:03Z</time>
      </trkpt>
      <trkpt lat="42.471518190577626" lon="13.562248153612018">
        <ele>2722.5900000000001</ele>
        <time>2013-09-10T10:23:05Z</time>
      </trkpt>
      <trkpt lat="42.471480639651418" lon="13.562231892719865">
        <ele>2724.5100000000002</ele>
        <time>2013-09-10T10:23:18Z</time>
      </trkpt>
      <trkpt lat="42.471425905823708" lon="13.562224935740232">
        <ele>2724.0300000000002</ele>
        <time>2013-09-10T10:23:31Z</time>
      </trkpt>
      <trkpt lat="42.471388522535563" lon="13.562187049537897">
        <ele>2724.0300000000002</ele>
        <time>2013-09-10T10:23:44Z</time>
      </trkpt>
      <trkpt lat="42.471372848376632" lon="13.562196185812354">
        <ele>2724.9899999999998</ele>
        <time>2013-09-10T10:23:58Z</time>
      </trkpt>
      <trkpt lat="42.471335884183645" lon="13.562182858586311">
        <ele>2725.48</ele>
        <time>2013-09-10T10:24:11Z</time>
      </trkpt>
      <trkpt lat="42.471338314935565" lon="13.562180008739233">
        <ele>2725.48</ele>
        <time>2013-09-10T10:24:14Z</time>
      </trkpt>
      <trkpt lat="42.471345691010356" lon="13.562185121700168">
        <ele>2724.9899999999998</ele>
        <time>2013-09-10T10:24:25Z</time>
      </trkpt>
      <trkpt lat="42.471331944689155" lon="13.562181517481804">
        <ele>2724.9899999999998</ele>
        <time>2013-09-10T10:25:02Z</time>
      </trkpt>
      <trkpt lat="42.471300009638071" lon="13.562171710655093">
        <ele>2724.5100000000002</ele>
        <time>2013-09-10T10:25:37Z</time>
      </trkpt>
      <trkpt lat="42.471276624128222" lon="13.562154276296496">
        <ele>2724.9899999999998</ele>
        <time>2013-09-10T10:26:14Z</time>
      </trkpt>
      <trkpt lat="42.471249382942915" lon="13.562154360115528">
        <ele>2724.9899999999998</ele>
        <time>2013-09-10T10:26:57Z</time>
      </trkpt>
      <trkpt lat="42.471235385164618" lon="13.562119407579303">
        <ele>2725.48</ele>
        <time>2013-09-10T10:27:22Z</time>
      </trkpt>
      <trkpt lat="42.471281569451094" lon="13.562119407579303">
        <ele>2726.4400000000001</ele>
        <time>2013-09-10T10:27:26Z</time>
      </trkpt>
      <trkpt lat="42.471309145912528" lon="13.562167184427381">
        <ele>2726.9200000000001</ele>
        <time>2013-09-10T10:27:39Z</time>
      </trkpt>
      <trkpt lat="42.471301183104515" lon="13.562167603522539">
        <ele>2726.9200000000001</ele>
        <time>2013-09-10T10:27:40Z</time>
      </trkpt>
      <trkpt lat="42.471241923049092" lon="13.562224935740232">
        <ele>2727.8800000000001</ele>
        <time>2013-09-10T10:27:52Z</time>
      </trkpt>
      <trkpt lat="42.471207724884152" lon="13.562253601849079">
        <ele>2730.2800000000002</ele>
        <time>2013-09-10T10:28:05Z</time>
      </trkpt>
      <trkpt lat="42.471157517284155" lon="13.562280926853418">
        <ele>2730.2800000000002</ele>
        <time>2013-09-10T10:28:30Z</time>
      </trkpt>
      <trkpt lat="42.471146201714873" lon="13.562303138896823">
        <ele>2732.1999999999998</ele>
        <time>2013-09-10T10:28:53Z</time>
      </trkpt>
      <trkpt lat="42.471117451786995" lon="13.562340103089809">
        <ele>2735.5700000000002</ele>
        <time>2013-09-10T10:29:02Z</time>
      </trkpt>
      <trkpt lat="42.471121223643422" lon="13.56238067150116">
        <ele>2738.4499999999998</ele>
        <time>2013-09-10T10:29:16Z</time>
      </trkpt>
      <trkpt lat="42.471158774569631" lon="13.562387712299824">
        <ele>2740.8600000000001</ele>
        <time>2013-09-10T10:29:26Z</time>
      </trkpt>
      <trkpt lat="42.471156679093838" lon="13.562394334003329">
        <ele>2740.8600000000001</ele>
        <time>2013-09-10T10:29:27Z</time>
      </trkpt>
      <trkpt lat="42.471173023805022" lon="13.562435237690806">
        <ele>2744.2199999999998</ele>
        <time>2013-09-10T10:29:38Z</time>
      </trkpt>
      <trkpt lat="42.471166988834739" lon="13.562450995668769">
        <ele>2742.7800000000002</ele>
        <time>2013-09-10T10:29:57Z</time>
      </trkpt>
      <trkpt lat="42.471114434301853" lon="13.562497850507498">
        <ele>2744.6999999999998</ele>
        <time>2013-09-10T10:30:09Z</time>
      </trkpt>
      <trkpt lat="42.471104124560952" lon="13.562535317614675">
        <ele>2747.0999999999999</ele>
        <time>2013-09-10T10:30:21Z</time>
      </trkpt>
      <trkpt lat="42.471086019650102" lon="13.562565660104156">
        <ele>2749.9899999999998</ele>
        <time>2013-09-10T10:30:28Z</time>
      </trkpt>
      <trkpt lat="42.471082918345928" lon="13.562571359798312">
        <ele>2749.9899999999998</ele>
        <time>2013-09-10T10:30:29Z</time>
      </trkpt>
      <trkpt lat="42.471076548099518" lon="13.562575299292803">
        <ele>2750.9499999999998</ele>
        <time>2013-09-10T10:30:38Z</time>
      </trkpt>
      <trkpt lat="42.471062550321221" lon="13.562542945146561">
        <ele>2749.5100000000002</ele>
        <time>2013-09-10T10:30:41Z</time>
      </trkpt>
      <trkpt lat="42.47105659916997" lon="13.562548812478781">
        <ele>2750.9499999999998</ele>
        <time>2013-09-10T10:31:02Z</time>
      </trkpt>
      <trkpt lat="42.471050396561623" lon="13.562551159411669">
        <ele>2750.9499999999998</ele>
        <time>2013-09-10T10:31:10Z</time>
      </trkpt>
      <trkpt lat="42.471088031306863" lon="13.562537245452404">
        <ele>2751.4299999999998</ele>
        <time>2013-09-10T10:31:14Z</time>
      </trkpt>
      <trkpt lat="42.471089204773307" lon="13.562565743923187">
        <ele>2751.9099999999999</ele>
        <time>2013-09-10T10:31:27Z</time>
      </trkpt>
      <trkpt lat="42.471102448180318" lon="13.562563564628363">
        <ele>2750.4699999999998</ele>
        <time>2013-09-10T10:31:40Z</time>
      </trkpt>
      <trkpt lat="42.471116948872805" lon="13.562578903511167">
        <ele>2753.8299999999999</ele>
        <time>2013-09-10T10:31:49Z</time>
      </trkpt>
      <trkpt lat="42.471142346039414" lon="13.562615867704153">
        <ele>2754.8000000000002</ele>
        <time>2013-09-10T10:32:04Z</time>
      </trkpt>
      <trkpt lat="42.471146872267127" lon="13.562600528821349">
        <ele>2755.7600000000002</ele>
        <time>2013-09-10T10:32:24Z</time>
      </trkpt>
      <trkpt lat="42.471144692972302" lon="13.56266557238996">
        <ele>2756.7199999999998</ele>
        <time>2013-09-10T10:32:37Z</time>
      </trkpt>
      <trkpt lat="42.471165731549263" lon="13.56272273696959">
        <ele>2758.1599999999999</ele>
        <time>2013-09-10T10:32:49Z</time>
      </trkpt>
      <trkpt lat="42.471201689913869" lon="13.562729526311159">
        <ele>2761.04</ele>
        <time>2013-09-10T10:33:01Z</time>
      </trkpt>
      <trkpt lat="42.471209233626723" lon="13.56277889572084">
        <ele>2763.4499999999998</ele>
        <time>2013-09-10T10:33:11Z</time>
      </trkpt>
      <trkpt lat="42.471222644671798" lon="13.562818961217999">
        <ele>2766.3299999999999</ele>
        <time>2013-09-10T10:33:23Z</time>
      </trkpt>
      <trkpt lat="42.471233457326889" lon="13.562825918197632">
        <ele>2766.8099999999999</ele>
        <time>2013-09-10T10:33:39Z</time>
      </trkpt>
      <trkpt lat="42.471262793987989" lon="13.562855171039701">
        <ele>2770.1799999999998</ele>
        <time>2013-09-10T10:33:52Z</time>
      </trkpt>
      <trkpt lat="42.471296573057771" lon="13.562905043363571">
        <ele>2769.21</ele>
        <time>2013-09-10T10:34:05Z</time>
      </trkpt>
      <trkpt lat="42.471286933869123" lon="13.562941672280431">
        <ele>2772.0999999999999</ele>
        <time>2013-09-10T10:34:22Z</time>
      </trkpt>
      <trkpt lat="42.471308140084147" lon="13.56298022903502">
        <ele>2775.46</ele>
        <time>2013-09-10T10:34:30Z</time>
      </trkpt>
      <trkpt lat="42.471313839778304" lon="13.563000680878758">
        <ele>2776.4200000000001</ele>
        <time>2013-09-10T10:34:40Z</time>
      </trkpt>
      <trkpt lat="42.471296573057771" lon="13.563046529889107">
        <ele>2778.8299999999999</ele>
        <time>2013-09-10T10:34:52Z</time>
      </trkpt>
      <trkpt lat="42.471311911940575" lon="13.563075447455049">
        <ele>2782.1900000000001</ele>
        <time>2013-09-10T10:35:02Z</time>
      </trkpt>
      <trkpt lat="42.471313420683146" lon="13.563081733882427">
        <ele>2783.6300000000001</ele>
        <time>2013-09-10T10:35:05Z</time>
      </trkpt>
      <trkpt lat="42.471333034336567" lon="13.563098162412643">
        <ele>2783.6300000000001</ele>
        <time>2013-09-10T10:35:17Z</time>
      </trkpt>
      <trkpt lat="42.471334543079138" lon="13.563112076371908">
        <ele>2786.52</ele>
        <time>2013-09-10T10:35:22Z</time>
      </trkpt>
      <trkpt lat="42.471335800364614" lon="13.563113752752542">
        <ele>2786.52</ele>
        <time>2013-09-10T10:35:23Z</time>
      </trkpt>
      <trkpt lat="42.471431689336896" lon="13.563166977837682">
        <ele>2789.8800000000001</ele>
        <time>2013-09-10T10:35:36Z</time>
      </trkpt>
      <trkpt lat="42.471400424838066" lon="13.56320746243">
        <ele>2790.8400000000001</ele>
        <time>2013-09-10T10:35:52Z</time>
      </trkpt>
      <trkpt lat="42.471370669081807" lon="13.563243336975574">
        <ele>2793.73</ele>
        <time>2013-09-10T10:36:06Z</time>
      </trkpt>
      <trkpt lat="42.47136740013957" lon="13.563247779384255">
        <ele>2793.73</ele>
        <time>2013-09-10T10:36:07Z</time>
      </trkpt>
      <trkpt lat="42.471327753737569" lon="13.563251383602619">
        <ele>2794.6900000000001</ele>
        <time>2013-09-10T10:36:13Z</time>
      </trkpt>
      <trkpt lat="42.471310067921877" lon="13.563295053318143">
        <ele>2795.1700000000001</ele>
        <time>2013-09-10T10:36:21Z</time>
      </trkpt>
      <trkpt lat="42.471305541694164" lon="13.563297064974904">
        <ele>2793.73</ele>
        <time>2013-09-10T10:36:23Z</time>
      </trkpt>
      <trkpt lat="42.471271259710193" lon="13.563362024724483">
        <ele>2794.6900000000001</ele>
        <time>2013-09-10T10:36:42Z</time>
      </trkpt>
      <trkpt lat="42.471223566681147" lon="13.563410807400942">
        <ele>2796.6100000000001</ele>
        <time>2013-09-10T10:36:57Z</time>
      </trkpt>
      <trkpt lat="42.471187775954604" lon="13.563478030264378">
        <ele>2798.0500000000002</ele>
        <time>2013-09-10T10:37:15Z</time>
      </trkpt>
      <trkpt lat="42.47113186866045" lon="13.563544666394591">
        <ele>2799.5</ele>
        <time>2013-09-10T10:37:32Z</time>
      </trkpt>
      <trkpt lat="42.471131701022387" lon="13.563598897308111">
        <ele>2801.4200000000001</ele>
        <time>2013-09-10T10:37:46Z</time>
      </trkpt>
      <trkpt lat="42.471110578626394" lon="13.563659163191915">
        <ele>2803.3400000000001</ele>
        <time>2013-09-10T10:37:59Z</time>
      </trkpt>
      <trkpt lat="42.471101023256779" lon="13.563689002767205">
        <ele>2805.75</ele>
        <time>2013-09-10T10:38:14Z</time>
      </trkpt>
      <trkpt lat="42.471098257228732" lon="13.563731331378222">
        <ele>2809.1100000000001</ele>
        <time>2013-09-10T10:38:26Z</time>
      </trkpt>
      <trkpt lat="42.471079062670469" lon="13.56376251205802">
        <ele>2810.0700000000002</ele>
        <time>2013-09-10T10:38:41Z</time>
      </trkpt>
      <trkpt lat="42.471074033528566" lon="13.563765110448003">
        <ele>2810.5500000000002</ele>
        <time>2013-09-10T10:38:52Z</time>
      </trkpt>
      <trkpt lat="42.47104930691421" lon="13.563811127096415">
        <ele>2811.9899999999998</ele>
        <time>2013-09-10T10:39:02Z</time>
      </trkpt>
      <trkpt lat="42.471037656068802" lon="13.563845995813608">
        <ele>2813.4400000000001</ele>
        <time>2013-09-10T10:39:13Z</time>
      </trkpt>
      <trkpt lat="42.471021143719554" lon="13.56386611238122">
        <ele>2815.3600000000001</ele>
        <time>2013-09-10T10:39:25Z</time>
      </trkpt>
      <trkpt lat="42.471021227538586" lon="13.563880948349833">
        <ele>2817.7600000000002</ele>
        <time>2013-09-10T10:39:38Z</time>
      </trkpt>
      <trkpt lat="42.471024496480823" lon="13.563910201191902">
        <ele>2819.1999999999998</ele>
        <time>2013-09-10T10:39:50Z</time>
      </trkpt>
      <trkpt lat="42.471013180911541" lon="13.563930569216609">
        <ele>2820.1599999999999</ele>
        <time>2013-09-10T10:39:57Z</time>
      </trkpt>
      <trkpt lat="42.47099700383842" lon="13.563950601965189">
        <ele>2820.6500000000001</ele>
        <time>2013-09-10T10:40:09Z</time>
      </trkpt>
      <trkpt lat="42.470984347164631" lon="13.563948841765523">
        <ele>2821.6100000000001</ele>
        <time>2013-09-10T10:40:35Z</time>
      </trkpt>
      <trkpt lat="42.470991555601358" lon="13.564000641927123">
        <ele>2823.5300000000002</ele>
        <time>2013-09-10T10:40:48Z</time>
      </trkpt>
      <trkpt lat="42.470967499539256" lon="13.564042551442981">
        <ele>2825.4499999999998</ele>
        <time>2013-09-10T10:41:01Z</time>
      </trkpt>
      <trkpt lat="42.4709686730057" lon="13.564057135954499">
        <ele>2827.8499999999999</ele>
        <time>2013-09-10T10:41:06Z</time>
      </trkpt>
      <trkpt lat="42.470970349386334" lon="13.564074402675033">
        <ele>2829.3000000000002</ele>
        <time>2013-09-10T10:41:13Z</time>
      </trkpt>
      <trkpt lat="42.470941096544266" lon="13.564080940559506">
        <ele>2832.1799999999998</ele>
        <time>2013-09-10T10:41:27Z</time>
      </trkpt>
      <trkpt lat="42.47093983925879" lon="13.56415000744164">
        <ele>2832.6599999999999</ele>
        <time>2013-09-10T10:41:41Z</time>
      </trkpt>
      <trkpt lat="42.470949729904532" lon="13.56419937685132">
        <ele>2833.6199999999999</ele>
        <time>2013-09-10T10:41:55Z</time>
      </trkpt>
      <trkpt lat="42.470936151221395" lon="13.564194347709417">
        <ele>2835.0599999999999</ele>
        <time>2013-09-10T10:42:08Z</time>
      </trkpt>
      <trkpt lat="42.470921315252781" lon="13.564203064888716">
        <ele>2837.4699999999998</ele>
        <time>2013-09-10T10:42:22Z</time>
      </trkpt>
      <trkpt lat="42.470929780974984" lon="13.564249416813254">
        <ele>2839.3899999999999</ele>
        <time>2013-09-10T10:42:38Z</time>
      </trkpt>
      <trkpt lat="42.470916705206037" lon="13.564283782616258">
        <ele>2841.79</ele>
        <time>2013-09-10T10:42:51Z</time>
      </trkpt>
      <trkpt lat="42.470928691327572" lon="13.564298702403903">
        <ele>2843.7199999999998</ele>
        <time>2013-09-10T10:43:09Z</time>
      </trkpt>
      <trkpt lat="42.470924584195018" lon="13.564351005479693">
        <ele>2844.1999999999998</ele>
        <time>2013-09-10T10:43:20Z</time>
      </trkpt>
      <trkpt lat="42.470898684114218" lon="13.564390735700727">
        <ele>2846.1199999999999</ele>
        <time>2013-09-10T10:43:34Z</time>
      </trkpt>
      <trkpt lat="42.47088317759335" lon="13.564398447051644">
        <ele>2847.0799999999999</ele>
        <time>2013-09-10T10:43:58Z</time>
      </trkpt>
      <trkpt lat="42.470848392695189" lon="13.564439015462995">
        <ele>2849.9699999999998</ele>
        <time>2013-09-10T10:44:10Z</time>
      </trkpt>
      <trkpt lat="42.470841519534588" lon="13.564462065696716">
        <ele>2853.3299999999999</ele>
        <time>2013-09-10T10:44:20Z</time>
      </trkpt>
      <trkpt lat="42.470834478735924" lon="13.564488887786865">
        <ele>2854.77</ele>
        <time>2013-09-10T10:44:34Z</time>
      </trkpt>
      <trkpt lat="42.470824168995023" lon="13.564482098445296">
        <ele>2855.73</ele>
        <time>2013-09-10T10:44:48Z</time>
      </trkpt>
      <trkpt lat="42.470790222287178" lon="13.564503975212574">
        <ele>2855.73</ele>
        <time>2013-09-10T10:45:02Z</time>
      </trkpt>
      <trkpt lat="42.470791060477495" lon="13.564508333802223">
        <ele>2855.73</ele>
        <time>2013-09-10T10:45:21Z</time>
      </trkpt>
      <trkpt lat="42.470795083791018" lon="13.564524007961154">
        <ele>2857.1799999999998</ele>
        <time>2013-09-10T10:45:42Z</time>
      </trkpt>
      <trkpt lat="42.470781169831753" lon="13.564575556665659">
        <ele>2860.54</ele>
        <time>2013-09-10T10:45:51Z</time>
      </trkpt>
      <trkpt lat="42.470786198973656" lon="13.564620902761817">
        <ele>2861.5</ele>
        <time>2013-09-10T10:46:03Z</time>
      </trkpt>
      <trkpt lat="42.470767423510551" lon="13.564654849469662">
        <ele>2863.4200000000001</ele>
        <time>2013-09-10T10:46:18Z</time>
      </trkpt>
      <trkpt lat="42.47074831277132" lon="13.564677564427257">
        <ele>2865.8299999999999</ele>
        <time>2013-09-10T10:46:30Z</time>
      </trkpt>
      <trkpt lat="42.470717383548617" lon="13.564681755378842">
        <ele>2867.75</ele>
        <time>2013-09-10T10:46:46Z</time>
      </trkpt>
      <trkpt lat="42.470687795430422" lon="13.564716624096036">
        <ele>2869.6700000000001</ele>
        <time>2013-09-10T10:46:56Z</time>
      </trkpt>
      <trkpt lat="42.470691483467817" lon="13.564738249406219">
        <ele>2872.5599999999999</ele>
        <time>2013-09-10T10:47:06Z</time>
      </trkpt>
      <trkpt lat="42.470689220353961" lon="13.564738752320409">
        <ele>2873.04</ele>
        <time>2013-09-10T10:47:07Z</time>
      </trkpt>
      <trkpt lat="42.470679162070155" lon="13.564754342660308">
        <ele>2873.04</ele>
        <time>2013-09-10T10:47:22Z</time>
      </trkpt>
      <trkpt lat="42.470651837065816" lon="13.564756438136101">
        <ele>2873.52</ele>
        <time>2013-09-10T10:47:34Z</time>
      </trkpt>
      <trkpt lat="42.470614872872829" lon="13.564730789512396">
        <ele>2875.9200000000001</ele>
        <time>2013-09-10T10:47:49Z</time>
      </trkpt>
      <trkpt lat="42.470605317503214" lon="13.564720060676336">
        <ele>2874.48</ele>
        <time>2013-09-10T10:48:08Z</time>
      </trkpt>
      <trkpt lat="42.470574975013733" lon="13.564697932451963">
        <ele>2875.4400000000001</ele>
        <time>2013-09-10T10:48:25Z</time>
      </trkpt>
      <trkpt lat="42.470573969185352" lon="13.564674463123083">
        <ele>2873.52</ele>
        <time>2013-09-10T10:48:41Z</time>
      </trkpt>
      <trkpt lat="42.470553014427423" lon="13.564644875004888">
        <ele>2873.04</ele>
        <time>2013-09-10T10:48:59Z</time>
      </trkpt>
      <trkpt lat="42.47051035054028" lon="13.564618807286024">
        <ele>2871.1100000000001</ele>
        <time>2013-09-10T10:49:14Z</time>
      </trkpt>
      <trkpt lat="42.470514206215739" lon="13.564607156440616">
        <ele>2871.5999999999999</ele>
        <time>2013-09-10T10:49:40Z</time>
      </trkpt>
      <trkpt lat="42.470503561198711" lon="13.564562061801553">
        <ele>2869.6700000000001</ele>
        <time>2013-09-10T10:49:54Z</time>
      </trkpt>
      <trkpt lat="42.470490653067827" lon="13.564519230276346">
        <ele>2869.1900000000001</ele>
        <time>2013-09-10T10:50:10Z</time>
      </trkpt>
      <trkpt lat="42.470437930896878" lon="13.564509591087699">
        <ele>2870.1500000000001</ele>
        <time>2013-09-10T10:50:25Z</time>
      </trkpt>
      <trkpt lat="42.470450839027762" lon="13.564493414014578">
        <ele>2869.6700000000001</ele>
        <time>2013-09-10T10:50:35Z</time>
      </trkpt>
      <trkpt lat="42.470454107969999" lon="13.564489977434278">
        <ele>2869.1900000000001</ele>
        <time>2013-09-10T10:50:56Z</time>
      </trkpt>
      <trkpt lat="42.470439355820417" lon="13.564510513097048">
        <ele>2868.71</ele>
        <time>2013-09-10T10:51:12Z</time>
      </trkpt>
      <trkpt lat="42.470476320013404" lon="13.564485954120755">
        <ele>2868.23</ele>
        <time>2013-09-10T10:51:30Z</time>
      </trkpt>
      <trkpt lat="42.470470117405057" lon="13.56448913924396">
        <ele>2867.75</ele>
        <time>2013-09-10T10:51:50Z</time>
      </trkpt>
      <trkpt lat="42.470449917018414" lon="13.564484026283026">
        <ele>2868.71</ele>
        <time>2013-09-10T10:52:08Z</time>
      </trkpt>
      <trkpt lat="42.470384873449802" lon="13.564519314095378">
        <ele>2870.6300000000001</ele>
        <time>2013-09-10T10:52:24Z</time>
      </trkpt>
      <trkpt lat="42.470344807952642" lon="13.564538760110736">
        <ele>2872.0799999999999</ele>
        <time>2013-09-10T10:52:34Z</time>
      </trkpt>
      <trkpt lat="42.470299210399389" lon="13.564567761495709">
        <ele>2874.96</ele>
        <time>2013-09-10T10:52:46Z</time>
      </trkpt>
      <trkpt lat="42.470276495441794" lon="13.564546220004559">
        <ele>2875.9200000000001</ele>
        <time>2013-09-10T10:53:00Z</time>
      </trkpt>
      <trkpt lat="42.470280015841126" lon="13.564542029052973">
        <ele>2876.4000000000001</ele>
        <time>2013-09-10T10:53:17Z</time>
      </trkpt>
      <trkpt lat="42.470282195135951" lon="13.564635738730431">
        <ele>2874.48</ele>
        <time>2013-09-10T10:53:33Z</time>
      </trkpt>
      <trkpt lat="42.470259983092546" lon="13.564642528072">
        <ele>2873.52</ele>
        <time>2013-09-10T10:53:40Z</time>
      </trkpt>
      <trkpt lat="42.470229975879192" lon="13.564531803131104">
        <ele>2875.4400000000001</ele>
        <time>2013-09-10T10:53:54Z</time>
      </trkpt>
      <trkpt lat="42.470246823504567" lon="13.564537754282355">
        <ele>2875.4400000000001</ele>
        <time>2013-09-10T10:54:06Z</time>
      </trkpt>
      <trkpt lat="42.470244308933616" lon="13.564542951062322">
        <ele>2875.9200000000001</ele>
        <time>2013-09-10T10:54:13Z</time>
      </trkpt>
      <trkpt lat="42.470227545127273" lon="13.564549908041954">
        <ele>2875.4400000000001</ele>
        <time>2013-09-10T10:54:26Z</time>
      </trkpt>
      <trkpt lat="42.470194352790713" lon="13.564498024061322">
        <ele>2874.48</ele>
        <time>2013-09-10T10:54:43Z</time>
      </trkpt>
      <trkpt lat="42.470182199031115" lon="13.564477823674679">
        <ele>2873.52</ele>
        <time>2013-09-10T10:54:57Z</time>
      </trkpt>
      <trkpt lat="42.470181193202734" lon="13.564457707107067">
        <ele>2874</ele>
        <time>2013-09-10T10:55:11Z</time>
      </trkpt>
      <trkpt lat="42.470183791592717" lon="13.564457036554813">
        <ele>2873.04</ele>
        <time>2013-09-10T10:55:17Z</time>
      </trkpt>
      <trkpt lat="42.470185970887542" lon="13.56449794024229">
        <ele>2873.52</ele>
        <time>2013-09-10T10:55:35Z</time>
      </trkpt>
      <trkpt lat="42.470171470195055" lon="13.56447983533144">
        <ele>2874.96</ele>
        <time>2013-09-10T10:55:47Z</time>
      </trkpt>
      <trkpt lat="42.47018781490624" lon="13.564464244991541">
        <ele>2874</ele>
        <time>2013-09-10T10:56:12Z</time>
      </trkpt>
      <trkpt lat="42.470196364447474" lon="13.564463322982192">
        <ele>2873.04</ele>
        <time>2013-09-10T10:56:25Z</time>
      </trkpt>
      <trkpt lat="42.470212373882532" lon="13.564479416236281">
        <ele>2873.04</ele>
        <time>2013-09-10T10:56:27Z</time>
      </trkpt>
      <trkpt lat="42.470270041376352" lon="13.56456340290606">
        <ele>2874.96</ele>
        <time>2013-09-10T10:56:39Z</time>
      </trkpt>
      <trkpt lat="42.470276830717921" lon="13.564583687111735">
        <ele>2874.96</ele>
        <time>2013-09-10T10:57:01Z</time>
      </trkpt>
      <trkpt lat="42.470307843759656" lon="13.564582513645291">
        <ele>2873.52</ele>
        <time>2013-09-10T10:57:17Z</time>
      </trkpt>
      <trkpt lat="42.470316980034113" lon="13.564530126750469">
        <ele>2872.5599999999999</ele>
        <time>2013-09-10T10:57:33Z</time>
      </trkpt>
      <trkpt lat="42.470372216776013" lon="13.56450917199254">
        <ele>2869.6700000000001</ele>
        <time>2013-09-10T10:57:44Z</time>
      </trkpt>
      <trkpt lat="42.470383699983358" lon="13.564509423449636">
        <ele>2869.1900000000001</ele>
        <time>2013-09-10T10:57:46Z</time>
      </trkpt>
      <trkpt lat="42.470445306971669" lon="13.564486624673009">
        <ele>2869.1900000000001</ele>
        <time>2013-09-10T10:57:59Z</time>
      </trkpt>
      <trkpt lat="42.470442540943623" lon="13.564486457034945">
        <ele>2867.27</ele>
        <time>2013-09-10T10:58:14Z</time>
      </trkpt>
      <trkpt lat="42.470434997230768" lon="13.564496766775846">
        <ele>2868.71</ele>
        <time>2013-09-10T10:58:34Z</time>
      </trkpt>
      <trkpt lat="42.470431728288531" lon="13.564497688785195">
        <ele>2868.71</ele>
        <time>2013-09-10T10:58:51Z</time>
      </trkpt>
      <trkpt lat="42.470345143228769" lon="13.564547225832939">
        <ele>2870.6300000000001</ele>
        <time>2013-09-10T10:59:06Z</time>
      </trkpt>
      <trkpt lat="42.470338018611073" lon="13.564553428441286">
        <ele>2871.5999999999999</ele>
        <time>2013-09-10T10:59:08Z</time>
      </trkpt>
      <trkpt lat="42.470295941457152" lon="13.564569186419249">
        <ele>2874.48</ele>
        <time>2013-09-10T10:59:21Z</time>
      </trkpt>
      <trkpt lat="42.470266940072179" lon="13.564563067629933">
        <ele>2875.4400000000001</ele>
        <time>2013-09-10T10:59:34Z</time>
      </trkpt>
      <trkpt lat="42.470270209014416" lon="13.564530545845628">
        <ele>2875.4400000000001</ele>
        <time>2013-09-10T10:59:47Z</time>
      </trkpt>
      <trkpt lat="42.470274148508906" lon="13.564537921920419">
        <ele>2875.4400000000001</ele>
        <time>2013-09-10T11:00:09Z</time>
      </trkpt>
      <trkpt lat="42.470261827111244" lon="13.56455946341157">
        <ele>2875.9200000000001</ele>
        <time>2013-09-10T11:00:31Z</time>
      </trkpt>
      <trkpt lat="42.470252523198724" lon="13.564564744010568">
        <ele>2874.96</ele>
        <time>2013-09-10T11:00:48Z</time>
      </trkpt>
      <trkpt lat="42.47024062089622" lon="13.564567174762487">
        <ele>2874.96</ele>
        <time>2013-09-10T11:01:07Z</time>
      </trkpt>
      <trkpt lat="42.470223940908909" lon="13.564542112872005">
        <ele>2874.96</ele>
        <time>2013-09-10T11:01:13Z</time>
      </trkpt>
      <trkpt lat="42.470133332535625" lon="13.564459970220923">
        <ele>2873.52</ele>
        <time>2013-09-10T11:01:27Z</time>
      </trkpt>
      <trkpt lat="42.470055129379034" lon="13.564419066533446">
        <ele>2874.48</ele>
        <time>2013-09-10T11:01:40Z</time>
      </trkpt>
      <trkpt lat="42.47006325982511" lon="13.564406996592879">
        <ele>2874.96</ele>
        <time>2013-09-10T11:01:46Z</time>
      </trkpt>
      <trkpt lat="42.470022104680538" lon="13.564383191987872">
        <ele>2874</ele>
        <time>2013-09-10T11:01:50Z</time>
      </trkpt>
      <trkpt lat="42.469965945929289" lon="13.564312113448977">
        <ele>2874.48</ele>
        <time>2013-09-10T11:01:59Z</time>
      </trkpt>
      <trkpt lat="42.46989025734365" lon="13.564263833686709">
        <ele>2875.4400000000001</ele>
        <time>2013-09-10T11:02:13Z</time>
      </trkpt>
      <trkpt lat="42.469818508252501" lon="13.564237179234624">
        <ele>2878.8099999999999</ele>
        <time>2013-09-10T11:02:26Z</time>
      </trkpt>
      <trkpt lat="42.46978523209691" lon="13.564223097637296">
        <ele>2880.73</ele>
        <time>2013-09-10T11:02:39Z</time>
      </trkpt>
      <trkpt lat="42.46976176276803" lon="13.564211027696729">
        <ele>2882.6500000000001</ele>
        <time>2013-09-10T11:02:53Z</time>
      </trkpt>
      <trkpt lat="42.469717087224126" lon="13.564218655228615">
        <ele>2883.6100000000001</ele>
        <time>2013-09-10T11:03:08Z</time>
      </trkpt>
      <trkpt lat="42.469707699492574" lon="13.564264001324773">
        <ele>2885.0500000000002</ele>
        <time>2013-09-10T11:03:19Z</time>
      </trkpt>
      <trkpt lat="42.469735778868198" lon="13.564330385997891">
        <ele>2886.98</ele>
        <time>2013-09-10T11:03:33Z</time>
      </trkpt>
      <trkpt lat="42.469749106094241" lon="13.564380090683699">
        <ele>2889.3800000000001</ele>
        <time>2013-09-10T11:03:48Z</time>
      </trkpt>
      <trkpt lat="42.469744831323624" lon="13.564438512548804">
        <ele>2890.8200000000002</ele>
        <time>2013-09-10T11:04:03Z</time>
      </trkpt>
      <trkpt lat="42.469705352559686" lon="13.564407750964165">
        <ele>2891.7800000000002</ele>
        <time>2013-09-10T11:04:19Z</time>
      </trkpt>
      <trkpt lat="42.469700491055846" lon="13.564462484791875">
        <ele>2892.2600000000002</ele>
        <time>2013-09-10T11:04:41Z</time>
      </trkpt>
      <trkpt lat="42.469664197415113" lon="13.564505400136113">
        <ele>2895.6300000000001</ele>
        <time>2013-09-10T11:04:51Z</time>
      </trkpt>
      <trkpt lat="42.469663275405765" lon="13.564498946070671">
        <ele>2895.6300000000001</ele>
        <time>2013-09-10T11:04:52Z</time>
      </trkpt>
      <trkpt lat="42.469662856310606" lon="13.564484613016248">
        <ele>2893.71</ele>
        <time>2013-09-10T11:04:59Z</time>
      </trkpt>
      <trkpt lat="42.469658832997084" lon="13.564459886401892">
        <ele>2894.6700000000001</ele>
        <time>2013-09-10T11:05:16Z</time>
      </trkpt>
      <trkpt lat="42.469659922644496" lon="13.564441530033946">
        <ele>2895.1500000000001</ele>
        <time>2013-09-10T11:05:37Z</time>
      </trkpt>
      <trkpt lat="42.469648439437151" lon="13.564410014078021">
        <ele>2894.6700000000001</ele>
        <time>2013-09-10T11:05:51Z</time>
      </trkpt>
      <trkpt lat="42.469597896561027" lon="13.564510345458984">
        <ele>2892.7399999999998</ele>
        <time>2013-09-10T11:06:04Z</time>
      </trkpt>
      <trkpt lat="42.469586664810777" lon="13.564523756504059">
        <ele>2891.3000000000002</ele>
        <time>2013-09-10T11:06:07Z</time>
      </trkpt>
      <trkpt lat="42.469552299007773" lon="13.564632218331099">
        <ele>2893.23</ele>
        <time>2013-09-10T11:06:20Z</time>
      </trkpt>
      <trkpt lat="42.46950913220644" lon="13.564721653237939">
        <ele>2893.71</ele>
        <time>2013-09-10T11:06:33Z</time>
      </trkpt>
      <trkpt lat="42.469492787495255" lon="13.564774878323078">
        <ele>2894.6700000000001</ele>
        <time>2013-09-10T11:06:46Z</time>
      </trkpt>
      <trkpt lat="42.469468982890248" lon="13.564839754253626">
        <ele>2898.0300000000002</ele>
        <time>2013-09-10T11:06:59Z</time>
      </trkpt>
      <trkpt lat="42.469429168850183" lon="13.564898762851954">
        <ele>2899.9499999999998</ele>
        <time>2013-09-10T11:07:14Z</time>
      </trkpt>
      <trkpt lat="42.469433778896928" lon="13.564932541921735">
        <ele>2902.8400000000001</ele>
        <time>2013-09-10T11:07:28Z</time>
      </trkpt>
      <trkpt lat="42.469396647065878" lon="13.564950143918395">
        <ele>2903.8000000000002</ele>
        <time>2013-09-10T11:07:41Z</time>
      </trkpt>
      <trkpt lat="42.469386169686913" lon="13.564962632954121">
        <ele>2903.3200000000002</ele>
        <time>2013-09-10T11:07:58Z</time>
      </trkpt>
      <trkpt lat="42.469371668994427" lon="13.565026754513383">
        <ele>2906.6799999999998</ele>
        <time>2013-09-10T11:08:10Z</time>
      </trkpt>
      <trkpt lat="42.469336884096265" lon="13.565068831667304">
        <ele>2907.6500000000001</ele>
        <time>2013-09-10T11:08:24Z</time>
      </trkpt>
      <trkpt lat="42.469317270442843" lon="13.565120380371809">
        <ele>2911.0100000000002</ele>
        <time>2013-09-10T11:08:37Z</time>
      </trkpt>
      <trkpt lat="42.469281060621142" lon="13.565111830830574">
        <ele>2912.4499999999998</ele>
        <time>2013-09-10T11:08:49Z</time>
      </trkpt>
      <trkpt lat="42.469286425039172" lon="13.565110489726067">
        <ele>2912.9299999999998</ele>
        <time>2013-09-10T11:09:08Z</time>
      </trkpt>
      <trkpt lat="42.469334537163377" lon="13.565157176926732">
        <ele>2913.4099999999999</ele>
        <time>2013-09-10T11:09:21Z</time>
      </trkpt>
      <trkpt lat="42.469320120289922" lon="13.565194392576814">
        <ele>2916.3000000000002</ele>
        <time>2013-09-10T11:09:34Z</time>
      </trkpt>
      <trkpt lat="42.469292795285583" lon="13.56525138951838">
        <ele>2918.2199999999998</ele>
        <time>2013-09-10T11:09:47Z</time>
      </trkpt>
      <trkpt lat="42.469319449737668" lon="13.565325485542417">
        <ele>2918.6999999999998</ele>
        <time>2013-09-10T11:09:59Z</time>
      </trkpt>
      <trkpt lat="42.469313247129321" lon="13.565346524119377">
        <ele>2919.6599999999999</ele>
        <time>2013-09-10T11:10:08Z</time>
      </trkpt>
      <trkpt lat="42.469323221594095" lon="13.565395139157772">
        <ele>2919.6599999999999</ele>
        <time>2013-09-10T11:10:21Z</time>
      </trkpt>
      <trkpt lat="42.469315594062209" lon="13.565427158027887">
        <ele>2919.6599999999999</ele>
        <time>2013-09-10T11:10:25Z</time>
      </trkpt>
      <trkpt lat="42.469301177188754" lon="13.5654834844172">
        <ele>2921.5799999999999</ele>
        <time>2013-09-10T11:10:36Z</time>
      </trkpt>
      <trkpt lat="42.469305954873562" lon="13.565492955967784">
        <ele>2920.6199999999999</ele>
        <time>2013-09-10T11:10:47Z</time>
      </trkpt>
      <trkpt lat="42.469316851347685" lon="13.565491028130054">
        <ele>2920.1399999999999</ele>
        <time>2013-09-10T11:10:59Z</time>
      </trkpt>
      <trkpt lat="42.469316935166717" lon="13.565491363406181">
        <ele>2919.6599999999999</ele>
        <time>2013-09-10T11:11:25Z</time>
      </trkpt>
      <trkpt lat="42.469309642910957" lon="13.565501254051924">
        <ele>2919.1799999999998</ele>
        <time>2013-09-10T11:11:37Z</time>
      </trkpt>
      <trkpt lat="42.469329927116632" lon="13.565533692017198">
        <ele>2918.6999999999998</ele>
        <time>2013-09-10T11:11:52Z</time>
      </trkpt>
      <trkpt lat="42.4693264067173" lon="13.565521202981472">
        <ele>2918.6999999999998</ele>
        <time>2013-09-10T11:12:04Z</time>
      </trkpt>
      <trkpt lat="42.46934249997139" lon="13.565530925989151">
        <ele>2918.2199999999998</ele>
        <time>2013-09-10T11:12:24Z</time>
      </trkpt>
      <trkpt lat="42.469347780570388" lon="13.565552132204175">
        <ele>2918.2199999999998</ele>
        <time>2013-09-10T11:12:36Z</time>
      </trkpt>
      <trkpt lat="42.469348786398768" lon="13.5655318479985">
        <ele>2918.6999999999998</ele>
        <time>2013-09-10T11:12:56Z</time>
      </trkpt>
      <trkpt lat="42.469340320676565" lon="13.565506115555763">
        <ele>2919.1799999999998</ele>
        <time>2013-09-10T11:13:11Z</time>
      </trkpt>
      <trkpt lat="42.469314085319638" lon="13.565470157191157">
        <ele>2920.1399999999999</ele>
        <time>2013-09-10T11:13:24Z</time>
      </trkpt>
      <trkpt lat="42.469329591840506" lon="13.565482897683978">
        <ele>2919.6599999999999</ele>
        <time>2013-09-10T11:13:43Z</time>
      </trkpt>
      <trkpt lat="42.469316432252526" lon="13.565488010644913">
        <ele>2919.6599999999999</ele>
        <time>2013-09-10T11:13:56Z</time>
      </trkpt>
      <trkpt lat="42.469298411160707" lon="13.565474767237902">
        <ele>2920.6199999999999</ele>
        <time>2013-09-10T11:14:22Z</time>
      </trkpt>
      <trkpt lat="42.469295309856534" lon="13.565493794158101">
        <ele>2920.6199999999999</ele>
        <time>2013-09-10T11:14:43Z</time>
      </trkpt>
      <trkpt lat="42.469308050349355" lon="13.565487340092659">
        <ele>2920.1399999999999</ele>
        <time>2013-09-10T11:15:06Z</time>
      </trkpt>
      <trkpt lat="42.469325819984078" lon="13.565518772229552">
        <ele>2920.1399999999999</ele>
        <time>2013-09-10T11:15:18Z</time>
      </trkpt>
      <trkpt lat="42.469346355646849" lon="13.565571075305343">
        <ele>2918.6999999999998</ele>
        <time>2013-09-10T11:15:40Z</time>
      </trkpt>
      <trkpt lat="42.469360856339335" lon="13.56556705199182">
        <ele>2919.1799999999998</ele>
        <time>2013-09-10T11:16:00Z</time>
      </trkpt>
      <trkpt lat="42.469365298748016" lon="13.565515587106347">
        <ele>2919.1799999999998</ele>
        <time>2013-09-10T11:16:31Z</time>
      </trkpt>
      <trkpt lat="42.469336465001106" lon="13.565499410033226">
        <ele>2919.6599999999999</ele>
        <time>2013-09-10T11:16:46Z</time>
      </trkpt>
      <trkpt lat="42.469308134168386" lon="13.565492117777467">
        <ele>2920.6199999999999</ele>
        <time>2013-09-10T11:17:04Z</time>
      </trkpt>
      <trkpt lat="42.469312408939004" lon="13.565474348142743">
        <ele>2921.0999999999999</ele>
        <time>2013-09-10T11:17:19Z</time>
      </trkpt>
      <trkpt lat="42.469305032864213" lon="13.565477700904012">
        <ele>2921.5799999999999</ele>
        <time>2013-09-10T11:17:44Z</time>
      </trkpt>
      <trkpt lat="42.469317438080907" lon="13.565502008423209">
        <ele>2921.0999999999999</ele>
        <time>2013-09-10T11:18:06Z</time>
      </trkpt>
      <trkpt lat="42.469316767528653" lon="13.565513994544744">
        <ele>2920.6199999999999</ele>
        <time>2013-09-10T11:18:25Z</time>
      </trkpt>
      <trkpt lat="42.469323808327317" lon="13.565514078363776">
        <ele>2921.0999999999999</ele>
        <time>2013-09-10T11:18:42Z</time>
      </trkpt>
      <trkpt lat="42.469305200502276" lon="13.565495721995831">
        <ele>2921.5799999999999</ele>
        <time>2013-09-10T11:18:56Z</time>
      </trkpt>
      <trkpt lat="42.469324562698603" lon="13.565460601821542">
        <ele>2922.0599999999999</ele>
        <time>2013-09-10T11:19:10Z</time>
      </trkpt>
      <trkpt lat="42.469329088926315" lon="13.565467642620206">
        <ele>2922.54</ele>
        <time>2013-09-10T11:19:28Z</time>
      </trkpt>
      <trkpt lat="42.469311989843845" lon="13.565468564629555">
        <ele>2922.54</ele>
        <time>2013-09-10T11:19:45Z</time>
      </trkpt>
      <trkpt lat="42.469318779185414" lon="13.565501337870955">
        <ele>2923.0300000000002</ele>
        <time>2013-09-10T11:20:02Z</time>
      </trkpt>
      <trkpt lat="42.469311486929655" lon="13.565513994544744">
        <ele>2923.5100000000002</ele>
        <time>2013-09-10T11:20:24Z</time>
      </trkpt>
      <trkpt lat="42.469302183017135" lon="13.565468732267618">
        <ele>2923.0300000000002</ele>
        <time>2013-09-10T11:20:47Z</time>
      </trkpt>
      <trkpt lat="42.46929413639009" lon="13.565435959026217">
        <ele>2923.0300000000002</ele>
        <time>2013-09-10T11:21:06Z</time>
      </trkpt>
      <trkpt lat="42.469299165531993" lon="13.565416429191828">
        <ele>2922.0599999999999</ele>
        <time>2013-09-10T11:21:22Z</time>
      </trkpt>
      <trkpt lat="42.469298494979739" lon="13.565377537161112">
        <ele>2919.6599999999999</ele>
        <time>2013-09-10T11:21:33Z</time>
      </trkpt>
      <trkpt lat="42.469286089763045" lon="13.565425900742412">
        <ele>2919.6599999999999</ele>
        <time>2013-09-10T11:21:44Z</time>
      </trkpt>
      <trkpt lat="42.469303021207452" lon="13.5654834844172">
        <ele>2922.0599999999999</ele>
        <time>2013-09-10T11:21:58Z</time>
      </trkpt>
      <trkpt lat="42.46930344030261" lon="13.565472923219204">
        <ele>2921.5799999999999</ele>
        <time>2013-09-10T11:22:15Z</time>
      </trkpt>
      <trkpt lat="42.469290867447853" lon="13.565482646226883">
        <ele>2922.0599999999999</ele>
        <time>2013-09-10T11:22:37Z</time>
      </trkpt>
      <trkpt lat="42.469297321513295" lon="13.565481891855597">
        <ele>2921.0999999999999</ele>
        <time>2013-09-10T11:22:58Z</time>
      </trkpt>
      <trkpt lat="42.469296818599105" lon="13.565478622913361">
        <ele>2922.54</ele>
        <time>2013-09-10T11:23:02Z</time>
      </trkpt>
      <trkpt lat="42.469302266836166" lon="13.565461188554764">
        <ele>2923.0300000000002</ele>
        <time>2013-09-10T11:23:25Z</time>
      </trkpt>
      <trkpt lat="42.469307715073228" lon="13.565458925440907">
        <ele>2921.5799999999999</ele>
        <time>2013-09-10T11:23:28Z</time>
      </trkpt>
      <trkpt lat="42.469313750043511" lon="13.565466720610857">
        <ele>2922.54</ele>
        <time>2013-09-10T11:23:45Z</time>
      </trkpt>
      <trkpt lat="42.469298494979739" lon="13.565480131655931">
        <ele>2921.0999999999999</ele>
        <time>2013-09-10T11:24:24Z</time>
      </trkpt>
      <trkpt lat="42.469298914074898" lon="13.565468899905682">
        <ele>2921.0999999999999</ele>
        <time>2013-09-10T11:24:42Z</time>
      </trkpt>
      <trkpt lat="42.469298830255866" lon="13.56546931900084">
        <ele>2921.0999999999999</ele>
        <time>2013-09-10T11:24:43Z</time>
      </trkpt>
      <trkpt lat="42.469317270442843" lon="13.565480383113027">
        <ele>2922.0599999999999</ele>
        <time>2013-09-10T11:25:14Z</time>
      </trkpt>
      <trkpt lat="42.469304194673896" lon="13.565479377284646">
        <ele>2922.54</ele>
        <time>2013-09-10T11:25:42Z</time>
      </trkpt>
      <trkpt lat="42.469303691759706" lon="13.565476024523377">
        <ele>2922.0599999999999</ele>
        <time>2013-09-10T11:26:16Z</time>
      </trkpt>
      <trkpt lat="42.469302350655198" lon="13.565479293465614">
        <ele>2922.0599999999999</ele>
        <time>2013-09-10T11:26:51Z</time>
      </trkpt>
      <trkpt lat="42.469304613769054" lon="13.565477952361107">
        <ele>2921.5799999999999</ele>
        <time>2013-09-10T11:27:37Z</time>
      </trkpt>
      <trkpt lat="42.469304949045181" lon="13.565482227131724">
        <ele>2921.0999999999999</ele>
        <time>2013-09-10T11:28:17Z</time>
      </trkpt>
      <trkpt lat="42.469304027035832" lon="13.565474599599838">
        <ele>2921.0999999999999</ele>
        <time>2013-09-10T11:28:50Z</time>
      </trkpt>
      <trkpt lat="42.469305451959372" lon="13.56548105366528">
        <ele>2921.5799999999999</ele>
        <time>2013-09-10T11:29:26Z</time>
      </trkpt>
      <trkpt lat="42.469312911853194" lon="13.565479544922709">
        <ele>2921.5799999999999</ele>
        <time>2013-09-10T11:30:05Z</time>
      </trkpt>
      <trkpt lat="42.469310900196433" lon="13.56547811999917">
        <ele>2922.54</ele>
        <time>2013-09-10T11:30:41Z</time>
      </trkpt>
      <trkpt lat="42.469308134168386" lon="13.565476778894663">
        <ele>2922.0599999999999</ele>
        <time>2013-09-10T11:31:21Z</time>
      </trkpt>
      <trkpt lat="42.469305032864213" lon="13.565477784723043">
        <ele>2921.5799999999999</ele>
        <time>2013-09-10T11:32:05Z</time>
      </trkpt>
      <trkpt lat="42.469314001500607" lon="13.56547711417079">
        <ele>2922.0599999999999</ele>
        <time>2013-09-10T11:32:52Z</time>
      </trkpt>
      <trkpt lat="42.469312828034163" lon="13.565475856885314">
        <ele>2921.5799999999999</ele>
        <time>2013-09-10T11:33:26Z</time>
      </trkpt>
      <trkpt lat="42.469313582405448" lon="13.565470660105348">
        <ele>2919.6599999999999</ele>
        <time>2013-09-10T11:33:29Z</time>
      </trkpt>
      <trkpt lat="42.469312660396099" lon="13.565469570457935">
        <ele>2921.5799999999999</ele>
        <time>2013-09-10T11:33:31Z</time>
      </trkpt>
      <trkpt lat="42.469318443909287" lon="13.565474599599838">
        <ele>2921.5799999999999</ele>
        <time>2013-09-10T11:34:07Z</time>
      </trkpt>
      <trkpt lat="42.469305451959372" lon="13.565466469153762">
        <ele>2921.5799999999999</ele>
        <time>2013-09-10T11:34:44Z</time>
      </trkpt>
      <trkpt lat="42.469304362311959" lon="13.565468145534396">
        <ele>2920.6199999999999</ele>
        <time>2013-09-10T11:35:18Z</time>
      </trkpt>
      <trkpt lat="42.469307128340006" lon="13.565467055886984">
        <ele>2920.6199999999999</ele>
        <time>2013-09-10T11:36:03Z</time>
      </trkpt>
      <trkpt lat="42.469302015379071" lon="13.565466133877635">
        <ele>2920.1399999999999</ele>
        <time>2013-09-10T11:36:46Z</time>
      </trkpt>
      <trkpt lat="42.469310313463211" lon="13.565469570457935">
        <ele>2920.6199999999999</ele>
        <time>2013-09-10T11:37:26Z</time>
      </trkpt>
      <trkpt lat="42.469306541606784" lon="13.565465128049254">
        <ele>2920.1399999999999</ele>
        <time>2013-09-10T11:38:07Z</time>
      </trkpt>
      <trkpt lat="42.469303524121642" lon="13.565478874370456">
        <ele>2921.0999999999999</ele>
        <time>2013-09-10T11:38:43Z</time>
      </trkpt>
      <trkpt lat="42.469304781407118" lon="13.565476443618536">
        <ele>2920.6199999999999</ele>
        <time>2013-09-10T11:39:22Z</time>
      </trkpt>
      <trkpt lat="42.469302266836166" lon="13.565475689247251">
        <ele>2920.6199999999999</ele>
        <time>2013-09-10T11:39:59Z</time>
      </trkpt>
      <trkpt lat="42.469308720901608" lon="13.565475856885314">
        <ele>2920.1399999999999</ele>
        <time>2013-09-10T11:40:42Z</time>
      </trkpt>
      <trkpt lat="42.469300590455532" lon="13.565458757802844">
        <ele>2919.6599999999999</ele>
        <time>2013-09-10T11:41:23Z</time>
      </trkpt>
      <trkpt lat="42.469302602112293" lon="13.565451130270958">
        <ele>2920.6199999999999</ele>
        <time>2013-09-10T11:42:08Z</time>
      </trkpt>
      <trkpt lat="42.469308888539672" lon="13.565476443618536">
        <ele>2921.0999999999999</ele>
        <time>2013-09-10T11:42:30Z</time>
      </trkpt>
      <trkpt lat="42.469306876882911" lon="13.565493458881974">
        <ele>2920.6199999999999</ele>
        <time>2013-09-10T11:42:49Z</time>
      </trkpt>
      <trkpt lat="42.469307463616133" lon="13.565481556579471">
        <ele>2919.6599999999999</ele>
        <time>2013-09-10T11:43:04Z</time>
      </trkpt>
      <trkpt lat="42.469303524121642" lon="13.565482394769788">
        <ele>2921.5799999999999</ele>
        <time>2013-09-10T11:43:31Z</time>
      </trkpt>
      <trkpt lat="42.469303272664547" lon="13.5654869209975">
        <ele>2923.5100000000002</ele>
        <time>2013-09-10T11:43:37Z</time>
      </trkpt>
      <trkpt lat="42.469307715073228" lon="13.565499493852258">
        <ele>2921.5799999999999</ele>
        <time>2013-09-10T11:43:55Z</time>
      </trkpt>
      <trkpt lat="42.469282569363713" lon="13.565501254051924">
        <ele>2919.6599999999999</ele>
        <time>2013-09-10T11:44:14Z</time>
      </trkpt>
      <trkpt lat="42.46928047388792" lon="13.565478371456265">
        <ele>2919.6599999999999</ele>
        <time>2013-09-10T11:44:34Z</time>
      </trkpt>
      <trkpt lat="42.469276115298271" lon="13.565493877977133">
        <ele>2921.0999999999999</ele>
        <time>2013-09-10T11:44:53Z</time>
      </trkpt>
      <trkpt lat="42.469274438917637" lon="13.565487423911691">
        <ele>2921.5799999999999</ele>
        <time>2013-09-10T11:45:09Z</time>
      </trkpt>
      <trkpt lat="42.469282066449523" lon="13.565441155806184">
        <ele>2919.6599999999999</ele>
        <time>2013-09-10T11:45:23Z</time>
      </trkpt>
      <trkpt lat="42.469273852184415" lon="13.565447609871626">
        <ele>2918.2199999999998</ele>
        <time>2013-09-10T11:45:40Z</time>
      </trkpt>
      <trkpt lat="42.46926530264318" lon="13.565435204654932">
        <ele>2919.1799999999998</ele>
        <time>2013-09-10T11:45:58Z</time>
      </trkpt>
      <trkpt lat="42.469296064227819" lon="13.565450459718704">
        <ele>2920.1399999999999</ele>
        <time>2013-09-10T11:46:08Z</time>
      </trkpt>
      <trkpt lat="42.469272427260876" lon="13.565441910177469">
        <ele>2919.6599999999999</ele>
        <time>2013-09-10T11:46:25Z</time>
      </trkpt>
      <trkpt lat="42.469278126955032" lon="13.565439814701676">
        <ele>2920.1399999999999</ele>
        <time>2013-09-10T11:46:44Z</time>
      </trkpt>
      <trkpt lat="42.469274019822478" lon="13.565445430576801">
        <ele>2918.2199999999998</ele>
        <time>2013-09-10T11:47:11Z</time>
      </trkpt>
      <trkpt lat="42.469266476109624" lon="13.565445262938738">
        <ele>2919.1799999999998</ele>
        <time>2013-09-10T11:47:30Z</time>
      </trkpt>
      <trkpt lat="42.46928634122014" lon="13.56541458517313">
        <ele>2918.6999999999998</ele>
        <time>2013-09-10T11:47:40Z</time>
      </trkpt>
      <trkpt lat="42.469309894368052" lon="13.565357755869627">
        <ele>2918.6999999999998</ele>
        <time>2013-09-10T11:47:51Z</time>
      </trkpt>
      <trkpt lat="42.46930536814034" lon="13.565341746434569">
        <ele>2918.6999999999998</ele>
        <time>2013-09-10T11:47:54Z</time>
      </trkpt>
      <trkpt lat="42.469299165531993" lon="13.565237391740084">
        <ele>2917.7399999999998</ele>
        <time>2013-09-10T11:48:06Z</time>
      </trkpt>
      <trkpt lat="42.469269661232829" lon="13.565240995958447">
        <ele>2916.3000000000002</ele>
        <time>2013-09-10T11:48:17Z</time>
      </trkpt>
      <trkpt lat="42.469281144440174" lon="13.56518735177815">
        <ele>2913.8899999999999</ele>
        <time>2013-09-10T11:48:31Z</time>
      </trkpt>
      <trkpt lat="42.469303859397769" lon="13.565152399241924">
        <ele>2913.4099999999999</ele>
        <time>2013-09-10T11:48:42Z</time>
      </trkpt>
      <trkpt lat="42.469295561313629" lon="13.565110489726067">
        <ele>2911.4899999999998</ele>
        <time>2013-09-10T11:48:54Z</time>
      </trkpt>
      <trkpt lat="42.469275612384081" lon="13.565081991255283">
        <ele>2911.9699999999998</ele>
        <time>2013-09-10T11:49:10Z</time>
      </trkpt>
      <trkpt lat="42.469303188845515" lon="13.565113004297018">
        <ele>2910.5300000000002</ele>
        <time>2013-09-10T11:49:25Z</time>
      </trkpt>
      <trkpt lat="42.469333950430155" lon="13.565042428672314">
        <ele>2908.1300000000001</ele>
        <time>2013-09-10T11:49:34Z</time>
      </trkpt>
      <trkpt lat="42.469346271827817" lon="13.565001944079995">
        <ele>2906.6799999999998</ele>
        <time>2013-09-10T11:49:43Z</time>
      </trkpt>
      <trkpt lat="42.469361610710621" lon="13.564977720379829">
        <ele>2905.7199999999998</ele>
        <time>2013-09-10T11:49:49Z</time>
      </trkpt>
      <trkpt lat="42.469404945150018" lon="13.564934050664306">
        <ele>2902.8400000000001</ele>
        <time>2013-09-10T11:49:56Z</time>
      </trkpt>
      <trkpt lat="42.46946856379509" lon="13.564883843064308">
        <ele>2899.9499999999998</ele>
        <time>2013-09-10T11:50:10Z</time>
      </trkpt>
      <trkpt lat="42.469441909343004" lon="13.56483019888401">
        <ele>2897.0700000000002</ele>
        <time>2013-09-10T11:50:22Z</time>
      </trkpt>
      <trkpt lat="42.469481471925974" lon="13.564756102859974">
        <ele>2894.1900000000001</ele>
        <time>2013-09-10T11:50:33Z</time>
      </trkpt>
      <trkpt lat="42.469527823850513" lon="13.564602127298713">
        <ele>2890.3400000000001</ele>
        <time>2013-09-10T11:50:47Z</time>
      </trkpt>
      <trkpt lat="42.469544755294919" lon="13.564552757889032">
        <ele>2887.9400000000001</ele>
        <time>2013-09-10T11:50:52Z</time>
      </trkpt>
      <trkpt lat="42.469534948468208" lon="13.564541526138783">
        <ele>2888.4200000000001</ele>
        <time>2013-09-10T11:50:54Z</time>
      </trkpt>
      <trkpt lat="42.469540312886238" lon="13.564473548904061">
        <ele>2887.46</ele>
        <time>2013-09-10T11:51:01Z</time>
      </trkpt>
      <trkpt lat="42.46954676695168" lon="13.564395848661661">
        <ele>2886.02</ele>
        <time>2013-09-10T11:51:13Z</time>
      </trkpt>
      <trkpt lat="42.469546515494585" lon="13.56433130800724">
        <ele>2883.6100000000001</ele>
        <time>2013-09-10T11:51:28Z</time>
      </trkpt>
      <trkpt lat="42.469576606526971" lon="13.564289733767509">
        <ele>2882.6500000000001</ele>
        <time>2013-09-10T11:51:40Z</time>
      </trkpt>
      <trkpt lat="42.469597980380058" lon="13.564227288588881">
        <ele>2880.73</ele>
        <time>2013-09-10T11:51:53Z</time>
      </trkpt>
      <trkpt lat="42.469667214900255" lon="13.564100386574864">
        <ele>2876.8800000000001</ele>
        <time>2013-09-10T11:52:08Z</time>
      </trkpt>
      <trkpt lat="42.46969286352396" lon="13.564088316634297">
        <ele>2874</ele>
        <time>2013-09-10T11:52:23Z</time>
      </trkpt>
      <trkpt lat="42.469716500490904" lon="13.564075995236635">
        <ele>2873.52</ele>
        <time>2013-09-10T11:52:35Z</time>
      </trkpt>
      <trkpt lat="42.469735192134976" lon="13.564085131511092">
        <ele>2874.96</ele>
        <time>2013-09-10T11:52:49Z</time>
      </trkpt>
      <trkpt lat="42.469766121357679" lon="13.564145900309086">
        <ele>2875.4400000000001</ele>
        <time>2013-09-10T11:53:04Z</time>
      </trkpt>
      <trkpt lat="42.469805851578712" lon="13.564180601388216">
        <ele>2876.4000000000001</ele>
        <time>2013-09-10T11:53:13Z</time>
      </trkpt>
      <trkpt lat="42.469791183248162" lon="13.564218068495393">
        <ele>2877.3600000000001</ele>
        <time>2013-09-10T11:53:26Z</time>
      </trkpt>
      <trkpt lat="42.46974416077137" lon="13.56420423835516">
        <ele>2878.3200000000002</ele>
        <time>2013-09-10T11:53:40Z</time>
      </trkpt>
      <trkpt lat="42.469701580703259" lon="13.564210524782538">
        <ele>2881.21</ele>
        <time>2013-09-10T11:53:50Z</time>
      </trkpt>
      <trkpt lat="42.469698395580053" lon="13.564214464277029">
        <ele>2881.21</ele>
        <time>2013-09-10T11:53:51Z</time>
      </trkpt>
      <trkpt lat="42.469743071123958" lon="13.564207507297397">
        <ele>2878.8099999999999</ele>
        <time>2013-09-10T11:54:10Z</time>
      </trkpt>
      <trkpt lat="42.469795709475875" lon="13.564188899472356">
        <ele>2876.8800000000001</ele>
        <time>2013-09-10T11:54:21Z</time>
      </trkpt>
      <trkpt lat="42.469823034480214" lon="13.564189737662673">
        <ele>2874.96</ele>
        <time>2013-09-10T11:54:31Z</time>
      </trkpt>
      <trkpt lat="42.469861758872867" lon="13.56425411067903">
        <ele>2874.48</ele>
        <time>2013-09-10T11:54:42Z</time>
      </trkpt>
      <trkpt lat="42.469928981736302" lon="13.564295768737793">
        <ele>2872.5599999999999</ele>
        <time>2013-09-10T11:54:55Z</time>
      </trkpt>
      <trkpt lat="42.47004322707653" lon="13.564421078190207">
        <ele>2870.1500000000001</ele>
        <time>2013-09-10T11:55:11Z</time>
      </trkpt>
      <trkpt lat="42.470057141035795" lon="13.564421497285366">
        <ele>2872.5599999999999</ele>
        <time>2013-09-10T11:55:15Z</time>
      </trkpt>
      <trkpt lat="42.470090668648481" lon="13.564441110938787">
        <ele>2871.1100000000001</ele>
        <time>2013-09-10T11:55:19Z</time>
      </trkpt>
      <trkpt lat="42.470170883461833" lon="13.564507830888033">
        <ele>2872.0799999999999</ele>
        <time>2013-09-10T11:55:28Z</time>
      </trkpt>
      <trkpt lat="42.470218492671847" lon="13.564554266631603">
        <ele>2871.5999999999999</ele>
        <time>2013-09-10T11:55:44Z</time>
      </trkpt>
      <trkpt lat="42.470280937850475" lon="13.564558206126094">
        <ele>2872.0799999999999</ele>
        <time>2013-09-10T11:55:57Z</time>
      </trkpt>
      <trkpt lat="42.470267023891211" lon="13.564537335187197">
        <ele>2871.5999999999999</ele>
        <time>2013-09-10T11:56:17Z</time>
      </trkpt>
      <trkpt lat="42.470275824889541" lon="13.564561223611236">
        <ele>2872.5599999999999</ele>
        <time>2013-09-10T11:56:34Z</time>
      </trkpt>
      <trkpt lat="42.470280015841126" lon="13.564561977982521">
        <ele>2871.5999999999999</ele>
        <time>2013-09-10T11:56:51Z</time>
      </trkpt>
      <trkpt lat="42.470307257026434" lon="13.564564073458314">
        <ele>2871.1100000000001</ele>
        <time>2013-09-10T11:57:06Z</time>
      </trkpt>
      <trkpt lat="42.470316896215081" lon="13.564540352672338">
        <ele>2869.6700000000001</ele>
        <time>2013-09-10T11:57:17Z</time>
      </trkpt>
      <trkpt lat="42.470360733568668" lon="13.564514620229602">
        <ele>2867.75</ele>
        <time>2013-09-10T11:57:31Z</time>
      </trkpt>
      <trkpt lat="42.470437008887529" lon="13.564488049596548">
        <ele>2865.3499999999999</ele>
        <time>2013-09-10T11:57:46Z</time>
      </trkpt>
      <trkpt lat="42.470456622540951" lon="13.56448813341558">
        <ele>2864.3899999999999</ele>
        <time>2013-09-10T11:58:01Z</time>
      </trkpt>
      <trkpt lat="42.470480427145958" lon="13.564521074295044">
        <ele>2864.8699999999999</ele>
        <time>2013-09-10T11:58:16Z</time>
      </trkpt>
      <trkpt lat="42.470503728836775" lon="13.564549656584859">
        <ele>2864.3899999999999</ele>
        <time>2013-09-10T11:58:32Z</time>
      </trkpt>
      <trkpt lat="42.470520660281181" lon="13.564567845314741">
        <ele>2863.9000000000001</ele>
        <time>2013-09-10T11:58:47Z</time>
      </trkpt>
      <trkpt lat="42.47055578045547" lon="13.564563319087029">
        <ele>2863.9000000000001</ele>
        <time>2013-09-10T11:59:02Z</time>
      </trkpt>
      <trkpt lat="42.47059634886682" lon="13.564586034044623">
        <ele>2863.4200000000001</ele>
        <time>2013-09-10T11:59:15Z</time>
      </trkpt>
      <trkpt lat="42.47058654204011" lon="13.564547561109066">
        <ele>2861.98</ele>
        <time>2013-09-10T11:59:28Z</time>
      </trkpt>
      <trkpt lat="42.470604311674833" lon="13.564501376822591">
        <ele>2858.6199999999999</ele>
        <time>2013-09-10T11:59:39Z</time>
      </trkpt>
      <trkpt lat="42.470620488747954" lon="13.564454354345798">
        <ele>2857.1799999999998</ele>
        <time>2013-09-10T11:59:52Z</time>
      </trkpt>
      <trkpt lat="42.470643203705549" lon="13.564458126202226">
        <ele>2859.5799999999999</ele>
        <time>2013-09-10T12:00:08Z</time>
      </trkpt>
      <trkpt lat="42.470644293352962" lon="13.564455863088369">
        <ele>2856.21</ele>
        <time>2013-09-10T12:00:22Z</time>
      </trkpt>
      <trkpt lat="42.470645299181342" lon="13.564455863088369">
        <ele>2856.21</ele>
        <time>2013-09-10T12:00:38Z</time>
      </trkpt>
      <trkpt lat="42.470629708841443" lon="13.564403560012579">
        <ele>2855.25</ele>
        <time>2013-09-10T12:00:51Z</time>
      </trkpt>
      <trkpt lat="42.470646053552628" lon="13.564417976886034">
        <ele>2853.8099999999999</ele>
        <time>2013-09-10T12:01:03Z</time>
      </trkpt>
      <trkpt lat="42.470672456547618" lon="13.564430801197886">
        <ele>2851.8899999999999</ele>
        <time>2013-09-10T12:01:17Z</time>
      </trkpt>
      <trkpt lat="42.47069600969553" lon="13.564413283020258">
        <ele>2850.9299999999998</ele>
        <time>2013-09-10T12:01:33Z</time>
      </trkpt>
      <trkpt lat="42.470714449882507" lon="13.564412947744131">
        <ele>2848.52</ele>
        <time>2013-09-10T12:01:41Z</time>
      </trkpt>
      <trkpt lat="42.470743702724576" lon="13.564375396817923">
        <ele>2846.5999999999999</ele>
        <time>2013-09-10T12:01:54Z</time>
      </trkpt>
      <trkpt lat="42.470741523429751" lon="13.564379839226604">
        <ele>2846.5999999999999</ele>
        <time>2013-09-10T12:02:16Z</time>
      </trkpt>
      <trkpt lat="42.470724508166313" lon="13.564368942752481">
        <ele>2846.5999999999999</ele>
        <time>2013-09-10T12:02:29Z</time>
      </trkpt>
      <trkpt lat="42.470712270587683" lon="13.564395178109407">
        <ele>2846.5999999999999</ele>
        <time>2013-09-10T12:02:47Z</time>
      </trkpt>
      <trkpt lat="42.470750156790018" lon="13.564407164230943">
        <ele>2847.5599999999999</ele>
        <time>2013-09-10T12:03:02Z</time>
      </trkpt>
      <trkpt lat="42.470790138468146" lon="13.564380845054984">
        <ele>2845.1599999999999</ele>
        <time>2013-09-10T12:03:16Z</time>
      </trkpt>
      <trkpt lat="42.470813440158963" lon="13.564390819519758">
        <ele>2844.6799999999998</ele>
        <time>2013-09-10T12:03:31Z</time>
      </trkpt>
      <trkpt lat="42.470801118761301" lon="13.564348658546805">
        <ele>2843.7199999999998</ele>
        <time>2013-09-10T12:03:43Z</time>
      </trkpt>
      <trkpt lat="42.470794329419732" lon="13.564330637454987">
        <ele>2843.2399999999998</ele>
        <time>2013-09-10T12:03:53Z</time>
      </trkpt>
      <trkpt lat="42.470828611403704" lon="13.564343880861998">
        <ele>2841.3099999999999</ele>
        <time>2013-09-10T12:04:09Z</time>
      </trkpt>
      <trkpt lat="42.470851158723235" lon="13.564343797042966">
        <ele>2839.3899999999999</ele>
        <time>2013-09-10T12:04:19Z</time>
      </trkpt>
      <trkpt lat="42.470833053812385" lon="13.564303983002901">
        <ele>2839.8699999999999</ele>
        <time>2013-09-10T12:04:32Z</time>
      </trkpt>
      <trkpt lat="42.470872532576323" lon="13.564311861991882">
        <ele>2838.9099999999999</ele>
        <time>2013-09-10T12:04:46Z</time>
      </trkpt>
      <trkpt lat="42.470906814560294" lon="13.564268443733454">
        <ele>2835.5500000000002</ele>
        <time>2013-09-10T12:04:55Z</time>
      </trkpt>
      <trkpt lat="42.470934558659792" lon="13.564263498410583">
        <ele>2834.5799999999999</ele>
        <time>2013-09-10T12:05:03Z</time>
      </trkpt>
      <trkpt lat="42.470955429598689" lon="13.564269281923771">
        <ele>2834.0999999999999</ele>
        <time>2013-09-10T12:05:17Z</time>
      </trkpt>
      <trkpt lat="42.470940509811044" lon="13.564257463440299">
        <ele>2834.5799999999999</ele>
        <time>2013-09-10T12:05:39Z</time>
      </trkpt>
      <trkpt lat="42.47094813734293" lon="13.564233994111419">
        <ele>2834.5799999999999</ele>
        <time>2013-09-10T12:06:00Z</time>
      </trkpt>
      <trkpt lat="42.470960961654782" lon="13.56423256918788">
        <ele>2833.1399999999999</ele>
        <time>2013-09-10T12:06:14Z</time>
      </trkpt>
      <trkpt lat="42.47095157392323" lon="13.564235419034958">
        <ele>2832.1799999999998</ele>
        <time>2013-09-10T12:06:40Z</time>
      </trkpt>
      <trkpt lat="42.470980910584331" lon="13.56421010568738">
        <ele>2831.6999999999998</ele>
        <time>2013-09-10T12:07:01Z</time>
      </trkpt>
      <trkpt lat="42.470985604450107" lon="13.564208848401904">
        <ele>2831.6999999999998</ele>
        <time>2013-09-10T12:07:02Z</time>
      </trkpt>
      <trkpt lat="42.471029860898852" lon="13.564162580296397">
        <ele>2829.3000000000002</ele>
        <time>2013-09-10T12:07:15Z</time>
      </trkpt>
      <trkpt lat="42.471080319955945" lon="13.564104996621609">
        <ele>2826.4099999999999</ele>
        <time>2013-09-10T12:07:25Z</time>
      </trkpt>
      <trkpt lat="42.471098760142922" lon="13.564060907810926">
        <ele>2824.0100000000002</ele>
        <time>2013-09-10T12:07:39Z</time>
      </trkpt>
      <trkpt lat="42.471127929165959" lon="13.564020758494735">
        <ele>2821.6100000000001</ele>
        <time>2013-09-10T12:07:53Z</time>
      </trkpt>
      <trkpt lat="42.471152152866125" lon="13.563977591693401">
        <ele>2820.6500000000001</ele>
        <time>2013-09-10T12:08:05Z</time>
      </trkpt>
      <trkpt lat="42.471137065440416" lon="13.563946075737476">
        <ele>2818.2399999999998</ele>
        <time>2013-09-10T12:08:17Z</time>
      </trkpt>
      <trkpt lat="42.471161121502519" lon="13.563945069909096">
        <ele>2817.7600000000002</ele>
        <time>2013-09-10T12:08:31Z</time>
      </trkpt>
      <trkpt lat="42.471175622195005" lon="13.563880361616611">
        <ele>2814.8800000000001</ele>
        <time>2013-09-10T12:08:39Z</time>
      </trkpt>
      <trkpt lat="42.471181321889162" lon="13.563829148188233">
        <ele>2811.9899999999998</ele>
        <time>2013-09-10T12:08:52Z</time>
      </trkpt>
      <trkpt lat="42.471182914450765" lon="13.563817497342825">
        <ele>2811.0300000000002</ele>
        <time>2013-09-10T12:08:54Z</time>
      </trkpt>
      <trkpt lat="42.471182076260448" lon="13.563839960843325">
        <ele>2811.0300000000002</ele>
        <time>2013-09-10T12:09:12Z</time>
      </trkpt>
      <trkpt lat="42.471198085695505" lon="13.563800817355514">
        <ele>2809.5900000000001</ele>
        <time>2013-09-10T12:09:28Z</time>
      </trkpt>
      <trkpt lat="42.47118953615427" lon="13.563749436289072">
        <ele>2807.1900000000001</ele>
        <time>2013-09-10T12:09:39Z</time>
      </trkpt>
      <trkpt lat="42.471193894743919" lon="13.5637376178056">
        <ele>2806.23</ele>
        <time>2013-09-10T12:09:48Z</time>
      </trkpt>
      <trkpt lat="42.471195235848427" lon="13.56371657922864">
        <ele>2804.3000000000002</ele>
        <time>2013-09-10T12:10:00Z</time>
      </trkpt>
      <trkpt lat="42.471211832016706" lon="13.56366528198123">
        <ele>2802.3800000000001</ele>
        <time>2013-09-10T12:10:14Z</time>
      </trkpt>
      <trkpt lat="42.471202863380313" lon="13.563672322779894">
        <ele>2802.3800000000001</ele>
        <time>2013-09-10T12:10:33Z</time>
      </trkpt>
      <trkpt lat="42.47120713815093" lon="13.563653463497758">
        <ele>2801.9000000000001</ele>
        <time>2013-09-10T12:10:49Z</time>
      </trkpt>
      <trkpt lat="42.471215017139912" lon="13.563639298081398">
        <ele>2800.46</ele>
        <time>2013-09-10T12:10:52Z</time>
      </trkpt>
      <trkpt lat="42.471224572509527" lon="13.563625970855355">
        <ele>2799.98</ele>
        <time>2013-09-10T12:11:08Z</time>
      </trkpt>
      <trkpt lat="42.471216442063451" lon="13.56362521648407">
        <ele>2800.9400000000001</ele>
        <time>2013-09-10T12:11:34Z</time>
      </trkpt>
      <trkpt lat="42.471230691298842" lon="13.563581546768546">
        <ele>2798.54</ele>
        <time>2013-09-10T12:11:45Z</time>
      </trkpt>
      <trkpt lat="42.471254663541913" lon="13.563530836254358">
        <ele>2795.1700000000001</ele>
        <time>2013-09-10T12:11:55Z</time>
      </trkpt>
      <trkpt lat="42.47123739682138" lon="13.563512898981571">
        <ele>2794.21</ele>
        <time>2013-09-10T12:12:08Z</time>
      </trkpt>
      <trkpt lat="42.471247706562281" lon="13.563467971980572">
        <ele>2792.77</ele>
        <time>2013-09-10T12:12:20Z</time>
      </trkpt>
      <trkpt lat="42.471227087080479" lon="13.563438300043344">
        <ele>2790.3600000000001</ele>
        <time>2013-09-10T12:12:31Z</time>
      </trkpt>
      <trkpt lat="42.471221974119544" lon="13.563420614227653">
        <ele>2787.96</ele>
        <time>2013-09-10T12:12:48Z</time>
      </trkpt>
      <trkpt lat="42.4711983371526" lon="13.563392786309123">
        <ele>2786.52</ele>
        <time>2013-09-10T12:13:00Z</time>
      </trkpt>
      <trkpt lat="42.471218034625053" lon="13.563366215676069">
        <ele>2785.0799999999999</ele>
        <time>2013-09-10T12:13:12Z</time>
      </trkpt>
      <trkpt lat="42.471224488690495" lon="13.56333889067173">
        <ele>2784.5999999999999</ele>
        <time>2013-09-10T12:13:24Z</time>
      </trkpt>
      <trkpt lat="42.471286011859775" lon="13.563281055539846">
        <ele>2782.6700000000001</ele>
        <time>2013-09-10T12:13:36Z</time>
      </trkpt>
      <trkpt lat="42.47128626331687" lon="13.563280217349529">
        <ele>2781.71</ele>
        <time>2013-09-10T12:13:54Z</time>
      </trkpt>
      <trkpt lat="42.471311073750257" lon="13.563271081075072">
        <ele>2782.1900000000001</ele>
        <time>2013-09-10T12:14:15Z</time>
      </trkpt>
      <trkpt lat="42.471346445381641" lon="13.563294885680079">
        <ele>2780.75</ele>
        <time>2013-09-10T12:14:39Z</time>
      </trkpt>
      <trkpt lat="42.471355330199003" lon="13.563250293955207">
        <ele>2780.75</ele>
        <time>2013-09-10T12:15:04Z</time>
      </trkpt>
      <trkpt lat="42.471368489786983" lon="13.56322355568409">
        <ele>2778.8299999999999</ele>
        <time>2013-09-10T12:15:16Z</time>
      </trkpt>
      <trkpt lat="42.471405873075128" lon="13.563206121325493">
        <ele>2776.4200000000001</ele>
        <time>2013-09-10T12:15:29Z</time>
      </trkpt>
      <trkpt lat="42.471442418172956" lon="13.56320352293551">
        <ele>2777.3899999999999</ele>
        <time>2013-09-10T12:15:42Z</time>
      </trkpt>
      <trkpt lat="42.471400089561939" lon="13.563158009201288">
        <ele>2775.46</ele>
        <time>2013-09-10T12:15:55Z</time>
      </trkpt>
      <trkpt lat="42.471402771770954" lon="13.563121883198619">
        <ele>2774.02</ele>
        <time>2013-09-10T12:16:05Z</time>
      </trkpt>
      <trkpt lat="42.471388187259436" lon="13.563094055280089">
        <ele>2773.54</ele>
        <time>2013-09-10T12:16:17Z</time>
      </trkpt>
      <trkpt lat="42.471397072076797" lon="13.563076453283429">
        <ele>2772.5799999999999</ele>
        <time>2013-09-10T12:16:21Z</time>
      </trkpt>
      <trkpt lat="42.471381900832057" lon="13.56305499561131">
        <ele>2769.6999999999998</ele>
        <time>2013-09-10T12:16:25Z</time>
      </trkpt>
      <trkpt lat="42.471388187259436" lon="13.563021803274751">
        <ele>2766.8099999999999</ele>
        <time>2013-09-10T12:16:38Z</time>
      </trkpt>
      <trkpt lat="42.471379721537232" lon="13.563012415543199">
        <ele>2766.3299999999999</ele>
        <time>2013-09-10T12:16:54Z</time>
      </trkpt>
      <trkpt lat="42.471385588869452" lon="13.563008895143867">
        <ele>2765.3699999999999</ele>
        <time>2013-09-10T12:17:30Z</time>
      </trkpt>
      <trkpt lat="42.471370669081807" lon="13.563010320067406">
        <ele>2766.8099999999999</ele>
        <time>2013-09-10T12:17:49Z</time>
      </trkpt>
      <trkpt lat="42.471363293007016" lon="13.562987353652716">
        <ele>2765.8499999999999</ele>
        <time>2013-09-10T12:17:55Z</time>
      </trkpt>
      <trkpt lat="42.471352396532893" lon="13.562954748049378">
        <ele>2764.4099999999999</ele>
        <time>2013-09-10T12:18:05Z</time>
      </trkpt>
      <trkpt lat="42.471340829506516" lon="13.562903786078095">
        <ele>2762</ele>
        <time>2013-09-10T12:18:17Z</time>
      </trkpt>
      <trkpt lat="42.471317779272795" lon="13.56286053545773">
        <ele>2759.5999999999999</ele>
        <time>2013-09-10T12:18:28Z</time>
      </trkpt>
      <trkpt lat="42.471294980496168" lon="13.562805717810988">
        <ele>2757.1999999999998</ele>
        <time>2013-09-10T12:18:41Z</time>
      </trkpt>
      <trkpt lat="42.471298249438405" lon="13.562797252088785">
        <ele>2755.7600000000002</ele>
        <time>2013-09-10T12:18:45Z</time>
      </trkpt>
      <trkpt lat="42.471293890848756" lon="13.562769088894129">
        <ele>2753.3499999999999</ele>
        <time>2013-09-10T12:18:55Z</time>
      </trkpt>
      <trkpt lat="42.471294645220041" lon="13.56276179663837">
        <ele>2753.3499999999999</ele>
        <time>2013-09-10T12:18:56Z</time>
      </trkpt>
      <trkpt lat="42.47127897106111" lon="13.562731873244047">
        <ele>2751.4299999999998</ele>
        <time>2013-09-10T12:19:06Z</time>
      </trkpt>
      <trkpt lat="42.471274109557271" lon="13.562711756676435">
        <ele>2750.9499999999998</ele>
        <time>2013-09-10T12:19:09Z</time>
      </trkpt>
      <trkpt lat="42.471228009089828" lon="13.56273053213954">
        <ele>2751.4299999999998</ele>
        <time>2013-09-10T12:19:24Z</time>
      </trkpt>
      <trkpt lat="42.471225159242749" lon="13.562759617343545">
        <ele>2751.9099999999999</ele>
        <time>2013-09-10T12:19:42Z</time>
      </trkpt>
      <trkpt lat="42.471228847280145" lon="13.562763724476099">
        <ele>2749.9899999999998</ele>
        <time>2013-09-10T12:19:47Z</time>
      </trkpt>
      <trkpt lat="42.471228847280145" lon="13.562746038660407">
        <ele>2748.5500000000002</ele>
        <time>2013-09-10T12:19:57Z</time>
      </trkpt>
      <trkpt lat="42.47121443040669" lon="13.56274620629847">
        <ele>2749.5100000000002</ele>
        <time>2013-09-10T12:20:18Z</time>
      </trkpt>
      <trkpt lat="42.471247371286154" lon="13.562755845487118">
        <ele>2753.3499999999999</ele>
        <time>2013-09-10T12:20:42Z</time>
      </trkpt>
      <trkpt lat="42.471249885857105" lon="13.562752911821008">
        <ele>2752.3899999999999</ele>
        <time>2013-09-10T12:20:43Z</time>
      </trkpt>
      <trkpt lat="42.471253909170628" lon="13.5627481341362">
        <ele>2749.0300000000002</ele>
        <time>2013-09-10T12:20:45Z</time>
      </trkpt>
      <trkpt lat="42.471252735704184" lon="13.562748804688454">
        <ele>2749.9899999999998</ele>
        <time>2013-09-10T12:20:51Z</time>
      </trkpt>
      <trkpt lat="42.471262207254767" lon="13.562782667577267">
        <ele>2750.9499999999998</ele>
        <time>2013-09-10T12:21:10Z</time>
      </trkpt>
      <trkpt lat="42.471251143142581" lon="13.562771687284112">
        <ele>2750.9499999999998</ele>
        <time>2013-09-10T12:21:33Z</time>
      </trkpt>
      <trkpt lat="42.471190625801682" lon="13.562706727534533">
        <ele>2751.4299999999998</ele>
        <time>2013-09-10T12:21:59Z</time>
      </trkpt>
      <trkpt lat="42.471197247505188" lon="13.562703710049391">
        <ele>2752.3899999999999</ele>
        <time>2013-09-10T12:22:04Z</time>
      </trkpt>
      <trkpt lat="42.471170509234071" lon="13.562661884352565">
        <ele>2749.9899999999998</ele>
        <time>2013-09-10T12:22:10Z</time>
      </trkpt>
      <trkpt lat="42.471142429858446" lon="13.562645204365253">
        <ele>2747.0999999999999</ele>
        <time>2013-09-10T12:22:15Z</time>
      </trkpt>
      <trkpt lat="42.47111233882606" lon="13.562599522992969">
        <ele>2743.7399999999998</ele>
        <time>2013-09-10T12:22:23Z</time>
      </trkpt>
      <trkpt lat="42.471139580011368" lon="13.562515787780285">
        <ele>2739.8899999999999</ele>
        <time>2013-09-10T12:22:29Z</time>
      </trkpt>
      <trkpt lat="42.471147626638412" lon="13.562489133328199">
        <ele>2738.9299999999998</ele>
        <time>2013-09-10T12:22:31Z</time>
      </trkpt>
      <trkpt lat="42.471130695194006" lon="13.562473962083459">
        <ele>2736.5300000000002</ele>
        <time>2013-09-10T12:22:34Z</time>
      </trkpt>
      <trkpt lat="42.471095826476812" lon="13.562456611543894">
        <ele>2736.0500000000002</ele>
        <time>2013-09-10T12:22:47Z</time>
      </trkpt>
      <trkpt lat="42.471080487594008" lon="13.562434315681458">
        <ele>2735.0900000000001</ele>
        <time>2013-09-10T12:22:49Z</time>
      </trkpt>
      <trkpt lat="42.471050815656781" lon="13.562394417822361">
        <ele>2733.6500000000001</ele>
        <time>2013-09-10T12:22:53Z</time>
      </trkpt>
      <trkpt lat="42.470996333286166" lon="13.562313029542565">
        <ele>2730.7600000000002</ele>
        <time>2013-09-10T12:23:02Z</time>
      </trkpt>
      <trkpt lat="42.470972277224064" lon="13.562170872464776">
        <ele>2726.4400000000001</ele>
        <time>2013-09-10T12:23:15Z</time>
      </trkpt>
      <trkpt lat="42.47097060084343" lon="13.562163412570953">
        <ele>2726.9200000000001</ele>
        <time>2013-09-10T12:23:26Z</time>
      </trkpt>
      <trkpt lat="42.470974372699857" lon="13.562110606580973">
        <ele>2724.9899999999998</ele>
        <time>2013-09-10T12:23:49Z</time>
      </trkpt>
      <trkpt lat="42.470950987190008" lon="13.562035504728556">
        <ele>2722.1100000000001</ele>
        <time>2013-09-10T12:23:57Z</time>
      </trkpt>
      <trkpt lat="42.470948053523898" lon="13.562020249664783">
        <ele>2719.71</ele>
        <time>2013-09-10T12:24:13Z</time>
      </trkpt>
      <trkpt lat="42.470919722691178" lon="13.56195411644876">
        <ele>2716.3400000000001</ele>
        <time>2013-09-10T12:24:23Z</time>
      </trkpt>
      <trkpt lat="42.470898432657123" lon="13.561858059838414">
        <ele>2712.98</ele>
        <time>2013-09-10T12:24:34Z</time>
      </trkpt>
      <trkpt lat="42.470903713256121" lon="13.561849426478148">
        <ele>2712.5</ele>
        <time>2013-09-10T12:24:35Z</time>
      </trkpt>
      <trkpt lat="42.470930870622396" lon="13.561857640743256">
        <ele>2712.5</ele>
        <time>2013-09-10T12:24:38Z</time>
      </trkpt>
      <trkpt lat="42.470868593081832" lon="13.561787316575646">
        <ele>2709.6100000000001</ele>
        <time>2013-09-10T12:24:48Z</time>
      </trkpt>
      <trkpt lat="42.47083330526948" lon="13.56169075705111">
        <ele>2705.77</ele>
        <time>2013-09-10T12:24:57Z</time>
      </trkpt>
      <trkpt lat="42.47083674184978" lon="13.561711795628071">
        <ele>2706.25</ele>
        <time>2013-09-10T12:25:09Z</time>
      </trkpt>
      <trkpt lat="42.470849063247442" lon="13.561724619939923">
        <ele>2704.3299999999999</ele>
        <time>2013-09-10T12:25:47Z</time>
      </trkpt>
      <trkpt lat="42.470857109874487" lon="13.561712298542261">
        <ele>2705.29</ele>
        <time>2013-09-10T12:26:20Z</time>
      </trkpt>
      <trkpt lat="42.470855768769979" lon="13.561711460351944">
        <ele>2706.25</ele>
        <time>2013-09-10T12:26:22Z</time>
      </trkpt>
      <trkpt lat="42.470814194530249" lon="13.561640046536922">
        <ele>2705.77</ele>
        <time>2013-09-10T12:26:40Z</time>
      </trkpt>
      <trkpt lat="42.470808997750282" lon="13.561645243316889">
        <ele>2703.3600000000001</ele>
        <time>2013-09-10T12:26:50Z</time>
      </trkpt>
      <trkpt lat="42.470822324976325" lon="13.561653541401029">
        <ele>2704.3299999999999</ele>
        <time>2013-09-10T12:27:03Z</time>
      </trkpt>
      <trkpt lat="42.470816960558295" lon="13.561609955504537">
        <ele>2704.3299999999999</ele>
        <time>2013-09-10T12:27:11Z</time>
      </trkpt>
      <trkpt lat="42.470802208408713" lon="13.56158958747983">
        <ele>2702.4000000000001</ele>
        <time>2013-09-10T12:27:13Z</time>
      </trkpt>
      <trkpt lat="42.470804136246443" lon="13.561574248597026">
        <ele>2700.96</ele>
        <time>2013-09-10T12:27:30Z</time>
      </trkpt>
      <trkpt lat="42.470777565613389" lon="13.5614615958184">
        <ele>2698.5599999999999</ele>
        <time>2013-09-10T12:27:46Z</time>
      </trkpt>
      <trkpt lat="42.47077270410955" lon="13.561430834233761">
        <ele>2696.1500000000001</ele>
        <time>2013-09-10T12:27:51Z</time>
      </trkpt>
      <trkpt lat="42.470757197588682" lon="13.561366377398372">
        <ele>2695.6700000000001</ele>
        <time>2013-09-10T12:28:04Z</time>
      </trkpt>
      <trkpt lat="42.470743283629417" lon="13.561352463439107">
        <ele>2694.71</ele>
        <time>2013-09-10T12:28:08Z</time>
      </trkpt>
      <trkpt lat="42.470746301114559" lon="13.561362605541945">
        <ele>2696.1500000000001</ele>
        <time>2013-09-10T12:28:22Z</time>
      </trkpt>
      <trkpt lat="42.470728699117899" lon="13.561327233910561">
        <ele>2695.1900000000001</ele>
        <time>2013-09-10T12:28:36Z</time>
      </trkpt>
      <trkpt lat="42.470699194818735" lon="13.561220113188028">
        <ele>2691.3499999999999</ele>
        <time>2013-09-10T12:28:45Z</time>
      </trkpt>
      <trkpt lat="42.470653681084514" lon="13.561105616390705">
        <ele>2690.8699999999999</ele>
        <time>2013-09-10T12:28:57Z</time>
      </trkpt>
      <trkpt lat="42.470642700791359" lon="13.561083236709237">
        <ele>2689.4299999999998</ele>
        <time>2013-09-10T12:29:00Z</time>
      </trkpt>
      <trkpt lat="42.470628870651126" lon="13.561051720753312">
        <ele>2687.5</ele>
        <time>2013-09-10T12:29:03Z</time>
      </trkpt>
      <trkpt lat="42.470610933378339" lon="13.560970919206738">
        <ele>2683.6599999999999</ele>
        <time>2013-09-10T12:29:12Z</time>
      </trkpt>
      <trkpt lat="42.470610765740275" lon="13.560971673578024">
        <ele>2684.6199999999999</ele>
        <time>2013-09-10T12:29:13Z</time>
      </trkpt>
      <trkpt lat="42.470608670264482" lon="13.560906462371349">
        <ele>2681.25</ele>
        <time>2013-09-10T12:29:26Z</time>
      </trkpt>
      <trkpt lat="42.470580926164985" lon="13.560901014134288">
        <ele>2684.6199999999999</ele>
        <time>2013-09-10T12:29:40Z</time>
      </trkpt>
      <trkpt lat="42.470593582838774" lon="13.560892045497894">
        <ele>2682.2199999999998</ele>
        <time>2013-09-10T12:30:01Z</time>
      </trkpt>
      <trkpt lat="42.470571035519242" lon="13.560895565897226">
        <ele>2681.73</ele>
        <time>2013-09-10T12:30:27Z</time>
      </trkpt>
      <trkpt lat="42.470576902851462" lon="13.560909563675523">
        <ele>2680.77</ele>
        <time>2013-09-10T12:30:51Z</time>
      </trkpt>
      <trkpt lat="42.470574723556638" lon="13.5608727671206">
        <ele>2682.2199999999998</ele>
        <time>2013-09-10T12:31:15Z</time>
      </trkpt>
      <trkpt lat="42.470555696636438" lon="13.56083856895566">
        <ele>2682.2199999999998</ele>
        <time>2013-09-10T12:31:31Z</time>
      </trkpt>
      <trkpt lat="42.470522336661816" lon="13.560814345255494">
        <ele>2680.77</ele>
        <time>2013-09-10T12:31:35Z</time>
      </trkpt>
      <trkpt lat="42.470507668331265" lon="13.560816021636128">
        <ele>2681.25</ele>
        <time>2013-09-10T12:31:37Z</time>
      </trkpt>
      <trkpt lat="42.470430387184024" lon="13.560757683590055">
        <ele>2681.73</ele>
        <time>2013-09-10T12:31:45Z</time>
      </trkpt>
      <trkpt lat="42.470428040251136" lon="13.560698423534632">
        <ele>2682.6999999999998</ele>
        <time>2013-09-10T12:31:49Z</time>
      </trkpt>
      <trkpt lat="42.470394093543291" lon="13.560598595067859">
        <ele>2680.29</ele>
        <time>2013-09-10T12:31:57Z</time>
      </trkpt>
      <trkpt lat="42.470394847914577" lon="13.56054394505918">
        <ele>2677.4099999999999</ele>
        <time>2013-09-10T12:32:02Z</time>
      </trkpt>
      <trkpt lat="42.47038378380239" lon="13.560473369434476">
        <ele>2674.04</ele>
        <time>2013-09-10T12:32:09Z</time>
      </trkpt>
      <trkpt lat="42.470374144613743" lon="13.560399860143661">
        <ele>2671.1599999999999</ele>
        <time>2013-09-10T12:32:16Z</time>
      </trkpt>
      <trkpt lat="42.470332067459822" lon="13.560285614803433">
        <ele>2667.3099999999999</ele>
        <time>2013-09-10T12:32:27Z</time>
      </trkpt>
      <trkpt lat="42.470255540683866" lon="13.560150917619467">
        <ele>2664.9099999999999</ele>
        <time>2013-09-10T12:32:38Z</time>
      </trkpt>
      <trkpt lat="42.470248835161328" lon="13.560097357258201">
        <ele>2663.4699999999998</ele>
        <time>2013-09-10T12:32:41Z</time>
      </trkpt>
      <trkpt lat="42.470236429944634" lon="13.56006751768291">
        <ele>2663.4699999999998</ele>
        <time>2013-09-10T12:32:43Z</time>
      </trkpt>
      <trkpt lat="42.470234334468842" lon="13.559915972873569">
        <ele>2660.1100000000001</ele>
        <time>2013-09-10T12:32:53Z</time>
      </trkpt>
      <trkpt lat="42.470229975879192" lon="13.559681782498956">
        <ele>2659.6199999999999</ele>
        <time>2013-09-10T12:33:07Z</time>
      </trkpt>
      <trkpt lat="42.470231233164668" lon="13.559641297906637">
        <ele>2657.6999999999998</ele>
        <time>2013-09-10T12:33:12Z</time>
      </trkpt>
      <trkpt lat="42.470218911767006" lon="13.559571141377091">
        <ele>2659.1399999999999</ele>
        <time>2013-09-10T12:33:19Z</time>
      </trkpt>
      <trkpt lat="42.470210865139961" lon="13.559531662613153">
        <ele>2654.8200000000002</ele>
        <time>2013-09-10T12:33:29Z</time>
      </trkpt>
      <trkpt lat="42.47021178714931" lon="13.559544822201133">
        <ele>2652.9000000000001</ele>
        <time>2013-09-10T12:33:42Z</time>
      </trkpt>
      <trkpt lat="42.470207093283534" lon="13.559540212154388">
        <ele>2652.9000000000001</ele>
        <time>2013-09-10T12:34:18Z</time>
      </trkpt>
      <trkpt lat="42.470220001414418" lon="13.559550940990448">
        <ele>2654.8200000000002</ele>
        <time>2013-09-10T12:34:31Z</time>
      </trkpt>
      <trkpt lat="42.470221845433116" lon="13.559567537158728">
        <ele>2653.8600000000001</ele>
        <time>2013-09-10T12:34:50Z</time>
      </trkpt>
      <trkpt lat="42.470223857089877" lon="13.559563597664237">
        <ele>2653.8600000000001</ele>
        <time>2013-09-10T12:35:16Z</time>
      </trkpt>
      <trkpt lat="42.470216481015086" lon="13.559548845514655">
        <ele>2651.9299999999998</ele>
        <time>2013-09-10T12:35:32Z</time>
      </trkpt>
      <trkpt lat="42.470221091061831" lon="13.559473743662238">
        <ele>2652.9000000000001</ele>
        <time>2013-09-10T12:35:45Z</time>
      </trkpt>
      <trkpt lat="42.470201728865504" lon="13.55938782915473">
        <ele>2651.4499999999998</ele>
        <time>2013-09-10T12:35:50Z</time>
      </trkpt>
      <trkpt lat="42.470170548185706" lon="13.559322031214833">
        <ele>2649.5300000000002</ele>
        <time>2013-09-10T12:35:55Z</time>
      </trkpt>
      <trkpt lat="42.470188736915588" lon="13.559290682896972">
        <ele>2646.1700000000001</ele>
        <time>2013-09-10T12:36:01Z</time>
      </trkpt>
      <trkpt lat="42.470200723037124" lon="13.559282971546054">
        <ele>2645.21</ele>
        <time>2013-09-10T12:36:03Z</time>
      </trkpt>
      <trkpt lat="42.47016241773963" lon="13.559206360951066">
        <ele>2644.2399999999998</ele>
        <time>2013-09-10T12:36:18Z</time>
      </trkpt>
      <trkpt lat="42.470147665590048" lon="13.559193788096309">
        <ele>2644.2399999999998</ele>
        <time>2013-09-10T12:36:20Z</time>
      </trkpt>
      <trkpt lat="42.470130398869514" lon="13.55916746892035">
        <ele>2643.2800000000002</ele>
        <time>2013-09-10T12:36:23Z</time>
      </trkpt>
      <trkpt lat="42.470173398032784" lon="13.55912446975708">
        <ele>2641.3600000000001</ele>
        <time>2013-09-10T12:36:28Z</time>
      </trkpt>
      <trkpt lat="42.47015411965549" lon="13.559081302955747">
        <ele>2639.9200000000001</ele>
        <time>2013-09-10T12:36:36Z</time>
      </trkpt>
      <trkpt lat="42.470136098563671" lon="13.559077698737383">
        <ele>2641.8400000000001</ele>
        <time>2013-09-10T12:36:38Z</time>
      </trkpt>
      <trkpt lat="42.470123190432787" lon="13.55903503485024">
        <ele>2638.48</ele>
        <time>2013-09-10T12:36:42Z</time>
      </trkpt>
      <trkpt lat="42.470129812136292" lon="13.559027994051576">
        <ele>2638.48</ele>
        <time>2013-09-10T12:36:43Z</time>
      </trkpt>
      <trkpt lat="42.470149677246809" lon="13.558999411761761">
        <ele>2638.96</ele>
        <time>2013-09-10T12:36:47Z</time>
      </trkpt>
      <trkpt lat="42.470133667811751" lon="13.558995639905334">
        <ele>2638.48</ele>
        <time>2013-09-10T12:36:49Z</time>
      </trkpt>
      <trkpt lat="42.47011648491025" lon="13.558978792279959">
        <ele>2637.0300000000002</ele>
        <time>2013-09-10T12:36:51Z</time>
      </trkpt>
      <trkpt lat="42.470071390271187" lon="13.55890310369432">
        <ele>2635.1100000000001</ele>
        <time>2013-09-10T12:37:04Z</time>
      </trkpt>
      <trkpt lat="42.470099637284875" lon="13.558870078995824">
        <ele>2633.1900000000001</ele>
        <time>2013-09-10T12:37:11Z</time>
      </trkpt>
      <trkpt lat="42.470109695568681" lon="13.558860355988145">
        <ele>2634.6300000000001</ele>
        <time>2013-09-10T12:37:14Z</time>
      </trkpt>
      <trkpt lat="42.470107767730951" lon="13.558892542496324">
        <ele>2634.6300000000001</ele>
        <time>2013-09-10T12:37:21Z</time>
      </trkpt>
      <trkpt lat="42.470103073865175" lon="13.558884747326374">
        <ele>2633.1900000000001</ele>
        <time>2013-09-10T12:37:36Z</time>
      </trkpt>
      <trkpt lat="42.470071809366345" lon="13.558842670172453">
        <ele>2631.75</ele>
        <time>2013-09-10T12:37:47Z</time>
      </trkpt>
      <trkpt lat="42.470033084973693" lon="13.558795563876629">
        <ele>2629.3400000000001</ele>
        <time>2013-09-10T12:37:52Z</time>
      </trkpt>
      <trkpt lat="42.470026211813092" lon="13.55878290720284">
        <ele>2629.3400000000001</ele>
        <time>2013-09-10T12:37:53Z</time>
      </trkpt>
      <trkpt lat="42.470044232904911" lon="13.558690873906016">
        <ele>2626.46</ele>
        <time>2013-09-10T12:38:03Z</time>
      </trkpt>
      <trkpt lat="42.470016153529286" lon="13.558632368221879">
        <ele>2624.0599999999999</ele>
        <time>2013-09-10T12:38:11Z</time>
      </trkpt>
      <trkpt lat="42.469979776069522" lon="13.558556009083986">
        <ele>2621.6500000000001</ele>
        <time>2013-09-10T12:38:23Z</time>
      </trkpt>
      <trkpt lat="42.469953875988722" lon="13.558449726551771">
        <ele>2618.77</ele>
        <time>2013-09-10T12:38:31Z</time>
      </trkpt>
      <trkpt lat="42.469963263720274" lon="13.558304971083999">
        <ele>2615.8800000000001</ele>
        <time>2013-09-10T12:38:45Z</time>
      </trkpt>
      <trkpt lat="42.469957396388054" lon="13.558253757655621">
        <ele>2613.96</ele>
        <time>2013-09-10T12:38:58Z</time>
      </trkpt>
      <trkpt lat="42.469957647845149" lon="13.558220816776156">
        <ele>2613.48</ele>
        <time>2013-09-10T12:39:00Z</time>
      </trkpt>
      <trkpt lat="42.469993187114596" lon="13.558186367154121">
        <ele>2609.6399999999999</ele>
        <time>2013-09-10T12:39:05Z</time>
      </trkpt>
      <trkpt lat="42.470010370016098" lon="13.558178739622235">
        <ele>2612.04</ele>
        <time>2013-09-10T12:39:08Z</time>
      </trkpt>
      <trkpt lat="42.47001925483346" lon="13.558019399642944">
        <ele>2610.1199999999999</ele>
        <time>2013-09-10T12:39:19Z</time>
      </trkpt>
      <trkpt lat="42.470022859051824" lon="13.557966845110059">
        <ele>2609.1599999999999</ele>
        <time>2013-09-10T12:39:23Z</time>
      </trkpt>
      <trkpt lat="42.470021182671189" lon="13.557918732985854">
        <ele>2606.75</ele>
        <time>2013-09-10T12:39:26Z</time>
      </trkpt>
      <trkpt lat="42.470027804374695" lon="13.557774061337113">
        <ele>2609.1599999999999</ele>
        <time>2013-09-10T12:39:36Z</time>
      </trkpt>
      <trkpt lat="42.470023781061172" lon="13.557726284489036">
        <ele>2606.75</ele>
        <time>2013-09-10T12:39:39Z</time>
      </trkpt>
      <trkpt lat="42.469978770241141" lon="13.557653445750475">
        <ele>2605.3099999999999</ele>
        <time>2013-09-10T12:39:47Z</time>
      </trkpt>
      <trkpt lat="42.469964353367686" lon="13.557500895112753">
        <ele>2606.27</ele>
        <time>2013-09-10T12:40:02Z</time>
      </trkpt>
      <trkpt lat="42.469982374459505" lon="13.557373993098736">
        <ele>2605.79</ele>
        <time>2013-09-10T12:40:17Z</time>
      </trkpt>
      <trkpt lat="42.469973908737302" lon="13.557200655341148">
        <ele>2604.8299999999999</ele>
        <time>2013-09-10T12:40:31Z</time>
      </trkpt>
      <trkpt lat="42.469987152144313" lon="13.557171067222953">
        <ele>2604.8299999999999</ele>
        <time>2013-09-10T12:40:44Z</time>
      </trkpt>
      <trkpt lat="42.469978518784046" lon="13.556976774707437">
        <ele>2604.8299999999999</ele>
        <time>2013-09-10T12:40:59Z</time>
      </trkpt>
      <trkpt lat="42.469973657280207" lon="13.556949701160192">
        <ele>2604.8299999999999</ele>
        <time>2013-09-10T12:41:01Z</time>
      </trkpt>
      <trkpt lat="42.469954462721944" lon="13.556803101673722">
        <ele>2606.27</ele>
        <time>2013-09-10T12:41:12Z</time>
      </trkpt>
      <trkpt lat="42.469943901523948" lon="13.556705703958869">
        <ele>2605.3099999999999</ele>
        <time>2013-09-10T12:41:19Z</time>
      </trkpt>
      <trkpt lat="42.469945158809423" lon="13.556618699803948">
        <ele>2606.75</ele>
        <time>2013-09-10T12:41:25Z</time>
      </trkpt>
      <trkpt lat="42.469907021149993" lon="13.556501353159547">
        <ele>2608.6700000000001</ele>
        <time>2013-09-10T12:41:34Z</time>
      </trkpt>
      <trkpt lat="42.469886904582381" lon="13.556362213566899">
        <ele>2605.3099999999999</ele>
        <time>2013-09-10T12:41:46Z</time>
      </trkpt>
      <trkpt lat="42.469853209331632" lon="13.556165574118495">
        <ele>2603.3899999999999</ele>
        <time>2013-09-10T12:41:59Z</time>
      </trkpt>
      <trkpt lat="42.469832254573703" lon="13.556017968803644">
        <ele>2603.3899999999999</ele>
        <time>2013-09-10T12:42:09Z</time>
      </trkpt>
      <trkpt lat="42.469827895984054" lon="13.55599625967443">
        <ele>2604.3499999999999</ele>
        <time>2013-09-10T12:42:11Z</time>
      </trkpt>
      <trkpt lat="42.469838792458177" lon="13.556018304079771">
        <ele>2602.4299999999998</ele>
        <time>2013-09-10T12:42:31Z</time>
      </trkpt>
      <trkpt lat="42.469833847135305" lon="13.555965078994632">
        <ele>2600.98</ele>
        <time>2013-09-10T12:42:45Z</time>
      </trkpt>
      <trkpt lat="42.46983015909791" lon="13.555835830047727">
        <ele>2599.0599999999999</ele>
        <time>2013-09-10T12:42:59Z</time>
      </trkpt>
      <trkpt lat="42.469806270673871" lon="13.555679675191641">
        <ele>2597.6199999999999</ele>
        <time>2013-09-10T12:43:13Z</time>
      </trkpt>
      <trkpt lat="42.469792272895575" lon="13.55560977011919">
        <ele>2595.6999999999998</ele>
        <time>2013-09-10T12:43:19Z</time>
      </trkpt>
      <trkpt lat="42.46972756460309" lon="13.555522095412016">
        <ele>2595.6999999999998</ele>
        <time>2013-09-10T12:43:27Z</time>
      </trkpt>
      <trkpt lat="42.469715243205428" lon="13.555496362969279">
        <ele>2594.7399999999998</ele>
        <time>2013-09-10T12:43:29Z</time>
      </trkpt>
      <trkpt lat="42.469708118587732" lon="13.555491752922535">
        <ele>2596.1799999999998</ele>
        <time>2013-09-10T12:43:30Z</time>
      </trkpt>
      <trkpt lat="42.469651708379388" lon="13.55544020421803">
        <ele>2593.29</ele>
        <time>2013-09-10T12:43:37Z</time>
      </trkpt>
      <trkpt lat="42.46964642778039" lon="13.555434420704842">
        <ele>2593.29</ele>
        <time>2013-09-10T12:43:38Z</time>
      </trkpt>
      <trkpt lat="42.469624215736985" lon="13.555350182577968">
        <ele>2592.3299999999999</ele>
        <time>2013-09-10T12:43:50Z</time>
      </trkpt>
      <trkpt lat="42.46962153352797" lon="13.555344734340906">
        <ele>2591.8499999999999</ele>
        <time>2013-09-10T12:43:51Z</time>
      </trkpt>
      <trkpt lat="42.469613570719957" lon="13.555332748219371">
        <ele>2590.8899999999999</ele>
        <time>2013-09-10T12:43:53Z</time>
      </trkpt>
      <trkpt lat="42.469581803306937" lon="13.555290754884481">
        <ele>2590.4099999999999</ele>
        <time>2013-09-10T12:43:59Z</time>
      </trkpt>
      <trkpt lat="42.469550874084234" lon="13.555272063240409">
        <ele>2589.9299999999998</ele>
        <time>2013-09-10T12:44:11Z</time>
      </trkpt>
      <trkpt lat="42.46952036395669" lon="13.555190591141582">
        <ele>2586.0799999999999</ele>
        <time>2013-09-10T12:44:21Z</time>
      </trkpt>
      <trkpt lat="42.469518100842834" lon="13.555181790143251">
        <ele>2586.0799999999999</ele>
        <time>2013-09-10T12:44:22Z</time>
      </trkpt>
      <trkpt lat="42.469550371170044" lon="13.555136527866125">
        <ele>2585.1199999999999</ele>
        <time>2013-09-10T12:44:34Z</time>
      </trkpt>
      <trkpt lat="42.469583479687572" lon="13.555105431005359">
        <ele>2581.2800000000002</ele>
        <time>2013-09-10T12:44:45Z</time>
      </trkpt>
      <trkpt lat="42.469579540193081" lon="13.555097552016377">
        <ele>2581.2800000000002</ele>
        <time>2013-09-10T12:44:46Z</time>
      </trkpt>
      <trkpt lat="42.469637207686901" lon="13.555045165121555">
        <ele>2579.3499999999999</ele>
        <time>2013-09-10T12:44:59Z</time>
      </trkpt>
      <trkpt lat="42.469654390588403" lon="13.555046590045094">
        <ele>2578.3899999999999</ele>
        <time>2013-09-10T12:45:01Z</time>
      </trkpt>
      <trkpt lat="42.469690013676882" lon="13.5550497751683">
        <ele>2578.3899999999999</ele>
        <time>2013-09-10T12:45:17Z</time>
      </trkpt>
      <trkpt lat="42.469688588753343" lon="13.555055977776647">
        <ele>2576.4699999999998</ele>
        <time>2013-09-10T12:45:21Z</time>
      </trkpt>
      <trkpt lat="42.469670064747334" lon="13.55504491366446">
        <ele>2579.3499999999999</ele>
        <time>2013-09-10T12:45:32Z</time>
      </trkpt>
      <trkpt lat="42.469705771654844" lon="13.554999651387334">
        <ele>2575.9899999999998</ele>
        <time>2013-09-10T12:45:41Z</time>
      </trkpt>
      <trkpt lat="42.469693534076214" lon="13.554989509284496">
        <ele>2575.5100000000002</ele>
        <time>2013-09-10T12:45:43Z</time>
      </trkpt>
      <trkpt lat="42.469657491892576" lon="13.55500090867281">
        <ele>2574.5500000000002</ele>
        <time>2013-09-10T12:45:55Z</time>
      </trkpt>
      <trkpt lat="42.469649780541658" lon="13.554987581446767">
        <ele>2573.5900000000001</ele>
        <time>2013-09-10T12:45:57Z</time>
      </trkpt>
      <trkpt lat="42.469647936522961" lon="13.554986240342259">
        <ele>2574.5500000000002</ele>
        <time>2013-09-10T12:46:01Z</time>
      </trkpt>
      <trkpt lat="42.469594292342663" lon="13.554939888417721">
        <ele>2572.1399999999999</ele>
        <time>2013-09-10T12:46:12Z</time>
      </trkpt>
      <trkpt lat="42.469600159674883" lon="13.554896134883165">
        <ele>2569.7399999999998</ele>
        <time>2013-09-10T12:46:16Z</time>
      </trkpt>
      <trkpt lat="42.469562524929643" lon="13.554868809878826">
        <ele>2568.7800000000002</ele>
        <time>2013-09-10T12:46:29Z</time>
      </trkpt>
      <trkpt lat="42.469563279300928" lon="13.554857159033418">
        <ele>2568.3000000000002</ele>
        <time>2013-09-10T12:46:32Z</time>
      </trkpt>
      <trkpt lat="42.469528997316957" lon="13.554813154041767">
        <ele>2567.8200000000002</ele>
        <time>2013-09-10T12:46:44Z</time>
      </trkpt>
      <trkpt lat="42.469510640949011" lon="13.554758839309216">
        <ele>2563.9699999999998</ele>
        <time>2013-09-10T12:46:49Z</time>
      </trkpt>
      <trkpt lat="42.469482980668545" lon="13.554759342223406">
        <ele>2567.3400000000001</ele>
        <time>2013-09-10T12:46:53Z</time>
      </trkpt>
      <trkpt lat="42.469475269317627" lon="13.554725144058466">
        <ele>2562.5300000000002</ele>
        <time>2013-09-10T12:46:56Z</time>
      </trkpt>
      <trkpt lat="42.469475688412786" lon="13.554713241755962">
        <ele>2562.0500000000002</ele>
        <time>2013-09-10T12:46:57Z</time>
      </trkpt>
      <trkpt lat="42.469462193548679" lon="13.554695388302207">
        <ele>2565.9000000000001</ele>
        <time>2013-09-10T12:47:00Z</time>
      </trkpt>
      <trkpt lat="42.469454985111952" lon="13.554687509313226">
        <ele>2564.9299999999998</ele>
        <time>2013-09-10T12:47:01Z</time>
      </trkpt>
      <trkpt lat="42.469445848837495" lon="13.554669320583344">
        <ele>2563.0100000000002</ele>
        <time>2013-09-10T12:47:03Z</time>
      </trkpt>
      <trkpt lat="42.469410393387079" lon="13.554645432159305">
        <ele>2562.5300000000002</ele>
        <time>2013-09-10T12:47:09Z</time>
      </trkpt>
      <trkpt lat="42.469379799440503" lon="13.554587010294199">
        <ele>2558.21</ele>
        <time>2013-09-10T12:47:17Z</time>
      </trkpt>
      <trkpt lat="42.469384158030152" lon="13.554604947566986">
        <ele>2560.1300000000001</ele>
        <time>2013-09-10T12:47:33Z</time>
      </trkpt>
      <trkpt lat="42.469387007877231" lon="13.554572677239776">
        <ele>2556.7600000000002</ele>
        <time>2013-09-10T12:47:49Z</time>
      </trkpt>
      <trkpt lat="42.469375608488917" lon="13.554536215960979">
        <ele>2556.2800000000002</ele>
        <time>2013-09-10T12:47:58Z</time>
      </trkpt>
      <trkpt lat="42.46938893571496" lon="13.554512830451131">
        <ele>2560.1300000000001</ele>
        <time>2013-09-10T12:48:03Z</time>
      </trkpt>
      <trkpt lat="42.469395641237497" lon="13.554508807137609">
        <ele>2560.1300000000001</ele>
        <time>2013-09-10T12:48:04Z</time>
      </trkpt>
      <trkpt lat="42.469431012868881" lon="13.554461114108562">
        <ele>2555.8000000000002</ele>
        <time>2013-09-10T12:48:12Z</time>
      </trkpt>
      <trkpt lat="42.469414751976728" lon="13.55445122346282">
        <ele>2554.8400000000001</ele>
        <time>2013-09-10T12:48:14Z</time>
      </trkpt>
      <trkpt lat="42.469403436407447" lon="13.554439824074507">
        <ele>2555.3200000000002</ele>
        <time>2013-09-10T12:48:16Z</time>
      </trkpt>
      <trkpt lat="42.469393461942673" lon="13.554422054439783">
        <ele>2552.9200000000001</ele>
        <time>2013-09-10T12:48:18Z</time>
      </trkpt>
      <trkpt lat="42.469332944601774" lon="13.554339660331607">
        <ele>2550.0300000000002</ele>
        <time>2013-09-10T12:48:29Z</time>
      </trkpt>
      <trkpt lat="42.469274774193764" lon="13.554288111627102">
        <ele>2547.6300000000001</ele>
        <time>2013-09-10T12:48:38Z</time>
      </trkpt>
      <trkpt lat="42.469187350943685" lon="13.55425332672894">
        <ele>2544.27</ele>
        <time>2013-09-10T12:48:51Z</time>
      </trkpt>
      <trkpt lat="42.469154912978411" lon="13.554218290373683">
        <ele>2543.79</ele>
        <time>2013-09-10T12:48:56Z</time>
      </trkpt>
      <trkpt lat="42.469116942957044" lon="13.55421518906951">
        <ele>2540.9000000000001</ele>
        <time>2013-09-10T12:49:01Z</time>
      </trkpt>
      <trkpt lat="42.469100262969732" lon="13.554209908470511">
        <ele>2542.3400000000001</ele>
        <time>2013-09-10T12:49:03Z</time>
      </trkpt>
      <trkpt lat="42.469082912430167" lon="13.554175375029445">
        <ele>2536.5799999999999</ele>
        <time>2013-09-10T12:49:06Z</time>
      </trkpt>
      <trkpt lat="42.469081403687596" lon="13.554170094430447">
        <ele>2538.02</ele>
        <time>2013-09-10T12:49:07Z</time>
      </trkpt>
      <trkpt lat="42.469082744792104" lon="13.554174285382032">
        <ele>2539.46</ele>
        <time>2013-09-10T12:49:08Z</time>
      </trkpt>
      <trkpt lat="42.469051396474242" lon="13.554160622879863">
        <ele>2537.0599999999999</ele>
        <time>2013-09-10T12:49:11Z</time>
      </trkpt>
      <trkpt lat="42.468971852213144" lon="13.554127682000399">
        <ele>2534.1700000000001</ele>
        <time>2013-09-10T12:49:20Z</time>
      </trkpt>
      <trkpt lat="42.468864899128675" lon="13.554138913750648">
        <ele>2533.21</ele>
        <time>2013-09-10T12:49:34Z</time>
      </trkpt>
      <trkpt lat="42.468830365687609" lon="13.554140254855156">
        <ele>2531.77</ele>
        <time>2013-09-10T12:49:38Z</time>
      </trkpt>
      <trkpt lat="42.468754760921001" lon="13.554125502705574">
        <ele>2527.9200000000001</ele>
        <time>2013-09-10T12:49:46Z</time>
      </trkpt>
      <trkpt lat="42.468745959922671" lon="13.554088706150651">
        <ele>2525.04</ele>
        <time>2013-09-10T12:49:50Z</time>
      </trkpt>
      <trkpt lat="42.468740176409483" lon="13.55408476665616">
        <ele>2528.4000000000001</ele>
        <time>2013-09-10T12:49:51Z</time>
      </trkpt>
      <trkpt lat="42.468732884153724" lon="13.554079653695226">
        <ele>2526.48</ele>
        <time>2013-09-10T12:49:52Z</time>
      </trkpt>
      <trkpt lat="42.468716455623507" lon="13.554066997021437">
        <ele>2525.52</ele>
        <time>2013-09-10T12:49:54Z</time>
      </trkpt>
      <trkpt lat="42.468679575249553" lon="13.554059704765677">
        <ele>2525.04</ele>
        <time>2013-09-10T12:49:59Z</time>
      </trkpt>
      <trkpt lat="42.468649568036199" lon="13.554038163274527">
        <ele>2522.1599999999999</ele>
        <time>2013-09-10T12:50:21Z</time>
      </trkpt>
      <trkpt lat="42.468658955767751" lon="13.554059788584709">
        <ele>2525.52</ele>
        <time>2013-09-10T12:50:40Z</time>
      </trkpt>
      <trkpt lat="42.468659374862909" lon="13.554061548784375">
        <ele>2521.6799999999998</ele>
        <time>2013-09-10T12:50:43Z</time>
      </trkpt>
      <trkpt lat="42.468659458681941" lon="13.554060626775026">
        <ele>2522.1599999999999</ele>
        <time>2013-09-10T12:50:44Z</time>
      </trkpt>
      <trkpt lat="42.468589218333364" lon="13.554040677845478">
        <ele>2524.0799999999999</ele>
        <time>2013-09-10T12:51:13Z</time>
      </trkpt>
      <trkpt lat="42.468567509204149" lon="13.554042940959334">
        <ele>2523.5999999999999</ele>
        <time>2013-09-10T12:51:34Z</time>
      </trkpt>
      <trkpt lat="42.468528030440211" lon="13.55403196066618">
        <ele>2522.6399999999999</ele>
        <time>2013-09-10T12:51:52Z</time>
      </trkpt>
      <trkpt lat="42.46846248395741" lon="13.55403003282845">
        <ele>2520.23</ele>
        <time>2013-09-10T12:52:04Z</time>
      </trkpt>
      <trkpt lat="42.468349328264594" lon="13.554063141345978">
        <ele>2516.3899999999999</ele>
        <time>2013-09-10T12:52:17Z</time>
      </trkpt>
      <trkpt lat="42.468342371284962" lon="13.554064650088549">
        <ele>2516.3899999999999</ele>
        <time>2013-09-10T12:52:18Z</time>
      </trkpt>
      <trkpt lat="42.468313286080956" lon="13.554064566269517">
        <ele>2514.4699999999998</ele>
        <time>2013-09-10T12:52:23Z</time>
      </trkpt>
      <trkpt lat="42.46823969297111" lon="13.554031709209085">
        <ele>2513.98</ele>
        <time>2013-09-10T12:52:36Z</time>
      </trkpt>
      <trkpt lat="42.468211948871613" lon="13.55405542999506">
        <ele>2513.98</ele>
        <time>2013-09-10T12:52:39Z</time>
      </trkpt>
      <trkpt lat="42.468161238357425" lon="13.554069260135293">
        <ele>2513.5</ele>
        <time>2013-09-10T12:52:45Z</time>
      </trkpt>
      <trkpt lat="42.468063086271286" lon="13.554114354774356">
        <ele>2511.5799999999999</ele>
        <time>2013-09-10T12:52:57Z</time>
      </trkpt>
      <trkpt lat="42.468041880056262" lon="13.554116617888212">
        <ele>2509.6599999999999</ele>
        <time>2013-09-10T12:52:59Z</time>
      </trkpt>
      <trkpt lat="42.467949595302343" lon="13.554131118580699">
        <ele>2510.1399999999999</ele>
        <time>2013-09-10T12:53:13Z</time>
      </trkpt>
      <trkpt lat="42.467957558110356" lon="13.554168082773685">
        <ele>2510.6199999999999</ele>
        <time>2013-09-10T12:53:15Z</time>
      </trkpt>
      <trkpt lat="42.467967364937067" lon="13.55427872389555">
        <ele>2512.0599999999999</ele>
        <time>2013-09-10T12:53:24Z</time>
      </trkpt>
      <trkpt lat="42.467954289168119" lon="13.554303701967001">
        <ele>2513.5</ele>
        <time>2013-09-10T12:53:27Z</time>
      </trkpt>
      <trkpt lat="42.467903327196836" lon="13.554351311177015">
        <ele>2516.3899999999999</ele>
        <time>2013-09-10T12:53:42Z</time>
      </trkpt>
      <trkpt lat="42.467896956950426" lon="13.554344018921256">
        <ele>2516.8699999999999</ele>
        <time>2013-09-10T12:53:43Z</time>
      </trkpt>
      <trkpt lat="42.467871978878975" lon="13.554317196831107">
        <ele>2516.8699999999999</ele>
        <time>2013-09-10T12:53:46Z</time>
      </trkpt>
      <trkpt lat="42.467841301113367" lon="13.554271431639791">
        <ele>2518.79</ele>
        <time>2013-09-10T12:53:50Z</time>
      </trkpt>
      <trkpt lat="42.467836607247591" lon="13.554256008937955">
        <ele>2515.9099999999999</ele>
        <time>2013-09-10T12:53:59Z</time>
      </trkpt>
      <trkpt lat="42.467839037999511" lon="13.554256930947304">
        <ele>2516.3899999999999</ele>
        <time>2013-09-10T12:54:09Z</time>
      </trkpt>
      <trkpt lat="42.467839708551764" lon="13.554231114685535">
        <ele>2515.9099999999999</ele>
        <time>2013-09-10T12:54:17Z</time>
      </trkpt>
      <trkpt lat="42.467838618904352" lon="13.554177805781364">
        <ele>2514.4699999999998</ele>
        <time>2013-09-10T12:54:21Z</time>
      </trkpt>
      <trkpt lat="42.467839876189828" lon="13.554131118580699">
        <ele>2513.02</ele>
        <time>2013-09-10T12:54:25Z</time>
      </trkpt>
      <trkpt lat="42.467827554792166" lon="13.554088873788714">
        <ele>2509.6599999999999</ele>
        <time>2013-09-10T12:54:29Z</time>
      </trkpt>
      <trkpt lat="42.467820765450597" lon="13.554010922089219">
        <ele>2508.2199999999998</ele>
        <time>2013-09-10T12:54:42Z</time>
      </trkpt>
      <trkpt lat="42.467821184545755" lon="13.55397722683847">
        <ele>2506.77</ele>
        <time>2013-09-10T12:54:45Z</time>
      </trkpt>
      <trkpt lat="42.467839037999511" lon="13.553988458588719">
        <ele>2507.2600000000002</ele>
        <time>2013-09-10T12:54:59Z</time>
      </trkpt>
      <trkpt lat="42.467839624732733" lon="13.553988877683878">
        <ele>2509.1799999999998</ele>
        <time>2013-09-10T12:55:45Z</time>
      </trkpt>
      <trkpt lat="42.467834008857608" lon="13.553985273465514">
        <ele>2507.2600000000002</ele>
        <time>2013-09-10T12:56:41Z</time>
      </trkpt>
      <trkpt lat="42.467838954180479" lon="13.553985105827451">
        <ele>2508.2199999999998</ele>
        <time>2013-09-10T12:57:22Z</time>
      </trkpt>
      <trkpt lat="42.467845324426889" lon="13.553990554064512">
        <ele>2508.6999999999998</ele>
        <time>2013-09-10T12:58:05Z</time>
      </trkpt>
      <trkpt lat="42.467843061313033" lon="13.553984351456165">
        <ele>2507.7399999999998</ele>
        <time>2013-09-10T12:59:03Z</time>
      </trkpt>
      <trkpt lat="42.467822777107358" lon="13.553977059200406">
        <ele>2508.6999999999998</ele>
        <time>2013-09-10T12:59:15Z</time>
      </trkpt>
      <trkpt lat="42.467808863148093" lon="13.553970018401742">
        <ele>2507.2600000000002</ele>
        <time>2013-09-10T12:59:21Z</time>
      </trkpt>
      <trkpt lat="42.467767121270299" lon="13.553963899612427">
        <ele>2507.2600000000002</ele>
        <time>2013-09-10T12:59:27Z</time>
      </trkpt>
      <trkpt lat="42.467682799324393" lon="13.553982255980372">
        <ele>2506.29</ele>
        <time>2013-09-10T12:59:38Z</time>
      </trkpt>
      <trkpt lat="42.467589257284999" lon="13.554002372547984">
        <ele>2502.9299999999998</ele>
        <time>2013-09-10T12:59:46Z</time>
      </trkpt>
      <trkpt lat="42.467548940330744" lon="13.554005306214094">
        <ele>2501.4899999999998</ele>
        <time>2013-09-10T12:59:58Z</time>
      </trkpt>
      <trkpt lat="42.467491691932082" lon="13.553992314264178">
        <ele>2500.0500000000002</ele>
        <time>2013-09-10T13:00:09Z</time>
      </trkpt>
      <trkpt lat="42.467469731345773" lon="13.554030954837799">
        <ele>2499.5700000000002</ele>
        <time>2013-09-10T13:00:23Z</time>
      </trkpt>
      <trkpt lat="42.467440227046609" lon="13.553990134969354">
        <ele>2498.5999999999999</ele>
        <time>2013-09-10T13:00:38Z</time>
      </trkpt>
      <trkpt lat="42.467429498210549" lon="13.553987368941307">
        <ele>2498.1199999999999</ele>
        <time>2013-09-10T13:00:43Z</time>
      </trkpt>
      <trkpt lat="42.467407705262303" lon="13.553911009803414">
        <ele>2497.1599999999999</ele>
        <time>2013-09-10T13:00:52Z</time>
      </trkpt>
      <trkpt lat="42.467370154336095" lon="13.553910506889224">
        <ele>2495.7199999999998</ele>
        <time>2013-09-10T13:00:55Z</time>
      </trkpt>
      <trkpt lat="42.467354731634259" lon="13.553923163563013">
        <ele>2496.1999999999998</ele>
        <time>2013-09-10T13:00:57Z</time>
      </trkpt>
      <trkpt lat="42.467319360002875" lon="13.554100189357996">
        <ele>2496.6799999999998</ele>
        <time>2013-09-10T13:01:13Z</time>
      </trkpt>
      <trkpt lat="42.467275522649288" lon="13.554093148559332">
        <ele>2494.7600000000002</ele>
        <time>2013-09-10T13:01:25Z</time>
      </trkpt>
      <trkpt lat="42.467286502942443" lon="13.554110247641802">
        <ele>2495.7199999999998</ele>
        <time>2013-09-10T13:01:37Z</time>
      </trkpt>
      <trkpt lat="42.467280887067318" lon="13.554105889052153">
        <ele>2496.1999999999998</ele>
        <time>2013-09-10T13:01:53Z</time>
      </trkpt>
      <trkpt lat="42.467286419123411" lon="13.554077809676528">
        <ele>2496.1999999999998</ele>
        <time>2013-09-10T13:02:04Z</time>
      </trkpt>
      <trkpt lat="42.467269320040941" lon="13.554068673402071">
        <ele>2494.2800000000002</ele>
        <time>2013-09-10T13:02:36Z</time>
      </trkpt>
      <trkpt lat="42.467280719429255" lon="13.55407596565783">
        <ele>2494.7600000000002</ele>
        <time>2013-09-10T13:03:05Z</time>
      </trkpt>
      <trkpt lat="42.467283234000206" lon="13.554081497713923">
        <ele>2493.8000000000002</ele>
        <time>2013-09-10T13:03:52Z</time>
      </trkpt>
      <trkpt lat="42.467279294505715" lon="13.554076552391052">
        <ele>2494.2800000000002</ele>
        <time>2013-09-10T13:04:41Z</time>
      </trkpt>
      <trkpt lat="42.467274600639939" lon="13.554070685058832">
        <ele>2494.2800000000002</ele>
        <time>2013-09-10T13:05:12Z</time>
      </trkpt>
      <trkpt lat="42.467279462143779" lon="13.554070768877864">
        <ele>2496.1999999999998</ele>
        <time>2013-09-10T13:05:41Z</time>
      </trkpt>
      <trkpt lat="42.467243755236268" lon="13.553973538801074">
        <ele>2494.2800000000002</ele>
        <time>2013-09-10T13:05:54Z</time>
      </trkpt>
      <trkpt lat="42.467204947024584" lon="13.553904639557004">
        <ele>2492.3600000000001</ele>
        <time>2013-09-10T13:06:02Z</time>
      </trkpt>
      <trkpt lat="42.467128504067659" lon="13.553917380049825">
        <ele>2491.8699999999999</ele>
        <time>2013-09-10T13:06:11Z</time>
      </trkpt>
      <trkpt lat="42.467080224305391" lon="13.553995247930288">
        <ele>2489.9499999999998</ele>
        <time>2013-09-10T13:06:22Z</time>
      </trkpt>
      <trkpt lat="42.467059604823589" lon="13.554008742794394">
        <ele>2488.9899999999998</ele>
        <time>2013-09-10T13:06:24Z</time>
      </trkpt>
      <trkpt lat="42.467053988948464" lon="13.554023914039135">
        <ele>2488.5100000000002</ele>
        <time>2013-09-10T13:06:26Z</time>
      </trkpt>
      <trkpt lat="42.4670694116503" lon="13.554177889600396">
        <ele>2486.1100000000001</ele>
        <time>2013-09-10T13:06:40Z</time>
      </trkpt>
      <trkpt lat="42.467084918171167" lon="13.554172106087208">
        <ele>2485.1500000000001</ele>
        <time>2013-09-10T13:06:44Z</time>
      </trkpt>
      <trkpt lat="42.467085001990199" lon="13.554220553487539">
        <ele>2484.1799999999998</ele>
        <time>2013-09-10T13:06:51Z</time>
      </trkpt>
      <trkpt lat="42.467144094407558" lon="13.55427629314363">
        <ele>2480.8200000000002</ele>
        <time>2013-09-10T13:07:04Z</time>
      </trkpt>
      <trkpt lat="42.467153985053301" lon="13.554301522672176">
        <ele>2480.3400000000001</ele>
        <time>2013-09-10T13:07:06Z</time>
      </trkpt>
      <trkpt lat="42.467189189046621" lon="13.554383162409067">
        <ele>2479.3800000000001</ele>
        <time>2013-09-10T13:07:15Z</time>
      </trkpt>
      <trkpt lat="42.467208802700043" lon="13.554420797154307">
        <ele>2478.4200000000001</ele>
        <time>2013-09-10T13:07:28Z</time>
      </trkpt>
      <trkpt lat="42.467235708609223" lon="13.554485253989697">
        <ele>2475.5300000000002</ele>
        <time>2013-09-10T13:07:40Z</time>
      </trkpt>
      <trkpt lat="42.467234283685684" lon="13.554518027231097">
        <ele>2472.6500000000001</ele>
        <time>2013-09-10T13:07:56Z</time>
      </trkpt>
      <trkpt lat="42.467274349182844" lon="13.554592961445451">
        <ele>2469.2800000000002</ele>
        <time>2013-09-10T13:08:10Z</time>
      </trkpt>
      <trkpt lat="42.467329166829586" lon="13.554653227329254">
        <ele>2467.3600000000001</ele>
        <time>2013-09-10T13:08:24Z</time>
      </trkpt>
      <trkpt lat="42.467306535691023" lon="13.554677534848452">
        <ele>2466.8800000000001</ele>
        <time>2013-09-10T13:08:38Z</time>
      </trkpt>
      <trkpt lat="42.467327658087015" lon="13.554710056632757">
        <ele>2466.8800000000001</ele>
        <time>2013-09-10T13:08:59Z</time>
      </trkpt>
      <trkpt lat="42.467344589531422" lon="13.554724557325244">
        <ele>2466.8800000000001</ele>
        <time>2013-09-10T13:09:02Z</time>
      </trkpt>
      <trkpt lat="42.467364706099033" lon="13.554733274504542">
        <ele>2466.4000000000001</ele>
        <time>2013-09-10T13:09:12Z</time>
      </trkpt>
      <trkpt lat="42.467341655865312" lon="13.554753977805376">
        <ele>2464.96</ele>
        <time>2013-09-10T13:09:25Z</time>
      </trkpt>
      <trkpt lat="42.467368729412556" lon="13.554819272831082">
        <ele>2462.0700000000002</ele>
        <time>2013-09-10T13:09:38Z</time>
      </trkpt>
      <trkpt lat="42.467348445206881" lon="13.554891189560294">
        <ele>2459.6700000000001</ele>
        <time>2013-09-10T13:09:50Z</time>
      </trkpt>
      <trkpt lat="42.467342913150787" lon="13.554964195936918">
        <ele>2457.75</ele>
        <time>2013-09-10T13:09:59Z</time>
      </trkpt>
      <trkpt lat="42.467329250648618" lon="13.555015660822392">
        <ele>2455.8200000000002</ele>
        <time>2013-09-10T13:10:16Z</time>
      </trkpt>
      <trkpt lat="42.467310978099704" lon="13.555016163736582">
        <ele>2456.79</ele>
        <time>2013-09-10T13:10:32Z</time>
      </trkpt>
      <trkpt lat="42.467305781319737" lon="13.555035777390003">
        <ele>2455.3400000000001</ele>
        <time>2013-09-10T13:10:50Z</time>
      </trkpt>
      <trkpt lat="42.467303602024913" lon="13.555053295567632">
        <ele>2453.4200000000001</ele>
        <time>2013-09-10T13:10:52Z</time>
      </trkpt>
      <trkpt lat="42.467325059697032" lon="13.555067460983992">
        <ele>2452.9400000000001</ele>
        <time>2013-09-10T13:11:00Z</time>
      </trkpt>
      <trkpt lat="42.467302093282342" lon="13.555155135691166">
        <ele>2451.02</ele>
        <time>2013-09-10T13:11:06Z</time>
      </trkpt>
      <trkpt lat="42.467236882075667" lon="13.555075172334909">
        <ele>2450.0599999999999</ele>
        <time>2013-09-10T13:11:13Z</time>
      </trkpt>
      <trkpt lat="42.467213915660977" lon="13.555038375779986">
        <ele>2448.1300000000001</ele>
        <time>2013-09-10T13:11:24Z</time>
      </trkpt>
      <trkpt lat="42.467168988659978" lon="13.555005351081491">
        <ele>2447.1700000000001</ele>
        <time>2013-09-10T13:11:39Z</time>
      </trkpt>
      <trkpt lat="42.467170245945454" lon="13.555051703006029">
        <ele>2445.25</ele>
        <time>2013-09-10T13:11:44Z</time>
      </trkpt>
      <trkpt lat="42.467159265652299" lon="13.555054720491171">
        <ele>2443.8099999999999</ele>
        <time>2013-09-10T13:11:50Z</time>
      </trkpt>
      <trkpt lat="42.467186506837606" lon="13.555048685520887">
        <ele>2444.29</ele>
        <time>2013-09-10T13:12:05Z</time>
      </trkpt>
      <trkpt lat="42.467159433290362" lon="13.555088331922889">
        <ele>2443.3299999999999</ele>
        <time>2013-09-10T13:12:22Z</time>
      </trkpt>
      <trkpt lat="42.467146441340446" lon="13.555118506774306">
        <ele>2441.4099999999999</ele>
        <time>2013-09-10T13:12:25Z</time>
      </trkpt>
      <trkpt lat="42.467145351693034" lon="13.555127391591668">
        <ele>2441.8899999999999</ele>
        <time>2013-09-10T13:12:26Z</time>
      </trkpt>
      <trkpt lat="42.467141915112734" lon="13.555177180096507">
        <ele>2440.4400000000001</ele>
        <time>2013-09-10T13:12:30Z</time>
      </trkpt>
      <trkpt lat="42.467131689190865" lon="13.555195368826389">
        <ele>2439</ele>
        <time>2013-09-10T13:12:32Z</time>
      </trkpt>
      <trkpt lat="42.467150799930096" lon="13.555335430428386">
        <ele>2436.1199999999999</ele>
        <time>2013-09-10T13:12:45Z</time>
      </trkpt>
      <trkpt lat="42.467133114114404" lon="13.555454704910517">
        <ele>2432.27</ele>
        <time>2013-09-10T13:13:00Z</time>
      </trkpt>
      <trkpt lat="42.467134036123753" lon="13.555532740429044">
        <ele>2428.9099999999999</ele>
        <time>2013-09-10T13:13:13Z</time>
      </trkpt>
      <trkpt lat="42.467123558744788" lon="13.555664336308837">
        <ele>2425.54</ele>
        <time>2013-09-10T13:13:27Z</time>
      </trkpt>
      <trkpt lat="42.467092126607895" lon="13.555694930255413">
        <ele>2425.0599999999999</ele>
        <time>2013-09-10T13:13:34Z</time>
      </trkpt>
      <trkpt lat="42.467083157971501" lon="13.555744802579284">
        <ele>2422.1799999999998</ele>
        <time>2013-09-10T13:13:38Z</time>
      </trkpt>
      <trkpt lat="42.467047953978181" lon="13.555849241092801">
        <ele>2417.8499999999999</ele>
        <time>2013-09-10T13:13:45Z</time>
      </trkpt>
      <trkpt lat="42.467031357809901" lon="13.555877739563584">
        <ele>2416.4099999999999</ele>
        <time>2013-09-10T13:13:48Z</time>
      </trkpt>
      <trkpt lat="42.466970924288034" lon="13.555921828374267">
        <ele>2413.0500000000002</ele>
        <time>2013-09-10T13:13:54Z</time>
      </trkpt>
      <trkpt lat="42.466957848519087" lon="13.555941609665751">
        <ele>2411.5999999999999</ele>
        <time>2013-09-10T13:13:56Z</time>
      </trkpt>
      <trkpt lat="42.466958183795214" lon="13.555952003225684">
        <ele>2410.6399999999999</ele>
        <time>2013-09-10T13:13:57Z</time>
      </trkpt>
      <trkpt lat="42.466951562091708" lon="13.556001037359238">
        <ele>2409.6799999999998</ele>
        <time>2013-09-10T13:14:01Z</time>
      </trkpt>
      <trkpt lat="42.466894648969173" lon="13.556117713451385">
        <ele>2405.8400000000001</ele>
        <time>2013-09-10T13:14:10Z</time>
      </trkpt>
      <trkpt lat="42.466849805787206" lon="13.556255679577589">
        <ele>2402.4699999999998</ele>
        <time>2013-09-10T13:14:20Z</time>
      </trkpt>
      <trkpt lat="42.466846201568842" lon="13.556268587708473">
        <ele>2401.9899999999998</ele>
        <time>2013-09-10T13:14:21Z</time>
      </trkpt>
      <trkpt lat="42.466841926798224" lon="13.556292057037354">
        <ele>2401.9899999999998</ele>
        <time>2013-09-10T13:14:23Z</time>
      </trkpt>
      <trkpt lat="42.466783756390214" lon="13.556457683444023">
        <ele>2398.6300000000001</ele>
        <time>2013-09-10T13:14:36Z</time>
      </trkpt>
      <trkpt lat="42.466706391423941" lon="13.556542173027992">
        <ele>2396.6999999999998</ele>
        <time>2013-09-10T13:14:47Z</time>
      </trkpt>
      <trkpt lat="42.466674456372857" lon="13.556632027029991">
        <ele>2394.7800000000002</ele>
        <time>2013-09-10T13:14:54Z</time>
      </trkpt>
      <trkpt lat="42.466590637341142" lon="13.556714421138167">
        <ele>2392.3800000000001</ele>
        <time>2013-09-10T13:15:08Z</time>
      </trkpt>
      <trkpt lat="42.466581584885716" lon="13.556733196601272">
        <ele>2391.4200000000001</ele>
        <time>2013-09-10T13:15:22Z</time>
      </trkpt>
      <trkpt lat="42.466504890471697" lon="13.556805783882737">
        <ele>2388.0500000000002</ele>
        <time>2013-09-10T13:15:36Z</time>
      </trkpt>
      <trkpt lat="42.466447725892067" lon="13.556871246546507">
        <ele>2385.1700000000001</ele>
        <time>2013-09-10T13:15:45Z</time>
      </trkpt>
      <trkpt lat="42.466408163309097" lon="13.55693930760026">
        <ele>2382.2800000000002</ele>
        <time>2013-09-10T13:15:56Z</time>
      </trkpt>
      <trkpt lat="42.46635309420526" lon="13.557029915973544">
        <ele>2379.8800000000001</ele>
        <time>2013-09-10T13:16:09Z</time>
      </trkpt>
      <trkpt lat="42.466315878555179" lon="13.557132091373205">
        <ele>2377.96</ele>
        <time>2013-09-10T13:16:23Z</time>
      </trkpt>
      <trkpt lat="42.466283524408937" lon="13.557159164920449">
        <ele>2376.52</ele>
        <time>2013-09-10T13:16:26Z</time>
      </trkpt>
      <trkpt lat="42.466262653470039" lon="13.557167211547494">
        <ele>2376.04</ele>
        <time>2013-09-10T13:16:28Z</time>
      </trkpt>
      <trkpt lat="42.466197777539492" lon="13.557270392775536">
        <ele>2373.1500000000001</ele>
        <time>2013-09-10T13:16:43Z</time>
      </trkpt>
      <trkpt lat="42.466223258525133" lon="13.557278020307422">
        <ele>2373.6300000000001</ele>
        <time>2013-09-10T13:16:54Z</time>
      </trkpt>
      <trkpt lat="42.466244800016284" lon="13.557307692244649">
        <ele>2374.1100000000001</ele>
        <time>2013-09-10T13:17:14Z</time>
      </trkpt>
      <trkpt lat="42.466223174706101" lon="13.557339459657669">
        <ele>2374.1100000000001</ele>
        <time>2013-09-10T13:17:25Z</time>
      </trkpt>
      <trkpt lat="42.466170787811279" lon="13.557340716943145">
        <ele>2372.6700000000001</ele>
        <time>2013-09-10T13:17:28Z</time>
      </trkpt>
      <trkpt lat="42.466109097003937" lon="13.557400228455663">
        <ele>2369.79</ele>
        <time>2013-09-10T13:17:38Z</time>
      </trkpt>
      <trkpt lat="42.466062661260366" lon="13.557502906769514">
        <ele>2366.9000000000001</ele>
        <time>2013-09-10T13:17:50Z</time>
      </trkpt>
      <trkpt lat="42.466010525822639" lon="13.55759602971375">
        <ele>2364.02</ele>
        <time>2013-09-10T13:18:03Z</time>
      </trkpt>
      <trkpt lat="42.465976160019636" lon="13.557668784633279">
        <ele>2361.6199999999999</ele>
        <time>2013-09-10T13:18:15Z</time>
      </trkpt>
      <trkpt lat="42.465936848893762" lon="13.557760147377849">
        <ele>2358.73</ele>
        <time>2013-09-10T13:18:26Z</time>
      </trkpt>
      <trkpt lat="42.465924778953195" lon="13.557793507352471">
        <ele>2357.77</ele>
        <time>2013-09-10T13:18:30Z</time>
      </trkpt>
      <trkpt lat="42.465921426191926" lon="13.557814629748464">
        <ele>2357.29</ele>
        <time>2013-09-10T13:18:32Z</time>
      </trkpt>
      <trkpt lat="42.465912457555532" lon="13.557831225916743">
        <ele>2357.77</ele>
        <time>2013-09-10T13:18:47Z</time>
      </trkpt>
      <trkpt lat="42.46591187082231" lon="13.55782619677484">
        <ele>2357.77</ele>
        <time>2013-09-10T13:18:50Z</time>
      </trkpt>
      <trkpt lat="42.465901980176568" lon="13.557843212038279">
        <ele>2357.77</ele>
        <time>2013-09-10T13:18:53Z</time>
      </trkpt>
      <trkpt lat="42.465793434530497" lon="13.557919403538108">
        <ele>2358.73</ele>
        <time>2013-09-10T13:19:06Z</time>
      </trkpt>
      <trkpt lat="42.465700646862388" lon="13.557934239506721">
        <ele>2358.25</ele>
        <time>2013-09-10T13:19:19Z</time>
      </trkpt>
      <trkpt lat="42.465624120086432" lon="13.557959720492363">
        <ele>2356.3299999999999</ele>
        <time>2013-09-10T13:19:29Z</time>
      </trkpt>
      <trkpt lat="42.46551213786006" lon="13.557967599481344">
        <ele>2354.8899999999999</ele>
        <time>2013-09-10T13:19:42Z</time>
      </trkpt>
      <trkpt lat="42.465421697124839" lon="13.558041695505381">
        <ele>2352.96</ele>
        <time>2013-09-10T13:19:55Z</time>
      </trkpt>
      <trkpt lat="42.465330921113491" lon="13.558178320527077">
        <ele>2352.96</ele>
        <time>2013-09-10T13:20:10Z</time>
      </trkpt>
      <trkpt lat="42.465248107910156" lon="13.558167172595859">
        <ele>2352.48</ele>
        <time>2013-09-10T13:20:19Z</time>
      </trkpt>
      <trkpt lat="42.465123385190964" lon="13.558184187859297">
        <ele>2351.04</ele>
        <time>2013-09-10T13:20:32Z</time>
      </trkpt>
      <trkpt lat="42.465114248916507" lon="13.558191061019897">
        <ele>2350.5599999999999</ele>
        <time>2013-09-10T13:20:34Z</time>
      </trkpt>
      <trkpt lat="42.465077787637711" lon="13.558186618611217">
        <ele>2350.5599999999999</ele>
        <time>2013-09-10T13:20:38Z</time>
      </trkpt>
      <trkpt lat="42.465070243924856" lon="13.558185109868646">
        <ele>2349.1199999999999</ele>
        <time>2013-09-10T13:20:50Z</time>
      </trkpt>
      <trkpt lat="42.465061107650399" lon="13.558186702430248">
        <ele>2349.5999999999999</ele>
        <time>2013-09-10T13:20:51Z</time>
      </trkpt>
      <trkpt lat="42.464934960007668" lon="13.558237245306373">
        <ele>2348.1599999999999</ele>
        <time>2013-09-10T13:21:04Z</time>
      </trkpt>
      <trkpt lat="42.464787103235722" lon="13.558303462341428">
        <ele>2346.7199999999998</ele>
        <time>2013-09-10T13:21:21Z</time>
      </trkpt>
      <trkpt lat="42.464750641956925" lon="13.558312011882663">
        <ele>2345.27</ele>
        <time>2013-09-10T13:21:25Z</time>
      </trkpt>
      <trkpt lat="42.464693058282137" lon="13.558300193399191">
        <ele>2344.3099999999999</ele>
        <time>2013-09-10T13:21:32Z</time>
      </trkpt>
      <trkpt lat="42.464673612266779" lon="13.558313939720392">
        <ele>2343.8299999999999</ele>
        <time>2013-09-10T13:21:34Z</time>
      </trkpt>
      <trkpt lat="42.46454318985343" lon="13.558354089036584">
        <ele>2341.9099999999999</ele>
        <time>2013-09-10T13:21:50Z</time>
      </trkpt>
      <trkpt lat="42.464553751051426" lon="13.558390382677317">
        <ele>2342.8699999999999</ele>
        <time>2013-09-10T13:22:11Z</time>
      </trkpt>
      <trkpt lat="42.46450413018465" lon="13.558413935825229">
        <ele>2341.9099999999999</ele>
        <time>2013-09-10T13:22:15Z</time>
      </trkpt>
      <trkpt lat="42.464471776038408" lon="13.558423239737749">
        <ele>2341.4299999999998</ele>
        <time>2013-09-10T13:22:18Z</time>
      </trkpt>
      <trkpt lat="42.464403798803687" lon="13.558437069877982">
        <ele>2339.5100000000002</ele>
        <time>2013-09-10T13:22:25Z</time>
      </trkpt>
      <trkpt lat="42.464351579546928" lon="13.558443523943424">
        <ele>2338.0599999999999</ele>
        <time>2013-09-10T13:22:31Z</time>
      </trkpt>
      <trkpt lat="42.464195759966969" lon="13.558451570570469">
        <ele>2334.6999999999998</ele>
        <time>2013-09-10T13:22:47Z</time>
      </trkpt>
      <trkpt lat="42.464045053347945" lon="13.558417540043592">
        <ele>2332.3000000000002</ele>
        <time>2013-09-10T13:23:04Z</time>
      </trkpt>
      <trkpt lat="42.464002557098866" lon="13.55841058306396">
        <ele>2331.8099999999999</ele>
        <time>2013-09-10T13:23:08Z</time>
      </trkpt>
      <trkpt lat="42.463920079171658" lon="13.55835878290236">
        <ele>2331.8099999999999</ele>
        <time>2013-09-10T13:23:21Z</time>
      </trkpt>
      <trkpt lat="42.463805079460144" lon="13.55835341848433">
        <ele>2331.3299999999999</ele>
        <time>2013-09-10T13:23:33Z</time>
      </trkpt>
      <trkpt lat="42.46362654492259" lon="13.558255769312382">
        <ele>2328.9299999999998</ele>
        <time>2013-09-10T13:23:49Z</time>
      </trkpt>
      <trkpt lat="42.463482962921262" lon="13.558125011622906">
        <ele>2327.9699999999998</ele>
        <time>2013-09-10T13:24:04Z</time>
      </trkpt>
      <trkpt lat="42.463290262967348" lon="13.558089891448617">
        <ele>2327.9699999999998</ele>
        <time>2013-09-10T13:24:21Z</time>
      </trkpt>
      <trkpt lat="42.463082727044821" lon="13.558031637221575">
        <ele>2327.0100000000002</ele>
        <time>2013-09-10T13:24:39Z</time>
      </trkpt>
      <trkpt lat="42.462868569418788" lon="13.558061979711056">
        <ele>2327.9699999999998</ele>
        <time>2013-09-10T13:24:56Z</time>
      </trkpt>
      <trkpt lat="42.462654914706945" lon="13.558182511478662">
        <ele>2328.4499999999998</ele>
        <time>2013-09-10T13:25:16Z</time>
      </trkpt>
      <trkpt lat="42.462460957467556" lon="13.55838811956346">
        <ele>2327.9699999999998</ele>
        <time>2013-09-10T13:25:36Z</time>
      </trkpt>
      <trkpt lat="42.462329445406795" lon="13.558493731543422">
        <ele>2327.0100000000002</ele>
        <time>2013-09-10T13:25:48Z</time>
      </trkpt>
      <trkpt lat="42.462311591953039" lon="13.558509238064289">
        <ele>2327.4899999999998</ele>
        <time>2013-09-10T13:25:55Z</time>
      </trkpt>
      <trkpt lat="42.462266581133008" lon="13.558567743748426">
        <ele>2327.0100000000002</ele>
        <time>2013-09-10T13:26:00Z</time>
      </trkpt>
      <trkpt lat="42.462057285010815" lon="13.55867687612772">
        <ele>2327.4899999999998</ele>
        <time>2013-09-10T13:26:18Z</time>
      </trkpt>
      <trkpt lat="42.461860058829188" lon="13.558626919984818">
        <ele>2327.9699999999998</ele>
        <time>2013-09-10T13:26:34Z</time>
      </trkpt>
      <trkpt lat="42.461840528994799" lon="13.55861040763557">
        <ele>2327.0100000000002</ele>
        <time>2013-09-10T13:26:36Z</time>
      </trkpt>
      <trkpt lat="42.461647829040885" lon="13.55863681063056">
        <ele>2327.4899999999998</ele>
        <time>2013-09-10T13:26:51Z</time>
      </trkpt>
      <trkpt lat="42.461564177647233" lon="13.558572018519044">
        <ele>2328.9299999999998</ele>
        <time>2013-09-10T13:26:59Z</time>
      </trkpt>
      <trkpt lat="42.461493350565434" lon="13.558567073196173">
        <ele>2326.5300000000002</ele>
        <time>2013-09-10T13:27:05Z</time>
      </trkpt>
      <trkpt lat="42.461329065263271" lon="13.558672768995166">
        <ele>2325.5700000000002</ele>
        <time>2013-09-10T13:27:19Z</time>
      </trkpt>
      <trkpt lat="42.461225129663944" lon="13.558634631335735">
        <ele>2325.5700000000002</ele>
        <time>2013-09-10T13:27:28Z</time>
      </trkpt>
      <trkpt lat="42.461060928180814" lon="13.55876924470067">
        <ele>2324.6100000000001</ele>
        <time>2013-09-10T13:27:44Z</time>
      </trkpt>
      <trkpt lat="42.46099621988833" lon="13.558820206671953">
        <ele>2324.1199999999999</ele>
        <time>2013-09-10T13:27:50Z</time>
      </trkpt>
      <trkpt lat="42.460883902385831" lon="13.55872917920351">
        <ele>2326.5300000000002</ele>
        <time>2013-09-10T13:28:06Z</time>
      </trkpt>
      <trkpt lat="42.460866970941424" lon="13.558658771216869">
        <ele>2327.0100000000002</ele>
        <time>2013-09-10T13:28:12Z</time>
      </trkpt>
      <trkpt lat="42.460805866867304" lon="13.55851124972105">
        <ele>2330.8499999999999</ele>
        <time>2013-09-10T13:28:24Z</time>
      </trkpt>
      <trkpt lat="42.460800418630242" lon="13.558499263599515">
        <ele>2331.3299999999999</ele>
        <time>2013-09-10T13:28:25Z</time>
      </trkpt>
      <trkpt lat="42.460782481357455" lon="13.558408739045262">
        <ele>2330.8499999999999</ele>
        <time>2013-09-10T13:28:32Z</time>
      </trkpt>
      <trkpt lat="42.46077393181622" lon="13.558221571147442">
        <ele>2329.8899999999999</ele>
        <time>2013-09-10T13:28:45Z</time>
      </trkpt>
      <trkpt lat="42.460765214636922" lon="13.558099195361137">
        <ele>2330.3699999999999</ele>
        <time>2013-09-10T13:28:58Z</time>
      </trkpt>
      <trkpt lat="42.460737554356456" lon="13.558073546737432">
        <ele>2333.7399999999998</ele>
        <time>2013-09-10T13:29:05Z</time>
      </trkpt>
      <trkpt lat="42.460661698132753" lon="13.558040605857968">
        <ele>2334.6999999999998</ele>
        <time>2013-09-10T13:29:20Z</time>
      </trkpt>
      <trkpt lat="42.460633954033256" lon="13.558025686070323">
        <ele>2337.0999999999999</ele>
        <time>2013-09-10T13:29:25Z</time>
      </trkpt>
      <trkpt lat="42.460622638463974" lon="13.558003809303045">
        <ele>2338.0599999999999</ele>
        <time>2013-09-10T13:29:27Z</time>
      </trkpt>
      <trkpt lat="42.460604701191187" lon="13.557995595037937">
        <ele>2343.3499999999999</ele>
        <time>2013-09-10T13:29:29Z</time>
      </trkpt>
      <trkpt lat="42.46059606783092" lon="13.55799718759954">
        <ele>2343.3499999999999</ele>
        <time>2013-09-10T13:29:30Z</time>
      </trkpt>
      <trkpt lat="42.460576118901372" lon="13.558010179549456">
        <ele>2341.4299999999998</ele>
        <time>2013-09-10T13:29:33Z</time>
      </trkpt>
      <trkpt lat="42.460558349266648" lon="13.558017136529088">
        <ele>2342.3899999999999</ele>
        <time>2013-09-10T13:29:35Z</time>
      </trkpt>
      <trkpt lat="42.460480313748121" lon="13.558030463755131">
        <ele>2339.9899999999998</ele>
        <time>2013-09-10T13:29:42Z</time>
      </trkpt>
      <trkpt lat="42.460340252146125" lon="13.558116964995861">
        <ele>2338.0599999999999</ele>
        <time>2013-09-10T13:29:57Z</time>
      </trkpt>
      <trkpt lat="42.460208740085363" lon="13.558214530348778">
        <ele>2340.4699999999998</ele>
        <time>2013-09-10T13:30:13Z</time>
      </trkpt>
      <trkpt lat="42.460161047056317" lon="13.558250153437257">
        <ele>2336.6199999999999</ele>
        <time>2013-09-10T13:30:18Z</time>
      </trkpt>
      <trkpt lat="42.460138499736786" lon="13.558266833424568">
        <ele>2335.1799999999998</ele>
        <time>2013-09-10T13:30:20Z</time>
      </trkpt>
      <trkpt lat="42.460005478933454" lon="13.558386107906699">
        <ele>2334.6999999999998</ele>
        <time>2013-09-10T13:30:35Z</time>
      </trkpt>
      <trkpt lat="42.459945548325777" lon="13.558430783450603">
        <ele>2335.1799999999998</ele>
        <time>2013-09-10T13:30:41Z</time>
      </trkpt>
      <trkpt lat="42.459832141175866" lon="13.558516530320048">
        <ele>2334.2199999999998</ele>
        <time>2013-09-10T13:30:52Z</time>
      </trkpt>
      <trkpt lat="42.459712699055672" lon="13.558568749576807">
        <ele>2332.3000000000002</ele>
        <time>2013-09-10T13:31:02Z</time>
      </trkpt>
      <trkpt lat="42.45954011566937" lon="13.558658855035901">
        <ele>2331.8099999999999</ele>
        <time>2013-09-10T13:31:17Z</time>
      </trkpt>
      <trkpt lat="42.459351858124137" lon="13.558749379590154">
        <ele>2332.3000000000002</ele>
        <time>2013-09-10T13:31:34Z</time>
      </trkpt>
      <trkpt lat="42.459334172308445" lon="13.558768490329385">
        <ele>2330.8499999999999</ele>
        <time>2013-09-10T13:31:39Z</time>
      </trkpt>
      <trkpt lat="42.459119763225317" lon="13.558867229148746">
        <ele>2331.8099999999999</ele>
        <time>2013-09-10T13:31:57Z</time>
      </trkpt>
      <trkpt lat="42.458999985828996" lon="13.558983653783798">
        <ele>2332.7800000000002</ele>
        <time>2013-09-10T13:32:12Z</time>
      </trkpt>
      <trkpt lat="42.458930164575577" lon="13.559061102569103">
        <ele>2332.7800000000002</ele>
        <time>2013-09-10T13:32:21Z</time>
      </trkpt>
      <trkpt lat="42.458819355815649" lon="13.559197895228863">
        <ele>2333.2600000000002</ele>
        <time>2013-09-10T13:32:35Z</time>
      </trkpt>
      <trkpt lat="42.458725897595286" lon="13.559297891333699">
        <ele>2333.2600000000002</ele>
        <time>2013-09-10T13:32:46Z</time>
      </trkpt>
      <trkpt lat="42.45860000140965" lon="13.559431750327349">
        <ele>2335.1799999999998</ele>
        <time>2013-09-10T13:33:02Z</time>
      </trkpt>
      <trkpt lat="42.458478882908821" lon="13.559558652341366">
        <ele>2335.1799999999998</ele>
        <time>2013-09-10T13:33:17Z</time>
      </trkpt>
      <trkpt lat="42.458416605368257" lon="13.559618666768074">
        <ele>2335.1799999999998</ele>
        <time>2013-09-10T13:33:26Z</time>
      </trkpt>
      <trkpt lat="42.458279058337212" lon="13.559738025069237">
        <ele>2337.0999999999999</ele>
        <time>2013-09-10T13:33:41Z</time>
      </trkpt>
      <trkpt lat="42.458120556548238" lon="13.559862999245524">
        <ele>2339.02</ele>
        <time>2013-09-10T13:33:59Z</time>
      </trkpt>
      <trkpt lat="42.458085855469108" lon="13.55989258736372">
        <ele>2339.02</ele>
        <time>2013-09-10T13:34:03Z</time>
      </trkpt>
      <trkpt lat="42.457953169941902" lon="13.559947405010462">
        <ele>2339.5100000000002</ele>
        <time>2013-09-10T13:34:18Z</time>
      </trkpt>
      <trkpt lat="42.457796931266785" lon="13.55994782410562">
        <ele>2341.4299999999998</ele>
        <time>2013-09-10T13:34:35Z</time>
      </trkpt>
      <trkpt lat="42.457635328173637" lon="13.559926701709628">
        <ele>2341.9099999999999</ele>
        <time>2013-09-10T13:34:51Z</time>
      </trkpt>
      <trkpt lat="42.457467690110207" lon="13.559927539899945">
        <ele>2341.4299999999998</ele>
        <time>2013-09-10T13:35:06Z</time>
      </trkpt>
      <trkpt lat="42.457294100895524" lon="13.559922426939011">
        <ele>2340.9499999999998</ele>
        <time>2013-09-10T13:35:21Z</time>
      </trkpt>
      <trkpt lat="42.457087570801377" lon="13.559896275401115">
        <ele>2340.4699999999998</ele>
        <time>2013-09-10T13:35:38Z</time>
      </trkpt>
      <trkpt lat="42.457060245797038" lon="13.559873308986425">
        <ele>2339.9899999999998</ele>
        <time>2013-09-10T13:35:41Z</time>
      </trkpt>
      <trkpt lat="42.457044404000044" lon="13.559858305379748">
        <ele>2338.0599999999999</ele>
        <time>2013-09-10T13:35:43Z</time>
      </trkpt>
      <trkpt lat="42.457027640193701" lon="13.559845145791769">
        <ele>2340.9499999999998</ele>
        <time>2013-09-10T13:35:45Z</time>
      </trkpt>
      <trkpt lat="42.457006853073835" lon="13.559820670634508">
        <ele>2342.8699999999999</ele>
        <time>2013-09-10T13:35:48Z</time>
      </trkpt>
      <trkpt lat="42.456972571089864" lon="13.559796363115311">
        <ele>2342.8699999999999</ele>
        <time>2013-09-10T13:35:52Z</time>
      </trkpt>
      <trkpt lat="42.456947090104222" lon="13.559781443327665">
        <ele>2341.4299999999998</ele>
        <time>2013-09-10T13:35:55Z</time>
      </trkpt>
      <trkpt lat="42.456821026280522" lon="13.559734085574746">
        <ele>2344.79</ele>
        <time>2013-09-10T13:36:06Z</time>
      </trkpt>
      <trkpt lat="42.456688340753317" lon="13.559682201594114">
        <ele>2342.3899999999999</ele>
        <time>2013-09-10T13:36:18Z</time>
      </trkpt>
      <trkpt lat="42.456665709614754" lon="13.559673903509974">
        <ele>2341.4299999999998</ele>
        <time>2013-09-10T13:36:20Z</time>
      </trkpt>
      <trkpt lat="42.456613406538963" lon="13.559696367010474">
        <ele>2340.9499999999998</ele>
        <time>2013-09-10T13:36:25Z</time>
      </trkpt>
      <trkpt lat="42.45655263774097" lon="13.559704581275582">
        <ele>2339.02</ele>
        <time>2013-09-10T13:36:30Z</time>
      </trkpt>
      <trkpt lat="42.456393968313932" lon="13.55965219438076">
        <ele>2337.0999999999999</ele>
        <time>2013-09-10T13:36:44Z</time>
      </trkpt>
      <trkpt lat="42.456355914473534" lon="13.559556724503636">
        <ele>2339.02</ele>
        <time>2013-09-10T13:36:51Z</time>
      </trkpt>
      <trkpt lat="42.45625164359808" lon="13.559606596827507">
        <ele>2337.5799999999999</ele>
        <time>2013-09-10T13:37:03Z</time>
      </trkpt>
      <trkpt lat="42.456115940585732" lon="13.559612212702632">
        <ele>2339.02</ele>
        <time>2013-09-10T13:37:16Z</time>
      </trkpt>
      <trkpt lat="42.455938244238496" lon="13.55962922796607">
        <ele>2339.02</ele>
        <time>2013-09-10T13:37:32Z</time>
      </trkpt>
      <trkpt lat="42.455918379127979" lon="13.559636268764734">
        <ele>2340.4699999999998</ele>
        <time>2013-09-10T13:37:34Z</time>
      </trkpt>
      <trkpt lat="42.455792399123311" lon="13.559633167460561">
        <ele>2339.9899999999998</ele>
        <time>2013-09-10T13:37:48Z</time>
      </trkpt>
      <trkpt lat="42.455692570656538" lon="13.559633335098624">
        <ele>2341.9099999999999</ele>
        <time>2013-09-10T13:37:58Z</time>
      </trkpt>
      <trkpt lat="42.455587545409799" lon="13.559645991772413">
        <ele>2341.4299999999998</ele>
        <time>2013-09-10T13:38:12Z</time>
      </trkpt>
      <trkpt lat="42.45559886097908" lon="13.559676082804799">
        <ele>2340.9499999999998</ele>
        <time>2013-09-10T13:38:19Z</time>
      </trkpt>
      <trkpt lat="42.455608835443854" lon="13.559647081419826">
        <ele>2341.9099999999999</ele>
        <time>2013-09-10T13:38:34Z</time>
      </trkpt>
      <trkpt lat="42.455591652542353" lon="13.559651859104633">
        <ele>2343.3499999999999</ele>
        <time>2013-09-10T13:38:44Z</time>
      </trkpt>
      <trkpt lat="42.455581175163388" lon="13.559653535485268">
        <ele>2343.8299999999999</ele>
        <time>2013-09-10T13:38:57Z</time>
      </trkpt>
      <trkpt lat="42.455545635893941" lon="13.559605507180095">
        <ele>2346.7199999999998</ele>
        <time>2013-09-10T13:39:05Z</time>
      </trkpt>
      <trkpt lat="42.455510683357716" lon="13.559609949588776">
        <ele>2344.79</ele>
        <time>2013-09-10T13:39:16Z</time>
      </trkpt>
      <trkpt lat="42.455427786335349" lon="13.559573488309979">
        <ele>2347.6799999999998</ele>
        <time>2013-09-10T13:39:26Z</time>
      </trkpt>
      <trkpt lat="42.455406077206135" lon="13.559567285701632">
        <ele>2349.5999999999999</ele>
        <time>2013-09-10T13:39:29Z</time>
      </trkpt>
      <trkpt lat="42.455382607877254" lon="13.559566950425506">
        <ele>2349.1199999999999</ele>
        <time>2013-09-10T13:39:31Z</time>
      </trkpt>
      <trkpt lat="42.455342123284936" lon="13.559573404490948">
        <ele>2348.6399999999999</ele>
        <time>2013-09-10T13:39:42Z</time>
      </trkpt>
      <trkpt lat="42.455352516844869" lon="13.559537194669247">
        <ele>2344.3099999999999</ele>
        <time>2013-09-10T13:39:51Z</time>
      </trkpt>
      <trkpt lat="42.455358551815152" lon="13.559533171355724">
        <ele>2344.3099999999999</ele>
        <time>2013-09-10T13:39:52Z</time>
      </trkpt>
      <trkpt lat="42.455367185175419" lon="13.559496710076928">
        <ele>2349.1199999999999</ele>
        <time>2013-09-10T13:39:54Z</time>
      </trkpt>
      <trkpt lat="42.455348158255219" lon="13.559468714520335">
        <ele>2344.79</ele>
        <time>2013-09-10T13:39:57Z</time>
      </trkpt>
      <trkpt lat="42.455342123284936" lon="13.559454381465912">
        <ele>2346.23</ele>
        <time>2013-09-10T13:39:58Z</time>
      </trkpt>
      <trkpt lat="42.455229219049215" lon="13.559320857748389">
        <ele>2345.75</ele>
        <time>2013-09-10T13:40:11Z</time>
      </trkpt>
      <trkpt lat="42.455159733071923" lon="13.55925539508462">
        <ele>2343.8299999999999</ele>
        <time>2013-09-10T13:40:19Z</time>
      </trkpt>
      <trkpt lat="42.455111369490623" lon="13.559214072301984">
        <ele>2345.27</ele>
        <time>2013-09-10T13:40:27Z</time>
      </trkpt>
      <trkpt lat="42.455011960119009" lon="13.559171073138714">
        <ele>2345.75</ele>
        <time>2013-09-10T13:40:40Z</time>
      </trkpt>
      <trkpt lat="42.454915149137378" lon="13.559117764234543">
        <ele>2348.6399999999999</ele>
        <time>2013-09-10T13:40:52Z</time>
      </trkpt>
      <trkpt lat="42.454908862709999" lon="13.559107789769769">
        <ele>2345.27</ele>
        <time>2013-09-10T13:40:53Z</time>
      </trkpt>
      <trkpt lat="42.454905090853572" lon="13.559102592989802">
        <ele>2345.27</ele>
        <time>2013-09-10T13:40:54Z</time>
      </trkpt>
      <trkpt lat="42.454885896295309" lon="13.559081051498652">
        <ele>2347.6799999999998</ele>
        <time>2013-09-10T13:40:59Z</time>
      </trkpt>
      <trkpt lat="42.454791348427534" lon="13.559020617976785">
        <ele>2350.0799999999999</ele>
        <time>2013-09-10T13:41:13Z</time>
      </trkpt>
      <trkpt lat="42.454749019816518" lon="13.558974349871278">
        <ele>2351.52</ele>
        <time>2013-09-10T13:41:20Z</time>
      </trkpt>
      <trkpt lat="42.454743571579456" lon="13.558973846957088">
        <ele>2351.04</ele>
        <time>2013-09-10T13:41:21Z</time>
      </trkpt>
      <trkpt lat="42.45472957380116" lon="13.558956077322364">
        <ele>2350.5599999999999</ele>
        <time>2013-09-10T13:41:23Z</time>
      </trkpt>
      <trkpt lat="42.4546186812222" lon="13.558820290490985">
        <ele>2351.52</ele>
        <time>2013-09-10T13:41:40Z</time>
      </trkpt>
      <trkpt lat="42.45455514639616" lon="13.558714259415865">
        <ele>2352.96</ele>
        <time>2013-09-10T13:41:55Z</time>
      </trkpt>
      <trkpt lat="42.454499574378133" lon="13.558627422899008">
        <ele>2355.3699999999999</ele>
        <time>2013-09-10T13:42:09Z</time>
      </trkpt>
      <trkpt lat="42.454470656812191" lon="13.558599594980478">
        <ele>2353.9299999999998</ele>
        <time>2013-09-10T13:42:15Z</time>
      </trkpt>
      <trkpt lat="42.45441097766161" lon="13.558574700728059">
        <ele>2355.3699999999999</ele>
        <time>2013-09-10T13:42:28Z</time>
      </trkpt>
      <trkpt lat="42.4543631169945" lon="13.558540251106024">
        <ele>2355.8499999999999</ele>
        <time>2013-09-10T13:42:39Z</time>
      </trkpt>
      <trkpt lat="42.454174943268299" lon="13.558455342426896">
        <ele>2352.48</ele>
        <time>2013-09-10T13:42:56Z</time>
      </trkpt>
      <trkpt lat="42.45411392301321" lon="13.558433130383492">
        <ele>2352</ele>
        <time>2013-09-10T13:43:02Z</time>
      </trkpt>
      <trkpt lat="42.454061955213547" lon="13.558428939431906">
        <ele>2351.04</ele>
        <time>2013-09-10T13:43:08Z</time>
      </trkpt>
      <trkpt lat="42.45403815060854" lon="13.558548213914037">
        <ele>2349.1199999999999</ele>
        <time>2013-09-10T13:43:21Z</time>
      </trkpt>
      <trkpt lat="42.454027254134417" lon="13.558548465371132">
        <ele>2346.7199999999998</ele>
        <time>2013-09-10T13:43:31Z</time>
      </trkpt>
      <trkpt lat="42.453988529741764" lon="13.558510411530733">
        <ele>2344.79</ele>
        <time>2013-09-10T13:43:43Z</time>
      </trkpt>
      <trkpt lat="42.453973442316055" lon="13.55851368047297">
        <ele>2343.8299999999999</ele>
        <time>2013-09-10T13:43:58Z</time>
      </trkpt>
      <trkpt lat="42.453942764550447" lon="13.55849951505661">
        <ele>2341.9099999999999</ele>
        <time>2013-09-10T13:44:11Z</time>
      </trkpt>
      <trkpt lat="42.45388962328434" lon="13.558498844504356">
        <ele>2339.02</ele>
        <time>2013-09-10T13:44:25Z</time>
      </trkpt>
      <trkpt lat="42.453847713768482" lon="13.558489121496677">
        <ele>2337.5799999999999</ele>
        <time>2013-09-10T13:44:28Z</time>
      </trkpt>
      <trkpt lat="42.453763391822577" lon="13.558478727936745">
        <ele>2337.0999999999999</ele>
        <time>2013-09-10T13:44:41Z</time>
      </trkpt>
      <trkpt lat="42.453769762068987" lon="13.558497922495008">
        <ele>2335.6599999999999</ele>
        <time>2013-09-10T13:44:55Z</time>
      </trkpt>
      <trkpt lat="42.453816281631589" lon="13.558542095124722">
        <ele>2333.7399999999998</ele>
        <time>2013-09-10T13:45:09Z</time>
      </trkpt>
      <trkpt lat="42.453845366835594" lon="13.558621890842915">
        <ele>2330.8499999999999</ele>
        <time>2013-09-10T13:45:24Z</time>
      </trkpt>
      <trkpt lat="42.45387495495379" lon="13.558689700439572">
        <ele>2327.4899999999998</ele>
        <time>2013-09-10T13:45:34Z</time>
      </trkpt>
      <trkpt lat="42.453828016296029" lon="13.55870914645493">
        <ele>2324.6100000000001</ele>
        <time>2013-09-10T13:45:45Z</time>
      </trkpt>
      <trkpt lat="42.453750567510724" lon="13.558677127584815">
        <ele>2323.1599999999999</ele>
        <time>2013-09-10T13:45:59Z</time>
      </trkpt>
      <trkpt lat="42.453803457319736" lon="13.558741835877299">
        <ele>2320.2800000000002</ele>
        <time>2013-09-10T13:46:08Z</time>
      </trkpt>
      <trkpt lat="42.453828016296029" lon="13.558790534734726">
        <ele>2317.8800000000001</ele>
        <time>2013-09-10T13:46:14Z</time>
      </trkpt>
      <trkpt lat="42.4538554251194" lon="13.558843340724707">
        <ele>2317.8800000000001</ele>
        <time>2013-09-10T13:46:28Z</time>
      </trkpt>
      <trkpt lat="42.45379826053977" lon="13.558841329067945">
        <ele>2315.4699999999998</ele>
        <time>2013-09-10T13:46:40Z</time>
      </trkpt>
      <trkpt lat="42.453722571954131" lon="13.558829091489315">
        <ele>2313.0700000000002</ele>
        <time>2013-09-10T13:46:52Z</time>
      </trkpt>
      <trkpt lat="42.453667586669326" lon="13.558798413723707">
        <ele>2311.6300000000001</ele>
        <time>2013-09-10T13:47:06Z</time>
      </trkpt>
      <trkpt lat="42.453598435968161" lon="13.558798162266612">
        <ele>2308.2600000000002</ele>
        <time>2013-09-10T13:47:17Z</time>
      </trkpt>
      <trkpt lat="42.453575301915407" lon="13.558827247470617">
        <ele>2306.8200000000002</ele>
        <time>2013-09-10T13:47:21Z</time>
      </trkpt>
      <trkpt lat="42.453576140105724" lon="13.55883764103055">
        <ele>2306.3400000000001</ele>
        <time>2013-09-10T13:47:22Z</time>
      </trkpt>
      <trkpt lat="42.453511515632272" lon="13.558902852237225">
        <ele>2302.98</ele>
        <time>2013-09-10T13:47:33Z</time>
      </trkpt>
      <trkpt lat="42.453487878665328" lon="13.558909222483635">
        <ele>2302.0100000000002</ele>
        <time>2013-09-10T13:47:38Z</time>
      </trkpt>
      <trkpt lat="42.45341470465064" lon="13.558914754539728">
        <ele>2300.0900000000001</ele>
        <time>2013-09-10T13:47:46Z</time>
      </trkpt>
      <trkpt lat="42.453331556171179" lon="13.558907378464937">
        <ele>2297.21</ele>
        <time>2013-09-10T13:47:53Z</time>
      </trkpt>
      <trkpt lat="42.453320408239961" lon="13.558899583294988">
        <ele>2297.6900000000001</ele>
        <time>2013-09-10T13:47:54Z</time>
      </trkpt>
      <trkpt lat="42.453177077695727" lon="13.55893143452704">
        <ele>2293.8400000000001</ele>
        <time>2013-09-10T13:48:08Z</time>
      </trkpt>
      <trkpt lat="42.453060317784548" lon="13.558976193889976">
        <ele>2295.2800000000002</ele>
        <time>2013-09-10T13:48:22Z</time>
      </trkpt>
      <trkpt lat="42.453033411875367" lon="13.558981390669942">
        <ele>2294.8000000000002</ele>
        <time>2013-09-10T13:48:25Z</time>
      </trkpt>
      <trkpt lat="42.452955292537808" lon="13.559014415368438">
        <ele>2294.3200000000002</ele>
        <time>2013-09-10T13:48:33Z</time>
      </trkpt>
      <trkpt lat="42.452839370816946" lon="13.559110220521688">
        <ele>2295.77</ele>
        <time>2013-09-10T13:48:48Z</time>
      </trkpt>
      <trkpt lat="42.452711379155517" lon="13.559197057038546">
        <ele>2294.3200000000002</ele>
        <time>2013-09-10T13:49:02Z</time>
      </trkpt>
      <trkpt lat="42.452636864036322" lon="13.559209546074271">
        <ele>2295.2800000000002</ele>
        <time>2013-09-10T13:49:15Z</time>
      </trkpt>
      <trkpt lat="42.452568551525474" lon="13.559223879128695">
        <ele>2296.25</ele>
        <time>2013-09-10T13:49:24Z</time>
      </trkpt>
      <trkpt lat="42.452406948432326" lon="13.559310380369425">
        <ele>2294.3200000000002</ele>
        <time>2013-09-10T13:49:40Z</time>
      </trkpt>
      <trkpt lat="42.452267138287425" lon="13.559424877166748">
        <ele>2295.2800000000002</ele>
        <time>2013-09-10T13:49:55Z</time>
      </trkpt>
      <trkpt lat="42.452226988971233" lon="13.559451783075929">
        <ele>2295.2800000000002</ele>
        <time>2013-09-10T13:49:59Z</time>
      </trkpt>
      <trkpt lat="42.452116683125496" lon="13.559561502188444">
        <ele>2293.8400000000001</ele>
        <time>2013-09-10T13:50:12Z</time>
      </trkpt>
      <trkpt lat="42.451969496905804" lon="13.559661246836185">
        <ele>2292.4000000000001</ele>
        <time>2013-09-10T13:50:26Z</time>
      </trkpt>
      <trkpt lat="42.451808899641037" lon="13.559720674529672">
        <ele>2291.9200000000001</ele>
        <time>2013-09-10T13:50:41Z</time>
      </trkpt>
      <trkpt lat="42.451662719249725" lon="13.559896107763052">
        <ele>2291.4400000000001</ele>
        <time>2013-09-10T13:50:58Z</time>
      </trkpt>
      <trkpt lat="42.451535146683455" lon="13.560041785240173">
        <ele>2291.9200000000001</ele>
        <time>2013-09-10T13:51:14Z</time>
      </trkpt>
      <trkpt lat="42.451426349580288" lon="13.560168603435159">
        <ele>2289.52</ele>
        <time>2013-09-10T13:51:27Z</time>
      </trkpt>
      <trkpt lat="42.45139759965241" lon="13.560212943702936">
        <ele>2287.5900000000001</ele>
        <time>2013-09-10T13:51:31Z</time>
      </trkpt>
      <trkpt lat="42.451312271878123" lon="13.560350826010108">
        <ele>2287.5900000000001</ele>
        <time>2013-09-10T13:51:46Z</time>
      </trkpt>
      <trkpt lat="42.451322413980961" lon="13.560333224013448">
        <ele>2286.6300000000001</ele>
        <time>2013-09-10T13:52:00Z</time>
      </trkpt>
      <trkpt lat="42.451263070106506" lon="13.560345880687237">
        <ele>2285.1900000000001</ele>
        <time>2013-09-10T13:52:10Z</time>
      </trkpt>
      <trkpt lat="42.451233649626374" lon="13.560309670865536">
        <ele>2283.27</ele>
        <time>2013-09-10T13:52:24Z</time>
      </trkpt>
      <trkpt lat="42.451227195560932" lon="13.560288213193417">
        <ele>2283.27</ele>
        <time>2013-09-10T13:52:43Z</time>
      </trkpt>
      <trkpt lat="42.451153937727213" lon="13.560232892632484">
        <ele>2280.8699999999999</ele>
        <time>2013-09-10T13:52:57Z</time>
      </trkpt>
      <trkpt lat="42.45108244009316" lon="13.560188636183739">
        <ele>2279.4200000000001</ele>
        <time>2013-09-10T13:53:13Z</time>
      </trkpt>
      <trkpt lat="42.451035166159272" lon="13.560124263167381">
        <ele>2277.5</ele>
        <time>2013-09-10T13:53:26Z</time>
      </trkpt>
      <trkpt lat="42.450951850041747" lon="13.560057040303946">
        <ele>2277.02</ele>
        <time>2013-09-10T13:53:41Z</time>
      </trkpt>
      <trkpt lat="42.45088160969317" lon="13.560011778026819">
        <ele>2274.6199999999999</ele>
        <time>2013-09-10T13:53:51Z</time>
      </trkpt>
      <trkpt lat="42.450846992433071" lon="13.559974310919642">
        <ele>2272.6900000000001</ele>
        <time>2013-09-10T13:53:57Z</time>
      </trkpt>
      <trkpt lat="42.450829725712538" lon="13.559924187138677">
        <ele>2272.21</ele>
        <time>2013-09-10T13:54:01Z</time>
      </trkpt>
      <trkpt lat="42.45078194886446" lon="13.559878589585423">
        <ele>2270.77</ele>
        <time>2013-09-10T13:54:07Z</time>
      </trkpt>
      <trkpt lat="42.450651526451111" lon="13.55973425321281">
        <ele>2269.3299999999999</ele>
        <time>2013-09-10T13:54:23Z</time>
      </trkpt>
      <trkpt lat="42.450580531731248" lon="13.559626713395119">
        <ele>2270.77</ele>
        <time>2013-09-10T13:54:35Z</time>
      </trkpt>
      <trkpt lat="42.450553625822067" lon="13.559596873819828">
        <ele>2269.3299999999999</ele>
        <time>2013-09-10T13:54:38Z</time>
      </trkpt>
      <trkpt lat="42.450535604730248" lon="13.559577092528343">
        <ele>2268.3699999999999</ele>
        <time>2013-09-10T13:54:40Z</time>
      </trkpt>
      <trkpt lat="42.45049805380404" lon="13.559461506083608">
        <ele>2266.9299999999998</ele>
        <time>2013-09-10T13:54:48Z</time>
      </trkpt>
      <trkpt lat="42.450483720749617" lon="13.559421692043543">
        <ele>2265.48</ele>
        <time>2013-09-10T13:54:51Z</time>
      </trkpt>
      <trkpt lat="42.450428986921906" lon="13.559200577437878">
        <ele>2265.96</ele>
        <time>2013-09-10T13:55:07Z</time>
      </trkpt>
      <trkpt lat="42.450393112376332" lon="13.559092786163092">
        <ele>2262.5999999999999</ele>
        <time>2013-09-10T13:55:19Z</time>
      </trkpt>
      <trkpt lat="42.450350029394031" lon="13.559078369289637">
        <ele>2264.04</ele>
        <time>2013-09-10T13:55:32Z</time>
      </trkpt>
      <trkpt lat="42.4503377918154" lon="13.559049870818853">
        <ele>2265</ele>
        <time>2013-09-10T13:55:37Z</time>
      </trkpt>
      <trkpt lat="42.450330331921577" lon="13.559037717059255">
        <ele>2261.1599999999999</ele>
        <time>2013-09-10T13:55:41Z</time>
      </trkpt>
      <trkpt lat="42.450313149020076" lon="13.559006536379457">
        <ele>2257.3099999999999</ele>
        <time>2013-09-10T13:55:45Z</time>
      </trkpt>
      <trkpt lat="42.450308371335268" lon="13.558999495580792">
        <ele>2257.3099999999999</ele>
        <time>2013-09-10T13:55:46Z</time>
      </trkpt>
      <trkpt lat="42.450292529538274" lon="13.558972338214517">
        <ele>2255.8699999999999</ele>
        <time>2013-09-10T13:55:51Z</time>
      </trkpt>
      <trkpt lat="42.450229749083519" lon="13.558892710134387">
        <ele>2252.9899999999998</ele>
        <time>2013-09-10T13:56:02Z</time>
      </trkpt>
      <trkpt lat="42.4501892644912" lon="13.558826576918364">
        <ele>2252.0300000000002</ele>
        <time>2013-09-10T13:56:08Z</time>
      </trkpt>
      <trkpt lat="42.450162190943956" lon="13.558786259964108">
        <ele>2252.0300000000002</ele>
        <time>2013-09-10T13:56:13Z</time>
      </trkpt>
      <trkpt lat="42.450111145153642" lon="13.558690035715699">
        <ele>2249.6199999999999</ele>
        <time>2013-09-10T13:56:20Z</time>
      </trkpt>
      <trkpt lat="42.450100416317582" lon="13.558600600808859">
        <ele>2247.6999999999998</ele>
        <time>2013-09-10T13:56:25Z</time>
      </trkpt>
      <trkpt lat="42.45010326616466" lon="13.558580232784152">
        <ele>2246.2600000000002</ele>
        <time>2013-09-10T13:56:27Z</time>
      </trkpt>
      <trkpt lat="42.450072336941957" lon="13.558427598327398">
        <ele>2247.2199999999998</ele>
        <time>2013-09-10T13:56:40Z</time>
      </trkpt>
      <trkpt lat="42.450068313628435" lon="13.558419970795512">
        <ele>2247.6999999999998</ele>
        <time>2013-09-10T13:56:41Z</time>
      </trkpt>
      <trkpt lat="42.450023554265499" lon="13.558318549767137">
        <ele>2247.6999999999998</ele>
        <time>2013-09-10T13:56:49Z</time>
      </trkpt>
      <trkpt lat="42.449923222884536" lon="13.558181170374155">
        <ele>2246.7399999999998</ele>
        <time>2013-09-10T13:57:04Z</time>
      </trkpt>
      <trkpt lat="42.449871003627777" lon="13.558047311380506">
        <ele>2245.7800000000002</ele>
        <time>2013-09-10T13:57:14Z</time>
      </trkpt>
      <trkpt lat="42.449789615347981" lon="13.557922504842281">
        <ele>2244.3299999999999</ele>
        <time>2013-09-10T13:57:26Z</time>
      </trkpt>
      <trkpt lat="42.449754578992724" lon="13.557893000543118">
        <ele>2243.3699999999999</ele>
        <time>2013-09-10T13:57:30Z</time>
      </trkpt>
      <trkpt lat="42.449666485190392" lon="13.557720249518752">
        <ele>2242.4099999999999</ele>
        <time>2013-09-10T13:57:45Z</time>
      </trkpt>
      <trkpt lat="42.4496297724545" lon="13.557658893987536">
        <ele>2239.5300000000002</ele>
        <time>2013-09-10T13:57:52Z</time>
      </trkpt>
      <trkpt lat="42.449614517390728" lon="13.557600304484367">
        <ele>2238.5700000000002</ele>
        <time>2013-09-10T13:57:57Z</time>
      </trkpt>
      <trkpt lat="42.449611332267523" lon="13.557577170431614">
        <ele>2240.0100000000002</ele>
        <time>2013-09-10T13:58:00Z</time>
      </trkpt>
      <trkpt lat="42.449576044455171" lon="13.557515144348145">
        <ele>2238.0900000000001</ele>
        <time>2013-09-10T13:58:06Z</time>
      </trkpt>
      <trkpt lat="42.449458530172706" lon="13.557363348081708">
        <ele>2238.5700000000002</ele>
        <time>2013-09-10T13:58:20Z</time>
      </trkpt>
      <trkpt lat="42.449431624263525" lon="13.55732093565166">
        <ele>2239.5300000000002</ele>
        <time>2013-09-10T13:58:24Z</time>
      </trkpt>
      <trkpt lat="42.449401533231139" lon="13.557264609262347">
        <ele>2239.0500000000002</ele>
        <time>2013-09-10T13:58:29Z</time>
      </trkpt>
      <trkpt lat="42.449356354773045" lon="13.55719537474215">
        <ele>2238.5700000000002</ele>
        <time>2013-09-10T13:58:35Z</time>
      </trkpt>
      <trkpt lat="42.449267255142331" lon="13.557090600952506">
        <ele>2239.0500000000002</ele>
        <time>2013-09-10T13:58:46Z</time>
      </trkpt>
      <trkpt lat="42.449133479967713" lon="13.557007787749171">
        <ele>2240.0100000000002</ele>
        <time>2013-09-10T13:58:59Z</time>
      </trkpt>
      <trkpt lat="42.449099784716964" lon="13.556973924860358">
        <ele>2240.4899999999998</ele>
        <time>2013-09-10T13:59:03Z</time>
      </trkpt>
      <trkpt lat="42.449019234627485" lon="13.556899493560195">
        <ele>2239.0500000000002</ele>
        <time>2013-09-10T13:59:12Z</time>
      </trkpt>
      <trkpt lat="42.44897942058742" lon="13.556863535195589">
        <ele>2239.5300000000002</ele>
        <time>2013-09-10T13:59:16Z</time>
      </trkpt>
      <trkpt lat="42.44880004785955" lon="13.556713415309787">
        <ele>2240.9699999999998</ele>
        <time>2013-09-10T13:59:36Z</time>
      </trkpt>
      <trkpt lat="42.448613801971078" lon="13.5566021874547">
        <ele>2240.4899999999998</ele>
        <time>2013-09-10T13:59:54Z</time>
      </trkpt>
      <trkpt lat="42.448577340692282" lon="13.55658357962966">
        <ele>2239.0500000000002</ele>
        <time>2013-09-10T13:59:57Z</time>
      </trkpt>
      <trkpt lat="42.448426382616162" lon="13.556531947106123">
        <ele>2236.6399999999999</ele>
        <time>2013-09-10T14:00:15Z</time>
      </trkpt>
      <trkpt lat="42.448297385126352" lon="13.556495066732168">
        <ele>2235.1999999999998</ele>
        <time>2013-09-10T14:00:31Z</time>
      </trkpt>
      <trkpt lat="42.448092782869935" lon="13.556376965716481">
        <ele>2233.7600000000002</ele>
        <time>2013-09-10T14:00:50Z</time>
      </trkpt>
      <trkpt lat="42.447884241119027" lon="13.556328015401959">
        <ele>2235.6799999999998</ele>
        <time>2013-09-10T14:01:07Z</time>
      </trkpt>
      <trkpt lat="42.447760524228215" lon="13.556289039552212">
        <ele>2234.2399999999998</ele>
        <time>2013-09-10T14:01:19Z</time>
      </trkpt>
      <trkpt lat="42.44767913594842" lon="13.556266073137522">
        <ele>2235.1999999999998</ele>
        <time>2013-09-10T14:01:27Z</time>
      </trkpt>
      <trkpt lat="42.447478473186493" lon="13.556256769225001">
        <ele>2237.1300000000001</ele>
        <time>2013-09-10T14:01:44Z</time>
      </trkpt>
      <trkpt lat="42.447302704676986" lon="13.556315191090107">
        <ele>2236.6399999999999</ele>
        <time>2013-09-10T14:01:59Z</time>
      </trkpt>
      <trkpt lat="42.447232631966472" lon="13.556330613791943">
        <ele>2236.1599999999999</ele>
        <time>2013-09-10T14:02:05Z</time>
      </trkpt>
      <trkpt lat="42.44708351790905" lon="13.556359698995948">
        <ele>2234.7199999999998</ele>
        <time>2013-09-10T14:02:20Z</time>
      </trkpt>
      <trkpt lat="42.446992238983512" lon="13.556409319862723">
        <ele>2234.7199999999998</ele>
        <time>2013-09-10T14:02:31Z</time>
      </trkpt>
      <trkpt lat="42.446821751073003" lon="13.556447708979249">
        <ele>2235.1999999999998</ele>
        <time>2013-09-10T14:02:45Z</time>
      </trkpt>
      <trkpt lat="42.446797108277678" lon="13.55644921772182">
        <ele>2232.3200000000002</ele>
        <time>2013-09-10T14:02:47Z</time>
      </trkpt>
      <trkpt lat="42.446788977831602" lon="13.55644972063601">
        <ele>2232.3200000000002</ele>
        <time>2013-09-10T14:02:48Z</time>
      </trkpt>
      <trkpt lat="42.44665595702827" lon="13.556418539956212">
        <ele>2232.3200000000002</ele>
        <time>2013-09-10T14:03:03Z</time>
      </trkpt>
      <trkpt lat="42.446573562920094" lon="13.556397166103125">
        <ele>2234.7199999999998</ele>
        <time>2013-09-10T14:03:09Z</time>
      </trkpt>
      <trkpt lat="42.446546237915754" lon="13.556402027606964">
        <ele>2232.8000000000002</ele>
        <time>2013-09-10T14:03:12Z</time>
      </trkpt>
      <trkpt lat="42.44641019962728" lon="13.556459527462721">
        <ele>2232.3200000000002</ele>
        <time>2013-09-10T14:03:28Z</time>
      </trkpt>
      <trkpt lat="42.446275586262345" lon="13.556532701477408">
        <ele>2234.2399999999998</ele>
        <time>2013-09-10T14:03:43Z</time>
      </trkpt>
      <trkpt lat="42.44627776555717" lon="13.55652641505003">
        <ele>2228.9499999999998</ele>
        <time>2013-09-10T14:03:45Z</time>
      </trkpt>
      <trkpt lat="42.446277178823948" lon="13.556525995954871">
        <ele>2229.4299999999998</ele>
        <time>2013-09-10T14:03:46Z</time>
      </trkpt>
      <trkpt lat="42.446274245157838" lon="13.55653228238225">
        <ele>2232.8000000000002</ele>
        <time>2013-09-10T14:03:47Z</time>
      </trkpt>
      <trkpt lat="42.446250943467021" lon="13.556565977632999">
        <ele>2227.5100000000002</ele>
        <time>2013-09-10T14:03:53Z</time>
      </trkpt>
      <trkpt lat="42.446253793314099" lon="13.556576203554869">
        <ele>2235.6799999999998</ele>
        <time>2013-09-10T14:03:55Z</time>
      </trkpt>
      <trkpt lat="42.446252033114433" lon="13.556587602943182">
        <ele>2234.7199999999998</ele>
        <time>2013-09-10T14:03:56Z</time>
      </trkpt>
      <trkpt lat="42.446244237944484" lon="13.556598164141178">
        <ele>2227.5100000000002</ele>
        <time>2013-09-10T14:03:59Z</time>
      </trkpt>
      <trkpt lat="42.446241052821279" lon="13.556594392284751">
        <ele>2224.1500000000001</ele>
        <time>2013-09-10T14:04:01Z</time>
      </trkpt>
      <trkpt lat="42.446238873526454" lon="13.5566021874547">
        <ele>2231.8400000000001</ele>
        <time>2013-09-10T14:04:06Z</time>
      </trkpt>
      <trkpt lat="42.446224959567189" lon="13.556623142212629">
        <ele>2234.2399999999998</ele>
        <time>2013-09-10T14:04:08Z</time>
      </trkpt>
      <trkpt lat="42.446132255718112" lon="13.556621382012963">
        <ele>2230.4000000000001</ele>
        <time>2013-09-10T14:04:16Z</time>
      </trkpt>
      <trkpt lat="42.44609504006803" lon="13.556617526337504">
        <ele>2226.0700000000002</ele>
        <time>2013-09-10T14:04:20Z</time>
      </trkpt>
      <trkpt lat="42.446087161079049" lon="13.556616436690092">
        <ele>2227.5100000000002</ele>
        <time>2013-09-10T14:04:21Z</time>
      </trkpt>
      <trkpt lat="42.446017926558852" lon="13.55662071146071">
        <ele>2223.1900000000001</ele>
        <time>2013-09-10T14:04:28Z</time>
      </trkpt>
      <trkpt lat="42.445903681218624" lon="13.556594559922814">
        <ele>2224.1500000000001</ele>
        <time>2013-09-10T14:04:38Z</time>
      </trkpt>
      <trkpt lat="42.445843750610948" lon="13.556575365364552">
        <ele>2219.3400000000001</ele>
        <time>2013-09-10T14:04:43Z</time>
      </trkpt>
      <trkpt lat="42.445795722305775" lon="13.556617191061378">
        <ele>2216.46</ele>
        <time>2013-09-10T14:04:52Z</time>
      </trkpt>
      <trkpt lat="42.445777282118797" lon="13.556861272081733">
        <ele>2213.0900000000001</ele>
        <time>2013-09-10T14:05:09Z</time>
      </trkpt>
      <trkpt lat="42.445767475292087" lon="13.557025054469705">
        <ele>2211.1700000000001</ele>
        <time>2013-09-10T14:05:21Z</time>
      </trkpt>
      <trkpt lat="42.445723302662373" lon="13.557056402787566">
        <ele>2210.21</ele>
        <time>2013-09-10T14:05:26Z</time>
      </trkpt>
      <trkpt lat="42.445652643218637" lon="13.557040225714445">
        <ele>2210.21</ele>
        <time>2013-09-10T14:05:33Z</time>
      </trkpt>
      <trkpt lat="42.445563124492764" lon="13.556989347562194">
        <ele>2206.3600000000001</ele>
        <time>2013-09-10T14:05:42Z</time>
      </trkpt>
      <trkpt lat="42.445476120337844" lon="13.556936625391245">
        <ele>2203.48</ele>
        <time>2013-09-10T14:05:52Z</time>
      </trkpt>
      <trkpt lat="42.445457261055708" lon="13.556930590420961">
        <ele>2201.5599999999999</ele>
        <time>2013-09-10T14:05:54Z</time>
      </trkpt>
      <trkpt lat="42.445379141718149" lon="13.556969985365868">
        <ele>2199.6300000000001</ele>
        <time>2013-09-10T14:06:04Z</time>
      </trkpt>
      <trkpt lat="42.445262297987938" lon="13.557028071954846">
        <ele>2195.3099999999999</ele>
        <time>2013-09-10T14:06:18Z</time>
      </trkpt>
      <trkpt lat="42.445255173370242" lon="13.557036453858018">
        <ele>2195.79</ele>
        <time>2013-09-10T14:06:19Z</time>
      </trkpt>
      <trkpt lat="42.445240085944533" lon="13.557051541283727">
        <ele>2195.3099999999999</ele>
        <time>2013-09-10T14:06:21Z</time>
      </trkpt>
      <trkpt lat="42.445195410400629" lon="13.557116920128465">
        <ele>2193.8699999999999</ele>
        <time>2013-09-10T14:06:31Z</time>
      </trkpt>
      <trkpt lat="42.445164564996958" lon="13.557138461619616">
        <ele>2193.3899999999999</ele>
        <time>2013-09-10T14:06:35Z</time>
      </trkpt>
      <trkpt lat="42.445157021284103" lon="13.557159500196576">
        <ele>2192.4200000000001</ele>
        <time>2013-09-10T14:06:37Z</time>
      </trkpt>
      <trkpt lat="42.445117710158229" lon="13.557192608714104">
        <ele>2191.46</ele>
        <time>2013-09-10T14:06:43Z</time>
      </trkpt>
      <trkpt lat="42.445123242214322" lon="13.557252790778875">
        <ele>2190.02</ele>
        <time>2013-09-10T14:06:48Z</time>
      </trkpt>
      <trkpt lat="42.445115782320499" lon="13.557276092469692">
        <ele>2189.54</ele>
        <time>2013-09-10T14:06:50Z</time>
      </trkpt>
      <trkpt lat="42.445084853097796" lon="13.557354211807251">
        <ele>2189.54</ele>
        <time>2013-09-10T14:06:56Z</time>
      </trkpt>
      <trkpt lat="42.445061299949884" lon="13.557379776611924">
        <ele>2188.5799999999999</ele>
        <time>2013-09-10T14:06:59Z</time>
      </trkpt>
      <trkpt lat="42.44500488974154" lon="13.557428643107414">
        <ele>2186.1799999999998</ele>
        <time>2013-09-10T14:07:05Z</time>
      </trkpt>
      <trkpt lat="42.444950072094798" lon="13.55741573497653">
        <ele>2186.1799999999998</ele>
        <time>2013-09-10T14:07:19Z</time>
      </trkpt>
      <trkpt lat="42.444876562803984" lon="13.557457393035293">
        <ele>2183.77</ele>
        <time>2013-09-10T14:07:33Z</time>
      </trkpt>
      <trkpt lat="42.44485636241734" lon="13.557522436603904">
        <ele>2184.73</ele>
        <time>2013-09-10T14:07:38Z</time>
      </trkpt>
      <trkpt lat="42.444819062948227" lon="13.557544397190213">
        <ele>2185.6900000000001</ele>
        <time>2013-09-10T14:07:42Z</time>
      </trkpt>
      <trkpt lat="42.444787379354239" lon="13.557555628940463">
        <ele>2187.1399999999999</ele>
        <time>2013-09-10T14:07:45Z</time>
      </trkpt>
      <trkpt lat="42.444753684103489" lon="13.557555880397558">
        <ele>2183.29</ele>
        <time>2013-09-10T14:07:48Z</time>
      </trkpt>
      <trkpt lat="42.444743542000651" lon="13.557551018893719">
        <ele>2183.77</ele>
        <time>2013-09-10T14:07:49Z</time>
      </trkpt>
      <trkpt lat="42.44470632635057" lon="13.557561244815588">
        <ele>2181.3699999999999</ele>
        <time>2013-09-10T14:07:53Z</time>
      </trkpt>
      <trkpt lat="42.444682270288467" lon="13.557549342513084">
        <ele>2176.5599999999999</ele>
        <time>2013-09-10T14:07:57Z</time>
      </trkpt>
      <trkpt lat="42.444616975262761" lon="13.55756719596684">
        <ele>2179.9299999999998</ele>
        <time>2013-09-10T14:08:03Z</time>
      </trkpt>
      <trkpt lat="42.44445176795125" lon="13.557557724416256">
        <ele>2181.8499999999999</ele>
        <time>2013-09-10T14:08:18Z</time>
      </trkpt>
      <trkpt lat="42.444405080750585" lon="13.557543307542801">
        <ele>2178.9699999999998</ele>
        <time>2013-09-10T14:08:22Z</time>
      </trkpt>
      <trkpt lat="42.444358645007014" lon="13.557522520422935">
        <ele>2177.52</ele>
        <time>2013-09-10T14:08:26Z</time>
      </trkpt>
      <trkpt lat="42.444329727441072" lon="13.557490166276693">
        <ele>2176.5599999999999</ele>
        <time>2013-09-10T14:08:30Z</time>
      </trkpt>
      <trkpt lat="42.444293517619371" lon="13.557495949789882">
        <ele>2173.1999999999998</ele>
        <time>2013-09-10T14:08:34Z</time>
      </trkpt>
      <trkpt lat="42.444272059947252" lon="13.557499889284372">
        <ele>2171.27</ele>
        <time>2013-09-10T14:08:36Z</time>
      </trkpt>
      <trkpt lat="42.44423727504909" lon="13.55750952847302">
        <ele>2169.8299999999999</ele>
        <time>2013-09-10T14:08:39Z</time>
      </trkpt>
      <trkpt lat="42.444174075499177" lon="13.557547414675355">
        <ele>2166.9499999999998</ele>
        <time>2013-09-10T14:08:45Z</time>
      </trkpt>
      <trkpt lat="42.444025129079819" lon="13.557613380253315">
        <ele>2166.4699999999998</ele>
        <time>2013-09-10T14:08:59Z</time>
      </trkpt>
      <trkpt lat="42.443973748013377" lon="13.557625869289041">
        <ele>2165.9899999999998</ele>
        <time>2013-09-10T14:09:04Z</time>
      </trkpt>
      <trkpt lat="42.443799152970314" lon="13.557778755202889">
        <ele>2166.4699999999998</ele>
        <time>2013-09-10T14:09:23Z</time>
      </trkpt>
      <trkpt lat="42.443720530718565" lon="13.55786039493978">
        <ele>2166.4699999999998</ele>
        <time>2013-09-10T14:09:33Z</time>
      </trkpt>
      <trkpt lat="42.443702258169651" lon="13.557858383283019">
        <ele>2162.1399999999999</ele>
        <time>2013-09-10T14:09:37Z</time>
      </trkpt>
      <trkpt lat="42.443699659779668" lon="13.557861736044288">
        <ele>2165.5100000000002</ele>
        <time>2013-09-10T14:09:38Z</time>
      </trkpt>
      <trkpt lat="42.44368021376431" lon="13.557874392718077">
        <ele>2167.9099999999999</ele>
        <time>2013-09-10T14:09:40Z</time>
      </trkpt>
      <trkpt lat="42.443641405552626" lon="13.557949410751462">
        <ele>2166.4699999999998</ele>
        <time>2013-09-10T14:09:45Z</time>
      </trkpt>
      <trkpt lat="42.443513078615069" lon="13.558090981096029">
        <ele>2163.5799999999999</ele>
        <time>2013-09-10T14:09:59Z</time>
      </trkpt>
      <trkpt lat="42.443496147170663" lon="13.558108666911721">
        <ele>2162.6199999999999</ele>
        <time>2013-09-10T14:10:01Z</time>
      </trkpt>
      <trkpt lat="42.443432109430432" lon="13.558155270293355">
        <ele>2160.6999999999998</ele>
        <time>2013-09-10T14:10:07Z</time>
      </trkpt>
      <trkpt lat="42.443413082510233" lon="13.558198772370815">
        <ele>2162.6199999999999</ele>
        <time>2013-09-10T14:10:19Z</time>
      </trkpt>
      <trkpt lat="42.44341928511858" lon="13.558227103203535">
        <ele>2162.6199999999999</ele>
        <time>2013-09-10T14:10:25Z</time>
      </trkpt>
      <trkpt lat="42.443375028669834" lon="13.558244537562132">
        <ele>2158.7800000000002</ele>
        <time>2013-09-10T14:10:29Z</time>
      </trkpt>
      <trkpt lat="42.443287940695882" lon="13.558305473998189">
        <ele>2161.1799999999998</ele>
        <time>2013-09-10T14:10:38Z</time>
      </trkpt>
      <trkpt lat="42.443269668146968" lon="13.558325003832579">
        <ele>2162.6199999999999</ele>
        <time>2013-09-10T14:10:40Z</time>
      </trkpt>
      <trkpt lat="42.443196326494217" lon="13.558400776237249">
        <ele>2157.8200000000002</ele>
        <time>2013-09-10T14:10:48Z</time>
      </trkpt>
      <trkpt lat="42.443047547712922" lon="13.55854444205761">
        <ele>2161.1799999999998</ele>
        <time>2013-09-10T14:11:03Z</time>
      </trkpt>
      <trkpt lat="42.443038579076529" lon="13.558557517826557">
        <ele>2158.3000000000002</ele>
        <time>2013-09-10T14:11:04Z</time>
      </trkpt>
      <trkpt lat="42.443005302920938" lon="13.558597918599844">
        <ele>2154.4499999999998</ele>
        <time>2013-09-10T14:11:08Z</time>
      </trkpt>
      <trkpt lat="42.442988539114594" lon="13.55861728079617">
        <ele>2153.4899999999998</ele>
        <time>2013-09-10T14:11:10Z</time>
      </trkpt>
      <trkpt lat="42.442975882440805" lon="13.558638989925385">
        <ele>2153.0100000000002</ele>
        <time>2013-09-10T14:11:17Z</time>
      </trkpt>
      <trkpt lat="42.44296875782311" lon="13.558647455647588">
        <ele>2155.8899999999999</ele>
        <time>2013-09-10T14:11:19Z</time>
      </trkpt>
      <trkpt lat="42.442956520244479" lon="13.558689868077636">
        <ele>2153.0100000000002</ele>
        <time>2013-09-10T14:11:22Z</time>
      </trkpt>
      <trkpt lat="42.442920729517937" lon="13.558826744556427">
        <ele>2153.9699999999998</ele>
        <time>2013-09-10T14:11:33Z</time>
      </trkpt>
      <trkpt lat="42.44292332790792" lon="13.55883227661252">
        <ele>2153.9699999999998</ele>
        <time>2013-09-10T14:11:34Z</time>
      </trkpt>
      <trkpt lat="42.442938247695565" lon="13.558883490040898">
        <ele>2152.0500000000002</ele>
        <time>2013-09-10T14:11:38Z</time>
      </trkpt>
      <trkpt lat="42.442942103371024" lon="13.558893296867609">
        <ele>2152.0500000000002</ele>
        <time>2013-09-10T14:11:39Z</time>
      </trkpt>
      <trkpt lat="42.442942187190056" lon="13.55891433544457">
        <ele>2151.0900000000001</ele>
        <time>2013-09-10T14:11:41Z</time>
      </trkpt>
      <trkpt lat="42.442823499441147" lon="13.559001674875617">
        <ele>2151.0900000000001</ele>
        <time>2013-09-10T14:11:55Z</time>
      </trkpt>
      <trkpt lat="42.442770106717944" lon="13.559009218588471">
        <ele>2150.6100000000001</ele>
        <time>2013-09-10T14:12:00Z</time>
      </trkpt>
      <trkpt lat="42.442737920209765" lon="13.559011816978455">
        <ele>2150.1300000000001</ele>
        <time>2013-09-10T14:12:14Z</time>
      </trkpt>
      <trkpt lat="42.442719396203756" lon="13.559004943817854">
        <ele>2150.6100000000001</ele>
        <time>2013-09-10T14:12:19Z</time>
      </trkpt>
      <trkpt lat="42.442693915218115" lon="13.558994634076953">
        <ele>2151.5700000000002</ele>
        <time>2013-09-10T14:12:21Z</time>
      </trkpt>
      <trkpt lat="42.442630967125297" lon="13.558965884149075">
        <ele>2152.0500000000002</ele>
        <time>2013-09-10T14:12:27Z</time>
      </trkpt>
      <trkpt lat="42.442589057609439" lon="13.558966722339392">
        <ele>2153.9699999999998</ele>
        <time>2013-09-10T14:12:31Z</time>
      </trkpt>
      <trkpt lat="42.442561648786068" lon="13.558973092585802">
        <ele>2153.9699999999998</ele>
        <time>2013-09-10T14:12:33Z</time>
      </trkpt>
      <trkpt lat="42.442473471164703" lon="13.559003351256251">
        <ele>2151.5700000000002</ele>
        <time>2013-09-10T14:12:44Z</time>
      </trkpt>
    </trkseg>
  </trk>

  <trk>
    <name>4-g-rif-d-abruzzi-e-garibaldi2013-09-11</name>
    <extensions>
      <gpxx:TrackExtension>
        <gpxx:DisplayColor>Yellow</gpxx:DisplayColor>
      </gpxx:TrackExtension>
    </extensions>
    <trkseg>
      <trkpt lat="42.442698525264859" lon="13.559004357084632">
        <ele>2136.6700000000001</ele>
        <time>2013-09-11T06:41:12Z</time>
      </trkpt>
      <trkpt lat="42.442728448659182" lon="13.558985833078623">
        <ele>2136.6700000000001</ele>
        <time>2013-09-11T06:41:38Z</time>
      </trkpt>
      <trkpt lat="42.442746302112937" lon="13.558984911069274">
        <ele>2136.6700000000001</ele>
        <time>2013-09-11T06:41:58Z</time>
      </trkpt>
      <trkpt lat="42.442722832784057" lon="13.559010308235884">
        <ele>2136.6700000000001</ele>
        <time>2013-09-11T06:42:16Z</time>
      </trkpt>
      <trkpt lat="42.44271419942379" lon="13.558998992666602">
        <ele>2136.6700000000001</ele>
        <time>2013-09-11T06:42:28Z</time>
      </trkpt>
      <trkpt lat="42.442792486399412" lon="13.558966219425201">
        <ele>2136.6700000000001</ele>
        <time>2013-09-11T06:42:45Z</time>
      </trkpt>
      <trkpt lat="42.442803885787725" lon="13.558969236910343">
        <ele>2136.1900000000001</ele>
        <time>2013-09-11T06:42:46Z</time>
      </trkpt>
      <trkpt lat="42.442874126136303" lon="13.558925148099661">
        <ele>2136.6700000000001</ele>
        <time>2013-09-11T06:42:54Z</time>
      </trkpt>
      <trkpt lat="42.442893236875534" lon="13.558898326009512">
        <ele>2133.7800000000002</ele>
        <time>2013-09-11T06:42:57Z</time>
      </trkpt>
      <trkpt lat="42.442901451140642" lon="13.558888686820865">
        <ele>2133.7800000000002</ele>
        <time>2013-09-11T06:42:58Z</time>
      </trkpt>
      <trkpt lat="42.442907402291894" lon="13.558849208056927">
        <ele>2134.7399999999998</ele>
        <time>2013-09-11T06:43:01Z</time>
      </trkpt>
      <trkpt lat="42.442891057580709" lon="13.558795647695661">
        <ele>2137.1500000000001</ele>
        <time>2013-09-11T06:43:05Z</time>
      </trkpt>
      <trkpt lat="42.442900696769357" lon="13.558738399296999">
        <ele>2132.8200000000002</ele>
        <time>2013-09-11T06:43:09Z</time>
      </trkpt>
      <trkpt lat="42.442900529131293" lon="13.558724904432893">
        <ele>2136.1900000000001</ele>
        <time>2013-09-11T06:43:10Z</time>
      </trkpt>
      <trkpt lat="42.442904217168689" lon="13.558696238324046">
        <ele>2137.1500000000001</ele>
        <time>2013-09-11T06:43:12Z</time>
      </trkpt>
      <trkpt lat="42.442909330129623" lon="13.558684168383479">
        <ele>2132.8200000000002</ele>
        <time>2013-09-11T06:43:13Z</time>
      </trkpt>
      <trkpt lat="42.442913688719273" lon="13.558672601357102">
        <ele>2134.2600000000002</ele>
        <time>2013-09-11T06:43:14Z</time>
      </trkpt>
      <trkpt lat="42.442919053137302" lon="13.558648545295">
        <ele>2137.6300000000001</ele>
        <time>2013-09-11T06:43:16Z</time>
      </trkpt>
      <trkpt lat="42.442920980975032" lon="13.558632368221879">
        <ele>2140.5100000000002</ele>
        <time>2013-09-11T06:43:22Z</time>
      </trkpt>
      <trkpt lat="42.443013852462173" lon="13.558498760685325">
        <ele>2137.1500000000001</ele>
        <time>2013-09-11T06:43:36Z</time>
      </trkpt>
      <trkpt lat="42.443030783906579" lon="13.558503286913037">
        <ele>2142.9200000000001</ele>
        <time>2013-09-11T06:43:41Z</time>
      </trkpt>
      <trkpt lat="42.443038327619433" lon="13.558497838675976">
        <ele>2141.9499999999998</ele>
        <time>2013-09-11T06:43:42Z</time>
      </trkpt>
      <trkpt lat="42.443058611825109" lon="13.558478811755776">
        <ele>2140.0300000000002</ele>
        <time>2013-09-11T06:43:45Z</time>
      </trkpt>
      <trkpt lat="42.443174785003066" lon="13.558366578072309">
        <ele>2141.4699999999998</ele>
        <time>2013-09-11T06:44:02Z</time>
      </trkpt>
      <trkpt lat="42.443234715610743" lon="13.558301366865635">
        <ele>2143.4000000000001</ele>
        <time>2013-09-11T06:44:11Z</time>
      </trkpt>
      <trkpt lat="42.443318450823426" lon="13.558229198679328">
        <ele>2146.7600000000002</ele>
        <time>2013-09-11T06:44:22Z</time>
      </trkpt>
      <trkpt lat="42.443326413631439" lon="13.558221235871315">
        <ele>2146.2800000000002</ele>
        <time>2013-09-11T06:44:23Z</time>
      </trkpt>
      <trkpt lat="42.443333705887198" lon="13.558215200901031">
        <ele>2142.9200000000001</ele>
        <time>2013-09-11T06:44:24Z</time>
      </trkpt>
      <trkpt lat="42.443434372544289" lon="13.558129537850618">
        <ele>2143.4000000000001</ele>
        <time>2013-09-11T06:44:39Z</time>
      </trkpt>
      <trkpt lat="42.443456584587693" lon="13.558117132633924">
        <ele>2148.1999999999998</ele>
        <time>2013-09-11T06:44:42Z</time>
      </trkpt>
      <trkpt lat="42.443475192412734" lon="13.558110259473324">
        <ele>2149.6500000000001</ele>
        <time>2013-09-11T06:44:44Z</time>
      </trkpt>
      <trkpt lat="42.443493632599711" lon="13.5580959264189">
        <ele>2148.6799999999998</ele>
        <time>2013-09-11T06:44:46Z</time>
      </trkpt>
      <trkpt lat="42.443508971482515" lon="13.558081593364477">
        <ele>2146.7600000000002</ele>
        <time>2013-09-11T06:44:48Z</time>
      </trkpt>
      <trkpt lat="42.443535793572664" lon="13.558068852871656">
        <ele>2151.0900000000001</ele>
        <time>2013-09-11T06:44:51Z</time>
      </trkpt>
      <trkpt lat="42.443543924018741" lon="13.558063739910722">
        <ele>2151.0900000000001</ele>
        <time>2013-09-11T06:44:52Z</time>
      </trkpt>
      <trkpt lat="42.443567393347621" lon="13.558051669970155">
        <ele>2147.2399999999998</ele>
        <time>2013-09-11T06:44:55Z</time>
      </trkpt>
      <trkpt lat="42.443574517965317" lon="13.558045299723744">
        <ele>2147.2399999999998</ele>
        <time>2013-09-11T06:44:56Z</time>
      </trkpt>
      <trkpt lat="42.44362304918468" lon="13.557994924485683">
        <ele>2144.3600000000001</ele>
        <time>2013-09-11T06:45:02Z</time>
      </trkpt>
      <trkpt lat="42.443629754707217" lon="13.557986374944448">
        <ele>2142.4400000000001</ele>
        <time>2013-09-11T06:45:03Z</time>
      </trkpt>
      <trkpt lat="42.44364065118134" lon="13.557967012748122">
        <ele>2147.2399999999998</ele>
        <time>2013-09-11T06:45:05Z</time>
      </trkpt>
      <trkpt lat="42.44365431368351" lon="13.557951506227255">
        <ele>2148.6799999999998</ele>
        <time>2013-09-11T06:45:07Z</time>
      </trkpt>
      <trkpt lat="42.443672670051455" lon="13.557920157909393">
        <ele>2146.7600000000002</ele>
        <time>2013-09-11T06:45:10Z</time>
      </trkpt>
      <trkpt lat="42.443685242906213" lon="13.557898700237274">
        <ele>2140.9899999999998</ele>
        <time>2013-09-11T06:45:12Z</time>
      </trkpt>
      <trkpt lat="42.443688763305545" lon="13.557888306677341">
        <ele>2141.4699999999998</ele>
        <time>2013-09-11T06:45:13Z</time>
      </trkpt>
      <trkpt lat="42.443719441071153" lon="13.55782913044095">
        <ele>2142.9200000000001</ele>
        <time>2013-09-11T06:45:21Z</time>
      </trkpt>
      <trkpt lat="42.443727906793356" lon="13.557802643626928">
        <ele>2146.7600000000002</ele>
        <time>2013-09-11T06:45:23Z</time>
      </trkpt>
      <trkpt lat="42.443741988390684" lon="13.557783616706729">
        <ele>2142.9200000000001</ele>
        <time>2013-09-11T06:45:25Z</time>
      </trkpt>
      <trkpt lat="42.443749029189348" lon="13.55777439661324">
        <ele>2145.8000000000002</ele>
        <time>2013-09-11T06:45:26Z</time>
      </trkpt>
      <trkpt lat="42.443762607872486" lon="13.557759644463658">
        <ele>2141.9499999999998</ele>
        <time>2013-09-11T06:45:28Z</time>
      </trkpt>
      <trkpt lat="42.443820107728243" lon="13.557728882879019">
        <ele>2149.6500000000001</ele>
        <time>2013-09-11T06:45:35Z</time>
      </trkpt>
      <trkpt lat="42.443826561793685" lon="13.55772452428937">
        <ele>2147.2399999999998</ele>
        <time>2013-09-11T06:45:36Z</time>
      </trkpt>
      <trkpt lat="42.443834189325571" lon="13.557722009718418">
        <ele>2145.8000000000002</ele>
        <time>2013-09-11T06:45:38Z</time>
      </trkpt>
      <trkpt lat="42.443884145468473" lon="13.557691583409905">
        <ele>2148.1999999999998</ele>
        <time>2013-09-11T06:45:44Z</time>
      </trkpt>
      <trkpt lat="42.443911386653781" lon="13.55767029337585">
        <ele>2143.8800000000001</ele>
        <time>2013-09-11T06:45:47Z</time>
      </trkpt>
      <trkpt lat="42.443928904831409" lon="13.557666772976518">
        <ele>2147.7199999999998</ele>
        <time>2013-09-11T06:45:49Z</time>
      </trkpt>
      <trkpt lat="42.443946255370975" lon="13.5576624982059">
        <ele>2148.1999999999998</ele>
        <time>2013-09-11T06:45:51Z</time>
      </trkpt>
      <trkpt lat="42.444044575095177" lon="13.557600053027272">
        <ele>2148.6799999999998</ele>
        <time>2013-09-11T06:46:06Z</time>
      </trkpt>
      <trkpt lat="42.444179356098175" lon="13.557534674182534">
        <ele>2151.5700000000002</ele>
        <time>2013-09-11T06:46:23Z</time>
      </trkpt>
      <trkpt lat="42.444219253957272" lon="13.557509360834956">
        <ele>2154.4499999999998</ele>
        <time>2013-09-11T06:46:29Z</time>
      </trkpt>
      <trkpt lat="42.44425336830318" lon="13.5575036611408">
        <ele>2155.4099999999999</ele>
        <time>2013-09-11T06:46:34Z</time>
      </trkpt>
      <trkpt lat="42.444257223978639" lon="13.557493938133121">
        <ele>2151.5700000000002</ele>
        <time>2013-09-11T06:46:36Z</time>
      </trkpt>
      <trkpt lat="42.444259487092495" lon="13.557487819343805">
        <ele>2152.0500000000002</ele>
        <time>2013-09-11T06:46:37Z</time>
      </trkpt>
      <trkpt lat="42.444293349981308" lon="13.557476587593555">
        <ele>2155.4099999999999</ele>
        <time>2013-09-11T06:46:42Z</time>
      </trkpt>
      <trkpt lat="42.444306761026382" lon="13.557469630613923">
        <ele>2156.8600000000001</ele>
        <time>2013-09-11T06:46:44Z</time>
      </trkpt>
      <trkpt lat="42.444414049386978" lon="13.557395869866014">
        <ele>2156.8600000000001</ele>
        <time>2013-09-11T06:47:01Z</time>
      </trkpt>
      <trkpt lat="42.444471633061767" lon="13.557338118553162">
        <ele>2157.8200000000002</ele>
        <time>2013-09-11T06:47:14Z</time>
      </trkpt>
      <trkpt lat="42.444511279463768" lon="13.557297131046653">
        <ele>2162.1399999999999</ele>
        <time>2013-09-11T06:47:22Z</time>
      </trkpt>
      <trkpt lat="42.44451530277729" lon="13.557292688637972">
        <ele>2162.1399999999999</ele>
        <time>2013-09-11T06:47:23Z</time>
      </trkpt>
      <trkpt lat="42.444565678015351" lon="13.557212306186557">
        <ele>2162.1399999999999</ele>
        <time>2013-09-11T06:47:38Z</time>
      </trkpt>
      <trkpt lat="42.444569198414683" lon="13.557192692533135">
        <ele>2160.6999999999998</ele>
        <time>2013-09-11T06:47:40Z</time>
      </trkpt>
      <trkpt lat="42.444580430164933" lon="13.55714944191277">
        <ele>2159.2600000000002</ele>
        <time>2013-09-11T06:47:46Z</time>
      </trkpt>
      <trkpt lat="42.444583280012012" lon="13.557107280939817">
        <ele>2163.5799999999999</ele>
        <time>2013-09-11T06:47:52Z</time>
      </trkpt>
      <trkpt lat="42.4445890635252" lon="13.557098563760519">
        <ele>2165.5100000000002</ele>
        <time>2013-09-11T06:47:54Z</time>
      </trkpt>
      <trkpt lat="42.444654610008001" lon="13.557036956772208">
        <ele>2165.9899999999998</ele>
        <time>2013-09-11T06:48:07Z</time>
      </trkpt>
      <trkpt lat="42.444701381027699" lon="13.557029915973544">
        <ele>2169.3499999999999</ele>
        <time>2013-09-11T06:48:15Z</time>
      </trkpt>
      <trkpt lat="42.444713031873107" lon="13.5570321790874">
        <ele>2169.8299999999999</ele>
        <time>2013-09-11T06:48:17Z</time>
      </trkpt>
      <trkpt lat="42.444794084876776" lon="13.557081213220954">
        <ele>2169.3499999999999</ele>
        <time>2013-09-11T06:48:31Z</time>
      </trkpt>
      <trkpt lat="42.444837167859077" lon="13.557066461071372">
        <ele>2168.3899999999999</ele>
        <time>2013-09-11T06:48:44Z</time>
      </trkpt>
      <trkpt lat="42.444864073768258" lon="13.557053385302424">
        <ele>2165.9899999999998</ele>
        <time>2013-09-11T06:48:49Z</time>
      </trkpt>
      <trkpt lat="42.444880250841379" lon="13.557026144117117">
        <ele>2170.3099999999999</ele>
        <time>2013-09-11T06:48:53Z</time>
      </trkpt>
      <trkpt lat="42.444914951920509" lon="13.556965040042996">
        <ele>2171.7600000000002</ele>
        <time>2013-09-11T06:49:03Z</time>
      </trkpt>
      <trkpt lat="42.444929452612996" lon="13.556943666189909">
        <ele>2173.1999999999998</ele>
        <time>2013-09-11T06:49:07Z</time>
      </trkpt>
      <trkpt lat="42.445015283301473" lon="13.556944001466036">
        <ele>2176.5599999999999</ele>
        <time>2013-09-11T06:49:21Z</time>
      </trkpt>
      <trkpt lat="42.445032969117165" lon="13.556940229609609">
        <ele>2176.5599999999999</ele>
        <time>2013-09-11T06:49:25Z</time>
      </trkpt>
      <trkpt lat="42.44505962356925" lon="13.556968225166202">
        <ele>2176.5599999999999</ele>
        <time>2013-09-11T06:49:29Z</time>
      </trkpt>
      <trkpt lat="42.445077812299132" lon="13.556983983144164">
        <ele>2177.04</ele>
        <time>2013-09-11T06:49:31Z</time>
      </trkpt>
      <trkpt lat="42.445156183093786" lon="13.557054391130805">
        <ele>2175.5999999999999</ele>
        <time>2013-09-11T06:49:45Z</time>
      </trkpt>
      <trkpt lat="42.445221813395619" lon="13.556985491886735">
        <ele>2176.5599999999999</ele>
        <time>2013-09-11T06:49:58Z</time>
      </trkpt>
      <trkpt lat="42.445274284109473" lon="13.556930925697088">
        <ele>2180.4099999999999</ele>
        <time>2013-09-11T06:50:10Z</time>
      </trkpt>
      <trkpt lat="42.445349134504795" lon="13.556875521317124">
        <ele>2180.8899999999999</ele>
        <time>2013-09-11T06:50:25Z</time>
      </trkpt>
      <trkpt lat="42.445414429530501" lon="13.556850543245673">
        <ele>2183.77</ele>
        <time>2013-09-11T06:50:38Z</time>
      </trkpt>
      <trkpt lat="42.445456171408296" lon="13.556819446384907">
        <ele>2183.77</ele>
        <time>2013-09-11T06:50:47Z</time>
      </trkpt>
      <trkpt lat="42.445484586060047" lon="13.556786673143506">
        <ele>2185.21</ele>
        <time>2013-09-11T06:50:55Z</time>
      </trkpt>
      <trkpt lat="42.445526663213968" lon="13.5567507147789">
        <ele>2188.5799999999999</ele>
        <time>2013-09-11T06:51:06Z</time>
      </trkpt>
      <trkpt lat="42.44552724994719" lon="13.556753732264042">
        <ele>2187.1399999999999</ele>
        <time>2013-09-11T06:51:13Z</time>
      </trkpt>
      <trkpt lat="42.445561615750194" lon="13.55672380886972">
        <ele>2187.6199999999999</ele>
        <time>2013-09-11T06:51:32Z</time>
      </trkpt>
      <trkpt lat="42.445561196655035" lon="13.556705033406615">
        <ele>2187.1399999999999</ele>
        <time>2013-09-11T06:51:34Z</time>
      </trkpt>
      <trkpt lat="42.445564297959208" lon="13.556690532714128">
        <ele>2190.98</ele>
        <time>2013-09-11T06:51:36Z</time>
      </trkpt>
      <trkpt lat="42.445565303787589" lon="13.556681983172894">
        <ele>2189.54</ele>
        <time>2013-09-11T06:51:37Z</time>
      </trkpt>
      <trkpt lat="42.445614086464047" lon="13.556647868826985">
        <ele>2191.9400000000001</ele>
        <time>2013-09-11T06:51:44Z</time>
      </trkpt>
      <trkpt lat="42.445650463923812" lon="13.556601097807288">
        <ele>2192.9000000000001</ele>
        <time>2013-09-11T06:51:52Z</time>
      </trkpt>
      <trkpt lat="42.445679046213627" lon="13.556600511074066">
        <ele>2193.3899999999999</ele>
        <time>2013-09-11T06:52:03Z</time>
      </trkpt>
      <trkpt lat="42.44570511393249" lon="13.556589530780911">
        <ele>2195.3099999999999</ele>
        <time>2013-09-11T06:52:11Z</time>
      </trkpt>
      <trkpt lat="42.445761021226645" lon="13.556559272110462">
        <ele>2196.75</ele>
        <time>2013-09-11T06:52:23Z</time>
      </trkpt>
      <trkpt lat="42.445767391473055" lon="13.556560110300779">
        <ele>2198.1900000000001</ele>
        <time>2013-09-11T06:52:25Z</time>
      </trkpt>
      <trkpt lat="42.44577007368207" lon="13.556556757539511">
        <ele>2198.6700000000001</ele>
        <time>2013-09-11T06:52:37Z</time>
      </trkpt>
      <trkpt lat="42.445796309038997" lon="13.556536054238677">
        <ele>2198.6700000000001</ele>
        <time>2013-09-11T06:52:48Z</time>
      </trkpt>
      <trkpt lat="42.445862274616957" lon="13.55655181221664">
        <ele>2202.04</ele>
        <time>2013-09-11T06:52:57Z</time>
      </trkpt>
      <trkpt lat="42.445964366197586" lon="13.556587686762214">
        <ele>2203.48</ele>
        <time>2013-09-11T06:53:13Z</time>
      </trkpt>
      <trkpt lat="42.446050113067031" lon="13.556605456396937">
        <ele>2206.3600000000001</ele>
        <time>2013-09-11T06:53:26Z</time>
      </trkpt>
      <trkpt lat="42.446151282638311" lon="13.556588860228658">
        <ele>2208.29</ele>
        <time>2013-09-11T06:53:43Z</time>
      </trkpt>
      <trkpt lat="42.446226719766855" lon="13.556544268503785">
        <ele>2209.25</ele>
        <time>2013-09-11T06:53:57Z</time>
      </trkpt>
      <trkpt lat="42.446235436946154" lon="13.556491965427995">
        <ele>2211.6500000000001</ele>
        <time>2013-09-11T06:54:04Z</time>
      </trkpt>
      <trkpt lat="42.446240046992898" lon="13.556459024548531">
        <ele>2209.73</ele>
        <time>2013-09-11T06:54:07Z</time>
      </trkpt>
      <trkpt lat="42.446240969002247" lon="13.55639205314219">
        <ele>2212.1300000000001</ele>
        <time>2013-09-11T06:54:16Z</time>
      </trkpt>
      <trkpt lat="42.446249602362514" lon="13.556343438103795">
        <ele>2213.5700000000002</ele>
        <time>2013-09-11T06:54:22Z</time>
      </trkpt>
      <trkpt lat="42.446265863254666" lon="13.556281747296453">
        <ele>2216.46</ele>
        <time>2013-09-11T06:54:32Z</time>
      </trkpt>
      <trkpt lat="42.446286482736468" lon="13.556196251884103">
        <ele>2218.8600000000001</ele>
        <time>2013-09-11T06:54:46Z</time>
      </trkpt>
      <trkpt lat="42.446303581818938" lon="13.556087538599968">
        <ele>2221.2600000000002</ele>
        <time>2013-09-11T06:55:01Z</time>
      </trkpt>
      <trkpt lat="42.446306431666017" lon="13.556071696802974">
        <ele>2222.2199999999998</ele>
        <time>2013-09-11T06:55:03Z</time>
      </trkpt>
      <trkpt lat="42.446308946236968" lon="13.555972119793296">
        <ele>2220.3000000000002</ele>
        <time>2013-09-11T06:55:16Z</time>
      </trkpt>
      <trkpt lat="42.446310371160507" lon="13.555955607444048">
        <ele>2221.2600000000002</ele>
        <time>2013-09-11T06:55:18Z</time>
      </trkpt>
      <trkpt lat="42.446325207129121" lon="13.555898107588291">
        <ele>2225.5900000000001</ele>
        <time>2013-09-11T06:55:26Z</time>
      </trkpt>
      <trkpt lat="42.446327805519104" lon="13.555877236649394">
        <ele>2223.1900000000001</ele>
        <time>2013-09-11T06:55:29Z</time>
      </trkpt>
      <trkpt lat="42.446333337575197" lon="13.555853348225355">
        <ele>2225.1100000000001</ele>
        <time>2013-09-11T06:55:32Z</time>
      </trkpt>
      <trkpt lat="42.4463383667171" lon="13.555837338790298">
        <ele>2223.1900000000001</ele>
        <time>2013-09-11T06:55:35Z</time>
      </trkpt>
      <trkpt lat="42.446339875459671" lon="13.555826023221016">
        <ele>2224.6300000000001</ele>
        <time>2013-09-11T06:55:37Z</time>
      </trkpt>
      <trkpt lat="42.446341048926115" lon="13.555820574983954">
        <ele>2220.7800000000002</ele>
        <time>2013-09-11T06:55:38Z</time>
      </trkpt>
      <trkpt lat="42.44634373113513" lon="13.555813869461417">
        <ele>2221.2600000000002</ele>
        <time>2013-09-11T06:55:39Z</time>
      </trkpt>
      <trkpt lat="42.446370050311089" lon="13.555726949125528">
        <ele>2222.2199999999998</ele>
        <time>2013-09-11T06:55:52Z</time>
      </trkpt>
      <trkpt lat="42.44637893512845" lon="13.555694427341223">
        <ele>2225.5900000000001</ele>
        <time>2013-09-11T06:55:56Z</time>
      </trkpt>
      <trkpt lat="42.446378599852324" lon="13.555677831172943">
        <ele>2227.9899999999998</ele>
        <time>2013-09-11T06:55:58Z</time>
      </trkpt>
      <trkpt lat="42.44639502838254" lon="13.555603735148907">
        <ele>2229.9200000000001</ele>
        <time>2013-09-11T06:56:09Z</time>
      </trkpt>
      <trkpt lat="42.446410451084375" lon="13.555537601932883">
        <ele>2228.4699999999998</ele>
        <time>2013-09-11T06:56:18Z</time>
      </trkpt>
      <trkpt lat="42.446405924856663" lon="13.555530309677124">
        <ele>2228.9499999999998</ele>
        <time>2013-09-11T06:56:19Z</time>
      </trkpt>
      <trkpt lat="42.446402153000236" lon="13.555490579456091">
        <ele>2230.4000000000001</ele>
        <time>2013-09-11T06:56:23Z</time>
      </trkpt>
      <trkpt lat="42.44640626013279" lon="13.555425954982638">
        <ele>2232.3200000000002</ele>
        <time>2013-09-11T06:56:32Z</time>
      </trkpt>
      <trkpt lat="42.446415899321437" lon="13.555345740169287">
        <ele>2227.0300000000002</ele>
        <time>2013-09-11T06:56:44Z</time>
      </trkpt>
      <trkpt lat="42.446413384750485" lon="13.555326629430056">
        <ele>2225.1100000000001</ele>
        <time>2013-09-11T06:56:46Z</time>
      </trkpt>
      <trkpt lat="42.446412881836295" lon="13.555295616388321">
        <ele>2227.5100000000002</ele>
        <time>2013-09-11T06:56:50Z</time>
      </trkpt>
      <trkpt lat="42.446420006453991" lon="13.555265860632062">
        <ele>2230.8800000000001</ele>
        <time>2013-09-11T06:56:54Z</time>
      </trkpt>
      <trkpt lat="42.446420677006245" lon="13.555258987471461">
        <ele>2230.8800000000001</ele>
        <time>2013-09-11T06:56:55Z</time>
      </trkpt>
      <trkpt lat="42.446419922634959" lon="13.555243900045753">
        <ele>2228.9499999999998</ele>
        <time>2013-09-11T06:56:57Z</time>
      </trkpt>
      <trkpt lat="42.446433585137129" lon="13.555197296664119">
        <ele>2227.9899999999998</ele>
        <time>2013-09-11T06:57:04Z</time>
      </trkpt>
      <trkpt lat="42.446436267346144" lon="13.555177180096507">
        <ele>2229.4299999999998</ele>
        <time>2013-09-11T06:57:07Z</time>
      </trkpt>
      <trkpt lat="42.446445571258664" lon="13.555087745189667">
        <ele>2232.3200000000002</ele>
        <time>2013-09-11T06:57:19Z</time>
      </trkpt>
      <trkpt lat="42.446449929848313" lon="13.555064192041755">
        <ele>2232.8000000000002</ele>
        <time>2013-09-11T06:57:23Z</time>
      </trkpt>
      <trkpt lat="42.446460826322436" lon="13.554953634738922">
        <ele>2235.1999999999998</ele>
        <time>2013-09-11T06:57:38Z</time>
      </trkpt>
      <trkpt lat="42.446461077779531" lon="13.55490711517632">
        <ele>2235.6799999999998</ele>
        <time>2013-09-11T06:57:45Z</time>
      </trkpt>
      <trkpt lat="42.446466023102403" lon="13.554857661947608">
        <ele>2237.6100000000001</ele>
        <time>2013-09-11T06:57:49Z</time>
      </trkpt>
      <trkpt lat="42.446471219882369" lon="13.554829247295856">
        <ele>2235.1999999999998</ele>
        <time>2013-09-11T06:57:53Z</time>
      </trkpt>
      <trkpt lat="42.446483792737126" lon="13.554736124351621">
        <ele>2237.1300000000001</ele>
        <time>2013-09-11T06:58:04Z</time>
      </trkpt>
      <trkpt lat="42.446484630927444" lon="13.55471164919436">
        <ele>2238.0900000000001</ele>
        <time>2013-09-11T06:58:06Z</time>
      </trkpt>
      <trkpt lat="42.446485050022602" lon="13.554619615897536">
        <ele>2240.9699999999998</ele>
        <time>2013-09-11T06:58:17Z</time>
      </trkpt>
      <trkpt lat="42.446513883769512" lon="13.554555661976337">
        <ele>2244.8200000000002</ele>
        <time>2013-09-11T06:58:28Z</time>
      </trkpt>
      <trkpt lat="42.446519583463669" lon="13.554562870413065">
        <ele>2244.3299999999999</ele>
        <time>2013-09-11T06:58:29Z</time>
      </trkpt>
      <trkpt lat="42.446596445515752" lon="13.554649874567986">
        <ele>2246.7399999999998</ele>
        <time>2013-09-11T06:58:46Z</time>
      </trkpt>
      <trkpt lat="42.446625027805567" lon="13.554718689993024">
        <ele>2249.1399999999999</ele>
        <time>2013-09-11T06:58:55Z</time>
      </trkpt>
      <trkpt lat="42.446689233183861" lon="13.554793624207377">
        <ele>2252.0300000000002</ele>
        <time>2013-09-11T06:59:10Z</time>
      </trkpt>
      <trkpt lat="42.446762407198548" lon="13.554876018315554">
        <ele>2254.4299999999998</ele>
        <time>2013-09-11T06:59:26Z</time>
      </trkpt>
      <trkpt lat="42.44676735252142" lon="13.55490367859602">
        <ele>2257.79</ele>
        <time>2013-09-11T06:59:30Z</time>
      </trkpt>
      <trkpt lat="42.446850584819913" lon="13.554996214807034">
        <ele>2259.7199999999998</ele>
        <time>2013-09-11T06:59:47Z</time>
      </trkpt>
      <trkpt lat="42.446923926472664" lon="13.555096546187997">
        <ele>2261.6399999999999</ele>
        <time>2013-09-11T07:00:03Z</time>
      </trkpt>
      <trkpt lat="42.446950916200876" lon="13.555139964446425">
        <ele>2261.6399999999999</ele>
        <time>2013-09-11T07:00:10Z</time>
      </trkpt>
      <trkpt lat="42.446963405236602" lon="13.555156057700515">
        <ele>2258.27</ele>
        <time>2013-09-11T07:00:15Z</time>
      </trkpt>
      <trkpt lat="42.446966087445617" lon="13.555158907547593">
        <ele>2262.5999999999999</ele>
        <time>2013-09-11T07:00:16Z</time>
      </trkpt>
      <trkpt lat="42.446968099102378" lon="13.555165445432067">
        <ele>2262.1199999999999</ele>
        <time>2013-09-11T07:00:17Z</time>
      </trkpt>
      <trkpt lat="42.447004979476333" lon="13.555208696052432">
        <ele>2262.1199999999999</ele>
        <time>2013-09-11T07:00:25Z</time>
      </trkpt>
      <trkpt lat="42.447071112692356" lon="13.555295364931226">
        <ele>2264.52</ele>
        <time>2013-09-11T07:00:39Z</time>
      </trkpt>
      <trkpt lat="42.44711821898818" lon="13.555320845916867">
        <ele>2267.8899999999999</ele>
        <time>2013-09-11T07:00:48Z</time>
      </trkpt>
      <trkpt lat="42.447196925058961" lon="13.555320929735899">
        <ele>2267.4099999999999</ele>
        <time>2013-09-11T07:01:02Z</time>
      </trkpt>
      <trkpt lat="42.44720664806664" lon="13.555304082110524">
        <ele>2264.04</ele>
        <time>2013-09-11T07:01:05Z</time>
      </trkpt>
      <trkpt lat="42.447205558419228" lon="13.555295364931226">
        <ele>2264.04</ele>
        <time>2013-09-11T07:01:06Z</time>
      </trkpt>
      <trkpt lat="42.447144621983171" lon="13.555208863690495">
        <ele>2264.52</ele>
        <time>2013-09-11T07:01:21Z</time>
      </trkpt>
      <trkpt lat="42.447139425203204" lon="13.555189585313201">
        <ele>2275.0999999999999</ele>
        <time>2013-09-11T07:01:24Z</time>
      </trkpt>
      <trkpt lat="42.447140850126743" lon="13.555178269743919">
        <ele>2265</ele>
        <time>2013-09-11T07:01:25Z</time>
      </trkpt>
      <trkpt lat="42.447138167917728" lon="13.555162344127893">
        <ele>2270.29</ele>
        <time>2013-09-11T07:01:28Z</time>
      </trkpt>
      <trkpt lat="42.447136491537094" lon="13.555155387148261">
        <ele>2269.8099999999999</ele>
        <time>2013-09-11T07:01:29Z</time>
      </trkpt>
      <trkpt lat="42.447128612548113" lon="13.555143317207694">
        <ele>2273.1700000000001</ele>
        <time>2013-09-11T07:01:33Z</time>
      </trkpt>
      <trkpt lat="42.447123415768147" lon="13.555136611685157">
        <ele>2271.25</ele>
        <time>2013-09-11T07:01:34Z</time>
      </trkpt>
      <trkpt lat="42.447118470445275" lon="13.555112639442086">
        <ele>2268.8499999999999</ele>
        <time>2013-09-11T07:01:36Z</time>
      </trkpt>
      <trkpt lat="42.447117548435926" lon="13.555057402700186">
        <ele>2265.48</ele>
        <time>2013-09-11T07:01:42Z</time>
      </trkpt>
      <trkpt lat="42.447115536779165" lon="13.555036364123225">
        <ele>2263.5599999999999</ele>
        <time>2013-09-11T07:01:46Z</time>
      </trkpt>
      <trkpt lat="42.44711184874177" lon="13.555024294182658">
        <ele>2266.4499999999998</ele>
        <time>2013-09-11T07:01:48Z</time>
      </trkpt>
      <trkpt lat="42.447110088542104" lon="13.555017421022058">
        <ele>2266.4499999999998</ele>
        <time>2013-09-11T07:01:49Z</time>
      </trkpt>
      <trkpt lat="42.447108579799533" lon="13.55500434525311">
        <ele>2271.73</ele>
        <time>2013-09-11T07:01:51Z</time>
      </trkpt>
      <trkpt lat="42.447108579799533" lon="13.554995376616716">
        <ele>2271.25</ele>
        <time>2013-09-11T07:01:52Z</time>
      </trkpt>
      <trkpt lat="42.447105394676328" lon="13.554980792105198">
        <ele>2267.4099999999999</ele>
        <time>2013-09-11T07:01:54Z</time>
      </trkpt>
      <trkpt lat="42.447099778801203" lon="13.554974505677819">
        <ele>2272.21</ele>
        <time>2013-09-11T07:01:56Z</time>
      </trkpt>
      <trkpt lat="42.447098940610886" lon="13.554970230907202">
        <ele>2271.73</ele>
        <time>2013-09-11T07:01:57Z</time>
      </trkpt>
      <trkpt lat="42.447099108248949" lon="13.554964112117887">
        <ele>2267.8899999999999</ele>
        <time>2013-09-11T07:01:58Z</time>
      </trkpt>
      <trkpt lat="42.447104221209884" lon="13.554951120167971">
        <ele>2264.52</ele>
        <time>2013-09-11T07:02:00Z</time>
      </trkpt>
      <trkpt lat="42.44711478240788" lon="13.554952712729573">
        <ele>2264.52</ele>
        <time>2013-09-11T07:02:01Z</time>
      </trkpt>
      <trkpt lat="42.447125259786844" lon="13.554956400766969">
        <ele>2270.77</ele>
        <time>2013-09-11T07:02:02Z</time>
      </trkpt>
      <trkpt lat="42.44714411906898" lon="13.554966207593679">
        <ele>2272.6900000000001</ele>
        <time>2013-09-11T07:02:04Z</time>
      </trkpt>
      <trkpt lat="42.447208324447274" lon="13.555027395486832">
        <ele>2275.0999999999999</ele>
        <time>2013-09-11T07:02:18Z</time>
      </trkpt>
      <trkpt lat="42.447269763797522" lon="13.555067963898182">
        <ele>2278.46</ele>
        <time>2013-09-11T07:02:28Z</time>
      </trkpt>
      <trkpt lat="42.447321144863963" lon="13.555069472640753">
        <ele>2275.5799999999999</ele>
        <time>2013-09-11T07:02:42Z</time>
      </trkpt>
      <trkpt lat="42.447302537038922" lon="13.555000741034746">
        <ele>2280.8699999999999</ele>
        <time>2013-09-11T07:02:52Z</time>
      </trkpt>
      <trkpt lat="42.447308236733079" lon="13.554999902844429">
        <ele>2279.9000000000001</ele>
        <time>2013-09-11T07:02:53Z</time>
      </trkpt>
      <trkpt lat="42.447371687740088" lon="13.555023204535246">
        <ele>2280.8699999999999</ele>
        <time>2013-09-11T07:03:04Z</time>
      </trkpt>
      <trkpt lat="42.447385769337416" lon="13.55502194724977">
        <ele>2282.79</ele>
        <time>2013-09-11T07:03:07Z</time>
      </trkpt>
      <trkpt lat="42.447415022179484" lon="13.555008284747601">
        <ele>2283.27</ele>
        <time>2013-09-11T07:03:13Z</time>
      </trkpt>
      <trkpt lat="42.447443269193172" lon="13.55498724617064">
        <ele>2281.3499999999999</ele>
        <time>2013-09-11T07:03:21Z</time>
      </trkpt>
      <trkpt lat="42.447420889511704" lon="13.554947348311543">
        <ele>2281.8299999999999</ele>
        <time>2013-09-11T07:03:27Z</time>
      </trkpt>
      <trkpt lat="42.44737671688199" lon="13.554902756586671">
        <ele>2279.9000000000001</ele>
        <time>2013-09-11T07:03:40Z</time>
      </trkpt>
      <trkpt lat="42.447394737973809" lon="13.554892614483833">
        <ele>2284.23</ele>
        <time>2013-09-11T07:03:43Z</time>
      </trkpt>
      <trkpt lat="42.4474211409688" lon="13.554894542321563">
        <ele>2287.5900000000001</ele>
        <time>2013-09-11T07:03:46Z</time>
      </trkpt>
      <trkpt lat="42.447454165667295" lon="13.554891692474484">
        <ele>2284.71</ele>
        <time>2013-09-11T07:03:52Z</time>
      </trkpt>
      <trkpt lat="42.447473779320717" lon="13.55484307743609">
        <ele>2286.6300000000001</ele>
        <time>2013-09-11T07:04:04Z</time>
      </trkpt>
      <trkpt lat="42.447469253093004" lon="13.554836707189679">
        <ele>2286.6300000000001</ele>
        <time>2013-09-11T07:04:05Z</time>
      </trkpt>
      <trkpt lat="42.447421560063958" lon="13.554793708026409">
        <ele>2289.52</ele>
        <time>2013-09-11T07:04:17Z</time>
      </trkpt>
      <trkpt lat="42.447386691346765" lon="13.554712906479836">
        <ele>2290.96</ele>
        <time>2013-09-11T07:04:30Z</time>
      </trkpt>
      <trkpt lat="42.447385434061289" lon="13.554702429100871">
        <ele>2286.6300000000001</ele>
        <time>2013-09-11T07:04:32Z</time>
      </trkpt>
      <trkpt lat="42.447388367727399" lon="13.55470335111022">
        <ele>2291.4400000000001</ele>
        <time>2013-09-11T07:04:33Z</time>
      </trkpt>
      <trkpt lat="42.447383590042591" lon="13.554687006399035">
        <ele>2287.5900000000001</ele>
        <time>2013-09-11T07:04:38Z</time>
      </trkpt>
      <trkpt lat="42.447380404919386" lon="13.554667644202709">
        <ele>2290.96</ele>
        <time>2013-09-11T07:04:40Z</time>
      </trkpt>
      <trkpt lat="42.447372861206532" lon="13.554652808234096">
        <ele>2288.0799999999999</ele>
        <time>2013-09-11T07:04:42Z</time>
      </trkpt>
      <trkpt lat="42.447365149855614" lon="13.554639983922243">
        <ele>2291.4400000000001</ele>
        <time>2013-09-11T07:04:44Z</time>
      </trkpt>
      <trkpt lat="42.447357857599854" lon="13.554602432996035">
        <ele>2289.52</ele>
        <time>2013-09-11T07:04:48Z</time>
      </trkpt>
      <trkpt lat="42.447343608364463" lon="13.554562535136938">
        <ele>2287.1100000000001</ele>
        <time>2013-09-11T07:04:54Z</time>
      </trkpt>
      <trkpt lat="42.447340171784163" lon="13.554532695561647">
        <ele>2289.52</ele>
        <time>2013-09-11T07:04:57Z</time>
      </trkpt>
      <trkpt lat="42.447351571172476" lon="13.554492127150297">
        <ele>2293.3600000000001</ele>
        <time>2013-09-11T07:05:07Z</time>
      </trkpt>
      <trkpt lat="42.447359701618552" lon="13.554494893178344">
        <ele>2293.3600000000001</ele>
        <time>2013-09-11T07:05:08Z</time>
      </trkpt>
      <trkpt lat="42.447437234222889" lon="13.554568570107222">
        <ele>2295.77</ele>
        <time>2013-09-11T07:05:23Z</time>
      </trkpt>
      <trkpt lat="42.44751300662756" lon="13.554571168497205">
        <ele>2296.73</ele>
        <time>2013-09-11T07:05:35Z</time>
      </trkpt>
      <trkpt lat="42.447562124580145" lon="13.554578041657805">
        <ele>2297.21</ele>
        <time>2013-09-11T07:05:50Z</time>
      </trkpt>
      <trkpt lat="42.447547288611531" lon="13.55456211604178">
        <ele>2298.6500000000001</ele>
        <time>2013-09-11T07:05:53Z</time>
      </trkpt>
      <trkpt lat="42.447526752948761" lon="13.554513920098543">
        <ele>2299.1300000000001</ele>
        <time>2013-09-11T07:06:01Z</time>
      </trkpt>
      <trkpt lat="42.447515353560448" lon="13.554499838501215">
        <ele>2301.0500000000002</ele>
        <time>2013-09-11T07:06:04Z</time>
      </trkpt>
      <trkpt lat="42.447472102940083" lon="13.554383581504226">
        <ele>2300.0900000000001</ele>
        <time>2013-09-11T07:06:19Z</time>
      </trkpt>
      <trkpt lat="42.447446789592505" lon="13.554293224588037">
        <ele>2302.98</ele>
        <time>2013-09-11T07:06:31Z</time>
      </trkpt>
      <trkpt lat="42.447434300556779" lon="13.554283753037453">
        <ele>2301.5300000000002</ele>
        <time>2013-09-11T07:06:34Z</time>
      </trkpt>
      <trkpt lat="42.447388367727399" lon="13.55415609665215">
        <ele>2302.4899999999998</ele>
        <time>2013-09-11T07:06:48Z</time>
      </trkpt>
      <trkpt lat="42.447387697175145" lon="13.554040845483541">
        <ele>2304.4200000000001</ele>
        <time>2013-09-11T07:07:04Z</time>
      </trkpt>
      <trkpt lat="42.447363305836916" lon="13.553960965946317">
        <ele>2303.46</ele>
        <time>2013-09-11T07:07:17Z</time>
      </trkpt>
      <trkpt lat="42.447378979995847" lon="13.553961971774697">
        <ele>2305.8600000000001</ele>
        <time>2013-09-11T07:07:19Z</time>
      </trkpt>
      <trkpt lat="42.447456512600183" lon="13.554035229608417">
        <ele>2307.7800000000002</ele>
        <time>2013-09-11T07:07:34Z</time>
      </trkpt>
      <trkpt lat="42.447520298883319" lon="13.554125167429447">
        <ele>2308.2600000000002</ele>
        <time>2013-09-11T07:07:49Z</time>
      </trkpt>
      <trkpt lat="42.447594814002514" lon="13.55419616214931">
        <ele>2308.2600000000002</ele>
        <time>2013-09-11T07:08:04Z</time>
      </trkpt>
      <trkpt lat="42.447609063237906" lon="13.554215440526605">
        <ele>2310.1900000000001</ele>
        <time>2013-09-11T07:08:08Z</time>
      </trkpt>
      <trkpt lat="42.447676034644246" lon="13.554285010322928">
        <ele>2311.1500000000001</ele>
        <time>2013-09-11T07:08:22Z</time>
      </trkpt>
      <trkpt lat="42.447726996615529" lon="13.554310407489538">
        <ele>2313.5500000000002</ele>
        <time>2013-09-11T07:08:35Z</time>
      </trkpt>
      <trkpt lat="42.447695648297668" lon="13.554273275658488">
        <ele>2315.9499999999998</ele>
        <time>2013-09-11T07:08:42Z</time>
      </trkpt>
      <trkpt lat="42.447668239474297" lon="13.554220721125603">
        <ele>2317.4000000000001</ele>
        <time>2013-09-11T07:08:50Z</time>
      </trkpt>
      <trkpt lat="42.447665557265282" lon="13.554204795509577">
        <ele>2314.0300000000002</ele>
        <time>2013-09-11T07:08:53Z</time>
      </trkpt>
      <trkpt lat="42.447659270837903" lon="13.55419272556901">
        <ele>2316.9099999999999</ele>
        <time>2013-09-11T07:08:55Z</time>
      </trkpt>
      <trkpt lat="42.447631191462278" lon="13.554104464128613">
        <ele>2316.9099999999999</ele>
        <time>2013-09-11T07:09:09Z</time>
      </trkpt>
      <trkpt lat="42.4476249050349" lon="13.554087616503239">
        <ele>2319.3200000000002</ele>
        <time>2013-09-11T07:09:14Z</time>
      </trkpt>
      <trkpt lat="42.447609398514032" lon="13.554011173546314">
        <ele>2317.8800000000001</ele>
        <time>2013-09-11T07:09:24Z</time>
      </trkpt>
      <trkpt lat="42.447608727961779" lon="13.55399533174932">
        <ele>2321.2399999999998</ele>
        <time>2013-09-11T07:09:27Z</time>
      </trkpt>
      <trkpt lat="42.44759313762188" lon="13.553944956511259">
        <ele>2321.7199999999998</ele>
        <time>2013-09-11T07:09:33Z</time>
      </trkpt>
      <trkpt lat="42.447586096823215" lon="13.55392006225884">
        <ele>2320.2800000000002</ele>
        <time>2013-09-11T07:09:36Z</time>
      </trkpt>
      <trkpt lat="42.447594981640577" lon="13.553903801366687">
        <ele>2318.8400000000001</ele>
        <time>2013-09-11T07:09:40Z</time>
      </trkpt>
      <trkpt lat="42.447633538395166" lon="13.553921990096569">
        <ele>2321.7199999999998</ele>
        <time>2013-09-11T07:09:46Z</time>
      </trkpt>
      <trkpt lat="42.44765373878181" lon="13.553883852437139">
        <ele>2323.1599999999999</ele>
        <time>2013-09-11T07:09:58Z</time>
      </trkpt>
      <trkpt lat="42.447676789015532" lon="13.553871111944318">
        <ele>2324.6100000000001</ele>
        <time>2013-09-11T07:10:06Z</time>
      </trkpt>
      <trkpt lat="42.447719452902675" lon="13.553930958732963">
        <ele>2327.9699999999998</ele>
        <time>2013-09-11T07:10:16Z</time>
      </trkpt>
      <trkpt lat="42.447795392945409" lon="13.553981920704246">
        <ele>2329.4099999999999</ele>
        <time>2013-09-11T07:10:31Z</time>
      </trkpt>
      <trkpt lat="42.447793297469616" lon="13.553962474688888">
        <ele>2328.4499999999998</ele>
        <time>2013-09-11T07:10:33Z</time>
      </trkpt>
      <trkpt lat="42.44778617285192" lon="13.553947051987052">
        <ele>2329.8899999999999</ele>
        <time>2013-09-11T07:10:36Z</time>
      </trkpt>
      <trkpt lat="42.447761027142406" lon="13.553916458040476">
        <ele>2331.3299999999999</ele>
        <time>2013-09-11T07:10:42Z</time>
      </trkpt>
      <trkpt lat="42.447757003828883" lon="13.553900280967355">
        <ele>2329.8899999999999</ele>
        <time>2013-09-11T07:10:44Z</time>
      </trkpt>
      <trkpt lat="42.447750633582473" lon="13.553863316774368">
        <ele>2332.3000000000002</ele>
        <time>2013-09-11T07:10:50Z</time>
      </trkpt>
      <trkpt lat="42.447743006050587" lon="13.553774636238813">
        <ele>2333.7399999999998</ele>
        <time>2013-09-11T07:11:04Z</time>
      </trkpt>
      <trkpt lat="42.447743257507682" lon="13.553756950423121">
        <ele>2332.3000000000002</ele>
        <time>2013-09-11T07:11:07Z</time>
      </trkpt>
      <trkpt lat="42.447738563641906" lon="13.553724596276879">
        <ele>2335.6599999999999</ele>
        <time>2013-09-11T07:11:14Z</time>
      </trkpt>
      <trkpt lat="42.447724314406514" lon="13.553634658455849">
        <ele>2333.7399999999998</ele>
        <time>2013-09-11T07:11:26Z</time>
      </trkpt>
      <trkpt lat="42.4477544054389" lon="13.553653433918953">
        <ele>2337.0999999999999</ele>
        <time>2013-09-11T07:11:30Z</time>
      </trkpt>
      <trkpt lat="42.447822047397494" lon="13.553725183010101">
        <ele>2338.0599999999999</ele>
        <time>2013-09-11T07:11:45Z</time>
      </trkpt>
      <trkpt lat="42.447856329381466" lon="13.553773630410433">
        <ele>2338.0599999999999</ele>
        <time>2013-09-11T07:11:59Z</time>
      </trkpt>
      <trkpt lat="42.447895975783467" lon="13.553774300962687">
        <ele>2339.9899999999998</ele>
        <time>2013-09-11T07:12:14Z</time>
      </trkpt>
      <trkpt lat="42.447853479534388" lon="13.553632982075214">
        <ele>2341.9099999999999</ele>
        <time>2013-09-11T07:12:34Z</time>
      </trkpt>
      <trkpt lat="42.447863789275289" lon="13.5535560362041">
        <ele>2343.3499999999999</ele>
        <time>2013-09-11T07:12:47Z</time>
      </trkpt>
      <trkpt lat="42.44795716367662" lon="13.55363180860877">
        <ele>2344.79</ele>
        <time>2013-09-11T07:13:04Z</time>
      </trkpt>
      <trkpt lat="42.447976190596819" lon="13.553652511909604">
        <ele>2346.7199999999998</ele>
        <time>2013-09-11T07:13:08Z</time>
      </trkpt>
      <trkpt lat="42.447968311607838" lon="13.553562657907605">
        <ele>2347.1999999999998</ele>
        <time>2013-09-11T07:13:24Z</time>
      </trkpt>
      <trkpt lat="42.447943752631545" lon="13.553481856361032">
        <ele>2350.0799999999999</ele>
        <time>2013-09-11T07:13:38Z</time>
      </trkpt>
      <trkpt lat="42.447919864207506" lon="13.553416393697262">
        <ele>2352.48</ele>
        <time>2013-09-11T07:13:50Z</time>
      </trkpt>
      <trkpt lat="42.447920283302665" lon="13.55332201346755">
        <ele>2355.3699999999999</ele>
        <time>2013-09-11T07:14:03Z</time>
      </trkpt>
      <trkpt lat="42.447889186441898" lon="13.553240792825818">
        <ele>2356.3299999999999</ele>
        <time>2013-09-11T07:14:16Z</time>
      </trkpt>
      <trkpt lat="42.447882732376456" lon="13.553202990442514">
        <ele>2352.48</ele>
        <time>2013-09-11T07:14:21Z</time>
      </trkpt>
      <trkpt lat="42.447880804538727" lon="13.553171725943685">
        <ele>2353.4400000000001</ele>
        <time>2013-09-11T07:14:25Z</time>
      </trkpt>
      <trkpt lat="42.447874853387475" lon="13.553144317120314">
        <ele>2355.3699999999999</ele>
        <time>2013-09-11T07:14:29Z</time>
      </trkpt>
      <trkpt lat="42.447885163128376" lon="13.553056558594108">
        <ele>2358.25</ele>
        <time>2013-09-11T07:14:44Z</time>
      </trkpt>
      <trkpt lat="42.447884073480964" lon="13.552965866401792">
        <ele>2361.6199999999999</ele>
        <time>2013-09-11T07:14:57Z</time>
      </trkpt>
      <trkpt lat="42.447892371565104" lon="13.552897218614817">
        <ele>2363.0599999999999</ele>
        <time>2013-09-11T07:15:10Z</time>
      </trkpt>
      <trkpt lat="42.447873177006841" lon="13.552849357947707">
        <ele>2365.9400000000001</ele>
        <time>2013-09-11T07:15:19Z</time>
      </trkpt>
      <trkpt lat="42.447875021025538" lon="13.55283385142684">
        <ele>2362.5799999999999</ele>
        <time>2013-09-11T07:15:21Z</time>
      </trkpt>
      <trkpt lat="42.447878373786807" lon="13.552804179489613">
        <ele>2366.4200000000001</ele>
        <time>2013-09-11T07:15:26Z</time>
      </trkpt>
      <trkpt lat="42.447877284139395" lon="13.552786577492952">
        <ele>2362.5799999999999</ele>
        <time>2013-09-11T07:15:30Z</time>
      </trkpt>
      <trkpt lat="42.447867812588811" lon="13.55277081951499">
        <ele>2366.9000000000001</ele>
        <time>2013-09-11T07:15:32Z</time>
      </trkpt>
      <trkpt lat="42.447865633293986" lon="13.552766041830182">
        <ele>2365.9400000000001</ele>
        <time>2013-09-11T07:15:33Z</time>
      </trkpt>
      <trkpt lat="42.447912991046906" lon="13.552726143971086">
        <ele>2365.9400000000001</ele>
        <time>2013-09-11T07:15:49Z</time>
      </trkpt>
      <trkpt lat="42.447922043502331" lon="13.552693957462907">
        <ele>2368.8299999999999</ele>
        <time>2013-09-11T07:15:58Z</time>
      </trkpt>
      <trkpt lat="42.44791860692203" lon="13.552686749026179">
        <ele>2368.8299999999999</ele>
        <time>2013-09-11T07:15:59Z</time>
      </trkpt>
      <trkpt lat="42.4479029327631" lon="13.552596978843212">
        <ele>2370.27</ele>
        <time>2013-09-11T07:16:14Z</time>
      </trkpt>
      <trkpt lat="42.447893042117357" lon="13.552548112347722">
        <ele>2370.27</ele>
        <time>2013-09-11T07:16:20Z</time>
      </trkpt>
      <trkpt lat="42.447893712669611" lon="13.552527828142047">
        <ele>2369.79</ele>
        <time>2013-09-11T07:16:33Z</time>
      </trkpt>
      <trkpt lat="42.447881475090981" lon="13.552455240860581">
        <ele>2374.1100000000001</ele>
        <time>2013-09-11T07:16:47Z</time>
      </trkpt>
      <trkpt lat="42.447878792881966" lon="13.552448200061917">
        <ele>2373.6300000000001</ele>
        <time>2013-09-11T07:16:48Z</time>
      </trkpt>
      <trkpt lat="42.447864795103669" lon="13.552319286391139">
        <ele>2374.5900000000001</ele>
        <time>2013-09-11T07:17:03Z</time>
      </trkpt>
      <trkpt lat="42.447866974398494" lon="13.552177716046572">
        <ele>2376.04</ele>
        <time>2013-09-11T07:17:18Z</time>
      </trkpt>
      <trkpt lat="42.447928916662931" lon="13.552217278629541">
        <ele>2377</ele>
        <time>2013-09-11T07:17:28Z</time>
      </trkpt>
      <trkpt lat="42.447971748188138" lon="13.552317107096314">
        <ele>2378.4400000000001</ele>
        <time>2013-09-11T07:17:39Z</time>
      </trkpt>
      <trkpt lat="42.448074761778116" lon="13.552431268617511">
        <ele>2379.8800000000001</ele>
        <time>2013-09-11T07:17:57Z</time>
      </trkpt>
      <trkpt lat="42.448157491162419" lon="13.552499916404486">
        <ele>2382.2800000000002</ele>
        <time>2013-09-11T07:18:12Z</time>
      </trkpt>
      <trkpt lat="42.448166040703654" lon="13.552484242245555">
        <ele>2378.9200000000001</ele>
        <time>2013-09-11T07:18:14Z</time>
      </trkpt>
      <trkpt lat="42.448162604123354" lon="13.552454905584455">
        <ele>2382.2800000000002</ele>
        <time>2013-09-11T07:18:17Z</time>
      </trkpt>
      <trkpt lat="42.448145421221852" lon="13.552388269454241">
        <ele>2385.6500000000001</ele>
        <time>2013-09-11T07:18:24Z</time>
      </trkpt>
      <trkpt lat="42.448111223056912" lon="13.55223286896944">
        <ele>2384.6900000000001</ele>
        <time>2013-09-11T07:18:39Z</time>
      </trkpt>
      <trkpt lat="42.44812186807394" lon="13.552158018574119">
        <ele>2386.6100000000001</ele>
        <time>2013-09-11T07:18:48Z</time>
      </trkpt>
      <trkpt lat="42.448166962713003" lon="13.552050646394491">
        <ele>2388.0500000000002</ele>
        <time>2013-09-11T07:19:02Z</time>
      </trkpt>
      <trkpt lat="42.448145085945725" lon="13.551954422146082">
        <ele>2386.1300000000001</ele>
        <time>2013-09-11T07:19:14Z</time>
      </trkpt>
      <trkpt lat="42.448123963549733" lon="13.551981830969453">
        <ele>2388.0500000000002</ele>
        <time>2013-09-11T07:19:27Z</time>
      </trkpt>
      <trkpt lat="42.448108457028866" lon="13.551953919231892">
        <ele>2385.1700000000001</ele>
        <time>2013-09-11T07:19:37Z</time>
      </trkpt>
      <trkpt lat="42.448089849203825" lon="13.551938664168119">
        <ele>2385.1700000000001</ele>
        <time>2013-09-11T07:20:01Z</time>
      </trkpt>
      <trkpt lat="42.448088172823191" lon="13.551937993615866">
        <ele>2386.1300000000001</ele>
        <time>2013-09-11T07:20:05Z</time>
      </trkpt>
      <trkpt lat="42.448091777041554" lon="13.551977137103677">
        <ele>2387.5700000000002</ele>
        <time>2013-09-11T07:20:46Z</time>
      </trkpt>
      <trkpt lat="42.448097476735711" lon="13.551943274214864">
        <ele>2386.1300000000001</ele>
        <time>2013-09-11T07:21:17Z</time>
      </trkpt>
      <trkpt lat="42.448100242763758" lon="13.551945118233562">
        <ele>2387.5700000000002</ele>
        <time>2013-09-11T07:21:21Z</time>
      </trkpt>
      <trkpt lat="42.448106361553073" lon="13.551962049677968">
        <ele>2386.6100000000001</ele>
        <time>2013-09-11T07:21:42Z</time>
      </trkpt>
      <trkpt lat="42.448114240542054" lon="13.551962301135063">
        <ele>2385.6500000000001</ele>
        <time>2013-09-11T07:22:03Z</time>
      </trkpt>
      <trkpt lat="42.448100661858916" lon="13.551960540935397">
        <ele>2387.5700000000002</ele>
        <time>2013-09-11T07:22:17Z</time>
      </trkpt>
      <trkpt lat="42.44809839874506" lon="13.551950566470623">
        <ele>2387.0900000000001</ele>
        <time>2013-09-11T07:22:32Z</time>
      </trkpt>
      <trkpt lat="42.448108373209834" lon="13.551946291700006">
        <ele>2387.5700000000002</ele>
        <time>2013-09-11T07:22:50Z</time>
      </trkpt>
      <trkpt lat="42.448103092610836" lon="13.551958445459604">
        <ele>2388.0500000000002</ele>
        <time>2013-09-11T07:23:13Z</time>
      </trkpt>
      <trkpt lat="42.448094123974442" lon="13.551947548985481">
        <ele>2388.5300000000002</ele>
        <time>2013-09-11T07:23:32Z</time>
      </trkpt>
      <trkpt lat="42.448085490614176" lon="13.551957104355097">
        <ele>2388.0500000000002</ele>
        <time>2013-09-11T07:23:54Z</time>
      </trkpt>
      <trkpt lat="42.448073253035545" lon="13.55193723924458">
        <ele>2386.6100000000001</ele>
        <time>2013-09-11T07:24:16Z</time>
      </trkpt>
      <trkpt lat="42.44807593524456" lon="13.551927767693996">
        <ele>2389.9699999999998</ele>
        <time>2013-09-11T07:24:22Z</time>
      </trkpt>
      <trkpt lat="42.448076941072941" lon="13.551931455731392">
        <ele>2387.0900000000001</ele>
        <time>2013-09-11T07:24:37Z</time>
      </trkpt>
      <trkpt lat="42.44807300157845" lon="13.55191326700151">
        <ele>2388.5300000000002</ele>
        <time>2013-09-11T07:24:52Z</time>
      </trkpt>
      <trkpt lat="42.448103176429868" lon="13.551973700523376">
        <ele>2389.4899999999998</ele>
        <time>2013-09-11T07:25:33Z</time>
      </trkpt>
      <trkpt lat="42.448095632717013" lon="13.551985267549753">
        <ele>2385.6500000000001</ele>
        <time>2013-09-11T07:25:42Z</time>
      </trkpt>
      <trkpt lat="42.44810082949698" lon="13.551988704130054">
        <ele>2386.1300000000001</ele>
        <time>2013-09-11T07:25:43Z</time>
      </trkpt>
      <trkpt lat="42.448111055418849" lon="13.552001193165779">
        <ele>2387.0900000000001</ele>
        <time>2013-09-11T07:25:45Z</time>
      </trkpt>
      <trkpt lat="42.448114659637213" lon="13.552005719393492">
        <ele>2389.0100000000002</ele>
        <time>2013-09-11T07:25:52Z</time>
      </trkpt>
      <trkpt lat="42.448128908872604" lon="13.552018208429217">
        <ele>2387.5700000000002</ele>
        <time>2013-09-11T07:25:59Z</time>
      </trkpt>
      <trkpt lat="42.448139553889632" lon="13.551948806270957">
        <ele>2388.5300000000002</ele>
        <time>2013-09-11T07:26:34Z</time>
      </trkpt>
      <trkpt lat="42.448154222220182" lon="13.552007479593158">
        <ele>2389.0100000000002</ele>
        <time>2013-09-11T07:27:05Z</time>
      </trkpt>
      <trkpt lat="42.448131423443556" lon="13.551888708025217">
        <ele>2385.1700000000001</ele>
        <time>2013-09-11T07:27:26Z</time>
      </trkpt>
      <trkpt lat="42.448126394301653" lon="13.551874794065952">
        <ele>2385.1700000000001</ele>
        <time>2013-09-11T07:27:27Z</time>
      </trkpt>
      <trkpt lat="42.448115749284625" lon="13.551865322515368">
        <ele>2386.6100000000001</ele>
        <time>2013-09-11T07:27:30Z</time>
      </trkpt>
      <trkpt lat="42.448085742071271" lon="13.551788125187159">
        <ele>2388.0500000000002</ele>
        <time>2013-09-11T07:27:39Z</time>
      </trkpt>
      <trkpt lat="42.448069732636213" lon="13.551791645586491">
        <ele>2389.0100000000002</ele>
        <time>2013-09-11T07:28:04Z</time>
      </trkpt>
      <trkpt lat="42.448032600805163" lon="13.551743617281318">
        <ele>2388.5300000000002</ele>
        <time>2013-09-11T07:28:27Z</time>
      </trkpt>
      <trkpt lat="42.448017513379455" lon="13.551703216508031">
        <ele>2388.5300000000002</ele>
        <time>2013-09-11T07:28:40Z</time>
      </trkpt>
      <trkpt lat="42.448039473965764" lon="13.551707742735744">
        <ele>2385.6500000000001</ele>
        <time>2013-09-11T07:29:13Z</time>
      </trkpt>
      <trkpt lat="42.44805539958179" lon="13.55177404358983">
        <ele>2389.4899999999998</ele>
        <time>2013-09-11T07:29:29Z</time>
      </trkpt>
      <trkpt lat="42.448057159781456" lon="13.551787957549095">
        <ele>2389.9699999999998</ele>
        <time>2013-09-11T07:29:31Z</time>
      </trkpt>
      <trkpt lat="42.448091609403491" lon="13.551860880106688">
        <ele>2386.6100000000001</ele>
        <time>2013-09-11T07:29:49Z</time>
      </trkpt>
      <trkpt lat="42.448089849203825" lon="13.551857024431229">
        <ele>2386.1300000000001</ele>
        <time>2013-09-11T07:29:50Z</time>
      </trkpt>
      <trkpt lat="42.44810183532536" lon="13.551885606721044">
        <ele>2384.21</ele>
        <time>2013-09-11T07:29:54Z</time>
      </trkpt>
      <trkpt lat="42.448103846982121" lon="13.551887953653932">
        <ele>2380.8400000000001</ele>
        <time>2013-09-11T07:29:57Z</time>
      </trkpt>
      <trkpt lat="42.448106445372105" lon="13.551889043301344">
        <ele>2384.21</ele>
        <time>2013-09-11T07:30:00Z</time>
      </trkpt>
      <trkpt lat="42.448103930801153" lon="13.551889881491661">
        <ele>2386.1300000000001</ele>
        <time>2013-09-11T07:30:03Z</time>
      </trkpt>
      <trkpt lat="42.448112899437547" lon="13.551906561478972">
        <ele>2386.6100000000001</ele>
        <time>2013-09-11T07:30:26Z</time>
      </trkpt>
      <trkpt lat="42.448111725971103" lon="13.551908237859607">
        <ele>2388.0500000000002</ele>
        <time>2013-09-11T07:30:40Z</time>
      </trkpt>
      <trkpt lat="42.448088927194476" lon="13.551895245909691">
        <ele>2386.1300000000001</ele>
        <time>2013-09-11T07:31:00Z</time>
      </trkpt>
      <trkpt lat="42.448076521977782" lon="13.551887618377805">
        <ele>2382.7600000000002</ele>
        <time>2013-09-11T07:31:05Z</time>
      </trkpt>
      <trkpt lat="42.448026733472943" lon="13.551768595352769">
        <ele>2386.1300000000001</ele>
        <time>2013-09-11T07:31:17Z</time>
      </trkpt>
      <trkpt lat="42.448034528642893" lon="13.551783012226224">
        <ele>2388.0500000000002</ele>
        <time>2013-09-11T07:31:36Z</time>
      </trkpt>
      <trkpt lat="42.44803486391902" lon="13.55179256759584">
        <ele>2386.1300000000001</ele>
        <time>2013-09-11T07:31:47Z</time>
      </trkpt>
      <trkpt lat="42.448030672967434" lon="13.551773289218545">
        <ele>2387.0900000000001</ele>
        <time>2013-09-11T07:32:12Z</time>
      </trkpt>
      <trkpt lat="42.447986081242561" lon="13.551567848771811">
        <ele>2385.6500000000001</ele>
        <time>2013-09-11T07:32:37Z</time>
      </trkpt>
      <trkpt lat="42.447987087070942" lon="13.551631383597851">
        <ele>2385.1700000000001</ele>
        <time>2013-09-11T07:32:48Z</time>
      </trkpt>
      <trkpt lat="42.447999995201826" lon="13.551625851541758">
        <ele>2382.2800000000002</ele>
        <time>2013-09-11T07:32:59Z</time>
      </trkpt>
      <trkpt lat="42.448009802028537" lon="13.551645800471306">
        <ele>2385.6500000000001</ele>
        <time>2013-09-11T07:33:03Z</time>
      </trkpt>
      <trkpt lat="42.448013070970774" lon="13.551657032221556">
        <ele>2386.6100000000001</ele>
        <time>2013-09-11T07:33:05Z</time>
      </trkpt>
      <trkpt lat="42.448009885847569" lon="13.551649153232574">
        <ele>2386.6100000000001</ele>
        <time>2013-09-11T07:33:11Z</time>
      </trkpt>
      <trkpt lat="42.448070403188467" lon="13.551809163764119">
        <ele>2386.1300000000001</ele>
        <time>2013-09-11T07:33:30Z</time>
      </trkpt>
      <trkpt lat="42.448075516149402" lon="13.551819222047925">
        <ele>2382.7600000000002</ele>
        <time>2013-09-11T07:33:32Z</time>
      </trkpt>
      <trkpt lat="42.448076605796814" lon="13.551823412999511">
        <ele>2382.7600000000002</ele>
        <time>2013-09-11T07:33:33Z</time>
      </trkpt>
      <trkpt lat="42.448109462857246" lon="13.551959116011858">
        <ele>2385.6500000000001</ele>
        <time>2013-09-11T07:33:43Z</time>
      </trkpt>
      <trkpt lat="42.448115162551403" lon="13.551969509571791">
        <ele>2386.1300000000001</ele>
        <time>2013-09-11T07:34:04Z</time>
      </trkpt>
      <trkpt lat="42.448065290227532" lon="13.551839170977473">
        <ele>2385.6500000000001</ele>
        <time>2013-09-11T07:34:32Z</time>
      </trkpt>
      <trkpt lat="42.448039390146732" lon="13.551789466291666">
        <ele>2386.6100000000001</ele>
        <time>2013-09-11T07:34:47Z</time>
      </trkpt>
      <trkpt lat="42.448062524199486" lon="13.55186490342021">
        <ele>2387.5700000000002</ele>
        <time>2013-09-11T07:35:14Z</time>
      </trkpt>
      <trkpt lat="42.447962695732713" lon="13.551583187654614">
        <ele>2386.6100000000001</ele>
        <time>2013-09-11T07:35:38Z</time>
      </trkpt>
      <trkpt lat="42.447927240282297" lon="13.551428709179163">
        <ele>2386.6100000000001</ele>
        <time>2013-09-11T07:36:03Z</time>
      </trkpt>
      <trkpt lat="42.447971496731043" lon="13.551587127149105">
        <ele>2386.1300000000001</ele>
        <time>2013-09-11T07:36:27Z</time>
      </trkpt>
      <trkpt lat="42.447845600545406" lon="13.551175156608224">
        <ele>2386.1300000000001</ele>
        <time>2013-09-11T07:36:50Z</time>
      </trkpt>
      <trkpt lat="42.447896227240562" lon="13.551309350878">
        <ele>2387.0900000000001</ele>
        <time>2013-09-11T07:37:22Z</time>
      </trkpt>
      <trkpt lat="42.447936963289976" lon="13.551430553197861">
        <ele>2388.0500000000002</ele>
        <time>2013-09-11T07:37:49Z</time>
      </trkpt>
      <trkpt lat="42.447944758459926" lon="13.551426697522402">
        <ele>2385.1700000000001</ele>
        <time>2013-09-11T07:37:58Z</time>
      </trkpt>
      <trkpt lat="42.44792003184557" lon="13.551415130496025">
        <ele>2386.6100000000001</ele>
        <time>2013-09-11T07:38:26Z</time>
      </trkpt>
      <trkpt lat="42.447903268039227" lon="13.551383865997195">
        <ele>2387.5700000000002</ele>
        <time>2013-09-11T07:38:51Z</time>
      </trkpt>
      <trkpt lat="42.447909386828542" lon="13.551466763019562">
        <ele>2386.6100000000001</ele>
        <time>2013-09-11T07:39:18Z</time>
      </trkpt>
      <trkpt lat="42.448036707937717" lon="13.551841098815203">
        <ele>2388.0500000000002</ele>
        <time>2013-09-11T07:39:47Z</time>
      </trkpt>
      <trkpt lat="42.44805003516376" lon="13.551900442689657">
        <ele>2388.0500000000002</ele>
        <time>2013-09-11T07:40:04Z</time>
      </trkpt>
      <trkpt lat="42.44808373041451" lon="13.55198266915977">
        <ele>2389.4899999999998</ele>
        <time>2013-09-11T07:40:14Z</time>
      </trkpt>
      <trkpt lat="42.448097560554743" lon="13.551924414932728">
        <ele>2386.6100000000001</ele>
        <time>2013-09-11T07:40:31Z</time>
      </trkpt>
      <trkpt lat="42.447984823957086" lon="13.5515649151057">
        <ele>2386.6100000000001</ele>
        <time>2013-09-11T07:40:59Z</time>
      </trkpt>
      <trkpt lat="42.447979124262929" lon="13.551548151299357">
        <ele>2387.0900000000001</ele>
        <time>2013-09-11T07:41:00Z</time>
      </trkpt>
      <trkpt lat="42.447971748188138" lon="13.551531052216887">
        <ele>2386.1300000000001</ele>
        <time>2013-09-11T07:41:10Z</time>
      </trkpt>
      <trkpt lat="42.447950793430209" lon="13.551544547080994">
        <ele>2387.5700000000002</ele>
        <time>2013-09-11T07:41:45Z</time>
      </trkpt>
      <trkpt lat="42.44802120141685" lon="13.551778653636575">
        <ele>2387.5700000000002</ele>
        <time>2013-09-11T07:42:19Z</time>
      </trkpt>
      <trkpt lat="42.448040647432208" lon="13.551870351657271">
        <ele>2389.0100000000002</ele>
        <time>2013-09-11T07:42:44Z</time>
      </trkpt>
      <trkpt lat="42.448088843375444" lon="13.551929444074631">
        <ele>2388.0500000000002</ele>
        <time>2013-09-11T07:43:08Z</time>
      </trkpt>
      <trkpt lat="42.448077695444226" lon="13.551854845136404">
        <ele>2384.6900000000001</ele>
        <time>2013-09-11T07:43:26Z</time>
      </trkpt>
      <trkpt lat="42.448043078184128" lon="13.55171394534409">
        <ele>2384.6900000000001</ele>
        <time>2013-09-11T07:43:38Z</time>
      </trkpt>
      <trkpt lat="42.448078282177448" lon="13.551833890378475">
        <ele>2387.0900000000001</ele>
        <time>2013-09-11T07:43:55Z</time>
      </trkpt>
      <trkpt lat="42.448091525584459" lon="13.551860963925719">
        <ele>2388.5300000000002</ele>
        <time>2013-09-11T07:44:13Z</time>
      </trkpt>
      <trkpt lat="42.448082473129034" lon="13.551933215931058">
        <ele>2389.0100000000002</ele>
        <time>2013-09-11T07:44:39Z</time>
      </trkpt>
      <trkpt lat="42.448101751506329" lon="13.551949309185147">
        <ele>2389.0100000000002</ele>
        <time>2013-09-11T07:44:52Z</time>
      </trkpt>
      <trkpt lat="42.448111223056912" lon="13.552003372460604">
        <ele>2388.0500000000002</ele>
        <time>2013-09-11T07:45:07Z</time>
      </trkpt>
      <trkpt lat="42.448089849203825" lon="13.55194796808064">
        <ele>2389.0100000000002</ele>
        <time>2013-09-11T07:45:28Z</time>
      </trkpt>
      <trkpt lat="42.448103008791804" lon="13.551980825141072">
        <ele>2388.5300000000002</ele>
        <time>2013-09-11T07:45:42Z</time>
      </trkpt>
      <trkpt lat="42.44809789583087" lon="13.551981830969453">
        <ele>2389.9699999999998</ele>
        <time>2013-09-11T07:46:04Z</time>
      </trkpt>
      <trkpt lat="42.448103427886963" lon="13.55200320482254">
        <ele>2389.9699999999998</ele>
        <time>2013-09-11T07:46:22Z</time>
      </trkpt>
      <trkpt lat="42.448099656030536" lon="13.551924331113696">
        <ele>2390.46</ele>
        <time>2013-09-11T07:46:45Z</time>
      </trkpt>
      <trkpt lat="42.448091693222523" lon="13.551851995289326">
        <ele>2390.9400000000001</ele>
        <time>2013-09-11T07:47:06Z</time>
      </trkpt>
      <trkpt lat="42.448091441765428" lon="13.55187077075243">
        <ele>2390.46</ele>
        <time>2013-09-11T07:47:26Z</time>
      </trkpt>
      <trkpt lat="42.448087418451905" lon="13.55185610242188">
        <ele>2389.9699999999998</ele>
        <time>2013-09-11T07:47:32Z</time>
      </trkpt>
      <trkpt lat="42.448084065690637" lon="13.551858449354768">
        <ele>2395.7399999999998</ele>
        <time>2013-09-11T07:47:37Z</time>
      </trkpt>
      <trkpt lat="42.448083227500319" lon="13.551858868449926">
        <ele>2394.7800000000002</ele>
        <time>2013-09-11T07:47:38Z</time>
      </trkpt>
      <trkpt lat="42.448082640767097" lon="13.551860880106688">
        <ele>2391.4200000000001</ele>
        <time>2013-09-11T07:47:41Z</time>
      </trkpt>
      <trkpt lat="42.448082556948066" lon="13.551861047744751">
        <ele>2391.4200000000001</ele>
        <time>2013-09-11T07:47:42Z</time>
      </trkpt>
      <trkpt lat="42.448084149509668" lon="13.551864484325051">
        <ele>2389.4899999999998</ele>
        <time>2013-09-11T07:47:45Z</time>
      </trkpt>
      <trkpt lat="42.448074594140053" lon="13.551831124350429">
        <ele>2390.9400000000001</ele>
        <time>2013-09-11T07:48:08Z</time>
      </trkpt>
      <trkpt lat="42.448069397360086" lon="13.551798099651933">
        <ele>2390.46</ele>
        <time>2013-09-11T07:48:30Z</time>
      </trkpt>
      <trkpt lat="42.448058919981122" lon="13.551789969205856">
        <ele>2391.9000000000001</ele>
        <time>2013-09-11T07:48:45Z</time>
      </trkpt>
      <trkpt lat="42.448059339076281" lon="13.551716627553105">
        <ele>2390.9400000000001</ele>
        <time>2013-09-11T07:49:04Z</time>
      </trkpt>
      <trkpt lat="42.448057243600488" lon="13.551727188751101">
        <ele>2390.46</ele>
        <time>2013-09-11T07:49:22Z</time>
      </trkpt>
      <trkpt lat="42.448053807020187" lon="13.551745461300015">
        <ele>2390.46</ele>
        <time>2013-09-11T07:49:41Z</time>
      </trkpt>
      <trkpt lat="42.448029583320022" lon="13.551640687510371">
        <ele>2390.46</ele>
        <time>2013-09-11T07:50:06Z</time>
      </trkpt>
      <trkpt lat="42.448020614683628" lon="13.551598358899355">
        <ele>2392.8600000000001</ele>
        <time>2013-09-11T07:50:36Z</time>
      </trkpt>
      <trkpt lat="42.448036205023527" lon="13.551628869026899">
        <ele>2394.7800000000002</ele>
        <time>2013-09-11T07:51:09Z</time>
      </trkpt>
      <trkpt lat="42.448029164224863" lon="13.551620990037918">
        <ele>2394.3000000000002</ele>
        <time>2013-09-11T07:51:24Z</time>
      </trkpt>
      <trkpt lat="42.44803050532937" lon="13.551641944795847">
        <ele>2393.8200000000002</ele>
        <time>2013-09-11T07:51:44Z</time>
      </trkpt>
      <trkpt lat="42.448030086234212" lon="13.551637502387166">
        <ele>2390.46</ele>
        <time>2013-09-11T07:51:55Z</time>
      </trkpt>
      <trkpt lat="42.448030756786466" lon="13.551641274243593">
        <ele>2390.9400000000001</ele>
        <time>2013-09-11T07:51:56Z</time>
      </trkpt>
      <trkpt lat="42.448035534471273" lon="13.55166650377214">
        <ele>2393.8200000000002</ele>
        <time>2013-09-11T07:52:09Z</time>
      </trkpt>
      <trkpt lat="42.448021788150072" lon="13.551609590649605">
        <ele>2396.6999999999998</ele>
        <time>2013-09-11T07:52:30Z</time>
      </trkpt>
      <trkpt lat="42.448019776493311" lon="13.551581678912044">
        <ele>2395.2600000000002</ele>
        <time>2013-09-11T07:52:50Z</time>
      </trkpt>
      <trkpt lat="42.448016088455915" lon="13.551550833508372">
        <ele>2395.2600000000002</ele>
        <time>2013-09-11T07:53:09Z</time>
      </trkpt>
      <trkpt lat="42.448010891675949" lon="13.551552845165133">
        <ele>2395.2600000000002</ele>
        <time>2013-09-11T07:53:28Z</time>
      </trkpt>
      <trkpt lat="42.448025979101658" lon="13.551571452990174">
        <ele>2394.3000000000002</ele>
        <time>2013-09-11T07:53:44Z</time>
      </trkpt>
      <trkpt lat="42.44804760441184" lon="13.551596263423562">
        <ele>2396.2199999999998</ele>
        <time>2013-09-11T07:54:17Z</time>
      </trkpt>
      <trkpt lat="42.448055148124695" lon="13.551713526248932">
        <ele>2399.5900000000001</ele>
        <time>2013-09-11T07:54:41Z</time>
      </trkpt>
      <trkpt lat="42.44805590249598" lon="13.551719645038247">
        <ele>2399.5900000000001</ele>
        <time>2013-09-11T07:54:42Z</time>
      </trkpt>
      <trkpt lat="42.448067972436547" lon="13.551822490990162">
        <ele>2397.6700000000001</ele>
        <time>2013-09-11T07:54:58Z</time>
      </trkpt>
      <trkpt lat="42.448082305490971" lon="13.551910920068622">
        <ele>2397.1799999999998</ele>
        <time>2013-09-11T07:55:26Z</time>
      </trkpt>
      <trkpt lat="42.448105104267597" lon="13.551974790170789">
        <ele>2397.1799999999998</ele>
        <time>2013-09-11T07:55:41Z</time>
      </trkpt>
      <trkpt lat="42.448113486170769" lon="13.551956936717033">
        <ele>2397.6700000000001</ele>
        <time>2013-09-11T07:55:56Z</time>
      </trkpt>
      <trkpt lat="42.448127316311002" lon="13.551889965310693">
        <ele>2394.3000000000002</ele>
        <time>2013-09-11T07:56:16Z</time>
      </trkpt>
      <trkpt lat="42.44811600074172" lon="13.551798518747091">
        <ele>2395.2600000000002</ele>
        <time>2013-09-11T07:56:33Z</time>
      </trkpt>
      <trkpt lat="42.448117593303323" lon="13.551836656406522">
        <ele>2393.8200000000002</ele>
        <time>2013-09-11T07:56:39Z</time>
      </trkpt>
      <trkpt lat="42.448122873902321" lon="13.551879404112697">
        <ele>2395.2600000000002</ele>
        <time>2013-09-11T07:56:42Z</time>
      </trkpt>
      <trkpt lat="42.448133770376444" lon="13.552016448229551">
        <ele>2395.7399999999998</ele>
        <time>2013-09-11T07:56:57Z</time>
      </trkpt>
      <trkpt lat="42.448154892772436" lon="13.55212583206594">
        <ele>2396.6999999999998</ele>
        <time>2013-09-11T07:57:15Z</time>
      </trkpt>
      <trkpt lat="42.448168555274606" lon="13.552189618349075">
        <ele>2396.2199999999998</ele>
        <time>2013-09-11T07:57:28Z</time>
      </trkpt>
      <trkpt lat="42.448177188634872" lon="13.55221283622086">
        <ele>2394.7800000000002</ele>
        <time>2013-09-11T07:57:38Z</time>
      </trkpt>
      <trkpt lat="42.448176182806492" lon="13.552225660532713">
        <ele>2392.8600000000001</ele>
        <time>2013-09-11T07:57:42Z</time>
      </trkpt>
      <trkpt lat="42.448177607730031" lon="13.552236305549741">
        <ele>2396.2199999999998</ele>
        <time>2013-09-11T07:57:51Z</time>
      </trkpt>
      <trkpt lat="42.448173919692636" lon="13.552214177325368">
        <ele>2397.6700000000001</ele>
        <time>2013-09-11T07:58:09Z</time>
      </trkpt>
      <trkpt lat="42.448151372373104" lon="13.552036648616195">
        <ele>2398.1500000000001</ele>
        <time>2013-09-11T07:58:33Z</time>
      </trkpt>
      <trkpt lat="42.448146175593138" lon="13.551996666938066">
        <ele>2398.6300000000001</ele>
        <time>2013-09-11T07:58:44Z</time>
      </trkpt>
      <trkpt lat="42.448147013783455" lon="13.552017118781805">
        <ele>2394.3000000000002</ele>
        <time>2013-09-11T07:58:47Z</time>
      </trkpt>
      <trkpt lat="42.448139637708664" lon="13.552004294469953">
        <ele>2392.3800000000001</ele>
        <time>2013-09-11T07:58:53Z</time>
      </trkpt>
      <trkpt lat="42.448137123137712" lon="13.552011922001839">
        <ele>2395.2600000000002</ele>
        <time>2013-09-11T07:59:06Z</time>
      </trkpt>
      <trkpt lat="42.448143493384123" lon="13.552045030519366">
        <ele>2398.6300000000001</ele>
        <time>2013-09-11T07:59:15Z</time>
      </trkpt>
      <trkpt lat="42.448136787861586" lon="13.552032457664609">
        <ele>2395.2600000000002</ele>
        <time>2013-09-11T07:59:26Z</time>
      </trkpt>
      <trkpt lat="42.448137709870934" lon="13.55203933082521">
        <ele>2392.3800000000001</ele>
        <time>2013-09-11T07:59:31Z</time>
      </trkpt>
      <trkpt lat="42.448140224441886" lon="13.552047628909349">
        <ele>2391.4200000000001</ele>
        <time>2013-09-11T07:59:33Z</time>
      </trkpt>
      <trkpt lat="42.448146427050233" lon="13.552092639729381">
        <ele>2394.3000000000002</ele>
        <time>2013-09-11T07:59:45Z</time>
      </trkpt>
      <trkpt lat="42.448137793689966" lon="13.552059112116694">
        <ele>2392.3800000000001</ele>
        <time>2013-09-11T07:59:50Z</time>
      </trkpt>
      <trkpt lat="42.448138212785125" lon="13.552034385502338">
        <ele>2395.2600000000002</ele>
        <time>2013-09-11T07:59:59Z</time>
      </trkpt>
      <trkpt lat="42.448137206956744" lon="13.55203052982688">
        <ele>2396.2199999999998</ele>
        <time>2013-09-11T08:00:00Z</time>
      </trkpt>
      <trkpt lat="42.448131423443556" lon="13.551977137103677">
        <ele>2396.2199999999998</ele>
        <time>2013-09-11T08:00:19Z</time>
      </trkpt>
      <trkpt lat="42.448126310482621" lon="13.551871692761779">
        <ele>2395.7399999999998</ele>
        <time>2013-09-11T08:00:40Z</time>
      </trkpt>
      <trkpt lat="42.448124885559082" lon="13.551860461011529">
        <ele>2393.8200000000002</ele>
        <time>2013-09-11T08:00:45Z</time>
      </trkpt>
      <trkpt lat="42.448125723749399" lon="13.551858281716704">
        <ele>2390.46</ele>
        <time>2013-09-11T08:00:47Z</time>
      </trkpt>
      <trkpt lat="42.448125556111336" lon="13.551864149048924">
        <ele>2390.9400000000001</ele>
        <time>2013-09-11T08:00:48Z</time>
      </trkpt>
      <trkpt lat="42.448123544454575" lon="13.551886277273297">
        <ele>2393.8200000000002</ele>
        <time>2013-09-11T08:00:55Z</time>
      </trkpt>
      <trkpt lat="42.448125723749399" lon="13.551889797672629">
        <ele>2394.7800000000002</ele>
        <time>2013-09-11T08:00:57Z</time>
      </trkpt>
      <trkpt lat="42.448127400130033" lon="13.551990212872624">
        <ele>2395.2600000000002</ele>
        <time>2013-09-11T08:01:06Z</time>
      </trkpt>
      <trkpt lat="42.448125304654241" lon="13.551977640017867">
        <ele>2394.3000000000002</ele>
        <time>2013-09-11T08:01:12Z</time>
      </trkpt>
      <trkpt lat="42.448114072903991" lon="13.55195383541286">
        <ele>2397.1799999999998</ele>
        <time>2013-09-11T08:01:23Z</time>
      </trkpt>
      <trkpt lat="42.448099404573441" lon="13.551906142383814">
        <ele>2394.7800000000002</ele>
        <time>2013-09-11T08:01:38Z</time>
      </trkpt>
      <trkpt lat="42.448101416230202" lon="13.551893485710025">
        <ele>2394.7800000000002</ele>
        <time>2013-09-11T08:01:48Z</time>
      </trkpt>
      <trkpt lat="42.448102841153741" lon="13.551904298365116">
        <ele>2395.2600000000002</ele>
        <time>2013-09-11T08:01:58Z</time>
      </trkpt>
      <trkpt lat="42.44810912758112" lon="13.55186783708632">
        <ele>2395.7399999999998</ele>
        <time>2013-09-11T08:02:09Z</time>
      </trkpt>
      <trkpt lat="42.448109043762088" lon="13.551901197060943">
        <ele>2394.7800000000002</ele>
        <time>2013-09-11T08:02:18Z</time>
      </trkpt>
      <trkpt lat="42.448103846982121" lon="13.551885271444917">
        <ele>2394.7800000000002</ele>
        <time>2013-09-11T08:02:28Z</time>
      </trkpt>
      <trkpt lat="42.448103846982121" lon="13.55188543908298">
        <ele>2395.7399999999998</ele>
        <time>2013-09-11T08:02:30Z</time>
      </trkpt>
      <trkpt lat="42.448105104267597" lon="13.55188837274909">
        <ele>2394.3000000000002</ele>
        <time>2013-09-11T08:02:32Z</time>
      </trkpt>
      <trkpt lat="42.448109462857246" lon="13.551894659176469">
        <ele>2396.2199999999998</ele>
        <time>2013-09-11T08:02:36Z</time>
      </trkpt>
      <trkpt lat="42.448115916922688" lon="13.551897425204515">
        <ele>2396.2199999999998</ele>
        <time>2013-09-11T08:02:40Z</time>
      </trkpt>
      <trkpt lat="42.448094291612506" lon="13.551828525960445">
        <ele>2395.7399999999998</ele>
        <time>2013-09-11T08:02:53Z</time>
      </trkpt>
      <trkpt lat="42.448088759556413" lon="13.55175987817347">
        <ele>2396.2199999999998</ele>
        <time>2013-09-11T08:03:05Z</time>
      </trkpt>
      <trkpt lat="42.448080293834209" lon="13.55167337693274">
        <ele>2398.1500000000001</ele>
        <time>2013-09-11T08:03:12Z</time>
      </trkpt>
      <trkpt lat="42.448088927194476" lon="13.551562903448939">
        <ele>2397.1799999999998</ele>
        <time>2013-09-11T08:03:24Z</time>
      </trkpt>
      <trkpt lat="42.448122370988131" lon="13.551435498520732">
        <ele>2398.6300000000001</ele>
        <time>2013-09-11T08:03:37Z</time>
      </trkpt>
      <trkpt lat="42.448193114250898" lon="13.551261406391859">
        <ele>2399.1100000000001</ele>
        <time>2013-09-11T08:03:53Z</time>
      </trkpt>
      <trkpt lat="42.448241729289293" lon="13.551180940121412">
        <ele>2400.0700000000002</ele>
        <time>2013-09-11T08:04:02Z</time>
      </trkpt>
      <trkpt lat="42.448259331285954" lon="13.551146741956472">
        <ele>2401.0300000000002</ele>
        <time>2013-09-11T08:04:06Z</time>
      </trkpt>
      <trkpt lat="42.448314903303981" lon="13.551031574606895">
        <ele>2401.5100000000002</ele>
        <time>2013-09-11T08:04:19Z</time>
      </trkpt>
      <trkpt lat="42.448333511129022" lon="13.550965692847967">
        <ele>2403.4299999999998</ele>
        <time>2013-09-11T08:04:27Z</time>
      </trkpt>
      <trkpt lat="42.44833099655807" lon="13.550886064767838">
        <ele>2405.8400000000001</ele>
        <time>2013-09-11T08:04:38Z</time>
      </trkpt>
      <trkpt lat="42.448308700695634" lon="13.550850441679358">
        <ele>2407.2800000000002</ele>
        <time>2013-09-11T08:04:44Z</time>
      </trkpt>
      <trkpt lat="42.448265869170427" lon="13.550730245187879">
        <ele>2407.2800000000002</ele>
        <time>2013-09-11T08:04:54Z</time>
      </trkpt>
      <trkpt lat="42.448201412335038" lon="13.55054710060358">
        <ele>2405.3600000000001</ele>
        <time>2013-09-11T08:05:10Z</time>
      </trkpt>
      <trkpt lat="42.44819370098412" lon="13.550426233559847">
        <ele>2406.3200000000002</ele>
        <time>2013-09-11T08:05:19Z</time>
      </trkpt>
      <trkpt lat="42.448210967704654" lon="13.550283992663026">
        <ele>2407.2800000000002</ele>
        <time>2013-09-11T08:05:30Z</time>
      </trkpt>
      <trkpt lat="42.448202837258577" lon="13.550265468657017">
        <ele>2405.8400000000001</ele>
        <time>2013-09-11T08:05:36Z</time>
      </trkpt>
      <trkpt lat="42.448199484497309" lon="13.550251806154847">
        <ele>2406.8000000000002</ele>
        <time>2013-09-11T08:05:49Z</time>
      </trkpt>
      <trkpt lat="42.44815656915307" lon="13.550151810050011">
        <ele>2406.3200000000002</ele>
        <time>2013-09-11T08:05:59Z</time>
      </trkpt>
      <trkpt lat="42.448117174208164" lon="13.550068493932486">
        <ele>2406.8000000000002</ele>
        <time>2013-09-11T08:06:07Z</time>
      </trkpt>
      <trkpt lat="42.448128154501319" lon="13.550074947997928">
        <ele>2407.2800000000002</ele>
        <time>2013-09-11T08:06:15Z</time>
      </trkpt>
      <trkpt lat="42.44804123416543" lon="13.549917619675398">
        <ele>2406.8000000000002</ele>
        <time>2013-09-11T08:06:29Z</time>
      </trkpt>
      <trkpt lat="42.447917181998491" lon="13.549769092351198">
        <ele>2403.9099999999999</ele>
        <time>2013-09-11T08:06:45Z</time>
      </trkpt>
      <trkpt lat="42.447888515889645" lon="13.549738330766559">
        <ele>2402.9499999999998</ele>
        <time>2013-09-11T08:06:49Z</time>
      </trkpt>
      <trkpt lat="42.447724817320704" lon="13.54961771517992">
        <ele>2399.1100000000001</ele>
        <time>2013-09-11T08:07:07Z</time>
      </trkpt>
      <trkpt lat="42.447684751823545" lon="13.549543032422662">
        <ele>2397.6700000000001</ele>
        <time>2013-09-11T08:07:13Z</time>
      </trkpt>
      <trkpt lat="42.447560364380479" lon="13.549357876181602">
        <ele>2396.2199999999998</ele>
        <time>2013-09-11T08:07:30Z</time>
      </trkpt>
      <trkpt lat="42.447475288063288" lon="13.549211360514164">
        <ele>2394.3000000000002</ele>
        <time>2013-09-11T08:07:45Z</time>
      </trkpt>
      <trkpt lat="42.447430193424225" lon="13.549055960029364">
        <ele>2390.46</ele>
        <time>2013-09-11T08:07:59Z</time>
      </trkpt>
      <trkpt lat="42.447428936138749" lon="13.54901522397995">
        <ele>2391.4200000000001</ele>
        <time>2013-09-11T08:08:03Z</time>
      </trkpt>
      <trkpt lat="42.447431785985827" lon="13.549012541770935">
        <ele>2389.4899999999998</ele>
        <time>2013-09-11T08:08:06Z</time>
      </trkpt>
      <trkpt lat="42.447413597255945" lon="13.548996197059751">
        <ele>2389.0100000000002</ele>
        <time>2013-09-11T08:08:13Z</time>
      </trkpt>
      <trkpt lat="42.44739817455411" lon="13.548935260623693">
        <ele>2386.1300000000001</ele>
        <time>2013-09-11T08:08:17Z</time>
      </trkpt>
      <trkpt lat="42.447398006916046" lon="13.548865774646401">
        <ele>2387.5700000000002</ele>
        <time>2013-09-11T08:08:22Z</time>
      </trkpt>
      <trkpt lat="42.447383673861623" lon="13.548723952844739">
        <ele>2385.6500000000001</ele>
        <time>2013-09-11T08:08:33Z</time>
      </trkpt>
      <trkpt lat="42.447349978610873" lon="13.548633847385645">
        <ele>2382.7600000000002</ele>
        <time>2013-09-11T08:08:40Z</time>
      </trkpt>
      <trkpt lat="42.447347799316049" lon="13.548529911786318">
        <ele>2381.8000000000002</ele>
        <time>2013-09-11T08:08:47Z</time>
      </trkpt>
      <trkpt lat="42.447342937812209" lon="13.548503257334232">
        <ele>2385.6500000000001</ele>
        <time>2013-09-11T08:08:49Z</time>
      </trkpt>
      <trkpt lat="42.447347547858953" lon="13.548478195443749">
        <ele>2380.8400000000001</ele>
        <time>2013-09-11T08:08:51Z</time>
      </trkpt>
      <trkpt lat="42.447351068258286" lon="13.548454977571964">
        <ele>2379.8800000000001</ele>
        <time>2013-09-11T08:08:53Z</time>
      </trkpt>
      <trkpt lat="42.447338998317719" lon="13.548440141603351">
        <ele>2383.25</ele>
        <time>2013-09-11T08:08:55Z</time>
      </trkpt>
      <trkpt lat="42.447269260883331" lon="13.548286166042089">
        <ele>2379.8800000000001</ele>
        <time>2013-09-11T08:09:10Z</time>
      </trkpt>
      <trkpt lat="42.447263225913048" lon="13.54824467562139">
        <ele>2376.52</ele>
        <time>2013-09-11T08:09:13Z</time>
      </trkpt>
      <trkpt lat="42.447265405207872" lon="13.548229420557618">
        <ele>2376.52</ele>
        <time>2013-09-11T08:09:14Z</time>
      </trkpt>
      <trkpt lat="42.447269847616553" lon="13.54815817438066">
        <ele>2372.1900000000001</ele>
        <time>2013-09-11T08:09:19Z</time>
      </trkpt>
      <trkpt lat="42.447273368015885" lon="13.548122383654118">
        <ele>2373.6300000000001</ele>
        <time>2013-09-11T08:09:22Z</time>
      </trkpt>
      <trkpt lat="42.447277894243598" lon="13.548079635947943">
        <ele>2373.1500000000001</ele>
        <time>2013-09-11T08:09:25Z</time>
      </trkpt>
      <trkpt lat="42.447283929213881" lon="13.548050969839096">
        <ele>2371.71</ele>
        <time>2013-09-11T08:09:27Z</time>
      </trkpt>
      <trkpt lat="42.447280492633581" lon="13.54802624322474">
        <ele>2376.04</ele>
        <time>2013-09-11T08:09:29Z</time>
      </trkpt>
      <trkpt lat="42.447277307510376" lon="13.548004198819399">
        <ele>2376.52</ele>
        <time>2013-09-11T08:09:31Z</time>
      </trkpt>
      <trkpt lat="42.447277056053281" lon="13.547956002876163">
        <ele>2374.5900000000001</ele>
        <time>2013-09-11T08:09:35Z</time>
      </trkpt>
      <trkpt lat="42.44728091172874" lon="13.547917529940605">
        <ele>2369.79</ele>
        <time>2013-09-11T08:09:38Z</time>
      </trkpt>
      <trkpt lat="42.44728384539485" lon="13.547906968742609">
        <ele>2369.79</ele>
        <time>2013-09-11T08:09:39Z</time>
      </trkpt>
      <trkpt lat="42.447287030518055" lon="13.547849887982011">
        <ele>2373.1500000000001</ele>
        <time>2013-09-11T08:09:44Z</time>
      </trkpt>
      <trkpt lat="42.447290970012546" lon="13.547779731452465">
        <ele>2365.9400000000001</ele>
        <time>2013-09-11T08:09:50Z</time>
      </trkpt>
      <trkpt lat="42.447294909507036" lon="13.547767074778676">
        <ele>2367.8600000000001</ele>
        <time>2013-09-11T08:09:51Z</time>
      </trkpt>
      <trkpt lat="42.447304464876652" lon="13.547744024544954">
        <ele>2368.8299999999999</ele>
        <time>2013-09-11T08:09:53Z</time>
      </trkpt>
      <trkpt lat="42.447307063266635" lon="13.547692140564322">
        <ele>2369.3099999999999</ele>
        <time>2013-09-11T08:09:59Z</time>
      </trkpt>
      <trkpt lat="42.447324078530073" lon="13.547661211341619">
        <ele>2373.1500000000001</ele>
        <time>2013-09-11T08:10:03Z</time>
      </trkpt>
      <trkpt lat="42.447324497625232" lon="13.547643944621086">
        <ele>2372.6700000000001</ele>
        <time>2013-09-11T08:10:05Z</time>
      </trkpt>
      <trkpt lat="42.44734201580286" lon="13.547505978494883">
        <ele>2373.1500000000001</ele>
        <time>2013-09-11T08:10:17Z</time>
      </trkpt>
      <trkpt lat="42.447335310280323" lon="13.547470103949308">
        <ele>2368.8299999999999</ele>
        <time>2013-09-11T08:10:23Z</time>
      </trkpt>
      <trkpt lat="42.447333801537752" lon="13.547435654327273">
        <ele>2368.3499999999999</ele>
        <time>2013-09-11T08:10:25Z</time>
      </trkpt>
      <trkpt lat="42.447323743253946" lon="13.547270027920604">
        <ele>2368.3499999999999</ele>
        <time>2013-09-11T08:10:36Z</time>
      </trkpt>
      <trkpt lat="42.447299854829907" lon="13.547209007665515">
        <ele>2369.79</ele>
        <time>2013-09-11T08:10:41Z</time>
      </trkpt>
      <trkpt lat="42.44728434830904" lon="13.547079926356673">
        <ele>2370.27</ele>
        <time>2013-09-11T08:10:52Z</time>
      </trkpt>
      <trkpt lat="42.447288623079658" lon="13.546978170052171">
        <ele>2368.3499999999999</ele>
        <time>2013-09-11T08:11:01Z</time>
      </trkpt>
      <trkpt lat="42.447300273925066" lon="13.546893512830138">
        <ele>2371.23</ele>
        <time>2013-09-11T08:11:09Z</time>
      </trkpt>
      <trkpt lat="42.447312846779823" lon="13.54679393582046">
        <ele>2372.6700000000001</ele>
        <time>2013-09-11T08:11:22Z</time>
      </trkpt>
      <trkpt lat="42.447342267259955" lon="13.546691928058863">
        <ele>2374.5900000000001</ele>
        <time>2013-09-11T08:11:36Z</time>
      </trkpt>
      <trkpt lat="42.447360120713711" lon="13.546651946380734">
        <ele>2377.48</ele>
        <time>2013-09-11T08:11:42Z</time>
      </trkpt>
      <trkpt lat="42.447365736588836" lon="13.546628477051854">
        <ele>2376.04</ele>
        <time>2013-09-11T08:11:45Z</time>
      </trkpt>
      <trkpt lat="42.447388200089335" lon="13.546568294987082">
        <ele>2379.4000000000001</ele>
        <time>2013-09-11T08:11:54Z</time>
      </trkpt>
      <trkpt lat="42.447406137362123" lon="13.546535186469555">
        <ele>2381.3200000000002</ele>
        <time>2013-09-11T08:11:59Z</time>
      </trkpt>
      <trkpt lat="42.447434803470969" lon="13.546474417671561">
        <ele>2383.73</ele>
        <time>2013-09-11T08:12:09Z</time>
      </trkpt>
      <trkpt lat="42.447443855926394" lon="13.5464499425143">
        <ele>2381.3200000000002</ele>
        <time>2013-09-11T08:12:16Z</time>
      </trkpt>
      <trkpt lat="42.447442933917046" lon="13.546435944736004">
        <ele>2382.7600000000002</ele>
        <time>2013-09-11T08:12:18Z</time>
      </trkpt>
      <trkpt lat="42.447449890896678" lon="13.546322705224156">
        <ele>2384.21</ele>
        <time>2013-09-11T08:12:32Z</time>
      </trkpt>
      <trkpt lat="42.447449136525393" lon="13.54630384594202">
        <ele>2385.1700000000001</ele>
        <time>2013-09-11T08:12:34Z</time>
      </trkpt>
      <trkpt lat="42.447456764057279" lon="13.546225223690271">
        <ele>2388.0500000000002</ele>
        <time>2013-09-11T08:12:43Z</time>
      </trkpt>
      <trkpt lat="42.447469420731068" lon="13.546193121001124">
        <ele>2388.0500000000002</ele>
        <time>2013-09-11T08:12:49Z</time>
      </trkpt>
      <trkpt lat="42.447482161223888" lon="13.546101255342364">
        <ele>2392.3800000000001</ele>
        <time>2013-09-11T08:13:02Z</time>
      </trkpt>
      <trkpt lat="42.447484759613872" lon="13.546064039692283">
        <ele>2390.9400000000001</ele>
        <time>2013-09-11T08:13:07Z</time>
      </trkpt>
      <trkpt lat="42.447523064911366" lon="13.545954488217831">
        <ele>2393.3400000000001</ele>
        <time>2013-09-11T08:13:22Z</time>
      </trkpt>
      <trkpt lat="42.44753354229033" lon="13.545939652249217">
        <ele>2389.9699999999998</ele>
        <time>2013-09-11T08:13:26Z</time>
      </trkpt>
      <trkpt lat="42.447539493441582" lon="13.545936215668917">
        <ele>2389.9699999999998</ele>
        <time>2013-09-11T08:13:27Z</time>
      </trkpt>
      <trkpt lat="42.447562627494335" lon="13.545930935069919">
        <ele>2393.3400000000001</ele>
        <time>2013-09-11T08:13:30Z</time>
      </trkpt>
      <trkpt lat="42.447592047974467" lon="13.545923642814159">
        <ele>2393.8200000000002</ele>
        <time>2013-09-11T08:13:33Z</time>
      </trkpt>
      <trkpt lat="42.447709059342742" lon="13.545946273952723">
        <ele>2394.3000000000002</ele>
        <time>2013-09-11T08:13:49Z</time>
      </trkpt>
      <trkpt lat="42.447790866717696" lon="13.545890534296632">
        <ele>2393.8200000000002</ele>
        <time>2013-09-11T08:14:02Z</time>
      </trkpt>
      <trkpt lat="42.447798494249582" lon="13.545879805460572">
        <ele>2389.9699999999998</ele>
        <time>2013-09-11T08:14:04Z</time>
      </trkpt>
      <trkpt lat="42.44781106710434" lon="13.545869328081608">
        <ele>2393.8200000000002</ele>
        <time>2013-09-11T08:14:06Z</time>
      </trkpt>
      <trkpt lat="42.447819365188479" lon="13.545866059139371">
        <ele>2392.3800000000001</ele>
        <time>2013-09-11T08:14:07Z</time>
      </trkpt>
      <trkpt lat="42.447848282754421" lon="13.545861868187785">
        <ele>2391.4200000000001</ele>
        <time>2013-09-11T08:14:10Z</time>
      </trkpt>
      <trkpt lat="42.447867477312684" lon="13.545845858752728">
        <ele>2390.46</ele>
        <time>2013-09-11T08:14:12Z</time>
      </trkpt>
      <trkpt lat="42.447881978005171" lon="13.54583328589797">
        <ele>2391.4200000000001</ele>
        <time>2013-09-11T08:14:14Z</time>
      </trkpt>
      <trkpt lat="42.447893628850579" lon="13.54582155123353">
        <ele>2389.9699999999998</ele>
        <time>2013-09-11T08:14:16Z</time>
      </trkpt>
      <trkpt lat="42.447961941361427" lon="13.545789113268256">
        <ele>2386.6100000000001</ele>
        <time>2013-09-11T08:14:25Z</time>
      </trkpt>
      <trkpt lat="42.448068475350738" lon="13.545723482966423">
        <ele>2384.21</ele>
        <time>2013-09-11T08:14:38Z</time>
      </trkpt>
      <trkpt lat="42.448196802288294" lon="13.545578727498651">
        <ele>2381.8000000000002</ele>
        <time>2013-09-11T08:14:55Z</time>
      </trkpt>
      <trkpt lat="42.448278944939375" lon="13.545464565977454">
        <ele>2380.8400000000001</ele>
        <time>2013-09-11T08:15:08Z</time>
      </trkpt>
      <trkpt lat="42.448333846405149" lon="13.545398432761431">
        <ele>2375.5500000000002</ele>
        <time>2013-09-11T08:15:18Z</time>
      </trkpt>
      <trkpt lat="42.448334265500307" lon="13.545394074171782">
        <ele>2376.52</ele>
        <time>2013-09-11T08:15:19Z</time>
      </trkpt>
      <trkpt lat="42.448341306298971" lon="13.545375717803836">
        <ele>2373.6300000000001</ele>
        <time>2013-09-11T08:15:22Z</time>
      </trkpt>
      <trkpt lat="42.448363434523344" lon="13.545320983976126">
        <ele>2375.5500000000002</ele>
        <time>2013-09-11T08:15:27Z</time>
      </trkpt>
      <trkpt lat="42.448369301855564" lon="13.54530899785459">
        <ele>2375.5500000000002</ele>
        <time>2013-09-11T08:15:28Z</time>
      </trkpt>
      <trkpt lat="42.448406852781773" lon="13.545255688950419">
        <ele>2373.1500000000001</ele>
        <time>2013-09-11T08:15:34Z</time>
      </trkpt>
      <trkpt lat="42.448415905237198" lon="13.545232890173793">
        <ele>2372.1900000000001</ele>
        <time>2013-09-11T08:15:36Z</time>
      </trkpt>
      <trkpt lat="42.448429483920336" lon="13.545211348682642">
        <ele>2373.6300000000001</ele>
        <time>2013-09-11T08:15:38Z</time>
      </trkpt>
      <trkpt lat="42.448541801422834" lon="13.545081345364451">
        <ele>2369.79</ele>
        <time>2013-09-11T08:15:53Z</time>
      </trkpt>
      <trkpt lat="42.448550350964069" lon="13.54507296346128">
        <ele>2369.79</ele>
        <time>2013-09-11T08:15:54Z</time>
      </trkpt>
      <trkpt lat="42.448577005416155" lon="13.54501923546195">
        <ele>2369.79</ele>
        <time>2013-09-11T08:16:09Z</time>
      </trkpt>
      <trkpt lat="42.448577843606472" lon="13.545007416978478">
        <ele>2367.8600000000001</ele>
        <time>2013-09-11T08:16:10Z</time>
      </trkpt>
      <trkpt lat="42.448629727587104" lon="13.544856375083327">
        <ele>2367.3800000000001</ele>
        <time>2013-09-11T08:16:22Z</time>
      </trkpt>
      <trkpt lat="42.448647161945701" lon="13.54481203481555">
        <ele>2368.3499999999999</ele>
        <time>2013-09-11T08:16:26Z</time>
      </trkpt>
      <trkpt lat="42.448665769770741" lon="13.544796444475651">
        <ele>2369.3099999999999</ele>
        <time>2013-09-11T08:16:28Z</time>
      </trkpt>
      <trkpt lat="42.44880692102015" lon="13.544644564390182">
        <ele>2370.27</ele>
        <time>2013-09-11T08:16:46Z</time>
      </trkpt>
      <trkpt lat="42.448877999559045" lon="13.544564265757799">
        <ele>2372.1900000000001</ele>
        <time>2013-09-11T08:16:55Z</time>
      </trkpt>
      <trkpt lat="42.448987299576402" lon="13.544467035681009">
        <ele>2373.6300000000001</ele>
        <time>2013-09-11T08:17:09Z</time>
      </trkpt>
      <trkpt lat="42.449034154415131" lon="13.544424036517739">
        <ele>2377</ele>
        <time>2013-09-11T08:17:15Z</time>
      </trkpt>
      <trkpt lat="42.449038848280907" lon="13.544419594109058">
        <ele>2373.1500000000001</ele>
        <time>2013-09-11T08:17:17Z</time>
      </trkpt>
      <trkpt lat="42.449044715613127" lon="13.544414816424251">
        <ele>2373.1500000000001</ele>
        <time>2013-09-11T08:17:18Z</time>
      </trkpt>
      <trkpt lat="42.449051756411791" lon="13.544407607987523">
        <ele>2377</ele>
        <time>2013-09-11T08:17:19Z</time>
      </trkpt>
      <trkpt lat="42.449057875201106" lon="13.544400231912732">
        <ele>2376.52</ele>
        <time>2013-09-11T08:17:20Z</time>
      </trkpt>
      <trkpt lat="42.449083607643843" lon="13.54436444118619">
        <ele>2377.48</ele>
        <time>2013-09-11T08:17:25Z</time>
      </trkpt>
      <trkpt lat="42.449094336479902" lon="13.544349689036608">
        <ele>2371.71</ele>
        <time>2013-09-11T08:17:27Z</time>
      </trkpt>
      <trkpt lat="42.44909861125052" lon="13.544342983514071">
        <ele>2371.71</ele>
        <time>2013-09-11T08:17:28Z</time>
      </trkpt>
      <trkpt lat="42.449112022295594" lon="13.544321609660983">
        <ele>2367.8600000000001</ele>
        <time>2013-09-11T08:17:31Z</time>
      </trkpt>
      <trkpt lat="42.449113698676229" lon="13.544314652681351">
        <ele>2367.8600000000001</ele>
        <time>2013-09-11T08:17:32Z</time>
      </trkpt>
      <trkpt lat="42.449124762788415" lon="13.544293530285358">
        <ele>2367.8600000000001</ele>
        <time>2013-09-11T08:17:36Z</time>
      </trkpt>
      <trkpt lat="42.44912157766521" lon="13.544292775914073">
        <ele>2362.5799999999999</ele>
        <time>2013-09-11T08:17:37Z</time>
      </trkpt>
      <trkpt lat="42.449117973446846" lon="13.544286657124758">
        <ele>2360.6500000000001</ele>
        <time>2013-09-11T08:17:38Z</time>
      </trkpt>
      <trkpt lat="42.449129456654191" lon="13.544249776750803">
        <ele>2366.4200000000001</ele>
        <time>2013-09-11T08:17:41Z</time>
      </trkpt>
      <trkpt lat="42.449134988710284" lon="13.54423938319087">
        <ele>2367.3800000000001</ele>
        <time>2013-09-11T08:17:42Z</time>
      </trkpt>
      <trkpt lat="42.449222914874554" lon="13.544166795909405">
        <ele>2364.5</ele>
        <time>2013-09-11T08:17:54Z</time>
      </trkpt>
      <trkpt lat="42.449229704216123" lon="13.54416411370039">
        <ele>2364.5</ele>
        <time>2013-09-11T08:17:55Z</time>
      </trkpt>
      <trkpt lat="42.449287455528975" lon="13.544099740684032">
        <ele>2360.1700000000001</ele>
        <time>2013-09-11T08:18:03Z</time>
      </trkpt>
      <trkpt lat="42.449295502156019" lon="13.544060681015253">
        <ele>2356.8099999999999</ele>
        <time>2013-09-11T08:18:08Z</time>
      </trkpt>
      <trkpt lat="42.449345542117953" lon="13.543978370726109">
        <ele>2359.6900000000001</ele>
        <time>2013-09-11T08:18:18Z</time>
      </trkpt>
      <trkpt lat="42.449361383914948" lon="13.543949285522103">
        <ele>2358.25</ele>
        <time>2013-09-11T08:18:21Z</time>
      </trkpt>
      <trkpt lat="42.449398683384061" lon="13.543878123164177">
        <ele>2358.73</ele>
        <time>2013-09-11T08:18:31Z</time>
      </trkpt>
      <trkpt lat="42.449470348656178" lon="13.543778378516436">
        <ele>2358.25</ele>
        <time>2013-09-11T08:18:44Z</time>
      </trkpt>
      <trkpt lat="42.44949147105217" lon="13.543737474828959">
        <ele>2355.8499999999999</ele>
        <time>2013-09-11T08:18:48Z</time>
      </trkpt>
      <trkpt lat="42.449500607326627" lon="13.543714340776205">
        <ele>2354.8899999999999</ele>
        <time>2013-09-11T08:18:50Z</time>
      </trkpt>
      <trkpt lat="42.449568416923285" lon="13.543545445427299">
        <ele>2353.4400000000001</ele>
        <time>2013-09-11T08:19:07Z</time>
      </trkpt>
      <trkpt lat="42.449565231800079" lon="13.543546702712774">
        <ele>2352.48</ele>
        <time>2013-09-11T08:19:09Z</time>
      </trkpt>
      <trkpt lat="42.449596161022782" lon="13.543433547019958">
        <ele>2354.8899999999999</ele>
        <time>2013-09-11T08:19:27Z</time>
      </trkpt>
      <trkpt lat="42.449599094688892" lon="13.543423488736153">
        <ele>2355.3699999999999</ele>
        <time>2013-09-11T08:19:29Z</time>
      </trkpt>
      <trkpt lat="42.44965466670692" lon="13.543170606717467">
        <ele>2355.3699999999999</ele>
        <time>2013-09-11T08:19:46Z</time>
      </trkpt>
      <trkpt lat="42.449672017246485" lon="13.543024929240346">
        <ele>2355.8499999999999</ele>
        <time>2013-09-11T08:20:02Z</time>
      </trkpt>
      <trkpt lat="42.449667742475867" lon="13.543005734682083">
        <ele>2352</ele>
        <time>2013-09-11T08:20:05Z</time>
      </trkpt>
      <trkpt lat="42.449636561796069" lon="13.542848071083426">
        <ele>2353.9299999999998</ele>
        <time>2013-09-11T08:20:17Z</time>
      </trkpt>
      <trkpt lat="42.449620803818107" lon="13.542771209031343">
        <ele>2351.04</ele>
        <time>2013-09-11T08:20:23Z</time>
      </trkpt>
      <trkpt lat="42.449574787169695" lon="13.542654532939196">
        <ele>2346.7199999999998</ele>
        <time>2013-09-11T08:20:35Z</time>
      </trkpt>
      <trkpt lat="42.449575625360012" lon="13.542646821588278">
        <ele>2346.23</ele>
        <time>2013-09-11T08:20:36Z</time>
      </trkpt>
      <trkpt lat="42.449589790776372" lon="13.542587645351887">
        <ele>2346.23</ele>
        <time>2013-09-11T08:20:44Z</time>
      </trkpt>
      <trkpt lat="42.44960873387754" lon="13.542486475780606">
        <ele>2344.3099999999999</ele>
        <time>2013-09-11T08:20:56Z</time>
      </trkpt>
      <trkpt lat="42.449606973677874" lon="13.542472310364246">
        <ele>2342.3899999999999</ele>
        <time>2013-09-11T08:20:59Z</time>
      </trkpt>
      <trkpt lat="42.449586186558008" lon="13.542392095550895">
        <ele>2339.02</ele>
        <time>2013-09-11T08:21:10Z</time>
      </trkpt>
      <trkpt lat="42.44958040304482" lon="13.542388491332531">
        <ele>2339.9899999999998</ele>
        <time>2013-09-11T08:21:11Z</time>
      </trkpt>
      <trkpt lat="42.449536984786391" lon="13.542363597080112">
        <ele>2338.54</ele>
        <time>2013-09-11T08:21:19Z</time>
      </trkpt>
      <trkpt lat="42.449524998664856" lon="13.542336272075772">
        <ele>2337.5799999999999</ele>
        <time>2013-09-11T08:21:23Z</time>
      </trkpt>
      <trkpt lat="42.449529860168695" lon="13.542335769161582">
        <ele>2339.5100000000002</ele>
        <time>2013-09-11T08:21:32Z</time>
      </trkpt>
      <trkpt lat="42.449522316455841" lon="13.542326129972935">
        <ele>2336.1399999999999</ele>
        <time>2013-09-11T08:21:34Z</time>
      </trkpt>
      <trkpt lat="42.44951393455267" lon="13.542303079739213">
        <ele>2335.6599999999999</ele>
        <time>2013-09-11T08:21:36Z</time>
      </trkpt>
      <trkpt lat="42.449496919289231" lon="13.54227801784873">
        <ele>2336.6199999999999</ele>
        <time>2013-09-11T08:21:40Z</time>
      </trkpt>
      <trkpt lat="42.449490129947662" lon="13.542269300669432">
        <ele>2332.3000000000002</ele>
        <time>2013-09-11T08:21:41Z</time>
      </trkpt>
      <trkpt lat="42.449486861005425" lon="13.542253039777279">
        <ele>2332.3000000000002</ele>
        <time>2013-09-11T08:21:42Z</time>
      </trkpt>
      <trkpt lat="42.449452830478549" lon="13.542169639840722">
        <ele>2330.8499999999999</ele>
        <time>2013-09-11T08:21:49Z</time>
      </trkpt>
      <trkpt lat="42.449406394734979" lon="13.542088586837053">
        <ele>2328.4499999999998</ele>
        <time>2013-09-11T08:21:57Z</time>
      </trkpt>
      <trkpt lat="42.449400192126632" lon="13.542081462219357">
        <ele>2328.4499999999998</ele>
        <time>2013-09-11T08:21:58Z</time>
      </trkpt>
      <trkpt lat="42.449374627321959" lon="13.542067129164934">
        <ele>2331.8099999999999</ele>
        <time>2013-09-11T08:22:01Z</time>
      </trkpt>
      <trkpt lat="42.449369765818119" lon="13.542055226862431">
        <ele>2330.8499999999999</ele>
        <time>2013-09-11T08:22:02Z</time>
      </trkpt>
      <trkpt lat="42.44936247356236" lon="13.542032595723867">
        <ele>2328.9299999999998</ele>
        <time>2013-09-11T08:22:04Z</time>
      </trkpt>
      <trkpt lat="42.449355600401759" lon="13.542015412822366">
        <ele>2330.3699999999999</ele>
        <time>2013-09-11T08:22:06Z</time>
      </trkpt>
      <trkpt lat="42.449348978698254" lon="13.541990099474788">
        <ele>2328.4499999999998</ele>
        <time>2013-09-11T08:22:09Z</time>
      </trkpt>
      <trkpt lat="42.449348894879222" lon="13.541967803612351">
        <ele>2326.5300000000002</ele>
        <time>2013-09-11T08:22:11Z</time>
      </trkpt>
      <trkpt lat="42.449350571259856" lon="13.541923295706511">
        <ele>2330.3699999999999</ele>
        <time>2013-09-11T08:22:17Z</time>
      </trkpt>
      <trkpt lat="42.449352918192744" lon="13.541918685659766">
        <ele>2327.4899999999998</ele>
        <time>2013-09-11T08:22:18Z</time>
      </trkpt>
      <trkpt lat="42.449347302317619" lon="13.541914243251085">
        <ele>2326.5300000000002</ele>
        <time>2013-09-11T08:22:20Z</time>
      </trkpt>
      <trkpt lat="42.449339088052511" lon="13.541883397847414">
        <ele>2322.6799999999998</ele>
        <time>2013-09-11T08:22:25Z</time>
      </trkpt>
      <trkpt lat="42.449332550168037" lon="13.541884906589985">
        <ele>2323.1599999999999</ele>
        <time>2013-09-11T08:22:26Z</time>
      </trkpt>
      <trkpt lat="42.449321569874883" lon="13.541892785578966">
        <ele>2329.4099999999999</ele>
        <time>2013-09-11T08:22:28Z</time>
      </trkpt>
      <trkpt lat="42.449319139122963" lon="13.541890606284142">
        <ele>2328.4499999999998</ele>
        <time>2013-09-11T08:22:29Z</time>
      </trkpt>
      <trkpt lat="42.4493189714849" lon="13.541885325685143">
        <ele>2323.6399999999999</ele>
        <time>2013-09-11T08:22:30Z</time>
      </trkpt>
      <trkpt lat="42.449317714199424" lon="13.541882308200002">
        <ele>2323.6399999999999</ele>
        <time>2013-09-11T08:22:31Z</time>
      </trkpt>
      <trkpt lat="42.449312433600426" lon="13.541850624606013">
        <ele>2323.6399999999999</ele>
        <time>2013-09-11T08:22:37Z</time>
      </trkpt>
      <trkpt lat="42.449310002848506" lon="13.541845344007015">
        <ele>2320.2800000000002</ele>
        <time>2013-09-11T08:22:38Z</time>
      </trkpt>
      <trkpt lat="42.449309667572379" lon="13.541840398684144">
        <ele>2320.7600000000002</ele>
        <time>2013-09-11T08:22:39Z</time>
      </trkpt>
      <trkpt lat="42.449311092495918" lon="13.541827071458101">
        <ele>2326.0500000000002</ele>
        <time>2013-09-11T08:22:41Z</time>
      </trkpt>
      <trkpt lat="42.449312433600426" lon="13.541821958497167">
        <ele>2322.1999999999998</ele>
        <time>2013-09-11T08:22:42Z</time>
      </trkpt>
      <trkpt lat="42.449313355609775" lon="13.54181282222271">
        <ele>2316.9099999999999</ele>
        <time>2013-09-11T08:22:43Z</time>
      </trkpt>
      <trkpt lat="42.449305476620793" lon="13.541811732575297">
        <ele>2315.4699999999998</ele>
        <time>2013-09-11T08:22:45Z</time>
      </trkpt>
      <trkpt lat="42.4492999445647" lon="13.541810810565948">
        <ele>2320.2800000000002</ele>
        <time>2013-09-11T08:22:46Z</time>
      </trkpt>
      <trkpt lat="42.44929751381278" lon="13.541806368157268">
        <ele>2318.8400000000001</ele>
        <time>2013-09-11T08:22:47Z</time>
      </trkpt>
      <trkpt lat="42.449304973706603" lon="13.541792705655098">
        <ele>2321.7199999999998</ele>
        <time>2013-09-11T08:22:49Z</time>
      </trkpt>
      <trkpt lat="42.449310338124633" lon="13.541754903271794">
        <ele>2318.3600000000001</ele>
        <time>2013-09-11T08:22:54Z</time>
      </trkpt>
      <trkpt lat="42.449310254305601" lon="13.54173369705677">
        <ele>2321.2399999999998</ele>
        <time>2013-09-11T08:22:57Z</time>
      </trkpt>
      <trkpt lat="42.449322072789073" lon="13.541719699278474">
        <ele>2318.8400000000001</ele>
        <time>2013-09-11T08:23:02Z</time>
      </trkpt>
      <trkpt lat="42.449316289275885" lon="13.541696816682816">
        <ele>2314.5100000000002</ele>
        <time>2013-09-11T08:23:07Z</time>
      </trkpt>
      <trkpt lat="42.44931947439909" lon="13.541688267141581">
        <ele>2318.8400000000001</ele>
        <time>2013-09-11T08:23:08Z</time>
      </trkpt>
      <trkpt lat="42.449327269569039" lon="13.54166672565043">
        <ele>2313.5500000000002</ele>
        <time>2013-09-11T08:23:12Z</time>
      </trkpt>
      <trkpt lat="42.449317462742329" lon="13.541657421737909">
        <ele>2312.5900000000001</ele>
        <time>2013-09-11T08:23:14Z</time>
      </trkpt>
      <trkpt lat="42.449308997020125" lon="13.541604448109865">
        <ele>2310.1900000000001</ele>
        <time>2013-09-11T08:23:21Z</time>
      </trkpt>
      <trkpt lat="42.449318049475551" lon="13.541587265208364">
        <ele>2313.5500000000002</ele>
        <time>2013-09-11T08:23:23Z</time>
      </trkpt>
      <trkpt lat="42.449315451085567" lon="13.541579134762287">
        <ele>2308.2600000000002</ele>
        <time>2013-09-11T08:23:25Z</time>
      </trkpt>
      <trkpt lat="42.44931167922914" lon="13.54157586582005">
        <ele>2310.6700000000001</ele>
        <time>2013-09-11T08:23:26Z</time>
      </trkpt>
      <trkpt lat="42.44930044747889" lon="13.541581565514207">
        <ele>2312.1100000000001</ele>
        <time>2013-09-11T08:23:28Z</time>
      </trkpt>
      <trkpt lat="42.449291395023465" lon="13.54156656190753">
        <ele>2308.2600000000002</ele>
        <time>2013-09-11T08:23:30Z</time>
      </trkpt>
      <trkpt lat="42.449265075847507" lon="13.541489532217383">
        <ele>2304.9000000000001</ele>
        <time>2013-09-11T08:23:38Z</time>
      </trkpt>
      <trkpt lat="42.449246635660529" lon="13.541460363194346">
        <ele>2304.9000000000001</ele>
        <time>2013-09-11T08:23:43Z</time>
      </trkpt>
      <trkpt lat="42.449237080290914" lon="13.541438151150942">
        <ele>2302.4899999999998</ele>
        <time>2013-09-11T08:23:45Z</time>
      </trkpt>
      <trkpt lat="42.449236325919628" lon="13.541411412879825">
        <ele>2300.5700000000002</ele>
        <time>2013-09-11T08:23:47Z</time>
      </trkpt>
      <trkpt lat="42.449234565719962" lon="13.541401438415051">
        <ele>2304.4200000000001</ele>
        <time>2013-09-11T08:23:48Z</time>
      </trkpt>
      <trkpt lat="42.449231296777725" lon="13.541396073997021">
        <ele>2302.4899999999998</ele>
        <time>2013-09-11T08:23:49Z</time>
      </trkpt>
      <trkpt lat="42.449233727529645" lon="13.541399845853448">
        <ele>2305.8600000000001</ele>
        <time>2013-09-11T08:24:06Z</time>
      </trkpt>
      <trkpt lat="42.449224507436156" lon="13.541405629366636">
        <ele>2302.0100000000002</ele>
        <time>2013-09-11T08:24:28Z</time>
      </trkpt>
      <trkpt lat="42.449221657589078" lon="13.541404372081161">
        <ele>2305.3800000000001</ele>
        <time>2013-09-11T08:24:32Z</time>
      </trkpt>
      <trkpt lat="42.449224926531315" lon="13.541407641023397">
        <ele>2305.3800000000001</ele>
        <time>2013-09-11T08:24:33Z</time>
      </trkpt>
      <trkpt lat="42.449221070855856" lon="13.541397918015718">
        <ele>2306.3400000000001</ele>
        <time>2013-09-11T08:24:50Z</time>
      </trkpt>
      <trkpt lat="42.449217131361365" lon="13.541409987956285">
        <ele>2308.2600000000002</ele>
        <time>2013-09-11T08:25:00Z</time>
      </trkpt>
      <trkpt lat="42.449217550456524" lon="13.541416358202696">
        <ele>2303.46</ele>
        <time>2013-09-11T08:25:02Z</time>
      </trkpt>
      <trkpt lat="42.449222328141332" lon="13.541416861116886">
        <ele>2304.4200000000001</ele>
        <time>2013-09-11T08:25:03Z</time>
      </trkpt>
      <trkpt lat="42.449224758893251" lon="13.541408563032746">
        <ele>2306.8200000000002</ele>
        <time>2013-09-11T08:25:05Z</time>
      </trkpt>
      <trkpt lat="42.449221070855856" lon="13.541404874995351">
        <ele>2305.3800000000001</ele>
        <time>2013-09-11T08:25:27Z</time>
      </trkpt>
      <trkpt lat="42.449225345626473" lon="13.541389536112547">
        <ele>2306.8200000000002</ele>
        <time>2013-09-11T08:25:45Z</time>
      </trkpt>
      <trkpt lat="42.449223585426807" lon="13.541406467556953">
        <ele>2307.3000000000002</ele>
        <time>2013-09-11T08:26:01Z</time>
      </trkpt>
      <trkpt lat="42.449181172996759" lon="13.541441252455115">
        <ele>2308.7399999999998</ele>
        <time>2013-09-11T08:26:20Z</time>
      </trkpt>
      <trkpt lat="42.449176898226142" lon="13.541433624923229">
        <ele>2300.5700000000002</ele>
        <time>2013-09-11T08:26:21Z</time>
      </trkpt>
      <trkpt lat="42.449166337028146" lon="13.541410658508539">
        <ele>2300.5700000000002</ele>
        <time>2013-09-11T08:26:24Z</time>
      </trkpt>
      <trkpt lat="42.449139514937997" lon="13.541382914409041">
        <ele>2298.6500000000001</ele>
        <time>2013-09-11T08:26:28Z</time>
      </trkpt>
      <trkpt lat="42.449132222682238" lon="13.54137402959168">
        <ele>2300.5700000000002</ele>
        <time>2013-09-11T08:26:30Z</time>
      </trkpt>
      <trkpt lat="42.449127864092588" lon="13.541353493928909">
        <ele>2296.25</ele>
        <time>2013-09-11T08:26:32Z</time>
      </trkpt>
      <trkpt lat="42.44912451133132" lon="13.541352320462465">
        <ele>2296.25</ele>
        <time>2013-09-11T08:26:33Z</time>
      </trkpt>
      <trkpt lat="42.449117721989751" lon="13.541352823376656">
        <ele>2299.6100000000001</ele>
        <time>2013-09-11T08:26:34Z</time>
      </trkpt>
      <trkpt lat="42.449115039780736" lon="13.541342429816723">
        <ele>2298.6500000000001</ele>
        <time>2013-09-11T08:26:35Z</time>
      </trkpt>
      <trkpt lat="42.449116297066212" lon="13.54131393134594">
        <ele>2293.8400000000001</ele>
        <time>2013-09-11T08:26:38Z</time>
      </trkpt>
      <trkpt lat="42.449110681191087" lon="13.541306555271149">
        <ele>2294.3200000000002</ele>
        <time>2013-09-11T08:26:39Z</time>
      </trkpt>
      <trkpt lat="42.449097689241171" lon="13.541273195296526">
        <ele>2296.73</ele>
        <time>2013-09-11T08:26:42Z</time>
      </trkpt>
      <trkpt lat="42.449066005647182" lon="13.541215443983674">
        <ele>2296.73</ele>
        <time>2013-09-11T08:26:50Z</time>
      </trkpt>
      <trkpt lat="42.449021078646183" lon="13.541182586923242">
        <ele>2293.8400000000001</ele>
        <time>2013-09-11T08:27:02Z</time>
      </trkpt>
      <trkpt lat="42.449006997048855" lon="13.541160123422742">
        <ele>2292.4000000000001</ele>
        <time>2013-09-11T08:27:04Z</time>
      </trkpt>
      <trkpt lat="42.448995346203446" lon="13.541127266362309">
        <ele>2290.96</ele>
        <time>2013-09-11T08:27:06Z</time>
      </trkpt>
      <trkpt lat="42.448952430859208" lon="13.540958622470498">
        <ele>2290.48</ele>
        <time>2013-09-11T08:27:17Z</time>
      </trkpt>
      <trkpt lat="42.448918400332332" lon="13.540755361318588">
        <ele>2290.96</ele>
        <time>2013-09-11T08:27:32Z</time>
      </trkpt>
      <trkpt lat="42.448922088369727" lon="13.540682103484869">
        <ele>2288.5599999999999</ele>
        <time>2013-09-11T08:27:38Z</time>
      </trkpt>
      <trkpt lat="42.448919070884585" lon="13.540601804852486">
        <ele>2285.6700000000001</ele>
        <time>2013-09-11T08:27:44Z</time>
      </trkpt>
      <trkpt lat="42.448917478322983" lon="13.540558554232121">
        <ele>2289.52</ele>
        <time>2013-09-11T08:27:51Z</time>
      </trkpt>
      <trkpt lat="42.448906414210796" lon="13.540558218955994">
        <ele>2290.48</ele>
        <time>2013-09-11T08:27:53Z</time>
      </trkpt>
      <trkpt lat="42.448884872719646" lon="13.540505329146981">
        <ele>2287.1100000000001</ele>
        <time>2013-09-11T08:28:07Z</time>
      </trkpt>
      <trkpt lat="42.448864672333002" lon="13.540450260043144">
        <ele>2282.79</ele>
        <time>2013-09-11T08:28:14Z</time>
      </trkpt>
      <trkpt lat="42.448860229924321" lon="13.540452690795064">
        <ele>2289.52</ele>
        <time>2013-09-11T08:28:16Z</time>
      </trkpt>
      <trkpt lat="42.44886701926589" lon="13.54046224616468">
        <ele>2288.5599999999999</ele>
        <time>2013-09-11T08:28:17Z</time>
      </trkpt>
      <trkpt lat="42.448837934061885" lon="13.540499461814761">
        <ele>2285.6700000000001</ele>
        <time>2013-09-11T08:28:25Z</time>
      </trkpt>
      <trkpt lat="42.448836844414473" lon="13.540487978607416">
        <ele>2284.71</ele>
        <time>2013-09-11T08:28:27Z</time>
      </trkpt>
      <trkpt lat="42.448852770030499" lon="13.540481608361006">
        <ele>2283.75</ele>
        <time>2013-09-11T08:28:35Z</time>
      </trkpt>
      <trkpt lat="42.44883282110095" lon="13.54049988090992">
        <ele>2286.6300000000001</ele>
        <time>2013-09-11T08:28:40Z</time>
      </trkpt>
      <trkpt lat="42.448833240196109" lon="13.540481943637133">
        <ele>2283.27</ele>
        <time>2013-09-11T08:28:42Z</time>
      </trkpt>
      <trkpt lat="42.44882594794035" lon="13.540480937808752">
        <ele>2280.3800000000001</ele>
        <time>2013-09-11T08:28:52Z</time>
      </trkpt>
      <trkpt lat="42.448801137506962" lon="13.540428634732962">
        <ele>2278.9400000000001</ele>
        <time>2013-09-11T08:29:01Z</time>
      </trkpt>
      <trkpt lat="42.448794431984425" lon="13.540407093241811">
        <ele>2274.6199999999999</ele>
        <time>2013-09-11T08:29:05Z</time>
      </trkpt>
      <trkpt lat="42.448795437812805" lon="13.540398878976703">
        <ele>2275.5799999999999</ele>
        <time>2013-09-11T08:29:06Z</time>
      </trkpt>
      <trkpt lat="42.448803232982755" lon="13.540369542315602">
        <ele>2271.73</ele>
        <time>2013-09-11T08:29:09Z</time>
      </trkpt>
      <trkpt lat="42.448803065344691" lon="13.540365351364017">
        <ele>2272.6900000000001</ele>
        <time>2013-09-11T08:29:10Z</time>
      </trkpt>
      <trkpt lat="42.448790827766061" lon="13.540349258109927">
        <ele>2274.1399999999999</ele>
        <time>2013-09-11T08:29:12Z</time>
      </trkpt>
      <trkpt lat="42.448785463348031" lon="13.540294524282217">
        <ele>2269.8099999999999</ele>
        <time>2013-09-11T08:29:20Z</time>
      </trkpt>
      <trkpt lat="42.448777165263891" lon="13.540294859558344">
        <ele>2270.77</ele>
        <time>2013-09-11T08:29:21Z</time>
      </trkpt>
      <trkpt lat="42.448769705370069" lon="13.540238784626126">
        <ele>2270.29</ele>
        <time>2013-09-11T08:29:30Z</time>
      </trkpt>
      <trkpt lat="42.448773309588432" lon="13.540230905637145">
        <ele>2273.6599999999999</ele>
        <time>2013-09-11T08:29:31Z</time>
      </trkpt>
      <trkpt lat="42.448751600459218" lon="13.540213136002421">
        <ele>2269.3299999999999</ele>
        <time>2013-09-11T08:29:38Z</time>
      </trkpt>
      <trkpt lat="42.448746738955379" lon="13.540210202336311">
        <ele>2277.5</ele>
        <time>2013-09-11T08:29:39Z</time>
      </trkpt>
      <trkpt lat="42.448741961270571" lon="13.540203915908933">
        <ele>2273.6599999999999</ele>
        <time>2013-09-11T08:29:40Z</time>
      </trkpt>
      <trkpt lat="42.448742464184761" lon="13.540192935615778">
        <ele>2268.3699999999999</ele>
        <time>2013-09-11T08:29:41Z</time>
      </trkpt>
      <trkpt lat="42.44874581694603" lon="13.540181200951338">
        <ele>2272.21</ele>
        <time>2013-09-11T08:29:42Z</time>
      </trkpt>
      <trkpt lat="42.448754282668233" lon="13.540165275335312">
        <ele>2275.5799999999999</ele>
        <time>2013-09-11T08:29:44Z</time>
      </trkpt>
      <trkpt lat="42.448759060353041" lon="13.540154881775379">
        <ele>2275.0999999999999</ele>
        <time>2013-09-11T08:29:45Z</time>
      </trkpt>
      <trkpt lat="42.448772974312305" lon="13.54012998752296">
        <ele>2273.6599999999999</ele>
        <time>2013-09-11T08:29:47Z</time>
      </trkpt>
      <trkpt lat="42.44877859018743" lon="13.540117833763361">
        <ele>2273.6599999999999</ele>
        <time>2013-09-11T08:29:48Z</time>
      </trkpt>
      <trkpt lat="42.448780434206128" lon="13.540083300322294">
        <ele>2266.9299999999998</ele>
        <time>2013-09-11T08:29:50Z</time>
      </trkpt>
      <trkpt lat="42.448778003454208" lon="13.540064943954349">
        <ele>2267.8899999999999</ele>
        <time>2013-09-11T08:29:51Z</time>
      </trkpt>
      <trkpt lat="42.448777835816145" lon="13.540054885670543">
        <ele>2271.73</ele>
        <time>2013-09-11T08:29:52Z</time>
      </trkpt>
      <trkpt lat="42.44878001511097" lon="13.540052874013782">
        <ele>2272.6900000000001</ele>
        <time>2013-09-11T08:29:54Z</time>
      </trkpt>
      <trkpt lat="42.448790324851871" lon="13.54007919318974">
        <ele>2271.73</ele>
        <time>2013-09-11T08:30:16Z</time>
      </trkpt>
      <trkpt lat="42.448791498318315" lon="13.540080282837152">
        <ele>2272.21</ele>
        <time>2013-09-11T08:30:30Z</time>
      </trkpt>
      <trkpt lat="42.448786720633507" lon="13.540075588971376">
        <ele>2267.4099999999999</ele>
        <time>2013-09-11T08:30:40Z</time>
      </trkpt>
      <trkpt lat="42.448766436427832" lon="13.540068464353681">
        <ele>2270.77</ele>
        <time>2013-09-11T08:30:44Z</time>
      </trkpt>
      <trkpt lat="42.448767023161054" lon="13.540064441040158">
        <ele>2270.29</ele>
        <time>2013-09-11T08:30:45Z</time>
      </trkpt>
      <trkpt lat="42.448781272396445" lon="13.540070140734315">
        <ele>2271.73</ele>
        <time>2013-09-11T08:31:02Z</time>
      </trkpt>
      <trkpt lat="42.448765011504292" lon="13.540079612284899">
        <ele>2269.3299999999999</ele>
        <time>2013-09-11T08:31:14Z</time>
      </trkpt>
      <trkpt lat="42.448765179142356" lon="13.540081791579723">
        <ele>2273.1700000000001</ele>
        <time>2013-09-11T08:31:19Z</time>
      </trkpt>
      <trkpt lat="42.44876048527658" lon="13.540084976702929">
        <ele>2272.21</ele>
        <time>2013-09-11T08:31:28Z</time>
      </trkpt>
      <trkpt lat="42.448763167485595" lon="13.540081037208438">
        <ele>2268.8499999999999</ele>
        <time>2013-09-11T08:31:35Z</time>
      </trkpt>
      <trkpt lat="42.448767861351371" lon="13.540078438818455">
        <ele>2274.1399999999999</ele>
        <time>2013-09-11T08:31:45Z</time>
      </trkpt>
      <trkpt lat="42.448769537732005" lon="13.540077852085233">
        <ele>2274.1399999999999</ele>
        <time>2013-09-11T08:31:46Z</time>
      </trkpt>
      <trkpt lat="42.448775488883257" lon="13.540084976702929">
        <ele>2274.1399999999999</ele>
        <time>2013-09-11T08:31:54Z</time>
      </trkpt>
      <trkpt lat="42.448769537732005" lon="13.540083048865199">
        <ele>2274.1399999999999</ele>
        <time>2013-09-11T08:32:09Z</time>
      </trkpt>
      <trkpt lat="42.448769370093942" lon="13.540077265352011">
        <ele>2272.6900000000001</ele>
        <time>2013-09-11T08:32:15Z</time>
      </trkpt>
      <trkpt lat="42.448762329295278" lon="13.540078606456518">
        <ele>2272.21</ele>
        <time>2013-09-11T08:32:41Z</time>
      </trkpt>
      <trkpt lat="42.448764927685261" lon="13.540083216503263">
        <ele>2272.6900000000001</ele>
        <time>2013-09-11T08:33:01Z</time>
      </trkpt>
      <trkpt lat="42.448766436427832" lon="13.540080618113279">
        <ele>2272.21</ele>
        <time>2013-09-11T08:33:17Z</time>
      </trkpt>
      <trkpt lat="42.448760150000453" lon="13.540073912590742">
        <ele>2272.21</ele>
        <time>2013-09-11T08:33:42Z</time>
      </trkpt>
      <trkpt lat="42.448758976534009" lon="13.540077013894916">
        <ele>2271.73</ele>
        <time>2013-09-11T08:34:06Z</time>
      </trkpt>
      <trkpt lat="42.448769537732005" lon="13.540080869570374">
        <ele>2272.21</ele>
        <time>2013-09-11T08:34:28Z</time>
      </trkpt>
      <trkpt lat="42.448771130293608" lon="13.540078354999423">
        <ele>2271.25</ele>
        <time>2013-09-11T08:34:46Z</time>
      </trkpt>
      <trkpt lat="42.448763083666563" lon="13.540075588971376">
        <ele>2270.29</ele>
        <time>2013-09-11T08:35:06Z</time>
      </trkpt>
      <trkpt lat="42.448763335123658" lon="13.540076343342662">
        <ele>2270.29</ele>
        <time>2013-09-11T08:35:07Z</time>
      </trkpt>
      <trkpt lat="42.448803652077913" lon="13.540093023329973">
        <ele>2269.8099999999999</ele>
        <time>2013-09-11T08:35:20Z</time>
      </trkpt>
      <trkpt lat="42.448889231309295" lon="13.540156055241823">
        <ele>2268.3699999999999</ele>
        <time>2013-09-11T08:35:35Z</time>
      </trkpt>
      <trkpt lat="42.448944384232163" lon="13.540193773806095">
        <ele>2266.4499999999998</ele>
        <time>2013-09-11T08:35:42Z</time>
      </trkpt>
      <trkpt lat="42.448983360081911" lon="13.540239538997412">
        <ele>2264.52</ele>
        <time>2013-09-11T08:35:46Z</time>
      </trkpt>
      <trkpt lat="42.449007919058204" lon="13.540288154035807">
        <ele>2261.6399999999999</ele>
        <time>2013-09-11T08:35:52Z</time>
      </trkpt>
      <trkpt lat="42.449025604873896" lon="13.540309276431799">
        <ele>2260.6799999999998</ele>
        <time>2013-09-11T08:36:02Z</time>
      </trkpt>
      <trkpt lat="42.449039937928319" lon="13.540318999439478">
        <ele>2259.2399999999998</ele>
        <time>2013-09-11T08:36:03Z</time>
      </trkpt>
      <trkpt lat="42.449097856879234" lon="13.540397034958005">
        <ele>2255.8699999999999</ele>
        <time>2013-09-11T08:36:09Z</time>
      </trkpt>
      <trkpt lat="42.449135910719633" lon="13.540424108505249">
        <ele>2253.9499999999998</ele>
        <time>2013-09-11T08:36:16Z</time>
      </trkpt>
      <trkpt lat="42.449205396696925" lon="13.54048571549356">
        <ele>2250.5799999999999</ele>
        <time>2013-09-11T08:36:26Z</time>
      </trkpt>
      <trkpt lat="42.4492774810642" lon="13.540539443492889">
        <ele>2247.2199999999998</ele>
        <time>2013-09-11T08:36:37Z</time>
      </trkpt>
      <trkpt lat="42.449340932071209" lon="13.54055562056601">
        <ele>2243.8499999999999</ele>
        <time>2013-09-11T08:36:48Z</time>
      </trkpt>
      <trkpt lat="42.449404634535313" lon="13.540555872023106">
        <ele>2241.4499999999998</ele>
        <time>2013-09-11T08:37:00Z</time>
      </trkpt>
      <trkpt lat="42.449411591514945" lon="13.540579425171018">
        <ele>2241.4499999999998</ele>
        <time>2013-09-11T08:37:16Z</time>
      </trkpt>
      <trkpt lat="42.449372950941324" lon="13.540573138743639">
        <ele>2242.4099999999999</ele>
        <time>2013-09-11T08:37:29Z</time>
      </trkpt>
      <trkpt lat="42.44931997731328" lon="13.540551345795393">
        <ele>2241.9299999999998</ele>
        <time>2013-09-11T08:37:48Z</time>
      </trkpt>
      <trkpt lat="42.449322324246168" lon="13.540514800697565">
        <ele>2242.4099999999999</ele>
        <time>2013-09-11T08:38:03Z</time>
      </trkpt>
      <trkpt lat="42.449375214055181" lon="13.540579089894891">
        <ele>2242.4099999999999</ele>
        <time>2013-09-11T08:38:29Z</time>
      </trkpt>
      <trkpt lat="42.449462469667196" lon="13.540602726861835">
        <ele>2239.5300000000002</ele>
        <time>2013-09-11T08:38:43Z</time>
      </trkpt>
      <trkpt lat="42.4494743719697" lon="13.540608175098896">
        <ele>2239.0500000000002</ele>
        <time>2013-09-11T08:38:44Z</time>
      </trkpt>
      <trkpt lat="42.449539331719279" lon="13.540657293051481">
        <ele>2237.1300000000001</ele>
        <time>2013-09-11T08:38:52Z</time>
      </trkpt>
      <trkpt lat="42.449645278975368" lon="13.540716217830777">
        <ele>2234.7199999999998</ele>
        <time>2013-09-11T08:39:07Z</time>
      </trkpt>
      <trkpt lat="42.44967226870358" lon="13.540725605562329">
        <ele>2233.2800000000002</ele>
        <time>2013-09-11T08:39:10Z</time>
      </trkpt>
      <trkpt lat="42.449723146855831" lon="13.540763491764665">
        <ele>2229.9200000000001</ele>
        <time>2013-09-11T08:39:20Z</time>
      </trkpt>
      <trkpt lat="42.449725074693561" lon="13.54075594805181">
        <ele>2231.3600000000001</ele>
        <time>2013-09-11T08:39:31Z</time>
      </trkpt>
      <trkpt lat="42.449837308377028" lon="13.540800288319588">
        <ele>2227.9899999999998</ele>
        <time>2013-09-11T08:39:39Z</time>
      </trkpt>
      <trkpt lat="42.449944596737623" lon="13.540817806497216">
        <ele>2226.0700000000002</ele>
        <time>2013-09-11T08:39:49Z</time>
      </trkpt>
      <trkpt lat="42.450067056342959" lon="13.540811184793711">
        <ele>2223.6700000000001</ele>
        <time>2013-09-11T08:40:05Z</time>
      </trkpt>
      <trkpt lat="42.450096812099218" lon="13.540815627202392">
        <ele>2221.7399999999998</ele>
        <time>2013-09-11T08:40:18Z</time>
      </trkpt>
      <trkpt lat="42.450091699138284" lon="13.540821326896548">
        <ele>2221.2600000000002</ele>
        <time>2013-09-11T08:40:35Z</time>
      </trkpt>
      <trkpt lat="42.450112989172339" lon="13.540828619152308">
        <ele>2219.8200000000002</ele>
        <time>2013-09-11T08:40:54Z</time>
      </trkpt>
      <trkpt lat="42.450118102133274" lon="13.540833480656147">
        <ele>2219.3400000000001</ele>
        <time>2013-09-11T08:41:12Z</time>
      </trkpt>
      <trkpt lat="42.450140062719584" lon="13.54083264246583">
        <ele>2220.3000000000002</ele>
        <time>2013-09-11T08:41:38Z</time>
      </trkpt>
      <trkpt lat="42.450164202600718" lon="13.54081797413528">
        <ele>2219.3400000000001</ele>
        <time>2013-09-11T08:41:52Z</time>
      </trkpt>
      <trkpt lat="42.450189348310232" lon="13.540802216157317">
        <ele>2217.9000000000001</ele>
        <time>2013-09-11T08:41:55Z</time>
      </trkpt>
      <trkpt lat="42.450231593102217" lon="13.540807580575347">
        <ele>2216.46</ele>
        <time>2013-09-11T08:41:59Z</time>
      </trkpt>
      <trkpt lat="42.450269730761647" lon="13.540819818153977">
        <ele>2213.0900000000001</ele>
        <time>2013-09-11T08:42:07Z</time>
      </trkpt>
      <trkpt lat="42.450278783217072" lon="13.540820656344295">
        <ele>2213.5700000000002</ele>
        <time>2013-09-11T08:42:08Z</time>
      </trkpt>
      <trkpt lat="42.450377941131592" lon="13.540829373523593">
        <ele>2211.6500000000001</ele>
        <time>2013-09-11T08:42:16Z</time>
      </trkpt>
      <trkpt lat="42.450448265299201" lon="13.540857369080186">
        <ele>2210.6900000000001</ele>
        <time>2013-09-11T08:42:23Z</time>
      </trkpt>
      <trkpt lat="42.450473913922906" lon="13.540850831195712">
        <ele>2209.73</ele>
        <time>2013-09-11T08:42:25Z</time>
      </trkpt>
      <trkpt lat="42.450496461242437" lon="13.540838593617082">
        <ele>2208.77</ele>
        <time>2013-09-11T08:42:27Z</time>
      </trkpt>
      <trkpt lat="42.45051272213459" lon="13.540842197835445">
        <ele>2208.29</ele>
        <time>2013-09-11T08:42:29Z</time>
      </trkpt>
      <trkpt lat="42.450527977198362" lon="13.540850915014744">
        <ele>2206.8400000000001</ele>
        <time>2013-09-11T08:42:33Z</time>
      </trkpt>
      <trkpt lat="42.450567120686173" lon="13.540854267776012">
        <ele>2206.3600000000001</ele>
        <time>2013-09-11T08:42:37Z</time>
      </trkpt>
      <trkpt lat="42.450592601671815" lon="13.540859129279852">
        <ele>2203.48</ele>
        <time>2013-09-11T08:42:40Z</time>
      </trkpt>
      <trkpt lat="42.450727466493845" lon="13.540820656344295">
        <ele>2200.1100000000001</ele>
        <time>2013-09-11T08:42:53Z</time>
      </trkpt>
      <trkpt lat="42.450860235840082" lon="13.540721498429775">
        <ele>2197.23</ele>
        <time>2013-09-11T08:43:09Z</time>
      </trkpt>
      <trkpt lat="42.450868282467127" lon="13.540716301649809">
        <ele>2196.75</ele>
        <time>2013-09-11T08:43:10Z</time>
      </trkpt>
      <trkpt lat="42.450919663533568" lon="13.540679924190044">
        <ele>2194.3499999999999</ele>
        <time>2013-09-11T08:43:17Z</time>
      </trkpt>
      <trkpt lat="42.451051091775298" lon="13.540657125413418">
        <ele>2190.98</ele>
        <time>2013-09-11T08:43:33Z</time>
      </trkpt>
      <trkpt lat="42.451102556660771" lon="13.54066601023078">
        <ele>2187.6199999999999</ele>
        <time>2013-09-11T08:43:40Z</time>
      </trkpt>
      <trkpt lat="42.451189560815692" lon="13.540625358000398">
        <ele>2185.21</ele>
        <time>2013-09-11T08:43:51Z</time>
      </trkpt>
      <trkpt lat="42.451287880539894" lon="13.540596859529614">
        <ele>2183.29</ele>
        <time>2013-09-11T08:44:03Z</time>
      </trkpt>
      <trkpt lat="42.451326102018356" lon="13.540594596415758">
        <ele>2181.3699999999999</ele>
        <time>2013-09-11T08:44:08Z</time>
      </trkpt>
      <trkpt lat="42.451407741755247" lon="13.54059124365449">
        <ele>2180.4099999999999</ele>
        <time>2013-09-11T08:44:19Z</time>
      </trkpt>
      <trkpt lat="42.451410843059421" lon="13.540585627779365">
        <ele>2179.4499999999998</ele>
        <time>2013-09-11T08:44:40Z</time>
      </trkpt>
      <trkpt lat="42.451403215527534" lon="13.540579676628113">
        <ele>2181.8499999999999</ele>
        <time>2013-09-11T08:44:59Z</time>
      </trkpt>
      <trkpt lat="42.451428361237049" lon="13.540597446262836">
        <ele>2181.8499999999999</ele>
        <time>2013-09-11T08:45:13Z</time>
      </trkpt>
      <trkpt lat="42.451446214690804" lon="13.540594428777695">
        <ele>2180.8899999999999</ele>
        <time>2013-09-11T08:45:15Z</time>
      </trkpt>
      <trkpt lat="42.451466163620353" lon="13.540584873408079">
        <ele>2181.8499999999999</ele>
        <time>2013-09-11T08:45:18Z</time>
      </trkpt>
      <trkpt lat="42.451488375663757" lon="13.540585627779365">
        <ele>2180.4099999999999</ele>
        <time>2013-09-11T08:45:21Z</time>
      </trkpt>
      <trkpt lat="42.451566997915506" lon="13.540572384372354">
        <ele>2178.9699999999998</ele>
        <time>2013-09-11T08:45:27Z</time>
      </trkpt>
      <trkpt lat="42.451663389801979" lon="13.540562409907579">
        <ele>2177.04</ele>
        <time>2013-09-11T08:45:36Z</time>
      </trkpt>
      <trkpt lat="42.451694402843714" lon="13.540561152622104">
        <ele>2175.5999999999999</ele>
        <time>2013-09-11T08:45:39Z</time>
      </trkpt>
      <trkpt lat="42.451775372028351" lon="13.540599122643471">
        <ele>2175.1199999999999</ele>
        <time>2013-09-11T08:45:51Z</time>
      </trkpt>
      <trkpt lat="42.451792638748884" lon="13.540609683841467">
        <ele>2174.6399999999999</ele>
        <time>2013-09-11T08:45:53Z</time>
      </trkpt>
      <trkpt lat="42.451956002041698" lon="13.540708087384701">
        <ele>2172.7199999999998</ele>
        <time>2013-09-11T08:46:10Z</time>
      </trkpt>
      <trkpt lat="42.452001012861729" lon="13.540729461237788">
        <ele>2170.79</ele>
        <time>2013-09-11T08:46:17Z</time>
      </trkpt>
      <trkpt lat="42.452011406421661" lon="13.540730467066169">
        <ele>2170.79</ele>
        <time>2013-09-11T08:46:18Z</time>
      </trkpt>
      <trkpt lat="42.452027164399624" lon="13.540742201730609">
        <ele>2172.7199999999998</ele>
        <time>2013-09-11T08:46:22Z</time>
      </trkpt>
      <trkpt lat="42.452028756961226" lon="13.540738429874182">
        <ele>2172.7199999999998</ele>
        <time>2013-09-11T08:46:23Z</time>
      </trkpt>
      <trkpt lat="42.452103942632675" lon="13.540768940001726">
        <ele>2168.3899999999999</ele>
        <time>2013-09-11T08:46:30Z</time>
      </trkpt>
      <trkpt lat="42.452116599306464" lon="13.540775561705232">
        <ele>2168.3899999999999</ele>
        <time>2013-09-11T08:46:31Z</time>
      </trkpt>
      <trkpt lat="42.452250123023987" lon="13.540936829522252">
        <ele>2169.3499999999999</ele>
        <time>2013-09-11T08:46:47Z</time>
      </trkpt>
      <trkpt lat="42.452322542667389" lon="13.541055098176003">
        <ele>2169.8299999999999</ele>
        <time>2013-09-11T08:46:58Z</time>
      </trkpt>
      <trkpt lat="42.452379036694765" lon="13.541224412620068">
        <ele>2170.3099999999999</ele>
        <time>2013-09-11T08:47:13Z</time>
      </trkpt>
      <trkpt lat="42.452437961474061" lon="13.541328851133585">
        <ele>2167.4299999999998</ele>
        <time>2013-09-11T08:47:26Z</time>
      </trkpt>
      <trkpt lat="42.452472914010286" lon="13.541379058733582">
        <ele>2166.4699999999998</ele>
        <time>2013-09-11T08:47:33Z</time>
      </trkpt>
      <trkpt lat="42.452543405815959" lon="13.541412334889174">
        <ele>2164.0599999999999</ele>
        <time>2013-09-11T08:47:41Z</time>
      </trkpt>
      <trkpt lat="42.452560756355524" lon="13.541462542489171">
        <ele>2162.1399999999999</ele>
        <time>2013-09-11T08:47:45Z</time>
      </trkpt>
      <trkpt lat="42.452603504061699" lon="13.541472852230072">
        <ele>2161.1799999999998</ele>
        <time>2013-09-11T08:47:49Z</time>
      </trkpt>
      <trkpt lat="42.452687742188573" lon="13.54153772816062">
        <ele>2157.8200000000002</ele>
        <time>2013-09-11T08:48:01Z</time>
      </trkpt>
      <trkpt lat="42.452695285901427" lon="13.541560443118215">
        <ele>2157.3400000000001</ele>
        <time>2013-09-11T08:48:03Z</time>
      </trkpt>
      <trkpt lat="42.452719761058688" lon="13.541591791436076">
        <ele>2155.4099999999999</ele>
        <time>2013-09-11T08:48:07Z</time>
      </trkpt>
      <trkpt lat="42.452805675566196" lon="13.541679885238409">
        <ele>2153.0100000000002</ele>
        <time>2013-09-11T08:48:18Z</time>
      </trkpt>
      <trkpt lat="42.452900558710098" lon="13.54179035872221">
        <ele>2153.9699999999998</ele>
        <time>2013-09-11T08:48:32Z</time>
      </trkpt>
      <trkpt lat="42.452978007495403" lon="13.541839392855763">
        <ele>2152.0500000000002</ele>
        <time>2013-09-11T08:48:45Z</time>
      </trkpt>
      <trkpt lat="42.453013379126787" lon="13.541877111420035">
        <ele>2150.1300000000001</ele>
        <time>2013-09-11T08:48:56Z</time>
      </trkpt>
      <trkpt lat="42.453071968629956" lon="13.541921451687813">
        <ele>2146.7600000000002</ele>
        <time>2013-09-11T08:49:06Z</time>
      </trkpt>
      <trkpt lat="42.453078087419271" lon="13.541927905753255">
        <ele>2146.2800000000002</ele>
        <time>2013-09-11T08:49:07Z</time>
      </trkpt>
      <trkpt lat="42.453133994713426" lon="13.541998481377959">
        <ele>2147.2399999999998</ele>
        <time>2013-09-11T08:49:18Z</time>
      </trkpt>
      <trkpt lat="42.453159810975194" lon="13.542039971798658">
        <ele>2149.6500000000001</ele>
        <time>2013-09-11T08:49:25Z</time>
      </trkpt>
      <trkpt lat="42.45317380875349" lon="13.542038211598992">
        <ele>2150.6100000000001</ele>
        <time>2013-09-11T08:49:42Z</time>
      </trkpt>
      <trkpt lat="42.453243881464005" lon="13.542098896577954">
        <ele>2151.5700000000002</ele>
        <time>2013-09-11T08:49:54Z</time>
      </trkpt>
      <trkpt lat="42.453321916982532" lon="13.542091017588973">
        <ele>2153.0100000000002</ele>
        <time>2013-09-11T08:50:06Z</time>
      </trkpt>
      <trkpt lat="42.453352846205235" lon="13.542079869657755">
        <ele>2154.4499999999998</ele>
        <time>2013-09-11T08:50:10Z</time>
      </trkpt>
      <trkpt lat="42.453382685780525" lon="13.542080707848072">
        <ele>2155.4099999999999</ele>
        <time>2013-09-11T08:50:13Z</time>
      </trkpt>
      <trkpt lat="42.453495841473341" lon="13.542122868821025">
        <ele>2155.8899999999999</ele>
        <time>2013-09-11T08:50:27Z</time>
      </trkpt>
      <trkpt lat="42.453624252229929" lon="13.54215094819665">
        <ele>2155.4099999999999</ele>
        <time>2013-09-11T08:50:45Z</time>
      </trkpt>
      <trkpt lat="42.453725254163146" lon="13.542172405868769">
        <ele>2155.4099999999999</ele>
        <time>2013-09-11T08:51:05Z</time>
      </trkpt>
      <trkpt lat="42.45385249145329" lon="13.542167041450739">
        <ele>2158.7800000000002</ele>
        <time>2013-09-11T08:51:18Z</time>
      </trkpt>
      <trkpt lat="42.453864058479667" lon="13.542168298736215">
        <ele>2158.7800000000002</ele>
        <time>2013-09-11T08:51:19Z</time>
      </trkpt>
      <trkpt lat="42.453881911933422" lon="13.542196378111839">
        <ele>2158.3000000000002</ele>
        <time>2013-09-11T08:51:34Z</time>
      </trkpt>
      <trkpt lat="42.453872440382838" lon="13.542223870754242">
        <ele>2161.1799999999998</ele>
        <time>2013-09-11T08:51:41Z</time>
      </trkpt>
      <trkpt lat="42.453884510323405" lon="13.542258152738214">
        <ele>2159.2600000000002</ele>
        <time>2013-09-11T08:51:45Z</time>
      </trkpt>
      <trkpt lat="42.453892473131418" lon="13.542304169386625">
        <ele>2158.7800000000002</ele>
        <time>2013-09-11T08:51:49Z</time>
      </trkpt>
      <trkpt lat="42.45390429161489" lon="13.542340043932199">
        <ele>2161.1799999999998</ele>
        <time>2013-09-11T08:51:52Z</time>
      </trkpt>
      <trkpt lat="42.453896664083004" lon="13.542387066408992">
        <ele>2161.6599999999999</ele>
        <time>2013-09-11T08:51:56Z</time>
      </trkpt>
      <trkpt lat="42.453909404575825" lon="13.54242897592485">
        <ele>2159.2600000000002</ele>
        <time>2013-09-11T08:51:59Z</time>
      </trkpt>
      <trkpt lat="42.453909739851952" lon="13.542442973703146">
        <ele>2163.0999999999999</ele>
        <time>2013-09-11T08:52:01Z</time>
      </trkpt>
      <trkpt lat="42.453924492001534" lon="13.542450852692127">
        <ele>2157.3400000000001</ele>
        <time>2013-09-11T08:52:03Z</time>
      </trkpt>
      <trkpt lat="42.453953828662634" lon="13.542474322021008">
        <ele>2157.8200000000002</ele>
        <time>2013-09-11T08:52:07Z</time>
      </trkpt>
      <trkpt lat="42.453994229435921" lon="13.542548753321171">
        <ele>2157.8200000000002</ele>
        <time>2013-09-11T08:52:15Z</time>
      </trkpt>
      <trkpt lat="42.454042844474316" lon="13.542595356702805">
        <ele>2153.9699999999998</ele>
        <time>2013-09-11T08:52:22Z</time>
      </trkpt>
      <trkpt lat="42.454113168641925" lon="13.542601224035025">
        <ele>2150.1300000000001</ele>
        <time>2013-09-11T08:52:32Z</time>
      </trkpt>
      <trkpt lat="42.454122388735414" lon="13.542596530169249">
        <ele>2150.1300000000001</ele>
        <time>2013-09-11T08:52:33Z</time>
      </trkpt>
      <trkpt lat="42.454130854457617" lon="13.542587142437696">
        <ele>2146.7600000000002</ele>
        <time>2013-09-11T08:52:35Z</time>
      </trkpt>
      <trkpt lat="42.454144014045596" lon="13.542591333389282">
        <ele>2149.6500000000001</ele>
        <time>2013-09-11T08:52:37Z</time>
      </trkpt>
      <trkpt lat="42.454163208603859" lon="13.542616562917829">
        <ele>2147.7199999999998</ele>
        <time>2013-09-11T08:52:40Z</time>
      </trkpt>
      <trkpt lat="42.454193215817213" lon="13.542601894587278">
        <ele>2145.8000000000002</ele>
        <time>2013-09-11T08:52:45Z</time>
      </trkpt>
      <trkpt lat="42.454207967966795" lon="13.542620586231351">
        <ele>2145.3200000000002</ele>
        <time>2013-09-11T08:52:47Z</time>
      </trkpt>
      <trkpt lat="42.454235125333071" lon="13.542656963691115">
        <ele>2143.4000000000001</ele>
        <time>2013-09-11T08:52:51Z</time>
      </trkpt>
      <trkpt lat="42.454268150031567" lon="13.542736591771245">
        <ele>2141.4699999999998</ele>
        <time>2013-09-11T08:53:03Z</time>
      </trkpt>
      <trkpt lat="42.454276867210865" lon="13.542754529044032">
        <ele>2140.9899999999998</ele>
        <time>2013-09-11T08:53:06Z</time>
      </trkpt>
      <trkpt lat="42.454294469207525" lon="13.542764000594616">
        <ele>2140.5100000000002</ele>
        <time>2013-09-11T08:53:09Z</time>
      </trkpt>
      <trkpt lat="42.454300336539745" lon="13.542774980887771">
        <ele>2140.5100000000002</ele>
        <time>2013-09-11T08:53:20Z</time>
      </trkpt>
      <trkpt lat="42.454307209700346" lon="13.542786547914147">
        <ele>2137.1500000000001</ele>
        <time>2013-09-11T08:53:35Z</time>
      </trkpt>
      <trkpt lat="42.454312657937407" lon="13.542797779664397">
        <ele>2137.1500000000001</ele>
        <time>2013-09-11T08:53:36Z</time>
      </trkpt>
      <trkpt lat="42.45437728241086" lon="13.542922670021653">
        <ele>2133.7800000000002</ele>
        <time>2013-09-11T08:53:48Z</time>
      </trkpt>
      <trkpt lat="42.454396393150091" lon="13.542963154613972">
        <ele>2130.9000000000001</ele>
        <time>2013-09-11T08:53:53Z</time>
      </trkpt>
      <trkpt lat="42.454412570223212" lon="13.54296600446105">
        <ele>2129.46</ele>
        <time>2013-09-11T08:53:55Z</time>
      </trkpt>
      <trkpt lat="42.454432602971792" lon="13.542983941733837">
        <ele>2129.9400000000001</ele>
        <time>2013-09-11T08:53:59Z</time>
      </trkpt>
      <trkpt lat="42.454426903277636" lon="13.542958041653037">
        <ele>2132.8200000000002</ele>
        <time>2013-09-11T08:54:02Z</time>
      </trkpt>
      <trkpt lat="42.454429501667619" lon="13.542969860136509">
        <ele>2130.4200000000001</ele>
        <time>2013-09-11T08:54:05Z</time>
      </trkpt>
      <trkpt lat="42.454424723982811" lon="13.542953934520483">
        <ele>2131.8600000000001</ele>
        <time>2013-09-11T08:54:07Z</time>
      </trkpt>
      <trkpt lat="42.454416928812861" lon="13.543002465739846">
        <ele>2129.9400000000001</ele>
        <time>2013-09-11T08:54:20Z</time>
      </trkpt>
      <trkpt lat="42.454477362334728" lon="13.543148646131158">
        <ele>2126.5700000000002</ele>
        <time>2013-09-11T08:54:36Z</time>
      </trkpt>
      <trkpt lat="42.454493539407849" lon="13.543300107121468">
        <ele>2124.1700000000001</ele>
        <time>2013-09-11T08:54:50Z</time>
      </trkpt>
      <trkpt lat="42.45449798181653" lon="13.543334305286407">
        <ele>2122.73</ele>
        <time>2013-09-11T08:54:52Z</time>
      </trkpt>
      <trkpt lat="42.454486498609185" lon="13.54336372576654">
        <ele>2121.29</ele>
        <time>2013-09-11T08:54:55Z</time>
      </trkpt>
      <trkpt lat="42.454430339857936" lon="13.543406641110778">
        <ele>2120.8099999999999</ele>
        <time>2013-09-11T08:55:08Z</time>
      </trkpt>
      <trkpt lat="42.454438637942076" lon="13.543432708829641">
        <ele>2121.77</ele>
        <time>2013-09-11T08:55:27Z</time>
      </trkpt>
      <trkpt lat="42.454441068693995" lon="13.543458105996251">
        <ele>2123.6900000000001</ele>
        <time>2013-09-11T08:55:30Z</time>
      </trkpt>
      <trkpt lat="42.454450959339738" lon="13.543556844815612">
        <ele>2120.8099999999999</ele>
        <time>2013-09-11T08:55:36Z</time>
      </trkpt>
      <trkpt lat="42.454459927976131" lon="13.54359682649374">
        <ele>2118.8800000000001</ele>
        <time>2013-09-11T08:55:40Z</time>
      </trkpt>
      <trkpt lat="42.454463113099337" lon="13.54362465441227">
        <ele>2117.4400000000001</ele>
        <time>2013-09-11T08:55:42Z</time>
      </trkpt>
      <trkpt lat="42.454476188868284" lon="13.543654577806592">
        <ele>2116.48</ele>
        <time>2013-09-11T08:55:44Z</time>
      </trkpt>
      <trkpt lat="42.454477529972792" lon="13.543667318299413">
        <ele>2116</ele>
        <time>2013-09-11T08:55:45Z</time>
      </trkpt>
      <trkpt lat="42.454491443932056" lon="13.543731523677707">
        <ele>2114.0799999999999</ele>
        <time>2013-09-11T08:55:49Z</time>
      </trkpt>
      <trkpt lat="42.454496892169118" lon="13.543809894472361">
        <ele>2110.23</ele>
        <time>2013-09-11T08:55:54Z</time>
      </trkpt>
      <trkpt lat="42.454507788643241" lon="13.543900502845645">
        <ele>2107.3499999999999</ele>
        <time>2013-09-11T08:56:00Z</time>
      </trkpt>
      <trkpt lat="42.454502759501338" lon="13.54397208429873">
        <ele>2105.9099999999999</ele>
        <time>2013-09-11T08:56:04Z</time>
      </trkpt>
      <trkpt lat="42.454449785873294" lon="13.544097561389208">
        <ele>2101.5799999999999</ele>
        <time>2013-09-11T08:56:14Z</time>
      </trkpt>
      <trkpt lat="42.454447187483311" lon="13.544162269681692">
        <ele>2100.6199999999999</ele>
        <time>2013-09-11T08:56:18Z</time>
      </trkpt>
      <trkpt lat="42.454448444768786" lon="13.544253632426262">
        <ele>2099.1799999999998</ele>
        <time>2013-09-11T08:56:30Z</time>
      </trkpt>
      <trkpt lat="42.454456994310021" lon="13.544298727065325">
        <ele>2095.8099999999999</ele>
        <time>2013-09-11T08:56:35Z</time>
      </trkpt>
      <trkpt lat="42.454450959339738" lon="13.544380031526089">
        <ele>2094.8499999999999</ele>
        <time>2013-09-11T08:56:46Z</time>
      </trkpt>
      <trkpt lat="42.454454563558102" lon="13.544450104236603">
        <ele>2094.3699999999999</ele>
        <time>2013-09-11T08:56:54Z</time>
      </trkpt>
      <trkpt lat="42.454505357891321" lon="13.544512717053294">
        <ele>2091.4899999999998</ele>
        <time>2013-09-11T08:57:05Z</time>
      </trkpt>
      <trkpt lat="42.454495215788484" lon="13.544566109776497">
        <ele>2091</ele>
        <time>2013-09-11T08:57:09Z</time>
      </trkpt>
      <trkpt lat="42.454469231888652" lon="13.544771298766136">
        <ele>2090.52</ele>
        <time>2013-09-11T08:57:26Z</time>
      </trkpt>
      <trkpt lat="42.454460514709353" lon="13.544773478060961">
        <ele>2089.5599999999999</ele>
        <time>2013-09-11T08:57:41Z</time>
      </trkpt>
      <trkpt lat="42.454458670690656" lon="13.544786302372813">
        <ele>2091</ele>
        <time>2013-09-11T08:57:49Z</time>
      </trkpt>
      <trkpt lat="42.454459173604846" lon="13.544789319857955">
        <ele>2094.3699999999999</ele>
        <time>2013-09-11T08:57:59Z</time>
      </trkpt>
      <trkpt lat="42.454460598528385" lon="13.544795522466302">
        <ele>2093.8899999999999</ele>
        <time>2013-09-11T08:58:14Z</time>
      </trkpt>
      <trkpt lat="42.454442828893661" lon="13.544781105592847">
        <ele>2095.8099999999999</ele>
        <time>2013-09-11T08:58:27Z</time>
      </trkpt>
      <trkpt lat="42.4544632807374" lon="13.544792672619224">
        <ele>2098.21</ele>
        <time>2013-09-11T08:58:36Z</time>
      </trkpt>
      <trkpt lat="42.454469986259937" lon="13.544803569093347">
        <ele>2094.3699999999999</ele>
        <time>2013-09-11T08:58:39Z</time>
      </trkpt>
      <trkpt lat="42.454468226060271" lon="13.544799294322729">
        <ele>2093.4099999999999</ele>
        <time>2013-09-11T08:58:41Z</time>
      </trkpt>
      <trkpt lat="42.454476607963443" lon="13.544775489717722">
        <ele>2092.4499999999998</ele>
        <time>2013-09-11T08:58:54Z</time>
      </trkpt>
      <trkpt lat="42.454477697610855" lon="13.544792169705033">
        <ele>2092.4499999999998</ele>
        <time>2013-09-11T08:58:57Z</time>
      </trkpt>
      <trkpt lat="42.454452887177467" lon="13.544888310134411">
        <ele>2094.3699999999999</ele>
        <time>2013-09-11T08:59:03Z</time>
      </trkpt>
      <trkpt lat="42.454447941854596" lon="13.544899290427566">
        <ele>2094.3699999999999</ele>
        <time>2013-09-11T08:59:04Z</time>
      </trkpt>
      <trkpt lat="42.454405948519707" lon="13.544976823031902">
        <ele>2090.04</ele>
        <time>2013-09-11T08:59:19Z</time>
      </trkpt>
      <trkpt lat="42.454366637393832" lon="13.545077573508024">
        <ele>2091.9699999999998</ele>
        <time>2013-09-11T08:59:33Z</time>
      </trkpt>
      <trkpt lat="42.454359764233232" lon="13.545092158019543">
        <ele>2091.4899999999998</ele>
        <time>2013-09-11T08:59:34Z</time>
      </trkpt>
      <trkpt lat="42.454383987933397" lon="13.545125350356102">
        <ele>2091</ele>
        <time>2013-09-11T08:59:38Z</time>
      </trkpt>
      <trkpt lat="42.454526228830218" lon="13.545198440551758">
        <ele>2090.04</ele>
        <time>2013-09-11T08:59:53Z</time>
      </trkpt>
      <trkpt lat="42.454521534964442" lon="13.545218054205179">
        <ele>2090.52</ele>
        <time>2013-09-11T08:59:55Z</time>
      </trkpt>
      <trkpt lat="42.454524300992489" lon="13.545285277068615">
        <ele>2091</ele>
        <time>2013-09-11T09:00:00Z</time>
      </trkpt>
      <trkpt lat="42.454585405066609" lon="13.545370101928711">
        <ele>2091</ele>
        <time>2013-09-11T09:00:11Z</time>
      </trkpt>
      <trkpt lat="42.454736614599824" lon="13.545369012281299">
        <ele>2091.4899999999998</ele>
        <time>2013-09-11T09:00:25Z</time>
      </trkpt>
      <trkpt lat="42.454794952645898" lon="13.545395331457257">
        <ele>2090.04</ele>
        <time>2013-09-11T09:00:31Z</time>
      </trkpt>
      <trkpt lat="42.454844992607832" lon="13.545443611219525">
        <ele>2089.5599999999999</ele>
        <time>2013-09-11T09:00:36Z</time>
      </trkpt>
      <trkpt lat="42.454928392544389" lon="13.545465404167771">
        <ele>2091</ele>
        <time>2013-09-11T09:00:44Z</time>
      </trkpt>
      <trkpt lat="42.455001650378108" lon="13.545443946495652">
        <ele>2094.3699999999999</ele>
        <time>2013-09-11T09:00:51Z</time>
      </trkpt>
      <trkpt lat="42.455101311206818" lon="13.54539449326694">
        <ele>2097.25</ele>
        <time>2013-09-11T09:01:02Z</time>
      </trkpt>
      <trkpt lat="42.455124780535698" lon="13.545374125242233">
        <ele>2097.73</ele>
        <time>2013-09-11T09:01:04Z</time>
      </trkpt>
      <trkpt lat="42.45515713468194" lon="13.545349985361099">
        <ele>2099.6599999999999</ele>
        <time>2013-09-11T09:01:07Z</time>
      </trkpt>
      <trkpt lat="42.455191584303975" lon="13.545335819944739">
        <ele>2096.29</ele>
        <time>2013-09-11T09:01:10Z</time>
      </trkpt>
      <trkpt lat="42.455201977863908" lon="13.545334143564105">
        <ele>2096.77</ele>
        <time>2013-09-11T09:01:11Z</time>
      </trkpt>
      <trkpt lat="42.455281941220164" lon="13.545306148007512">
        <ele>2093.4099999999999</ele>
        <time>2013-09-11T09:01:18Z</time>
      </trkpt>
      <trkpt lat="42.455296358093619" lon="13.545306399464607">
        <ele>2093.4099999999999</ele>
        <time>2013-09-11T09:01:19Z</time>
      </trkpt>
      <trkpt lat="42.455358803272247" lon="13.54531486518681">
        <ele>2090.52</ele>
        <time>2013-09-11T09:01:25Z</time>
      </trkpt>
      <trkpt lat="42.455390905961394" lon="13.545299023389816">
        <ele>2088.1199999999999</ele>
        <time>2013-09-11T09:01:28Z</time>
      </trkpt>
      <trkpt lat="42.455473970621824" lon="13.545253928750753">
        <ele>2086.1999999999998</ele>
        <time>2013-09-11T09:01:35Z</time>
      </trkpt>
      <trkpt lat="42.455629454925656" lon="13.54527622461319">
        <ele>2082.8299999999999</ele>
        <time>2013-09-11T09:01:48Z</time>
      </trkpt>
      <trkpt lat="42.455642698332667" lon="13.545285360887647">
        <ele>2082.8299999999999</ele>
        <time>2013-09-11T09:01:49Z</time>
      </trkpt>
      <trkpt lat="42.455702628940344" lon="13.545291479676962">
        <ele>2082.8299999999999</ele>
        <time>2013-09-11T09:02:02Z</time>
      </trkpt>
      <trkpt lat="42.455710088834167" lon="13.545287204906344">
        <ele>2084.2800000000002</ele>
        <time>2013-09-11T09:02:06Z</time>
      </trkpt>
      <trkpt lat="42.455753590911627" lon="13.545270776376128">
        <ele>2087.1599999999999</ele>
        <time>2013-09-11T09:02:19Z</time>
      </trkpt>
      <trkpt lat="42.455809833481908" lon="13.545284187421203">
        <ele>2087.1599999999999</ele>
        <time>2013-09-11T09:02:30Z</time>
      </trkpt>
      <trkpt lat="42.455911170691252" lon="13.545343279838562">
        <ele>2087.6399999999999</ele>
        <time>2013-09-11T09:02:38Z</time>
      </trkpt>
      <trkpt lat="42.456021225079894" lon="13.545466158539057">
        <ele>2087.6399999999999</ele>
        <time>2013-09-11T09:02:51Z</time>
      </trkpt>
      <trkpt lat="42.456043101847172" lon="13.545466996729374">
        <ele>2088.1199999999999</ele>
        <time>2013-09-11T09:02:53Z</time>
      </trkpt>
      <trkpt lat="42.456084424629807" lon="13.545436151325703">
        <ele>2090.04</ele>
        <time>2013-09-11T09:02:58Z</time>
      </trkpt>
      <trkpt lat="42.45623211376369" lon="13.545388877391815">
        <ele>2091.4899999999998</ele>
        <time>2013-09-11T09:03:13Z</time>
      </trkpt>
      <trkpt lat="42.45624284259975" lon="13.545393822714686">
        <ele>2091.4899999999998</ele>
        <time>2013-09-11T09:03:18Z</time>
      </trkpt>
      <trkpt lat="42.456312999129295" lon="13.545352667570114">
        <ele>2093.4099999999999</ele>
        <time>2013-09-11T09:03:25Z</time>
      </trkpt>
      <trkpt lat="42.456407966092229" lon="13.545295083895326">
        <ele>2095.3299999999999</ele>
        <time>2013-09-11T09:03:36Z</time>
      </trkpt>
      <trkpt lat="42.456537885591388" lon="13.545279912650585">
        <ele>2097.73</ele>
        <time>2013-09-11T09:03:49Z</time>
      </trkpt>
      <trkpt lat="42.456640563905239" lon="13.545242613181472">
        <ele>2099.6599999999999</ele>
        <time>2013-09-11T09:04:01Z</time>
      </trkpt>
      <trkpt lat="42.456680545583367" lon="13.545236745849252">
        <ele>2102.0599999999999</ele>
        <time>2013-09-11T09:04:06Z</time>
      </trkpt>
      <trkpt lat="42.456729160621762" lon="13.545300699770451">
        <ele>2099.6599999999999</ele>
        <time>2013-09-11T09:04:16Z</time>
      </trkpt>
      <trkpt lat="42.456733519211411" lon="13.545315032824874">
        <ele>2101.0999999999999</ele>
        <time>2013-09-11T09:04:18Z</time>
      </trkpt>
      <trkpt lat="42.456731591373682" lon="13.545373203232884">
        <ele>2100.6199999999999</ele>
        <time>2013-09-11T09:04:23Z</time>
      </trkpt>
      <trkpt lat="42.456743577495217" lon="13.545529022812843">
        <ele>2101.0999999999999</ele>
        <time>2013-09-11T09:04:35Z</time>
      </trkpt>
      <trkpt lat="42.456811303272843" lon="13.545613596215844">
        <ele>2102.54</ele>
        <time>2013-09-11T09:04:49Z</time>
      </trkpt>
      <trkpt lat="42.45685170404613" lon="13.545722980052233">
        <ele>2102.0599999999999</ele>
        <time>2013-09-11T09:04:58Z</time>
      </trkpt>
      <trkpt lat="42.456873413175344" lon="13.545758686959743">
        <ele>2102.0599999999999</ele>
        <time>2013-09-11T09:05:01Z</time>
      </trkpt>
      <trkpt lat="42.456924207508564" lon="13.545910147950053">
        <ele>2102.54</ele>
        <time>2013-09-11T09:05:17Z</time>
      </trkpt>
      <trkpt lat="42.456933343783021" lon="13.546119276434183">
        <ele>2103.5</ele>
        <time>2013-09-11T09:05:34Z</time>
      </trkpt>
      <trkpt lat="42.456950526684523" lon="13.546253219246864">
        <ele>2105.4200000000001</ele>
        <time>2013-09-11T09:05:49Z</time>
      </trkpt>
      <trkpt lat="42.457027221098542" lon="13.546394538134336">
        <ele>2107.8299999999999</ele>
        <time>2013-09-11T09:06:03Z</time>
      </trkpt>
      <trkpt lat="42.457071477547288" lon="13.54638833552599">
        <ele>2108.3099999999999</ele>
        <time>2013-09-11T09:06:09Z</time>
      </trkpt>
      <trkpt lat="42.457090923562646" lon="13.546368721872568">
        <ele>2107.3499999999999</ele>
        <time>2013-09-11T09:06:11Z</time>
      </trkpt>
      <trkpt lat="42.457116153091192" lon="13.546359166502953">
        <ele>2108.3099999999999</ele>
        <time>2013-09-11T09:06:14Z</time>
      </trkpt>
      <trkpt lat="42.457196870818734" lon="13.5463238786906">
        <ele>2108.3099999999999</ele>
        <time>2013-09-11T09:06:23Z</time>
      </trkpt>
      <trkpt lat="42.457355875521898" lon="13.54620561003685">
        <ele>2107.8299999999999</ele>
        <time>2013-09-11T09:06:39Z</time>
      </trkpt>
      <trkpt lat="42.457443131133914" lon="13.546200580894947">
        <ele>2107.3499999999999</ele>
        <time>2013-09-11T09:06:47Z</time>
      </trkpt>
      <trkpt lat="42.457467019557953" lon="13.546204185113311">
        <ele>2107.3499999999999</ele>
        <time>2013-09-11T09:06:49Z</time>
      </trkpt>
      <trkpt lat="42.457648403942585" lon="13.546337457373738">
        <ele>2106.3899999999999</ele>
        <time>2013-09-11T09:07:06Z</time>
      </trkpt>
      <trkpt lat="42.457686122506857" lon="13.546429071575403">
        <ele>2109.27</ele>
        <time>2013-09-11T09:07:15Z</time>
      </trkpt>
      <trkpt lat="42.457694001495838" lon="13.546457150951028">
        <ele>2111.1900000000001</ele>
        <time>2013-09-11T09:07:18Z</time>
      </trkpt>
      <trkpt lat="42.457695761695504" lon="13.546487409621477">
        <ele>2112.1500000000001</ele>
        <time>2013-09-11T09:07:21Z</time>
      </trkpt>
      <trkpt lat="42.457704730331898" lon="13.546673823148012">
        <ele>2112.1500000000001</ele>
        <time>2013-09-11T09:07:35Z</time>
      </trkpt>
      <trkpt lat="42.457716213539243" lon="13.546847496181726">
        <ele>2111.6700000000001</ele>
        <time>2013-09-11T09:07:48Z</time>
      </trkpt>
      <trkpt lat="42.457713782787323" lon="13.546926202252507">
        <ele>2113.5999999999999</ele>
        <time>2013-09-11T09:07:54Z</time>
      </trkpt>
      <trkpt lat="42.457718644291162" lon="13.547036172822118">
        <ele>2115.52</ele>
        <time>2013-09-11T09:08:04Z</time>
      </trkpt>
      <trkpt lat="42.457727948203683" lon="13.547097695991397">
        <ele>2117.4400000000001</ele>
        <time>2013-09-11T09:08:09Z</time>
      </trkpt>
      <trkpt lat="42.457760386168957" lon="13.547134157270193">
        <ele>2119.3600000000001</ele>
        <time>2013-09-11T09:08:14Z</time>
      </trkpt>
      <trkpt lat="42.457813275977969" lon="13.547181682661176">
        <ele>2116</ele>
        <time>2013-09-11T09:08:21Z</time>
      </trkpt>
      <trkpt lat="42.457860969007015" lon="13.54719459079206">
        <ele>2116.48</ele>
        <time>2013-09-11T09:08:27Z</time>
      </trkpt>
      <trkpt lat="42.457912685349584" lon="13.547210516408086">
        <ele>2118.8800000000001</ele>
        <time>2013-09-11T09:08:33Z</time>
      </trkpt>
      <trkpt lat="42.458033887669444" lon="13.547224598005414">
        <ele>2118.8800000000001</ele>
        <time>2013-09-11T09:08:48Z</time>
      </trkpt>
      <trkpt lat="42.458092560991645" lon="13.547250581905246">
        <ele>2119.3600000000001</ele>
        <time>2013-09-11T09:08:55Z</time>
      </trkpt>
      <trkpt lat="42.458198005333543" lon="13.547293497249484">
        <ele>2120.8099999999999</ele>
        <time>2013-09-11T09:09:09Z</time>
      </trkpt>
      <trkpt lat="42.458258187398314" lon="13.547372203320265">
        <ele>2123.6900000000001</ele>
        <time>2013-09-11T09:09:22Z</time>
      </trkpt>
      <trkpt lat="42.458266988396645" lon="13.547465074807405">
        <ele>2123.6900000000001</ele>
        <time>2013-09-11T09:09:36Z</time>
      </trkpt>
      <trkpt lat="42.45827847160399" lon="13.547581331804395">
        <ele>2126.0900000000001</ele>
        <time>2013-09-11T09:09:52Z</time>
      </trkpt>
      <trkpt lat="42.458323733881116" lon="13.547677388414741">
        <ele>2127.5300000000002</ele>
        <time>2013-09-11T09:10:07Z</time>
      </trkpt>
      <trkpt lat="42.45838014408946" lon="13.547753160819411">
        <ele>2129.46</ele>
        <time>2013-09-11T09:10:21Z</time>
      </trkpt>
      <trkpt lat="42.458442840725183" lon="13.547798255458474">
        <ele>2132.8200000000002</ele>
        <time>2013-09-11T09:10:37Z</time>
      </trkpt>
      <trkpt lat="42.458529341965914" lon="13.547819796949625">
        <ele>2135.23</ele>
        <time>2013-09-11T09:10:52Z</time>
      </trkpt>
      <trkpt lat="42.458593379706144" lon="13.547883834689856">
        <ele>2137.1500000000001</ele>
        <time>2013-09-11T09:11:05Z</time>
      </trkpt>
      <trkpt lat="42.458684826269746" lon="13.547896239906549">
        <ele>2140.5100000000002</ele>
        <time>2013-09-11T09:11:20Z</time>
      </trkpt>
      <trkpt lat="42.458697818219662" lon="13.547930605709553">
        <ele>2141.9499999999998</ele>
        <time>2013-09-11T09:11:34Z</time>
      </trkpt>
      <trkpt lat="42.458772417157888" lon="13.547981567680836">
        <ele>2141.9499999999998</ele>
        <time>2013-09-11T09:11:49Z</time>
      </trkpt>
      <trkpt lat="42.458836706355214" lon="13.548043258488178">
        <ele>2145.3200000000002</ele>
        <time>2013-09-11T09:12:06Z</time>
      </trkpt>
      <trkpt lat="42.45887316763401" lon="13.548029093071818">
        <ele>2147.2399999999998</ele>
        <time>2013-09-11T09:12:11Z</time>
      </trkpt>
      <trkpt lat="42.45892739854753" lon="13.547999588772655">
        <ele>2149.1599999999999</ele>
        <time>2013-09-11T09:12:18Z</time>
      </trkpt>
      <trkpt lat="42.459021611139178" lon="13.547988524660468">
        <ele>2152.5300000000002</ele>
        <time>2013-09-11T09:12:32Z</time>
      </trkpt>
      <trkpt lat="42.459064777940512" lon="13.547996990382671">
        <ele>2153.0100000000002</ele>
        <time>2013-09-11T09:12:46Z</time>
      </trkpt>
      <trkpt lat="42.45913116261363" lon="13.548009227961302">
        <ele>2154.9299999999998</ele>
        <time>2013-09-11T09:12:58Z</time>
      </trkpt>
      <trkpt lat="42.459205845370889" lon="13.548085168004036">
        <ele>2156.8600000000001</ele>
        <time>2013-09-11T09:13:13Z</time>
      </trkpt>
      <trkpt lat="42.459278181195259" lon="13.548138728365302">
        <ele>2157.8200000000002</ele>
        <time>2013-09-11T09:13:30Z</time>
      </trkpt>
      <trkpt lat="42.459361413493752" lon="13.548166807740927">
        <ele>2159.2600000000002</ele>
        <time>2013-09-11T09:13:45Z</time>
      </trkpt>
      <trkpt lat="42.459434503689408" lon="13.54821047745645">
        <ele>2162.6199999999999</ele>
        <time>2013-09-11T09:13:59Z</time>
      </trkpt>
      <trkpt lat="42.459517484530807" lon="13.54826177470386">
        <ele>2165.5100000000002</ele>
        <time>2013-09-11T09:14:17Z</time>
      </trkpt>
      <trkpt lat="42.459547156468034" lon="13.548356741666794">
        <ele>2167.4299999999998</ele>
        <time>2013-09-11T09:14:31Z</time>
      </trkpt>
      <trkpt lat="42.459607422351837" lon="13.548437794670463">
        <ele>2169.8299999999999</ele>
        <time>2013-09-11T09:14:45Z</time>
      </trkpt>
      <trkpt lat="42.459686966612935" lon="13.548444751650095">
        <ele>2171.7600000000002</ele>
        <time>2013-09-11T09:15:01Z</time>
      </trkpt>
      <trkpt lat="42.459732983261347" lon="13.548526056110859">
        <ele>2173.1999999999998</ele>
        <time>2013-09-11T09:15:15Z</time>
      </trkpt>
      <trkpt lat="42.459797188639641" lon="13.548579448834062">
        <ele>2173.1999999999998</ele>
        <time>2013-09-11T09:15:28Z</time>
      </trkpt>
      <trkpt lat="42.459843456745148" lon="13.54861356317997">
        <ele>2173.1999999999998</ele>
        <time>2013-09-11T09:15:33Z</time>
      </trkpt>
      <trkpt lat="42.459881510585546" lon="13.548676092177629">
        <ele>2173.1999999999998</ele>
        <time>2013-09-11T09:15:39Z</time>
      </trkpt>
      <trkpt lat="42.459958959370852" lon="13.548751529306173">
        <ele>2172.2399999999998</ele>
        <time>2013-09-11T09:15:49Z</time>
      </trkpt>
      <trkpt lat="42.460052166134119" lon="13.548905421048403">
        <ele>2171.27</ele>
        <time>2013-09-11T09:16:03Z</time>
      </trkpt>
      <trkpt lat="42.460107067599893" lon="13.549003824591637">
        <ele>2172.2399999999998</ele>
        <time>2013-09-11T09:16:14Z</time>
      </trkpt>
      <trkpt lat="42.460164399817586" lon="13.549073645845056">
        <ele>2173.6799999999998</ele>
        <time>2013-09-11T09:16:26Z</time>
      </trkpt>
      <trkpt lat="42.460216367617249" lon="13.549172468483448">
        <ele>2176.0799999999999</ele>
        <time>2013-09-11T09:16:41Z</time>
      </trkpt>
      <trkpt lat="42.460281746461987" lon="13.549238014966249">
        <ele>2178.48</ele>
        <time>2013-09-11T09:16:57Z</time>
      </trkpt>
      <trkpt lat="42.460337653756142" lon="13.549297861754894">
        <ele>2180.8899999999999</ele>
        <time>2013-09-11T09:17:11Z</time>
      </trkpt>
      <trkpt lat="42.460404541343451" lon="13.549343710765243">
        <ele>2181.8499999999999</ele>
        <time>2013-09-11T09:17:25Z</time>
      </trkpt>
      <trkpt lat="42.460476960986853" lon="13.549398612231016">
        <ele>2183.77</ele>
        <time>2013-09-11T09:17:39Z</time>
      </trkpt>
      <trkpt lat="42.460506716743112" lon="13.549435408785939">
        <ele>2183.77</ele>
        <time>2013-09-11T09:17:45Z</time>
      </trkpt>
      <trkpt lat="42.460543345659971" lon="13.549505481496453">
        <ele>2184.73</ele>
        <time>2013-09-11T09:17:53Z</time>
      </trkpt>
      <trkpt lat="42.460562456399202" lon="13.549553928896785">
        <ele>2184.73</ele>
        <time>2013-09-11T09:17:58Z</time>
      </trkpt>
      <trkpt lat="42.460577040910721" lon="13.549672868102789">
        <ele>2184.73</ele>
        <time>2013-09-11T09:18:07Z</time>
      </trkpt>
      <trkpt lat="42.460584668442607" lon="13.549860119819641">
        <ele>2184.25</ele>
        <time>2013-09-11T09:18:20Z</time>
      </trkpt>
      <trkpt lat="42.460637474432588" lon="13.549960367381573">
        <ele>2188.0999999999999</ele>
        <time>2013-09-11T09:18:33Z</time>
      </trkpt>
      <trkpt lat="42.46067376807332" lon="13.550058519467711">
        <ele>2190.02</ele>
        <time>2013-09-11T09:18:47Z</time>
      </trkpt>
      <trkpt lat="42.460724897682667" lon="13.550206124782562">
        <ele>2191.46</ele>
        <time>2013-09-11T09:19:02Z</time>
      </trkpt>
      <trkpt lat="42.460752138867974" lon="13.550316346809268">
        <ele>2191.9400000000001</ele>
        <time>2013-09-11T09:19:16Z</time>
      </trkpt>
      <trkpt lat="42.460752641782165" lon="13.550228923559189">
        <ele>2193.3899999999999</ele>
        <time>2013-09-11T09:19:35Z</time>
      </trkpt>
      <trkpt lat="42.460703188553452" lon="13.550336044281721">
        <ele>2192.4200000000001</ele>
        <time>2013-09-11T09:19:42Z</time>
      </trkpt>
      <trkpt lat="42.460702685639262" lon="13.550388934090734">
        <ele>2192.4200000000001</ele>
        <time>2013-09-11T09:19:48Z</time>
      </trkpt>
      <trkpt lat="42.46068793348968" lon="13.550364878028631">
        <ele>2193.3899999999999</ele>
        <time>2013-09-11T09:19:52Z</time>
      </trkpt>
      <trkpt lat="42.460679970681667" lon="13.550404021516442">
        <ele>2191.9400000000001</ele>
        <time>2013-09-11T09:19:55Z</time>
      </trkpt>
      <trkpt lat="42.460688855499029" lon="13.55037703178823">
        <ele>2191.46</ele>
        <time>2013-09-11T09:20:08Z</time>
      </trkpt>
      <trkpt lat="42.460680725052953" lon="13.550375858321786">
        <ele>2191.9400000000001</ele>
        <time>2013-09-11T09:20:23Z</time>
      </trkpt>
      <trkpt lat="42.460675863549113" lon="13.550393376499414">
        <ele>2190.5</ele>
        <time>2013-09-11T09:20:52Z</time>
      </trkpt>
      <trkpt lat="42.460658010095358" lon="13.550394466146827">
        <ele>2189.54</ele>
        <time>2013-09-11T09:21:22Z</time>
      </trkpt>
      <trkpt lat="42.460660189390182" lon="13.550395974889398">
        <ele>2188.0999999999999</ele>
        <time>2013-09-11T09:21:34Z</time>
      </trkpt>
      <trkpt lat="42.460680305957794" lon="13.550395974889398">
        <ele>2187.6199999999999</ele>
        <time>2013-09-11T09:21:43Z</time>
      </trkpt>
      <trkpt lat="42.460668068379164" lon="13.550343085080385">
        <ele>2186.6599999999999</ele>
        <time>2013-09-11T09:21:55Z</time>
      </trkpt>
      <trkpt lat="42.460671337321401" lon="13.550315592437983">
        <ele>2190.5</ele>
        <time>2013-09-11T09:22:06Z</time>
      </trkpt>
      <trkpt lat="42.460669409483671" lon="13.550318442285061">
        <ele>2190.5</ele>
        <time>2013-09-11T09:22:20Z</time>
      </trkpt>
      <trkpt lat="42.460644347593188" lon="13.550343839451671">
        <ele>2189.0599999999999</ele>
        <time>2013-09-11T09:22:47Z</time>
      </trkpt>
      <trkpt lat="42.460675025358796" lon="13.550318526104093">
        <ele>2190.02</ele>
        <time>2013-09-11T09:23:12Z</time>
      </trkpt>
      <trkpt lat="42.460694303736091" lon="13.550370242446661">
        <ele>2190.98</ele>
        <time>2013-09-11T09:23:25Z</time>
      </trkpt>
      <trkpt lat="42.460713582113385" lon="13.550277873873711">
        <ele>2191.9400000000001</ele>
        <time>2013-09-11T09:23:39Z</time>
      </trkpt>
      <trkpt lat="42.460719952359796" lon="13.550281310454011">
        <ele>2192.9000000000001</ele>
        <time>2013-09-11T09:23:57Z</time>
      </trkpt>
      <trkpt lat="42.460708050057292" lon="13.550289021804929">
        <ele>2192.9000000000001</ele>
        <time>2013-09-11T09:24:14Z</time>
      </trkpt>
      <trkpt lat="42.460694890469313" lon="13.550248872488737">
        <ele>2190.5</ele>
        <time>2013-09-11T09:24:21Z</time>
      </trkpt>
      <trkpt lat="42.460707379505038" lon="13.550209645181894">
        <ele>2192.4200000000001</ele>
        <time>2013-09-11T09:24:26Z</time>
      </trkpt>
      <trkpt lat="42.46071576140821" lon="13.550217607989907">
        <ele>2192.4200000000001</ele>
        <time>2013-09-11T09:24:36Z</time>
      </trkpt>
      <trkpt lat="42.460728920996189" lon="13.550261193886399">
        <ele>2193.3899999999999</ele>
        <time>2013-09-11T09:24:47Z</time>
      </trkpt>
      <trkpt lat="42.460716012865305" lon="13.5502905305475">
        <ele>2193.3899999999999</ele>
        <time>2013-09-11T09:25:00Z</time>
      </trkpt>
      <trkpt lat="42.460776111111045" lon="13.550309808924794">
        <ele>2195.79</ele>
        <time>2013-09-11T09:25:17Z</time>
      </trkpt>
      <trkpt lat="42.460746355354786" lon="13.550376025959849">
        <ele>2197.23</ele>
        <time>2013-09-11T09:25:29Z</time>
      </trkpt>
      <trkpt lat="42.460739063099027" lon="13.5503492038697">
        <ele>2198.1900000000001</ele>
        <time>2013-09-11T09:25:44Z</time>
      </trkpt>
      <trkpt lat="42.460727328434587" lon="13.550357753410935">
        <ele>2197.71</ele>
        <time>2013-09-11T09:26:09Z</time>
      </trkpt>
      <trkpt lat="42.460730094462633" lon="13.55034819804132">
        <ele>2195.79</ele>
        <time>2013-09-11T09:26:12Z</time>
      </trkpt>
      <trkpt lat="42.460747696459293" lon="13.550454312935472">
        <ele>2194.3499999999999</ele>
        <time>2013-09-11T09:26:25Z</time>
      </trkpt>
      <trkpt lat="42.460726490244269" lon="13.550481051206589">
        <ele>2193.3899999999999</ele>
        <time>2013-09-11T09:26:30Z</time>
      </trkpt>
      <trkpt lat="42.460717605426908" lon="13.550505442544818">
        <ele>2193.8699999999999</ele>
        <time>2013-09-11T09:26:32Z</time>
      </trkpt>
      <trkpt lat="42.460679551586509" lon="13.550461856648326">
        <ele>2195.3099999999999</ele>
        <time>2013-09-11T09:26:44Z</time>
      </trkpt>
      <trkpt lat="42.460661446675658" lon="13.550471747294068">
        <ele>2194.3499999999999</ele>
        <time>2013-09-11T09:26:55Z</time>
      </trkpt>
      <trkpt lat="42.460664547979832" lon="13.550450708717108">
        <ele>2193.8699999999999</ele>
        <time>2013-09-11T09:27:05Z</time>
      </trkpt>
      <trkpt lat="42.460660440847278" lon="13.550461437553167">
        <ele>2191.46</ele>
        <time>2013-09-11T09:27:31Z</time>
      </trkpt>
      <trkpt lat="42.460649963468313" lon="13.550454648211598">
        <ele>2190.5</ele>
        <time>2013-09-11T09:27:53Z</time>
      </trkpt>
      <trkpt lat="42.460653986781836" lon="13.550389017909765">
        <ele>2190.5</ele>
        <time>2013-09-11T09:28:14Z</time>
      </trkpt>
      <trkpt lat="42.46065960265696" lon="13.550404608249664">
        <ele>2191.46</ele>
        <time>2013-09-11T09:28:27Z</time>
      </trkpt>
      <trkpt lat="42.460657171905041" lon="13.550401926040649">
        <ele>2191.9400000000001</ele>
        <time>2013-09-11T09:28:46Z</time>
      </trkpt>
      <trkpt lat="42.460642084479332" lon="13.550387257710099">
        <ele>2194.8299999999999</ele>
        <time>2013-09-11T09:28:58Z</time>
      </trkpt>
      <trkpt lat="42.460652394220233" lon="13.550367476418614">
        <ele>2193.8699999999999</ele>
        <time>2013-09-11T09:29:19Z</time>
      </trkpt>
      <trkpt lat="42.460650466382504" lon="13.550400249660015">
        <ele>2195.3099999999999</ele>
        <time>2013-09-11T09:29:44Z</time>
      </trkpt>
      <trkpt lat="42.460627583786845" lon="13.550430675968528">
        <ele>2193.3899999999999</ele>
        <time>2013-09-11T09:29:59Z</time>
      </trkpt>
      <trkpt lat="42.460637055337429" lon="13.550420952960849">
        <ele>2192.9000000000001</ele>
        <time>2013-09-11T09:30:18Z</time>
      </trkpt>
      <trkpt lat="42.460643677040935" lon="13.550423635169864">
        <ele>2193.3899999999999</ele>
        <time>2013-09-11T09:30:55Z</time>
      </trkpt>
      <trkpt lat="42.460643174126744" lon="13.550424892455339">
        <ele>2193.8699999999999</ele>
        <time>2013-09-11T09:31:13Z</time>
      </trkpt>
      <trkpt lat="42.46063906699419" lon="13.550411481410265">
        <ele>2193.3899999999999</ele>
        <time>2013-09-11T09:31:20Z</time>
      </trkpt>
      <trkpt lat="42.460645856335759" lon="13.550414834171534">
        <ele>2192.4200000000001</ele>
        <time>2013-09-11T09:31:32Z</time>
      </trkpt>
      <trkpt lat="42.460638312622905" lon="13.550433944910765">
        <ele>2193.3899999999999</ele>
        <time>2013-09-11T09:31:54Z</time>
      </trkpt>
      <trkpt lat="42.460638899356127" lon="13.55043126270175">
        <ele>2194.3499999999999</ele>
        <time>2013-09-11T09:32:28Z</time>
      </trkpt>
      <trkpt lat="42.46062733232975" lon="13.550445595756173">
        <ele>2193.3899999999999</ele>
        <time>2013-09-11T09:32:50Z</time>
      </trkpt>
      <trkpt lat="42.46064392849803" lon="13.550406200811267">
        <ele>2192.9000000000001</ele>
        <time>2013-09-11T09:33:21Z</time>
      </trkpt>
      <trkpt lat="42.460653986781836" lon="13.550421791151166">
        <ele>2191.46</ele>
        <time>2013-09-11T09:33:47Z</time>
      </trkpt>
      <trkpt lat="42.460628002882004" lon="13.550446853041649">
        <ele>2191.9400000000001</ele>
        <time>2013-09-11T09:34:12Z</time>
      </trkpt>
      <trkpt lat="42.460649376735091" lon="13.55040343478322">
        <ele>2192.4200000000001</ele>
        <time>2013-09-11T09:34:33Z</time>
      </trkpt>
      <trkpt lat="42.460675612092018" lon="13.550393879413605">
        <ele>2193.3899999999999</ele>
        <time>2013-09-11T09:34:48Z</time>
      </trkpt>
      <trkpt lat="42.460696818307042" lon="13.550380636006594">
        <ele>2192.9000000000001</ele>
        <time>2013-09-11T09:35:03Z</time>
      </trkpt>
      <trkpt lat="42.460703775286674" lon="13.550363536924124">
        <ele>2193.3899999999999</ele>
        <time>2013-09-11T09:35:13Z</time>
      </trkpt>
      <trkpt lat="42.460702769458294" lon="13.550385162234306">
        <ele>2193.8699999999999</ele>
        <time>2013-09-11T09:35:27Z</time>
      </trkpt>
      <trkpt lat="42.460694471374154" lon="13.550412151962519">
        <ele>2195.3099999999999</ele>
        <time>2013-09-11T09:35:48Z</time>
      </trkpt>
      <trkpt lat="42.460691453889012" lon="13.55043369345367">
        <ele>2195.3099999999999</ele>
        <time>2013-09-11T09:35:50Z</time>
      </trkpt>
      <trkpt lat="42.46067670173943" lon="13.550458755344152">
        <ele>2196.27</ele>
        <time>2013-09-11T09:36:03Z</time>
      </trkpt>
      <trkpt lat="42.460688436403871" lon="13.550401926040649">
        <ele>2197.23</ele>
        <time>2013-09-11T09:36:20Z</time>
      </trkpt>
      <trkpt lat="42.460689190775156" lon="13.550429083406925">
        <ele>2196.27</ele>
        <time>2013-09-11T09:36:36Z</time>
      </trkpt>
      <trkpt lat="42.460675947368145" lon="13.550435453653336">
        <ele>2195.3099999999999</ele>
        <time>2013-09-11T09:36:52Z</time>
      </trkpt>
      <trkpt lat="42.460665637627244" lon="13.550449032336473">
        <ele>2195.79</ele>
        <time>2013-09-11T09:36:56Z</time>
      </trkpt>
      <trkpt lat="42.460657758638263" lon="13.550483733415604">
        <ele>2195.79</ele>
        <time>2013-09-11T09:37:00Z</time>
      </trkpt>
      <trkpt lat="42.460575783625245" lon="13.550633937120438">
        <ele>2193.3899999999999</ele>
        <time>2013-09-11T09:37:15Z</time>
      </trkpt>
      <trkpt lat="42.4605384003371" lon="13.550777183845639">
        <ele>2195.3099999999999</ele>
        <time>2013-09-11T09:37:27Z</time>
      </trkpt>
      <trkpt lat="42.460495233535767" lon="13.550951527431607">
        <ele>2192.9000000000001</ele>
        <time>2013-09-11T09:37:41Z</time>
      </trkpt>
      <trkpt lat="42.460489366203547" lon="13.550991928204894">
        <ele>2194.3499999999999</ele>
        <time>2013-09-11T09:37:45Z</time>
      </trkpt>
      <trkpt lat="42.460464052855968" lon="13.551072394475341">
        <ele>2197.23</ele>
        <time>2013-09-11T09:37:52Z</time>
      </trkpt>
      <trkpt lat="42.460405379533768" lon="13.551182700321078">
        <ele>2198.1900000000001</ele>
        <time>2013-09-11T09:38:08Z</time>
      </trkpt>
      <trkpt lat="42.460393309593201" lon="13.551220335066319">
        <ele>2198.6700000000001</ele>
        <time>2013-09-11T09:38:25Z</time>
      </trkpt>
      <trkpt lat="42.4603829998523" lon="13.551262579858303">
        <ele>2199.1500000000001</ele>
        <time>2013-09-11T09:38:31Z</time>
      </trkpt>
      <trkpt lat="42.460380988195539" lon="13.551380848512053">
        <ele>2200.5900000000001</ele>
        <time>2013-09-11T09:38:43Z</time>
      </trkpt>
      <trkpt lat="42.460337737575173" lon="13.551488220691681">
        <ele>2202.52</ele>
        <time>2013-09-11T09:38:58Z</time>
      </trkpt>
      <trkpt lat="42.46027110144496" lon="13.551575560122728">
        <ele>2204.9200000000001</ele>
        <time>2013-09-11T09:39:14Z</time>
      </trkpt>
      <trkpt lat="42.460282081738114" lon="13.551679160445929">
        <ele>2206.8400000000001</ele>
        <time>2013-09-11T09:39:30Z</time>
      </trkpt>
      <trkpt lat="42.460228856652975" lon="13.551772283390164">
        <ele>2210.21</ele>
        <time>2013-09-11T09:39:42Z</time>
      </trkpt>
      <trkpt lat="42.460159622132778" lon="13.551842691376805">
        <ele>2213.0900000000001</ele>
        <time>2013-09-11T09:39:54Z</time>
      </trkpt>
      <trkpt lat="42.46015090495348" lon="13.551940592005849">
        <ele>2215.98</ele>
        <time>2013-09-11T09:40:07Z</time>
      </trkpt>
      <trkpt lat="42.460150234401226" lon="13.552095154300332">
        <ele>2219.3400000000001</ele>
        <time>2013-09-11T09:40:23Z</time>
      </trkpt>
      <trkpt lat="42.46014897711575" lon="13.552174530923367">
        <ele>2222.2199999999998</ele>
        <time>2013-09-11T09:40:36Z</time>
      </trkpt>
      <trkpt lat="42.460148055106401" lon="13.55218593031168">
        <ele>2222.71</ele>
        <time>2013-09-11T09:40:37Z</time>
      </trkpt>
      <trkpt lat="42.460128106176853" lon="13.552269162610173">
        <ele>2223.6700000000001</ele>
        <time>2013-09-11T09:40:47Z</time>
      </trkpt>
      <trkpt lat="42.460112934932113" lon="13.552444847300649">
        <ele>2224.1500000000001</ele>
        <time>2013-09-11T09:41:01Z</time>
      </trkpt>
      <trkpt lat="42.460118131712079" lon="13.552464712411165">
        <ele>2224.1500000000001</ele>
        <time>2013-09-11T09:41:03Z</time>
      </trkpt>
      <trkpt lat="42.46015191078186" lon="13.552600666880608">
        <ele>2223.1900000000001</ele>
        <time>2013-09-11T09:41:15Z</time>
      </trkpt>
      <trkpt lat="42.460198849439621" lon="13.552770735695958">
        <ele>2223.6700000000001</ele>
        <time>2013-09-11T09:41:28Z</time>
      </trkpt>
      <trkpt lat="42.460170518606901" lon="13.552873581647873">
        <ele>2225.5900000000001</ele>
        <time>2013-09-11T09:41:39Z</time>
      </trkpt>
      <trkpt lat="42.460178397595882" lon="13.552972991019487">
        <ele>2228.4699999999998</ele>
        <time>2013-09-11T09:41:53Z</time>
      </trkpt>
      <trkpt lat="42.460177056491375" lon="13.552969805896282">
        <ele>2228.4699999999998</ele>
        <time>2013-09-11T09:41:54Z</time>
      </trkpt>
      <trkpt lat="42.460177140310407" lon="13.552967375144362">
        <ele>2227.0300000000002</ele>
        <time>2013-09-11T09:41:56Z</time>
      </trkpt>
      <trkpt lat="42.460215948522091" lon="13.553067874163389">
        <ele>2227.9899999999998</ele>
        <time>2013-09-11T09:42:08Z</time>
      </trkpt>
      <trkpt lat="42.460210332646966" lon="13.55318077839911">
        <ele>2230.8800000000001</ele>
        <time>2013-09-11T09:42:16Z</time>
      </trkpt>
      <trkpt lat="42.460189880803227" lon="13.553329389542341">
        <ele>2231.8400000000001</ele>
        <time>2013-09-11T09:42:29Z</time>
      </trkpt>
      <trkpt lat="42.460184097290039" lon="13.553350428119302">
        <ele>2232.8000000000002</ele>
        <time>2013-09-11T09:42:31Z</time>
      </trkpt>
      <trkpt lat="42.460194323211908" lon="13.553458722308278">
        <ele>2238.5700000000002</ele>
        <time>2013-09-11T09:42:41Z</time>
      </trkpt>
      <trkpt lat="42.46020563878119" lon="13.553486047312617">
        <ele>2235.6799999999998</ele>
        <time>2013-09-11T09:42:44Z</time>
      </trkpt>
      <trkpt lat="42.460222654044628" lon="13.553615631535649">
        <ele>2236.1599999999999</ele>
        <time>2013-09-11T09:42:58Z</time>
      </trkpt>
      <trkpt lat="42.460274370387197" lon="13.553743120282888">
        <ele>2238.0900000000001</ele>
        <time>2013-09-11T09:43:11Z</time>
      </trkpt>
      <trkpt lat="42.460291218012571" lon="13.553797015920281">
        <ele>2238.0900000000001</ele>
        <time>2013-09-11T09:43:15Z</time>
      </trkpt>
      <trkpt lat="42.460290547460318" lon="13.553928276523948">
        <ele>2234.7199999999998</ele>
        <time>2013-09-11T09:43:29Z</time>
      </trkpt>
      <trkpt lat="42.460291218012571" lon="13.553901622071862">
        <ele>2238.0900000000001</ele>
        <time>2013-09-11T09:43:36Z</time>
      </trkpt>
      <trkpt lat="42.460290379822254" lon="13.553929952904582">
        <ele>2240.0100000000002</ele>
        <time>2013-09-11T09:43:38Z</time>
      </trkpt>
      <trkpt lat="42.460293816402555" lon="13.554123993963003">
        <ele>2240.0100000000002</ele>
        <time>2013-09-11T09:43:53Z</time>
      </trkpt>
      <trkpt lat="42.460292056202888" lon="13.554314514622092">
        <ele>2242.8899999999999</ele>
        <time>2013-09-11T09:44:08Z</time>
      </trkpt>
      <trkpt lat="42.460318962112069" lon="13.554384419694543">
        <ele>2242.8899999999999</ele>
        <time>2013-09-11T09:44:24Z</time>
      </trkpt>
      <trkpt lat="42.460306389257312" lon="13.554405961185694">
        <ele>2242.8899999999999</ele>
        <time>2013-09-11T09:44:38Z</time>
      </trkpt>
      <trkpt lat="42.460307981818914" lon="13.554410571232438">
        <ele>2242.8899999999999</ele>
        <time>2013-09-11T09:44:46Z</time>
      </trkpt>
      <trkpt lat="42.460334049537778" lon="13.554443344473839">
        <ele>2245.3000000000002</ele>
        <time>2013-09-11T09:44:54Z</time>
      </trkpt>
      <trkpt lat="42.46036933735013" lon="13.554513249546289">
        <ele>2245.7800000000002</ele>
        <time>2013-09-11T09:45:00Z</time>
      </trkpt>
      <trkpt lat="42.460425663739443" lon="13.554652221500874">
        <ele>2246.7399999999998</ele>
        <time>2013-09-11T09:45:11Z</time>
      </trkpt>
      <trkpt lat="42.460433207452297" lon="13.554853554815054">
        <ele>2247.2199999999998</ele>
        <time>2013-09-11T09:45:26Z</time>
      </trkpt>
      <trkpt lat="42.460335390642285" lon="13.554995628073812">
        <ele>2248.6599999999999</ele>
        <time>2013-09-11T09:45:42Z</time>
      </trkpt>
      <trkpt lat="42.460286440327764" lon="13.555145747959614">
        <ele>2248.1799999999998</ele>
        <time>2013-09-11T09:45:57Z</time>
      </trkpt>
      <trkpt lat="42.460205052047968" lon="13.555318247526884">
        <ele>2249.1399999999999</ele>
        <time>2013-09-11T09:46:12Z</time>
      </trkpt>
      <trkpt lat="42.460185186937451" lon="13.555340962484479">
        <ele>2249.6199999999999</ele>
        <time>2013-09-11T09:46:15Z</time>
      </trkpt>
      <trkpt lat="42.460174709558487" lon="13.555367952212691">
        <ele>2249.1399999999999</ele>
        <time>2013-09-11T09:46:17Z</time>
      </trkpt>
      <trkpt lat="42.460062811151147" lon="13.555550593882799">
        <ele>2252.5100000000002</ele>
        <time>2013-09-11T09:46:34Z</time>
      </trkpt>
      <trkpt lat="42.459948733448982" lon="13.555679004639387">
        <ele>2252.9899999999998</ele>
        <time>2013-09-11T09:46:49Z</time>
      </trkpt>
      <trkpt lat="42.459896430373192" lon="13.555617900565267">
        <ele>2254.4299999999998</ele>
        <time>2013-09-11T09:47:00Z</time>
      </trkpt>
      <trkpt lat="42.459890143945813" lon="13.555609351024032">
        <ele>2254.4299999999998</ele>
        <time>2013-09-11T09:47:13Z</time>
      </trkpt>
      <trkpt lat="42.459891233593225" lon="13.555611781775951">
        <ele>2254.4299999999998</ele>
        <time>2013-09-11T09:47:20Z</time>
      </trkpt>
      <trkpt lat="42.459895759820938" lon="13.555632820352912">
        <ele>2255.3899999999999</ele>
        <time>2013-09-11T09:47:22Z</time>
      </trkpt>
      <trkpt lat="42.459849743172526" lon="13.555721919983625">
        <ele>2254.4299999999998</ele>
        <time>2013-09-11T09:47:31Z</time>
      </trkpt>
      <trkpt lat="42.459843792021275" lon="13.555755531415343">
        <ele>2253.9499999999998</ele>
        <time>2013-09-11T09:47:33Z</time>
      </trkpt>
      <trkpt lat="42.459784867241979" lon="13.555843206122518">
        <ele>2255.8699999999999</ele>
        <time>2013-09-11T09:47:43Z</time>
      </trkpt>
      <trkpt lat="42.459771791473031" lon="13.555876482278109">
        <ele>2257.3099999999999</ele>
        <time>2013-09-11T09:47:46Z</time>
      </trkpt>
      <trkpt lat="42.45968964882195" lon="13.555978825315833">
        <ele>2255.8699999999999</ele>
        <time>2013-09-11T09:48:03Z</time>
      </trkpt>
      <trkpt lat="42.459645727649331" lon="13.556070942431688">
        <ele>2257.79</ele>
        <time>2013-09-11T09:48:20Z</time>
      </trkpt>
      <trkpt lat="42.459635082632303" lon="13.556078234687448">
        <ele>2257.3099999999999</ele>
        <time>2013-09-11T09:48:21Z</time>
      </trkpt>
      <trkpt lat="42.459605662152171" lon="13.556091897189617">
        <ele>2257.79</ele>
        <time>2013-09-11T09:48:25Z</time>
      </trkpt>
      <trkpt lat="42.459585042670369" lon="13.55611888691783">
        <ele>2257.79</ele>
        <time>2013-09-11T09:48:28Z</time>
      </trkpt>
      <trkpt lat="42.459531230852008" lon="13.556202873587608">
        <ele>2257.79</ele>
        <time>2013-09-11T09:48:36Z</time>
      </trkpt>
      <trkpt lat="42.459479849785566" lon="13.556268587708473">
        <ele>2259.2399999999998</ele>
        <time>2013-09-11T09:48:47Z</time>
      </trkpt>
      <trkpt lat="42.459406172856688" lon="13.556378558278084">
        <ele>2260.6799999999998</ele>
        <time>2013-09-11T09:49:03Z</time>
      </trkpt>
      <trkpt lat="42.459378344938159" lon="13.556465059518814">
        <ele>2263.5599999999999</ele>
        <time>2013-09-11T09:49:14Z</time>
      </trkpt>
      <trkpt lat="42.459321431815624" lon="13.556572096422315">
        <ele>2266.4499999999998</ele>
        <time>2013-09-11T09:49:29Z</time>
      </trkpt>
      <trkpt lat="42.459259824827313" lon="13.55662708170712">
        <ele>2266.9299999999998</ele>
        <time>2013-09-11T09:49:42Z</time>
      </trkpt>
      <trkpt lat="42.459238870069385" lon="13.556735878810287">
        <ele>2268.8499999999999</ele>
        <time>2013-09-11T09:49:56Z</time>
      </trkpt>
      <trkpt lat="42.459204001352191" lon="13.556855153292418">
        <ele>2271.25</ele>
        <time>2013-09-11T09:50:10Z</time>
      </trkpt>
      <trkpt lat="42.45918438769877" lon="13.556970320641994">
        <ele>2273.6599999999999</ele>
        <time>2013-09-11T09:50:23Z</time>
      </trkpt>
      <trkpt lat="42.459124960005283" lon="13.557028071954846">
        <ele>2275.0999999999999</ele>
        <time>2013-09-11T09:50:36Z</time>
      </trkpt>
      <trkpt lat="42.459103753790259" lon="13.557078195735812">
        <ele>2276.0599999999999</ele>
        <time>2013-09-11T09:50:50Z</time>
      </trkpt>
      <trkpt lat="42.459090929478407" lon="13.557134354487062">
        <ele>2277.5</ele>
        <time>2013-09-11T09:51:02Z</time>
      </trkpt>
      <trkpt lat="42.459066621959209" lon="13.557209875434637">
        <ele>2278.9400000000001</ele>
        <time>2013-09-11T09:51:13Z</time>
      </trkpt>
      <trkpt lat="42.459025885909796" lon="13.557257987558842">
        <ele>2281.8299999999999</ele>
        <time>2013-09-11T09:51:21Z</time>
      </trkpt>
      <trkpt lat="42.458995040506124" lon="13.557302411645651">
        <ele>2284.23</ele>
        <time>2013-09-11T09:51:28Z</time>
      </trkpt>
      <trkpt lat="42.458926644176245" lon="13.557382123544812">
        <ele>2286.1500000000001</ele>
        <time>2013-09-11T09:51:44Z</time>
      </trkpt>
      <trkpt lat="42.458882555365562" lon="13.557462841272354">
        <ele>2289.52</ele>
        <time>2013-09-11T09:51:56Z</time>
      </trkpt>
      <trkpt lat="42.458884147927165" lon="13.557467702776194">
        <ele>2289.52</ele>
        <time>2013-09-11T09:51:57Z</time>
      </trkpt>
      <trkpt lat="42.458890518173575" lon="13.557552946731448">
        <ele>2291.4400000000001</ele>
        <time>2013-09-11T09:52:07Z</time>
      </trkpt>
      <trkpt lat="42.458877610042691" lon="13.557658642530441">
        <ele>2292.8800000000001</ele>
        <time>2013-09-11T09:52:22Z</time>
      </trkpt>
      <trkpt lat="42.458872413262725" lon="13.557792836800218">
        <ele>2294.3200000000002</ele>
        <time>2013-09-11T09:52:37Z</time>
      </trkpt>
      <trkpt lat="42.45890149846673" lon="13.557903729379177">
        <ele>2296.25</ele>
        <time>2013-09-11T09:52:55Z</time>
      </trkpt>
      <trkpt lat="42.45892102830112" lon="13.557984530925751">
        <ele>2298.1700000000001</ele>
        <time>2013-09-11T09:53:09Z</time>
      </trkpt>
      <trkpt lat="42.458928907290101" lon="13.558024847880006">
        <ele>2299.6100000000001</ele>
        <time>2013-09-11T09:53:14Z</time>
      </trkpt>
      <trkpt lat="42.458944581449032" lon="13.558080000802875">
        <ele>2296.73</ele>
        <time>2013-09-11T09:53:21Z</time>
      </trkpt>
      <trkpt lat="42.458947012200952" lon="13.558075726032257">
        <ele>2295.2800000000002</ele>
        <time>2013-09-11T09:53:23Z</time>
      </trkpt>
      <trkpt lat="42.45896746404469" lon="13.558126436546445">
        <ele>2297.21</ele>
        <time>2013-09-11T09:53:28Z</time>
      </trkpt>
      <trkpt lat="42.458996213972569" lon="13.558160718530416">
        <ele>2298.1700000000001</ele>
        <time>2013-09-11T09:53:32Z</time>
      </trkpt>
      <trkpt lat="42.459004428237677" lon="13.558188211172819">
        <ele>2299.6100000000001</ele>
        <time>2013-09-11T09:53:35Z</time>
      </trkpt>
      <trkpt lat="42.459025885909796" lon="13.558286614716053">
        <ele>2302.98</ele>
        <time>2013-09-11T09:53:46Z</time>
      </trkpt>
      <trkpt lat="42.459004763513803" lon="13.558343108743429">
        <ele>2304.9000000000001</ele>
        <time>2013-09-11T09:54:00Z</time>
      </trkpt>
      <trkpt lat="42.459003841504455" lon="13.558405721560121">
        <ele>2307.7800000000002</ele>
        <time>2013-09-11T09:54:09Z</time>
      </trkpt>
      <trkpt lat="42.459013145416975" lon="13.558470513671637">
        <ele>2310.6700000000001</ele>
        <time>2013-09-11T09:54:18Z</time>
      </trkpt>
      <trkpt lat="42.459031585603952" lon="13.558536227792501">
        <ele>2312.5900000000001</ele>
        <time>2013-09-11T09:54:28Z</time>
      </trkpt>
      <trkpt lat="42.459032339975238" lon="13.558619543910027">
        <ele>2313.0700000000002</ele>
        <time>2013-09-11T09:54:41Z</time>
      </trkpt>
      <trkpt lat="42.459043320268393" lon="13.558702440932393">
        <ele>2315.4699999999998</ele>
        <time>2013-09-11T09:54:53Z</time>
      </trkpt>
      <trkpt lat="42.45905103161931" lon="13.558752899989486">
        <ele>2315.4699999999998</ele>
        <time>2013-09-11T09:55:01Z</time>
      </trkpt>
      <trkpt lat="42.45905589312315" lon="13.558770334348083">
        <ele>2318.3600000000001</ele>
        <time>2013-09-11T09:55:06Z</time>
      </trkpt>
      <trkpt lat="42.45908129028976" lon="13.558812998235226">
        <ele>2319.3200000000002</ele>
        <time>2013-09-11T09:55:16Z</time>
      </trkpt>
      <trkpt lat="42.459111381322145" lon="13.558871252462268">
        <ele>2320.2800000000002</ele>
        <time>2013-09-11T09:55:25Z</time>
      </trkpt>
      <trkpt lat="42.459090342745185" lon="13.558892710134387">
        <ele>2323.1599999999999</ele>
        <time>2013-09-11T09:55:33Z</time>
      </trkpt>
      <trkpt lat="42.459080368280411" lon="13.558910563588142">
        <ele>2324.1199999999999</ele>
        <time>2013-09-11T09:55:47Z</time>
      </trkpt>
      <trkpt lat="42.459069555625319" lon="13.558927830308676">
        <ele>2323.1599999999999</ele>
        <time>2013-09-11T09:56:07Z</time>
      </trkpt>
      <trkpt lat="42.459053043276072" lon="13.55891726911068">
        <ele>2322.1999999999998</ele>
        <time>2013-09-11T09:56:27Z</time>
      </trkpt>
      <trkpt lat="42.45902806520462" lon="13.558956328779459">
        <ele>2322.1999999999998</ele>
        <time>2013-09-11T09:56:40Z</time>
      </trkpt>
      <trkpt lat="42.459034100174904" lon="13.558959932997823">
        <ele>2321.2399999999998</ele>
        <time>2013-09-11T09:56:55Z</time>
      </trkpt>
      <trkpt lat="42.458977354690433" lon="13.558986503630877">
        <ele>2322.1999999999998</ele>
        <time>2013-09-11T09:57:09Z</time>
      </trkpt>
      <trkpt lat="42.458969056606293" lon="13.558993628248572">
        <ele>2322.1999999999998</ele>
        <time>2013-09-11T09:57:10Z</time>
      </trkpt>
      <trkpt lat="42.458901749923825" lon="13.559135282412171">
        <ele>2322.1999999999998</ele>
        <time>2013-09-11T09:57:24Z</time>
      </trkpt>
      <trkpt lat="42.458783984184265" lon="13.559254640713334">
        <ele>2322.1999999999998</ele>
        <time>2013-09-11T09:57:40Z</time>
      </trkpt>
      <trkpt lat="42.458759592846036" lon="13.559282049536705">
        <ele>2322.6799999999998</ele>
        <time>2013-09-11T09:57:43Z</time>
      </trkpt>
      <trkpt lat="42.458687927573919" lon="13.559360923245549">
        <ele>2322.1999999999998</ele>
        <time>2013-09-11T09:57:58Z</time>
      </trkpt>
      <trkpt lat="42.458660267293453" lon="13.559390092268586">
        <ele>2325.5700000000002</ele>
        <time>2013-09-11T09:58:17Z</time>
      </trkpt>
      <trkpt lat="42.458654316142201" lon="13.559401826933026">
        <ele>2326.0500000000002</ele>
        <time>2013-09-11T09:58:18Z</time>
      </trkpt>
      <trkpt lat="42.458637887611985" lon="13.55942202731967">
        <ele>2326.5300000000002</ele>
        <time>2013-09-11T09:58:20Z</time>
      </trkpt>
      <trkpt lat="42.458514086902142" lon="13.559568291530013">
        <ele>2327.0100000000002</ele>
        <time>2013-09-11T09:58:36Z</time>
      </trkpt>
      <trkpt lat="42.458498496562243" lon="13.559578685089946">
        <ele>2325.5700000000002</ele>
        <time>2013-09-11T09:58:50Z</time>
      </trkpt>
      <trkpt lat="42.458481146022677" lon="13.559597125276923">
        <ele>2325.0900000000001</ele>
        <time>2013-09-11T09:58:52Z</time>
      </trkpt>
      <trkpt lat="42.458426496013999" lon="13.559630904346704">
        <ele>2323.6399999999999</ele>
        <time>2013-09-11T09:58:57Z</time>
      </trkpt>
      <trkpt lat="42.458271849900484" lon="13.559766858816147">
        <ele>2326.0500000000002</ele>
        <time>2013-09-11T09:59:13Z</time>
      </trkpt>
      <trkpt lat="42.458236142992973" lon="13.559807008132339">
        <ele>2328.4499999999998</ele>
        <time>2013-09-11T09:59:17Z</time>
      </trkpt>
      <trkpt lat="42.458071941509843" lon="13.559908764436841">
        <ele>2329.8899999999999</ele>
        <time>2013-09-11T09:59:33Z</time>
      </trkpt>
      <trkpt lat="42.457899441942573" lon="13.559956289827824">
        <ele>2332.7800000000002</ele>
        <time>2013-09-11T09:59:49Z</time>
      </trkpt>
      <trkpt lat="42.457714704796672" lon="13.559939777478576">
        <ele>2336.6199999999999</ele>
        <time>2013-09-11T10:00:07Z</time>
      </trkpt>
      <trkpt lat="42.457512198016047" lon="13.559928461909294">
        <ele>2338.0599999999999</ele>
        <time>2013-09-11T10:00:24Z</time>
      </trkpt>
      <trkpt lat="42.457291670143604" lon="13.55993365868926">
        <ele>2337.5799999999999</ele>
        <time>2013-09-11T10:00:42Z</time>
      </trkpt>
      <trkpt lat="42.457268955186009" lon="13.559933910146356">
        <ele>2341.9099999999999</ele>
        <time>2013-09-11T10:00:44Z</time>
      </trkpt>
      <trkpt lat="42.457190165296197" lon="13.55993365868926">
        <ele>2338.54</ele>
        <time>2013-09-11T10:00:50Z</time>
      </trkpt>
      <trkpt lat="42.457163510844111" lon="13.559930557385087">
        <ele>2337.5799999999999</ele>
        <time>2013-09-11T10:00:52Z</time>
      </trkpt>
      <trkpt lat="42.457119757309556" lon="13.559924103319645">
        <ele>2335.6599999999999</ele>
        <time>2013-09-11T10:00:55Z</time>
      </trkpt>
      <trkpt lat="42.456976091489196" lon="13.559806002303958">
        <ele>2335.1799999999998</ele>
        <time>2013-09-11T10:01:08Z</time>
      </trkpt>
      <trkpt lat="42.456916831433773" lon="13.559785466641188">
        <ele>2331.8099999999999</ele>
        <time>2013-09-11T10:01:13Z</time>
      </trkpt>
      <trkpt lat="42.456873580813408" lon="13.559771971777081">
        <ele>2333.2600000000002</ele>
        <time>2013-09-11T10:01:17Z</time>
      </trkpt>
      <trkpt lat="42.456695381551981" lon="13.559689829126">
        <ele>2332.3000000000002</ele>
        <time>2013-09-11T10:01:33Z</time>
      </trkpt>
      <trkpt lat="42.456662189215422" lon="13.559699468314648">
        <ele>2334.2199999999998</ele>
        <time>2013-09-11T10:01:37Z</time>
      </trkpt>
      <trkpt lat="42.456619944423437" lon="13.559693684801459">
        <ele>2332.3000000000002</ele>
        <time>2013-09-11T10:01:42Z</time>
      </trkpt>
      <trkpt lat="42.456611478701234" lon="13.559698378667235">
        <ele>2332.3000000000002</ele>
        <time>2013-09-11T10:01:43Z</time>
      </trkpt>
      <trkpt lat="42.456584572792053" lon="13.559716315940022">
        <ele>2330.8499999999999</ele>
        <time>2013-09-11T10:01:46Z</time>
      </trkpt>
      <trkpt lat="42.456553559750319" lon="13.559718746691942">
        <ele>2329.4099999999999</ele>
        <time>2013-09-11T10:01:49Z</time>
      </trkpt>
      <trkpt lat="42.45654140599072" lon="13.559716148301959">
        <ele>2329.8899999999999</ele>
        <time>2013-09-11T10:01:50Z</time>
      </trkpt>
      <trkpt lat="42.456449624150991" lon="13.559705754742026">
        <ele>2328.9299999999998</ele>
        <time>2013-09-11T10:01:59Z</time>
      </trkpt>
      <trkpt lat="42.45634937658906" lon="13.559579188004136">
        <ele>2327.9699999999998</ele>
        <time>2013-09-11T10:02:11Z</time>
      </trkpt>
      <trkpt lat="42.456314759328961" lon="13.559571141377091">
        <ele>2327.9699999999998</ele>
        <time>2013-09-11T10:02:15Z</time>
      </trkpt>
      <trkpt lat="42.456245357170701" lon="13.55961992405355">
        <ele>2324.1199999999999</ele>
        <time>2013-09-11T10:02:27Z</time>
      </trkpt>
      <trkpt lat="42.456167154014111" lon="13.559624450281262">
        <ele>2325.5700000000002</ele>
        <time>2013-09-11T10:02:34Z</time>
      </trkpt>
      <trkpt lat="42.456051148474216" lon="13.559626545757055">
        <ele>2328.9299999999998</ele>
        <time>2013-09-11T10:02:45Z</time>
      </trkpt>
      <trkpt lat="42.455935897305608" lon="13.559636184945703">
        <ele>2328.9299999999998</ele>
        <time>2013-09-11T10:02:54Z</time>
      </trkpt>
      <trkpt lat="42.455780496820807" lon="13.559629479423165">
        <ele>2331.3299999999999</ele>
        <time>2013-09-11T10:03:09Z</time>
      </trkpt>
      <trkpt lat="42.455740431323647" lon="13.559630066156387">
        <ele>2333.2600000000002</ele>
        <time>2013-09-11T10:03:13Z</time>
      </trkpt>
      <trkpt lat="42.455598525702953" lon="13.559628892689943">
        <ele>2332.3000000000002</ele>
        <time>2013-09-11T10:03:28Z</time>
      </trkpt>
      <trkpt lat="42.455484196543694" lon="13.559580780565739">
        <ele>2335.1799999999998</ele>
        <time>2013-09-11T10:03:40Z</time>
      </trkpt>
      <trkpt lat="42.455475311726332" lon="13.559571225196123">
        <ele>2329.8899999999999</ele>
        <time>2013-09-11T10:03:43Z</time>
      </trkpt>
      <trkpt lat="42.455470617860556" lon="13.559569716453552">
        <ele>2330.8499999999999</ele>
        <time>2013-09-11T10:03:44Z</time>
      </trkpt>
      <trkpt lat="42.45547816157341" lon="13.559565106406808">
        <ele>2327.9699999999998</ele>
        <time>2013-09-11T10:03:50Z</time>
      </trkpt>
      <trkpt lat="42.455477239564061" lon="13.559563178569078">
        <ele>2329.8899999999999</ele>
        <time>2013-09-11T10:03:52Z</time>
      </trkpt>
      <trkpt lat="42.455453770235181" lon="13.559548174962401">
        <ele>2333.7399999999998</ele>
        <time>2013-09-11T10:03:54Z</time>
      </trkpt>
      <trkpt lat="42.455382188782096" lon="13.559479108080268">
        <ele>2336.1399999999999</ele>
        <time>2013-09-11T10:04:01Z</time>
      </trkpt>
      <trkpt lat="42.45525780133903" lon="13.559353463351727">
        <ele>2336.6199999999999</ele>
        <time>2013-09-11T10:04:14Z</time>
      </trkpt>
      <trkpt lat="42.455124361440539" lon="13.559214659035206">
        <ele>2335.6599999999999</ele>
        <time>2013-09-11T10:04:30Z</time>
      </trkpt>
      <trkpt lat="42.455026125535369" lon="13.559150788933039">
        <ele>2339.02</ele>
        <time>2013-09-11T10:04:43Z</time>
      </trkpt>
      <trkpt lat="42.455019922927022" lon="13.559146262705326">
        <ele>2339.02</ele>
        <time>2013-09-11T10:04:44Z</time>
      </trkpt>
      <trkpt lat="42.454917831346393" lon="13.559089181944728">
        <ele>2339.02</ele>
        <time>2013-09-11T10:04:58Z</time>
      </trkpt>
      <trkpt lat="42.454879274591804" lon="13.55906487442553">
        <ele>2342.3899999999999</ele>
        <time>2013-09-11T10:05:03Z</time>
      </trkpt>
      <trkpt lat="42.454871730878949" lon="13.559060599654913">
        <ele>2342.3899999999999</ele>
        <time>2013-09-11T10:05:04Z</time>
      </trkpt>
      <trkpt lat="42.454828731715679" lon="13.559032855555415">
        <ele>2342.3899999999999</ele>
        <time>2013-09-11T10:05:10Z</time>
      </trkpt>
      <trkpt lat="42.454731836915016" lon="13.558952640742064">
        <ele>2343.3499999999999</ele>
        <time>2013-09-11T10:05:25Z</time>
      </trkpt>
      <trkpt lat="42.454654220491648" lon="13.558849627152085">
        <ele>2348.1599999999999</ele>
        <time>2013-09-11T10:05:40Z</time>
      </trkpt>
      <trkpt lat="42.454650532454252" lon="13.558842753991485">
        <ele>2348.1599999999999</ele>
        <time>2013-09-11T10:05:41Z</time>
      </trkpt>
      <trkpt lat="42.454632259905338" lon="13.55881710536778">
        <ele>2341.9099999999999</ele>
        <time>2013-09-11T10:05:51Z</time>
      </trkpt>
      <trkpt lat="42.454634355381131" lon="13.558819619938731">
        <ele>2340.9499999999998</ele>
        <time>2013-09-11T10:05:53Z</time>
      </trkpt>
      <trkpt lat="42.45463821105659" lon="13.558820374310017">
        <ele>2341.9099999999999</ele>
        <time>2013-09-11T10:05:55Z</time>
      </trkpt>
      <trkpt lat="42.454608958214521" lon="13.55879413895309">
        <ele>2344.79</ele>
        <time>2013-09-11T10:06:04Z</time>
      </trkpt>
      <trkpt lat="42.45460401289165" lon="13.558792881667614">
        <ele>2344.79</ele>
        <time>2013-09-11T10:06:05Z</time>
      </trkpt>
      <trkpt lat="42.454564366489649" lon="13.55875457637012">
        <ele>2349.1199999999999</ele>
        <time>2013-09-11T10:06:12Z</time>
      </trkpt>
      <trkpt lat="42.454559924080968" lon="13.558747200295329">
        <ele>2348.6399999999999</ele>
        <time>2013-09-11T10:06:13Z</time>
      </trkpt>
      <trkpt lat="42.454501334577799" lon="13.558658435940742">
        <ele>2352</ele>
        <time>2013-09-11T10:06:25Z</time>
      </trkpt>
      <trkpt lat="42.45446571148932" lon="13.558567492291331">
        <ele>2355.3699999999999</ele>
        <time>2013-09-11T10:06:36Z</time>
      </trkpt>
      <trkpt lat="42.454452468082309" lon="13.558536479249597">
        <ele>2353.4400000000001</ele>
        <time>2013-09-11T10:06:39Z</time>
      </trkpt>
      <trkpt lat="42.454388681799173" lon="13.558375546708703">
        <ele>2352.96</ele>
        <time>2013-09-11T10:06:53Z</time>
      </trkpt>
      <trkpt lat="42.454314082860947" lon="13.558182260021567">
        <ele>2353.4400000000001</ele>
        <time>2013-09-11T10:07:09Z</time>
      </trkpt>
      <trkpt lat="42.45419598184526" lon="13.558030128479004">
        <ele>2354.4099999999999</ele>
        <time>2013-09-11T10:07:26Z</time>
      </trkpt>
      <trkpt lat="42.454071007668972" lon="13.557942286133766">
        <ele>2354.4099999999999</ele>
        <time>2013-09-11T10:07:40Z</time>
      </trkpt>
      <trkpt lat="42.454029517248273" lon="13.557915715500712">
        <ele>2356.3299999999999</ele>
        <time>2013-09-11T10:07:45Z</time>
      </trkpt>
      <trkpt lat="42.453850479796529" lon="13.557871794328094">
        <ele>2356.8099999999999</ele>
        <time>2013-09-11T10:08:02Z</time>
      </trkpt>
      <trkpt lat="42.453713100403547" lon="13.557818066328764">
        <ele>2355.8499999999999</ele>
        <time>2013-09-11T10:08:19Z</time>
      </trkpt>
      <trkpt lat="42.45363799855113" lon="13.557725697755814">
        <ele>2357.29</ele>
        <time>2013-09-11T10:08:33Z</time>
      </trkpt>
      <trkpt lat="42.453594664111733" lon="13.557668281719089">
        <ele>2359.21</ele>
        <time>2013-09-11T10:08:40Z</time>
      </trkpt>
      <trkpt lat="42.453561807051301" lon="13.557624528184533">
        <ele>2363.0599999999999</ele>
        <time>2013-09-11T10:08:46Z</time>
      </trkpt>
      <trkpt lat="42.453557197004557" lon="13.557617152109742">
        <ele>2363.0599999999999</ele>
        <time>2013-09-11T10:08:47Z</time>
      </trkpt>
      <trkpt lat="42.453517382964492" lon="13.557548504322767">
        <ele>2362.5799999999999</ele>
        <time>2013-09-11T10:08:56Z</time>
      </trkpt>
      <trkpt lat="42.453486537560821" lon="13.557520089671016">
        <ele>2362.0999999999999</ele>
        <time>2013-09-11T10:09:00Z</time>
      </trkpt>
      <trkpt lat="42.453420404344797" lon="13.557452531531453">
        <ele>2359.6900000000001</ele>
        <time>2013-09-11T10:09:08Z</time>
      </trkpt>
      <trkpt lat="42.453272715210915" lon="13.557396540418267">
        <ele>2361.1399999999999</ele>
        <time>2013-09-11T10:09:25Z</time>
      </trkpt>
      <trkpt lat="42.453125277534127" lon="13.557422775775194">
        <ele>2361.6199999999999</ele>
        <time>2013-09-11T10:09:41Z</time>
      </trkpt>
      <trkpt lat="42.452989742159843" lon="13.557456806302071">
        <ele>2364.98</ele>
        <time>2013-09-11T10:09:56Z</time>
      </trkpt>
      <trkpt lat="42.452917825430632" lon="13.557476922869682">
        <ele>2362.5799999999999</ele>
        <time>2013-09-11T10:10:04Z</time>
      </trkpt>
      <trkpt lat="42.452756725251675" lon="13.557505924254656">
        <ele>2360.1700000000001</ele>
        <time>2013-09-11T10:10:20Z</time>
      </trkpt>
      <trkpt lat="42.452628649771214" lon="13.557517323642969">
        <ele>2363.54</ele>
        <time>2013-09-11T10:10:33Z</time>
      </trkpt>
      <trkpt lat="42.452616998925805" lon="13.557517156004906">
        <ele>2364.02</ele>
        <time>2013-09-11T10:10:34Z</time>
      </trkpt>
      <trkpt lat="42.452469812706113" lon="13.557521095499396">
        <ele>2363.54</ele>
        <time>2013-09-11T10:10:49Z</time>
      </trkpt>
      <trkpt lat="42.452431507408619" lon="13.557539116591215">
        <ele>2361.1399999999999</ele>
        <time>2013-09-11T10:10:55Z</time>
      </trkpt>
      <trkpt lat="42.45239689014852" lon="13.557553449645638">
        <ele>2363.0599999999999</ele>
        <time>2013-09-11T10:11:00Z</time>
      </trkpt>
      <trkpt lat="42.4523392226547" lon="13.557555880397558">
        <ele>2366.4200000000001</ele>
        <time>2013-09-11T10:11:07Z</time>
      </trkpt>
      <trkpt lat="42.452265881001949" lon="13.55756426230073">
        <ele>2364.5</ele>
        <time>2013-09-11T10:11:17Z</time>
      </trkpt>
      <trkpt lat="42.452236879616976" lon="13.557579014450312">
        <ele>2366.9000000000001</ele>
        <time>2013-09-11T10:11:21Z</time>
      </trkpt>
      <trkpt lat="42.452193796634674" lon="13.557587396353483">
        <ele>2368.8299999999999</ele>
        <time>2013-09-11T10:11:28Z</time>
      </trkpt>
      <trkpt lat="42.45211006142199" lon="13.557559316977859">
        <ele>2366.9000000000001</ele>
        <time>2013-09-11T10:11:38Z</time>
      </trkpt>
      <trkpt lat="42.452039485797286" lon="13.557533249258995">
        <ele>2365.9400000000001</ele>
        <time>2013-09-11T10:11:52Z</time>
      </trkpt>
      <trkpt lat="42.452025571838021" lon="13.557539954781532">
        <ele>2365.9400000000001</ele>
        <time>2013-09-11T10:11:54Z</time>
      </trkpt>
      <trkpt lat="42.45187452994287" lon="13.557480610907078">
        <ele>2366.4200000000001</ele>
        <time>2013-09-11T10:12:08Z</time>
      </trkpt>
      <trkpt lat="42.451730193570256" lon="13.557378854602575">
        <ele>2367.3800000000001</ele>
        <time>2013-09-11T10:12:24Z</time>
      </trkpt>
      <trkpt lat="42.451609242707491" lon="13.557313475757837">
        <ele>2369.3099999999999</ele>
        <time>2013-09-11T10:12:39Z</time>
      </trkpt>
      <trkpt lat="42.45150463655591" lon="13.557241391390562">
        <ele>2370.27</ele>
        <time>2013-09-11T10:12:52Z</time>
      </trkpt>
      <trkpt lat="42.451469348743558" lon="13.557189758867025">
        <ele>2371.23</ele>
        <time>2013-09-11T10:13:04Z</time>
      </trkpt>
      <trkpt lat="42.451405562460423" lon="13.557128654792905">
        <ele>2374.1100000000001</ele>
        <time>2013-09-11T10:13:17Z</time>
      </trkpt>
      <trkpt lat="42.451316798105836" lon="13.557071825489402">
        <ele>2377</ele>
        <time>2013-09-11T10:13:33Z</time>
      </trkpt>
      <trkpt lat="42.451268518343568" lon="13.557051960378885">
        <ele>2379.8800000000001</ele>
        <time>2013-09-11T10:13:46Z</time>
      </trkpt>
      <trkpt lat="42.451262651011348" lon="13.557047601789236">
        <ele>2381.3200000000002</ele>
        <time>2013-09-11T10:13:49Z</time>
      </trkpt>
      <trkpt lat="42.4512495752424" lon="13.557052630931139">
        <ele>2382.7600000000002</ele>
        <time>2013-09-11T10:14:01Z</time>
      </trkpt>
      <trkpt lat="42.451204229146242" lon="13.557053385302424">
        <ele>2384.21</ele>
        <time>2013-09-11T10:14:13Z</time>
      </trkpt>
      <trkpt lat="42.451165085658431" lon="13.557038549333811">
        <ele>2384.6900000000001</ele>
        <time>2013-09-11T10:14:26Z</time>
      </trkpt>
      <trkpt lat="42.451131641864777" lon="13.557059168815613">
        <ele>2385.6500000000001</ele>
        <time>2013-09-11T10:14:39Z</time>
      </trkpt>
      <trkpt lat="42.451146142557263" lon="13.557033017277718">
        <ele>2385.1700000000001</ele>
        <time>2013-09-11T10:14:53Z</time>
      </trkpt>
      <trkpt lat="42.451152512803674" lon="13.557028155773878">
        <ele>2386.6100000000001</ele>
        <time>2013-09-11T10:14:55Z</time>
      </trkpt>
      <trkpt lat="42.451133653521538" lon="13.557026479393244">
        <ele>2387.0900000000001</ele>
        <time>2013-09-11T10:15:08Z</time>
      </trkpt>
      <trkpt lat="42.451144801452756" lon="13.557104347273707">
        <ele>2389.4899999999998</ele>
        <time>2013-09-11T10:15:22Z</time>
      </trkpt>
      <trkpt lat="42.451101718470454" lon="13.557114824652672">
        <ele>2389.4899999999998</ele>
        <time>2013-09-11T10:15:35Z</time>
      </trkpt>
      <trkpt lat="42.451045056805015" lon="13.557082721963525">
        <ele>2391.4200000000001</ele>
        <time>2013-09-11T10:15:45Z</time>
      </trkpt>
      <trkpt lat="42.45102820917964" lon="13.557083727791905">
        <ele>2390.9400000000001</ele>
        <time>2013-09-11T10:15:47Z</time>
      </trkpt>
      <trkpt lat="42.45092854835093" lon="13.556975014507771">
        <ele>2390.46</ele>
        <time>2013-09-11T10:16:02Z</time>
      </trkpt>
      <trkpt lat="42.450899798423052" lon="13.556931596249342">
        <ele>2390.46</ele>
        <time>2013-09-11T10:16:11Z</time>
      </trkpt>
      <trkpt lat="42.450839281082153" lon="13.55683034285903">
        <ele>2392.8600000000001</ele>
        <time>2013-09-11T10:16:23Z</time>
      </trkpt>
      <trkpt lat="42.450809860602021" lon="13.556776447221637">
        <ele>2394.3000000000002</ele>
        <time>2013-09-11T10:16:29Z</time>
      </trkpt>
      <trkpt lat="42.45079074986279" lon="13.556740069761872">
        <ele>2390.9400000000001</ele>
        <time>2013-09-11T10:16:35Z</time>
      </trkpt>
      <trkpt lat="42.450786894187331" lon="13.556731855496764">
        <ele>2391.4200000000001</ele>
        <time>2013-09-11T10:16:36Z</time>
      </trkpt>
      <trkpt lat="42.450782367959619" lon="13.55670528486371">
        <ele>2388.0500000000002</ele>
        <time>2013-09-11T10:16:43Z</time>
      </trkpt>
      <trkpt lat="42.450746661052108" lon="13.556639151647687">
        <ele>2389.9699999999998</ele>
        <time>2013-09-11T10:16:55Z</time>
      </trkpt>
      <trkpt lat="42.450737692415714" lon="13.556615430861712">
        <ele>2392.8600000000001</ele>
        <time>2013-09-11T10:17:13Z</time>
      </trkpt>
      <trkpt lat="42.450733417645097" lon="13.556620460003614">
        <ele>2392.8600000000001</ele>
        <time>2013-09-11T10:17:14Z</time>
      </trkpt>
      <trkpt lat="42.450742973014712" lon="13.556633535772562">
        <ele>2391.4200000000001</ele>
        <time>2013-09-11T10:17:32Z</time>
      </trkpt>
      <trkpt lat="42.450729394331574" lon="13.556571006774902">
        <ele>2390.9400000000001</ele>
        <time>2013-09-11T10:17:44Z</time>
      </trkpt>
      <trkpt lat="42.450709193944931" lon="13.55656748637557">
        <ele>2394.3000000000002</ele>
        <time>2013-09-11T10:17:49Z</time>
      </trkpt>
      <trkpt lat="42.450678180903196" lon="13.556510657072067">
        <ele>2395.2600000000002</ele>
        <time>2013-09-11T10:18:00Z</time>
      </trkpt>
      <trkpt lat="42.4506382830441" lon="13.556466987356544">
        <ele>2396.6999999999998</ele>
        <time>2013-09-11T10:18:09Z</time>
      </trkpt>
      <trkpt lat="42.450582375749946" lon="13.556423401460052">
        <ele>2397.1799999999998</ele>
        <time>2013-09-11T10:18:23Z</time>
      </trkpt>
      <trkpt lat="42.450575334951282" lon="13.55641208589077">
        <ele>2396.6999999999998</ele>
        <time>2013-09-11T10:18:24Z</time>
      </trkpt>
      <trkpt lat="42.450570641085505" lon="13.556342599913478">
        <ele>2398.6300000000001</ele>
        <time>2013-09-11T10:18:32Z</time>
      </trkpt>
      <trkpt lat="42.450542226433754" lon="13.556261966004968">
        <ele>2397.1799999999998</ele>
        <time>2013-09-11T10:18:41Z</time>
      </trkpt>
      <trkpt lat="42.450485732406378" lon="13.55615945532918">
        <ele>2398.6300000000001</ele>
        <time>2013-09-11T10:18:53Z</time>
      </trkpt>
      <trkpt lat="42.450474249199033" lon="13.556124921888113">
        <ele>2398.6300000000001</ele>
        <time>2013-09-11T10:18:55Z</time>
      </trkpt>
      <trkpt lat="42.450455641373992" lon="13.556033726781607">
        <ele>2400.5500000000002</ele>
        <time>2013-09-11T10:19:03Z</time>
      </trkpt>
      <trkpt lat="42.450384814292192" lon="13.555807499215007">
        <ele>2399.1100000000001</ele>
        <time>2013-09-11T10:19:23Z</time>
      </trkpt>
      <trkpt lat="42.450336869806051" lon="13.555657379329205">
        <ele>2398.1500000000001</ele>
        <time>2013-09-11T10:19:36Z</time>
      </trkpt>
      <trkpt lat="42.450308622792363" lon="13.555552018806338">
        <ele>2401.5100000000002</ele>
        <time>2013-09-11T10:19:46Z</time>
      </trkpt>
      <trkpt lat="42.450277525931597" lon="13.555471803992987">
        <ele>2405.3600000000001</ele>
        <time>2013-09-11T10:19:54Z</time>
      </trkpt>
      <trkpt lat="42.450273334980011" lon="13.555461829528213">
        <ele>2405.3600000000001</ele>
        <time>2013-09-11T10:19:55Z</time>
      </trkpt>
      <trkpt lat="42.450229078531265" lon="13.555366275832057">
        <ele>2408.7199999999998</ele>
        <time>2013-09-11T10:20:05Z</time>
      </trkpt>
      <trkpt lat="42.450172249227762" lon="13.555224789306521">
        <ele>2408.7199999999998</ele>
        <time>2013-09-11T10:20:19Z</time>
      </trkpt>
      <trkpt lat="42.450110139325261" lon="13.555120769888163">
        <ele>2410.6399999999999</ele>
        <time>2013-09-11T10:20:32Z</time>
      </trkpt>
      <trkpt lat="42.450052304193377" lon="13.554999819025397">
        <ele>2410.6399999999999</ele>
        <time>2013-09-11T10:20:45Z</time>
      </trkpt>
      <trkpt lat="42.449983907863498" lon="13.554862439632416">
        <ele>2412.0900000000001</ele>
        <time>2013-09-11T10:21:00Z</time>
      </trkpt>
      <trkpt lat="42.449959935620427" lon="13.554809214547276">
        <ele>2410.1599999999999</ele>
        <time>2013-09-11T10:21:20Z</time>
      </trkpt>
      <trkpt lat="42.449932023882866" lon="13.554723635315895">
        <ele>2410.6399999999999</ele>
        <time>2013-09-11T10:21:37Z</time>
      </trkpt>
      <trkpt lat="42.449891204014421" lon="13.554607545956969">
        <ele>2411.5999999999999</ele>
        <time>2013-09-11T10:21:49Z</time>
      </trkpt>
      <trkpt lat="42.449852395802736" lon="13.554536048322916">
        <ele>2413.0500000000002</ele>
        <time>2013-09-11T10:22:05Z</time>
      </trkpt>
      <trkpt lat="42.449842505156994" lon="13.554521799087524">
        <ele>2413.0500000000002</ele>
        <time>2013-09-11T10:22:09Z</time>
      </trkpt>
      <trkpt lat="42.449766481295228" lon="13.554396238178015">
        <ele>2414.0100000000002</ele>
        <time>2013-09-11T10:22:25Z</time>
      </trkpt>
      <trkpt lat="42.44968450628221" lon="13.55426506139338">
        <ele>2412.5700000000002</ele>
        <time>2013-09-11T10:22:40Z</time>
      </trkpt>
      <trkpt lat="42.449622564017773" lon="13.554112929850817">
        <ele>2411.5999999999999</ele>
        <time>2013-09-11T10:22:56Z</time>
      </trkpt>
      <trkpt lat="42.449633879587054" lon="13.55408133007586">
        <ele>2413.0500000000002</ele>
        <time>2013-09-11T10:22:59Z</time>
      </trkpt>
      <trkpt lat="42.449634382501245" lon="13.554058196023107">
        <ele>2411.5999999999999</ele>
        <time>2013-09-11T10:23:04Z</time>
      </trkpt>
      <trkpt lat="42.449614517390728" lon="13.554015532135963">
        <ele>2413.5300000000002</ele>
        <time>2013-09-11T10:23:10Z</time>
      </trkpt>
      <trkpt lat="42.449609572067857" lon="13.554000779986382">
        <ele>2414.4899999999998</ele>
        <time>2013-09-11T10:23:14Z</time>
      </trkpt>
      <trkpt lat="42.449596077203751" lon="13.553968844935298">
        <ele>2417.3699999999999</ele>
        <time>2013-09-11T10:23:20Z</time>
      </trkpt>
      <trkpt lat="42.449570596218109" lon="13.553945124149323">
        <ele>2418.8099999999999</ele>
        <time>2013-09-11T10:23:28Z</time>
      </trkpt>
      <trkpt lat="42.449562381953001" lon="13.553910255432129">
        <ele>2415.4499999999998</ele>
        <time>2013-09-11T10:23:34Z</time>
      </trkpt>
      <trkpt lat="42.449560789391398" lon="13.553892904892564">
        <ele>2414.4899999999998</ele>
        <time>2013-09-11T10:23:36Z</time>
      </trkpt>
      <trkpt lat="42.44955844245851" lon="13.553899610415101">
        <ele>2419.3000000000002</ele>
        <time>2013-09-11T10:23:38Z</time>
      </trkpt>
      <trkpt lat="42.449558777734637" lon="13.553897850215435">
        <ele>2418.3299999999999</ele>
        <time>2013-09-11T10:23:39Z</time>
      </trkpt>
      <trkpt lat="42.449558274820447" lon="13.553900364786386">
        <ele>2414.4899999999998</ele>
        <time>2013-09-11T10:23:40Z</time>
      </trkpt>
      <trkpt lat="42.449556514620781" lon="13.55389759875834">
        <ele>2415.4499999999998</ele>
        <time>2013-09-11T10:23:41Z</time>
      </trkpt>
      <trkpt lat="42.449554670602083" lon="13.553876057267189">
        <ele>2414.4899999999998</ele>
        <time>2013-09-11T10:23:44Z</time>
      </trkpt>
      <trkpt lat="42.449527345597744" lon="13.553793244063854">
        <ele>2414.9699999999998</ele>
        <time>2013-09-11T10:23:57Z</time>
      </trkpt>
      <trkpt lat="42.4495296087116" lon="13.553782934322953">
        <ele>2412.0900000000001</ele>
        <time>2013-09-11T10:23:58Z</time>
      </trkpt>
      <trkpt lat="42.449531285092235" lon="13.55377740226686">
        <ele>2412.5700000000002</ele>
        <time>2013-09-11T10:23:59Z</time>
      </trkpt>
      <trkpt lat="42.449512761086226" lon="13.553743874654174">
        <ele>2411.5999999999999</ele>
        <time>2013-09-11T10:24:05Z</time>
      </trkpt>
      <trkpt lat="42.449505217373371" lon="13.553714035078883">
        <ele>2413.0500000000002</ele>
        <time>2013-09-11T10:24:08Z</time>
      </trkpt>
      <trkpt lat="42.449501780793071" lon="13.553683692589402">
        <ele>2414.0100000000002</ele>
        <time>2013-09-11T10:24:10Z</time>
      </trkpt>
      <trkpt lat="42.44948904030025" lon="13.553656786680222">
        <ele>2420.2600000000002</ele>
        <time>2013-09-11T10:24:15Z</time>
      </trkpt>
      <trkpt lat="42.449483256787062" lon="13.553645303472877">
        <ele>2419.7800000000002</ele>
        <time>2013-09-11T10:24:16Z</time>
      </trkpt>
      <trkpt lat="42.449439503252506" lon="13.553604986518621">
        <ele>2416.8899999999999</ele>
        <time>2013-09-11T10:24:25Z</time>
      </trkpt>
      <trkpt lat="42.449429109692574" lon="13.553587635979056">
        <ele>2417.3699999999999</ele>
        <time>2013-09-11T10:24:27Z</time>
      </trkpt>
      <trkpt lat="42.449357444420457" lon="13.553524604067206">
        <ele>2417.3699999999999</ele>
        <time>2013-09-11T10:24:40Z</time>
      </trkpt>
      <trkpt lat="42.449335902929306" lon="13.553505577147007">
        <ele>2418.3299999999999</ele>
        <time>2013-09-11T10:24:44Z</time>
      </trkpt>
      <trkpt lat="42.449306733906269" lon="13.553458638489246">
        <ele>2415.9299999999998</ele>
        <time>2013-09-11T10:24:49Z</time>
      </trkpt>
      <trkpt lat="42.449260633438826" lon="13.553376663476229">
        <ele>2414.0100000000002</ele>
        <time>2013-09-11T10:25:00Z</time>
      </trkpt>
      <trkpt lat="42.449194835498929" lon="13.553293850272894">
        <ele>2414.0100000000002</ele>
        <time>2013-09-11T10:25:09Z</time>
      </trkpt>
      <trkpt lat="42.449064496904612" lon="13.553196704015136">
        <ele>2413.5300000000002</ele>
        <time>2013-09-11T10:25:25Z</time>
      </trkpt>
      <trkpt lat="42.449053097516298" lon="13.55319301597774">
        <ele>2413.5300000000002</ele>
        <time>2013-09-11T10:25:26Z</time>
      </trkpt>
      <trkpt lat="42.449046894907951" lon="13.553194357082248">
        <ele>2412.5700000000002</ele>
        <time>2013-09-11T10:25:29Z</time>
      </trkpt>
      <trkpt lat="42.44894958101213" lon="13.553173150867224">
        <ele>2412.5700000000002</ele>
        <time>2013-09-11T10:25:39Z</time>
      </trkpt>
      <trkpt lat="42.448901636525989" lon="13.55314607731998">
        <ele>2411.5999999999999</ele>
        <time>2013-09-11T10:25:45Z</time>
      </trkpt>
      <trkpt lat="42.448858553543687" lon="13.553105844184756">
        <ele>2409.1999999999998</ele>
        <time>2013-09-11T10:25:51Z</time>
      </trkpt>
      <trkpt lat="42.448825780302286" lon="13.553092516958714">
        <ele>2408.2399999999998</ele>
        <time>2013-09-11T10:25:55Z</time>
      </trkpt>
      <trkpt lat="42.448805831372738" lon="13.553071729838848">
        <ele>2404.8800000000001</ele>
        <time>2013-09-11T10:25:58Z</time>
      </trkpt>
      <trkpt lat="42.4487922526896" lon="13.55306401848793">
        <ele>2404.3899999999999</ele>
        <time>2013-09-11T10:26:00Z</time>
      </trkpt>
      <trkpt lat="42.448782613500953" lon="13.553061336278915">
        <ele>2404.3899999999999</ele>
        <time>2013-09-11T10:26:01Z</time>
      </trkpt>
      <trkpt lat="42.448713462799788" lon="13.553012302145362">
        <ele>2403.9099999999999</ele>
        <time>2013-09-11T10:26:10Z</time>
      </trkpt>
      <trkpt lat="42.448612879961729" lon="13.552920687943697">
        <ele>2403.9099999999999</ele>
        <time>2013-09-11T10:26:24Z</time>
      </trkpt>
      <trkpt lat="42.448597457259893" lon="13.55290618725121">
        <ele>2401.5100000000002</ele>
        <time>2013-09-11T10:26:26Z</time>
      </trkpt>
      <trkpt lat="42.448548674583435" lon="13.552856901660562">
        <ele>2400.5500000000002</ele>
        <time>2013-09-11T10:26:33Z</time>
      </trkpt>
      <trkpt lat="42.448518751189113" lon="13.552841227501631">
        <ele>2399.5900000000001</ele>
        <time>2013-09-11T10:26:36Z</time>
      </trkpt>
      <trkpt lat="42.448433255776763" lon="13.552697394043207">
        <ele>2395.7399999999998</ele>
        <time>2013-09-11T10:26:49Z</time>
      </trkpt>
      <trkpt lat="42.448429483920336" lon="13.552682306617498">
        <ele>2395.2600000000002</ele>
        <time>2013-09-11T10:26:50Z</time>
      </trkpt>
      <trkpt lat="42.448377013206482" lon="13.552477201446891">
        <ele>2398.6300000000001</ele>
        <time>2013-09-11T10:27:05Z</time>
      </trkpt>
      <trkpt lat="42.448338204994798" lon="13.552412241697311">
        <ele>2397.1799999999998</ele>
        <time>2013-09-11T10:27:11Z</time>
      </trkpt>
      <trkpt lat="42.448323871940374" lon="13.552377624437213">
        <ele>2396.2199999999998</ele>
        <time>2013-09-11T10:27:14Z</time>
      </trkpt>
      <trkpt lat="42.448296714574099" lon="13.552347449585795">
        <ele>2394.3000000000002</ele>
        <time>2013-09-11T10:27:17Z</time>
      </trkpt>
      <trkpt lat="42.448268719017506" lon="13.552316268905997">
        <ele>2392.8600000000001</ele>
        <time>2013-09-11T10:27:20Z</time>
      </trkpt>
      <trkpt lat="42.448220690712333" lon="13.552141170948744">
        <ele>2393.8200000000002</ele>
        <time>2013-09-11T10:27:35Z</time>
      </trkpt>
      <trkpt lat="42.448217673227191" lon="13.552110912278295">
        <ele>2397.6700000000001</ele>
        <time>2013-09-11T10:27:37Z</time>
      </trkpt>
      <trkpt lat="42.448215577751398" lon="13.552064644172788">
        <ele>2395.2600000000002</ele>
        <time>2013-09-11T10:27:40Z</time>
      </trkpt>
      <trkpt lat="42.448197640478611" lon="13.551991637796164">
        <ele>2394.7800000000002</ele>
        <time>2013-09-11T10:27:46Z</time>
      </trkpt>
      <trkpt lat="42.448148690164089" lon="13.55195090174675">
        <ele>2392.8600000000001</ele>
        <time>2013-09-11T10:27:52Z</time>
      </trkpt>
      <trkpt lat="42.448138212785125" lon="13.551951320841908">
        <ele>2396.2199999999998</ele>
        <time>2013-09-11T10:27:54Z</time>
      </trkpt>
      <trkpt lat="42.448135865852237" lon="13.551954757422209">
        <ele>2397.1799999999998</ele>
        <time>2013-09-11T10:27:55Z</time>
      </trkpt>
      <trkpt lat="42.448136620223522" lon="13.551961127668619">
        <ele>2395.2600000000002</ele>
        <time>2013-09-11T10:27:57Z</time>
      </trkpt>
      <trkpt lat="42.448155814781785" lon="13.552018292248249">
        <ele>2392.3800000000001</ele>
        <time>2013-09-11T10:28:03Z</time>
      </trkpt>
      <trkpt lat="42.4481584969908" lon="13.552027009427547">
        <ele>2392.3800000000001</ele>
        <time>2013-09-11T10:28:04Z</time>
      </trkpt>
      <trkpt lat="42.448162520304322" lon="13.552040252834558">
        <ele>2388.0500000000002</ele>
        <time>2013-09-11T10:28:05Z</time>
      </trkpt>
      <trkpt lat="42.448165202513337" lon="13.552048970013857">
        <ele>2387.5700000000002</ele>
        <time>2013-09-11T10:28:06Z</time>
      </trkpt>
      <trkpt lat="42.448175260797143" lon="13.552081743255258">
        <ele>2389.9699999999998</ele>
        <time>2013-09-11T10:28:09Z</time>
      </trkpt>
      <trkpt lat="42.448178613558412" lon="13.552092723548412">
        <ele>2391.4200000000001</ele>
        <time>2013-09-11T10:28:10Z</time>
      </trkpt>
      <trkpt lat="42.448183475062251" lon="13.552108397707343">
        <ele>2387.5700000000002</ele>
        <time>2013-09-11T10:28:11Z</time>
      </trkpt>
      <trkpt lat="42.448185486719012" lon="13.552114935591817">
        <ele>2387.5700000000002</ele>
        <time>2013-09-11T10:28:12Z</time>
      </trkpt>
      <trkpt lat="42.448188839480281" lon="13.552125915884972">
        <ele>2386.1300000000001</ele>
        <time>2013-09-11T10:28:13Z</time>
      </trkpt>
      <trkpt lat="42.448192192241549" lon="13.552136812359095">
        <ele>2389.4899999999998</ele>
        <time>2013-09-11T10:28:14Z</time>
      </trkpt>
      <trkpt lat="42.448208704590797" lon="13.552190624177456">
        <ele>2388.5300000000002</ele>
        <time>2013-09-11T10:28:19Z</time>
      </trkpt>
      <trkpt lat="42.448212057352066" lon="13.552201604470611">
        <ele>2389.9699999999998</ele>
        <time>2013-09-11T10:28:20Z</time>
      </trkpt>
      <trkpt lat="42.448215410113335" lon="13.552212584763765">
        <ele>2391.9000000000001</ele>
        <time>2013-09-11T10:28:21Z</time>
      </trkpt>
      <trkpt lat="42.448242399841547" lon="13.552300510928035">
        <ele>2394.3000000000002</ele>
        <time>2013-09-11T10:28:29Z</time>
      </trkpt>
      <trkpt lat="42.448130417615175" lon="13.551986776292324">
        <ele>2392.3800000000001</ele>
        <time>2013-09-11T12:25:45Z</time>
      </trkpt>
      <trkpt lat="42.448137123137712" lon="13.55196850374341">
        <ele>2391.9000000000001</ele>
        <time>2013-09-11T12:25:48Z</time>
      </trkpt>
      <trkpt lat="42.448143241927028" lon="13.551976550370455">
        <ele>2394.3000000000002</ele>
        <time>2013-09-11T12:25:49Z</time>
      </trkpt>
      <trkpt lat="42.448155814781785" lon="13.552014101296663">
        <ele>2403.4299999999998</ele>
        <time>2013-09-11T12:25:51Z</time>
      </trkpt>
      <trkpt lat="42.448169644922018" lon="13.552042851224542">
        <ele>2397.6700000000001</ele>
        <time>2013-09-11T12:25:55Z</time>
      </trkpt>
      <trkpt lat="42.448177020996809" lon="13.552044946700335">
        <ele>2397.1799999999998</ele>
        <time>2013-09-11T12:25:56Z</time>
      </trkpt>
      <trkpt lat="42.448133435100317" lon="13.552075121551752">
        <ele>2392.8600000000001</ele>
        <time>2013-09-11T12:26:00Z</time>
      </trkpt>
      <trkpt lat="42.44816092774272" lon="13.552154917269945">
        <ele>2389.9699999999998</ele>
        <time>2013-09-11T12:26:12Z</time>
      </trkpt>
      <trkpt lat="42.448181044310331" lon="13.55218693614006">
        <ele>2391.4200000000001</ele>
        <time>2013-09-11T12:26:15Z</time>
      </trkpt>
      <trkpt lat="42.448182050138712" lon="13.552196491509676">
        <ele>2390.46</ele>
        <time>2013-09-11T12:26:16Z</time>
      </trkpt>
      <trkpt lat="42.44816729798913" lon="13.552299505099654">
        <ele>2387.0900000000001</ele>
        <time>2013-09-11T12:26:26Z</time>
      </trkpt>
      <trkpt lat="42.448181044310331" lon="13.552355580031872">
        <ele>2388.0500000000002</ele>
        <time>2013-09-11T12:26:30Z</time>
      </trkpt>
      <trkpt lat="42.448185738176107" lon="13.552462449297309">
        <ele>2384.21</ele>
        <time>2013-09-11T12:26:38Z</time>
      </trkpt>
      <trkpt lat="42.448150785639882" lon="13.552489103749394">
        <ele>2387.5700000000002</ele>
        <time>2013-09-11T12:26:44Z</time>
      </trkpt>
      <trkpt lat="42.448071073740721" lon="13.55238726362586">
        <ele>2385.1700000000001</ele>
        <time>2013-09-11T12:26:56Z</time>
      </trkpt>
      <trkpt lat="42.448072163388133" lon="13.552404446527362">
        <ele>2383.25</ele>
        <time>2013-09-11T12:26:59Z</time>
      </trkpt>
      <trkpt lat="42.448070906102657" lon="13.552406206727028">
        <ele>2382.2800000000002</ele>
        <time>2013-09-11T12:27:09Z</time>
      </trkpt>
      <trkpt lat="42.448061937466264" lon="13.552417438477278">
        <ele>2382.2800000000002</ele>
        <time>2013-09-11T12:27:25Z</time>
      </trkpt>
      <trkpt lat="42.448062775656581" lon="13.552420623600483">
        <ele>2384.21</ele>
        <time>2013-09-11T12:27:31Z</time>
      </trkpt>
      <trkpt lat="42.448061350733042" lon="13.552407883107662">
        <ele>2382.7600000000002</ele>
        <time>2013-09-11T12:27:34Z</time>
      </trkpt>
      <trkpt lat="42.448040228337049" lon="13.552395226433873">
        <ele>2386.6100000000001</ele>
        <time>2013-09-11T12:27:38Z</time>
      </trkpt>
      <trkpt lat="42.448037043213844" lon="13.552387766540051">
        <ele>2385.6500000000001</ele>
        <time>2013-09-11T12:27:39Z</time>
      </trkpt>
      <trkpt lat="42.448021536692977" lon="13.55237552896142">
        <ele>2384.6900000000001</ele>
        <time>2013-09-11T12:27:46Z</time>
      </trkpt>
      <trkpt lat="42.447978286072612" lon="13.552335212007165">
        <ele>2382.2800000000002</ele>
        <time>2013-09-11T12:27:50Z</time>
      </trkpt>
      <trkpt lat="42.447968814522028" lon="13.552322639152408">
        <ele>2382.7600000000002</ele>
        <time>2013-09-11T12:27:51Z</time>
      </trkpt>
      <trkpt lat="42.447942579165101" lon="13.55231249704957">
        <ele>2382.2800000000002</ele>
        <time>2013-09-11T12:27:54Z</time>
      </trkpt>
      <trkpt lat="42.44790586642921" lon="13.552483906969428">
        <ele>2377.48</ele>
        <time>2013-09-11T12:28:02Z</time>
      </trkpt>
      <trkpt lat="42.447896478697658" lon="13.552567977458239">
        <ele>2377</ele>
        <time>2013-09-11T12:28:07Z</time>
      </trkpt>
      <trkpt lat="42.447926066815853" lon="13.552680965512991">
        <ele>2375.0700000000002</ele>
        <time>2013-09-11T12:28:13Z</time>
      </trkpt>
      <trkpt lat="42.447900669649243" lon="13.552738549187779">
        <ele>2373.1500000000001</ele>
        <time>2013-09-11T12:28:23Z</time>
      </trkpt>
      <trkpt lat="42.447878960520029" lon="13.552707200869918">
        <ele>2372.1900000000001</ele>
        <time>2013-09-11T12:28:25Z</time>
      </trkpt>
      <trkpt lat="42.447866136208177" lon="13.552703931927681">
        <ele>2371.71</ele>
        <time>2013-09-11T12:28:27Z</time>
      </trkpt>
      <trkpt lat="42.447880385443568" lon="13.552819015458226">
        <ele>2368.3499999999999</ele>
        <time>2013-09-11T12:28:33Z</time>
      </trkpt>
      <trkpt lat="42.447900837287307" lon="13.552874838933349">
        <ele>2364.5</ele>
        <time>2013-09-11T12:28:38Z</time>
      </trkpt>
      <trkpt lat="42.447914583608508" lon="13.552898978814483">
        <ele>2368.3499999999999</ele>
        <time>2013-09-11T12:28:41Z</time>
      </trkpt>
      <trkpt lat="42.447914918884635" lon="13.552898643538356">
        <ele>2365.46</ele>
        <time>2013-09-11T12:28:42Z</time>
      </trkpt>
      <trkpt lat="42.447914415970445" lon="13.553053038194776">
        <ele>2363.54</ele>
        <time>2013-09-11T12:28:56Z</time>
      </trkpt>
      <trkpt lat="42.447906704619527" lon="13.553126128390431">
        <ele>2363.0599999999999</ele>
        <time>2013-09-11T12:29:01Z</time>
      </trkpt>
      <trkpt lat="42.447906453162432" lon="13.553183628246188">
        <ele>2360.1700000000001</ele>
        <time>2013-09-11T12:29:05Z</time>
      </trkpt>
      <trkpt lat="42.447905279695988" lon="13.55327314697206">
        <ele>2359.21</ele>
        <time>2013-09-11T12:29:12Z</time>
      </trkpt>
      <trkpt lat="42.447915002703667" lon="13.553311703726649">
        <ele>2359.21</ele>
        <time>2013-09-11T12:29:15Z</time>
      </trkpt>
      <trkpt lat="42.447953308001161" lon="13.553485125303268">
        <ele>2355.3699999999999</ele>
        <time>2013-09-11T12:29:29Z</time>
      </trkpt>
      <trkpt lat="42.44797476567328" lon="13.553561232984066">
        <ele>2355.8499999999999</ele>
        <time>2013-09-11T12:29:36Z</time>
      </trkpt>
      <trkpt lat="42.447974095121026" lon="13.55359710752964">
        <ele>2356.8099999999999</ele>
        <time>2013-09-11T12:29:39Z</time>
      </trkpt>
      <trkpt lat="42.447991697117686" lon="13.553669527173042">
        <ele>2355.8499999999999</ele>
        <time>2013-09-11T12:29:44Z</time>
      </trkpt>
      <trkpt lat="42.447965377941728" lon="13.553677909076214">
        <ele>2355.3699999999999</ele>
        <time>2013-09-11T12:29:48Z</time>
      </trkpt>
      <trkpt lat="42.44786680676043" lon="13.553572548553348">
        <ele>2351.52</ele>
        <time>2013-09-11T12:29:58Z</time>
      </trkpt>
      <trkpt lat="42.447859095409513" lon="13.553561484441161">
        <ele>2352</ele>
        <time>2013-09-11T12:29:59Z</time>
      </trkpt>
      <trkpt lat="42.447850964963436" lon="13.553551426157355">
        <ele>2354.4099999999999</ele>
        <time>2013-09-11T12:30:00Z</time>
      </trkpt>
      <trkpt lat="42.447840739041567" lon="13.553548157215118">
        <ele>2352.96</ele>
        <time>2013-09-11T12:30:02Z</time>
      </trkpt>
      <trkpt lat="42.44788633659482" lon="13.553688889369369">
        <ele>2349.5999999999999</ele>
        <time>2013-09-11T12:30:11Z</time>
      </trkpt>
      <trkpt lat="42.447894383221865" lon="13.553725853562355">
        <ele>2348.6399999999999</ele>
        <time>2013-09-11T12:30:13Z</time>
      </trkpt>
      <trkpt lat="42.447883822023869" lon="13.553822916001081">
        <ele>2349.5999999999999</ele>
        <time>2013-09-11T12:30:24Z</time>
      </trkpt>
      <trkpt lat="42.447825651615858" lon="13.553753262385726">
        <ele>2346.23</ele>
        <time>2013-09-11T12:30:29Z</time>
      </trkpt>
      <trkpt lat="42.447808971628547" lon="13.553733061999083">
        <ele>2343.8299999999999</ele>
        <time>2013-09-11T12:30:31Z</time>
      </trkpt>
      <trkpt lat="42.447795476764441" lon="13.553713532164693">
        <ele>2340.9499999999998</ele>
        <time>2013-09-11T12:30:33Z</time>
      </trkpt>
      <trkpt lat="42.44777787476778" lon="13.553692577406764">
        <ele>2344.79</ele>
        <time>2013-09-11T12:30:35Z</time>
      </trkpt>
      <trkpt lat="42.447770498692989" lon="13.553681764751673">
        <ele>2344.79</ele>
        <time>2013-09-11T12:30:36Z</time>
      </trkpt>
      <trkpt lat="42.447757758200169" lon="13.553669275715947">
        <ele>2342.3899999999999</ele>
        <time>2013-09-11T12:30:38Z</time>
      </trkpt>
      <trkpt lat="42.44774803519249" lon="13.553657624870539">
        <ele>2342.3899999999999</ele>
        <time>2013-09-11T12:30:41Z</time>
      </trkpt>
      <trkpt lat="42.447740407660604" lon="13.553638346493244">
        <ele>2339.9899999999998</ele>
        <time>2013-09-11T12:30:43Z</time>
      </trkpt>
      <trkpt lat="42.447721045464277" lon="13.553653182461858">
        <ele>2344.3099999999999</ele>
        <time>2013-09-11T12:30:46Z</time>
      </trkpt>
      <trkpt lat="42.447752058506012" lon="13.553742282092571">
        <ele>2340.4699999999998</ele>
        <time>2013-09-11T12:30:53Z</time>
      </trkpt>
      <trkpt lat="42.447758344933391" lon="13.553847810253501">
        <ele>2339.9899999999998</ele>
        <time>2013-09-11T12:31:06Z</time>
      </trkpt>
      <trkpt lat="42.447788687422872" lon="13.553951662033796">
        <ele>2339.5100000000002</ele>
        <time>2013-09-11T12:31:18Z</time>
      </trkpt>
      <trkpt lat="42.447763038799167" lon="13.5539894644171">
        <ele>2338.0599999999999</ele>
        <time>2013-09-11T12:31:31Z</time>
      </trkpt>
      <trkpt lat="42.447739318013191" lon="13.553967671468854">
        <ele>2336.6199999999999</ele>
        <time>2013-09-11T12:31:33Z</time>
      </trkpt>
      <trkpt lat="42.447676872834563" lon="13.553881086409092">
        <ele>2332.3000000000002</ele>
        <time>2013-09-11T12:31:43Z</time>
      </trkpt>
      <trkpt lat="42.447676956653595" lon="13.553864238783717">
        <ele>2327.9699999999998</ele>
        <time>2013-09-11T12:31:45Z</time>
      </trkpt>
      <trkpt lat="42.447675615549088" lon="13.553857784718275">
        <ele>2331.3299999999999</ele>
        <time>2013-09-11T12:31:46Z</time>
      </trkpt>
      <trkpt lat="42.44767377153039" lon="13.553862562403083">
        <ele>2332.3000000000002</ele>
        <time>2013-09-11T12:31:48Z</time>
      </trkpt>
      <trkpt lat="42.447663713246584" lon="13.553881673142314">
        <ele>2333.2600000000002</ele>
        <time>2013-09-11T12:32:02Z</time>
      </trkpt>
      <trkpt lat="42.447661785408854" lon="13.553890725597739">
        <ele>2334.6999999999998</ele>
        <time>2013-09-11T12:32:06Z</time>
      </trkpt>
      <trkpt lat="42.447658181190491" lon="13.553913440555334">
        <ele>2336.6199999999999</ele>
        <time>2013-09-11T12:32:14Z</time>
      </trkpt>
      <trkpt lat="42.447666814550757" lon="13.553927857428789">
        <ele>2333.2600000000002</ele>
        <time>2013-09-11T12:32:25Z</time>
      </trkpt>
      <trkpt lat="42.447651140391827" lon="13.55394009500742">
        <ele>2336.1399999999999</ele>
        <time>2013-09-11T12:32:32Z</time>
      </trkpt>
      <trkpt lat="42.447621636092663" lon="13.553926600143313">
        <ele>2331.8099999999999</ele>
        <time>2013-09-11T12:32:37Z</time>
      </trkpt>
      <trkpt lat="42.447603866457939" lon="13.553886534646153">
        <ele>2335.1799999999998</ele>
        <time>2013-09-11T12:32:42Z</time>
      </trkpt>
      <trkpt lat="42.44759020395577" lon="13.553899526596069">
        <ele>2335.6599999999999</ele>
        <time>2013-09-11T12:32:44Z</time>
      </trkpt>
      <trkpt lat="42.447588611394167" lon="13.553914614021778">
        <ele>2335.1799999999998</ele>
        <time>2013-09-11T12:32:45Z</time>
      </trkpt>
      <trkpt lat="42.447617780417204" lon="13.55397236533463">
        <ele>2330.3699999999999</ele>
        <time>2013-09-11T12:32:50Z</time>
      </trkpt>
      <trkpt lat="42.44763370603323" lon="13.554002121090889">
        <ele>2332.3000000000002</ele>
        <time>2013-09-11T12:32:54Z</time>
      </trkpt>
      <trkpt lat="42.447634544223547" lon="13.554027434438467">
        <ele>2329.8899999999999</ele>
        <time>2013-09-11T12:32:57Z</time>
      </trkpt>
      <trkpt lat="42.447682991623878" lon="13.554216949269176">
        <ele>2327.4899999999998</ele>
        <time>2013-09-11T12:33:15Z</time>
      </trkpt>
      <trkpt lat="42.447725320234895" lon="13.55432859621942">
        <ele>2324.1199999999999</ele>
        <time>2013-09-11T12:33:27Z</time>
      </trkpt>
      <trkpt lat="42.447704365476966" lon="13.55433102697134">
        <ele>2324.6100000000001</ele>
        <time>2013-09-11T12:33:29Z</time>
      </trkpt>
      <trkpt lat="42.44763320311904" lon="13.554267659783363">
        <ele>2327.0100000000002</ele>
        <time>2013-09-11T12:33:36Z</time>
      </trkpt>
      <trkpt lat="42.447613421827555" lon="13.55424796231091">
        <ele>2321.7199999999998</ele>
        <time>2013-09-11T12:33:38Z</time>
      </trkpt>
      <trkpt lat="42.447603531181812" lon="13.554237568750978">
        <ele>2323.1599999999999</ele>
        <time>2013-09-11T12:33:39Z</time>
      </trkpt>
      <trkpt lat="42.447546366602182" lon="13.554167579859495">
        <ele>2318.8400000000001</ele>
        <time>2013-09-11T12:33:46Z</time>
      </trkpt>
      <trkpt lat="42.447537900879979" lon="13.554154923185706">
        <ele>2319.3200000000002</ele>
        <time>2013-09-11T12:33:47Z</time>
      </trkpt>
      <trkpt lat="42.447499260306358" lon="13.554107146337628">
        <ele>2319.3200000000002</ele>
        <time>2013-09-11T12:33:52Z</time>
      </trkpt>
      <trkpt lat="42.447440084069967" lon="13.554031625390053">
        <ele>2315.9499999999998</ele>
        <time>2013-09-11T12:33:59Z</time>
      </trkpt>
      <trkpt lat="42.447431534528732" lon="13.554020812734962">
        <ele>2316.4299999999998</ele>
        <time>2013-09-11T12:34:00Z</time>
      </trkpt>
      <trkpt lat="42.447390211746097" lon="13.553977645933628">
        <ele>2311.6300000000001</ele>
        <time>2013-09-11T12:34:05Z</time>
      </trkpt>
      <trkpt lat="42.447383254766464" lon="13.553971610963345">
        <ele>2313.5500000000002</ele>
        <time>2013-09-11T12:34:06Z</time>
      </trkpt>
      <trkpt lat="42.447361294180155" lon="13.553948393091559">
        <ele>2314.0300000000002</ele>
        <time>2013-09-11T12:34:11Z</time>
      </trkpt>
      <trkpt lat="42.447361880913377" lon="13.553964486345649">
        <ele>2314.0300000000002</ele>
        <time>2013-09-11T12:34:12Z</time>
      </trkpt>
      <trkpt lat="42.447390211746097" lon="13.554027685895562">
        <ele>2312.1100000000001</ele>
        <time>2013-09-11T12:34:16Z</time>
      </trkpt>
      <trkpt lat="42.447455171495676" lon="13.554268414154649">
        <ele>2311.6300000000001</ele>
        <time>2013-09-11T12:34:32Z</time>
      </trkpt>
      <trkpt lat="42.447546198964119" lon="13.554497240111232">
        <ele>2312.1100000000001</ele>
        <time>2013-09-11T12:34:49Z</time>
      </trkpt>
      <trkpt lat="42.447553491219878" lon="13.554522804915905">
        <ele>2309.6999999999998</ele>
        <time>2013-09-11T12:34:52Z</time>
      </trkpt>
      <trkpt lat="42.4475731048733" lon="13.554592709988356">
        <ele>2308.7399999999998</ele>
        <time>2013-09-11T12:34:59Z</time>
      </trkpt>
      <trkpt lat="42.447569081559777" lon="13.554619448259473">
        <ele>2308.2600000000002</ele>
        <time>2013-09-11T12:35:01Z</time>
      </trkpt>
      <trkpt lat="42.447544019669294" lon="13.554616095498204">
        <ele>2309.2199999999998</ele>
        <time>2013-09-11T12:35:03Z</time>
      </trkpt>
      <trkpt lat="42.447520298883319" lon="13.55460662394762">
        <ele>2306.3400000000001</ele>
        <time>2013-09-11T12:35:05Z</time>
      </trkpt>
      <trkpt lat="42.44749641045928" lon="13.554590279236436">
        <ele>2305.3800000000001</ele>
        <time>2013-09-11T12:35:07Z</time>
      </trkpt>
      <trkpt lat="42.447442598640919" lon="13.55455381795764">
        <ele>2307.7800000000002</ele>
        <time>2013-09-11T12:35:12Z</time>
      </trkpt>
      <trkpt lat="42.447408819571137" lon="13.554521128535271">
        <ele>2306.3400000000001</ele>
        <time>2013-09-11T12:35:16Z</time>
      </trkpt>
      <trkpt lat="42.447350900620222" lon="13.55450352653861">
        <ele>2305.8600000000001</ele>
        <time>2013-09-11T12:35:24Z</time>
      </trkpt>
      <trkpt lat="42.447364395484328" lon="13.554556835442781">
        <ele>2303.9400000000001</ele>
        <time>2013-09-11T12:35:27Z</time>
      </trkpt>
      <trkpt lat="42.44738400913775" lon="13.554606540128589">
        <ele>2305.3800000000001</ele>
        <time>2013-09-11T12:35:30Z</time>
      </trkpt>
      <trkpt lat="42.447439413517714" lon="13.554767053574324">
        <ele>2302.4899999999998</ele>
        <time>2013-09-11T12:35:44Z</time>
      </trkpt>
      <trkpt lat="42.447466822341084" lon="13.554824888706207">
        <ele>2306.8200000000002</ele>
        <time>2013-09-11T12:35:50Z</time>
      </trkpt>
      <trkpt lat="42.44746757671237" lon="13.554826313629746">
        <ele>2302.98</ele>
        <time>2013-09-11T12:35:51Z</time>
      </trkpt>
      <trkpt lat="42.447472689673305" lon="13.554834108799696">
        <ele>2301.0500000000002</ele>
        <time>2013-09-11T12:35:53Z</time>
      </trkpt>
      <trkpt lat="42.447485262528062" lon="13.554864702746272">
        <ele>2298.1700000000001</ele>
        <time>2013-09-11T12:35:56Z</time>
      </trkpt>
      <trkpt lat="42.447470761835575" lon="13.554885992780328">
        <ele>2298.1700000000001</ele>
        <time>2013-09-11T12:35:59Z</time>
      </trkpt>
      <trkpt lat="42.447391552850604" lon="13.55492178350687">
        <ele>2297.21</ele>
        <time>2013-09-11T12:36:12Z</time>
      </trkpt>
      <trkpt lat="42.447414854541421" lon="13.5549496114254">
        <ele>2293.3600000000001</ele>
        <time>2013-09-11T12:36:16Z</time>
      </trkpt>
      <trkpt lat="42.447412088513374" lon="13.555003171786666">
        <ele>2290</ele>
        <time>2013-09-11T12:36:23Z</time>
      </trkpt>
      <trkpt lat="42.447274625301361" lon="13.555000992491841">
        <ele>2290.96</ele>
        <time>2013-09-11T12:36:38Z</time>
      </trkpt>
      <trkpt lat="42.44731318205595" lon="13.555093025788665">
        <ele>2290</ele>
        <time>2013-09-11T12:36:44Z</time>
      </trkpt>
      <trkpt lat="42.447267081588507" lon="13.555079363286495">
        <ele>2291.4400000000001</ele>
        <time>2013-09-11T12:36:48Z</time>
      </trkpt>
      <trkpt lat="42.447228692471981" lon="13.55504248291254">
        <ele>2288.0799999999999</ele>
        <time>2013-09-11T12:36:51Z</time>
      </trkpt>
      <trkpt lat="42.447190722450614" lon="13.555012810975313">
        <ele>2286.6300000000001</ele>
        <time>2013-09-11T12:36:54Z</time>
      </trkpt>
      <trkpt lat="42.447152752429247" lon="13.554970901459455">
        <ele>2280.3800000000001</ele>
        <time>2013-09-11T12:36:58Z</time>
      </trkpt>
      <trkpt lat="42.447144705802202" lon="13.554963944479823">
        <ele>2286.6300000000001</ele>
        <time>2013-09-11T12:36:59Z</time>
      </trkpt>
      <trkpt lat="42.44710304774344" lon="13.554919352754951">
        <ele>2284.71</ele>
        <time>2013-09-11T12:37:03Z</time>
      </trkpt>
      <trkpt lat="42.447100533172488" lon="13.554929997771978">
        <ele>2285.6700000000001</ele>
        <time>2013-09-11T12:37:05Z</time>
      </trkpt>
      <trkpt lat="42.447133054956794" lon="13.555078692734241">
        <ele>2283.27</ele>
        <time>2013-09-11T12:37:14Z</time>
      </trkpt>
      <trkpt lat="42.44718125090003" lon="13.555255886167288">
        <ele>2280.8699999999999</ele>
        <time>2013-09-11T12:37:27Z</time>
      </trkpt>
      <trkpt lat="42.447196841239929" lon="13.555315062403679">
        <ele>2277.02</ele>
        <time>2013-09-11T12:37:33Z</time>
      </trkpt>
      <trkpt lat="42.447135401889682" lon="13.555338196456432">
        <ele>2277.02</ele>
        <time>2013-09-11T12:37:39Z</time>
      </trkpt>
      <trkpt lat="42.447097850963473" lon="13.555316654965281">
        <ele>2280.3800000000001</ele>
        <time>2013-09-11T12:37:42Z</time>
      </trkpt>
      <trkpt lat="42.447067173197865" lon="13.555305507034063">
        <ele>2276.0599999999999</ele>
        <time>2013-09-11T12:37:45Z</time>
      </trkpt>
      <trkpt lat="42.447037752717733" lon="13.555279020220041">
        <ele>2271.25</ele>
        <time>2013-09-11T12:37:48Z</time>
      </trkpt>
      <trkpt lat="42.447031885385513" lon="13.555268626660109">
        <ele>2271.25</ele>
        <time>2013-09-11T12:37:49Z</time>
      </trkpt>
      <trkpt lat="42.4469980224967" lon="13.555205846205354">
        <ele>2269.3299999999999</ele>
        <time>2013-09-11T12:37:54Z</time>
      </trkpt>
      <trkpt lat="42.446962567046285" lon="13.555164104327559">
        <ele>2268.3699999999999</ele>
        <time>2013-09-11T12:38:01Z</time>
      </trkpt>
      <trkpt lat="42.44695988483727" lon="13.555163936689496">
        <ele>2265.48</ele>
        <time>2013-09-11T12:38:10Z</time>
      </trkpt>
      <trkpt lat="42.446958627551794" lon="13.555167205631733">
        <ele>2267.4099999999999</ele>
        <time>2013-09-11T12:38:13Z</time>
      </trkpt>
      <trkpt lat="42.446952927857637" lon="13.555165445432067">
        <ele>2267.4099999999999</ele>
        <time>2013-09-11T12:38:32Z</time>
      </trkpt>
      <trkpt lat="42.446950832381845" lon="13.555168798193336">
        <ele>2275.0999999999999</ele>
        <time>2013-09-11T12:38:37Z</time>
      </trkpt>
      <trkpt lat="42.446952508762479" lon="13.555165277794003">
        <ele>2272.21</ele>
        <time>2013-09-11T12:38:38Z</time>
      </trkpt>
      <trkpt lat="42.446935828775167" lon="13.555144742131233">
        <ele>2271.25</ele>
        <time>2013-09-11T12:38:40Z</time>
      </trkpt>
      <trkpt lat="42.446925770491362" lon="13.555132253095508">
        <ele>2275.5799999999999</ele>
        <time>2013-09-11T12:38:41Z</time>
      </trkpt>
      <trkpt lat="42.446913784369826" lon="13.555114986374974">
        <ele>2275.5799999999999</ele>
        <time>2013-09-11T12:38:42Z</time>
      </trkpt>
      <trkpt lat="42.446902384981513" lon="13.555095875635743">
        <ele>2273.1700000000001</ele>
        <time>2013-09-11T12:38:43Z</time>
      </trkpt>
      <trkpt lat="42.446856535971165" lon="13.555011050775647">
        <ele>2265.48</ele>
        <time>2013-09-11T12:38:49Z</time>
      </trkpt>
      <trkpt lat="42.446847064420581" lon="13.554997136816382">
        <ele>2265.48</ele>
        <time>2013-09-11T12:38:50Z</time>
      </trkpt>
      <trkpt lat="42.446768609806895" lon="13.554907198995352">
        <ele>2261.6399999999999</ele>
        <time>2013-09-11T12:38:58Z</time>
      </trkpt>
      <trkpt lat="42.446764502674341" lon="13.554891524836421">
        <ele>2263.0799999999999</ele>
        <time>2013-09-11T12:38:59Z</time>
      </trkpt>
      <trkpt lat="42.44668873026967" lon="13.554792031645775">
        <ele>2259.7199999999998</ele>
        <time>2013-09-11T12:39:06Z</time>
      </trkpt>
      <trkpt lat="42.446681102737784" lon="13.55478054843843">
        <ele>2259.2399999999998</ele>
        <time>2013-09-11T12:39:07Z</time>
      </trkpt>
      <trkpt lat="42.446641121059656" lon="13.554725898429751">
        <ele>2256.3499999999999</ele>
        <time>2013-09-11T12:39:12Z</time>
      </trkpt>
      <trkpt lat="42.446587979793549" lon="13.554657837375998">
        <ele>2256.3499999999999</ele>
        <time>2013-09-11T12:39:18Z</time>
      </trkpt>
      <trkpt lat="42.446581609547138" lon="13.55464811436832">
        <ele>2252.9899999999998</ele>
        <time>2013-09-11T12:39:19Z</time>
      </trkpt>
      <trkpt lat="42.446562750265002" lon="13.554630093276501">
        <ele>2258.27</ele>
        <time>2013-09-11T12:39:21Z</time>
      </trkpt>
      <trkpt lat="42.446537269279361" lon="13.554590195417404">
        <ele>2255.3899999999999</ele>
        <time>2013-09-11T12:39:24Z</time>
      </trkpt>
      <trkpt lat="42.446488235145807" lon="13.554543843492866">
        <ele>2252.9899999999998</ele>
        <time>2013-09-11T12:39:30Z</time>
      </trkpt>
      <trkpt lat="42.446495108306408" lon="13.554610228165984">
        <ele>2251.0599999999999</ele>
        <time>2013-09-11T12:39:34Z</time>
      </trkpt>
      <trkpt lat="42.446494186297059" lon="13.55468918569386">
        <ele>2249.6199999999999</ele>
        <time>2013-09-11T12:39:38Z</time>
      </trkpt>
      <trkpt lat="42.446498796343803" lon="13.55487585067749">
        <ele>2246.2600000000002</ele>
        <time>2013-09-11T12:39:48Z</time>
      </trkpt>
      <trkpt lat="42.446486307308078" lon="13.555039130151272">
        <ele>2243.8499999999999</ele>
        <time>2013-09-11T12:39:56Z</time>
      </trkpt>
      <trkpt lat="42.44648982770741" lon="13.555077519267797">
        <ele>2244.3299999999999</ele>
        <time>2013-09-11T12:39:58Z</time>
      </trkpt>
      <trkpt lat="42.446462921798229" lon="13.555214563384652">
        <ele>2242.4099999999999</ele>
        <time>2013-09-11T12:40:06Z</time>
      </trkpt>
      <trkpt lat="42.446456635370851" lon="13.555246414616704">
        <ele>2241.9299999999998</ele>
        <time>2013-09-11T12:40:08Z</time>
      </trkpt>
      <trkpt lat="42.446446660906076" lon="13.555383207276464">
        <ele>2239.5300000000002</ele>
        <time>2013-09-11T12:40:15Z</time>
      </trkpt>
      <trkpt lat="42.446444649249315" lon="13.555401060730219">
        <ele>2239.5300000000002</ele>
        <time>2013-09-11T12:40:16Z</time>
      </trkpt>
      <trkpt lat="42.446428723633289" lon="13.555525448173285">
        <ele>2240.9699999999998</ele>
        <time>2013-09-11T12:40:23Z</time>
      </trkpt>
      <trkpt lat="42.446415815502405" lon="13.555580684915185">
        <ele>2239.0500000000002</ele>
        <time>2013-09-11T12:40:26Z</time>
      </trkpt>
      <trkpt lat="42.446379689499736" lon="13.555769696831703">
        <ele>2234.7199999999998</ele>
        <time>2013-09-11T12:40:35Z</time>
      </trkpt>
      <trkpt lat="42.446341635659337" lon="13.555995672941208">
        <ele>2231.8400000000001</ele>
        <time>2013-09-11T12:40:46Z</time>
      </trkpt>
      <trkpt lat="42.446312382817268" lon="13.556162305176258">
        <ele>2227.9899999999998</ele>
        <time>2013-09-11T12:40:56Z</time>
      </trkpt>
      <trkpt lat="42.446308946236968" lon="13.556181332096457">
        <ele>2227.9899999999998</ele>
        <time>2013-09-11T12:40:57Z</time>
      </trkpt>
      <trkpt lat="42.446252200752497" lon="13.556442596018314">
        <ele>2224.1500000000001</ele>
        <time>2013-09-11T12:41:11Z</time>
      </trkpt>
      <trkpt lat="42.446254044771194" lon="13.556496826931834">
        <ele>2221.7399999999998</ele>
        <time>2013-09-11T12:41:15Z</time>
      </trkpt>
      <trkpt lat="42.446245411410928" lon="13.55655524879694">
        <ele>2218.8600000000001</ele>
        <time>2013-09-11T12:41:21Z</time>
      </trkpt>
      <trkpt lat="42.446200903505087" lon="13.556572180241346">
        <ele>2221.2600000000002</ele>
        <time>2013-09-11T12:41:38Z</time>
      </trkpt>
      <trkpt lat="42.446196377277374" lon="13.55656354688108">
        <ele>2219.8200000000002</ele>
        <time>2013-09-11T12:41:39Z</time>
      </trkpt>
      <trkpt lat="42.446196042001247" lon="13.556566648185253">
        <ele>2218.8600000000001</ele>
        <time>2013-09-11T12:41:51Z</time>
      </trkpt>
      <trkpt lat="42.446196042001247" lon="13.556548627093434">
        <ele>2218.8600000000001</ele>
        <time>2013-09-11T12:42:04Z</time>
      </trkpt>
      <trkpt lat="42.446202412247658" lon="13.556542675942183">
        <ele>2218.8600000000001</ele>
        <time>2013-09-11T12:42:11Z</time>
      </trkpt>
      <trkpt lat="42.446191348135471" lon="13.556574610993266">
        <ele>2220.7800000000002</ele>
        <time>2013-09-11T12:42:15Z</time>
      </trkpt>
      <trkpt lat="42.446142062544823" lon="13.556587351486087">
        <ele>2221.7399999999998</ele>
        <time>2013-09-11T12:42:20Z</time>
      </trkpt>
      <trkpt lat="42.446071403101087" lon="13.556592967361212">
        <ele>2220.3000000000002</ele>
        <time>2013-09-11T12:42:25Z</time>
      </trkpt>
      <trkpt lat="42.446061931550503" lon="13.556598164141178">
        <ele>2216.9400000000001</ele>
        <time>2013-09-11T12:42:27Z</time>
      </trkpt>
      <trkpt lat="42.446053717285395" lon="13.556597912684083">
        <ele>2216.46</ele>
        <time>2013-09-11T12:42:28Z</time>
      </trkpt>
      <trkpt lat="42.446032511070371" lon="13.556597409769893">
        <ele>2219.3400000000001</ele>
        <time>2013-09-11T12:42:30Z</time>
      </trkpt>
      <trkpt lat="42.446010215207934" lon="13.556605540215969">
        <ele>2216.9400000000001</ele>
        <time>2013-09-11T12:42:32Z</time>
      </trkpt>
      <trkpt lat="42.445989679545164" lon="13.556623896583915">
        <ele>2214.0500000000002</ele>
        <time>2013-09-11T12:42:34Z</time>
      </trkpt>
      <trkpt lat="42.445944836363196" lon="13.556655663996935">
        <ele>2211.6500000000001</ele>
        <time>2013-09-11T12:42:38Z</time>
      </trkpt>
      <trkpt lat="42.445904100313783" lon="13.556669661775231">
        <ele>2213.0900000000001</ele>
        <time>2013-09-11T12:42:41Z</time>
      </trkpt>
      <trkpt lat="42.445827322080731" lon="13.556723557412624">
        <ele>2211.1700000000001</ele>
        <time>2013-09-11T12:42:46Z</time>
      </trkpt>
      <trkpt lat="42.445796057581902" lon="13.556740740314126">
        <ele>2206.3600000000001</ele>
        <time>2013-09-11T12:42:48Z</time>
      </trkpt>
      <trkpt lat="42.445780551061034" lon="13.55674535036087">
        <ele>2206.3600000000001</ele>
        <time>2013-09-11T12:42:49Z</time>
      </trkpt>
      <trkpt lat="42.44576420634985" lon="13.55674778111279">
        <ele>2205.8800000000001</ele>
        <time>2013-09-11T12:42:50Z</time>
      </trkpt>
      <trkpt lat="42.445731936022639" lon="13.556750630959868">
        <ele>2204.9200000000001</ele>
        <time>2013-09-11T12:42:52Z</time>
      </trkpt>
      <trkpt lat="42.445714166387916" lon="13.55676680803299">
        <ele>2203.48</ele>
        <time>2013-09-11T12:42:54Z</time>
      </trkpt>
      <trkpt lat="42.445712490007281" lon="13.556861355900764">
        <ele>2203</ele>
        <time>2013-09-11T12:42:59Z</time>
      </trkpt>
      <trkpt lat="42.445715507492423" lon="13.556981887668371">
        <ele>2198.6700000000001</ele>
        <time>2013-09-11T12:43:05Z</time>
      </trkpt>
      <trkpt lat="42.445716513320804" lon="13.556999992579222">
        <ele>2199.1500000000001</ele>
        <time>2013-09-11T12:43:06Z</time>
      </trkpt>
      <trkpt lat="42.445689020678401" lon="13.557024467736483">
        <ele>2197.23</ele>
        <time>2013-09-11T12:43:09Z</time>
      </trkpt>
      <trkpt lat="42.445639818906784" lon="13.557014912366867">
        <ele>2197.71</ele>
        <time>2013-09-11T12:43:14Z</time>
      </trkpt>
      <trkpt lat="42.445542337372899" lon="13.556971829384565">
        <ele>2195.79</ele>
        <time>2013-09-11T12:43:23Z</time>
      </trkpt>
      <trkpt lat="42.445428846403956" lon="13.556956155225635">
        <ele>2187.6199999999999</ele>
        <time>2013-09-11T12:43:34Z</time>
      </trkpt>
      <trkpt lat="42.445426750928164" lon="13.556948360055685">
        <ele>2187.6199999999999</ele>
        <time>2013-09-11T12:43:35Z</time>
      </trkpt>
      <trkpt lat="42.445422392338514" lon="13.556930841878057">
        <ele>2191.46</ele>
        <time>2013-09-11T12:43:37Z</time>
      </trkpt>
      <trkpt lat="42.445416860282421" lon="13.556926567107439">
        <ele>2190.5</ele>
        <time>2013-09-11T12:43:38Z</time>
      </trkpt>
      <trkpt lat="42.445363802835345" lon="13.55694810859859">
        <ele>2189.54</ele>
        <time>2013-09-11T12:43:47Z</time>
      </trkpt>
      <trkpt lat="42.445209575816989" lon="13.557071909308434">
        <ele>2184.73</ele>
        <time>2013-09-11T12:44:06Z</time>
      </trkpt>
      <trkpt lat="42.445113183930516" lon="13.55718900449574">
        <ele>2183.77</ele>
        <time>2013-09-11T12:44:21Z</time>
      </trkpt>
      <trkpt lat="42.445105221122503" lon="13.557228483259678">
        <ele>2180.4099999999999</ele>
        <time>2013-09-11T12:44:25Z</time>
      </trkpt>
      <trkpt lat="42.445097342133522" lon="13.557290257886052">
        <ele>2178.9699999999998</ele>
        <time>2013-09-11T12:44:30Z</time>
      </trkpt>
      <trkpt lat="42.445062976330519" lon="13.557354547083378">
        <ele>2180.4099999999999</ele>
        <time>2013-09-11T12:44:36Z</time>
      </trkpt>
      <trkpt lat="42.445036992430687" lon="13.557380782440305">
        <ele>2179.9299999999998</ele>
        <time>2013-09-11T12:44:39Z</time>
      </trkpt>
      <trkpt lat="42.444963566958904" lon="13.557423111051321">
        <ele>2182.3299999999999</ele>
        <time>2013-09-11T12:44:46Z</time>
      </trkpt>
      <trkpt lat="42.444928698241711" lon="13.557440042495728">
        <ele>2185.6900000000001</ele>
        <time>2013-09-11T12:44:50Z</time>
      </trkpt>
      <trkpt lat="42.444940013810992" lon="13.557430235669017">
        <ele>2178.48</ele>
        <time>2013-09-11T12:44:54Z</time>
      </trkpt>
      <trkpt lat="42.444943282753229" lon="13.557428056374192">
        <ele>2172.2399999999998</ele>
        <time>2013-09-11T12:44:55Z</time>
      </trkpt>
      <trkpt lat="42.444945042952895" lon="13.557432498782873">
        <ele>2182.8099999999999</ele>
        <time>2013-09-11T12:44:56Z</time>
      </trkpt>
      <trkpt lat="42.444950491189957" lon="13.557425960898399">
        <ele>2181.8499999999999</ele>
        <time>2013-09-11T12:44:57Z</time>
      </trkpt>
      <trkpt lat="42.444951916113496" lon="13.557431157678366">
        <ele>2180.8899999999999</ele>
        <time>2013-09-11T12:44:59Z</time>
      </trkpt>
      <trkpt lat="42.444894332438707" lon="13.557422943413258">
        <ele>2178</ele>
        <time>2013-09-11T12:45:04Z</time>
      </trkpt>
      <trkpt lat="42.444873545318842" lon="13.557431492954493">
        <ele>2176.5599999999999</ele>
        <time>2013-09-11T12:45:06Z</time>
      </trkpt>
      <trkpt lat="42.444857787340879" lon="13.557448508217931">
        <ele>2175.5999999999999</ele>
        <time>2013-09-11T12:45:08Z</time>
      </trkpt>
      <trkpt lat="42.44481042958796" lon="13.557528806850314">
        <ele>2174.6399999999999</ele>
        <time>2013-09-11T12:45:15Z</time>
      </trkpt>
      <trkpt lat="42.444778829813004" lon="13.557544564828277">
        <ele>2176.5599999999999</ele>
        <time>2013-09-11T12:45:18Z</time>
      </trkpt>
      <trkpt lat="42.444703141227365" lon="13.557526040822268">
        <ele>2179.9299999999998</ele>
        <time>2013-09-11T12:45:25Z</time>
      </trkpt>
      <trkpt lat="42.444694675505161" lon="13.557524364441633">
        <ele>2179.9299999999998</ele>
        <time>2013-09-11T12:45:26Z</time>
      </trkpt>
      <trkpt lat="42.444686461240053" lon="13.557522017508745">
        <ele>2177.04</ele>
        <time>2013-09-11T12:45:27Z</time>
      </trkpt>
      <trkpt lat="42.444667601957917" lon="13.557529058307409">
        <ele>2175.5999999999999</ele>
        <time>2013-09-11T12:45:29Z</time>
      </trkpt>
      <trkpt lat="42.444630051031709" lon="13.557522939518094">
        <ele>2179.4499999999998</ele>
        <time>2013-09-11T12:45:33Z</time>
      </trkpt>
      <trkpt lat="42.444621920585632" lon="13.55752176605165">
        <ele>2178</ele>
        <time>2013-09-11T12:45:36Z</time>
      </trkpt>
      <trkpt lat="42.444623513147235" lon="13.55751883238554">
        <ele>2174.1599999999999</ele>
        <time>2013-09-11T12:45:38Z</time>
      </trkpt>
      <trkpt lat="42.44462569244206" lon="13.557522352784872">
        <ele>2174.6399999999999</ele>
        <time>2013-09-11T12:45:39Z</time>
      </trkpt>
      <trkpt lat="42.444629212841392" lon="13.557515563443303">
        <ele>2171.7600000000002</ele>
        <time>2013-09-11T12:45:41Z</time>
      </trkpt>
      <trkpt lat="42.444631140679121" lon="13.557512713596225">
        <ele>2171.7600000000002</ele>
        <time>2013-09-11T12:45:42Z</time>
      </trkpt>
      <trkpt lat="42.444629296660423" lon="13.55751003138721">
        <ele>2167.9099999999999</ele>
        <time>2013-09-11T12:45:45Z</time>
      </trkpt>
      <trkpt lat="42.44462862610817" lon="13.557519419118762">
        <ele>2179.9299999999998</ele>
        <time>2013-09-11T12:45:46Z</time>
      </trkpt>
      <trkpt lat="42.444631056860089" lon="13.557523526251316">
        <ele>2179.9299999999998</ele>
        <time>2013-09-11T12:45:47Z</time>
      </trkpt>
      <trkpt lat="42.444630553945899" lon="13.557520424947143">
        <ele>2175.5999999999999</ele>
        <time>2013-09-11T12:45:48Z</time>
      </trkpt>
      <trkpt lat="42.444629212841392" lon="13.557520173490047">
        <ele>2170.79</ele>
        <time>2013-09-11T12:45:49Z</time>
      </trkpt>
      <trkpt lat="42.44463013485074" lon="13.557520424947143">
        <ele>2167.4299999999998</ele>
        <time>2013-09-11T12:45:51Z</time>
      </trkpt>
      <trkpt lat="42.444629715755582" lon="13.557519670575857">
        <ele>2168.3899999999999</ele>
        <time>2013-09-11T12:45:52Z</time>
      </trkpt>
      <trkpt lat="42.444629967212677" lon="13.557519838213921">
        <ele>2173.1999999999998</ele>
        <time>2013-09-11T12:45:53Z</time>
      </trkpt>
      <trkpt lat="42.444630637764931" lon="13.557523190975189">
        <ele>2173.1999999999998</ele>
        <time>2013-09-11T12:45:54Z</time>
      </trkpt>
      <trkpt lat="42.444618232548237" lon="13.557501565665007">
        <ele>2175.1199999999999</ele>
        <time>2013-09-11T12:46:07Z</time>
      </trkpt>
      <trkpt lat="42.444569366052747" lon="13.557524029165506">
        <ele>2176.5599999999999</ele>
        <time>2013-09-11T12:46:13Z</time>
      </trkpt>
      <trkpt lat="42.444446906447411" lon="13.557531656697392">
        <ele>2175.5999999999999</ele>
        <time>2013-09-11T12:46:24Z</time>
      </trkpt>
      <trkpt lat="42.444385048002005" lon="13.557523358613253">
        <ele>2178</ele>
        <time>2013-09-11T12:46:30Z</time>
      </trkpt>
      <trkpt lat="42.444353112950921" lon="13.557507852092385">
        <ele>2176.5599999999999</ele>
        <time>2013-09-11T12:46:33Z</time>
      </trkpt>
      <trkpt lat="42.444329559803009" lon="13.557498380541801">
        <ele>2173.6799999999998</ele>
        <time>2013-09-11T12:46:35Z</time>
      </trkpt>
      <trkpt lat="42.444323021918535" lon="13.557488825172186">
        <ele>2173.1999999999998</ele>
        <time>2013-09-11T12:46:36Z</time>
      </trkpt>
      <trkpt lat="42.444322519004345" lon="13.55747046880424">
        <ele>2163.5799999999999</ele>
        <time>2013-09-11T12:46:37Z</time>
      </trkpt>
      <trkpt lat="42.44430516846478" lon="13.557452028617263">
        <ele>2168.3899999999999</ele>
        <time>2013-09-11T12:46:39Z</time>
      </trkpt>
      <trkpt lat="42.444204920902848" lon="13.557457057759166">
        <ele>2167.9099999999999</ele>
        <time>2013-09-11T12:46:47Z</time>
      </trkpt>
      <trkpt lat="42.444172818213701" lon="13.557482119649649">
        <ele>2164.5500000000002</ele>
        <time>2013-09-11T12:46:50Z</time>
      </trkpt>
      <trkpt lat="42.444147672504187" lon="13.557491675019264">
        <ele>2162.6199999999999</ele>
        <time>2013-09-11T12:46:52Z</time>
      </trkpt>
      <trkpt lat="42.444071061909199" lon="13.557520844042301">
        <ele>2159.2600000000002</ele>
        <time>2013-09-11T12:46:57Z</time>
      </trkpt>
      <trkpt lat="42.444028230383992" lon="13.557554539293051">
        <ele>2155.8899999999999</ele>
        <time>2013-09-11T12:47:01Z</time>
      </trkpt>
      <trkpt lat="42.444020016118884" lon="13.557564346119761">
        <ele>2155.8899999999999</ele>
        <time>2013-09-11T12:47:02Z</time>
      </trkpt>
      <trkpt lat="42.443829830735922" lon="13.557713124901056">
        <ele>2155.8899999999999</ele>
        <time>2013-09-11T12:47:20Z</time>
      </trkpt>
      <trkpt lat="42.443782892078161" lon="13.557735253125429">
        <ele>2159.2600000000002</ele>
        <time>2013-09-11T12:47:24Z</time>
      </trkpt>
      <trkpt lat="42.443770570680499" lon="13.557733660563827">
        <ele>2159.7399999999998</ele>
        <time>2013-09-11T12:47:25Z</time>
      </trkpt>
      <trkpt lat="42.443737797439098" lon="13.557729134336114">
        <ele>2163.0999999999999</ele>
        <time>2013-09-11T12:47:28Z</time>
      </trkpt>
      <trkpt lat="42.443696893751621" lon="13.557745479047298">
        <ele>2163.0999999999999</ele>
        <time>2013-09-11T12:47:32Z</time>
      </trkpt>
      <trkpt lat="42.443647943437099" lon="13.557792669162154">
        <ele>2161.1799999999998</ele>
        <time>2013-09-11T12:47:37Z</time>
      </trkpt>
      <trkpt lat="42.443635957315564" lon="13.55782762169838">
        <ele>2159.2600000000002</ele>
        <time>2013-09-11T12:47:40Z</time>
      </trkpt>
      <trkpt lat="42.443637046962976" lon="13.557863915339112">
        <ele>2156.3699999999999</ele>
        <time>2013-09-11T12:47:43Z</time>
      </trkpt>
      <trkpt lat="42.443595724180341" lon="13.557990230619907">
        <ele>2159.2600000000002</ele>
        <time>2013-09-11T12:47:51Z</time>
      </trkpt>
      <trkpt lat="42.443585330620408" lon="13.558001630008221">
        <ele>2158.7800000000002</ele>
        <time>2013-09-11T12:47:52Z</time>
      </trkpt>
      <trkpt lat="42.443502265959978" lon="13.558054771274328">
        <ele>2164.0599999999999</ele>
        <time>2013-09-11T12:47:59Z</time>
      </trkpt>
      <trkpt lat="42.443492375314236" lon="13.558064075186849">
        <ele>2164.0599999999999</ele>
        <time>2013-09-11T12:48:00Z</time>
      </trkpt>
      <trkpt lat="42.443474270403385" lon="13.55807539075613">
        <ele>2160.6999999999998</ele>
        <time>2013-09-11T12:48:02Z</time>
      </trkpt>
      <trkpt lat="42.443465637043118" lon="13.558080168440938">
        <ele>2161.6599999999999</ele>
        <time>2013-09-11T12:48:03Z</time>
      </trkpt>
      <trkpt lat="42.443418698385358" lon="13.558143954724073">
        <ele>2156.3699999999999</ele>
        <time>2013-09-11T12:48:09Z</time>
      </trkpt>
      <trkpt lat="42.443406796082854" lon="13.558145044371486">
        <ele>2151.5700000000002</ele>
        <time>2013-09-11T12:48:10Z</time>
      </trkpt>
      <trkpt lat="42.443394642323256" lon="13.558142529800534">
        <ele>2151.5700000000002</ele>
        <time>2013-09-11T12:48:11Z</time>
      </trkpt>
      <trkpt lat="42.443383410573006" lon="13.558143451809883">
        <ele>2153.4899999999998</ele>
        <time>2013-09-11T12:48:12Z</time>
      </trkpt>
      <trkpt lat="42.443379806354642" lon="13.558148145675659">
        <ele>2150.1300000000001</ele>
        <time>2013-09-11T12:48:13Z</time>
      </trkpt>
      <trkpt lat="42.443377543240786" lon="13.55814965441823">
        <ele>2152.5300000000002</ele>
        <time>2013-09-11T12:48:15Z</time>
      </trkpt>
      <trkpt lat="42.443350302055478" lon="13.55819458141923">
        <ele>2156.8600000000001</ele>
        <time>2013-09-11T12:48:19Z</time>
      </trkpt>
      <trkpt lat="42.443336555734277" lon="13.558204555884004">
        <ele>2155.4099999999999</ele>
        <time>2013-09-11T12:48:20Z</time>
      </trkpt>
      <trkpt lat="42.443279391154647" lon="13.558253673836589">
        <ele>2153.4899999999998</ele>
        <time>2013-09-11T12:48:25Z</time>
      </trkpt>
      <trkpt lat="42.443237230181694" lon="13.55829088948667">
        <ele>2155.8899999999999</ele>
        <time>2013-09-11T12:48:29Z</time>
      </trkpt>
      <trkpt lat="42.443188950419426" lon="13.558351574465632">
        <ele>2151.0900000000001</ele>
        <time>2013-09-11T12:48:34Z</time>
      </trkpt>
      <trkpt lat="42.443179143592715" lon="13.558362973853946">
        <ele>2147.2399999999998</ele>
        <time>2013-09-11T12:48:35Z</time>
      </trkpt>
      <trkpt lat="42.443171851336956" lon="13.558375546708703">
        <ele>2148.1999999999998</ele>
        <time>2013-09-11T12:48:36Z</time>
      </trkpt>
      <trkpt lat="42.443161541596055" lon="13.558386778458953">
        <ele>2153.0100000000002</ele>
        <time>2013-09-11T12:48:37Z</time>
      </trkpt>
      <trkpt lat="42.443150645121932" lon="13.558396501466632">
        <ele>2152.5300000000002</ele>
        <time>2013-09-11T12:48:38Z</time>
      </trkpt>
      <trkpt lat="42.443139078095555" lon="13.558404883369803">
        <ele>2149.6500000000001</ele>
        <time>2013-09-11T12:48:39Z</time>
      </trkpt>
      <trkpt lat="42.443126672878861" lon="13.558412846177816">
        <ele>2150.6100000000001</ele>
        <time>2013-09-11T12:48:40Z</time>
      </trkpt>
      <trkpt lat="42.443094989284873" lon="13.558436902239919">
        <ele>2147.7199999999998</ele>
        <time>2013-09-11T12:48:43Z</time>
      </trkpt>
      <trkpt lat="42.443083841353655" lon="13.558440841734409">
        <ele>2151.0900000000001</ele>
        <time>2013-09-11T12:48:44Z</time>
      </trkpt>
      <trkpt lat="42.443074537441134" lon="13.55845115147531">
        <ele>2147.2399999999998</ele>
        <time>2013-09-11T12:48:45Z</time>
      </trkpt>
      <trkpt lat="42.44305475614965" lon="13.558482835069299">
        <ele>2150.6100000000001</ele>
        <time>2013-09-11T12:48:50Z</time>
      </trkpt>
      <trkpt lat="42.443048218265176" lon="13.558508064597845">
        <ele>2152.0500000000002</ele>
        <time>2013-09-11T12:48:52Z</time>
      </trkpt>
      <trkpt lat="42.443023240193725" lon="13.558526588603854">
        <ele>2152.0500000000002</ele>
        <time>2013-09-11T12:48:54Z</time>
      </trkpt>
      <trkpt lat="42.443005638197064" lon="13.558551818132401">
        <ele>2150.1300000000001</ele>
        <time>2013-09-11T12:48:56Z</time>
      </trkpt>
      <trkpt lat="42.442999687045813" lon="13.558564558625221">
        <ele>2154.4499999999998</ele>
        <time>2013-09-11T12:48:57Z</time>
      </trkpt>
      <trkpt lat="42.442991053685546" lon="13.558572940528393">
        <ele>2152.5300000000002</ele>
        <time>2013-09-11T12:48:58Z</time>
      </trkpt>
      <trkpt lat="42.442981079220772" lon="13.558580987155437">
        <ele>2148.6799999999998</ele>
        <time>2013-09-11T12:48:59Z</time>
      </trkpt>
      <trkpt lat="42.442971942946315" lon="13.55859138071537">
        <ele>2148.6799999999998</ele>
        <time>2013-09-11T12:49:00Z</time>
      </trkpt>
      <trkpt lat="42.442963141947985" lon="13.55860210955143">
        <ele>2149.1599999999999</ele>
        <time>2013-09-11T12:49:01Z</time>
      </trkpt>
      <trkpt lat="42.442947635427117" lon="13.558623986318707">
        <ele>2147.2399999999998</ele>
        <time>2013-09-11T12:49:03Z</time>
      </trkpt>
      <trkpt lat="42.442928021773696" lon="13.558644270524383">
        <ele>2152.0500000000002</ele>
        <time>2013-09-11T12:49:05Z</time>
      </trkpt>
      <trkpt lat="42.442919388413429" lon="13.55867343954742">
        <ele>2156.8600000000001</ele>
        <time>2013-09-11T12:49:07Z</time>
      </trkpt>
      <trkpt lat="42.442920645698905" lon="13.558708392083645">
        <ele>2150.1300000000001</ele>
        <time>2013-09-11T12:49:09Z</time>
      </trkpt>
      <trkpt lat="42.442918801680207" lon="13.558723228052258">
        <ele>2146.7600000000002</ele>
        <time>2013-09-11T12:49:10Z</time>
      </trkpt>
      <trkpt lat="42.442897511646152" lon="13.558799587190151">
        <ele>2150.1300000000001</ele>
        <time>2013-09-11T12:49:15Z</time>
      </trkpt>
      <trkpt lat="42.442902959883213" lon="13.558824900537729">
        <ele>2146.7600000000002</ele>
        <time>2013-09-11T12:49:17Z</time>
      </trkpt>
      <trkpt lat="42.442913772538304" lon="13.558848705142736">
        <ele>2145.3200000000002</ele>
        <time>2013-09-11T12:49:19Z</time>
      </trkpt>
      <trkpt lat="42.442915951833129" lon="13.558863289654255">
        <ele>2148.1999999999998</ele>
        <time>2013-09-11T12:49:20Z</time>
      </trkpt>
      <trkpt lat="42.442919388413429" lon="13.558877287432551">
        <ele>2149.1599999999999</ele>
        <time>2013-09-11T12:49:21Z</time>
      </trkpt>
      <trkpt lat="42.44291159324348" lon="13.558909725397825">
        <ele>2145.8000000000002</ele>
        <time>2013-09-11T12:49:23Z</time>
      </trkpt>
      <trkpt lat="42.442799527198076" lon="13.558978624641895">
        <ele>2145.3200000000002</ele>
        <time>2013-09-11T12:49:33Z</time>
      </trkpt>
      <trkpt lat="42.442649826407433" lon="13.558990359306335">
        <ele>2143.8800000000001</ele>
        <time>2013-09-11T12:49:45Z</time>
      </trkpt>
      <trkpt lat="42.442583609372377" lon="13.558990359306335">
        <ele>2143.8800000000001</ele>
        <time>2013-09-11T12:49:51Z</time>
      </trkpt>
      <trkpt lat="42.442541532218456" lon="13.558944929391146">
        <ele>2147.2399999999998</ele>
        <time>2013-09-11T12:49:57Z</time>
      </trkpt>
      <trkpt lat="42.442524516955018" lon="13.558945599943399">
        <ele>2149.6500000000001</ele>
        <time>2013-09-11T12:49:59Z</time>
      </trkpt>
      <trkpt lat="42.442496437579393" lon="13.55894417501986">
        <ele>2145.3200000000002</ele>
        <time>2013-09-11T12:50:02Z</time>
      </trkpt>
      <trkpt lat="42.442491073161364" lon="13.558946857228875">
        <ele>2145.8000000000002</ele>
        <time>2013-09-11T12:50:03Z</time>
      </trkpt>
      <trkpt lat="42.442333241924644" lon="13.558978205546737">
        <ele>2145.8000000000002</ele>
        <time>2013-09-11T12:50:31Z</time>
      </trkpt>
      <trkpt lat="42.442248333245516" lon="13.558950629085302">
        <ele>2144.3600000000001</ele>
        <time>2013-09-11T12:50:58Z</time>
      </trkpt>
      <trkpt lat="42.442208686843514" lon="13.558890111744404">
        <ele>2147.2399999999998</ele>
        <time>2013-09-11T12:51:11Z</time>
      </trkpt>
      <trkpt lat="42.442187145352364" lon="13.558867312967777">
        <ele>2147.7199999999998</ele>
        <time>2013-09-11T12:51:15Z</time>
      </trkpt>
      <trkpt lat="42.442073067650199" lon="13.558831606060266">
        <ele>2147.7199999999998</ele>
        <time>2013-09-11T12:51:32Z</time>
      </trkpt>
      <trkpt lat="42.441772073507309" lon="13.559129750356078">
        <ele>2148.1999999999998</ele>
        <time>2013-09-11T12:51:51Z</time>
      </trkpt>
      <trkpt lat="42.441580714657903" lon="13.559206863865256">
        <ele>2148.1999999999998</ele>
        <time>2013-09-11T12:52:09Z</time>
      </trkpt>
      <trkpt lat="42.441247031092644" lon="13.559214910492301">
        <ele>2149.1599999999999</ele>
        <time>2013-09-11T12:52:33Z</time>
      </trkpt>
    </trkseg>
  </trk>

  <trk>
    <name>5-g-campo-imperatore-prati-tivo2013-09-12</name>
    <extensions>
      <gpxx:TrackExtension>
        <gpxx:DisplayColor>Yellow</gpxx:DisplayColor>
      </gpxx:TrackExtension>
    </extensions>
    <trkseg>
      <trkpt lat="42.442653179168701" lon="13.558845855295658">
        <ele>2135.23</ele>
        <time>2013-09-12T06:42:02Z</time>
      </trkpt>
      <trkpt lat="42.442664327099919" lon="13.558842418715358">
        <ele>2137.1500000000001</ele>
        <time>2013-09-12T06:42:04Z</time>
      </trkpt>
      <trkpt lat="42.442689305171371" lon="13.558869324624538">
        <ele>2136.1900000000001</ele>
        <time>2013-09-12T06:42:20Z</time>
      </trkpt>
      <trkpt lat="42.442675558850169" lon="13.558887345716357">
        <ele>2136.1900000000001</ele>
        <time>2013-09-12T06:42:34Z</time>
      </trkpt>
      <trkpt lat="42.442718306556344" lon="13.558802772313356">
        <ele>2133.3000000000002</ele>
        <time>2013-09-12T06:42:44Z</time>
      </trkpt>
      <trkpt lat="42.442739009857178" lon="13.558781398460269">
        <ele>2136.1900000000001</ele>
        <time>2013-09-12T06:42:46Z</time>
      </trkpt>
      <trkpt lat="42.442786786705256" lon="13.558726664632559">
        <ele>2137.1500000000001</ele>
        <time>2013-09-12T06:42:51Z</time>
      </trkpt>
      <trkpt lat="42.44282559491694" lon="13.558716606348753">
        <ele>2140.9899999999998</ele>
        <time>2013-09-12T06:42:54Z</time>
      </trkpt>
      <trkpt lat="42.44291209615767" lon="13.558784583583474">
        <ele>2138.5900000000001</ele>
        <time>2013-09-12T06:43:03Z</time>
      </trkpt>
      <trkpt lat="42.442918382585049" lon="13.558750720694661">
        <ele>2140.9899999999998</ele>
        <time>2013-09-12T06:43:07Z</time>
      </trkpt>
      <trkpt lat="42.442913688719273" lon="13.558741919696331">
        <ele>2140.5100000000002</ele>
        <time>2013-09-12T06:43:09Z</time>
      </trkpt>
      <trkpt lat="42.442901451140642" lon="13.558711912482977">
        <ele>2139.0700000000002</ele>
        <time>2013-09-12T06:43:12Z</time>
      </trkpt>
      <trkpt lat="42.442898517474532" lon="13.558633122593164">
        <ele>2138.1100000000001</ele>
        <time>2013-09-12T06:43:17Z</time>
      </trkpt>
      <trkpt lat="42.44288326241076" lon="13.558573862537742">
        <ele>2143.4000000000001</ele>
        <time>2013-09-12T06:43:21Z</time>
      </trkpt>
      <trkpt lat="42.442875048145652" lon="13.558559529483318">
        <ele>2143.4000000000001</ele>
        <time>2013-09-12T06:43:22Z</time>
      </trkpt>
      <trkpt lat="42.442865828052163" lon="13.558506555855274">
        <ele>2141.9499999999998</ele>
        <time>2013-09-12T06:43:26Z</time>
      </trkpt>
      <trkpt lat="42.442850908264518" lon="13.558427514508367">
        <ele>2145.8000000000002</ele>
        <time>2013-09-12T06:43:32Z</time>
      </trkpt>
      <trkpt lat="42.442844705656171" lon="13.55841351673007">
        <ele>2146.2800000000002</ele>
        <time>2013-09-12T06:43:33Z</time>
      </trkpt>
      <trkpt lat="42.442836239933968" lon="13.558369092643261">
        <ele>2143.4000000000001</ele>
        <time>2013-09-12T06:43:36Z</time>
      </trkpt>
      <trkpt lat="42.442823415622115" lon="13.558313939720392">
        <ele>2145.3200000000002</ele>
        <time>2013-09-12T06:43:40Z</time>
      </trkpt>
      <trkpt lat="42.442809166386724" lon="13.558072708547115">
        <ele>2146.7600000000002</ele>
        <time>2013-09-12T06:43:57Z</time>
      </trkpt>
      <trkpt lat="42.442824840545654" lon="13.55803532525897">
        <ele>2145.3200000000002</ele>
        <time>2013-09-12T06:44:00Z</time>
      </trkpt>
      <trkpt lat="42.442838251590729" lon="13.558011688292027">
        <ele>2146.7600000000002</ele>
        <time>2013-09-12T06:44:03Z</time>
      </trkpt>
      <trkpt lat="42.442877311259508" lon="13.557988721877337">
        <ele>2144.3600000000001</ele>
        <time>2013-09-12T06:44:07Z</time>
      </trkpt>
      <trkpt lat="42.442884435877204" lon="13.557979920879006">
        <ele>2144.3600000000001</ele>
        <time>2013-09-12T06:44:08Z</time>
      </trkpt>
      <trkpt lat="42.442902121692896" lon="13.557939268648624">
        <ele>2148.6799999999998</ele>
        <time>2013-09-12T06:44:11Z</time>
      </trkpt>
      <trkpt lat="42.44291553273797" lon="13.557937424629927">
        <ele>2148.1999999999998</ele>
        <time>2013-09-12T06:44:12Z</time>
      </trkpt>
      <trkpt lat="42.44300882332027" lon="13.557904986664653">
        <ele>2143.8800000000001</ele>
        <time>2013-09-12T06:44:20Z</time>
      </trkpt>
      <trkpt lat="42.44302642531693" lon="13.557880595326424">
        <ele>2144.8400000000001</ele>
        <time>2013-09-12T06:44:21Z</time>
      </trkpt>
      <trkpt lat="42.443037740886211" lon="13.557864166796207">
        <ele>2148.6799999999998</ele>
        <time>2013-09-12T06:44:22Z</time>
      </trkpt>
      <trkpt lat="42.443046625703573" lon="13.557852515950799">
        <ele>2148.6799999999998</ele>
        <time>2013-09-12T06:44:23Z</time>
      </trkpt>
      <trkpt lat="42.443080488592386" lon="13.557817144319415">
        <ele>2153.4899999999998</ele>
        <time>2013-09-12T06:44:27Z</time>
      </trkpt>
      <trkpt lat="42.443093145266175" lon="13.557811360806227">
        <ele>2151.5700000000002</ele>
        <time>2013-09-12T06:44:28Z</time>
      </trkpt>
      <trkpt lat="42.443185765296221" lon="13.557791160419583">
        <ele>2162.1399999999999</ele>
        <time>2013-09-12T06:44:36Z</time>
      </trkpt>
      <trkpt lat="42.443196410313249" lon="13.557787472382188">
        <ele>2153.9699999999998</ele>
        <time>2013-09-12T06:44:37Z</time>
      </trkpt>
      <trkpt lat="42.443208564072847" lon="13.5577851254493">
        <ele>2160.6999999999998</ele>
        <time>2013-09-12T06:44:38Z</time>
      </trkpt>
      <trkpt lat="42.443218287080526" lon="13.557779509574175">
        <ele>2156.8600000000001</ele>
        <time>2013-09-12T06:44:39Z</time>
      </trkpt>
      <trkpt lat="42.443245779722929" lon="13.55773919261992">
        <ele>2152.5300000000002</ele>
        <time>2013-09-12T06:44:43Z</time>
      </trkpt>
      <trkpt lat="42.443248881027102" lon="13.557726284489036">
        <ele>2153.4899999999998</ele>
        <time>2013-09-12T06:44:44Z</time>
      </trkpt>
      <trkpt lat="42.443251730874181" lon="13.557697031646967">
        <ele>2145.3200000000002</ele>
        <time>2013-09-12T06:44:46Z</time>
      </trkpt>
      <trkpt lat="42.443255335092545" lon="13.557682950049639">
        <ele>2140.9899999999998</ele>
        <time>2013-09-12T06:44:47Z</time>
      </trkpt>
      <trkpt lat="42.443258101120591" lon="13.557669119909406">
        <ele>2136.6700000000001</ele>
        <time>2013-09-12T06:44:48Z</time>
      </trkpt>
      <trkpt lat="42.443261537700891" lon="13.557652775198221">
        <ele>2138.1100000000001</ele>
        <time>2013-09-12T06:44:49Z</time>
      </trkpt>
      <trkpt lat="42.443271512165666" lon="13.557619415223598">
        <ele>2139.5500000000002</ele>
        <time>2013-09-12T06:44:51Z</time>
      </trkpt>
      <trkpt lat="42.443282324820757" lon="13.55759259313345">
        <ele>2136.1900000000001</ele>
        <time>2013-09-12T06:44:53Z</time>
      </trkpt>
      <trkpt lat="42.443286599591374" lon="13.557579936459661">
        <ele>2136.1900000000001</ele>
        <time>2013-09-12T06:44:54Z</time>
      </trkpt>
      <trkpt lat="42.443297831341624" lon="13.557544816285372">
        <ele>2139.0700000000002</ele>
        <time>2013-09-12T06:44:57Z</time>
      </trkpt>
      <trkpt lat="42.443302692845464" lon="13.557534255087376">
        <ele>2148.1999999999998</ele>
        <time>2013-09-12T06:44:58Z</time>
      </trkpt>
      <trkpt lat="42.443309901282191" lon="13.557533165439963">
        <ele>2148.1999999999998</ele>
        <time>2013-09-12T06:44:59Z</time>
      </trkpt>
      <trkpt lat="42.443330688402057" lon="13.557504080235958">
        <ele>2140.5100000000002</ele>
        <time>2013-09-12T06:45:02Z</time>
      </trkpt>
      <trkpt lat="42.443337896838784" lon="13.557488825172186">
        <ele>2135.23</ele>
        <time>2013-09-12T06:45:03Z</time>
      </trkpt>
      <trkpt lat="42.443344183266163" lon="13.557471223175526">
        <ele>2136.1900000000001</ele>
        <time>2013-09-12T06:45:04Z</time>
      </trkpt>
      <trkpt lat="42.443372765555978" lon="13.55742059648037">
        <ele>2139.0700000000002</ele>
        <time>2013-09-12T06:45:08Z</time>
      </trkpt>
      <trkpt lat="42.443381315097213" lon="13.557405676692724">
        <ele>2137.6300000000001</ele>
        <time>2013-09-12T06:45:09Z</time>
      </trkpt>
      <trkpt lat="42.443406209349632" lon="13.557362928986549">
        <ele>2140.9899999999998</ele>
        <time>2013-09-12T06:45:12Z</time>
      </trkpt>
      <trkpt lat="42.443421296775341" lon="13.557333424687386">
        <ele>2136.6700000000001</ele>
        <time>2013-09-12T06:45:14Z</time>
      </trkpt>
      <trkpt lat="42.443446610122919" lon="13.557301573455334">
        <ele>2143.8800000000001</ele>
        <time>2013-09-12T06:45:17Z</time>
      </trkpt>
      <trkpt lat="42.443455075845122" lon="13.557291850447655">
        <ele>2134.2600000000002</ele>
        <time>2013-09-12T06:45:18Z</time>
      </trkpt>
      <trkpt lat="42.443464547395706" lon="13.557282630354166">
        <ele>2134.7399999999998</ele>
        <time>2013-09-12T06:45:19Z</time>
      </trkpt>
      <trkpt lat="42.443494889885187" lon="13.55725304223597">
        <ele>2136.1900000000001</ele>
        <time>2013-09-12T06:45:22Z</time>
      </trkpt>
      <trkpt lat="42.443526154384017" lon="13.557219682261348">
        <ele>2133.3000000000002</ele>
        <time>2013-09-12T06:45:25Z</time>
      </trkpt>
      <trkpt lat="42.443535877391696" lon="13.557208199054003">
        <ele>2136.6700000000001</ele>
        <time>2013-09-12T06:45:26Z</time>
      </trkpt>
      <trkpt lat="42.443618942052126" lon="13.55712010525167">
        <ele>2132.8200000000002</ele>
        <time>2013-09-12T06:45:35Z</time>
      </trkpt>
      <trkpt lat="42.443626234307885" lon="13.557110214605927">
        <ele>2133.3000000000002</ele>
        <time>2013-09-12T06:45:36Z</time>
      </trkpt>
      <trkpt lat="42.443666635081172" lon="13.557067215442657">
        <ele>2134.2600000000002</ele>
        <time>2013-09-12T06:45:40Z</time>
      </trkpt>
      <trkpt lat="42.443749532103539" lon="13.556933356449008">
        <ele>2131.3800000000001</ele>
        <time>2013-09-12T06:45:51Z</time>
      </trkpt>
      <trkpt lat="42.443764954805374" lon="13.556894883513451">
        <ele>2140.5100000000002</ele>
        <time>2013-09-12T06:45:55Z</time>
      </trkpt>
      <trkpt lat="42.443776773288846" lon="13.55684794485569">
        <ele>2132.3400000000001</ele>
        <time>2013-09-12T06:46:03Z</time>
      </trkpt>
      <trkpt lat="42.443778617307544" lon="13.556849034503102">
        <ele>2127.0500000000002</ele>
        <time>2013-09-12T06:46:04Z</time>
      </trkpt>
      <trkpt lat="42.443781718611717" lon="13.556844675913453">
        <ele>2132.3400000000001</ele>
        <time>2013-09-12T06:46:05Z</time>
      </trkpt>
      <trkpt lat="42.443787418305874" lon="13.556844089180231">
        <ele>2138.1100000000001</ele>
        <time>2013-09-12T06:46:08Z</time>
      </trkpt>
      <trkpt lat="42.443788591772318" lon="13.556846184656024">
        <ele>2144.3600000000001</ele>
        <time>2013-09-12T06:46:09Z</time>
      </trkpt>
      <trkpt lat="42.443793369457126" lon="13.556848866865039">
        <ele>2142.9200000000001</ele>
        <time>2013-09-12T06:46:10Z</time>
      </trkpt>
      <trkpt lat="42.443796135485172" lon="13.55685138143599">
        <ele>2139.0700000000002</ele>
        <time>2013-09-12T06:46:11Z</time>
      </trkpt>
      <trkpt lat="42.443797560408711" lon="13.556851884350181">
        <ele>2137.6300000000001</ele>
        <time>2013-09-12T06:46:16Z</time>
      </trkpt>
      <trkpt lat="42.443796386942267" lon="13.556855991482735">
        <ele>2140.9899999999998</ele>
        <time>2013-09-12T06:46:21Z</time>
      </trkpt>
      <trkpt lat="42.443798147141933" lon="13.556850627064705">
        <ele>2136.1900000000001</ele>
        <time>2013-09-12T06:46:22Z</time>
      </trkpt>
      <trkpt lat="42.443797811865807" lon="13.556842412799597">
        <ele>2140.0300000000002</ele>
        <time>2013-09-12T06:46:25Z</time>
      </trkpt>
      <trkpt lat="42.443795297294855" lon="13.556837383657694">
        <ele>2134.2600000000002</ele>
        <time>2013-09-12T06:46:27Z</time>
      </trkpt>
      <trkpt lat="42.443796554580331" lon="13.556836629286408">
        <ele>2137.6300000000001</ele>
        <time>2013-09-12T06:46:28Z</time>
      </trkpt>
      <trkpt lat="42.443798733875155" lon="13.556841239333153">
        <ele>2140.5100000000002</ele>
        <time>2013-09-12T06:46:31Z</time>
      </trkpt>
      <trkpt lat="42.443796638399363" lon="13.556842748075724">
        <ele>2135.23</ele>
        <time>2013-09-12T06:46:35Z</time>
      </trkpt>
      <trkpt lat="42.443793369457126" lon="13.556843502447009">
        <ele>2135.71</ele>
        <time>2013-09-12T06:46:36Z</time>
      </trkpt>
      <trkpt lat="42.443792866542935" lon="13.556839562952518">
        <ele>2132.3400000000001</ele>
        <time>2013-09-12T06:46:37Z</time>
      </trkpt>
      <trkpt lat="42.443791776895523" lon="13.55683864094317">
        <ele>2133.7800000000002</ele>
        <time>2013-09-12T06:46:38Z</time>
      </trkpt>
      <trkpt lat="42.443790268152952" lon="13.556841742247343">
        <ele>2141.4699999999998</ele>
        <time>2013-09-12T06:46:39Z</time>
      </trkpt>
      <trkpt lat="42.443789346143603" lon="13.556841658428311">
        <ele>2139.5500000000002</ele>
        <time>2013-09-12T06:46:40Z</time>
      </trkpt>
      <trkpt lat="42.443789010867476" lon="13.55683914385736">
        <ele>2131.3800000000001</ele>
        <time>2013-09-12T06:46:41Z</time>
      </trkpt>
      <trkpt lat="42.443788005039096" lon="13.556837718933821">
        <ele>2131.3800000000001</ele>
        <time>2013-09-12T06:46:42Z</time>
      </trkpt>
      <trkpt lat="42.443786915391684" lon="13.556835791096091">
        <ele>2134.7399999999998</ele>
        <time>2013-09-12T06:46:43Z</time>
      </trkpt>
      <trkpt lat="42.443770067766309" lon="13.556829001754522">
        <ele>2139.5500000000002</ele>
        <time>2013-09-12T06:46:52Z</time>
      </trkpt>
      <trkpt lat="42.443777695298195" lon="13.556826906278729">
        <ele>2142.9200000000001</ele>
        <time>2013-09-12T06:46:54Z</time>
      </trkpt>
      <trkpt lat="42.443781634792686" lon="13.556830510497093">
        <ele>2142.4400000000001</ele>
        <time>2013-09-12T06:46:55Z</time>
      </trkpt>
      <trkpt lat="42.443784484639764" lon="13.556828079745173">
        <ele>2139.0700000000002</ele>
        <time>2013-09-12T06:46:56Z</time>
      </trkpt>
      <trkpt lat="42.443786580115557" lon="13.556832019239664">
        <ele>2134.7399999999998</ele>
        <time>2013-09-12T06:46:57Z</time>
      </trkpt>
      <trkpt lat="42.443781970068812" lon="13.556840736418962">
        <ele>2128.02</ele>
        <time>2013-09-12T06:46:58Z</time>
      </trkpt>
      <trkpt lat="42.443775599822402" lon="13.5568508785218">
        <ele>2130.4200000000001</ele>
        <time>2013-09-12T06:46:59Z</time>
      </trkpt>
      <trkpt lat="42.44377451017499" lon="13.556850124150515">
        <ele>2134.7399999999998</ele>
        <time>2013-09-12T06:47:04Z</time>
      </trkpt>
      <trkpt lat="42.443775851279497" lon="13.556853393092752">
        <ele>2127.5300000000002</ele>
        <time>2013-09-12T06:47:05Z</time>
      </trkpt>
      <trkpt lat="42.44377794675529" lon="13.556848363950849">
        <ele>2137.6300000000001</ele>
        <time>2013-09-12T06:47:06Z</time>
      </trkpt>
      <trkpt lat="42.4437774438411" lon="13.556844424456358">
        <ele>2144.3600000000001</ele>
        <time>2013-09-12T06:47:07Z</time>
      </trkpt>
      <trkpt lat="42.443795632570982" lon="13.556831935420632">
        <ele>2140.0300000000002</ele>
        <time>2013-09-12T06:47:12Z</time>
      </trkpt>
      <trkpt lat="42.44380434975028" lon="13.556814417243004">
        <ele>2127.0500000000002</ele>
        <time>2013-09-12T06:47:13Z</time>
      </trkpt>
      <trkpt lat="42.443812396377325" lon="13.55679715052247">
        <ele>2129.46</ele>
        <time>2013-09-12T06:47:14Z</time>
      </trkpt>
      <trkpt lat="42.44385271333158" lon="13.556720288470387">
        <ele>2126.0900000000001</ele>
        <time>2013-09-12T06:47:19Z</time>
      </trkpt>
      <trkpt lat="42.443859335035086" lon="13.556709978729486">
        <ele>2128.98</ele>
        <time>2013-09-12T06:47:20Z</time>
      </trkpt>
      <trkpt lat="42.443874841555953" lon="13.556698160246015">
        <ele>2137.1500000000001</ele>
        <time>2013-09-12T06:47:22Z</time>
      </trkpt>
      <trkpt lat="42.443880625069141" lon="13.55669254437089">
        <ele>2136.6700000000001</ele>
        <time>2013-09-12T06:47:23Z</time>
      </trkpt>
      <trkpt lat="42.443935610353947" lon="13.556628506630659">
        <ele>2131.8600000000001</ele>
        <time>2013-09-12T06:47:31Z</time>
      </trkpt>
      <trkpt lat="42.443943237885833" lon="13.556615263223648">
        <ele>2135.71</ele>
        <time>2013-09-12T06:47:32Z</time>
      </trkpt>
      <trkpt lat="42.443967880681157" lon="13.556580897420645">
        <ele>2133.3000000000002</ele>
        <time>2013-09-12T06:47:35Z</time>
      </trkpt>
      <trkpt lat="42.44402177631855" lon="13.556455839425325">
        <ele>2128.98</ele>
        <time>2013-09-12T06:47:44Z</time>
      </trkpt>
      <trkpt lat="42.444034600630403" lon="13.55642038397491">
        <ele>2127.5300000000002</ele>
        <time>2013-09-12T06:47:46Z</time>
      </trkpt>
      <trkpt lat="42.444049268960953" lon="13.556363973766565">
        <ele>2133.3000000000002</ele>
        <time>2013-09-12T06:47:49Z</time>
      </trkpt>
      <trkpt lat="42.444054968655109" lon="13.556349473074079">
        <ele>2131.8600000000001</ele>
        <time>2013-09-12T06:47:50Z</time>
      </trkpt>
      <trkpt lat="42.444060081616044" lon="13.556337235495448">
        <ele>2128.02</ele>
        <time>2013-09-12T06:47:51Z</time>
      </trkpt>
      <trkpt lat="42.444066200405359" lon="13.55632558465004">
        <ele>2131.8600000000001</ele>
        <time>2013-09-12T06:47:52Z</time>
      </trkpt>
      <trkpt lat="42.44409603998065" lon="13.556279065087438">
        <ele>2134.7399999999998</ele>
        <time>2013-09-12T06:47:56Z</time>
      </trkpt>
      <trkpt lat="42.444120766595006" lon="13.556238580495119">
        <ele>2136.1900000000001</ele>
        <time>2013-09-12T06:48:00Z</time>
      </trkpt>
      <trkpt lat="42.444129064679146" lon="13.556218212470412">
        <ele>2131.3800000000001</ele>
        <time>2013-09-12T06:48:02Z</time>
      </trkpt>
      <trkpt lat="42.444136356934905" lon="13.556208992376924">
        <ele>2132.8200000000002</ele>
        <time>2013-09-12T06:48:03Z</time>
      </trkpt>
      <trkpt lat="42.444143397733569" lon="13.556195497512817">
        <ele>2136.1900000000001</ele>
        <time>2013-09-12T06:48:04Z</time>
      </trkpt>
      <trkpt lat="42.444148091599345" lon="13.556182589381933">
        <ele>2133.3000000000002</ele>
        <time>2013-09-12T06:48:05Z</time>
      </trkpt>
      <trkpt lat="42.444152198731899" lon="13.556168675422668">
        <ele>2130.4200000000001</ele>
        <time>2013-09-12T06:48:06Z</time>
      </trkpt>
      <trkpt lat="42.444158066064119" lon="13.556154342368245">
        <ele>2131.8600000000001</ele>
        <time>2013-09-12T06:48:07Z</time>
      </trkpt>
      <trkpt lat="42.444162676110864" lon="13.556141518056393">
        <ele>2134.7399999999998</ele>
        <time>2013-09-12T06:48:08Z</time>
      </trkpt>
      <trkpt lat="42.444166112691164" lon="13.556127436459064">
        <ele>2131.8600000000001</ele>
        <time>2013-09-12T06:48:09Z</time>
      </trkpt>
      <trkpt lat="42.444174829870462" lon="13.556078486144543">
        <ele>2129.46</ele>
        <time>2013-09-12T06:48:12Z</time>
      </trkpt>
      <trkpt lat="42.444202406331897" lon="13.556013694033027">
        <ele>2127.5300000000002</ele>
        <time>2013-09-12T06:48:17Z</time>
      </trkpt>
      <trkpt lat="42.444208608940244" lon="13.55599969625473">
        <ele>2127.0500000000002</ele>
        <time>2013-09-12T06:48:18Z</time>
      </trkpt>
      <trkpt lat="42.444264767691493" lon="13.555927779525518">
        <ele>2128.98</ele>
        <time>2013-09-12T06:48:24Z</time>
      </trkpt>
      <trkpt lat="42.444322686642408" lon="13.555835830047727">
        <ele>2128.98</ele>
        <time>2013-09-12T06:48:32Z</time>
      </trkpt>
      <trkpt lat="42.444414803758264" lon="13.55570892803371">
        <ele>2130.4200000000001</ele>
        <time>2013-09-12T06:48:45Z</time>
      </trkpt>
      <trkpt lat="42.444475740194321" lon="13.555612955242395">
        <ele>2133.3000000000002</ele>
        <time>2013-09-12T06:48:56Z</time>
      </trkpt>
      <trkpt lat="42.444527540355921" lon="13.555539781227708">
        <ele>2129.9400000000001</ele>
        <time>2013-09-12T06:49:04Z</time>
      </trkpt>
      <trkpt lat="42.444593925029039" lon="13.555444898083806">
        <ele>2130.9000000000001</ele>
        <time>2013-09-12T06:49:16Z</time>
      </trkpt>
      <trkpt lat="42.4446667637676" lon="13.555349009111524">
        <ele>2128.98</ele>
        <time>2013-09-12T06:49:27Z</time>
      </trkpt>
      <trkpt lat="42.444676822051406" lon="13.555336017161608">
        <ele>2130.4200000000001</ele>
        <time>2013-09-12T06:49:29Z</time>
      </trkpt>
      <trkpt lat="42.444701800122857" lon="13.555314810946584">
        <ele>2132.3400000000001</ele>
        <time>2013-09-12T06:49:33Z</time>
      </trkpt>
      <trkpt lat="42.444733064621687" lon="13.555300561711192">
        <ele>2132.3400000000001</ele>
        <time>2013-09-12T06:49:38Z</time>
      </trkpt>
      <trkpt lat="42.444748235866427" lon="13.555265609174967">
        <ele>2129.9400000000001</ele>
        <time>2013-09-12T06:49:42Z</time>
      </trkpt>
      <trkpt lat="42.444782434031367" lon="13.555229902267456">
        <ele>2131.3800000000001</ele>
        <time>2013-09-12T06:49:47Z</time>
      </trkpt>
      <trkpt lat="42.444816632196307" lon="13.555195201188326">
        <ele>2134.7399999999998</ele>
        <time>2013-09-12T06:49:52Z</time>
      </trkpt>
      <trkpt lat="42.444888716563582" lon="13.555115321651101">
        <ele>2133.3000000000002</ele>
        <time>2013-09-12T06:50:04Z</time>
      </trkpt>
      <trkpt lat="42.444902127608657" lon="13.55508841574192">
        <ele>2134.7399999999998</ele>
        <time>2013-09-12T06:50:07Z</time>
      </trkpt>
      <trkpt lat="42.444907911121845" lon="13.555040722712874">
        <ele>2135.23</ele>
        <time>2013-09-12T06:50:12Z</time>
      </trkpt>
      <trkpt lat="42.444892656058073" lon="13.554956652224064">
        <ele>2131.8600000000001</ele>
        <time>2013-09-12T06:50:20Z</time>
      </trkpt>
      <trkpt lat="42.444887878373265" lon="13.554945671930909">
        <ele>2133.3000000000002</ele>
        <time>2013-09-12T06:50:21Z</time>
      </trkpt>
      <trkpt lat="42.444866336882114" lon="13.554896889254451">
        <ele>2134.2600000000002</ele>
        <time>2013-09-12T06:50:26Z</time>
      </trkpt>
      <trkpt lat="42.444832976907492" lon="13.554790606722236">
        <ele>2132.3400000000001</ele>
        <time>2013-09-12T06:50:35Z</time>
      </trkpt>
      <trkpt lat="42.444829121232033" lon="13.554780464619398">
        <ele>2132.8200000000002</ele>
        <time>2013-09-12T06:50:36Z</time>
      </trkpt>
      <trkpt lat="42.444826858118176" lon="13.554755067452788">
        <ele>2134.2600000000002</ele>
        <time>2013-09-12T06:50:38Z</time>
      </trkpt>
      <trkpt lat="42.444816716015339" lon="13.554701087996364">
        <ele>2133.7800000000002</ele>
        <time>2013-09-12T06:50:42Z</time>
      </trkpt>
      <trkpt lat="42.444810010492802" lon="13.554661944508553">
        <ele>2135.71</ele>
        <time>2013-09-12T06:50:45Z</time>
      </trkpt>
      <trkpt lat="42.444803807884455" lon="13.554621627554297">
        <ele>2138.1100000000001</ele>
        <time>2013-09-12T06:50:50Z</time>
      </trkpt>
      <trkpt lat="42.444783272221684" lon="13.554517021402717">
        <ele>2137.1500000000001</ele>
        <time>2013-09-12T06:51:03Z</time>
      </trkpt>
      <trkpt lat="42.444770950824022" lon="13.554403698071837">
        <ele>2139.0700000000002</ele>
        <time>2013-09-12T06:51:15Z</time>
      </trkpt>
      <trkpt lat="42.444768352434039" lon="13.554385844618082">
        <ele>2140.0300000000002</ele>
        <time>2013-09-12T06:51:17Z</time>
      </trkpt>
      <trkpt lat="42.444774638861418" lon="13.55435449630022">
        <ele>2136.1900000000001</ele>
        <time>2013-09-12T06:51:21Z</time>
      </trkpt>
      <trkpt lat="42.444776734337211" lon="13.554343767464161">
        <ele>2136.6700000000001</ele>
        <time>2013-09-12T06:51:22Z</time>
      </trkpt>
      <trkpt lat="42.444772208109498" lon="13.554298002272844">
        <ele>2137.6300000000001</ele>
        <time>2013-09-12T06:51:27Z</time>
      </trkpt>
      <trkpt lat="42.444761646911502" lon="13.554217703640461">
        <ele>2139.5500000000002</ele>
        <time>2013-09-12T06:51:37Z</time>
      </trkpt>
      <trkpt lat="42.44476106017828" lon="13.554189372807741">
        <ele>2143.4000000000001</ele>
        <time>2013-09-12T06:51:40Z</time>
      </trkpt>
      <trkpt lat="42.444758461788297" lon="13.554182248190045">
        <ele>2143.4000000000001</ele>
        <time>2013-09-12T06:51:41Z</time>
      </trkpt>
      <trkpt lat="42.444751253351569" lon="13.554135393351316">
        <ele>2142.4400000000001</ele>
        <time>2013-09-12T06:51:47Z</time>
      </trkpt>
      <trkpt lat="42.444754187017679" lon="13.55411016382277">
        <ele>2146.7600000000002</ele>
        <time>2013-09-12T06:51:50Z</time>
      </trkpt>
      <trkpt lat="42.444757288321853" lon="13.554091639816761">
        <ele>2143.4000000000001</ele>
        <time>2013-09-12T06:51:52Z</time>
      </trkpt>
      <trkpt lat="42.444758964702487" lon="13.55408476665616">
        <ele>2144.3600000000001</ele>
        <time>2013-09-12T06:51:53Z</time>
      </trkpt>
      <trkpt lat="42.444746727123857" lon="13.554045204073191">
        <ele>2144.3600000000001</ele>
        <time>2013-09-12T06:51:58Z</time>
      </trkpt>
      <trkpt lat="42.444736082106829" lon="13.554009161889553">
        <ele>2142.9200000000001</ele>
        <time>2013-09-12T06:52:02Z</time>
      </trkpt>
      <trkpt lat="42.444725437089801" lon="13.553981836885214">
        <ele>2146.2800000000002</ele>
        <time>2013-09-12T06:52:05Z</time>
      </trkpt>
      <trkpt lat="42.444721413776278" lon="13.553969599306583">
        <ele>2145.8000000000002</ele>
        <time>2013-09-12T06:52:06Z</time>
      </trkpt>
      <trkpt lat="42.444711774587631" lon="13.553930204361677">
        <ele>2140.9899999999998</ele>
        <time>2013-09-12T06:52:10Z</time>
      </trkpt>
      <trkpt lat="42.444709846749902" lon="13.55392299592495">
        <ele>2142.9200000000001</ele>
        <time>2013-09-12T06:52:11Z</time>
      </trkpt>
      <trkpt lat="42.444683192297816" lon="13.553788047283888">
        <ele>2143.4000000000001</ele>
        <time>2013-09-12T06:52:24Z</time>
      </trkpt>
      <trkpt lat="42.444675732403994" lon="13.553764075040817">
        <ele>2146.2800000000002</ele>
        <time>2013-09-12T06:52:26Z</time>
      </trkpt>
      <trkpt lat="42.444674223661423" lon="13.553750663995743">
        <ele>2146.2800000000002</ele>
        <time>2013-09-12T06:52:27Z</time>
      </trkpt>
      <trkpt lat="42.444664416834712" lon="13.553702719509602">
        <ele>2144.8400000000001</ele>
        <time>2013-09-12T06:52:32Z</time>
      </trkpt>
      <trkpt lat="42.444633236154914" lon="13.553566345945001">
        <ele>2145.8000000000002</ele>
        <time>2013-09-12T06:52:46Z</time>
      </trkpt>
      <trkpt lat="42.444616220891476" lon="13.553462326526642">
        <ele>2147.2399999999998</ele>
        <time>2013-09-12T06:52:55Z</time>
      </trkpt>
      <trkpt lat="42.444615885615349" lon="13.553456040099263">
        <ele>2144.3600000000001</ele>
        <time>2013-09-12T06:52:56Z</time>
      </trkpt>
      <trkpt lat="42.444613873958588" lon="13.553443048149347">
        <ele>2142.4400000000001</ele>
        <time>2013-09-12T06:52:57Z</time>
      </trkpt>
      <trkpt lat="42.444611946120858" lon="13.553395606577396">
        <ele>2146.2800000000002</ele>
        <time>2013-09-12T06:53:01Z</time>
      </trkpt>
      <trkpt lat="42.444613622501493" lon="13.553385632112622">
        <ele>2145.3200000000002</ele>
        <time>2013-09-12T06:53:02Z</time>
      </trkpt>
      <trkpt lat="42.444613119587302" lon="13.55331857688725">
        <ele>2148.6799999999998</ele>
        <time>2013-09-12T06:53:08Z</time>
      </trkpt>
      <trkpt lat="42.444617059081793" lon="13.553168624639511">
        <ele>2150.1300000000001</ele>
        <time>2013-09-12T06:53:22Z</time>
      </trkpt>
      <trkpt lat="42.444626782089472" lon="13.552971314638853">
        <ele>2152.5300000000002</ele>
        <time>2013-09-12T06:53:40Z</time>
      </trkpt>
      <trkpt lat="42.444627033546567" lon="13.552960837259889">
        <ele>2152.5300000000002</ele>
        <time>2013-09-12T06:53:41Z</time>
      </trkpt>
      <trkpt lat="42.444637762382627" lon="13.552856398746371">
        <ele>2152.5300000000002</ele>
        <time>2013-09-12T06:53:55Z</time>
      </trkpt>
      <trkpt lat="42.444633571431041" lon="13.552849860861897">
        <ele>2153.9699999999998</ele>
        <time>2013-09-12T06:53:59Z</time>
      </trkpt>
      <trkpt lat="42.444643042981625" lon="13.552813399583101">
        <ele>2152.5300000000002</ele>
        <time>2013-09-12T06:54:03Z</time>
      </trkpt>
      <trkpt lat="42.444649832323194" lon="13.552611563354731">
        <ele>2155.4099999999999</ele>
        <time>2013-09-12T06:54:19Z</time>
      </trkpt>
      <trkpt lat="42.444645809009671" lon="13.552603349089622">
        <ele>2155.4099999999999</ele>
        <time>2013-09-12T06:54:20Z</time>
      </trkpt>
      <trkpt lat="42.444583615288138" lon="13.552557500079274">
        <ele>2156.3699999999999</ele>
        <time>2013-09-12T06:54:31Z</time>
      </trkpt>
      <trkpt lat="42.444563833996654" lon="13.552558925002813">
        <ele>2155.4099999999999</ele>
        <time>2013-09-12T06:54:33Z</time>
      </trkpt>
      <trkpt lat="42.44452896527946" lon="13.552530845627189">
        <ele>2157.3400000000001</ele>
        <time>2013-09-12T06:54:37Z</time>
      </trkpt>
      <trkpt lat="42.444448750466108" lon="13.552411654964089">
        <ele>2157.8200000000002</ele>
        <time>2013-09-12T06:54:50Z</time>
      </trkpt>
      <trkpt lat="42.444356717169285" lon="13.552285507321358">
        <ele>2156.3699999999999</ele>
        <time>2013-09-12T06:55:04Z</time>
      </trkpt>
      <trkpt lat="42.444304162636399" lon="13.552236137911677">
        <ele>2158.7800000000002</ele>
        <time>2013-09-12T06:55:10Z</time>
      </trkpt>
      <trkpt lat="42.444252865388989" lon="13.552248124033213">
        <ele>2157.8200000000002</ele>
        <time>2013-09-12T06:55:16Z</time>
      </trkpt>
      <trkpt lat="42.444190923124552" lon="13.552198000252247">
        <ele>2160.2199999999998</ele>
        <time>2013-09-12T06:55:24Z</time>
      </trkpt>
      <trkpt lat="42.444181535393" lon="13.552195150405169">
        <ele>2160.2199999999998</ele>
        <time>2013-09-12T06:55:25Z</time>
      </trkpt>
      <trkpt lat="42.444134345278144" lon="13.552174447104335">
        <ele>2156.8600000000001</ele>
        <time>2013-09-12T06:55:31Z</time>
      </trkpt>
      <trkpt lat="42.444127136841416" lon="13.552165478467941">
        <ele>2157.3400000000001</ele>
        <time>2013-09-12T06:55:32Z</time>
      </trkpt>
      <trkpt lat="42.444107523187995" lon="13.552116109058261">
        <ele>2156.8600000000001</ele>
        <time>2013-09-12T06:55:36Z</time>
      </trkpt>
      <trkpt lat="42.444034852087498" lon="13.552033379673958">
        <ele>2160.2199999999998</ele>
        <time>2013-09-12T06:55:44Z</time>
      </trkpt>
      <trkpt lat="42.444025883451104" lon="13.552027679979801">
        <ele>2159.7399999999998</ele>
        <time>2013-09-12T06:55:45Z</time>
      </trkpt>
      <trkpt lat="42.443993613123894" lon="13.551997672766447">
        <ele>2157.8200000000002</ele>
        <time>2013-09-12T06:55:49Z</time>
      </trkpt>
      <trkpt lat="42.443980285897851" lon="13.551978226751089">
        <ele>2159.7399999999998</ele>
        <time>2013-09-12T06:55:51Z</time>
      </trkpt>
      <trkpt lat="42.443875763565302" lon="13.551850318908691">
        <ele>2162.1399999999999</ele>
        <time>2013-09-12T06:56:08Z</time>
      </trkpt>
      <trkpt lat="42.44383460842073" lon="13.551796842366457">
        <ele>2160.2199999999998</ele>
        <time>2013-09-12T06:56:13Z</time>
      </trkpt>
      <trkpt lat="42.443793369457126" lon="13.551752585917711">
        <ele>2160.2199999999998</ele>
        <time>2013-09-12T06:56:18Z</time>
      </trkpt>
      <trkpt lat="42.443753052502871" lon="13.551714280620217">
        <ele>2159.2600000000002</ele>
        <time>2013-09-12T06:56:23Z</time>
      </trkpt>
      <trkpt lat="42.443717513233423" lon="13.551656026393175">
        <ele>2158.7800000000002</ele>
        <time>2013-09-12T06:56:28Z</time>
      </trkpt>
      <trkpt lat="42.443645177409053" lon="13.551553683355451">
        <ele>2162.1399999999999</ele>
        <time>2013-09-12T06:56:38Z</time>
      </trkpt>
      <trkpt lat="42.443638304248452" lon="13.551548067480326">
        <ele>2162.1399999999999</ele>
        <time>2013-09-12T06:56:39Z</time>
      </trkpt>
      <trkpt lat="42.443534871563315" lon="13.551370622590184">
        <ele>2160.6999999999998</ele>
        <time>2013-09-12T06:56:55Z</time>
      </trkpt>
      <trkpt lat="42.443519365042448" lon="13.551344890147448">
        <ele>2162.1399999999999</ele>
        <time>2013-09-12T06:56:58Z</time>
      </trkpt>
      <trkpt lat="42.443438060581684" lon="13.551250761374831">
        <ele>2161.1799999999998</ele>
        <time>2013-09-12T06:57:08Z</time>
      </trkpt>
      <trkpt lat="42.443359438329935" lon="13.551117824390531">
        <ele>2160.6999999999998</ele>
        <time>2013-09-12T06:57:19Z</time>
      </trkpt>
      <trkpt lat="42.443275367841125" lon="13.550955131649971">
        <ele>2161.1799999999998</ele>
        <time>2013-09-12T06:57:31Z</time>
      </trkpt>
      <trkpt lat="42.443163972347975" lon="13.550783386453986">
        <ele>2160.6999999999998</ele>
        <time>2013-09-12T06:57:48Z</time>
      </trkpt>
      <trkpt lat="42.4431471247226" lon="13.550720186904073">
        <ele>2161.1799999999998</ele>
        <time>2013-09-12T06:57:53Z</time>
      </trkpt>
      <trkpt lat="42.443140586838126" lon="13.550699483603239">
        <ele>2161.6599999999999</ele>
        <time>2013-09-12T06:57:55Z</time>
      </trkpt>
      <trkpt lat="42.443121895194054" lon="13.550614574924111">
        <ele>2165.5100000000002</ele>
        <time>2013-09-12T06:58:04Z</time>
      </trkpt>
      <trkpt lat="42.443120637908578" lon="13.550596637651324">
        <ele>2161.6599999999999</ele>
        <time>2013-09-12T06:58:06Z</time>
      </trkpt>
      <trkpt lat="42.443118710070848" lon="13.550588842481375">
        <ele>2161.6599999999999</ele>
        <time>2013-09-12T06:58:07Z</time>
      </trkpt>
      <trkpt lat="42.443116614595056" lon="13.550563361495733">
        <ele>2163.5799999999999</ele>
        <time>2013-09-12T06:58:10Z</time>
      </trkpt>
      <trkpt lat="42.443106975406408" lon="13.55048406869173">
        <ele>2166.9499999999998</ele>
        <time>2013-09-12T06:58:20Z</time>
      </trkpt>
      <trkpt lat="42.443110998719931" lon="13.550467891618609">
        <ele>2163.0999999999999</ele>
        <time>2013-09-12T06:58:22Z</time>
      </trkpt>
      <trkpt lat="42.443110411986709" lon="13.55045959353447">
        <ele>2163.5799999999999</ele>
        <time>2013-09-12T06:58:23Z</time>
      </trkpt>
      <trkpt lat="42.443108148872852" lon="13.550443248823285">
        <ele>2164.5500000000002</ele>
        <time>2013-09-12T06:58:25Z</time>
      </trkpt>
      <trkpt lat="42.443104879930615" lon="13.55041760019958">
        <ele>2167.9099999999999</ele>
        <time>2013-09-12T06:58:28Z</time>
      </trkpt>
      <trkpt lat="42.443110076710582" lon="13.550401171669364">
        <ele>2164.5500000000002</ele>
        <time>2013-09-12T06:58:31Z</time>
      </trkpt>
      <trkpt lat="42.443106975406408" lon="13.550387928262353">
        <ele>2168.3899999999999</ele>
        <time>2013-09-12T06:58:33Z</time>
      </trkpt>
      <trkpt lat="42.443107645958662" lon="13.550369823351502">
        <ele>2162.6199999999999</ele>
        <time>2013-09-12T06:58:35Z</time>
      </trkpt>
      <trkpt lat="42.443110411986709" lon="13.550320034846663">
        <ele>2170.79</ele>
        <time>2013-09-12T06:58:41Z</time>
      </trkpt>
      <trkpt lat="42.443108903244138" lon="13.550309306010604">
        <ele>2167.9099999999999</ele>
        <time>2013-09-12T06:58:42Z</time>
      </trkpt>
      <trkpt lat="42.443107729777694" lon="13.550290614366531">
        <ele>2164.5500000000002</ele>
        <time>2013-09-12T06:58:44Z</time>
      </trkpt>
      <trkpt lat="42.443103538826108" lon="13.550269911065698">
        <ele>2169.8299999999999</ele>
        <time>2013-09-12T06:58:46Z</time>
      </trkpt>
      <trkpt lat="42.443104879930615" lon="13.550261529162526">
        <ele>2166.9499999999998</ele>
        <time>2013-09-12T06:58:47Z</time>
      </trkpt>
      <trkpt lat="42.443102952092886" lon="13.550216937437654">
        <ele>2169.3499999999999</ele>
        <time>2013-09-12T06:58:52Z</time>
      </trkpt>
      <trkpt lat="42.443103874102235" lon="13.550174441188574">
        <ele>2173.6799999999998</ele>
        <time>2013-09-12T06:58:56Z</time>
      </trkpt>
      <trkpt lat="42.443102784454823" lon="13.550164382904768">
        <ele>2169.8299999999999</ele>
        <time>2013-09-12T06:58:57Z</time>
      </trkpt>
      <trkpt lat="42.443105801939964" lon="13.550074528902769">
        <ele>2165.9899999999998</ele>
        <time>2013-09-12T06:59:05Z</time>
      </trkpt>
      <trkpt lat="42.443107310682535" lon="13.550066566094756">
        <ele>2165.5100000000002</ele>
        <time>2013-09-12T06:59:06Z</time>
      </trkpt>
      <trkpt lat="42.443105131387711" lon="13.550034379586577">
        <ele>2168.8699999999999</ele>
        <time>2013-09-12T06:59:09Z</time>
      </trkpt>
      <trkpt lat="42.443107226863503" lon="13.550023902207613">
        <ele>2165.5100000000002</ele>
        <time>2013-09-12T06:59:10Z</time>
      </trkpt>
      <trkpt lat="42.443108148872852" lon="13.550011916086078">
        <ele>2165.5100000000002</ele>
        <time>2013-09-12T06:59:11Z</time>
      </trkpt>
      <trkpt lat="42.443110076710582" lon="13.549977885559201">
        <ele>2169.8299999999999</ele>
        <time>2013-09-12T06:59:14Z</time>
      </trkpt>
      <trkpt lat="42.443112004548311" lon="13.54996707290411">
        <ele>2170.3099999999999</ele>
        <time>2013-09-12T06:59:15Z</time>
      </trkpt>
      <trkpt lat="42.443117285147309" lon="13.549908986315131">
        <ele>2171.7600000000002</ele>
        <time>2013-09-12T06:59:20Z</time>
      </trkpt>
      <trkpt lat="42.443122230470181" lon="13.549866490066051">
        <ele>2167.9099999999999</ele>
        <time>2013-09-12T06:59:23Z</time>
      </trkpt>
      <trkpt lat="42.443124409765005" lon="13.549850061535835">
        <ele>2168.3899999999999</ele>
        <time>2013-09-12T06:59:24Z</time>
      </trkpt>
      <trkpt lat="42.443123236298561" lon="13.549791974946856">
        <ele>2163.5799999999999</ele>
        <time>2013-09-12T06:59:29Z</time>
      </trkpt>
      <trkpt lat="42.443124828860164" lon="13.549780827015638">
        <ele>2165.5100000000002</ele>
        <time>2013-09-12T06:59:30Z</time>
      </trkpt>
      <trkpt lat="42.443127008154988" lon="13.549768924713135">
        <ele>2168.8699999999999</ele>
        <time>2013-09-12T06:59:31Z</time>
      </trkpt>
      <trkpt lat="42.443129019811749" lon="13.549754591658711">
        <ele>2168.8699999999999</ele>
        <time>2013-09-12T06:59:32Z</time>
      </trkpt>
      <trkpt lat="42.44316229596734" lon="13.549658451229334">
        <ele>2172.7199999999998</ele>
        <time>2013-09-12T06:59:41Z</time>
      </trkpt>
      <trkpt lat="42.44316766038537" lon="13.549647806212306">
        <ele>2171.7600000000002</ele>
        <time>2013-09-12T06:59:42Z</time>
      </trkpt>
      <trkpt lat="42.443177383393049" lon="13.549612518399954">
        <ele>2170.3099999999999</ele>
        <time>2013-09-12T06:59:45Z</time>
      </trkpt>
      <trkpt lat="42.443182915449142" lon="13.549592737108469">
        <ele>2173.6799999999998</ele>
        <time>2013-09-12T06:59:47Z</time>
      </trkpt>
      <trkpt lat="42.44318375363946" lon="13.549557365477085">
        <ele>2174.1599999999999</ele>
        <time>2013-09-12T06:59:50Z</time>
      </trkpt>
      <trkpt lat="42.443184340372682" lon="13.549528615549207">
        <ele>2170.3099999999999</ele>
        <time>2013-09-12T06:59:52Z</time>
      </trkpt>
      <trkpt lat="42.443187525495887" lon="13.549519395455718">
        <ele>2173.1999999999998</ele>
        <time>2013-09-12T06:59:53Z</time>
      </trkpt>
      <trkpt lat="42.443188196048141" lon="13.549464326351881">
        <ele>2171.27</ele>
        <time>2013-09-12T06:59:57Z</time>
      </trkpt>
      <trkpt lat="42.443195907399058" lon="13.549418561160564">
        <ele>2172.2399999999998</ele>
        <time>2013-09-12T07:00:01Z</time>
      </trkpt>
      <trkpt lat="42.443206971511245" lon="13.549383776262403">
        <ele>2170.79</ele>
        <time>2013-09-12T07:00:04Z</time>
      </trkpt>
      <trkpt lat="42.443241253495216" lon="13.549231979995966">
        <ele>2169.3499999999999</ele>
        <time>2013-09-12T07:00:16Z</time>
      </trkpt>
      <trkpt lat="42.443247120827436" lon="13.549201553687453">
        <ele>2169.3499999999999</ele>
        <time>2013-09-12T07:00:18Z</time>
      </trkpt>
      <trkpt lat="42.443253742530942" lon="13.549142796546221">
        <ele>2172.2399999999998</ele>
        <time>2013-09-12T07:00:22Z</time>
      </trkpt>
      <trkpt lat="42.443256508558989" lon="13.549130475148559">
        <ele>2170.79</ele>
        <time>2013-09-12T07:00:23Z</time>
      </trkpt>
      <trkpt lat="42.443262040615082" lon="13.549104910343885">
        <ele>2166.9499999999998</ele>
        <time>2013-09-12T07:00:25Z</time>
      </trkpt>
      <trkpt lat="42.443288778886199" lon="13.548998711630702">
        <ele>2170.79</ele>
        <time>2013-09-12T07:00:32Z</time>
      </trkpt>
      <trkpt lat="42.44329079054296" lon="13.548985635861754">
        <ele>2170.3099999999999</ele>
        <time>2013-09-12T07:00:33Z</time>
      </trkpt>
      <trkpt lat="42.443302776664495" lon="13.548926208168268">
        <ele>2166.4699999999998</ele>
        <time>2013-09-12T07:00:37Z</time>
      </trkpt>
      <trkpt lat="42.443322809413075" lon="13.548830905929208">
        <ele>2163.5799999999999</ele>
        <time>2013-09-12T07:00:44Z</time>
      </trkpt>
      <trkpt lat="42.44335038587451" lon="13.548775250092149">
        <ele>2160.2199999999998</ele>
        <time>2013-09-12T07:00:49Z</time>
      </trkpt>
      <trkpt lat="42.443361449986696" lon="13.548750272020698">
        <ele>2157.8200000000002</ele>
        <time>2013-09-12T07:00:51Z</time>
      </trkpt>
      <trkpt lat="42.443374861031771" lon="13.548727473244071">
        <ele>2161.1799999999998</ele>
        <time>2013-09-12T07:00:53Z</time>
      </trkpt>
      <trkpt lat="42.443444095551968" lon="13.548631500452757">
        <ele>2159.7399999999998</ele>
        <time>2013-09-12T07:01:02Z</time>
      </trkpt>
      <trkpt lat="42.443461949005723" lon="13.548612892627716">
        <ele>2162.1399999999999</ele>
        <time>2013-09-12T07:01:04Z</time>
      </trkpt>
      <trkpt lat="42.44353168644011" lon="13.548544831573963">
        <ele>2160.2199999999998</ele>
        <time>2013-09-12T07:01:12Z</time>
      </trkpt>
      <trkpt lat="42.443685075268149" lon="13.548410218209028">
        <ele>2160.2199999999998</ele>
        <time>2013-09-12T07:01:28Z</time>
      </trkpt>
      <trkpt lat="42.443705191835761" lon="13.548369649797678">
        <ele>2158.3000000000002</ele>
        <time>2013-09-12T07:01:31Z</time>
      </trkpt>
      <trkpt lat="42.443739306181669" lon="13.54833846911788">
        <ele>2155.8899999999999</ele>
        <time>2013-09-12T07:01:36Z</time>
      </trkpt>
      <trkpt lat="42.44380728341639" lon="13.548252386972308">
        <ele>2153.0100000000002</ele>
        <time>2013-09-12T07:01:46Z</time>
      </trkpt>
      <trkpt lat="42.443814324215055" lon="13.548241155222058">
        <ele>2152.5300000000002</ele>
        <time>2013-09-12T07:01:47Z</time>
      </trkpt>
      <trkpt lat="42.443858496844769" lon="13.548170998692513">
        <ele>2149.1599999999999</ele>
        <time>2013-09-12T07:01:53Z</time>
      </trkpt>
      <trkpt lat="42.443874338641763" lon="13.548150965943933">
        <ele>2149.6500000000001</ele>
        <time>2013-09-12T07:01:55Z</time>
      </trkpt>
      <trkpt lat="42.44390744715929" lon="13.548096399754286">
        <ele>2145.3200000000002</ele>
        <time>2013-09-12T07:02:00Z</time>
      </trkpt>
      <trkpt lat="42.444009371101856" lon="13.547977460548282">
        <ele>2149.1599999999999</ele>
        <time>2013-09-12T07:02:12Z</time>
      </trkpt>
      <trkpt lat="42.444025883451104" lon="13.547958433628082">
        <ele>2153.0100000000002</ele>
        <time>2013-09-12T07:02:14Z</time>
      </trkpt>
      <trkpt lat="42.444060500711203" lon="13.547921050339937">
        <ele>2154.4499999999998</ele>
        <time>2013-09-12T07:02:18Z</time>
      </trkpt>
      <trkpt lat="42.444117581471801" lon="13.547872938215733">
        <ele>2149.6500000000001</ele>
        <time>2013-09-12T07:02:24Z</time>
      </trkpt>
      <trkpt lat="42.44412831030786" lon="13.547863215208054">
        <ele>2144.3600000000001</ele>
        <time>2013-09-12T07:02:25Z</time>
      </trkpt>
      <trkpt lat="42.444138284772635" lon="13.547850474715233">
        <ele>2143.8800000000001</ele>
        <time>2013-09-12T07:02:26Z</time>
      </trkpt>
      <trkpt lat="42.444173824042082" lon="13.547813594341278">
        <ele>2142.9200000000001</ele>
        <time>2013-09-12T07:02:30Z</time>
      </trkpt>
      <trkpt lat="42.444246411323547" lon="13.547761542722583">
        <ele>2149.6500000000001</ele>
        <time>2013-09-12T07:02:38Z</time>
      </trkpt>
      <trkpt lat="42.444254541769624" lon="13.547760201618075">
        <ele>2148.6799999999998</ele>
        <time>2013-09-12T07:02:39Z</time>
      </trkpt>
      <trkpt lat="42.444267114624381" lon="13.547760536894202">
        <ele>2147.7199999999998</ele>
        <time>2013-09-12T07:02:41Z</time>
      </trkpt>
      <trkpt lat="42.444289326667786" lon="13.547754334285855">
        <ele>2146.2800000000002</ele>
        <time>2013-09-12T07:02:44Z</time>
      </trkpt>
      <trkpt lat="42.444317741319537" lon="13.547716112807393">
        <ele>2147.7199999999998</ele>
        <time>2013-09-12T07:02:49Z</time>
      </trkpt>
      <trkpt lat="42.44437993504107" lon="13.54764268733561">
        <ele>2148.1999999999998</ele>
        <time>2013-09-12T07:02:57Z</time>
      </trkpt>
      <trkpt lat="42.444395190104842" lon="13.547623492777348">
        <ele>2144.8400000000001</ele>
        <time>2013-09-12T07:02:59Z</time>
      </trkpt>
      <trkpt lat="42.44439996778965" lon="13.547613602131605">
        <ele>2144.3600000000001</ele>
        <time>2013-09-12T07:03:00Z</time>
      </trkpt>
      <trkpt lat="42.444414552301168" lon="13.547554928809404">
        <ele>2147.2399999999998</ele>
        <time>2013-09-12T07:03:05Z</time>
      </trkpt>
      <trkpt lat="42.444427376613021" lon="13.54743355885148">
        <ele>2143.4000000000001</ele>
        <time>2013-09-12T07:03:13Z</time>
      </trkpt>
      <trkpt lat="42.444429052993655" lon="13.547419812530279">
        <ele>2144.3600000000001</ele>
        <time>2013-09-12T07:03:14Z</time>
      </trkpt>
      <trkpt lat="42.444434082135558" lon="13.547393158078194">
        <ele>2147.7199999999998</ele>
        <time>2013-09-12T07:03:16Z</time>
      </trkpt>
      <trkpt lat="42.444435926154256" lon="13.54737832210958">
        <ele>2147.7199999999998</ele>
        <time>2013-09-12T07:03:17Z</time>
      </trkpt>
      <trkpt lat="42.444435674697161" lon="13.547303639352322">
        <ele>2144.3600000000001</ele>
        <time>2013-09-12T07:03:22Z</time>
      </trkpt>
      <trkpt lat="42.444453863427043" lon="13.547230381518602">
        <ele>2148.6799999999998</ele>
        <time>2013-09-12T07:03:27Z</time>
      </trkpt>
      <trkpt lat="42.444466268643737" lon="13.547208420932293">
        <ele>2150.1300000000001</ele>
        <time>2013-09-12T07:03:29Z</time>
      </trkpt>
      <trkpt lat="42.44449527002871" lon="13.547164415940642">
        <ele>2151.5700000000002</ele>
        <time>2013-09-12T07:03:33Z</time>
      </trkpt>
      <trkpt lat="42.444511111825705" lon="13.547130636870861">
        <ele>2153.0100000000002</ele>
        <time>2013-09-12T07:03:36Z</time>
      </trkpt>
      <trkpt lat="42.444504238665104" lon="13.547047488391399">
        <ele>2151.5700000000002</ele>
        <time>2013-09-12T07:03:43Z</time>
      </trkpt>
      <trkpt lat="42.444499460980296" lon="13.547011110931635">
        <ele>2151.0900000000001</ele>
        <time>2013-09-12T07:03:46Z</time>
      </trkpt>
      <trkpt lat="42.444502981379628" lon="13.546956460922956">
        <ele>2150.6100000000001</ele>
        <time>2013-09-12T07:03:50Z</time>
      </trkpt>
      <trkpt lat="42.444480769336224" lon="13.546767784282565">
        <ele>2150.6100000000001</ele>
        <time>2013-09-12T07:04:04Z</time>
      </trkpt>
      <trkpt lat="42.444484289735556" lon="13.546571983024478">
        <ele>2151.0900000000001</ele>
        <time>2013-09-12T07:04:20Z</time>
      </trkpt>
      <trkpt lat="42.444484205916524" lon="13.546492606401443">
        <ele>2154.4499999999998</ele>
        <time>2013-09-12T07:04:27Z</time>
      </trkpt>
      <trkpt lat="42.444519326090813" lon="13.546328907832503">
        <ele>2154.9299999999998</ele>
        <time>2013-09-12T07:04:42Z</time>
      </trkpt>
      <trkpt lat="42.444516895338893" lon="13.546261601150036">
        <ele>2155.4099999999999</ele>
        <time>2013-09-12T07:04:48Z</time>
      </trkpt>
      <trkpt lat="42.444495521485806" lon="13.546140482649207">
        <ele>2157.3400000000001</ele>
        <time>2013-09-12T07:04:57Z</time>
      </trkpt>
      <trkpt lat="42.444489737972617" lon="13.546128496527672">
        <ele>2158.3000000000002</ele>
        <time>2013-09-12T07:04:58Z</time>
      </trkpt>
      <trkpt lat="42.444471884518862" lon="13.546103853732347">
        <ele>2156.8600000000001</ele>
        <time>2013-09-12T07:05:01Z</time>
      </trkpt>
      <trkpt lat="42.444455539807677" lon="13.54607074521482">
        <ele>2156.8600000000001</ele>
        <time>2013-09-12T07:05:04Z</time>
      </trkpt>
      <trkpt lat="42.444447660818696" lon="13.546040486544371">
        <ele>2154.4499999999998</ele>
        <time>2013-09-12T07:05:06Z</time>
      </trkpt>
      <trkpt lat="42.444463334977627" lon="13.54596714489162">
        <ele>2153.4899999999998</ele>
        <time>2013-09-12T07:05:11Z</time>
      </trkpt>
      <trkpt lat="42.444464424625039" lon="13.545945603400469">
        <ele>2155.4099999999999</ele>
        <time>2013-09-12T07:05:13Z</time>
      </trkpt>
      <trkpt lat="42.444469286128879" lon="13.545910567045212">
        <ele>2159.7399999999998</ele>
        <time>2013-09-12T07:05:16Z</time>
      </trkpt>
      <trkpt lat="42.444473225623369" lon="13.545836638659239">
        <ele>2158.3000000000002</ele>
        <time>2013-09-12T07:05:21Z</time>
      </trkpt>
      <trkpt lat="42.44443760253489" lon="13.545729015022516">
        <ele>2153.4899999999998</ele>
        <time>2013-09-12T07:05:30Z</time>
      </trkpt>
      <trkpt lat="42.444416228681803" lon="13.545664809644222">
        <ele>2157.3400000000001</ele>
        <time>2013-09-12T07:05:36Z</time>
      </trkpt>
      <trkpt lat="42.444406086578965" lon="13.545641759410501">
        <ele>2158.3000000000002</ele>
        <time>2013-09-12T07:05:38Z</time>
      </trkpt>
      <trkpt lat="42.444396950304508" lon="13.545619379729033">
        <ele>2158.3000000000002</ele>
        <time>2013-09-12T07:05:40Z</time>
      </trkpt>
      <trkpt lat="42.444378007203341" lon="13.545548720285296">
        <ele>2160.6999999999998</ele>
        <time>2013-09-12T07:05:45Z</time>
      </trkpt>
      <trkpt lat="42.444371972233057" lon="13.545529022812843">
        <ele>2162.1399999999999</ele>
        <time>2013-09-12T07:05:47Z</time>
      </trkpt>
      <trkpt lat="42.444361075758934" lon="13.545492477715015">
        <ele>2160.2199999999998</ele>
        <time>2013-09-12T07:05:50Z</time>
      </trkpt>
      <trkpt lat="42.444327129051089" lon="13.545390972867608">
        <ele>2158.3000000000002</ele>
        <time>2013-09-12T07:05:58Z</time>
      </trkpt>
      <trkpt lat="42.44429930113256" lon="13.545352583751082">
        <ele>2161.6599999999999</ele>
        <time>2013-09-12T07:06:02Z</time>
      </trkpt>
      <trkpt lat="42.444294355809689" lon="13.545347303152084">
        <ele>2162.1399999999999</ele>
        <time>2013-09-12T07:06:03Z</time>
      </trkpt>
      <trkpt lat="42.444254122674465" lon="13.545341268181801">
        <ele>2159.2600000000002</ele>
        <time>2013-09-12T07:06:09Z</time>
      </trkpt>
      <trkpt lat="42.444187235087156" lon="13.545293239876628">
        <ele>2155.8899999999999</ele>
        <time>2013-09-12T07:06:18Z</time>
      </trkpt>
      <trkpt lat="42.444132165983319" lon="13.545179581269622">
        <ele>2154.9299999999998</ele>
        <time>2013-09-12T07:06:26Z</time>
      </trkpt>
      <trkpt lat="42.444107104092836" lon="13.545129541307688">
        <ele>2155.4099999999999</ele>
        <time>2013-09-12T07:06:30Z</time>
      </trkpt>
      <trkpt lat="42.444101488217711" lon="13.545106491073966">
        <ele>2154.4499999999998</ele>
        <time>2013-09-12T07:06:32Z</time>
      </trkpt>
      <trkpt lat="42.444088915362954" lon="13.545073801651597">
        <ele>2155.8899999999999</ele>
        <time>2013-09-12T07:06:35Z</time>
      </trkpt>
      <trkpt lat="42.444071313366294" lon="13.545008506625891">
        <ele>2157.3400000000001</ele>
        <time>2013-09-12T07:06:40Z</time>
      </trkpt>
      <trkpt lat="42.444071061909199" lon="13.544968944042921">
        <ele>2156.3699999999999</ele>
        <time>2013-09-12T07:06:43Z</time>
      </trkpt>
      <trkpt lat="42.444056812673807" lon="13.544884035363793">
        <ele>2157.8200000000002</ele>
        <time>2013-09-12T07:06:50Z</time>
      </trkpt>
      <trkpt lat="42.444052705541253" lon="13.544871630147099">
        <ele>2156.3699999999999</ele>
        <time>2013-09-12T07:06:51Z</time>
      </trkpt>
      <trkpt lat="42.444031834602356" lon="13.544802060350776">
        <ele>2157.8200000000002</ele>
        <time>2013-09-12T07:06:57Z</time>
      </trkpt>
      <trkpt lat="42.444019680842757" lon="13.544748751446605">
        <ele>2157.3400000000001</ele>
        <time>2013-09-12T07:07:02Z</time>
      </trkpt>
      <trkpt lat="42.444013729691505" lon="13.544723270460963">
        <ele>2159.2600000000002</ele>
        <time>2013-09-12T07:07:11Z</time>
      </trkpt>
      <trkpt lat="42.444013981148601" lon="13.544720252975821">
        <ele>2155.8899999999999</ele>
        <time>2013-09-12T07:07:12Z</time>
      </trkpt>
      <trkpt lat="42.444014819338918" lon="13.544716900214553">
        <ele>2155.8899999999999</ele>
        <time>2013-09-12T07:07:13Z</time>
      </trkpt>
      <trkpt lat="42.444014232605696" lon="13.544693849980831">
        <ele>2154.4499999999998</ele>
        <time>2013-09-12T07:07:15Z</time>
      </trkpt>
      <trkpt lat="42.444018423557281" lon="13.544655125588179">
        <ele>2157.3400000000001</ele>
        <time>2013-09-12T07:07:18Z</time>
      </trkpt>
      <trkpt lat="42.444022782146931" lon="13.544644061475992">
        <ele>2162.1399999999999</ele>
        <time>2013-09-12T07:07:20Z</time>
      </trkpt>
      <trkpt lat="42.444023117423058" lon="13.544639367610216">
        <ele>2161.6599999999999</ele>
        <time>2013-09-12T07:07:21Z</time>
      </trkpt>
      <trkpt lat="42.444029739126563" lon="13.544626208022237">
        <ele>2159.2600000000002</ele>
        <time>2013-09-12T07:07:23Z</time>
      </trkpt>
      <trkpt lat="42.444057399407029" lon="13.544544484466314">
        <ele>2162.1399999999999</ele>
        <time>2013-09-12T07:07:36Z</time>
      </trkpt>
      <trkpt lat="42.444055220112205" lon="13.544513722881675">
        <ele>2160.2199999999998</ele>
        <time>2013-09-12T07:07:40Z</time>
      </trkpt>
      <trkpt lat="42.444067876785994" lon="13.544451612979174">
        <ele>2164.0599999999999</ele>
        <time>2013-09-12T07:07:50Z</time>
      </trkpt>
      <trkpt lat="42.444067038595676" lon="13.544394029304385">
        <ele>2166.4699999999998</ele>
        <time>2013-09-12T07:07:57Z</time>
      </trkpt>
      <trkpt lat="42.444073241204023" lon="13.544326974079013">
        <ele>2166.4699999999998</ele>
        <time>2013-09-12T07:08:08Z</time>
      </trkpt>
      <trkpt lat="42.44407064281404" lon="13.544203257188201">
        <ele>2168.3899999999999</ele>
        <time>2013-09-12T07:08:23Z</time>
      </trkpt>
      <trkpt lat="42.444077013060451" lon="13.54415237903595">
        <ele>2170.3099999999999</ele>
        <time>2013-09-12T07:08:31Z</time>
      </trkpt>
      <trkpt lat="42.444116156548262" lon="13.544067554175854">
        <ele>2171.7600000000002</ele>
        <time>2013-09-12T07:08:45Z</time>
      </trkpt>
      <trkpt lat="42.444135351106524" lon="13.544049616903067">
        <ele>2174.6399999999999</ele>
        <time>2013-09-12T07:08:49Z</time>
      </trkpt>
      <trkpt lat="42.44416493922472" lon="13.544031595811248">
        <ele>2177.52</ele>
        <time>2013-09-12T07:08:55Z</time>
      </trkpt>
      <trkpt lat="42.444176254794002" lon="13.544024722650647">
        <ele>2182.3299999999999</ele>
        <time>2013-09-12T07:08:57Z</time>
      </trkpt>
      <trkpt lat="42.444172818213701" lon="13.544024303555489">
        <ele>2181.3699999999999</ele>
        <time>2013-09-12T07:08:58Z</time>
      </trkpt>
      <trkpt lat="42.444203412160277" lon="13.54401751421392">
        <ele>2178</ele>
        <time>2013-09-12T07:09:05Z</time>
      </trkpt>
      <trkpt lat="42.444214560091496" lon="13.544011395424604">
        <ele>2181.3699999999999</ele>
        <time>2013-09-12T07:09:07Z</time>
      </trkpt>
      <trkpt lat="42.444231659173965" lon="13.544000582769513">
        <ele>2178</ele>
        <time>2013-09-12T07:09:10Z</time>
      </trkpt>
      <trkpt lat="42.444237777963281" lon="13.543998738750815">
        <ele>2181.8499999999999</ele>
        <time>2013-09-12T07:09:11Z</time>
      </trkpt>
      <trkpt lat="42.444271976128221" lon="13.543979544192553">
        <ele>2185.6900000000001</ele>
        <time>2013-09-12T07:09:17Z</time>
      </trkpt>
      <trkpt lat="42.444274825975299" lon="13.543977029621601">
        <ele>2181.8499999999999</ele>
        <time>2013-09-12T07:09:18Z</time>
      </trkpt>
      <trkpt lat="42.444293769076467" lon="13.543965881690383">
        <ele>2168.8699999999999</ele>
        <time>2013-09-12T07:09:23Z</time>
      </trkpt>
      <trkpt lat="42.444297708570957" lon="13.543963870033622">
        <ele>2178</ele>
        <time>2013-09-12T07:09:24Z</time>
      </trkpt>
      <trkpt lat="42.444312712177634" lon="13.543950626626611">
        <ele>2182.3299999999999</ele>
        <time>2013-09-12T07:09:27Z</time>
      </trkpt>
      <trkpt lat="42.444317238405347" lon="13.543949201703072">
        <ele>2178</ele>
        <time>2013-09-12T07:09:28Z</time>
      </trkpt>
      <trkpt lat="42.444387646391988" lon="13.543914165347815">
        <ele>2176.5599999999999</ele>
        <time>2013-09-12T07:09:37Z</time>
      </trkpt>
      <trkpt lat="42.444404494017363" lon="13.54390955530107">
        <ele>2173.1999999999998</ele>
        <time>2013-09-12T07:09:39Z</time>
      </trkpt>
      <trkpt lat="42.444410026073456" lon="13.543907543644309">
        <ele>2174.6399999999999</ele>
        <time>2013-09-12T07:09:40Z</time>
      </trkpt>
      <trkpt lat="42.444466603919864" lon="13.543905867263675">
        <ele>2170.79</ele>
        <time>2013-09-12T07:09:48Z</time>
      </trkpt>
      <trkpt lat="42.444472638890147" lon="13.543901173397899">
        <ele>2169.3499999999999</ele>
        <time>2013-09-12T07:09:49Z</time>
      </trkpt>
      <trkpt lat="42.444498287513852" lon="13.54389488697052">
        <ele>2173.6799999999998</ele>
        <time>2013-09-12T07:09:52Z</time>
      </trkpt>
      <trkpt lat="42.444570707157254" lon="13.543872507289052">
        <ele>2172.7199999999998</ele>
        <time>2013-09-12T07:10:02Z</time>
      </trkpt>
      <trkpt lat="42.444658381864429" lon="13.543817522004247">
        <ele>2171.7600000000002</ele>
        <time>2013-09-12T07:10:11Z</time>
      </trkpt>
      <trkpt lat="42.444702554494143" lon="13.543817857280374">
        <ele>2174.6399999999999</ele>
        <time>2013-09-12T07:10:16Z</time>
      </trkpt>
      <trkpt lat="42.444726107642055" lon="13.543812241405249">
        <ele>2177.04</ele>
        <time>2013-09-12T07:10:18Z</time>
      </trkpt>
      <trkpt lat="42.444748906418681" lon="13.543804781511426">
        <ele>2172.7199999999998</ele>
        <time>2013-09-12T07:10:20Z</time>
      </trkpt>
      <trkpt lat="42.444759886711836" lon="13.543800674378872">
        <ele>2172.7199999999998</ele>
        <time>2013-09-12T07:10:21Z</time>
      </trkpt>
      <trkpt lat="42.444808082655072" lon="13.543776953592896">
        <ele>2174.6399999999999</ele>
        <time>2013-09-12T07:10:26Z</time>
      </trkpt>
      <trkpt lat="42.444905983284116" lon="13.543701516464353">
        <ele>2174.6399999999999</ele>
        <time>2013-09-12T07:10:37Z</time>
      </trkpt>
      <trkpt lat="42.445030454546213" lon="13.543611075729132">
        <ele>2171.7600000000002</ele>
        <time>2013-09-12T07:10:51Z</time>
      </trkpt>
      <trkpt lat="42.445040512830019" lon="13.543601771816611">
        <ele>2171.7600000000002</ele>
        <time>2013-09-12T07:10:52Z</time>
      </trkpt>
      <trkpt lat="42.445055684074759" lon="13.54359338991344">
        <ele>2175.5999999999999</ele>
        <time>2013-09-12T07:10:54Z</time>
      </trkpt>
      <trkpt lat="42.445066161453724" lon="13.543592384085059">
        <ele>2175.5999999999999</ele>
        <time>2013-09-12T07:10:55Z</time>
      </trkpt>
      <trkpt lat="42.445186274126172" lon="13.543523065745831">
        <ele>2175.5999999999999</ele>
        <time>2013-09-12T07:11:09Z</time>
      </trkpt>
      <trkpt lat="42.445294987410307" lon="13.543478641659021">
        <ele>2178</ele>
        <time>2013-09-12T07:11:24Z</time>
      </trkpt>
      <trkpt lat="42.44531225413084" lon="13.543462799862027">
        <ele>2178</ele>
        <time>2013-09-12T07:11:27Z</time>
      </trkpt>
      <trkpt lat="42.445348547771573" lon="13.543418878689408">
        <ele>2178.48</ele>
        <time>2013-09-12T07:11:32Z</time>
      </trkpt>
      <trkpt lat="42.445409400388598" lon="13.543374119326472">
        <ele>2178.9699999999998</ele>
        <time>2013-09-12T07:11:41Z</time>
      </trkpt>
      <trkpt lat="42.445463547483087" lon="13.54334469884634">
        <ele>2176.5599999999999</ele>
        <time>2013-09-12T07:11:49Z</time>
      </trkpt>
      <trkpt lat="42.445517778396606" lon="13.543303878977895">
        <ele>2177.04</ele>
        <time>2013-09-12T07:11:57Z</time>
      </trkpt>
      <trkpt lat="42.445568740367889" lon="13.543272446841002">
        <ele>2180.4099999999999</ele>
        <time>2013-09-12T07:12:04Z</time>
      </trkpt>
      <trkpt lat="42.445579972118139" lon="13.543262640014291">
        <ele>2181.3699999999999</ele>
        <time>2013-09-12T07:12:06Z</time>
      </trkpt>
      <trkpt lat="42.445668568834662" lon="13.543218383565545">
        <ele>2180.8899999999999</ele>
        <time>2013-09-12T07:12:20Z</time>
      </trkpt>
      <trkpt lat="42.445681476965547" lon="13.543215533718467">
        <ele>2182.3299999999999</ele>
        <time>2013-09-12T07:12:22Z</time>
      </trkpt>
      <trkpt lat="42.445759931579232" lon="13.543177731335163">
        <ele>2180.4099999999999</ele>
        <time>2013-09-12T07:12:35Z</time>
      </trkpt>
      <trkpt lat="42.445781724527478" lon="13.543161721900105">
        <ele>2183.29</ele>
        <time>2013-09-12T07:12:38Z</time>
      </trkpt>
      <trkpt lat="42.445803685113788" lon="13.543136743828654">
        <ele>2180.8899999999999</ele>
        <time>2013-09-12T07:12:41Z</time>
      </trkpt>
      <trkpt lat="42.445835033431649" lon="13.543120566755533">
        <ele>2180.8899999999999</ele>
        <time>2013-09-12T07:12:46Z</time>
      </trkpt>
      <trkpt lat="42.445897981524467" lon="13.543074717745185">
        <ele>2183.77</ele>
        <time>2013-09-12T07:12:55Z</time>
      </trkpt>
      <trkpt lat="42.445938047021627" lon="13.543063150718808">
        <ele>2184.25</ele>
        <time>2013-09-12T07:13:01Z</time>
      </trkpt>
      <trkpt lat="42.445971323177218" lon="13.543053343892097">
        <ele>2186.6599999999999</ele>
        <time>2013-09-12T07:13:06Z</time>
      </trkpt>
      <trkpt lat="42.445987919345498" lon="13.543052254244685">
        <ele>2185.21</ele>
        <time>2013-09-12T07:13:10Z</time>
      </trkpt>
      <trkpt lat="42.446021698415279" lon="13.543040184304118">
        <ele>2187.6199999999999</ele>
        <time>2013-09-12T07:13:17Z</time>
      </trkpt>
      <trkpt lat="42.446109289303422" lon="13.542981594800949">
        <ele>2189.0599999999999</ele>
        <time>2013-09-12T07:13:32Z</time>
      </trkpt>
      <trkpt lat="42.446147594600916" lon="13.542947815731168">
        <ele>2187.6199999999999</ele>
        <time>2013-09-12T07:13:37Z</time>
      </trkpt>
      <trkpt lat="42.446234431117773" lon="13.542905487120152">
        <ele>2191.46</ele>
        <time>2013-09-12T07:13:48Z</time>
      </trkpt>
      <trkpt lat="42.446255050599575" lon="13.542915545403957">
        <ele>2190.02</ele>
        <time>2013-09-12T07:13:52Z</time>
      </trkpt>
      <trkpt lat="42.446310203522444" lon="13.542883358895779">
        <ele>2190.98</ele>
        <time>2013-09-12T07:14:00Z</time>
      </trkpt>
      <trkpt lat="42.446396285668015" lon="13.542864415794611">
        <ele>2194.3499999999999</ele>
        <time>2013-09-12T07:14:11Z</time>
      </trkpt>
      <trkpt lat="42.446469124406576" lon="13.542812867090106">
        <ele>2194.3499999999999</ele>
        <time>2013-09-12T07:14:21Z</time>
      </trkpt>
      <trkpt lat="42.446575909852982" lon="13.542757295072079">
        <ele>2196.75</ele>
        <time>2013-09-12T07:14:34Z</time>
      </trkpt>
      <trkpt lat="42.446661740541458" lon="13.542732400819659">
        <ele>2200.5900000000001</ele>
        <time>2013-09-12T07:14:45Z</time>
      </trkpt>
      <trkpt lat="42.446671631187201" lon="13.542728209868073">
        <ele>2197.23</ele>
        <time>2013-09-12T07:14:46Z</time>
      </trkpt>
      <trkpt lat="42.446710020303726" lon="13.542726198211312">
        <ele>2193.8699999999999</ele>
        <time>2013-09-12T07:14:51Z</time>
      </trkpt>
      <trkpt lat="42.446750923991203" lon="13.542725946754217">
        <ele>2198.6700000000001</ele>
        <time>2013-09-12T07:14:56Z</time>
      </trkpt>
      <trkpt lat="42.446760814636946" lon="13.542722007259727">
        <ele>2198.6700000000001</ele>
        <time>2013-09-12T07:14:57Z</time>
      </trkpt>
      <trkpt lat="42.446888471022248" lon="13.542692754417658">
        <ele>2202.04</ele>
        <time>2013-09-12T07:15:12Z</time>
      </trkpt>
      <trkpt lat="42.446898277848959" lon="13.542692922055721">
        <ele>2201.5599999999999</ele>
        <time>2013-09-12T07:15:13Z</time>
      </trkpt>
      <trkpt lat="42.446928033605218" lon="13.542694598436356">
        <ele>2201.5599999999999</ele>
        <time>2013-09-12T07:15:17Z</time>
      </trkpt>
      <trkpt lat="42.447000369429588" lon="13.542688898742199">
        <ele>2200.1100000000001</ele>
        <time>2013-09-12T07:15:25Z</time>
      </trkpt>
      <trkpt lat="42.447021575644612" lon="13.542683450505137">
        <ele>2198.6700000000001</ele>
        <time>2013-09-12T07:15:27Z</time>
      </trkpt>
      <trkpt lat="42.447048649191856" lon="13.542680349200964">
        <ele>2200.5900000000001</ele>
        <time>2013-09-12T07:15:30Z</time>
      </trkpt>
      <trkpt lat="42.447153842076659" lon="13.54263667948544">
        <ele>2202.52</ele>
        <time>2013-09-12T07:15:43Z</time>
      </trkpt>
      <trkpt lat="42.447191141545773" lon="13.542618490755558">
        <ele>2203.48</ele>
        <time>2013-09-12T07:15:48Z</time>
      </trkpt>
      <trkpt lat="42.44725601747632" lon="13.542561493813992">
        <ele>2201.5599999999999</ele>
        <time>2013-09-12T07:15:56Z</time>
      </trkpt>
      <trkpt lat="42.447306057438254" lon="13.542531570419669">
        <ele>2204.9200000000001</ele>
        <time>2013-09-12T07:16:04Z</time>
      </trkpt>
      <trkpt lat="42.447312595322728" lon="13.54252427816391">
        <ele>2204.9200000000001</ele>
        <time>2013-09-12T07:16:05Z</time>
      </trkpt>
      <trkpt lat="42.447363054379821" lon="13.542498042806983">
        <ele>2206.8400000000001</ele>
        <time>2013-09-12T07:16:13Z</time>
      </trkpt>
      <trkpt lat="42.447409238666296" lon="13.54247884824872">
        <ele>2207.8099999999999</ele>
        <time>2013-09-12T07:16:21Z</time>
      </trkpt>
      <trkpt lat="42.447493812069297" lon="13.542449679225683">
        <ele>2207.3200000000002</ele>
        <time>2013-09-12T07:16:36Z</time>
      </trkpt>
      <trkpt lat="42.447533877566457" lon="13.542415145784616">
        <ele>2207.8099999999999</ele>
        <time>2013-09-12T07:16:44Z</time>
      </trkpt>
      <trkpt lat="42.447578553110361" lon="13.54237868450582">
        <ele>2208.29</ele>
        <time>2013-09-12T07:16:54Z</time>
      </trkpt>
      <trkpt lat="42.447602106258273" lon="13.542363177984953">
        <ele>2207.8099999999999</ele>
        <time>2013-09-12T07:16:59Z</time>
      </trkpt>
      <trkpt lat="42.447638148441911" lon="13.54234398342669">
        <ele>2210.6900000000001</ele>
        <time>2013-09-12T07:17:06Z</time>
      </trkpt>
      <trkpt lat="42.44771970435977" lon="13.542268797755241">
        <ele>2212.6100000000001</ele>
        <time>2013-09-12T07:17:22Z</time>
      </trkpt>
      <trkpt lat="42.447767816483974" lon="13.542194869369268">
        <ele>2214.5300000000002</ele>
        <time>2013-09-12T07:17:34Z</time>
      </trkpt>
      <trkpt lat="42.447820119559765" lon="13.542073415592313">
        <ele>2218.3800000000001</ele>
        <time>2013-09-12T07:17:50Z</time>
      </trkpt>
      <trkpt lat="42.447823891416192" lon="13.542067548260093">
        <ele>2217.9000000000001</ele>
        <time>2013-09-12T07:17:51Z</time>
      </trkpt>
      <trkpt lat="42.447823472321033" lon="13.542047264054418">
        <ele>2214.0500000000002</ele>
        <time>2013-09-12T07:17:54Z</time>
      </trkpt>
      <trkpt lat="42.447836045175791" lon="13.542026812210679">
        <ele>2219.3400000000001</ele>
        <time>2013-09-12T07:17:58Z</time>
      </trkpt>
      <trkpt lat="42.447838308289647" lon="13.542020861059427">
        <ele>2217.4200000000001</ele>
        <time>2013-09-12T07:17:59Z</time>
      </trkpt>
      <trkpt lat="42.447881642729044" lon="13.541917512193322">
        <ele>2222.2199999999998</ele>
        <time>2013-09-12T07:18:13Z</time>
      </trkpt>
      <trkpt lat="42.447887677699327" lon="13.541913907974958">
        <ele>2220.7800000000002</ele>
        <time>2013-09-12T07:18:14Z</time>
      </trkpt>
      <trkpt lat="42.447913996875286" lon="13.541881302371621">
        <ele>2220.7800000000002</ele>
        <time>2013-09-12T07:18:21Z</time>
      </trkpt>
      <trkpt lat="42.447939142584801" lon="13.541837967932224">
        <ele>2220.3000000000002</ele>
        <time>2013-09-12T07:18:27Z</time>
      </trkpt>
      <trkpt lat="42.447944339364767" lon="13.541828580200672">
        <ele>2223.1900000000001</ele>
        <time>2013-09-12T07:18:29Z</time>
      </trkpt>
      <trkpt lat="42.447958923876286" lon="13.541812989860773">
        <ele>2222.2199999999998</ele>
        <time>2013-09-12T07:18:32Z</time>
      </trkpt>
      <trkpt lat="42.447988092899323" lon="13.541752807796001">
        <ele>2224.6300000000001</ele>
        <time>2013-09-12T07:18:41Z</time>
      </trkpt>
      <trkpt lat="42.448016842827201" lon="13.541720705106854">
        <ele>2228.4699999999998</ele>
        <time>2013-09-12T07:18:46Z</time>
      </trkpt>
      <trkpt lat="42.448022626340389" lon="13.541715005412698">
        <ele>2228.4699999999998</ele>
        <time>2013-09-12T07:18:47Z</time>
      </trkpt>
      <trkpt lat="42.448036372661591" lon="13.541697235777974">
        <ele>2227.5100000000002</ele>
        <time>2013-09-12T07:18:51Z</time>
      </trkpt>
      <trkpt lat="42.448043581098318" lon="13.541689775884151">
        <ele>2228.9499999999998</ele>
        <time>2013-09-12T07:18:53Z</time>
      </trkpt>
      <trkpt lat="42.448057327419519" lon="13.541671168059111">
        <ele>2230.4000000000001</ele>
        <time>2013-09-12T07:18:57Z</time>
      </trkpt>
      <trkpt lat="42.448070822283626" lon="13.541656332090497">
        <ele>2227.9899999999998</ele>
        <time>2013-09-12T07:19:00Z</time>
      </trkpt>
      <trkpt lat="42.448087418451905" lon="13.541612746194005">
        <ele>2226.0700000000002</ele>
        <time>2013-09-12T07:19:08Z</time>
      </trkpt>
      <trkpt lat="42.448105607181787" lon="13.541590366512537">
        <ele>2229.4299999999998</ele>
        <time>2013-09-12T07:19:12Z</time>
      </trkpt>
      <trkpt lat="42.44810476899147" lon="13.541578715667129">
        <ele>2227.0300000000002</ele>
        <time>2013-09-12T07:19:14Z</time>
      </trkpt>
      <trkpt lat="42.448131339624524" lon="13.541510906070471">
        <ele>2230.8800000000001</ele>
        <time>2013-09-12T07:19:23Z</time>
      </trkpt>
      <trkpt lat="42.448164615780115" lon="13.541441839188337">
        <ele>2234.7199999999998</ele>
        <time>2013-09-12T07:19:34Z</time>
      </trkpt>
      <trkpt lat="42.448172830045223" lon="13.541420884430408">
        <ele>2231.3600000000001</ele>
        <time>2013-09-12T07:19:37Z</time>
      </trkpt>
      <trkpt lat="42.448207950219512" lon="13.54131493717432">
        <ele>2232.3200000000002</ele>
        <time>2013-09-12T07:19:50Z</time>
      </trkpt>
      <trkpt lat="42.448237705975771" lon="13.54122307151556">
        <ele>2230.4000000000001</ele>
        <time>2013-09-12T07:20:02Z</time>
      </trkpt>
      <trkpt lat="42.448241394013166" lon="13.541204463690519">
        <ele>2231.8400000000001</ele>
        <time>2013-09-12T07:20:04Z</time>
      </trkpt>
      <trkpt lat="42.448264108970761" lon="13.54106867685914">
        <ele>2234.2399999999998</ele>
        <time>2013-09-12T07:20:19Z</time>
      </trkpt>
      <trkpt lat="42.448285818099976" lon="13.540968764573336">
        <ele>2236.6399999999999</ele>
        <time>2013-09-12T07:20:30Z</time>
      </trkpt>
      <trkpt lat="42.448293780907989" lon="13.540941858664155">
        <ele>2238.5700000000002</ele>
        <time>2013-09-12T07:20:33Z</time>
      </trkpt>
      <trkpt lat="42.448315070942044" lon="13.5408238414675">
        <ele>2240.0100000000002</ele>
        <time>2013-09-12T07:20:47Z</time>
      </trkpt>
      <trkpt lat="42.448328901082277" lon="13.540788050740957">
        <ele>2241.4499999999998</ele>
        <time>2013-09-12T07:20:52Z</time>
      </trkpt>
      <trkpt lat="42.448335774242878" lon="13.54076910763979">
        <ele>2238.0900000000001</ele>
        <time>2013-09-12T07:20:54Z</time>
      </trkpt>
      <trkpt lat="42.44833879172802" lon="13.540760474279523">
        <ele>2238.0900000000001</ele>
        <time>2013-09-12T07:20:55Z</time>
      </trkpt>
      <trkpt lat="42.448367541655898" lon="13.540657628327608">
        <ele>2241.9299999999998</ele>
        <time>2013-09-12T07:21:10Z</time>
      </trkpt>
      <trkpt lat="42.448374414816499" lon="13.540554950013757">
        <ele>2239.0500000000002</ele>
        <time>2013-09-12T07:21:22Z</time>
      </trkpt>
      <trkpt lat="42.448382126167417" lon="13.540504071861506">
        <ele>2241.9299999999998</ele>
        <time>2013-09-12T07:21:27Z</time>
      </trkpt>
      <trkpt lat="42.448387155309319" lon="13.540464341640472">
        <ele>2240.9699999999998</ele>
        <time>2013-09-12T07:21:31Z</time>
      </trkpt>
      <trkpt lat="42.448388412594795" lon="13.540450511500239">
        <ele>2243.3699999999999</ele>
        <time>2013-09-12T07:21:33Z</time>
      </trkpt>
      <trkpt lat="42.448399476706982" lon="13.540343558415771">
        <ele>2246.7399999999998</ele>
        <time>2013-09-12T07:21:44Z</time>
      </trkpt>
      <trkpt lat="42.448403500020504" lon="13.540306091308594">
        <ele>2245.7800000000002</ele>
        <time>2013-09-12T07:21:48Z</time>
      </trkpt>
      <trkpt lat="42.448414647951722" lon="13.540281448513269">
        <ele>2248.6599999999999</ele>
        <time>2013-09-12T07:21:51Z</time>
      </trkpt>
      <trkpt lat="42.448414145037532" lon="13.540276670828462">
        <ele>2248.1799999999998</ele>
        <time>2013-09-12T07:21:52Z</time>
      </trkpt>
      <trkpt lat="42.448425209149718" lon="13.540223361924291">
        <ele>2246.7399999999998</ele>
        <time>2013-09-12T07:21:59Z</time>
      </trkpt>
      <trkpt lat="42.448433004319668" lon="13.540209867060184">
        <ele>2241.9299999999998</ele>
        <time>2013-09-12T07:22:01Z</time>
      </trkpt>
      <trkpt lat="42.448434513062239" lon="13.540199808776379">
        <ele>2241.9299999999998</ele>
        <time>2013-09-12T07:22:02Z</time>
      </trkpt>
      <trkpt lat="42.448436357080936" lon="13.540187403559685">
        <ele>2243.8499999999999</ele>
        <time>2013-09-12T07:22:04Z</time>
      </trkpt>
      <trkpt lat="42.448441553860903" lon="13.540166364982724">
        <ele>2247.6999999999998</ele>
        <time>2013-09-12T07:22:08Z</time>
      </trkpt>
      <trkpt lat="42.448442811146379" lon="13.540161168202758">
        <ele>2251.0599999999999</ele>
        <time>2013-09-12T07:22:09Z</time>
      </trkpt>
      <trkpt lat="42.448446415364742" lon="13.540155217051506">
        <ele>2250.0999999999999</ele>
        <time>2013-09-12T07:22:10Z</time>
      </trkpt>
      <trkpt lat="42.448468711227179" lon="13.540108362212777">
        <ele>2253.4699999999998</ele>
        <time>2013-09-12T07:22:17Z</time>
      </trkpt>
      <trkpt lat="42.448506010696292" lon="13.540056562051177">
        <ele>2255.8699999999999</ele>
        <time>2013-09-12T07:22:26Z</time>
      </trkpt>
      <trkpt lat="42.448541633784771" lon="13.539973329752684">
        <ele>2254.4299999999998</ele>
        <time>2013-09-12T07:22:41Z</time>
      </trkpt>
      <trkpt lat="42.448562923818827" lon="13.539938628673553">
        <ele>2257.79</ele>
        <time>2013-09-12T07:22:47Z</time>
      </trkpt>
      <trkpt lat="42.448564767837524" lon="13.539931252598763">
        <ele>2254.9099999999999</ele>
        <time>2013-09-12T07:22:48Z</time>
      </trkpt>
      <trkpt lat="42.448567701503634" lon="13.539912309497595">
        <ele>2258.27</ele>
        <time>2013-09-12T07:22:51Z</time>
      </trkpt>
      <trkpt lat="42.448565857484937" lon="13.539916500449181">
        <ele>2258.27</ele>
        <time>2013-09-12T07:23:09Z</time>
      </trkpt>
      <trkpt lat="42.448574239388108" lon="13.539911052212119">
        <ele>2257.3099999999999</ele>
        <time>2013-09-12T07:23:17Z</time>
      </trkpt>
      <trkpt lat="42.448623273521662" lon="13.539937119930983">
        <ele>2257.79</ele>
        <time>2013-09-12T07:23:29Z</time>
      </trkpt>
      <trkpt lat="42.448635008186102" lon="13.539978275075555">
        <ele>2260.6799999999998</ele>
        <time>2013-09-12T07:23:39Z</time>
      </trkpt>
      <trkpt lat="42.448678007349372" lon="13.54000442661345">
        <ele>2260.6799999999998</ele>
        <time>2013-09-12T07:23:50Z</time>
      </trkpt>
      <trkpt lat="42.448686556890607" lon="13.540012473240495">
        <ele>2261.6399999999999</ele>
        <time>2013-09-12T07:23:52Z</time>
      </trkpt>
      <trkpt lat="42.44869401678443" lon="13.540011215955019">
        <ele>2263.0799999999999</ele>
        <time>2013-09-12T07:23:55Z</time>
      </trkpt>
      <trkpt lat="42.448712708428502" lon="13.540045917034149">
        <ele>2266.4499999999998</ele>
        <time>2013-09-12T07:24:04Z</time>
      </trkpt>
      <trkpt lat="42.448738189414144" lon="13.540058322250843">
        <ele>2269.3299999999999</ele>
        <time>2013-09-12T07:24:09Z</time>
      </trkpt>
      <trkpt lat="42.448772052302957" lon="13.540078354999423">
        <ele>2265.96</ele>
        <time>2013-09-12T07:24:15Z</time>
      </trkpt>
      <trkpt lat="42.448824271559715" lon="13.540095956996083">
        <ele>2262.5999999999999</ele>
        <time>2013-09-12T07:24:25Z</time>
      </trkpt>
      <trkpt lat="42.448861822485924" lon="13.540131831541657">
        <ele>2264.52</ele>
        <time>2013-09-12T07:24:39Z</time>
      </trkpt>
      <trkpt lat="42.448862828314304" lon="13.540166364982724">
        <ele>2264.52</ele>
        <time>2013-09-12T07:24:52Z</time>
      </trkpt>
      <trkpt lat="42.448859727010131" lon="13.540168544277549">
        <ele>2263.0799999999999</ele>
        <time>2013-09-12T07:24:55Z</time>
      </trkpt>
      <trkpt lat="42.448840532451868" lon="13.540142057463527">
        <ele>2264.52</ele>
        <time>2013-09-12T07:25:07Z</time>
      </trkpt>
      <trkpt lat="42.448850926011801" lon="13.540137698873878">
        <ele>2265.48</ele>
        <time>2013-09-12T07:25:12Z</time>
      </trkpt>
      <trkpt lat="42.448863834142685" lon="13.540159910917282">
        <ele>2264.52</ele>
        <time>2013-09-12T07:25:24Z</time>
      </trkpt>
      <trkpt lat="42.448869617655873" lon="13.540152115747333">
        <ele>2264.52</ele>
        <time>2013-09-12T07:25:40Z</time>
      </trkpt>
      <trkpt lat="42.448876742273569" lon="13.540142811834812">
        <ele>2263.5599999999999</ele>
        <time>2013-09-12T07:25:53Z</time>
      </trkpt>
      <trkpt lat="42.448881268501282" lon="13.540158569812775">
        <ele>2262.1199999999999</ele>
        <time>2013-09-12T07:25:57Z</time>
      </trkpt>
      <trkpt lat="42.448869952932" lon="13.54017885401845">
        <ele>2265</ele>
        <time>2013-09-12T07:26:11Z</time>
      </trkpt>
      <trkpt lat="42.448891242966056" lon="13.540160497650504">
        <ele>2263.0799999999999</ele>
        <time>2013-09-12T07:26:22Z</time>
      </trkpt>
      <trkpt lat="42.448915215209126" lon="13.540168041363358">
        <ele>2260.6799999999998</ele>
        <time>2013-09-12T07:26:25Z</time>
      </trkpt>
      <trkpt lat="42.448914460837841" lon="13.540230318903923">
        <ele>2259.7199999999998</ele>
        <time>2013-09-12T07:26:30Z</time>
      </trkpt>
      <trkpt lat="42.448910353705287" lon="13.540259236469865">
        <ele>2259.7199999999998</ele>
        <time>2013-09-12T07:26:45Z</time>
      </trkpt>
      <trkpt lat="42.44890951551497" lon="13.540250603109598">
        <ele>2259.7199999999998</ele>
        <time>2013-09-12T07:26:58Z</time>
      </trkpt>
      <trkpt lat="42.448906833305955" lon="13.540269965305924">
        <ele>2259.7199999999998</ele>
        <time>2013-09-12T07:27:14Z</time>
      </trkpt>
      <trkpt lat="42.448905659839511" lon="13.540275078266859">
        <ele>2260.6799999999998</ele>
        <time>2013-09-12T07:27:33Z</time>
      </trkpt>
      <trkpt lat="42.448905827477574" lon="13.540273737162352">
        <ele>2259.7199999999998</ele>
        <time>2013-09-12T07:27:48Z</time>
      </trkpt>
      <trkpt lat="42.448913371190429" lon="13.540276503190398">
        <ele>2256.3499999999999</ele>
        <time>2013-09-12T07:27:58Z</time>
      </trkpt>
      <trkpt lat="42.448919406160712" lon="13.540264265611768">
        <ele>2259.7199999999998</ele>
        <time>2013-09-12T07:28:18Z</time>
      </trkpt>
      <trkpt lat="42.448926363140345" lon="13.540263008326292">
        <ele>2259.7199999999998</ele>
        <time>2013-09-12T07:28:19Z</time>
      </trkpt>
      <trkpt lat="42.448923932388425" lon="13.540259823203087">
        <ele>2258.27</ele>
        <time>2013-09-12T07:28:35Z</time>
      </trkpt>
      <trkpt lat="42.448920328170061" lon="13.540245071053505">
        <ele>2257.79</ele>
        <time>2013-09-12T07:28:49Z</time>
      </trkpt>
      <trkpt lat="42.448962237685919" lon="13.540262170135975">
        <ele>2257.79</ele>
        <time>2013-09-12T07:28:54Z</time>
      </trkpt>
      <trkpt lat="42.448978666216135" lon="13.54030491784215">
        <ele>2254.9099999999999</ele>
        <time>2013-09-12T07:28:59Z</time>
      </trkpt>
      <trkpt lat="42.449047565460205" lon="13.540380774065852">
        <ele>2252.0300000000002</ele>
        <time>2013-09-12T07:29:13Z</time>
      </trkpt>
      <trkpt lat="42.449087295681238" lon="13.540436765179038">
        <ele>2248.6599999999999</ele>
        <time>2013-09-12T07:29:22Z</time>
      </trkpt>
      <trkpt lat="42.449126774445176" lon="13.540463419631124">
        <ele>2247.6999999999998</ele>
        <time>2013-09-12T07:29:34Z</time>
      </trkpt>
      <trkpt lat="42.449165750294924" lon="13.540483703836799">
        <ele>2246.7399999999998</ele>
        <time>2013-09-12T07:29:42Z</time>
      </trkpt>
      <trkpt lat="42.449207073077559" lon="13.54049988090992">
        <ele>2243.3699999999999</ele>
        <time>2013-09-12T07:29:48Z</time>
      </trkpt>
      <trkpt lat="42.449292652308941" lon="13.540535420179367">
        <ele>2240.9699999999998</ele>
        <time>2013-09-12T07:30:00Z</time>
      </trkpt>
      <trkpt lat="42.449373118579388" lon="13.540542377158999">
        <ele>2240.4899999999998</ele>
        <time>2013-09-12T07:30:13Z</time>
      </trkpt>
      <trkpt lat="42.449450651183724" lon="13.540577748790383">
        <ele>2237.1300000000001</ele>
        <time>2013-09-12T07:30:27Z</time>
      </trkpt>
      <trkpt lat="42.449494237080216" lon="13.540621921420097">
        <ele>2233.2800000000002</ele>
        <time>2013-09-12T07:30:36Z</time>
      </trkpt>
      <trkpt lat="42.449572691693902" lon="13.540653940290213">
        <ele>2229.9200000000001</ele>
        <time>2013-09-12T07:30:50Z</time>
      </trkpt>
      <trkpt lat="42.449577637016773" lon="13.540657628327608">
        <ele>2230.4000000000001</ele>
        <time>2013-09-12T07:30:51Z</time>
      </trkpt>
      <trkpt lat="42.449640082195401" lon="13.540687216445804">
        <ele>2230.8800000000001</ele>
        <time>2013-09-12T07:31:04Z</time>
      </trkpt>
      <trkpt lat="42.449664222076535" lon="13.540699370205402">
        <ele>2229.4299999999998</ele>
        <time>2013-09-12T07:31:08Z</time>
      </trkpt>
      <trkpt lat="42.449730858206749" lon="13.540728706866503">
        <ele>2226.5500000000002</ele>
        <time>2013-09-12T07:31:18Z</time>
      </trkpt>
      <trkpt lat="42.449733456596732" lon="13.540726946666837">
        <ele>2224.6300000000001</ele>
        <time>2013-09-12T07:31:19Z</time>
      </trkpt>
      <trkpt lat="42.449776707217097" lon="13.540743542835116">
        <ele>2222.71</ele>
        <time>2013-09-12T07:31:30Z</time>
      </trkpt>
      <trkpt lat="42.449881648644805" lon="13.540748236700892">
        <ele>2219.3400000000001</ele>
        <time>2013-09-12T07:31:44Z</time>
      </trkpt>
      <trkpt lat="42.449900507926941" lon="13.540741866454482">
        <ele>2221.2600000000002</ele>
        <time>2013-09-12T07:31:48Z</time>
      </trkpt>
      <trkpt lat="42.449903441593051" lon="13.540730550885201">
        <ele>2216.46</ele>
        <time>2013-09-12T07:31:50Z</time>
      </trkpt>
      <trkpt lat="42.449909979477525" lon="13.54072661139071">
        <ele>2215.98</ele>
        <time>2013-09-12T07:31:51Z</time>
      </trkpt>
      <trkpt lat="42.449931772425771" lon="13.540727533400059">
        <ele>2215.0100000000002</ele>
        <time>2013-09-12T07:31:54Z</time>
      </trkpt>
      <trkpt lat="42.449935795739293" lon="13.540730634704232">
        <ele>2220.7800000000002</ele>
        <time>2013-09-12T07:31:55Z</time>
      </trkpt>
      <trkpt lat="42.44994685985148" lon="13.540738178417087">
        <ele>2220.7800000000002</ele>
        <time>2013-09-12T07:31:56Z</time>
      </trkpt>
      <trkpt lat="42.449965802952647" lon="13.540735999122262">
        <ele>2214.5300000000002</ele>
        <time>2013-09-12T07:31:58Z</time>
      </trkpt>
      <trkpt lat="42.449974687770009" lon="13.540729628875852">
        <ele>2216.9400000000001</ele>
        <time>2013-09-12T07:31:59Z</time>
      </trkpt>
      <trkpt lat="42.450085580348969" lon="13.540755864232779">
        <ele>2219.8200000000002</ele>
        <time>2013-09-12T07:32:12Z</time>
      </trkpt>
      <trkpt lat="42.450178368017077" lon="13.54073298163712">
        <ele>2215.98</ele>
        <time>2013-09-12T07:32:24Z</time>
      </trkpt>
      <trkpt lat="42.450204184278846" lon="13.540729461237788">
        <ele>2215.98</ele>
        <time>2013-09-12T07:32:27Z</time>
      </trkpt>
      <trkpt lat="42.450273502618074" lon="13.540735747665167">
        <ele>2214.5300000000002</ele>
        <time>2013-09-12T07:32:34Z</time>
      </trkpt>
      <trkpt lat="42.450305270031095" lon="13.540738513693213">
        <ele>2212.6100000000001</ele>
        <time>2013-09-12T07:32:37Z</time>
      </trkpt>
      <trkpt lat="42.450313987210393" lon="13.540736502036452">
        <ele>2212.1300000000001</ele>
        <time>2013-09-12T07:32:38Z</time>
      </trkpt>
      <trkpt lat="42.450335780158639" lon="13.54073834605515">
        <ele>2214.0500000000002</ele>
        <time>2013-09-12T07:32:40Z</time>
      </trkpt>
      <trkpt lat="42.450353382155299" lon="13.540741447359324">
        <ele>2211.6500000000001</ele>
        <time>2013-09-12T07:32:43Z</time>
      </trkpt>
      <trkpt lat="42.450396968051791" lon="13.540728623047471">
        <ele>2207.8099999999999</ele>
        <time>2013-09-12T07:32:49Z</time>
      </trkpt>
      <trkpt lat="42.4504154920578" lon="13.540733484551311">
        <ele>2203.96</ele>
        <time>2013-09-12T07:32:52Z</time>
      </trkpt>
      <trkpt lat="42.450422700494528" lon="13.540730383247137">
        <ele>2207.3200000000002</ele>
        <time>2013-09-12T07:32:53Z</time>
      </trkpt>
      <trkpt lat="42.450471734628081" lon="13.540737340226769">
        <ele>2203.48</ele>
        <time>2013-09-12T07:32:58Z</time>
      </trkpt>
      <trkpt lat="42.450474835932255" lon="13.540741112083197">
        <ele>2203</ele>
        <time>2013-09-12T07:32:59Z</time>
      </trkpt>
      <trkpt lat="42.450483553111553" lon="13.540745219215751">
        <ele>2200.1100000000001</ele>
        <time>2013-09-12T07:33:00Z</time>
      </trkpt>
      <trkpt lat="42.45050442405045" lon="13.540753852576017">
        <ele>2201.0799999999999</ele>
        <time>2013-09-12T07:33:03Z</time>
      </trkpt>
      <trkpt lat="42.450570892542601" lon="13.540744632482529">
        <ele>2198.1900000000001</ele>
        <time>2013-09-12T07:33:09Z</time>
      </trkpt>
      <trkpt lat="42.450588494539261" lon="13.540736334398389">
        <ele>2203.96</ele>
        <time>2013-09-12T07:33:11Z</time>
      </trkpt>
      <trkpt lat="42.450608694925904" lon="13.540726946666837">
        <ele>2205.8800000000001</ele>
        <time>2013-09-12T07:33:13Z</time>
      </trkpt>
      <trkpt lat="42.450625291094184" lon="13.540725605562329">
        <ele>2198.6700000000001</ele>
        <time>2013-09-12T07:33:15Z</time>
      </trkpt>
      <trkpt lat="42.450637361034751" lon="13.540708422660828">
        <ele>2197.71</ele>
        <time>2013-09-12T07:33:17Z</time>
      </trkpt>
      <trkpt lat="42.450670721009374" lon="13.540687886998057">
        <ele>2193.8699999999999</ele>
        <time>2013-09-12T07:33:20Z</time>
      </trkpt>
      <trkpt lat="42.450680527836084" lon="13.540682857856154">
        <ele>2202.04</ele>
        <time>2013-09-12T07:33:21Z</time>
      </trkpt>
      <trkpt lat="42.450695196166635" lon="13.54067824780941">
        <ele>2193.8699999999999</ele>
        <time>2013-09-12T07:33:23Z</time>
      </trkpt>
      <trkpt lat="42.450704583898187" lon="13.540674056857824">
        <ele>2197.23</ele>
        <time>2013-09-12T07:33:24Z</time>
      </trkpt>
      <trkpt lat="42.450744062662125" lon="13.54064698331058">
        <ele>2199.6300000000001</ele>
        <time>2013-09-12T07:33:29Z</time>
      </trkpt>
      <trkpt lat="42.450808184221387" lon="13.540604822337627">
        <ele>2197.71</ele>
        <time>2013-09-12T07:33:38Z</time>
      </trkpt>
      <trkpt lat="42.450851853936911" lon="13.540571881458163">
        <ele>2192.4200000000001</ele>
        <time>2013-09-12T07:33:44Z</time>
      </trkpt>
      <trkpt lat="42.450859230011702" lon="13.540576072409749">
        <ele>2188.5799999999999</ele>
        <time>2013-09-12T07:33:45Z</time>
      </trkpt>
      <trkpt lat="42.450864426791668" lon="13.5405717138201">
        <ele>2191.46</ele>
        <time>2013-09-12T07:33:46Z</time>
      </trkpt>
      <trkpt lat="42.4508713837713" lon="13.540569618344307">
        <ele>2190.02</ele>
        <time>2013-09-12T07:33:47Z</time>
      </trkpt>
      <trkpt lat="42.450879430398345" lon="13.540564924478531">
        <ele>2192.4200000000001</ele>
        <time>2013-09-12T07:33:48Z</time>
      </trkpt>
      <trkpt lat="42.450906336307526" lon="13.540560565888882">
        <ele>2191.9400000000001</ele>
        <time>2013-09-12T07:33:52Z</time>
      </trkpt>
      <trkpt lat="42.450910359621048" lon="13.540560733526945">
        <ele>2187.1399999999999</ele>
        <time>2013-09-12T07:33:53Z</time>
      </trkpt>
      <trkpt lat="42.450925447046757" lon="13.540551932528615">
        <ele>2188.0999999999999</ele>
        <time>2013-09-12T07:33:55Z</time>
      </trkpt>
      <trkpt lat="42.450937516987324" lon="13.540544053539634">
        <ele>2187.1399999999999</ele>
        <time>2013-09-12T07:33:57Z</time>
      </trkpt>
      <trkpt lat="42.450942629948258" lon="13.540542628616095">
        <ele>2185.6900000000001</ele>
        <time>2013-09-12T07:33:58Z</time>
      </trkpt>
      <trkpt lat="42.450951850041747" lon="13.54054095223546">
        <ele>2188.0999999999999</ele>
        <time>2013-09-12T07:33:59Z</time>
      </trkpt>
      <trkpt lat="42.45096224360168" lon="13.540535420179367">
        <ele>2186.6599999999999</ele>
        <time>2013-09-12T07:34:00Z</time>
      </trkpt>
      <trkpt lat="42.450969200581312" lon="13.540534833446145">
        <ele>2191.46</ele>
        <time>2013-09-12T07:34:01Z</time>
      </trkpt>
      <trkpt lat="42.45099107734859" lon="13.540528295561671">
        <ele>2183.77</ele>
        <time>2013-09-12T07:34:04Z</time>
      </trkpt>
      <trkpt lat="42.450998453423381" lon="13.540527541190386">
        <ele>2180.8899999999999</ele>
        <time>2013-09-12T07:34:05Z</time>
      </trkpt>
      <trkpt lat="42.451015803962946" lon="13.540522260591388">
        <ele>2177.52</ele>
        <time>2013-09-12T07:34:08Z</time>
      </trkpt>
      <trkpt lat="42.451030137017369" lon="13.540512034669518">
        <ele>2179.4499999999998</ele>
        <time>2013-09-12T07:34:10Z</time>
      </trkpt>
      <trkpt lat="42.451051427051425" lon="13.540504490956664">
        <ele>2182.8099999999999</ele>
        <time>2013-09-12T07:34:12Z</time>
      </trkpt>
      <trkpt lat="42.45113130658865" lon="13.540468197315931">
        <ele>2183.77</ele>
        <time>2013-09-12T07:34:21Z</time>
      </trkpt>
      <trkpt lat="42.451157290488482" lon="13.540466018021107">
        <ele>2181.8499999999999</ele>
        <time>2013-09-12T07:34:23Z</time>
      </trkpt>
      <trkpt lat="42.451191740110517" lon="13.540460485965014">
        <ele>2179.9299999999998</ele>
        <time>2013-09-12T07:34:26Z</time>
      </trkpt>
      <trkpt lat="42.451200624927878" lon="13.540461240336299">
        <ele>2180.8899999999999</ele>
        <time>2013-09-12T07:34:27Z</time>
      </trkpt>
      <trkpt lat="42.451227447018027" lon="13.540466940030456">
        <ele>2178.48</ele>
        <time>2013-09-12T07:34:29Z</time>
      </trkpt>
      <trkpt lat="42.451237253844738" lon="13.540459647774696">
        <ele>2176.0799999999999</ele>
        <time>2013-09-12T07:34:30Z</time>
      </trkpt>
      <trkpt lat="42.45125150308013" lon="13.540450930595398">
        <ele>2177.04</ele>
        <time>2013-09-12T07:34:33Z</time>
      </trkpt>
      <trkpt lat="42.451254520565271" lon="13.540441626682878">
        <ele>2178</ele>
        <time>2013-09-12T07:34:35Z</time>
      </trkpt>
      <trkpt lat="42.451245803385973" lon="13.540351269766688">
        <ele>2174.6399999999999</ele>
        <time>2013-09-12T07:34:42Z</time>
      </trkpt>
      <trkpt lat="42.451253011822701" lon="13.540344145148993">
        <ele>2175.5999999999999</ele>
        <time>2013-09-12T07:34:43Z</time>
      </trkpt>
      <trkpt lat="42.451348565518856" lon="13.540311539545655">
        <ele>2174.1599999999999</ele>
        <time>2013-09-12T07:34:55Z</time>
      </trkpt>
      <trkpt lat="42.451407657936215" lon="13.540318161249161">
        <ele>2177.52</ele>
        <time>2013-09-12T07:35:01Z</time>
      </trkpt>
      <trkpt lat="42.451409669592977" lon="13.540318328887224">
        <ele>2170.3099999999999</ele>
        <time>2013-09-12T07:35:02Z</time>
      </trkpt>
      <trkpt lat="42.45142106898129" lon="13.540311707183719">
        <ele>2168.8699999999999</ele>
        <time>2013-09-12T07:35:03Z</time>
      </trkpt>
      <trkpt lat="42.451477060094476" lon="13.540295446291566">
        <ele>2166.9499999999998</ele>
        <time>2013-09-12T07:35:08Z</time>
      </trkpt>
      <trkpt lat="42.451498936861753" lon="13.540294859558344">
        <ele>2167.9099999999999</ele>
        <time>2013-09-12T07:35:10Z</time>
      </trkpt>
      <trkpt lat="42.451502876356244" lon="13.540257811546326">
        <ele>2166.4699999999998</ele>
        <time>2013-09-12T07:35:16Z</time>
      </trkpt>
      <trkpt lat="42.451556017622352" lon="13.540178351104259">
        <ele>2166.4699999999998</ele>
        <time>2013-09-12T07:35:27Z</time>
      </trkpt>
      <trkpt lat="42.451596334576607" lon="13.540205592289567">
        <ele>2165.5100000000002</ele>
        <time>2013-09-12T07:35:31Z</time>
      </trkpt>
      <trkpt lat="42.451689960435033" lon="13.540369542315602">
        <ele>2167.4299999999998</ele>
        <time>2013-09-12T07:35:36Z</time>
      </trkpt>
      <trkpt lat="42.451774450019002" lon="13.540448416024446">
        <ele>2165.0300000000002</ele>
        <time>2013-09-12T07:35:45Z</time>
      </trkpt>
      <trkpt lat="42.451839661225677" lon="13.540455373004079">
        <ele>2163.5799999999999</ele>
        <time>2013-09-12T07:35:54Z</time>
      </trkpt>
      <trkpt lat="42.451926665380597" lon="13.540430311113596">
        <ele>2160.2199999999998</ele>
        <time>2013-09-12T07:36:06Z</time>
      </trkpt>
      <trkpt lat="42.451947536319494" lon="13.540419079363346">
        <ele>2158.7800000000002</ele>
        <time>2013-09-12T07:36:09Z</time>
      </trkpt>
      <trkpt lat="42.451949045062065" lon="13.540411870926619">
        <ele>2159.2600000000002</ele>
        <time>2013-09-12T07:36:15Z</time>
      </trkpt>
      <trkpt lat="42.451966563239694" lon="13.540397537872195">
        <ele>2158.3000000000002</ele>
        <time>2013-09-12T07:36:18Z</time>
      </trkpt>
      <trkpt lat="42.45194535702467" lon="13.540343977510929">
        <ele>2151.5700000000002</ele>
        <time>2013-09-12T07:36:22Z</time>
      </trkpt>
      <trkpt lat="42.451948625966907" lon="13.540306594222784">
        <ele>2156.3699999999999</ele>
        <time>2013-09-12T07:36:25Z</time>
      </trkpt>
      <trkpt lat="42.451953236013651" lon="13.540294608101249">
        <ele>2155.4099999999999</ele>
        <time>2013-09-12T07:36:26Z</time>
      </trkpt>
      <trkpt lat="42.451953822746873" lon="13.540276838466525">
        <ele>2157.8200000000002</ele>
        <time>2013-09-12T07:36:30Z</time>
      </trkpt>
      <trkpt lat="42.45200646109879" lon="13.540230235084891">
        <ele>2158.3000000000002</ele>
        <time>2013-09-12T07:36:41Z</time>
      </trkpt>
      <trkpt lat="42.45203135535121" lon="13.540135687217116">
        <ele>2153.4899999999998</ele>
        <time>2013-09-12T07:36:47Z</time>
      </trkpt>
      <trkpt lat="42.452090112492442" lon="13.540134765207767">
        <ele>2155.8899999999999</ele>
        <time>2013-09-12T07:36:52Z</time>
      </trkpt>
      <trkpt lat="42.452129172161222" lon="13.540151948109269">
        <ele>2151.0900000000001</ele>
        <time>2013-09-12T07:36:56Z</time>
      </trkpt>
      <trkpt lat="42.452194718644023" lon="13.540156222879887">
        <ele>2152.0500000000002</ele>
        <time>2013-09-12T07:37:02Z</time>
      </trkpt>
      <trkpt lat="42.45222631841898" lon="13.540162006393075">
        <ele>2149.1599999999999</ele>
        <time>2013-09-12T07:37:05Z</time>
      </trkpt>
      <trkpt lat="42.452301671728492" lon="13.540230989456177">
        <ele>2148.6799999999998</ele>
        <time>2013-09-12T07:37:13Z</time>
      </trkpt>
      <trkpt lat="42.452333942055702" lon="13.540259907022119">
        <ele>2147.7199999999998</ele>
        <time>2013-09-12T07:37:17Z</time>
      </trkpt>
      <trkpt lat="42.452449612319469" lon="13.540364848449826">
        <ele>2147.2399999999998</ele>
        <time>2013-09-12T07:37:32Z</time>
      </trkpt>
      <trkpt lat="42.452459838241339" lon="13.540371051058173">
        <ele>2143.8800000000001</ele>
        <time>2013-09-12T07:37:33Z</time>
      </trkpt>
      <trkpt lat="42.452474841848016" lon="13.540371302515268">
        <ele>2142.9200000000001</ele>
        <time>2013-09-12T07:37:35Z</time>
      </trkpt>
      <trkpt lat="42.452486660331488" lon="13.54036895558238">
        <ele>2142.9200000000001</ele>
        <time>2013-09-12T07:37:38Z</time>
      </trkpt>
      <trkpt lat="42.452488420531154" lon="13.540373649448156">
        <ele>2144.3600000000001</ele>
        <time>2013-09-12T07:37:50Z</time>
      </trkpt>
      <trkpt lat="42.452484061941504" lon="13.540368201211095">
        <ele>2143.8800000000001</ele>
        <time>2013-09-12T07:38:17Z</time>
      </trkpt>
      <trkpt lat="42.452488085255027" lon="13.540364513173699">
        <ele>2145.3200000000002</ele>
        <time>2013-09-12T07:38:22Z</time>
      </trkpt>
      <trkpt lat="42.452482720836997" lon="13.540372895076871">
        <ele>2142.9200000000001</ele>
        <time>2013-09-12T07:38:26Z</time>
      </trkpt>
      <trkpt lat="42.452486576512456" lon="13.540359819307923">
        <ele>2144.3600000000001</ele>
        <time>2013-09-12T07:38:29Z</time>
      </trkpt>
      <trkpt lat="42.452500993385911" lon="13.540347330272198">
        <ele>2145.3200000000002</ele>
        <time>2013-09-12T07:38:33Z</time>
      </trkpt>
      <trkpt lat="42.452523205429316" lon="13.540347246453166">
        <ele>2145.3200000000002</ele>
        <time>2013-09-12T07:38:45Z</time>
      </trkpt>
      <trkpt lat="42.452521529048681" lon="13.540345905348659">
        <ele>2146.7600000000002</ele>
        <time>2013-09-12T07:38:48Z</time>
      </trkpt>
      <trkpt lat="42.452515577897429" lon="13.540340289473534">
        <ele>2143.8800000000001</ele>
        <time>2013-09-12T07:39:03Z</time>
      </trkpt>
      <trkpt lat="42.452507950365543" lon="13.54033425450325">
        <ele>2143.4000000000001</ele>
        <time>2013-09-12T07:39:07Z</time>
      </trkpt>
      <trkpt lat="42.452500574290752" lon="13.54031028226018">
        <ele>2141.4699999999998</ele>
        <time>2013-09-12T07:39:09Z</time>
      </trkpt>
      <trkpt lat="42.452475428581238" lon="13.540271054953337">
        <ele>2145.8000000000002</ele>
        <time>2013-09-12T07:39:13Z</time>
      </trkpt>
      <trkpt lat="42.45247115381062" lon="13.540260242298245">
        <ele>2145.8000000000002</ele>
        <time>2013-09-12T07:39:14Z</time>
      </trkpt>
      <trkpt lat="42.45245698839426" lon="13.540214393287897">
        <ele>2147.7199999999998</ele>
        <time>2013-09-12T07:39:20Z</time>
      </trkpt>
      <trkpt lat="42.452415497973561" lon="13.54010459035635">
        <ele>2144.3600000000001</ele>
        <time>2013-09-12T07:39:31Z</time>
      </trkpt>
      <trkpt lat="42.452405439689755" lon="13.540087155997753">
        <ele>2141.4699999999998</ele>
        <time>2013-09-12T07:39:33Z</time>
      </trkpt>
      <trkpt lat="42.452400745823979" lon="13.540078438818455">
        <ele>2141.9499999999998</ele>
        <time>2013-09-12T07:39:34Z</time>
      </trkpt>
      <trkpt lat="42.452381048351526" lon="13.540018843486905">
        <ele>2143.8800000000001</ele>
        <time>2013-09-12T07:39:39Z</time>
      </trkpt>
      <trkpt lat="42.452355399727821" lon="13.539996296167374">
        <ele>2145.8000000000002</ele>
        <time>2013-09-12T07:39:42Z</time>
      </trkpt>
      <trkpt lat="42.452295552939177" lon="13.539961175993085">
        <ele>2140.5100000000002</ele>
        <time>2013-09-12T07:39:50Z</time>
      </trkpt>
      <trkpt lat="42.452290020883083" lon="13.539952458813787">
        <ele>2135.71</ele>
        <time>2013-09-12T07:39:51Z</time>
      </trkpt>
      <trkpt lat="42.452280716970563" lon="13.539939802139997">
        <ele>2136.6700000000001</ele>
        <time>2013-09-12T07:39:52Z</time>
      </trkpt>
      <trkpt lat="42.452259929850698" lon="13.539922535419464">
        <ele>2132.3400000000001</ele>
        <time>2013-09-12T07:39:54Z</time>
      </trkpt>
      <trkpt lat="42.452251045033336" lon="13.539915578439832">
        <ele>2132.8200000000002</ele>
        <time>2013-09-12T07:39:55Z</time>
      </trkpt>
      <trkpt lat="42.452235287055373" lon="13.539895797148347">
        <ele>2136.6700000000001</ele>
        <time>2013-09-12T07:39:57Z</time>
      </trkpt>
      <trkpt lat="42.452210308983922" lon="13.539851205423474">
        <ele>2139.0700000000002</ele>
        <time>2013-09-12T07:40:00Z</time>
      </trkpt>
      <trkpt lat="42.45213252492249" lon="13.539807954803109">
        <ele>2143.4000000000001</ele>
        <time>2013-09-12T07:40:08Z</time>
      </trkpt>
      <trkpt lat="42.452118443325162" lon="13.539793537929654">
        <ele>2145.3200000000002</ele>
        <time>2013-09-12T07:40:10Z</time>
      </trkpt>
      <trkpt lat="42.452087262645364" lon="13.539766883477569">
        <ele>2144.8400000000001</ele>
        <time>2013-09-12T07:40:15Z</time>
      </trkpt>
      <trkpt lat="42.452067565172911" lon="13.539752047508955">
        <ele>2140.0300000000002</ele>
        <time>2013-09-12T07:40:17Z</time>
      </trkpt>
      <trkpt lat="42.452051555737853" lon="13.539747353643179">
        <ele>2139.5500000000002</ele>
        <time>2013-09-12T07:40:19Z</time>
      </trkpt>
      <trkpt lat="42.452013585716486" lon="13.53974006138742">
        <ele>2137.1500000000001</ele>
        <time>2013-09-12T07:40:23Z</time>
      </trkpt>
      <trkpt lat="42.451965473592281" lon="13.539692955091596">
        <ele>2136.6700000000001</ele>
        <time>2013-09-12T07:40:28Z</time>
      </trkpt>
      <trkpt lat="42.451880732551217" lon="13.539610225707293">
        <ele>2130.4200000000001</ele>
        <time>2013-09-12T07:40:39Z</time>
      </trkpt>
      <trkpt lat="42.451864471659064" lon="13.539602179080248">
        <ele>2123.21</ele>
        <time>2013-09-12T07:40:41Z</time>
      </trkpt>
      <trkpt lat="42.451857347041368" lon="13.539596730843186">
        <ele>2128.98</ele>
        <time>2013-09-12T07:40:42Z</time>
      </trkpt>
      <trkpt lat="42.451819879934192" lon="13.539577452465892">
        <ele>2131.8600000000001</ele>
        <time>2013-09-12T07:40:46Z</time>
      </trkpt>
      <trkpt lat="42.451809486374259" lon="13.539577117189765">
        <ele>2131.8600000000001</ele>
        <time>2013-09-12T07:40:47Z</time>
      </trkpt>
      <trkpt lat="42.451788447797298" lon="13.539583990350366">
        <ele>2135.23</ele>
        <time>2013-09-12T07:40:49Z</time>
      </trkpt>
      <trkpt lat="42.451729942113161" lon="13.539568819105625">
        <ele>2132.3400000000001</ele>
        <time>2013-09-12T07:40:54Z</time>
      </trkpt>
      <trkpt lat="42.451712172478437" lon="13.539562281221151">
        <ele>2131.3800000000001</ele>
        <time>2013-09-12T07:40:56Z</time>
      </trkpt>
      <trkpt lat="42.451615612953901" lon="13.539502937346697">
        <ele>2131.3800000000001</ele>
        <time>2013-09-12T07:41:08Z</time>
      </trkpt>
      <trkpt lat="42.45148946531117" lon="13.53934133425355">
        <ele>2133.3000000000002</ele>
        <time>2013-09-12T07:41:24Z</time>
      </trkpt>
      <trkpt lat="42.451435066759586" lon="13.539285091683269">
        <ele>2134.2600000000002</ele>
        <time>2013-09-12T07:41:32Z</time>
      </trkpt>
      <trkpt lat="42.451372956857085" lon="13.539200350642204">
        <ele>2133.7800000000002</ele>
        <time>2013-09-12T07:41:41Z</time>
      </trkpt>
      <trkpt lat="42.451354349032044" lon="13.539148466661572">
        <ele>2131.3800000000001</ele>
        <time>2013-09-12T07:41:45Z</time>
      </trkpt>
      <trkpt lat="42.451325263828039" lon="13.539080824702978">
        <ele>2128.02</ele>
        <time>2013-09-12T07:41:50Z</time>
      </trkpt>
      <trkpt lat="42.451321324333549" lon="13.539070347324014">
        <ele>2127.5300000000002</ele>
        <time>2013-09-12T07:41:51Z</time>
      </trkpt>
      <trkpt lat="42.451313864439726" lon="13.539049224928021">
        <ele>2131.3800000000001</ele>
        <time>2013-09-12T07:41:53Z</time>
      </trkpt>
      <trkpt lat="42.451310763135552" lon="13.539038076996803">
        <ele>2131.3800000000001</ele>
        <time>2013-09-12T07:41:54Z</time>
      </trkpt>
      <trkpt lat="42.451301543042064" lon="13.539011338725686">
        <ele>2128.98</ele>
        <time>2013-09-12T07:41:56Z</time>
      </trkpt>
      <trkpt lat="42.451282432302833" lon="13.538906564936042">
        <ele>2128.02</ele>
        <time>2013-09-12T07:42:03Z</time>
      </trkpt>
      <trkpt lat="42.451228033751249" lon="13.538731634616852">
        <ele>2127.0500000000002</ele>
        <time>2013-09-12T07:42:19Z</time>
      </trkpt>
      <trkpt lat="42.451177574694157" lon="13.538703387603164">
        <ele>2124.6500000000001</ele>
        <time>2013-09-12T07:42:25Z</time>
      </trkpt>
      <trkpt lat="42.45116944424808" lon="13.538704644888639">
        <ele>2124.6500000000001</ele>
        <time>2013-09-12T07:42:26Z</time>
      </trkpt>
      <trkpt lat="42.451127534732223" lon="13.538661561906338">
        <ele>2127.5300000000002</ele>
        <time>2013-09-12T07:42:33Z</time>
      </trkpt>
      <trkpt lat="42.451119991019368" lon="13.538655526936054">
        <ele>2126.5700000000002</ele>
        <time>2013-09-12T07:42:34Z</time>
      </trkpt>
      <trkpt lat="42.451066598296165" lon="13.538597607985139">
        <ele>2126.0900000000001</ele>
        <time>2013-09-12T07:42:41Z</time>
      </trkpt>
      <trkpt lat="42.451058132573962" lon="13.538503814488649">
        <ele>2127.0500000000002</ele>
        <time>2013-09-12T07:42:48Z</time>
      </trkpt>
      <trkpt lat="42.45107363909483" lon="13.538462826982141">
        <ele>2127.5300000000002</ele>
        <time>2013-09-12T07:42:52Z</time>
      </trkpt>
      <trkpt lat="42.451089983806014" lon="13.538445057347417">
        <ele>2126.5700000000002</ele>
        <time>2013-09-12T07:42:54Z</time>
      </trkpt>
      <trkpt lat="42.451112614944577" lon="13.538433238863945">
        <ele>2123.21</ele>
        <time>2013-09-12T07:42:57Z</time>
      </trkpt>
      <trkpt lat="42.451175730675459" lon="13.538361322134733">
        <ele>2121.77</ele>
        <time>2013-09-12T07:43:08Z</time>
      </trkpt>
      <trkpt lat="42.451193751767278" lon="13.53833919391036">
        <ele>2120.3200000000002</ele>
        <time>2013-09-12T07:43:11Z</time>
      </trkpt>
      <trkpt lat="42.451251083984971" lon="13.538258979097009">
        <ele>2119.8400000000001</ele>
        <time>2013-09-12T07:43:22Z</time>
      </trkpt>
      <trkpt lat="42.451347643509507" lon="13.538256464526057">
        <ele>2116.48</ele>
        <time>2013-09-12T07:43:34Z</time>
      </trkpt>
      <trkpt lat="42.451430121436715" lon="13.538341205567122">
        <ele>2114.0799999999999</ele>
        <time>2013-09-12T07:43:44Z</time>
      </trkpt>
      <trkpt lat="42.451478065922856" lon="13.538273312151432">
        <ele>2113.1199999999999</ele>
        <time>2013-09-12T07:43:54Z</time>
      </trkpt>
      <trkpt lat="42.451483011245728" lon="13.538235258311033">
        <ele>2113.1199999999999</ele>
        <time>2013-09-12T07:43:57Z</time>
      </trkpt>
      <trkpt lat="42.451525423675776" lon="13.538220170885324">
        <ele>2112.1500000000001</ele>
        <time>2013-09-12T07:44:02Z</time>
      </trkpt>
      <trkpt lat="42.451610416173935" lon="13.538205083459616">
        <ele>2108.79</ele>
        <time>2013-09-12T07:44:11Z</time>
      </trkpt>
      <trkpt lat="42.451680405065417" lon="13.538187146186829">
        <ele>2106.3899999999999</ele>
        <time>2013-09-12T07:44:18Z</time>
      </trkpt>
      <trkpt lat="42.451776880770922" lon="13.538154121488333">
        <ele>2103.5</ele>
        <time>2013-09-12T07:44:29Z</time>
      </trkpt>
      <trkpt lat="42.45184276252985" lon="13.538135010749102">
        <ele>2103.02</ele>
        <time>2013-09-12T07:44:36Z</time>
      </trkpt>
      <trkpt lat="42.451893305405974" lon="13.538071140646935">
        <ele>2102.0599999999999</ele>
        <time>2013-09-12T07:44:44Z</time>
      </trkpt>
      <trkpt lat="42.452003695070744" lon="13.538054963573813">
        <ele>2102.0599999999999</ele>
        <time>2013-09-12T07:44:56Z</time>
      </trkpt>
      <trkpt lat="42.452009646221995" lon="13.538054544478655">
        <ele>2101.5799999999999</ele>
        <time>2013-09-12T07:44:57Z</time>
      </trkpt>
      <trkpt lat="42.45210369117558" lon="13.53801179677248">
        <ele>2100.1399999999999</ele>
        <time>2013-09-12T07:45:12Z</time>
      </trkpt>
      <trkpt lat="42.452107882127166" lon="13.538005677983165">
        <ele>2100.1399999999999</ele>
        <time>2013-09-12T07:45:13Z</time>
      </trkpt>
      <trkpt lat="42.452185498550534" lon="13.537948345765471">
        <ele>2098.21</ele>
        <time>2013-09-12T07:45:26Z</time>
      </trkpt>
      <trkpt lat="42.452266803011298" lon="13.537922278046608">
        <ele>2094.3699999999999</ele>
        <time>2013-09-12T07:45:36Z</time>
      </trkpt>
      <trkpt lat="42.452272670343518" lon="13.537918254733086">
        <ele>2094.3699999999999</ele>
        <time>2013-09-12T07:45:37Z</time>
      </trkpt>
      <trkpt lat="42.452329499647021" lon="13.537884810939431">
        <ele>2091</ele>
        <time>2013-09-12T07:45:46Z</time>
      </trkpt>
      <trkpt lat="42.452451037243009" lon="13.53785396553576">
        <ele>2091.9699999999998</ele>
        <time>2013-09-12T07:46:03Z</time>
      </trkpt>
      <trkpt lat="42.452546758577228" lon="13.537830915302038">
        <ele>2088.5999999999999</ele>
        <time>2013-09-12T07:46:14Z</time>
      </trkpt>
      <trkpt lat="42.452558744698763" lon="13.537835106253624">
        <ele>2088.5999999999999</ele>
        <time>2013-09-12T07:46:15Z</time>
      </trkpt>
      <trkpt lat="42.452579028904438" lon="13.537765955552459">
        <ele>2084.7600000000002</ele>
        <time>2013-09-12T07:46:24Z</time>
      </trkpt>
      <trkpt lat="42.452586656436324" lon="13.53777090087533">
        <ele>2084.7600000000002</ele>
        <time>2013-09-12T07:46:25Z</time>
      </trkpt>
      <trkpt lat="42.452626470476389" lon="13.537798896431923">
        <ele>2082.3499999999999</ele>
        <time>2013-09-12T07:46:29Z</time>
      </trkpt>
      <trkpt lat="42.452644826844335" lon="13.537796633318067">
        <ele>2084.2800000000002</ele>
        <time>2013-09-12T07:46:31Z</time>
      </trkpt>
      <trkpt lat="42.452703583985567" lon="13.537748772650957">
        <ele>2080.9099999999999</ele>
        <time>2013-09-12T07:46:44Z</time>
      </trkpt>
      <trkpt lat="42.452687574550509" lon="13.537733182311058">
        <ele>2079.4699999999998</ele>
        <time>2013-09-12T07:46:46Z</time>
      </trkpt>
      <trkpt lat="42.452689921483397" lon="13.537643998861313">
        <ele>2077.0700000000002</ele>
        <time>2013-09-12T07:46:54Z</time>
      </trkpt>
      <trkpt lat="42.452709618955851" lon="13.537654895335436">
        <ele>2076.5900000000001</ele>
        <time>2013-09-12T07:46:56Z</time>
      </trkpt>
      <trkpt lat="42.452787067741156" lon="13.537620697170496">
        <ele>2076.5900000000001</ele>
        <time>2013-09-12T07:47:08Z</time>
      </trkpt>
      <trkpt lat="42.452864432707429" lon="13.537648860365152">
        <ele>2073.2199999999998</ele>
        <time>2013-09-12T07:47:17Z</time>
      </trkpt>
      <trkpt lat="42.4528728146106" lon="13.537653386592865">
        <ele>2072.7399999999998</ele>
        <time>2013-09-12T07:47:18Z</time>
      </trkpt>
      <trkpt lat="42.452995022758842" lon="13.537669144570827">
        <ele>2068.8899999999999</ele>
        <time>2013-09-12T07:47:32Z</time>
      </trkpt>
      <trkpt lat="42.453005081042647" lon="13.537673000246286">
        <ele>2068.8899999999999</ele>
        <time>2013-09-12T07:47:33Z</time>
      </trkpt>
      <trkpt lat="42.453049505129457" lon="13.537645842880011">
        <ele>2072.7399999999998</ele>
        <time>2013-09-12T07:47:40Z</time>
      </trkpt>
      <trkpt lat="42.453053276985884" lon="13.537640981376171">
        <ele>2072.2600000000002</ele>
        <time>2013-09-12T07:47:41Z</time>
      </trkpt>
      <trkpt lat="42.453065011650324" lon="13.537611393257976">
        <ele>2068.8899999999999</ele>
        <time>2013-09-12T07:47:45Z</time>
      </trkpt>
      <trkpt lat="42.453107424080372" lon="13.537533860653639">
        <ele>2066.0100000000002</ele>
        <time>2013-09-12T07:47:56Z</time>
      </trkpt>
      <trkpt lat="42.453114967793226" lon="13.537517515942454">
        <ele>2064.5700000000002</ele>
        <time>2013-09-12T07:47:58Z</time>
      </trkpt>
      <trkpt lat="42.453142208978534" lon="13.537504775449634">
        <ele>2060.2399999999998</ele>
        <time>2013-09-12T07:48:02Z</time>
      </trkpt>
      <trkpt lat="42.453166348859668" lon="13.537510558962822">
        <ele>2056.4000000000001</ele>
        <time>2013-09-12T07:48:05Z</time>
      </trkpt>
      <trkpt lat="42.453192416578531" lon="13.537543248385191">
        <ele>2056.8800000000001</ele>
        <time>2013-09-12T07:48:09Z</time>
      </trkpt>
      <trkpt lat="42.453208509832621" lon="13.537636622786522">
        <ele>2057.8400000000001</ele>
        <time>2013-09-12T07:48:18Z</time>
      </trkpt>
      <trkpt lat="42.453223094344139" lon="13.537812726572156">
        <ele>2056.8800000000001</ele>
        <time>2013-09-12T07:48:32Z</time>
      </trkpt>
      <trkpt lat="42.453258465975523" lon="13.537821359932423">
        <ele>2057.3600000000001</ele>
        <time>2013-09-12T07:48:36Z</time>
      </trkpt>
      <trkpt lat="42.453351421281695" lon="13.537815157324076">
        <ele>2055.9200000000001</ele>
        <time>2013-09-12T07:48:49Z</time>
      </trkpt>
      <trkpt lat="42.453374974429607" lon="13.537790095433593">
        <ele>2053.5100000000002</ele>
        <time>2013-09-12T07:48:55Z</time>
      </trkpt>
      <trkpt lat="42.453448064625263" lon="13.537744833156466">
        <ele>2051.1100000000001</ele>
        <time>2013-09-12T07:49:09Z</time>
      </trkpt>
      <trkpt lat="42.453433144837618" lon="13.537746677175164">
        <ele>2053.9899999999998</ele>
        <time>2013-09-12T07:49:25Z</time>
      </trkpt>
      <trkpt lat="42.45343423448503" lon="13.537744833156466">
        <ele>2055.4400000000001</ele>
        <time>2013-09-12T07:49:28Z</time>
      </trkpt>
      <trkpt lat="42.453448818996549" lon="13.53773376904428">
        <ele>2055.9200000000001</ele>
        <time>2013-09-12T07:49:47Z</time>
      </trkpt>
      <trkpt lat="42.453446639701724" lon="13.537684567272663">
        <ele>2052.0700000000002</ele>
        <time>2013-09-12T07:49:56Z</time>
      </trkpt>
      <trkpt lat="42.453529955819249" lon="13.537662774324417">
        <ele>2050.1500000000001</ele>
        <time>2013-09-12T07:50:09Z</time>
      </trkpt>
      <trkpt lat="42.453589886426926" lon="13.537602927535772">
        <ele>2047.75</ele>
        <time>2013-09-12T07:50:18Z</time>
      </trkpt>
      <trkpt lat="42.453664569184184" lon="13.537566382437944">
        <ele>2047.26</ele>
        <time>2013-09-12T07:50:31Z</time>
      </trkpt>
      <trkpt lat="42.453663563355803" lon="13.537488514557481">
        <ele>2044.3800000000001</ele>
        <time>2013-09-12T07:50:43Z</time>
      </trkpt>
      <trkpt lat="42.453693989664316" lon="13.537447024136782">
        <ele>2042.46</ele>
        <time>2013-09-12T07:50:54Z</time>
      </trkpt>
      <trkpt lat="42.453752746805549" lon="13.537382315844297">
        <ele>2039.0899999999999</ele>
        <time>2013-09-12T07:51:05Z</time>
      </trkpt>
      <trkpt lat="42.453811671584845" lon="13.537336802110076">
        <ele>2035.73</ele>
        <time>2013-09-12T07:51:17Z</time>
      </trkpt>
      <trkpt lat="42.453811839222908" lon="13.537327917292714">
        <ele>2035.25</ele>
        <time>2013-09-12T07:51:18Z</time>
      </trkpt>
      <trkpt lat="42.453870177268982" lon="13.537330012768507">
        <ele>2034.77</ele>
        <time>2013-09-12T07:51:31Z</time>
      </trkpt>
      <trkpt lat="42.453925497829914" lon="13.53726907633245">
        <ele>2033.3299999999999</ele>
        <time>2013-09-12T07:51:46Z</time>
      </trkpt>
      <trkpt lat="42.453993307426572" lon="13.537237141281366">
        <ele>2030.4400000000001</ele>
        <time>2013-09-12T07:51:59Z</time>
      </trkpt>
      <trkpt lat="42.454027337953448" lon="13.537181820720434">
        <ele>2027.5599999999999</ele>
        <time>2013-09-12T07:52:08Z</time>
      </trkpt>
      <trkpt lat="42.454030774533749" lon="13.537131026387215">
        <ele>2029</ele>
        <time>2013-09-12T07:52:12Z</time>
      </trkpt>
      <trkpt lat="42.454039407894015" lon="13.537104707211256">
        <ele>2027.0799999999999</ele>
        <time>2013-09-12T07:52:14Z</time>
      </trkpt>
      <trkpt lat="42.454084670171142" lon="13.537113005295396">
        <ele>2029</ele>
        <time>2013-09-12T07:52:18Z</time>
      </trkpt>
      <trkpt lat="42.454174356535077" lon="13.537136893719435">
        <ele>2024.6700000000001</ele>
        <time>2013-09-12T07:52:28Z</time>
      </trkpt>
      <trkpt lat="42.454180391505361" lon="13.537132618948817">
        <ele>2025.6400000000001</ele>
        <time>2013-09-12T07:52:29Z</time>
      </trkpt>
      <trkpt lat="42.454174188897014" lon="13.536955928429961">
        <ele>2024.1900000000001</ele>
        <time>2013-09-12T07:52:52Z</time>
      </trkpt>
      <trkpt lat="42.454143175855279" lon="13.536925837397575">
        <ele>2022.75</ele>
        <time>2013-09-12T07:52:59Z</time>
      </trkpt>
      <trkpt lat="42.454167064279318" lon="13.536794828251004">
        <ele>2018.9100000000001</ele>
        <time>2013-09-12T07:53:15Z</time>
      </trkpt>
      <trkpt lat="42.454172177240252" lon="13.536792984232306">
        <ele>2018.4300000000001</ele>
        <time>2013-09-12T07:53:17Z</time>
      </trkpt>
      <trkpt lat="42.454296816140413" lon="13.536838078871369">
        <ele>2018.4300000000001</ele>
        <time>2013-09-12T07:53:31Z</time>
      </trkpt>
      <trkpt lat="42.454367643222213" lon="13.536844365298748">
        <ele>2014.5799999999999</ele>
        <time>2013-09-12T07:53:42Z</time>
      </trkpt>
      <trkpt lat="42.454375186935067" lon="13.536843191832304">
        <ele>2014.5799999999999</ele>
        <time>2013-09-12T07:53:43Z</time>
      </trkpt>
      <trkpt lat="42.454467890784144" lon="13.536836318671703">
        <ele>2011.7</ele>
        <time>2013-09-12T07:53:56Z</time>
      </trkpt>
      <trkpt lat="42.454500496387482" lon="13.536804048344493">
        <ele>2010.73</ele>
        <time>2013-09-12T07:54:02Z</time>
      </trkpt>
      <trkpt lat="42.454541902989149" lon="13.536801030859351">
        <ele>2007.3699999999999</ele>
        <time>2013-09-12T07:54:07Z</time>
      </trkpt>
      <trkpt lat="42.454550284892321" lon="13.536800863221288">
        <ele>2005.45</ele>
        <time>2013-09-12T07:54:08Z</time>
      </trkpt>
      <trkpt lat="42.454569730907679" lon="13.53678535670042">
        <ele>2011.22</ele>
        <time>2013-09-12T07:54:11Z</time>
      </trkpt>
      <trkpt lat="42.454577526077628" lon="13.536785440519452">
        <ele>2009.77</ele>
        <time>2013-09-12T07:54:12Z</time>
      </trkpt>
      <trkpt lat="42.454588422551751" lon="13.536786027252674">
        <ele>2005.9300000000001</ele>
        <time>2013-09-12T07:54:14Z</time>
      </trkpt>
      <trkpt lat="42.454638462513685" lon="13.536777729168534">
        <ele>2002.5599999999999</ele>
        <time>2013-09-12T07:54:20Z</time>
      </trkpt>
      <trkpt lat="42.454645670950413" lon="13.536772532388568">
        <ele>2003.04</ele>
        <time>2013-09-12T07:54:21Z</time>
      </trkpt>
      <trkpt lat="42.45469587855041" lon="13.536741267889738">
        <ele>2004.01</ele>
        <time>2013-09-12T07:54:28Z</time>
      </trkpt>
      <trkpt lat="42.454771818593144" lon="13.536724671721458">
        <ele>2000.1600000000001</ele>
        <time>2013-09-12T07:54:36Z</time>
      </trkpt>
      <trkpt lat="42.454838454723358" lon="13.536727353930473">
        <ele>2002.0799999999999</ele>
        <time>2013-09-12T07:54:44Z</time>
      </trkpt>
      <trkpt lat="42.454980108886957" lon="13.53672718629241">
        <ele>1999.6800000000001</ele>
        <time>2013-09-12T07:54:59Z</time>
      </trkpt>
      <trkpt lat="42.455043392255902" lon="13.536678738892078">
        <ele>1999.2</ele>
        <time>2013-09-12T07:55:08Z</time>
      </trkpt>
      <trkpt lat="42.455043978989124" lon="13.536678487434983">
        <ele>1997.76</ele>
        <time>2013-09-12T07:55:11Z</time>
      </trkpt>
      <trkpt lat="42.455051355063915" lon="13.536668596789241">
        <ele>1998.72</ele>
        <time>2013-09-12T07:55:13Z</time>
      </trkpt>
      <trkpt lat="42.455084044486284" lon="13.536618640646338">
        <ele>1995.3499999999999</ele>
        <time>2013-09-12T07:55:20Z</time>
      </trkpt>
      <trkpt lat="42.455088654533029" lon="13.536610342562199">
        <ele>1994.8699999999999</ele>
        <time>2013-09-12T07:55:21Z</time>
      </trkpt>
      <trkpt lat="42.455099718645215" lon="13.536581005901098">
        <ele>1993.4300000000001</ele>
        <time>2013-09-12T07:55:24Z</time>
      </trkpt>
      <trkpt lat="42.455104999244213" lon="13.53653859347105">
        <ele>1993.4300000000001</ele>
        <time>2013-09-12T07:55:28Z</time>
      </trkpt>
      <trkpt lat="42.455182867124677" lon="13.536514118313789">
        <ele>1991.99</ele>
        <time>2013-09-12T07:55:40Z</time>
      </trkpt>
      <trkpt lat="42.455190662294626" lon="13.536480339244008">
        <ele>1991.99</ele>
        <time>2013-09-12T07:55:43Z</time>
      </trkpt>
      <trkpt lat="42.45525436475873" lon="13.536470867693424">
        <ele>1991.51</ele>
        <time>2013-09-12T07:55:49Z</time>
      </trkpt>
      <trkpt lat="42.455314295366406" lon="13.536475226283073">
        <ele>1989.5899999999999</ele>
        <time>2013-09-12T07:55:57Z</time>
      </trkpt>
      <trkpt lat="42.455358551815152" lon="13.536340110003948">
        <ele>1985.74</ele>
        <time>2013-09-12T07:56:10Z</time>
      </trkpt>
      <trkpt lat="42.455417308956385" lon="13.536311024799943">
        <ele>1984.3</ele>
        <time>2013-09-12T07:56:19Z</time>
      </trkpt>
      <trkpt lat="42.455589976161718" lon="13.536346899345517">
        <ele>1980.9300000000001</ele>
        <time>2013-09-12T07:56:37Z</time>
      </trkpt>
      <trkpt lat="42.455615121871233" lon="13.536360058933496">
        <ele>1979.97</ele>
        <time>2013-09-12T07:56:39Z</time>
      </trkpt>
      <trkpt lat="42.455728026106954" lon="13.536367351189256">
        <ele>1977.0899999999999</ele>
        <time>2013-09-12T07:56:48Z</time>
      </trkpt>
      <trkpt lat="42.455914607271552" lon="13.536444380879402">
        <ele>1971.8</ele>
        <time>2013-09-12T07:56:57Z</time>
      </trkpt>
      <trkpt lat="42.455881414934993" lon="13.536441950127482">
        <ele>1976.1300000000001</ele>
        <time>2013-09-12T07:57:00Z</time>
      </trkpt>
      <trkpt lat="42.455882001668215" lon="13.536436669528484">
        <ele>1979.01</ele>
        <time>2013-09-12T07:57:02Z</time>
      </trkpt>
      <trkpt lat="42.455886360257864" lon="13.536431305110455">
        <ele>1979.97</ele>
        <time>2013-09-12T07:57:03Z</time>
      </trkpt>
      <trkpt lat="42.455936735495925" lon="13.536438094452024">
        <ele>1976.6099999999999</ele>
        <time>2013-09-12T07:57:07Z</time>
      </trkpt>
      <trkpt lat="42.455950565636158" lon="13.53644086048007">
        <ele>1976.1300000000001</ele>
        <time>2013-09-12T07:57:08Z</time>
      </trkpt>
      <trkpt lat="42.456027343869209" lon="13.5364203248173">
        <ele>1979.97</ele>
        <time>2013-09-12T07:57:14Z</time>
      </trkpt>
      <trkpt lat="42.456256253644824" lon="13.536386042833328">
        <ele>1979.97</ele>
        <time>2013-09-12T07:57:31Z</time>
      </trkpt>
      <trkpt lat="42.456439230591059" lon="13.536350671201944">
        <ele>1979.49</ele>
        <time>2013-09-12T07:57:50Z</time>
      </trkpt>
      <trkpt lat="42.456446941941977" lon="13.5363460611552">
        <ele>1979.49</ele>
        <time>2013-09-12T07:57:53Z</time>
      </trkpt>
      <trkpt lat="42.456510476768017" lon="13.536333739757538">
        <ele>1979.97</ele>
        <time>2013-09-12T07:57:59Z</time>
      </trkpt>
      <trkpt lat="42.456621956080198" lon="13.536295099183917">
        <ele>1977.5699999999999</ele>
        <time>2013-09-12T07:58:09Z</time>
      </trkpt>
      <trkpt lat="42.456705020740628" lon="13.536235168576241">
        <ele>1975.1700000000001</ele>
        <time>2013-09-12T07:58:21Z</time>
      </trkpt>
      <trkpt lat="42.456686832010746" lon="13.536203568801284">
        <ele>1976.1300000000001</ele>
        <time>2013-09-12T07:58:37Z</time>
      </trkpt>
      <trkpt lat="42.456706780940294" lon="13.53615696541965">
        <ele>1977.5699999999999</ele>
        <time>2013-09-12T07:58:51Z</time>
      </trkpt>
      <trkpt lat="42.456785654649138" lon="13.536067111417651">
        <ele>1974.6900000000001</ele>
        <time>2013-09-12T07:59:04Z</time>
      </trkpt>
      <trkpt lat="42.456822199746966" lon="13.536034421995282">
        <ele>1973.24</ele>
        <time>2013-09-12T07:59:17Z</time>
      </trkpt>
      <trkpt lat="42.456824881955981" lon="13.536036349833012">
        <ele>1973.72</ele>
        <time>2013-09-12T07:59:27Z</time>
      </trkpt>
      <trkpt lat="42.456922447308898" lon="13.535944232717156">
        <ele>1972.76</ele>
        <time>2013-09-12T07:59:41Z</time>
      </trkpt>
      <trkpt lat="42.456933176144958" lon="13.53591850027442">
        <ele>1971.3199999999999</ele>
        <time>2013-09-12T07:59:56Z</time>
      </trkpt>
      <trkpt lat="42.456932421773672" lon="13.53591657243669">
        <ele>1973.24</ele>
        <time>2013-09-12T07:59:58Z</time>
      </trkpt>
      <trkpt lat="42.456956980749965" lon="13.535876339301467">
        <ele>1972.76</ele>
        <time>2013-09-12T08:00:14Z</time>
      </trkpt>
      <trkpt lat="42.456961423158646" lon="13.53587307035923">
        <ele>1969.8800000000001</ele>
        <time>2013-09-12T08:00:36Z</time>
      </trkpt>
      <trkpt lat="42.456980617716908" lon="13.535849852487445">
        <ele>1970.8399999999999</ele>
        <time>2013-09-12T08:00:50Z</time>
      </trkpt>
      <trkpt lat="42.456986485049129" lon="13.535854294896126">
        <ele>1973.24</ele>
        <time>2013-09-12T08:00:55Z</time>
      </trkpt>
      <trkpt lat="42.457000818103552" lon="13.535853289067745">
        <ele>1969.8800000000001</ele>
        <time>2013-09-12T08:01:03Z</time>
      </trkpt>
      <trkpt lat="42.456997465342283" lon="13.535851445049047">
        <ele>1970.8399999999999</ele>
        <time>2013-09-12T08:01:04Z</time>
      </trkpt>
      <trkpt lat="42.456989670172334" lon="13.535844823345542">
        <ele>1967.48</ele>
        <time>2013-09-12T08:01:16Z</time>
      </trkpt>
      <trkpt lat="42.45699536986649" lon="13.535844068974257">
        <ele>1968.9200000000001</ele>
        <time>2013-09-12T08:01:20Z</time>
      </trkpt>
      <trkpt lat="42.456978354603052" lon="13.535839794203639">
        <ele>1968.9200000000001</ele>
        <time>2013-09-12T08:01:35Z</time>
      </trkpt>
      <trkpt lat="42.45699436403811" lon="13.535839542746544">
        <ele>1968.9200000000001</ele>
        <time>2013-09-12T08:01:54Z</time>
      </trkpt>
      <trkpt lat="42.457015486434102" lon="13.535845745354891">
        <ele>1970.3599999999999</ele>
        <time>2013-09-12T08:02:01Z</time>
      </trkpt>
      <trkpt lat="42.457031412050128" lon="13.535845493897796">
        <ele>1971.3199999999999</ele>
        <time>2013-09-12T08:02:17Z</time>
      </trkpt>
      <trkpt lat="42.457053707912564" lon="13.535809786990285">
        <ele>1970.3599999999999</ele>
        <time>2013-09-12T08:02:26Z</time>
      </trkpt>
      <trkpt lat="42.457165187224746" lon="13.535802997648716">
        <ele>1967.96</ele>
        <time>2013-09-12T08:02:42Z</time>
      </trkpt>
      <trkpt lat="42.457159990444779" lon="13.535799477249384">
        <ele>1968.9200000000001</ele>
        <time>2013-09-12T08:03:03Z</time>
      </trkpt>
      <trkpt lat="42.457173736765981" lon="13.535800902172923">
        <ele>1969.8800000000001</ele>
        <time>2013-09-12T08:03:21Z</time>
      </trkpt>
      <trkpt lat="42.457163846120238" lon="13.535801488906145">
        <ele>1969.4000000000001</ele>
        <time>2013-09-12T08:03:45Z</time>
      </trkpt>
      <trkpt lat="42.457169461995363" lon="13.535795789211988">
        <ele>1972.28</ele>
        <time>2013-09-12T08:04:02Z</time>
      </trkpt>
      <trkpt lat="42.457160828635097" lon="13.535803332924843">
        <ele>1969.8800000000001</ele>
        <time>2013-09-12T08:04:22Z</time>
      </trkpt>
      <trkpt lat="42.457189578562975" lon="13.535807188600302">
        <ele>1969.4000000000001</ele>
        <time>2013-09-12T08:04:38Z</time>
      </trkpt>
      <trkpt lat="42.457328466698527" lon="13.535786736756563">
        <ele>1966.99</ele>
        <time>2013-09-12T08:04:50Z</time>
      </trkpt>
      <trkpt lat="42.45739652775228" lon="13.535780869424343">
        <ele>1965.0699999999999</ele>
        <time>2013-09-12T08:04:56Z</time>
      </trkpt>
      <trkpt lat="42.457419661805034" lon="13.535813391208649">
        <ele>1965.55</ele>
        <time>2013-09-12T08:04:59Z</time>
      </trkpt>
      <trkpt lat="42.45757145807147" lon="13.535873908549547">
        <ele>1963.6300000000001</ele>
        <time>2013-09-12T08:05:14Z</time>
      </trkpt>
      <trkpt lat="42.457713196054101" lon="13.535941382870078">
        <ele>1962.6700000000001</ele>
        <time>2013-09-12T08:05:28Z</time>
      </trkpt>
      <trkpt lat="42.457767091691494" lon="13.535948758944869">
        <ele>1962.1900000000001</ele>
        <time>2013-09-12T08:05:34Z</time>
      </trkpt>
      <trkpt lat="42.457836745306849" lon="13.53594146668911">
        <ele>1960.75</ele>
        <time>2013-09-12T08:05:41Z</time>
      </trkpt>
      <trkpt lat="42.457863064482808" lon="13.535920428112149">
        <ele>1959.3</ele>
        <time>2013-09-12T08:05:44Z</time>
      </trkpt>
      <trkpt lat="42.457883516326547" lon="13.535941215232015">
        <ele>1958.8199999999999</ele>
        <time>2013-09-12T08:05:48Z</time>
      </trkpt>
      <trkpt lat="42.458033049479127" lon="13.53602210059762">
        <ele>1956.4200000000001</ele>
        <time>2013-09-12T08:06:05Z</time>
      </trkpt>
      <trkpt lat="42.458114689216018" lon="13.53604506701231">
        <ele>1953.54</ele>
        <time>2013-09-12T08:06:18Z</time>
      </trkpt>
      <trkpt lat="42.458145618438721" lon="13.536056466400623">
        <ele>1953.54</ele>
        <time>2013-09-12T08:06:22Z</time>
      </trkpt>
      <trkpt lat="42.45819934643805" lon="13.536066021770239">
        <ele>1953.0599999999999</ele>
        <time>2013-09-12T08:06:27Z</time>
      </trkpt>
      <trkpt lat="42.458325074985623" lon="13.536138525232673">
        <ele>1949.6900000000001</ele>
        <time>2013-09-12T08:06:40Z</time>
      </trkpt>
      <trkpt lat="42.458415683358908" lon="13.536198791116476">
        <ele>1947.29</ele>
        <time>2013-09-12T08:06:50Z</time>
      </trkpt>
      <trkpt lat="42.458466896787286" lon="13.536270624026656">
        <ele>1945.8499999999999</ele>
        <time>2013-09-12T08:06:57Z</time>
      </trkpt>
      <trkpt lat="42.458550212904811" lon="13.536327872425318">
        <ele>1942.48</ele>
        <time>2013-09-12T08:07:07Z</time>
      </trkpt>
      <trkpt lat="42.458573430776596" lon="13.536300212144852">
        <ele>1942</ele>
        <time>2013-09-12T08:07:18Z</time>
      </trkpt>
      <trkpt lat="42.458679461851716" lon="13.536353353410959">
        <ele>1939.1199999999999</ele>
        <time>2013-09-12T08:07:31Z</time>
      </trkpt>
      <trkpt lat="42.458819523453712" lon="13.536396017298102">
        <ele>1937.1900000000001</ele>
        <time>2013-09-12T08:07:46Z</time>
      </trkpt>
      <trkpt lat="42.458885489031672" lon="13.536382606253028">
        <ele>1933.8299999999999</ele>
        <time>2013-09-12T08:07:55Z</time>
      </trkpt>
      <trkpt lat="42.458891272544861" lon="13.536379421129823">
        <ele>1933.3499999999999</ele>
        <time>2013-09-12T08:07:56Z</time>
      </trkpt>
      <trkpt lat="42.458898145705462" lon="13.536375900730491">
        <ele>1933.3499999999999</ele>
        <time>2013-09-12T08:07:57Z</time>
      </trkpt>
      <trkpt lat="42.458933768793941" lon="13.536380929872394">
        <ele>1932.8699999999999</ele>
        <time>2013-09-12T08:08:04Z</time>
      </trkpt>
      <trkpt lat="42.459072656929493" lon="13.536323010921478">
        <ele>1930.46</ele>
        <time>2013-09-12T08:08:19Z</time>
      </trkpt>
      <trkpt lat="42.459085732698441" lon="13.536306666210294">
        <ele>1930.46</ele>
        <time>2013-09-12T08:08:21Z</time>
      </trkpt>
      <trkpt lat="42.459215736016631" lon="13.536258554086089">
        <ele>1928.0599999999999</ele>
        <time>2013-09-12T08:08:34Z</time>
      </trkpt>
      <trkpt lat="42.459334172308445" lon="13.536260314285755">
        <ele>1925.6600000000001</ele>
        <time>2013-09-12T08:08:45Z</time>
      </trkpt>
      <trkpt lat="42.459385385736823" lon="13.536227121949196">
        <ele>1923.74</ele>
        <time>2013-09-12T08:08:51Z</time>
      </trkpt>
      <trkpt lat="42.459397707134485" lon="13.536200886592269">
        <ele>1922.77</ele>
        <time>2013-09-12T08:08:54Z</time>
      </trkpt>
      <trkpt lat="42.45941991917789" lon="13.536145314574242">
        <ele>1920.3699999999999</ele>
        <time>2013-09-12T08:09:00Z</time>
      </trkpt>
      <trkpt lat="42.459451435133815" lon="13.536071386188269">
        <ele>1918.45</ele>
        <time>2013-09-12T08:09:09Z</time>
      </trkpt>
      <trkpt lat="42.459522178396583" lon="13.536129388958216">
        <ele>1916.53</ele>
        <time>2013-09-12T08:09:24Z</time>
      </trkpt>
      <trkpt lat="42.45957288891077" lon="13.536102063953876">
        <ele>1915.5599999999999</ele>
        <time>2013-09-12T08:09:33Z</time>
      </trkpt>
      <trkpt lat="42.459596609696746" lon="13.53606853634119">
        <ele>1914.5999999999999</ele>
        <time>2013-09-12T08:09:36Z</time>
      </trkpt>
      <trkpt lat="42.459617229178548" lon="13.536061160266399">
        <ele>1914.5999999999999</ele>
        <time>2013-09-12T08:09:38Z</time>
      </trkpt>
      <trkpt lat="42.459634747356176" lon="13.536048419773579">
        <ele>1914.5999999999999</ele>
        <time>2013-09-12T08:09:40Z</time>
      </trkpt>
      <trkpt lat="42.459682440385222" lon="13.536024615168571">
        <ele>1913.1600000000001</ele>
        <time>2013-09-12T08:09:46Z</time>
      </trkpt>
      <trkpt lat="42.459748238325119" lon="13.5360455699265">
        <ele>1911.24</ele>
        <time>2013-09-12T08:09:59Z</time>
      </trkpt>
      <trkpt lat="42.459811018779874" lon="13.536043390631676">
        <ele>1909.3199999999999</ele>
        <time>2013-09-12T08:10:10Z</time>
      </trkpt>
      <trkpt lat="42.459894083440304" lon="13.536074236035347">
        <ele>1906.4300000000001</ele>
        <time>2013-09-12T08:10:21Z</time>
      </trkpt>
      <trkpt lat="42.459942949935794" lon="13.53604263626039">
        <ele>1905.47</ele>
        <time>2013-09-12T08:10:29Z</time>
      </trkpt>
      <trkpt lat="42.459999527782202" lon="13.536043055355549">
        <ele>1904.03</ele>
        <time>2013-09-12T08:10:35Z</time>
      </trkpt>
      <trkpt lat="42.460050573572516" lon="13.536051856353879">
        <ele>1902.1099999999999</ele>
        <time>2013-09-12T08:10:41Z</time>
      </trkpt>
      <trkpt lat="42.460151575505733" lon="13.536068201065063">
        <ele>1900.1800000000001</ele>
        <time>2013-09-12T08:10:53Z</time>
      </trkpt>
      <trkpt lat="42.46024520136416" lon="13.536094855517149">
        <ele>1897.78</ele>
        <time>2013-09-12T08:11:05Z</time>
      </trkpt>
      <trkpt lat="42.460284680128098" lon="13.536177081987262">
        <ele>1894.4200000000001</ele>
        <time>2013-09-12T08:11:14Z</time>
      </trkpt>
      <trkpt lat="42.460338324308395" lon="13.536236425861716">
        <ele>1892.49</ele>
        <time>2013-09-12T08:11:27Z</time>
      </trkpt>
      <trkpt lat="42.460392555221915" lon="13.536256961524487">
        <ele>1890.5699999999999</ele>
        <time>2013-09-12T08:11:36Z</time>
      </trkpt>
      <trkpt lat="42.46042063459754" lon="13.536269869655371">
        <ele>1890.5699999999999</ele>
        <time>2013-09-12T08:11:40Z</time>
      </trkpt>
      <trkpt lat="42.460511913523078" lon="13.536328626796603">
        <ele>1888.1700000000001</ele>
        <time>2013-09-12T08:11:56Z</time>
      </trkpt>
      <trkpt lat="42.460568239912391" lon="13.536345725879073">
        <ele>1888.1700000000001</ele>
        <time>2013-09-12T08:12:15Z</time>
      </trkpt>
      <trkpt lat="42.460574274882674" lon="13.536353604868054">
        <ele>1888.1700000000001</ele>
        <time>2013-09-12T08:12:16Z</time>
      </trkpt>
      <trkpt lat="42.46059556491673" lon="13.536358382552862">
        <ele>1886.24</ele>
        <time>2013-09-12T08:12:29Z</time>
      </trkpt>
      <trkpt lat="42.460583746433258" lon="13.536400375887752">
        <ele>1886.24</ele>
        <time>2013-09-12T08:12:52Z</time>
      </trkpt>
      <trkpt lat="42.460607551038265" lon="13.536376068368554">
        <ele>1885.76</ele>
        <time>2013-09-12T08:13:09Z</time>
      </trkpt>
      <trkpt lat="42.460593301802874" lon="13.536400375887752">
        <ele>1884.3199999999999</ele>
        <time>2013-09-12T08:13:40Z</time>
      </trkpt>
      <trkpt lat="42.460585758090019" lon="13.536415128037333">
        <ele>1884.8</ele>
        <time>2013-09-12T08:14:00Z</time>
      </trkpt>
      <trkpt lat="42.460590451955795" lon="13.536386210471392">
        <ele>1884.8</ele>
        <time>2013-09-12T08:14:21Z</time>
      </trkpt>
      <trkpt lat="42.460567150264978" lon="13.536396520212293">
        <ele>1886.24</ele>
        <time>2013-09-12T08:14:50Z</time>
      </trkpt>
      <trkpt lat="42.460585590451956" lon="13.536387886852026">
        <ele>1886.24</ele>
        <time>2013-09-12T08:15:10Z</time>
      </trkpt>
      <trkpt lat="42.46058776974678" lon="13.536395011469722">
        <ele>1885.28</ele>
        <time>2013-09-12T08:15:35Z</time>
      </trkpt>
      <trkpt lat="42.460588440299034" lon="13.536397945135832">
        <ele>1885.76</ele>
        <time>2013-09-12T08:15:50Z</time>
      </trkpt>
      <trkpt lat="42.460640156641603" lon="13.536407249048352">
        <ele>1885.76</ele>
        <time>2013-09-12T08:16:13Z</time>
      </trkpt>
      <trkpt lat="42.460652394220233" lon="13.536426359787583">
        <ele>1886.24</ele>
        <time>2013-09-12T08:16:22Z</time>
      </trkpt>
      <trkpt lat="42.460661949589849" lon="13.536441950127482">
        <ele>1888.1700000000001</ele>
        <time>2013-09-12T08:16:29Z</time>
      </trkpt>
      <trkpt lat="42.46065323241055" lon="13.536425353959203">
        <ele>1886.24</ele>
        <time>2013-09-12T08:16:33Z</time>
      </trkpt>
      <trkpt lat="42.46062783524394" lon="13.536411775276065">
        <ele>1887.6900000000001</ele>
        <time>2013-09-12T08:16:41Z</time>
      </trkpt>
      <trkpt lat="42.460616184398532" lon="13.536414541304111">
        <ele>1884.8</ele>
        <time>2013-09-12T08:16:48Z</time>
      </trkpt>
      <trkpt lat="42.460610652342439" lon="13.536417810246348">
        <ele>1885.28</ele>
        <time>2013-09-12T08:17:13Z</time>
      </trkpt>
      <trkpt lat="42.46064979583025" lon="13.536422001197934">
        <ele>1884.8</ele>
        <time>2013-09-12T08:17:46Z</time>
      </trkpt>
      <trkpt lat="42.460639318451285" lon="13.536410098895431">
        <ele>1886.72</ele>
        <time>2013-09-12T08:17:57Z</time>
      </trkpt>
      <trkpt lat="42.460627919062972" lon="13.53640372864902">
        <ele>1884.8</ele>
        <time>2013-09-12T08:18:04Z</time>
      </trkpt>
      <trkpt lat="42.460631942376494" lon="13.536407500505447">
        <ele>1884.8</ele>
        <time>2013-09-12T08:18:21Z</time>
      </trkpt>
      <trkpt lat="42.460641833022237" lon="13.536384869366884">
        <ele>1886.24</ele>
        <time>2013-09-12T08:18:52Z</time>
      </trkpt>
      <trkpt lat="42.460627164691687" lon="13.536390149965882">
        <ele>1886.72</ele>
        <time>2013-09-12T08:19:14Z</time>
      </trkpt>
      <trkpt lat="42.460628002882004" lon="13.536403561010957">
        <ele>1886.24</ele>
        <time>2013-09-12T08:19:32Z</time>
      </trkpt>
      <trkpt lat="42.460629846900702" lon="13.536407584324479">
        <ele>1885.76</ele>
        <time>2013-09-12T08:20:03Z</time>
      </trkpt>
      <trkpt lat="42.460624063387513" lon="13.536393335089087">
        <ele>1886.72</ele>
        <time>2013-09-12T08:20:21Z</time>
      </trkpt>
      <trkpt lat="42.460628589615226" lon="13.536389730870724">
        <ele>1890.0899999999999</ele>
        <time>2013-09-12T08:20:32Z</time>
      </trkpt>
      <trkpt lat="42.460627667605877" lon="13.536386294290423">
        <ele>1886.24</ele>
        <time>2013-09-12T08:20:34Z</time>
      </trkpt>
      <trkpt lat="42.460631942376494" lon="13.536392664536834">
        <ele>1887.21</ele>
        <time>2013-09-12T08:20:38Z</time>
      </trkpt>
      <trkpt lat="42.460643425583839" lon="13.536387216299772">
        <ele>1882.4000000000001</ele>
        <time>2013-09-12T08:20:46Z</time>
      </trkpt>
      <trkpt lat="42.460642503574491" lon="13.536395765841007">
        <ele>1882.8800000000001</ele>
        <time>2013-09-12T08:20:47Z</time>
      </trkpt>
      <trkpt lat="42.460641413927078" lon="13.536406327039003">
        <ele>1885.28</ele>
        <time>2013-09-12T08:20:50Z</time>
      </trkpt>
      <trkpt lat="42.460636468604207" lon="13.536370201036334">
        <ele>1883.8399999999999</ele>
        <time>2013-09-12T08:21:14Z</time>
      </trkpt>
      <trkpt lat="42.46063613332808" lon="13.536359556019306">
        <ele>1884.8</ele>
        <time>2013-09-12T08:21:16Z</time>
      </trkpt>
      <trkpt lat="42.460655411705375" lon="13.536360142752528">
        <ele>1882.8800000000001</ele>
        <time>2013-09-12T08:21:19Z</time>
      </trkpt>
      <trkpt lat="42.460715929046273" lon="13.53641546331346">
        <ele>1882.4000000000001</ele>
        <time>2013-09-12T08:21:31Z</time>
      </trkpt>
      <trkpt lat="42.460739146918058" lon="13.536416804417968">
        <ele>1885.28</ele>
        <time>2013-09-12T08:21:34Z</time>
      </trkpt>
      <trkpt lat="42.460761358961463" lon="13.536417055875063">
        <ele>1884.3199999999999</ele>
        <time>2013-09-12T08:21:36Z</time>
      </trkpt>
      <trkpt lat="42.460788516327739" lon="13.536423426121473">
        <ele>1882.8800000000001</ele>
        <time>2013-09-12T08:21:38Z</time>
      </trkpt>
      <trkpt lat="42.460907287895679" lon="13.536503305658698">
        <ele>1881.9200000000001</ele>
        <time>2013-09-12T08:21:50Z</time>
      </trkpt>
      <trkpt lat="42.460922710597515" lon="13.536499533802271">
        <ele>1881.9200000000001</ele>
        <time>2013-09-12T08:21:51Z</time>
      </trkpt>
      <trkpt lat="42.461107280105352" lon="13.536560302600265">
        <ele>1880.96</ele>
        <time>2013-09-12T08:22:08Z</time>
      </trkpt>
      <trkpt lat="42.461182298138738" lon="13.536588884890079">
        <ele>1879.51</ele>
        <time>2013-09-12T08:22:14Z</time>
      </trkpt>
      <trkpt lat="42.461223788559437" lon="13.536599362269044">
        <ele>1879.03</ele>
        <time>2013-09-12T08:22:18Z</time>
      </trkpt>
      <trkpt lat="42.46133535169065" lon="13.536643115803599">
        <ele>1877.5899999999999</ele>
        <time>2013-09-12T08:22:28Z</time>
      </trkpt>
      <trkpt lat="42.461465271189809" lon="13.536694329231977">
        <ele>1876.1500000000001</ele>
        <time>2013-09-12T08:22:39Z</time>
      </trkpt>
      <trkpt lat="42.461563423275948" lon="13.536729449406266">
        <ele>1875.6700000000001</ele>
        <time>2013-09-12T08:22:48Z</time>
      </trkpt>
      <trkpt lat="42.461657552048564" lon="13.536812430247664">
        <ele>1874.23</ele>
        <time>2013-09-12T08:22:58Z</time>
      </trkpt>
      <trkpt lat="42.461726199835539" lon="13.536832882091403">
        <ele>1873.27</ele>
        <time>2013-09-12T08:23:04Z</time>
      </trkpt>
      <trkpt lat="42.461837846785784" lon="13.536858865991235">
        <ele>1870.3800000000001</ele>
        <time>2013-09-12T08:23:14Z</time>
      </trkpt>
      <trkpt lat="42.461861819028854" lon="13.536853333935142">
        <ele>1869.4200000000001</ele>
        <time>2013-09-12T08:23:16Z</time>
      </trkpt>
      <trkpt lat="42.461885707452893" lon="13.536843359470367">
        <ele>1872.3</ele>
        <time>2013-09-12T08:23:18Z</time>
      </trkpt>
      <trkpt lat="42.461895095184445" lon="13.53684201836586">
        <ele>1872.3</ele>
        <time>2013-09-12T08:23:19Z</time>
      </trkpt>
      <trkpt lat="42.461931388825178" lon="13.536884849891067">
        <ele>1870.8599999999999</ele>
        <time>2013-09-12T08:23:23Z</time>
      </trkpt>
      <trkpt lat="42.461935915052891" lon="13.536896333098412">
        <ele>1870.8599999999999</ele>
        <time>2013-09-12T08:23:24Z</time>
      </trkpt>
      <trkpt lat="42.46197497472167" lon="13.536918377503753">
        <ele>1866.54</ele>
        <time>2013-09-12T08:23:28Z</time>
      </trkpt>
      <trkpt lat="42.462001126259565" lon="13.53692265227437">
        <ele>1869.9000000000001</ele>
        <time>2013-09-12T08:23:30Z</time>
      </trkpt>
      <trkpt lat="42.462013280019164" lon="13.536922316998243">
        <ele>1869.9000000000001</ele>
        <time>2013-09-12T08:23:31Z</time>
      </trkpt>
      <trkpt lat="42.462202124297619" lon="13.537027426064014">
        <ele>1872.79</ele>
        <time>2013-09-12T08:23:48Z</time>
      </trkpt>
      <trkpt lat="42.462323326617479" lon="13.537063552066684">
        <ele>1868.46</ele>
        <time>2013-09-12T08:23:59Z</time>
      </trkpt>
      <trkpt lat="42.462334893643856" lon="13.537064725533128">
        <ele>1868.46</ele>
        <time>2013-09-12T08:24:00Z</time>
      </trkpt>
      <trkpt lat="42.462398763746023" lon="13.537076711654663">
        <ele>1866.54</ele>
        <time>2013-09-12T08:24:06Z</time>
      </trkpt>
      <trkpt lat="42.462440337985754" lon="13.537103114649653">
        <ele>1865.5799999999999</ele>
        <time>2013-09-12T08:24:10Z</time>
      </trkpt>
      <trkpt lat="42.46258576400578" lon="13.537173271179199">
        <ele>1865.5799999999999</ele>
        <time>2013-09-12T08:24:23Z</time>
      </trkpt>
      <trkpt lat="42.462613340467215" lon="13.537193890661001">
        <ele>1864.6099999999999</ele>
        <time>2013-09-12T08:24:26Z</time>
      </trkpt>
      <trkpt lat="42.462637647986412" lon="13.537226747721434">
        <ele>1863.6500000000001</ele>
        <time>2013-09-12T08:24:29Z</time>
      </trkpt>
      <trkpt lat="42.462753485888243" lon="13.537285001948476">
        <ele>1866.0599999999999</ele>
        <time>2013-09-12T08:24:42Z</time>
      </trkpt>
      <trkpt lat="42.46278366073966" lon="13.537294557318091">
        <ele>1864.6099999999999</ele>
        <time>2013-09-12T08:24:45Z</time>
      </trkpt>
      <trkpt lat="42.462807213887572" lon="13.537306794896722">
        <ele>1862.21</ele>
        <time>2013-09-12T08:24:47Z</time>
      </trkpt>
      <trkpt lat="42.462857840582728" lon="13.537343172356486">
        <ele>1861.73</ele>
        <time>2013-09-12T08:24:52Z</time>
      </trkpt>
      <trkpt lat="42.462898325175047" lon="13.53734677657485">
        <ele>1864.6099999999999</ele>
        <time>2013-09-12T08:24:56Z</time>
      </trkpt>
      <trkpt lat="42.462918693199754" lon="13.537360187619925">
        <ele>1865.5799999999999</ele>
        <time>2013-09-12T08:24:58Z</time>
      </trkpt>
      <trkpt lat="42.462939312681556" lon="13.537368904799223">
        <ele>1864.1300000000001</ele>
        <time>2013-09-12T08:25:00Z</time>
      </trkpt>
      <trkpt lat="42.462995555251837" lon="13.537387093529105">
        <ele>1864.6099999999999</ele>
        <time>2013-09-12T08:25:05Z</time>
      </trkpt>
      <trkpt lat="42.463131509721279" lon="13.537472169846296">
        <ele>1866.0599999999999</ele>
        <time>2013-09-12T08:25:22Z</time>
      </trkpt>
      <trkpt lat="42.463134527206421" lon="13.537484994158149">
        <ele>1864.1300000000001</ele>
        <time>2013-09-12T08:25:33Z</time>
      </trkpt>
      <trkpt lat="42.463208371773362" lon="13.537481725215912">
        <ele>1864.1300000000001</ele>
        <time>2013-09-12T08:25:42Z</time>
      </trkpt>
      <trkpt lat="42.463357485830784" lon="13.537539979442954">
        <ele>1862.21</ele>
        <time>2013-09-12T08:25:55Z</time>
      </trkpt>
      <trkpt lat="42.463497798889875" lon="13.537567555904388">
        <ele>1864.1300000000001</ele>
        <time>2013-09-12T08:26:08Z</time>
      </trkpt>
      <trkpt lat="42.463614223524928" lon="13.537617009133101">
        <ele>1860.77</ele>
        <time>2013-09-12T08:26:20Z</time>
      </trkpt>
      <trkpt lat="42.463622689247131" lon="13.53761893697083">
        <ele>1861.25</ele>
        <time>2013-09-12T08:26:21Z</time>
      </trkpt>
      <trkpt lat="42.463700724765658" lon="13.53762237355113">
        <ele>1864.1300000000001</ele>
        <time>2013-09-12T08:26:29Z</time>
      </trkpt>
      <trkpt lat="42.463851515203714" lon="13.537644669413567">
        <ele>1866.54</ele>
        <time>2013-09-12T08:26:46Z</time>
      </trkpt>
      <trkpt lat="42.463870877400041" lon="13.537640729919076">
        <ele>1865.0899999999999</ele>
        <time>2013-09-12T08:26:48Z</time>
      </trkpt>
      <trkpt lat="42.463924940675497" lon="13.537654560059309">
        <ele>1863.1700000000001</ele>
        <time>2013-09-12T08:26:54Z</time>
      </trkpt>
      <trkpt lat="42.46406240388751" lon="13.537689093500376">
        <ele>1864.1300000000001</ele>
        <time>2013-09-12T08:27:07Z</time>
      </trkpt>
      <trkpt lat="42.464134907349944" lon="13.537801494821906">
        <ele>1863.6500000000001</ele>
        <time>2013-09-12T08:27:17Z</time>
      </trkpt>
      <trkpt lat="42.464203806594014" lon="13.537833597511053">
        <ele>1862.21</ele>
        <time>2013-09-12T08:27:24Z</time>
      </trkpt>
      <trkpt lat="42.464386867359281" lon="13.537916745990515">
        <ele>1859.3299999999999</ele>
        <time>2013-09-12T08:27:42Z</time>
      </trkpt>
      <trkpt lat="42.46439709328115" lon="13.537920769304037">
        <ele>1859.3299999999999</ele>
        <time>2013-09-12T08:27:43Z</time>
      </trkpt>
      <trkpt lat="42.46444059535861" lon="13.537922780960798">
        <ele>1859.3299999999999</ele>
        <time>2013-09-12T08:27:47Z</time>
      </trkpt>
      <trkpt lat="42.464542351663113" lon="13.537922529503703">
        <ele>1860.29</ele>
        <time>2013-09-12T08:28:00Z</time>
      </trkpt>
      <trkpt lat="42.464554337784648" lon="13.537919344380498">
        <ele>1860.77</ele>
        <time>2013-09-12T08:28:16Z</time>
      </trkpt>
      <trkpt lat="42.464683502912521" lon="13.538012132048607">
        <ele>1857.8900000000001</ele>
        <time>2013-09-12T08:28:30Z</time>
      </trkpt>
      <trkpt lat="42.464690962806344" lon="13.538013640791178">
        <ele>1857.8900000000001</ele>
        <time>2013-09-12T08:28:31Z</time>
      </trkpt>
      <trkpt lat="42.464783750474453" lon="13.53803719393909">
        <ele>1855.48</ele>
        <time>2013-09-12T08:28:41Z</time>
      </trkpt>
      <trkpt lat="42.464839071035385" lon="13.538078851997852">
        <ele>1855</ele>
        <time>2013-09-12T08:28:47Z</time>
      </trkpt>
      <trkpt lat="42.464961363002658" lon="13.538113050162792">
        <ele>1853.0799999999999</ele>
        <time>2013-09-12T08:29:01Z</time>
      </trkpt>
      <trkpt lat="42.464990112930536" lon="13.538112631067634">
        <ele>1855.48</ele>
        <time>2013-09-12T08:29:04Z</time>
      </trkpt>
      <trkpt lat="42.46501718647778" lon="13.538114642724395">
        <ele>1852.5999999999999</ele>
        <time>2013-09-12T08:29:07Z</time>
      </trkpt>
      <trkpt lat="42.465046439319849" lon="13.538141967728734">
        <ele>1850.6800000000001</ele>
        <time>2013-09-12T08:29:10Z</time>
      </trkpt>
      <trkpt lat="42.465079464018345" lon="13.53815596550703">
        <ele>1850.1900000000001</ele>
        <time>2013-09-12T08:29:13Z</time>
      </trkpt>
      <trkpt lat="42.465178370475769" lon="13.538143057376146">
        <ele>1845.3900000000001</ele>
        <time>2013-09-12T08:29:22Z</time>
      </trkpt>
      <trkpt lat="42.465245006605983" lon="13.538139704614878">
        <ele>1842.98</ele>
        <time>2013-09-12T08:29:29Z</time>
      </trkpt>
      <trkpt lat="42.465341063216329" lon="13.538129730150104">
        <ele>1840.0999999999999</ele>
        <time>2013-09-12T08:29:38Z</time>
      </trkpt>
      <trkpt lat="42.465411135926843" lon="13.538125455379486">
        <ele>1839.1400000000001</ele>
        <time>2013-09-12T08:29:44Z</time>
      </trkpt>
      <trkpt lat="42.465461762621999" lon="13.538119755685329">
        <ele>1837.7</ele>
        <time>2013-09-12T08:29:49Z</time>
      </trkpt>
      <trkpt lat="42.465639878064394" lon="13.53811145760119">
        <ele>1833.8499999999999</ele>
        <time>2013-09-12T08:30:05Z</time>
      </trkpt>
      <trkpt lat="42.465811958536506" lon="13.538084216415882">
        <ele>1830.97</ele>
        <time>2013-09-12T08:30:21Z</time>
      </trkpt>
      <trkpt lat="42.465832075104117" lon="13.538078516721725">
        <ele>1830.97</ele>
        <time>2013-09-12T08:30:23Z</time>
      </trkpt>
      <trkpt lat="42.465891418978572" lon="13.538073739036918">
        <ele>1830.49</ele>
        <time>2013-09-12T08:30:28Z</time>
      </trkpt>
      <trkpt lat="42.466058302670717" lon="13.5380694642663">
        <ele>1827.1199999999999</ele>
        <time>2013-09-12T08:30:45Z</time>
      </trkpt>
      <trkpt lat="42.466149413958192" lon="13.538086311891675">
        <ele>1824.24</ele>
        <time>2013-09-12T08:30:55Z</time>
      </trkpt>
      <trkpt lat="42.466191239655018" lon="13.538082456216216">
        <ele>1821.8399999999999</ele>
        <time>2013-09-12T08:30:59Z</time>
      </trkpt>
      <trkpt lat="42.466273214668036" lon="13.538105841726065">
        <ele>1819.9100000000001</ele>
        <time>2013-09-12T08:31:07Z</time>
      </trkpt>
      <trkpt lat="42.46637798845768" lon="13.538131909444928">
        <ele>1817.03</ele>
        <time>2013-09-12T08:31:18Z</time>
      </trkpt>
      <trkpt lat="42.466419981792569" lon="13.538126461207867">
        <ele>1815.1099999999999</ele>
        <time>2013-09-12T08:31:22Z</time>
      </trkpt>
      <trkpt lat="42.466487707570195" lon="13.538153618574142">
        <ele>1812.7</ele>
        <time>2013-09-12T08:31:30Z</time>
      </trkpt>
      <trkpt lat="42.46658124960959" lon="13.538242382928729">
        <ele>1810.3</ele>
        <time>2013-09-12T08:31:46Z</time>
      </trkpt>
      <trkpt lat="42.466624667868018" lon="13.538298541679978">
        <ele>1810.78</ele>
        <time>2013-09-12T08:31:59Z</time>
      </trkpt>
      <trkpt lat="42.466703122481704" lon="13.538326537236571">
        <ele>1810.3</ele>
        <time>2013-09-12T08:32:10Z</time>
      </trkpt>
      <trkpt lat="42.46675324626267" lon="13.538321759551764">
        <ele>1810.3</ele>
        <time>2013-09-12T08:32:14Z</time>
      </trkpt>
      <trkpt lat="42.466805465519428" lon="13.538353107869625">
        <ele>1809.8199999999999</ele>
        <time>2013-09-12T08:32:19Z</time>
      </trkpt>
      <trkpt lat="42.466859025880694" lon="13.538362495601177">
        <ele>1807.4200000000001</ele>
        <time>2013-09-12T08:32:24Z</time>
      </trkpt>
      <trkpt lat="42.466881657019258" lon="13.538394765928388">
        <ele>1805.01</ele>
        <time>2013-09-12T08:32:27Z</time>
      </trkpt>
      <trkpt lat="42.466897498816252" lon="13.538439022377133">
        <ele>1800.6900000000001</ele>
        <time>2013-09-12T08:32:31Z</time>
      </trkpt>
      <trkpt lat="42.466907221823931" lon="13.538477076217532">
        <ele>1797.3199999999999</ele>
        <time>2013-09-12T08:32:35Z</time>
      </trkpt>
      <trkpt lat="42.467016605660319" lon="13.538510855287313">
        <ele>1797.8</ele>
        <time>2013-09-12T08:32:46Z</time>
      </trkpt>
      <trkpt lat="42.467043930664659" lon="13.538515632972121">
        <ele>1798.76</ele>
        <time>2013-09-12T08:32:49Z</time>
      </trkpt>
      <trkpt lat="42.467190865427256" lon="13.538541365414858">
        <ele>1799.73</ele>
        <time>2013-09-12T08:33:03Z</time>
      </trkpt>
      <trkpt lat="42.467206874862313" lon="13.538559386506677">
        <ele>1801.6500000000001</ele>
        <time>2013-09-12T08:33:09Z</time>
      </trkpt>
      <trkpt lat="42.467325562611222" lon="13.53861085139215">
        <ele>1799.73</ele>
        <time>2013-09-12T08:33:21Z</time>
      </trkpt>
      <trkpt lat="42.467372165992856" lon="13.53863088414073">
        <ele>1801.1700000000001</ele>
        <time>2013-09-12T08:33:25Z</time>
      </trkpt>
      <trkpt lat="42.467418601736426" lon="13.538653599098325">
        <ele>1803.5699999999999</ele>
        <time>2013-09-12T08:33:30Z</time>
      </trkpt>
      <trkpt lat="42.467506276443601" lon="13.538625435903668">
        <ele>1804.05</ele>
        <time>2013-09-12T08:33:39Z</time>
      </trkpt>
      <trkpt lat="42.467565955594182" lon="13.538624010980129">
        <ele>1799.24</ele>
        <time>2013-09-12T08:33:46Z</time>
      </trkpt>
      <trkpt lat="42.467585988342762" lon="13.538614036515355">
        <ele>1798.28</ele>
        <time>2013-09-12T08:33:48Z</time>
      </trkpt>
      <trkpt lat="42.467601411044598" lon="13.538608672097325">
        <ele>1797.8</ele>
        <time>2013-09-12T08:33:50Z</time>
      </trkpt>
      <trkpt lat="42.467690762132406" lon="13.538642032071948">
        <ele>1794.4400000000001</ele>
        <time>2013-09-12T08:33:59Z</time>
      </trkpt>
      <trkpt lat="42.467696294188499" lon="13.538637422025204">
        <ele>1794.9200000000001</ele>
        <time>2013-09-12T08:34:00Z</time>
      </trkpt>
      <trkpt lat="42.467729151248932" lon="13.538660388439894">
        <ele>1794.9200000000001</ele>
        <time>2013-09-12T08:34:05Z</time>
      </trkpt>
      <trkpt lat="42.467748932540417" lon="13.538661645725369">
        <ele>1793.96</ele>
        <time>2013-09-12T08:34:07Z</time>
      </trkpt>
      <trkpt lat="42.467814730480313" lon="13.538753343746066">
        <ele>1792.52</ele>
        <time>2013-09-12T08:34:17Z</time>
      </trkpt>
      <trkpt lat="42.467862004414201" lon="13.53877941146493">
        <ele>1791.55</ele>
        <time>2013-09-12T08:34:22Z</time>
      </trkpt>
      <trkpt lat="42.467966191470623" lon="13.538826769217849">
        <ele>1788.1900000000001</ele>
        <time>2013-09-12T08:34:33Z</time>
      </trkpt>
      <trkpt lat="42.468053698539734" lon="13.538869014009833">
        <ele>1784.8199999999999</ele>
        <time>2013-09-12T08:34:41Z</time>
      </trkpt>
      <trkpt lat="42.468081442639232" lon="13.538887705653906">
        <ele>1783.8599999999999</ele>
        <time>2013-09-12T08:34:44Z</time>
      </trkpt>
      <trkpt lat="42.468203231692314" lon="13.53893824853003">
        <ele>1780.5</ele>
        <time>2013-09-12T08:34:57Z</time>
      </trkpt>
      <trkpt lat="42.468221336603165" lon="13.538950737565756">
        <ele>1779.54</ele>
        <time>2013-09-12T08:34:59Z</time>
      </trkpt>
      <trkpt lat="42.468301132321358" lon="13.538989126682281">
        <ele>1778.5799999999999</ele>
        <time>2013-09-12T08:35:07Z</time>
      </trkpt>
      <trkpt lat="42.468419652432203" lon="13.539084931835532">
        <ele>1782.4200000000001</ele>
        <time>2013-09-12T08:35:22Z</time>
      </trkpt>
      <trkpt lat="42.468414707109332" lon="13.539076633751392">
        <ele>1782.4200000000001</ele>
        <time>2013-09-12T08:35:23Z</time>
      </trkpt>
      <trkpt lat="42.468434907495975" lon="13.539085770025849">
        <ele>1780.02</ele>
        <time>2013-09-12T08:35:30Z</time>
      </trkpt>
      <trkpt lat="42.468461897224188" lon="13.539094738662243">
        <ele>1780.5</ele>
        <time>2013-09-12T08:35:33Z</time>
      </trkpt>
      <trkpt lat="42.468535741791129" lon="13.539105132222176">
        <ele>1777.6099999999999</ele>
        <time>2013-09-12T08:35:39Z</time>
      </trkpt>
      <trkpt lat="42.468569772318006" lon="13.539121896028519">
        <ele>1776.1700000000001</ele>
        <time>2013-09-12T08:35:42Z</time>
      </trkpt>
      <trkpt lat="42.468580668792129" lon="13.539130110293627">
        <ele>1775.21</ele>
        <time>2013-09-12T08:35:43Z</time>
      </trkpt>
      <trkpt lat="42.468642946332693" lon="13.539186017587781">
        <ele>1772.8099999999999</ele>
        <time>2013-09-12T08:35:50Z</time>
      </trkpt>
      <trkpt lat="42.4687116779387" lon="13.539223484694958">
        <ele>1772.8099999999999</ele>
        <time>2013-09-12T08:35:56Z</time>
      </trkpt>
      <trkpt lat="42.468800190836191" lon="13.539276625961065">
        <ele>1771.8499999999999</ele>
        <time>2013-09-12T08:36:04Z</time>
      </trkpt>
      <trkpt lat="42.468920471146703" lon="13.539290623739362">
        <ele>1770.4100000000001</ele>
        <time>2013-09-12T08:36:15Z</time>
      </trkpt>
      <trkpt lat="42.468968331813812" lon="13.539311494678259">
        <ele>1770.8900000000001</ele>
        <time>2013-09-12T08:36:20Z</time>
      </trkpt>
      <trkpt lat="42.46902197599411" lon="13.539384165778756">
        <ele>1768.96</ele>
        <time>2013-09-12T08:36:27Z</time>
      </trkpt>
      <trkpt lat="42.469036728143692" lon="13.539395900443196">
        <ele>1769.4400000000001</ele>
        <time>2013-09-12T08:36:29Z</time>
      </trkpt>
      <trkpt lat="42.46911434456706" lon="13.539409311488271">
        <ele>1768</ele>
        <time>2013-09-12T08:36:36Z</time>
      </trkpt>
      <trkpt lat="42.469259267672896" lon="13.539446359500289">
        <ele>1767.04</ele>
        <time>2013-09-12T08:36:52Z</time>
      </trkpt>
      <trkpt lat="42.469295226037502" lon="13.539431104436517">
        <ele>1766.5599999999999</ele>
        <time>2013-09-12T08:36:56Z</time>
      </trkpt>
      <trkpt lat="42.469390528276563" lon="13.539452059194446">
        <ele>1763.6800000000001</ele>
        <time>2013-09-12T08:37:05Z</time>
      </trkpt>
      <trkpt lat="42.469384996220469" lon="13.539449879899621">
        <ele>1767.04</ele>
        <time>2013-09-12T08:37:14Z</time>
      </trkpt>
      <trkpt lat="42.469382314011455" lon="13.539453065022826">
        <ele>1766.5599999999999</ele>
        <time>2013-09-12T08:37:15Z</time>
      </trkpt>
      <trkpt lat="42.469380469992757" lon="13.539455914869905">
        <ele>1764.6400000000001</ele>
        <time>2013-09-12T08:37:16Z</time>
      </trkpt>
      <trkpt lat="42.469379799440503" lon="13.539453148841858">
        <ele>1763.2</ele>
        <time>2013-09-12T08:37:17Z</time>
      </trkpt>
      <trkpt lat="42.469441825523973" lon="13.539469074457884">
        <ele>1766.5599999999999</ele>
        <time>2013-09-12T08:37:26Z</time>
      </trkpt>
      <trkpt lat="42.469455068930984" lon="13.539469912648201">
        <ele>1766.5599999999999</ele>
        <time>2013-09-12T08:37:28Z</time>
      </trkpt>
      <trkpt lat="42.469487171620131" lon="13.539486927911639">
        <ele>1762.23</ele>
        <time>2013-09-12T08:37:31Z</time>
      </trkpt>
      <trkpt lat="42.469503683969378" lon="13.539528418332338">
        <ele>1763.6800000000001</ele>
        <time>2013-09-12T08:37:36Z</time>
      </trkpt>
      <trkpt lat="42.469673417508602" lon="13.539581559598446">
        <ele>1761.75</ele>
        <time>2013-09-12T08:37:56Z</time>
      </trkpt>
      <trkpt lat="42.469776598736644" lon="13.539613746106625">
        <ele>1765.1199999999999</ele>
        <time>2013-09-12T08:38:08Z</time>
      </trkpt>
      <trkpt lat="42.469785986468196" lon="13.539618356153369">
        <ele>1764.6400000000001</ele>
        <time>2013-09-12T08:38:09Z</time>
      </trkpt>
      <trkpt lat="42.469840385019779" lon="13.539665127173066">
        <ele>1767.04</ele>
        <time>2013-09-12T08:38:16Z</time>
      </trkpt>
      <trkpt lat="42.469961754977703" lon="13.539742240682244">
        <ele>1766.0799999999999</ele>
        <time>2013-09-12T08:38:33Z</time>
      </trkpt>
      <trkpt lat="42.469979021698236" lon="13.539747437462211">
        <ele>1766.0799999999999</ele>
        <time>2013-09-12T08:38:50Z</time>
      </trkpt>
      <trkpt lat="42.470025457441807" lon="13.539854725822806">
        <ele>1765.1199999999999</ele>
        <time>2013-09-12T08:39:07Z</time>
      </trkpt>
      <trkpt lat="42.470056554302573" lon="13.539858916774392">
        <ele>1764.1600000000001</ele>
        <time>2013-09-12T08:39:10Z</time>
      </trkpt>
      <trkpt lat="42.470350340008736" lon="13.539949357509613">
        <ele>1761.75</ele>
        <time>2013-09-12T08:39:38Z</time>
      </trkpt>
      <trkpt lat="42.470533149316907" lon="13.540087407454848">
        <ele>1759.8299999999999</ele>
        <time>2013-09-12T08:39:56Z</time>
      </trkpt>
      <trkpt lat="42.47060221619904" lon="13.540117833763361">
        <ele>1759.3499999999999</ele>
        <time>2013-09-12T08:40:05Z</time>
      </trkpt>
      <trkpt lat="42.470671618357301" lon="13.540116744115949">
        <ele>1757.4300000000001</ele>
        <time>2013-09-12T08:40:11Z</time>
      </trkpt>
      <trkpt lat="42.47072434052825" lon="13.540122779086232">
        <ele>1755.99</ele>
        <time>2013-09-12T08:40:16Z</time>
      </trkpt>
      <trkpt lat="42.470752419903874" lon="13.540140800178051">
        <ele>1754.0599999999999</ele>
        <time>2013-09-12T08:40:19Z</time>
      </trkpt>
      <trkpt lat="42.470848308876157" lon="13.54010165669024">
        <ele>1754.54</ele>
        <time>2013-09-12T08:40:28Z</time>
      </trkpt>
      <trkpt lat="42.470888709649444" lon="13.540116576477885">
        <ele>1753.5799999999999</ele>
        <time>2013-09-12T08:40:32Z</time>
      </trkpt>
      <trkpt lat="42.470906227827072" lon="13.54011339135468">
        <ele>1755.99</ele>
        <time>2013-09-12T08:40:34Z</time>
      </trkpt>
      <trkpt lat="42.470981748774648" lon="13.540154630318284">
        <ele>1754.54</ele>
        <time>2013-09-12T08:40:42Z</time>
      </trkpt>
      <trkpt lat="42.471091551706195" lon="13.540103500708938">
        <ele>1755.5</ele>
        <time>2013-09-12T08:40:53Z</time>
      </trkpt>
      <trkpt lat="42.471216693520546" lon="13.540216907858849">
        <ele>1751.6600000000001</ele>
        <time>2013-09-12T08:41:07Z</time>
      </trkpt>
      <trkpt lat="42.471247790381312" lon="13.540229899808764">
        <ele>1751.1800000000001</ele>
        <time>2013-09-12T08:41:10Z</time>
      </trkpt>
      <trkpt lat="42.471271762624383" lon="13.540303744375706">
        <ele>1751.6600000000001</ele>
        <time>2013-09-12T08:41:16Z</time>
      </trkpt>
      <trkpt lat="42.47124033048749" lon="13.540328135713935">
        <ele>1749.26</ele>
        <time>2013-09-12T08:41:20Z</time>
      </trkpt>
      <trkpt lat="42.471250556409359" lon="13.540410194545984">
        <ele>1751.6600000000001</ele>
        <time>2013-09-12T08:41:29Z</time>
      </trkpt>
      <trkpt lat="42.471253909170628" lon="13.540419498458505">
        <ele>1749.74</ele>
        <time>2013-09-12T08:41:30Z</time>
      </trkpt>
      <trkpt lat="42.471266649663448" lon="13.540463587269187">
        <ele>1748.29</ele>
        <time>2013-09-12T08:41:33Z</time>
      </trkpt>
      <trkpt lat="42.471304032951593" lon="13.540511028841138">
        <ele>1744.45</ele>
        <time>2013-09-12T08:41:39Z</time>
      </trkpt>
      <trkpt lat="42.471356838941574" lon="13.540533743798733">
        <ele>1741.5699999999999</ele>
        <time>2013-09-12T08:41:47Z</time>
      </trkpt>
      <trkpt lat="42.471378715708852" lon="13.54055704548955">
        <ele>1738.6800000000001</ele>
        <time>2013-09-12T08:41:50Z</time>
      </trkpt>
      <trkpt lat="42.471472509205341" lon="13.540613623335958">
        <ele>1735.3199999999999</ele>
        <time>2013-09-12T08:42:01Z</time>
      </trkpt>
      <trkpt lat="42.47147929854691" lon="13.540623346343637">
        <ele>1734.8399999999999</ele>
        <time>2013-09-12T08:42:02Z</time>
      </trkpt>
      <trkpt lat="42.471497822552919" lon="13.54065477848053">
        <ele>1734.3599999999999</ele>
        <time>2013-09-12T08:42:05Z</time>
      </trkpt>
      <trkpt lat="42.471577115356922" lon="13.540708925575018">
        <ele>1733.3900000000001</ele>
        <time>2013-09-12T08:42:13Z</time>
      </trkpt>
      <trkpt lat="42.471672920510173" lon="13.540782434865832">
        <ele>1730.03</ele>
        <time>2013-09-12T08:42:27Z</time>
      </trkpt>
      <trkpt lat="42.471736874431372" lon="13.540802383795381">
        <ele>1728.5899999999999</ele>
        <time>2013-09-12T08:42:34Z</time>
      </trkpt>
      <trkpt lat="42.471785908564925" lon="13.540920400992036">
        <ele>1726.1800000000001</ele>
        <time>2013-09-12T08:42:46Z</time>
      </trkpt>
      <trkpt lat="42.471853299066424" lon="13.541007488965988">
        <ele>1724.26</ele>
        <time>2013-09-12T08:42:56Z</time>
      </trkpt>
      <trkpt lat="42.471898980438709" lon="13.54119130410254">
        <ele>1720.4200000000001</ele>
        <time>2013-09-12T08:43:11Z</time>
      </trkpt>
      <trkpt lat="42.471890933811665" lon="13.54119960218668">
        <ele>1720.9000000000001</ele>
        <time>2013-09-12T08:43:12Z</time>
      </trkpt>
      <trkpt lat="42.471850952133536" lon="13.541304040700197">
        <ele>1718.49</ele>
        <time>2013-09-12T08:43:23Z</time>
      </trkpt>
      <trkpt lat="42.471947595477104" lon="13.541338741779327">
        <ele>1718.97</ele>
        <time>2013-09-12T08:43:31Z</time>
      </trkpt>
      <trkpt lat="42.472053878009319" lon="13.541420800611377">
        <ele>1716.5699999999999</ele>
        <time>2013-09-12T08:43:44Z</time>
      </trkpt>
      <trkpt lat="42.472087237983942" lon="13.541392721235752">
        <ele>1717.05</ele>
        <time>2013-09-12T08:43:48Z</time>
      </trkpt>
      <trkpt lat="42.47210961766541" lon="13.541363552212715">
        <ele>1717.05</ele>
        <time>2013-09-12T08:43:51Z</time>
      </trkpt>
      <trkpt lat="42.472256887704134" lon="13.541353829205036">
        <ele>1713.21</ele>
        <time>2013-09-12T08:44:04Z</time>
      </trkpt>
      <trkpt lat="42.472280692309141" lon="13.541350811719894">
        <ele>1712.73</ele>
        <time>2013-09-12T08:44:06Z</time>
      </trkpt>
      <trkpt lat="42.472441289573908" lon="13.541347710415721">
        <ele>1711.28</ele>
        <time>2013-09-12T08:44:20Z</time>
      </trkpt>
      <trkpt lat="42.472529718652368" lon="13.541359361261129">
        <ele>1711.28</ele>
        <time>2013-09-12T08:44:32Z</time>
      </trkpt>
      <trkpt lat="42.472536424174905" lon="13.541359193623066">
        <ele>1713.21</ele>
        <time>2013-09-12T08:44:48Z</time>
      </trkpt>
      <trkpt lat="42.472539693117142" lon="13.541355757042766">
        <ele>1711.76</ele>
        <time>2013-09-12T08:45:11Z</time>
      </trkpt>
      <trkpt lat="42.472490491345525" lon="13.541338490322232">
        <ele>1711.28</ele>
        <time>2013-09-12T08:45:25Z</time>
      </trkpt>
      <trkpt lat="42.472493592649698" lon="13.541332287713885">
        <ele>1709.3599999999999</ele>
        <time>2013-09-12T08:45:31Z</time>
      </trkpt>
      <trkpt lat="42.472488060593605" lon="13.541322061792016">
        <ele>1710.8</ele>
        <time>2013-09-12T08:45:34Z</time>
      </trkpt>
      <trkpt lat="42.472476745024323" lon="13.541317619383335">
        <ele>1712.25</ele>
        <time>2013-09-12T08:45:45Z</time>
      </trkpt>
      <trkpt lat="42.4725073389709" lon="13.541336730122566">
        <ele>1710.3199999999999</ele>
        <time>2013-09-12T08:46:06Z</time>
      </trkpt>
      <trkpt lat="42.472497448325157" lon="13.541342597454786">
        <ele>1711.76</ele>
        <time>2013-09-12T08:46:28Z</time>
      </trkpt>
      <trkpt lat="42.472502393648028" lon="13.541364390403032">
        <ele>1711.76</ele>
        <time>2013-09-12T08:46:47Z</time>
      </trkpt>
      <trkpt lat="42.472510440275073" lon="13.541362294927239">
        <ele>1710.8</ele>
        <time>2013-09-12T08:47:11Z</time>
      </trkpt>
      <trkpt lat="42.472504153847694" lon="13.541378136724234">
        <ele>1709.3599999999999</ele>
        <time>2013-09-12T08:47:25Z</time>
      </trkpt>
      <trkpt lat="42.472494933754206" lon="13.541367575526237">
        <ele>1711.28</ele>
        <time>2013-09-12T08:47:41Z</time>
      </trkpt>
      <trkpt lat="42.472506584599614" lon="13.541364977136254">
        <ele>1708.8800000000001</ele>
        <time>2013-09-12T08:47:56Z</time>
      </trkpt>
      <trkpt lat="42.472491078078747" lon="13.541380651295185">
        <ele>1712.25</ele>
        <time>2013-09-12T08:48:08Z</time>
      </trkpt>
      <trkpt lat="42.472480265423656" lon="13.541379645466805">
        <ele>1709.3599999999999</ele>
        <time>2013-09-12T08:48:27Z</time>
      </trkpt>
      <trkpt lat="42.472483199089766" lon="13.541384004056454">
        <ele>1710.8</ele>
        <time>2013-09-12T08:48:29Z</time>
      </trkpt>
      <trkpt lat="42.472509350627661" lon="13.541390290483832">
        <ele>1713.6900000000001</ele>
        <time>2013-09-12T08:48:35Z</time>
      </trkpt>
      <trkpt lat="42.47255964204669" lon="13.541402360424399">
        <ele>1714.1700000000001</ele>
        <time>2013-09-12T08:48:41Z</time>
      </trkpt>
      <trkpt lat="42.472626697272062" lon="13.541437899693847">
        <ele>1710.3199999999999</ele>
        <time>2013-09-12T08:48:49Z</time>
      </trkpt>
      <trkpt lat="42.472664332017303" lon="13.541467571631074">
        <ele>1709.3599999999999</ele>
        <time>2013-09-12T08:48:53Z</time>
      </trkpt>
      <trkpt lat="42.472733817994595" lon="13.541488274931908">
        <ele>1706.96</ele>
        <time>2013-09-12T08:49:04Z</time>
      </trkpt>
      <trkpt lat="42.472781427204609" lon="13.54151819832623">
        <ele>1705.52</ele>
        <time>2013-09-12T08:49:09Z</time>
      </trkpt>
      <trkpt lat="42.472945628687739" lon="13.541557090356946">
        <ele>1702.1500000000001</ele>
        <time>2013-09-12T08:49:25Z</time>
      </trkpt>
      <trkpt lat="42.472973540425301" lon="13.541553486138582">
        <ele>1702.1500000000001</ele>
        <time>2013-09-12T08:49:28Z</time>
      </trkpt>
      <trkpt lat="42.473096502944827" lon="13.541500177234411">
        <ele>1698.3099999999999</ele>
        <time>2013-09-12T08:49:41Z</time>
      </trkpt>
      <trkpt lat="42.473153164610267" lon="13.541498919948936">
        <ele>1696.8599999999999</ele>
        <time>2013-09-12T08:49:47Z</time>
      </trkpt>
      <trkpt lat="42.473199432715774" lon="13.541480144485831">
        <ele>1694.9400000000001</ele>
        <time>2013-09-12T08:49:52Z</time>
      </trkpt>
      <trkpt lat="42.473306134343147" lon="13.54147813282907">
        <ele>1693.02</ele>
        <time>2013-09-12T08:50:02Z</time>
      </trkpt>
      <trkpt lat="42.473315689712763" lon="13.541481737047434">
        <ele>1693.5</ele>
        <time>2013-09-12T08:50:03Z</time>
      </trkpt>
      <trkpt lat="42.473394311964512" lon="13.541577961295843">
        <ele>1690.6199999999999</ele>
        <time>2013-09-12T08:50:13Z</time>
      </trkpt>
      <trkpt lat="42.473447117954493" lon="13.541599167510867">
        <ele>1690.1400000000001</ele>
        <time>2013-09-12T08:50:18Z</time>
      </trkpt>
      <trkpt lat="42.473467318341136" lon="13.541655242443085">
        <ele>1690.1400000000001</ele>
        <time>2013-09-12T08:50:22Z</time>
      </trkpt>
      <trkpt lat="42.473551472648978" lon="13.541669324040413">
        <ele>1688.6900000000001</ele>
        <time>2013-09-12T08:50:34Z</time>
      </trkpt>
      <trkpt lat="42.473617689684033" lon="13.541692374274135">
        <ele>1687.25</ele>
        <time>2013-09-12T08:50:42Z</time>
      </trkpt>
      <trkpt lat="42.473714919760823" lon="13.541771415621042">
        <ele>1685.3299999999999</ele>
        <time>2013-09-12T08:50:54Z</time>
      </trkpt>
      <trkpt lat="42.473836457356811" lon="13.541827825829387">
        <ele>1681.96</ele>
        <time>2013-09-12T08:51:08Z</time>
      </trkpt>
      <trkpt lat="42.473854729905725" lon="13.541825143620372">
        <ele>1681.48</ele>
        <time>2013-09-12T08:51:11Z</time>
      </trkpt>
      <trkpt lat="42.473882893100381" lon="13.541817348450422">
        <ele>1680.52</ele>
        <time>2013-09-12T08:51:14Z</time>
      </trkpt>
      <trkpt lat="42.473931591957808" lon="13.541831932961941">
        <ele>1679.5599999999999</ele>
        <time>2013-09-12T08:51:19Z</time>
      </trkpt>
      <trkpt lat="42.473991187289357" lon="13.541839057579637">
        <ele>1677.6400000000001</ele>
        <time>2013-09-12T08:51:25Z</time>
      </trkpt>
      <trkpt lat="42.474111383780837" lon="13.541884068399668">
        <ele>1675.23</ele>
        <time>2013-09-12T08:51:39Z</time>
      </trkpt>
      <trkpt lat="42.474175421521068" lon="13.54187442921102">
        <ele>1673.79</ele>
        <time>2013-09-12T08:51:53Z</time>
      </trkpt>
      <trkpt lat="42.474298300221562" lon="13.541954895481467">
        <ele>1670.4300000000001</ele>
        <time>2013-09-12T08:52:05Z</time>
      </trkpt>
      <trkpt lat="42.474303161725402" lon="13.541954224929214">
        <ele>1669.95</ele>
        <time>2013-09-12T08:52:06Z</time>
      </trkpt>
      <trkpt lat="42.474423693493009" lon="13.541950117796659">
        <ele>1667.54</ele>
        <time>2013-09-12T08:52:19Z</time>
      </trkpt>
      <trkpt lat="42.474478678777814" lon="13.541918769478798">
        <ele>1665.1400000000001</ele>
        <time>2013-09-12T08:52:32Z</time>
      </trkpt>
      <trkpt lat="42.474519079551101" lon="13.541969479992986">
        <ele>1664.6600000000001</ele>
        <time>2013-09-12T08:52:44Z</time>
      </trkpt>
      <trkpt lat="42.474534334614873" lon="13.541982974857092">
        <ele>1664.1800000000001</ele>
        <time>2013-09-12T08:52:58Z</time>
      </trkpt>
      <trkpt lat="42.474562162533402" lon="13.541940143331885">
        <ele>1664.1800000000001</ele>
        <time>2013-09-12T08:53:11Z</time>
      </trkpt>
      <trkpt lat="42.474571382626891" lon="13.541935533285141">
        <ele>1664.1800000000001</ele>
        <time>2013-09-12T08:53:13Z</time>
      </trkpt>
      <trkpt lat="42.47460700571537" lon="13.541957410052419">
        <ele>1662.26</ele>
        <time>2013-09-12T08:53:18Z</time>
      </trkpt>
      <trkpt lat="42.4747159704566" lon="13.541962942108512">
        <ele>1660.8099999999999</ele>
        <time>2013-09-12T08:53:32Z</time>
      </trkpt>
      <trkpt lat="42.474744720384479" lon="13.541960762813687">
        <ele>1660.8099999999999</ele>
        <time>2013-09-12T08:53:35Z</time>
      </trkpt>
      <trkpt lat="42.474855864420533" lon="13.541953722015023">
        <ele>1658.4100000000001</ele>
        <time>2013-09-12T08:53:49Z</time>
      </trkpt>
      <trkpt lat="42.474928451701999" lon="13.541955230757594">
        <ele>1655.53</ele>
        <time>2013-09-12T08:53:56Z</time>
      </trkpt>
      <trkpt lat="42.474996596574783" lon="13.541942741721869">
        <ele>1652.1600000000001</ele>
        <time>2013-09-12T08:54:04Z</time>
      </trkpt>
      <trkpt lat="42.47501009143889" lon="13.541926816105843">
        <ele>1653.1199999999999</ele>
        <time>2013-09-12T08:54:07Z</time>
      </trkpt>
      <trkpt lat="42.475034231320024" lon="13.541886499151587">
        <ele>1652.1600000000001</ele>
        <time>2013-09-12T08:54:11Z</time>
      </trkpt>
      <trkpt lat="42.475166581571102" lon="13.54184559546411">
        <ele>1652.1600000000001</ele>
        <time>2013-09-12T08:54:27Z</time>
      </trkpt>
      <trkpt lat="42.475235648453236" lon="13.541848780587316">
        <ele>1650.72</ele>
        <time>2013-09-12T08:54:40Z</time>
      </trkpt>
      <trkpt lat="42.475239587947726" lon="13.541854228824377">
        <ele>1650.72</ele>
        <time>2013-09-12T08:54:46Z</time>
      </trkpt>
      <trkpt lat="42.475248808041215" lon="13.541849115863442">
        <ele>1651.2</ele>
        <time>2013-09-12T08:54:50Z</time>
      </trkpt>
      <trkpt lat="42.475285353139043" lon="13.541827406734228">
        <ele>1651.6800000000001</ele>
        <time>2013-09-12T08:55:08Z</time>
      </trkpt>
      <trkpt lat="42.475324999541044" lon="13.541813073679805">
        <ele>1652.1600000000001</ele>
        <time>2013-09-12T08:55:22Z</time>
      </trkpt>
      <trkpt lat="42.47533849440515" lon="13.541826065629721">
        <ele>1652.1600000000001</ele>
        <time>2013-09-12T08:55:40Z</time>
      </trkpt>
      <trkpt lat="42.475345367565751" lon="13.541826484724879">
        <ele>1650.72</ele>
        <time>2013-09-12T08:56:01Z</time>
      </trkpt>
      <trkpt lat="42.475347630679607" lon="13.541822712868452">
        <ele>1650.72</ele>
        <time>2013-09-12T08:56:22Z</time>
      </trkpt>
      <trkpt lat="42.475357772782445" lon="13.541818438097835">
        <ele>1650.72</ele>
        <time>2013-09-12T08:56:47Z</time>
      </trkpt>
      <trkpt lat="42.475400101393461" lon="13.541809218004346">
        <ele>1650.72</ele>
        <time>2013-09-12T08:57:15Z</time>
      </trkpt>
      <trkpt lat="42.475402364507318" lon="13.541815839707851">
        <ele>1650.24</ele>
        <time>2013-09-12T08:57:37Z</time>
      </trkpt>
      <trkpt lat="42.475417368113995" lon="13.541777869686484">
        <ele>1650.72</ele>
        <time>2013-09-12T08:57:57Z</time>
      </trkpt>
      <trkpt lat="42.475436478853226" lon="13.54176395572722">
        <ele>1649.76</ele>
        <time>2013-09-12T08:58:00Z</time>
      </trkpt>
      <trkpt lat="42.47553781606257" lon="13.541760602965951">
        <ele>1646.8800000000001</ele>
        <time>2013-09-12T08:58:11Z</time>
      </trkpt>
      <trkpt lat="42.475697156041861" lon="13.541764207184315">
        <ele>1645.4300000000001</ele>
        <time>2013-09-12T08:58:27Z</time>
      </trkpt>
      <trkpt lat="42.475812155753374" lon="13.541731685400009">
        <ele>1643.51</ele>
        <time>2013-09-12T08:58:38Z</time>
      </trkpt>
      <trkpt lat="42.47598540969193" lon="13.541687009856105">
        <ele>1640.1500000000001</ele>
        <time>2013-09-12T08:58:54Z</time>
      </trkpt>
      <trkpt lat="42.476084902882576" lon="13.541658762842417">
        <ele>1640.1500000000001</ele>
        <time>2013-09-12T08:59:04Z</time>
      </trkpt>
      <trkpt lat="42.476128069683909" lon="13.541657840833068">
        <ele>1639.6700000000001</ele>
        <time>2013-09-12T08:59:08Z</time>
      </trkpt>
      <trkpt lat="42.476291181519628" lon="13.541649207472801">
        <ele>1639.1900000000001</ele>
        <time>2013-09-12T08:59:25Z</time>
      </trkpt>
      <trkpt lat="42.4763616733253" lon="13.541637388989329">
        <ele>1637.74</ele>
        <time>2013-09-12T08:59:39Z</time>
      </trkpt>
      <trkpt lat="42.476381119340658" lon="13.541631102561951">
        <ele>1639.1900000000001</ele>
        <time>2013-09-12T08:59:42Z</time>
      </trkpt>
      <trkpt lat="42.476412383839488" lon="13.541626911610365">
        <ele>1641.1099999999999</ele>
        <time>2013-09-12T08:59:47Z</time>
      </trkpt>
      <trkpt lat="42.47644079849124" lon="13.541625151410699">
        <ele>1639.1900000000001</ele>
        <time>2013-09-12T08:59:50Z</time>
      </trkpt>
      <trkpt lat="42.476489329710603" lon="13.541588857769966">
        <ele>1636.78</ele>
        <time>2013-09-12T08:59:57Z</time>
      </trkpt>
      <trkpt lat="42.476616399362683" lon="13.541594138368964">
        <ele>1635.3399999999999</ele>
        <time>2013-09-12T09:00:11Z</time>
      </trkpt>
      <trkpt lat="42.476701056584716" lon="13.541613835841417">
        <ele>1635.3399999999999</ele>
        <time>2013-09-12T09:00:22Z</time>
      </trkpt>
      <trkpt lat="42.4767623282969" lon="13.541615176945925">
        <ele>1634.3800000000001</ele>
        <time>2013-09-12T09:00:28Z</time>
      </trkpt>
      <trkpt lat="42.476797280833125" lon="13.541593635454774">
        <ele>1633.4200000000001</ele>
        <time>2013-09-12T09:00:32Z</time>
      </trkpt>
      <trkpt lat="42.476865509524941" lon="13.541615344583988">
        <ele>1632.46</ele>
        <time>2013-09-12T09:00:39Z</time>
      </trkpt>
      <trkpt lat="42.476889481768012" lon="13.541636047884822">
        <ele>1631.49</ele>
        <time>2013-09-12T09:00:42Z</time>
      </trkpt>
      <trkpt lat="42.476906413212419" lon="13.541637137532234">
        <ele>1630.53</ele>
        <time>2013-09-12T09:00:44Z</time>
      </trkpt>
      <trkpt lat="42.476927200332284" lon="13.541630767285824">
        <ele>1630.53</ele>
        <time>2013-09-12T09:00:46Z</time>
      </trkpt>
      <trkpt lat="42.477059382945299" lon="13.541621882468462">
        <ele>1627.1700000000001</ele>
        <time>2013-09-12T09:01:00Z</time>
      </trkpt>
      <trkpt lat="42.477214196696877" lon="13.541603107005358">
        <ele>1624.77</ele>
        <time>2013-09-12T09:01:14Z</time>
      </trkpt>
      <trkpt lat="42.477407399564981" lon="13.541665133088827">
        <ele>1622.3599999999999</ele>
        <time>2013-09-12T09:01:30Z</time>
      </trkpt>
      <trkpt lat="42.477531619369984" lon="13.54167309589684">
        <ele>1620.9200000000001</ele>
        <time>2013-09-12T09:01:41Z</time>
      </trkpt>
      <trkpt lat="42.477684253826737" lon="13.541657254099846">
        <ele>1620.9200000000001</ele>
        <time>2013-09-12T09:01:55Z</time>
      </trkpt>
      <trkpt lat="42.477852562442422" lon="13.54170486330986">
        <ele>1621.4000000000001</ele>
        <time>2013-09-12T09:02:13Z</time>
      </trkpt>
      <trkpt lat="42.477910732850432" lon="13.541720034554601">
        <ele>1620.9200000000001</ele>
        <time>2013-09-12T09:02:24Z</time>
      </trkpt>
      <trkpt lat="42.477916684001684" lon="13.541716849431396">
        <ele>1621.8800000000001</ele>
        <time>2013-09-12T09:02:39Z</time>
      </trkpt>
      <trkpt lat="42.477912241593003" lon="13.54171902872622">
        <ele>1623.3199999999999</ele>
        <time>2013-09-12T09:02:57Z</time>
      </trkpt>
      <trkpt lat="42.477917857468128" lon="13.541706036776304">
        <ele>1625.25</ele>
        <time>2013-09-12T09:03:00Z</time>
      </trkpt>
      <trkpt lat="42.477960772812366" lon="13.541691536083817">
        <ele>1623.3199999999999</ele>
        <time>2013-09-12T09:03:23Z</time>
      </trkpt>
      <trkpt lat="42.478015339002013" lon="13.541702264919877">
        <ele>1621.8800000000001</ele>
        <time>2013-09-12T09:03:33Z</time>
      </trkpt>
      <trkpt lat="42.478102007880807" lon="13.541725901886821">
        <ele>1620.9200000000001</ele>
        <time>2013-09-12T09:03:48Z</time>
      </trkpt>
      <trkpt lat="42.478143917396665" lon="13.541719280183315">
        <ele>1620.4400000000001</ele>
        <time>2013-09-12T09:03:53Z</time>
      </trkpt>
      <trkpt lat="42.478162441402674" lon="13.541726404801011">
        <ele>1620.4400000000001</ele>
        <time>2013-09-12T09:03:55Z</time>
      </trkpt>
      <trkpt lat="42.478355392813683" lon="13.541783904656768">
        <ele>1618.52</ele>
        <time>2013-09-12T09:04:12Z</time>
      </trkpt>
      <trkpt lat="42.47837383300066" lon="13.541794968768954">
        <ele>1618.04</ele>
        <time>2013-09-12T09:04:14Z</time>
      </trkpt>
      <trkpt lat="42.478513391688466" lon="13.541814330965281">
        <ele>1617.5599999999999</ele>
        <time>2013-09-12T09:04:27Z</time>
      </trkpt>
      <trkpt lat="42.478620847687125" lon="13.541860431432724">
        <ele>1617.0699999999999</ele>
        <time>2013-09-12T09:04:38Z</time>
      </trkpt>
      <trkpt lat="42.478674408048391" lon="13.541846098378301">
        <ele>1617.0699999999999</ele>
        <time>2013-09-12T09:04:43Z</time>
      </trkpt>
      <trkpt lat="42.47878085821867" lon="13.541815252974629">
        <ele>1615.6300000000001</ele>
        <time>2013-09-12T09:04:54Z</time>
      </trkpt>
      <trkpt lat="42.478873645886779" lon="13.541814079508185">
        <ele>1616.1099999999999</ele>
        <time>2013-09-12T09:05:03Z</time>
      </trkpt>
      <trkpt lat="42.478955201804638" lon="13.541898988187313">
        <ele>1614.1900000000001</ele>
        <time>2013-09-12T09:05:12Z</time>
      </trkpt>
      <trkpt lat="42.479069363325834" lon="13.541958499699831">
        <ele>1612.75</ele>
        <time>2013-09-12T09:05:23Z</time>
      </trkpt>
      <trkpt lat="42.479117223992944" lon="13.541968390345573">
        <ele>1612.27</ele>
        <time>2013-09-12T09:05:27Z</time>
      </trkpt>
      <trkpt lat="42.479175059124827" lon="13.542043659836054">
        <ele>1611.3099999999999</ele>
        <time>2013-09-12T09:05:40Z</time>
      </trkpt>
      <trkpt lat="42.479186207056046" lon="13.542048102244735">
        <ele>1611.3099999999999</ele>
        <time>2013-09-12T09:05:41Z</time>
      </trkpt>
      <trkpt lat="42.479214873164892" lon="13.542094370350242">
        <ele>1611.79</ele>
        <time>2013-09-12T09:05:45Z</time>
      </trkpt>
      <trkpt lat="42.479228703305125" lon="13.542117169126868">
        <ele>1611.3099999999999</ele>
        <time>2013-09-12T09:05:47Z</time>
      </trkpt>
      <trkpt lat="42.479276563972235" lon="13.542140638455749">
        <ele>1610.8299999999999</ele>
        <time>2013-09-12T09:05:52Z</time>
      </trkpt>
      <trkpt lat="42.479323921725154" lon="13.542201407253742">
        <ele>1609.8599999999999</ele>
        <time>2013-09-12T09:05:58Z</time>
      </trkpt>
      <trkpt lat="42.479372369125485" lon="13.542247507721186">
        <ele>1609.3800000000001</ele>
        <time>2013-09-12T09:06:10Z</time>
      </trkpt>
      <trkpt lat="42.479374129325151" lon="13.542249016463757">
        <ele>1608.9000000000001</ele>
        <time>2013-09-12T09:06:12Z</time>
      </trkpt>
      <trkpt lat="42.479494074359536" lon="13.542349599301815">
        <ele>1606.02</ele>
        <time>2013-09-12T09:06:25Z</time>
      </trkpt>
      <trkpt lat="42.479585520923138" lon="13.542318418622017">
        <ele>1605.0599999999999</ele>
        <time>2013-09-12T09:06:36Z</time>
      </trkpt>
      <trkpt lat="42.479632627218962" lon="13.542445152997971">
        <ele>1606.02</ele>
        <time>2013-09-12T09:06:47Z</time>
      </trkpt>
      <trkpt lat="42.479731114581227" lon="13.542418163269758">
        <ele>1604.0999999999999</ele>
        <time>2013-09-12T09:07:00Z</time>
      </trkpt>
      <trkpt lat="42.47976497747004" lon="13.542380444705486">
        <ele>1603.1400000000001</ele>
        <time>2013-09-12T09:07:05Z</time>
      </trkpt>
      <trkpt lat="42.479792218655348" lon="13.542376002296805">
        <ele>1603.1400000000001</ele>
        <time>2013-09-12T09:07:09Z</time>
      </trkpt>
      <trkpt lat="42.479855166748166" lon="13.542406177148223">
        <ele>1600.25</ele>
        <time>2013-09-12T09:07:18Z</time>
      </trkpt>
      <trkpt lat="42.479858184233308" lon="13.542395029217005">
        <ele>1599.77</ele>
        <time>2013-09-12T09:07:19Z</time>
      </trkpt>
      <trkpt lat="42.479897076264024" lon="13.542392179369926">
        <ele>1599.29</ele>
        <time>2013-09-12T09:07:23Z</time>
      </trkpt>
      <trkpt lat="42.479909146204591" lon="13.542393185198307">
        <ele>1599.77</ele>
        <time>2013-09-12T09:07:24Z</time>
      </trkpt>
      <trkpt lat="42.479978716000915" lon="13.542340882122517">
        <ele>1599.29</ele>
        <time>2013-09-12T09:07:38Z</time>
      </trkpt>
      <trkpt lat="42.480018362402916" lon="13.542371224611998">
        <ele>1599.29</ele>
        <time>2013-09-12T09:07:49Z</time>
      </trkpt>
      <trkpt lat="42.48008499853313" lon="13.542387317866087">
        <ele>1598.3299999999999</ele>
        <time>2013-09-12T09:08:01Z</time>
      </trkpt>
      <trkpt lat="42.480132104828954" lon="13.542410032823682">
        <ele>1596.4100000000001</ele>
        <time>2013-09-12T09:08:13Z</time>
      </trkpt>
      <trkpt lat="42.480184910818934" lon="13.542453115805984">
        <ele>1594.96</ele>
        <time>2013-09-12T09:08:25Z</time>
      </trkpt>
      <trkpt lat="42.480197232216597" lon="13.542452277615666">
        <ele>1595.45</ele>
        <time>2013-09-12T09:08:29Z</time>
      </trkpt>
      <trkpt lat="42.480219611898065" lon="13.542437190189958">
        <ele>1594.96</ele>
        <time>2013-09-12T09:08:32Z</time>
      </trkpt>
      <trkpt lat="42.480271244421601" lon="13.542434340342879">
        <ele>1593.04</ele>
        <time>2013-09-12T09:08:42Z</time>
      </trkpt>
      <trkpt lat="42.480320697650313" lon="13.542479015886784">
        <ele>1592.0799999999999</ele>
        <time>2013-09-12T09:08:56Z</time>
      </trkpt>
      <trkpt lat="42.480390770360827" lon="13.542440207675099">
        <ele>1591.1199999999999</ele>
        <time>2013-09-12T09:09:02Z</time>
      </trkpt>
      <trkpt lat="42.480462100356817" lon="13.542504664510489">
        <ele>1589.6800000000001</ele>
        <time>2013-09-12T09:09:15Z</time>
      </trkpt>
      <trkpt lat="42.480479786172509" lon="13.542514890432358">
        <ele>1588.72</ele>
        <time>2013-09-12T09:09:18Z</time>
      </trkpt>
      <trkpt lat="42.480602832511067" lon="13.542494019493461">
        <ele>1586.3099999999999</ele>
        <time>2013-09-12T09:09:31Z</time>
      </trkpt>
      <trkpt lat="42.48064105398953" lon="13.542554872110486">
        <ele>1585.8299999999999</ele>
        <time>2013-09-12T09:09:39Z</time>
      </trkpt>
      <trkpt lat="42.480698889121413" lon="13.542591752484441">
        <ele>1585.8299999999999</ele>
        <time>2013-09-12T09:09:45Z</time>
      </trkpt>
      <trkpt lat="42.48072998598218" lon="13.542579095810652">
        <ele>1587.27</ele>
        <time>2013-09-12T09:09:48Z</time>
      </trkpt>
      <trkpt lat="42.480755718424916" lon="13.542577503249049">
        <ele>1585.8299999999999</ele>
        <time>2013-09-12T09:09:51Z</time>
      </trkpt>
      <trkpt lat="42.480826294049621" lon="13.542632656171918">
        <ele>1584.3900000000001</ele>
        <time>2013-09-12T09:09:59Z</time>
      </trkpt>
      <trkpt lat="42.480953279882669" lon="13.542656293138862">
        <ele>1582.95</ele>
        <time>2013-09-12T09:10:12Z</time>
      </trkpt>
      <trkpt lat="42.480987226590514" lon="13.542645145207644">
        <ele>1581.03</ele>
        <time>2013-09-12T09:10:16Z</time>
      </trkpt>
      <trkpt lat="42.48105688020587" lon="13.542678337544203">
        <ele>1580.0599999999999</ele>
        <time>2013-09-12T09:10:25Z</time>
      </trkpt>
      <trkpt lat="42.481168862432241" lon="13.542727623134851">
        <ele>1578.1400000000001</ele>
        <time>2013-09-12T09:10:39Z</time>
      </trkpt>
      <trkpt lat="42.481242706999183" lon="13.542769784107804">
        <ele>1574.78</ele>
        <time>2013-09-12T09:10:53Z</time>
      </trkpt>
      <trkpt lat="42.48138427734375" lon="13.542810520157218">
        <ele>1572.3699999999999</ele>
        <time>2013-09-12T09:11:09Z</time>
      </trkpt>
      <trkpt lat="42.481397269293666" lon="13.54280523955822">
        <ele>1571.8900000000001</ele>
        <time>2013-09-12T09:11:25Z</time>
      </trkpt>
      <trkpt lat="42.481541940942407" lon="13.542794762179255">
        <ele>1569.01</ele>
        <time>2013-09-12T09:11:36Z</time>
      </trkpt>
      <trkpt lat="42.481672111898661" lon="13.542787134647369">
        <ele>1567.0899999999999</ele>
        <time>2013-09-12T09:11:46Z</time>
      </trkpt>
      <trkpt lat="42.481755008921027" lon="13.542846729978919">
        <ele>1565.1600000000001</ele>
        <time>2013-09-12T09:12:01Z</time>
      </trkpt>
      <trkpt lat="42.481756517663598" lon="13.542875731363893">
        <ele>1566.1199999999999</ele>
        <time>2013-09-12T09:12:05Z</time>
      </trkpt>
      <trkpt lat="42.481767414137721" lon="13.542869696393609">
        <ele>1563.24</ele>
        <time>2013-09-12T09:12:20Z</time>
      </trkpt>
      <trkpt lat="42.481841007247567" lon="13.542894003912807">
        <ele>1562.76</ele>
        <time>2013-09-12T09:12:33Z</time>
      </trkpt>
      <trkpt lat="42.481874199584126" lon="13.542899955064058">
        <ele>1563.24</ele>
        <time>2013-09-12T09:12:36Z</time>
      </trkpt>
      <trkpt lat="42.48189439997077" lon="13.542942199856043">
        <ele>1563.72</ele>
        <time>2013-09-12T09:12:52Z</time>
      </trkpt>
      <trkpt lat="42.481873948127031" lon="13.542974889278412">
        <ele>1563.24</ele>
        <time>2013-09-12T09:13:07Z</time>
      </trkpt>
      <trkpt lat="42.481862884014845" lon="13.542985199019313">
        <ele>1561.8</ele>
        <time>2013-09-12T09:13:25Z</time>
      </trkpt>
      <trkpt lat="42.481861375272274" lon="13.542990982532501">
        <ele>1562.76</ele>
        <time>2013-09-12T09:13:50Z</time>
      </trkpt>
      <trkpt lat="42.481890628114343" lon="13.542936919257045">
        <ele>1562.76</ele>
        <time>2013-09-12T09:14:10Z</time>
      </trkpt>
      <trkpt lat="42.481875708326697" lon="13.542922083288431">
        <ele>1562.28</ele>
        <time>2013-09-12T09:14:28Z</time>
      </trkpt>
      <trkpt lat="42.481891214847565" lon="13.542936500161886">
        <ele>1562.28</ele>
        <time>2013-09-12T09:14:34Z</time>
      </trkpt>
      <trkpt lat="42.481896663084626" lon="13.542981594800949">
        <ele>1562.28</ele>
        <time>2013-09-12T09:14:37Z</time>
      </trkpt>
      <trkpt lat="42.481909822672606" lon="13.543007578700781">
        <ele>1562.28</ele>
        <time>2013-09-12T09:14:39Z</time>
      </trkpt>
      <trkpt lat="42.481942092999816" lon="13.543049739673734">
        <ele>1562.28</ele>
        <time>2013-09-12T09:14:52Z</time>
      </trkpt>
      <trkpt lat="42.481972938403487" lon="13.542968854308128">
        <ele>1562.76</ele>
        <time>2013-09-12T09:15:07Z</time>
      </trkpt>
      <trkpt lat="42.481961958110332" lon="13.542944462969899">
        <ele>1560.8399999999999</ele>
        <time>2013-09-12T09:15:12Z</time>
      </trkpt>
      <trkpt lat="42.481962125748396" lon="13.542907917872071">
        <ele>1563.72</ele>
        <time>2013-09-12T09:15:18Z</time>
      </trkpt>
      <trkpt lat="42.481963215395808" lon="13.542956532910466">
        <ele>1564.2</ele>
        <time>2013-09-12T09:15:40Z</time>
      </trkpt>
      <trkpt lat="42.481968495994806" lon="13.542965166270733">
        <ele>1562.76</ele>
        <time>2013-09-12T09:15:59Z</time>
      </trkpt>
      <trkpt lat="42.48198140412569" lon="13.542968854308128">
        <ele>1562.76</ele>
        <time>2013-09-12T09:16:23Z</time>
      </trkpt>
      <trkpt lat="42.481971262022853" lon="13.542966255918145">
        <ele>1562.76</ele>
        <time>2013-09-12T09:16:45Z</time>
      </trkpt>
      <trkpt lat="42.481978889554739" lon="13.542955946177244">
        <ele>1562.28</ele>
        <time>2013-09-12T09:17:07Z</time>
      </trkpt>
      <trkpt lat="42.481963383033872" lon="13.542980756610632">
        <ele>1563.72</ele>
        <time>2013-09-12T09:17:30Z</time>
      </trkpt>
      <trkpt lat="42.481964472681284" lon="13.54299140162766">
        <ele>1562.76</ele>
        <time>2013-09-12T09:17:35Z</time>
      </trkpt>
      <trkpt lat="42.481970004737377" lon="13.542980588972569">
        <ele>1562.28</ele>
        <time>2013-09-12T09:17:53Z</time>
      </trkpt>
      <trkpt lat="42.481958437711" lon="13.542988216504455">
        <ele>1565.1600000000001</ele>
        <time>2013-09-12T09:18:10Z</time>
      </trkpt>
      <trkpt lat="42.481958186253905" lon="13.542987713590264">
        <ele>1563.24</ele>
        <time>2013-09-12T09:18:12Z</time>
      </trkpt>
      <trkpt lat="42.481946786865592" lon="13.542993748560548">
        <ele>1562.28</ele>
        <time>2013-09-12T09:18:29Z</time>
      </trkpt>
      <trkpt lat="42.481947960332036" lon="13.542993413284421">
        <ele>1560.8399999999999</ele>
        <time>2013-09-12T09:18:33Z</time>
      </trkpt>
      <trkpt lat="42.481959024444222" lon="13.542982265353203">
        <ele>1562.76</ele>
        <time>2013-09-12T09:18:50Z</time>
      </trkpt>
      <trkpt lat="42.481965562328696" lon="13.54297966696322">
        <ele>1563.72</ele>
        <time>2013-09-12T09:19:16Z</time>
      </trkpt>
      <trkpt lat="42.481964305043221" lon="13.542973464354873">
        <ele>1562.76</ele>
        <time>2013-09-12T09:19:42Z</time>
      </trkpt>
      <trkpt lat="42.481982996687293" lon="13.542973296716809">
        <ele>1563.24</ele>
        <time>2013-09-12T09:19:56Z</time>
      </trkpt>
      <trkpt lat="42.481987103819847" lon="13.542984696105123">
        <ele>1562.76</ele>
        <time>2013-09-12T09:20:13Z</time>
      </trkpt>
      <trkpt lat="42.482022978365421" lon="13.542993078008294">
        <ele>1562.76</ele>
        <time>2013-09-12T09:20:28Z</time>
      </trkpt>
      <trkpt lat="42.482005963101983" lon="13.542986707761884">
        <ele>1561.8</ele>
        <time>2013-09-12T09:20:43Z</time>
      </trkpt>
      <trkpt lat="42.482019877061248" lon="13.54298260062933">
        <ele>1561.3199999999999</ele>
        <time>2013-09-12T09:21:04Z</time>
      </trkpt>
      <trkpt lat="42.482019206508994" lon="13.54299483820796">
        <ele>1562.76</ele>
        <time>2013-09-12T09:21:21Z</time>
      </trkpt>
      <trkpt lat="42.482014764100313" lon="13.543001124635339">
        <ele>1562.28</ele>
        <time>2013-09-12T09:21:28Z</time>
      </trkpt>
      <trkpt lat="42.481960449367762" lon="13.543019145727158">
        <ele>1561.3199999999999</ele>
        <time>2013-09-12T09:22:05Z</time>
      </trkpt>
      <trkpt lat="42.481966316699982" lon="13.543024845421314">
        <ele>1560.3599999999999</ele>
        <time>2013-09-12T09:22:37Z</time>
      </trkpt>
      <trkpt lat="42.482043178752065" lon="13.54302853345871">
        <ele>1560.8399999999999</ele>
        <time>2013-09-12T09:22:54Z</time>
      </trkpt>
      <trkpt lat="42.482084920629859" lon="13.542987545952201">
        <ele>1559.8800000000001</ele>
        <time>2013-09-12T09:23:13Z</time>
      </trkpt>
      <trkpt lat="42.482110150158405" lon="13.542997855693102">
        <ele>1559.8800000000001</ele>
        <time>2013-09-12T09:23:19Z</time>
      </trkpt>
      <trkpt lat="42.482121801003814" lon="13.542993748560548">
        <ele>1558.9200000000001</ele>
        <time>2013-09-12T09:23:21Z</time>
      </trkpt>
      <trkpt lat="42.48226479627192" lon="13.543032640591264">
        <ele>1558.4300000000001</ele>
        <time>2013-09-12T09:23:36Z</time>
      </trkpt>
      <trkpt lat="42.482393039390445" lon="13.543026521801949">
        <ele>1555.55</ele>
        <time>2013-09-12T09:23:49Z</time>
      </trkpt>
      <trkpt lat="42.482524970546365" lon="13.543015290051699">
        <ele>1553.6300000000001</ele>
        <time>2013-09-12T09:24:03Z</time>
      </trkpt>
      <trkpt lat="42.482546847313643" lon="13.543003303930163">
        <ele>1552.1900000000001</ele>
        <time>2013-09-12T09:24:05Z</time>
      </trkpt>
      <trkpt lat="42.482720771804452" lon="13.542996263131499">
        <ele>1549.3</ele>
        <time>2013-09-12T09:24:21Z</time>
      </trkpt>
      <trkpt lat="42.482807356864214" lon="13.542982432991266">
        <ele>1547.3800000000001</ele>
        <time>2013-09-12T09:24:30Z</time>
      </trkpt>
      <trkpt lat="42.482838118448853" lon="13.542985115200281">
        <ele>1545.9400000000001</ele>
        <time>2013-09-12T09:24:33Z</time>
      </trkpt>
      <trkpt lat="42.482939371839166" lon="13.542954521253705">
        <ele>1544.98</ele>
        <time>2013-09-12T09:24:44Z</time>
      </trkpt>
      <trkpt lat="42.483080606907606" lon="13.542884364724159">
        <ele>1544.01</ele>
        <time>2013-09-12T09:24:57Z</time>
      </trkpt>
      <trkpt lat="42.483143555000424" lon="13.542897021397948">
        <ele>1540.6500000000001</ele>
        <time>2013-09-12T09:25:04Z</time>
      </trkpt>
      <trkpt lat="42.483153864741325" lon="13.542898530140519">
        <ele>1540.1700000000001</ele>
        <time>2013-09-12T09:25:05Z</time>
      </trkpt>
      <trkpt lat="42.483277078717947" lon="13.542871791869402">
        <ele>1537.29</ele>
        <time>2013-09-12T09:25:16Z</time>
      </trkpt>
      <trkpt lat="42.483412278816104" lon="13.542846562340856">
        <ele>1533.9200000000001</ele>
        <time>2013-09-12T09:25:29Z</time>
      </trkpt>
      <trkpt lat="42.483429713174701" lon="13.542840695008636">
        <ele>1533.4400000000001</ele>
        <time>2013-09-12T09:25:31Z</time>
      </trkpt>
      <trkpt lat="42.483461983501911" lon="13.542822254821658">
        <ele>1532.48</ele>
        <time>2013-09-12T09:25:35Z</time>
      </trkpt>
      <trkpt lat="42.483509592711926" lon="13.542816387489438">
        <ele>1531.04</ele>
        <time>2013-09-12T09:25:40Z</time>
      </trkpt>
      <trkpt lat="42.483623754233122" lon="13.542773304507136">
        <ele>1527.6700000000001</ele>
        <time>2013-09-12T09:25:53Z</time>
      </trkpt>
      <trkpt lat="42.483631800860167" lon="13.542770454660058">
        <ele>1527.1900000000001</ele>
        <time>2013-09-12T09:25:54Z</time>
      </trkpt>
      <trkpt lat="42.483780579641461" lon="13.542777914553881">
        <ele>1524.79</ele>
        <time>2013-09-12T09:26:08Z</time>
      </trkpt>
      <trkpt lat="42.483837157487869" lon="13.542765509337187">
        <ele>1522.8699999999999</ele>
        <time>2013-09-12T09:26:13Z</time>
      </trkpt>
      <trkpt lat="42.483871607109904" lon="13.542761234566569">
        <ele>1522.3900000000001</ele>
        <time>2013-09-12T09:26:16Z</time>
      </trkpt>
      <trkpt lat="42.483939249068499" lon="13.542727036401629">
        <ele>1521.4200000000001</ele>
        <time>2013-09-12T09:26:22Z</time>
      </trkpt>
      <trkpt lat="42.484105126932263" lon="13.542740698903799">
        <ele>1517.5799999999999</ele>
        <time>2013-09-12T09:26:37Z</time>
      </trkpt>
      <trkpt lat="42.484139828011394" lon="13.542738268151879">
        <ele>1517.0999999999999</ele>
        <time>2013-09-12T09:26:41Z</time>
      </trkpt>
      <trkpt lat="42.484279051423073" lon="13.542748913168907">
        <ele>1514.21</ele>
        <time>2013-09-12T09:26:52Z</time>
      </trkpt>
      <trkpt lat="42.484401427209377" lon="13.542674649506807">
        <ele>1511.8099999999999</ele>
        <time>2013-09-12T09:27:04Z</time>
      </trkpt>
      <trkpt lat="42.484462363645434" lon="13.542563505470753">
        <ele>1509.8900000000001</ele>
        <time>2013-09-12T09:27:14Z</time>
      </trkpt>
      <trkpt lat="42.484501088038087" lon="13.542552273720503">
        <ele>1508.9300000000001</ele>
        <time>2013-09-12T09:27:18Z</time>
      </trkpt>
      <trkpt lat="42.484606448560953" lon="13.542578257620335">
        <ele>1507</ele>
        <time>2013-09-12T09:27:30Z</time>
      </trkpt>
      <trkpt lat="42.484712144359946" lon="13.542670123279095">
        <ele>1505.0799999999999</ele>
        <time>2013-09-12T09:27:43Z</time>
      </trkpt>
      <trkpt lat="42.484794287011027" lon="13.54266794398427">
        <ele>1505.0799999999999</ele>
        <time>2013-09-12T09:27:50Z</time>
      </trkpt>
      <trkpt lat="42.485001990571618" lon="13.542643049731851">
        <ele>1503.6400000000001</ele>
        <time>2013-09-12T09:28:08Z</time>
      </trkpt>
      <trkpt lat="42.485068207606673" lon="13.542608181014657">
        <ele>1503.1600000000001</ele>
        <time>2013-09-12T09:28:14Z</time>
      </trkpt>
      <trkpt lat="42.485235007479787" lon="13.542527295649052">
        <ele>1503.1600000000001</ele>
        <time>2013-09-12T09:28:29Z</time>
      </trkpt>
      <trkpt lat="42.485260656103492" lon="13.542524194344878">
        <ele>1503.1600000000001</ele>
        <time>2013-09-12T09:28:32Z</time>
      </trkpt>
      <trkpt lat="42.485263925045729" lon="13.542513214051723">
        <ele>1502.6800000000001</ele>
        <time>2013-09-12T09:28:34Z</time>
      </trkpt>
      <trkpt lat="42.485256046056747" lon="13.542466862127185">
        <ele>1504.5999999999999</ele>
        <time>2013-09-12T09:28:44Z</time>
      </trkpt>
      <trkpt lat="42.485256716609001" lon="13.542451020330191">
        <ele>1504.5999999999999</ele>
        <time>2013-09-12T09:28:46Z</time>
      </trkpt>
      <trkpt lat="42.485328381881118" lon="13.54242361150682">
        <ele>1500.76</ele>
        <time>2013-09-12T09:28:57Z</time>
      </trkpt>
      <trkpt lat="42.485375823453069" lon="13.542398298159242">
        <ele>1498.3499999999999</ele>
        <time>2013-09-12T09:29:02Z</time>
      </trkpt>
      <trkpt lat="42.485480010509491" lon="13.542398298159242">
        <ele>1495.47</ele>
        <time>2013-09-12T09:29:12Z</time>
      </trkpt>
      <trkpt lat="42.485604146495461" lon="13.542410535737872">
        <ele>1494.03</ele>
        <time>2013-09-12T09:29:24Z</time>
      </trkpt>
      <trkpt lat="42.48573649674654" lon="13.542412547394633">
        <ele>1492.0999999999999</ele>
        <time>2013-09-12T09:29:36Z</time>
      </trkpt>
      <trkpt lat="42.485791482031345" lon="13.542449595406651">
        <ele>1490.6600000000001</ele>
        <time>2013-09-12T09:29:42Z</time>
      </trkpt>
      <trkpt lat="42.485834648832679" lon="13.542489996179938">
        <ele>1489.7</ele>
        <time>2013-09-12T09:29:46Z</time>
      </trkpt>
      <trkpt lat="42.485927520319819" lon="13.542639696970582">
        <ele>1486.8199999999999</ele>
        <time>2013-09-12T09:30:00Z</time>
      </trkpt>
      <trkpt lat="42.485933220013976" lon="13.542651850730181">
        <ele>1486.3399999999999</ele>
        <time>2013-09-12T09:30:01Z</time>
      </trkpt>
      <trkpt lat="42.485972698777914" lon="13.542669033631682">
        <ele>1485.3699999999999</ele>
        <time>2013-09-12T09:30:05Z</time>
      </trkpt>
      <trkpt lat="42.486044531688094" lon="13.542722593992949">
        <ele>1483.45</ele>
        <time>2013-09-12T09:30:17Z</time>
      </trkpt>
      <trkpt lat="42.486052829772234" lon="13.542715469375253">
        <ele>1482.97</ele>
        <time>2013-09-12T09:30:19Z</time>
      </trkpt>
      <trkpt lat="42.486090632155538" lon="13.542712284252048">
        <ele>1479.6099999999999</ele>
        <time>2013-09-12T09:30:24Z</time>
      </trkpt>
      <trkpt lat="42.486171936616302" lon="13.542757462710142">
        <ele>1475.76</ele>
        <time>2013-09-12T09:30:33Z</time>
      </trkpt>
      <trkpt lat="42.486179815605283" lon="13.542754864320159">
        <ele>1475.76</ele>
        <time>2013-09-12T09:30:34Z</time>
      </trkpt>
      <trkpt lat="42.48619238846004" lon="13.542754109948874">
        <ele>1476.72</ele>
        <time>2013-09-12T09:30:36Z</time>
      </trkpt>
      <trkpt lat="42.48629012145102" lon="13.542835833504796">
        <ele>1474.8</ele>
        <time>2013-09-12T09:30:47Z</time>
      </trkpt>
      <trkpt lat="42.486302442848682" lon="13.542856033891439">
        <ele>1474.3199999999999</ele>
        <time>2013-09-12T09:30:49Z</time>
      </trkpt>
      <trkpt lat="42.486352398991585" lon="13.542897943407297">
        <ele>1473.8399999999999</ele>
        <time>2013-09-12T09:30:54Z</time>
      </trkpt>
      <trkpt lat="42.486396823078394" lon="13.542949575930834">
        <ele>1474.3199999999999</ele>
        <time>2013-09-12T09:30:58Z</time>
      </trkpt>
      <trkpt lat="42.486435044556856" lon="13.542978325858712">
        <ele>1471.9200000000001</ele>
        <time>2013-09-12T09:31:03Z</time>
      </trkpt>
      <trkpt lat="42.486486844718456" lon="13.543026270344853">
        <ele>1471.4400000000001</ele>
        <time>2013-09-12T09:31:08Z</time>
      </trkpt>
      <trkpt lat="42.486531436443329" lon="13.543090894818306">
        <ele>1471.4400000000001</ele>
        <time>2013-09-12T09:31:14Z</time>
      </trkpt>
      <trkpt lat="42.486569155007601" lon="13.543149987235665">
        <ele>1471.4400000000001</ele>
        <time>2013-09-12T09:31:19Z</time>
      </trkpt>
      <trkpt lat="42.486614920198917" lon="13.543202206492424">
        <ele>1471.4400000000001</ele>
        <time>2013-09-12T09:31:24Z</time>
      </trkpt>
      <trkpt lat="42.48667904175818" lon="13.543348722159863">
        <ele>1471.9200000000001</ele>
        <time>2013-09-12T09:31:36Z</time>
      </trkpt>
      <trkpt lat="42.486808374524117" lon="13.543560113757849">
        <ele>1470.95</ele>
        <time>2013-09-12T09:31:51Z</time>
      </trkpt>
      <trkpt lat="42.486820863559842" lon="13.54359976015985">
        <ele>1470.47</ele>
        <time>2013-09-12T09:31:54Z</time>
      </trkpt>
      <trkpt lat="42.486871993169188" lon="13.543729679659009">
        <ele>1470.95</ele>
        <time>2013-09-12T09:32:04Z</time>
      </trkpt>
      <trkpt lat="42.486947430297732" lon="13.5438665561378">
        <ele>1468.55</ele>
        <time>2013-09-12T09:32:18Z</time>
      </trkpt>
      <trkpt lat="42.486988753080368" lon="13.543939311057329">
        <ele>1469.03</ele>
        <time>2013-09-12T09:32:30Z</time>
      </trkpt>
      <trkpt lat="42.487116577103734" lon="13.544052634388208">
        <ele>1469.03</ele>
        <time>2013-09-12T09:32:45Z</time>
      </trkpt>
      <trkpt lat="42.487136442214251" lon="13.544072834774852">
        <ele>1468.55</ele>
        <time>2013-09-12T09:32:48Z</time>
      </trkpt>
      <trkpt lat="42.487162677571177" lon="13.544114911928773">
        <ele>1468.0699999999999</ele>
        <time>2013-09-12T09:32:52Z</time>
      </trkpt>
      <trkpt lat="42.487167958170176" lon="13.544144583866">
        <ele>1468.0699999999999</ele>
        <time>2013-09-12T09:33:01Z</time>
      </trkpt>
      <trkpt lat="42.48720140196383" lon="13.544210381805897">
        <ele>1465.6700000000001</ele>
        <time>2013-09-12T09:33:06Z</time>
      </trkpt>
      <trkpt lat="42.487289747223258" lon="13.544350191950798">
        <ele>1463.74</ele>
        <time>2013-09-12T09:33:19Z</time>
      </trkpt>
      <trkpt lat="42.487331070005894" lon="13.544412553310394">
        <ele>1464.71</ele>
        <time>2013-09-12T09:33:25Z</time>
      </trkpt>
      <trkpt lat="42.487352108582854" lon="13.544438118115067">
        <ele>1465.1900000000001</ele>
        <time>2013-09-12T09:33:38Z</time>
      </trkpt>
      <trkpt lat="42.487362334504724" lon="13.544456725940108">
        <ele>1466.6300000000001</ele>
        <time>2013-09-12T09:33:43Z</time>
      </trkpt>
      <trkpt lat="42.487431233748794" lon="13.544558314606547">
        <ele>1467.1099999999999</ele>
        <time>2013-09-12T09:33:57Z</time>
      </trkpt>
      <trkpt lat="42.487493511289358" lon="13.544618161395192">
        <ele>1468.55</ele>
        <time>2013-09-12T09:34:09Z</time>
      </trkpt>
      <trkpt lat="42.48754296451807" lon="13.544694939628243">
        <ele>1470.47</ele>
        <time>2013-09-12T09:34:25Z</time>
      </trkpt>
      <trkpt lat="42.487574145197868" lon="13.544718911871314">
        <ele>1473.8399999999999</ele>
        <time>2013-09-12T09:34:31Z</time>
      </trkpt>
      <trkpt lat="42.48761479742825" lon="13.544770963490009">
        <ele>1472.8800000000001</ele>
        <time>2013-09-12T09:34:44Z</time>
      </trkpt>
      <trkpt lat="42.487675063312054" lon="13.544827373698354">
        <ele>1474.3199999999999</ele>
        <time>2013-09-12T09:34:59Z</time>
      </trkpt>
      <trkpt lat="42.487748069688678" lon="13.544877162203193">
        <ele>1476.24</ele>
        <time>2013-09-12T09:35:12Z</time>
      </trkpt>
      <trkpt lat="42.487808838486671" lon="13.544929130002856">
        <ele>1479.1300000000001</ele>
        <time>2013-09-12T09:35:25Z</time>
      </trkpt>
      <trkpt lat="42.487863320857286" lon="13.544965172186494">
        <ele>1480.0899999999999</ele>
        <time>2013-09-12T09:35:34Z</time>
      </trkpt>
      <trkpt lat="42.487927442416549" lon="13.545043962076306">
        <ele>1479.6099999999999</ele>
        <time>2013-09-12T09:35:47Z</time>
      </trkpt>
      <trkpt lat="42.488015871495008" lon="13.5451081674546">
        <ele>1479.1300000000001</ele>
        <time>2013-09-12T09:35:58Z</time>
      </trkpt>
      <trkpt lat="42.488086028024554" lon="13.545163655653596">
        <ele>1482.01</ele>
        <time>2013-09-12T09:36:04Z</time>
      </trkpt>
      <trkpt lat="42.488114526495337" lon="13.545190561562777">
        <ele>1483.45</ele>
        <time>2013-09-12T09:36:07Z</time>
      </trkpt>
      <trkpt lat="42.488150233402848" lon="13.545231465250254">
        <ele>1483.45</ele>
        <time>2013-09-12T09:36:11Z</time>
      </trkpt>
      <trkpt lat="42.488177306950092" lon="13.54525133036077">
        <ele>1485.3699999999999</ele>
        <time>2013-09-12T09:36:14Z</time>
      </trkpt>
      <trkpt lat="42.488194238394499" lon="13.545270944014192">
        <ele>1483.45</ele>
        <time>2013-09-12T09:36:16Z</time>
      </trkpt>
      <trkpt lat="42.488200021907687" lon="13.545281169936061">
        <ele>1482.01</ele>
        <time>2013-09-12T09:36:17Z</time>
      </trkpt>
      <trkpt lat="42.488217959180474" lon="13.545307740569115">
        <ele>1483.45</ele>
        <time>2013-09-12T09:36:20Z</time>
      </trkpt>
      <trkpt lat="42.488245032727718" lon="13.545315284281969">
        <ele>1483.9300000000001</ele>
        <time>2013-09-12T09:36:22Z</time>
      </trkpt>
      <trkpt lat="42.488255258649588" lon="13.545327689498663">
        <ele>1482.49</ele>
        <time>2013-09-12T09:36:23Z</time>
      </trkpt>
      <trkpt lat="42.488307058811188" lon="13.545390805229545">
        <ele>1479.6099999999999</ele>
        <time>2013-09-12T09:36:31Z</time>
      </trkpt>
      <trkpt lat="42.48831745237112" lon="13.545392816886306">
        <ele>1480.0899999999999</ele>
        <time>2013-09-12T09:36:32Z</time>
      </trkpt>
      <trkpt lat="42.488378640264273" lon="13.545426009222865">
        <ele>1476.24</ele>
        <time>2013-09-12T09:36:39Z</time>
      </trkpt>
      <trkpt lat="42.488407390192151" lon="13.545460542663932">
        <ele>1474.8</ele>
        <time>2013-09-12T09:36:52Z</time>
      </trkpt>
      <trkpt lat="42.488426500931382" lon="13.545484095811844">
        <ele>1474.8</ele>
        <time>2013-09-12T09:36:54Z</time>
      </trkpt>
      <trkpt lat="42.488438654690981" lon="13.545509995892644">
        <ele>1475.28</ele>
        <time>2013-09-12T09:36:56Z</time>
      </trkpt>
      <trkpt lat="42.488457346335053" lon="13.54552935808897">
        <ele>1476.24</ele>
        <time>2013-09-12T09:36:58Z</time>
      </trkpt>
      <trkpt lat="42.488482659682631" lon="13.545579314231873">
        <ele>1476.72</ele>
        <time>2013-09-12T09:37:02Z</time>
      </trkpt>
      <trkpt lat="42.488492131233215" lon="13.545628767460585">
        <ele>1476.24</ele>
        <time>2013-09-12T09:37:06Z</time>
      </trkpt>
      <trkpt lat="42.488543093204498" lon="13.545696828514338">
        <ele>1476.24</ele>
        <time>2013-09-12T09:37:12Z</time>
      </trkpt>
      <trkpt lat="42.488564131781459" lon="13.545738821849227">
        <ele>1476.72</ele>
        <time>2013-09-12T09:37:16Z</time>
      </trkpt>
      <trkpt lat="42.488664966076612" lon="13.545846613124013">
        <ele>1479.1300000000001</ele>
        <time>2013-09-12T09:37:32Z</time>
      </trkpt>
      <trkpt lat="42.488710731267929" lon="13.545947950333357">
        <ele>1479.1300000000001</ele>
        <time>2013-09-12T09:37:44Z</time>
      </trkpt>
      <trkpt lat="42.488749958574772" lon="13.546012490987778">
        <ele>1482.01</ele>
        <time>2013-09-12T09:37:52Z</time>
      </trkpt>
      <trkpt lat="42.488790610805154" lon="13.546082731336355">
        <ele>1481.53</ele>
        <time>2013-09-12T09:38:03Z</time>
      </trkpt>
      <trkpt lat="42.488837130367756" lon="13.546174680814147">
        <ele>1483.9300000000001</ele>
        <time>2013-09-12T09:38:15Z</time>
      </trkpt>
      <trkpt lat="42.488844422623515" lon="13.54621097445488">
        <ele>1485.3699999999999</ele>
        <time>2013-09-12T09:38:19Z</time>
      </trkpt>
      <trkpt lat="42.488862862810493" lon="13.546248273923993">
        <ele>1484.8900000000001</ele>
        <time>2013-09-12T09:38:24Z</time>
      </trkpt>
      <trkpt lat="42.48892187140882" lon="13.546321364119649">
        <ele>1486.8199999999999</ele>
        <time>2013-09-12T09:38:36Z</time>
      </trkpt>
      <trkpt lat="42.488957075402141" lon="13.54636930860579">
        <ele>1490.1800000000001</ele>
        <time>2013-09-12T09:38:44Z</time>
      </trkpt>
      <trkpt lat="42.488980209454894" lon="13.546468215063214">
        <ele>1492.5799999999999</ele>
        <time>2013-09-12T09:38:59Z</time>
      </trkpt>
      <trkpt lat="42.489040475338697" lon="13.546558069065213">
        <ele>1494.51</ele>
        <time>2013-09-12T09:39:12Z</time>
      </trkpt>
      <trkpt lat="42.489054389297962" lon="13.546575084328651">
        <ele>1494.03</ele>
        <time>2013-09-12T09:39:15Z</time>
      </trkpt>
      <trkpt lat="42.489139046519995" lon="13.546692933887243">
        <ele>1492.5799999999999</ele>
        <time>2013-09-12T09:39:29Z</time>
      </trkpt>
      <trkpt lat="42.489166371524334" lon="13.546805335208774">
        <ele>1491.1400000000001</ele>
        <time>2013-09-12T09:39:41Z</time>
      </trkpt>
      <trkpt lat="42.489223703742027" lon="13.546922765672207">
        <ele>1494.03</ele>
        <time>2013-09-12T09:39:54Z</time>
      </trkpt>
      <trkpt lat="42.489240802824497" lon="13.546964759007096">
        <ele>1494.51</ele>
        <time>2013-09-12T09:39:59Z</time>
      </trkpt>
      <trkpt lat="42.489270390942693" lon="13.546981438994408">
        <ele>1494.51</ele>
        <time>2013-09-12T09:40:03Z</time>
      </trkpt>
      <trkpt lat="42.489402154460549" lon="13.547054277732968">
        <ele>1495.47</ele>
        <time>2013-09-12T09:40:15Z</time>
      </trkpt>
      <trkpt lat="42.489460576325655" lon="13.547155782580376">
        <ele>1497.8699999999999</ele>
        <time>2013-09-12T09:40:26Z</time>
      </trkpt>
      <trkpt lat="42.489479519426823" lon="13.547197608277202">
        <ele>1500.76</ele>
        <time>2013-09-12T09:40:31Z</time>
      </trkpt>
      <trkpt lat="42.489496534690261" lon="13.547287629917264">
        <ele>1504.1199999999999</ele>
        <time>2013-09-12T09:40:41Z</time>
      </trkpt>
      <trkpt lat="42.489511705935001" lon="13.547383937984705">
        <ele>1505.0799999999999</ele>
        <time>2013-09-12T09:40:53Z</time>
      </trkpt>
      <trkpt lat="42.489523272961378" lon="13.54747069068253">
        <ele>1504.5999999999999</ele>
        <time>2013-09-12T09:41:04Z</time>
      </trkpt>
      <trkpt lat="42.48954095877707" lon="13.547568675130606">
        <ele>1503.6400000000001</ele>
        <time>2013-09-12T09:41:16Z</time>
      </trkpt>
      <trkpt lat="42.489555543288589" lon="13.547648135572672">
        <ele>1501.24</ele>
        <time>2013-09-12T09:41:27Z</time>
      </trkpt>
      <trkpt lat="42.489607594907284" lon="13.547717118635774">
        <ele>1503.1600000000001</ele>
        <time>2013-09-12T09:41:40Z</time>
      </trkpt>
      <trkpt lat="42.489626621827483" lon="13.547781324014068">
        <ele>1505.5599999999999</ele>
        <time>2013-09-12T09:41:48Z</time>
      </trkpt>
      <trkpt lat="42.489625867456198" lon="13.547804206609726">
        <ele>1507.48</ele>
        <time>2013-09-12T09:41:50Z</time>
      </trkpt>
      <trkpt lat="42.489626118913293" lon="13.547811163589358">
        <ele>1508.9300000000001</ele>
        <time>2013-09-12T09:41:51Z</time>
      </trkpt>
      <trkpt lat="42.489625783637166" lon="13.547866232693195">
        <ele>1511.8099999999999</ele>
        <time>2013-09-12T09:41:57Z</time>
      </trkpt>
      <trkpt lat="42.489618407562375" lon="13.547941669821739">
        <ele>1515.1800000000001</ele>
        <time>2013-09-12T09:42:07Z</time>
      </trkpt>
      <trkpt lat="42.489627124741673" lon="13.548017190769315">
        <ele>1517.5799999999999</ele>
        <time>2013-09-12T09:42:17Z</time>
      </trkpt>
      <trkpt lat="42.489638859406114" lon="13.548049964010715">
        <ele>1519.5</ele>
        <time>2013-09-12T09:42:21Z</time>
      </trkpt>
      <trkpt lat="42.489638775587082" lon="13.548096148297191">
        <ele>1522.3900000000001</ele>
        <time>2013-09-12T09:42:26Z</time>
      </trkpt>
      <trkpt lat="42.489653024822474" lon="13.54812690988183">
        <ele>1522.3900000000001</ele>
        <time>2013-09-12T09:42:30Z</time>
      </trkpt>
      <trkpt lat="42.489673057571054" lon="13.54816747829318">
        <ele>1520.9400000000001</ele>
        <time>2013-09-12T09:42:35Z</time>
      </trkpt>
      <trkpt lat="42.48968948610127" lon="13.548214081674814">
        <ele>1522.3900000000001</ele>
        <time>2013-09-12T09:42:42Z</time>
      </trkpt>
      <trkpt lat="42.489698622375727" lon="13.548226822167635">
        <ele>1521.4200000000001</ele>
        <time>2013-09-12T09:42:43Z</time>
      </trkpt>
      <trkpt lat="42.489703902974725" lon="13.548236796632409">
        <ele>1522.3900000000001</ele>
        <time>2013-09-12T09:42:44Z</time>
      </trkpt>
      <trkpt lat="42.489741872996092" lon="13.548279125243425">
        <ele>1521.4200000000001</ele>
        <time>2013-09-12T09:42:49Z</time>
      </trkpt>
      <trkpt lat="42.489820411428809" lon="13.548335200175643">
        <ele>1519.5</ele>
        <time>2013-09-12T09:42:59Z</time>
      </trkpt>
      <trkpt lat="42.489889394491911" lon="13.548374846577644">
        <ele>1515.6600000000001</ele>
        <time>2013-09-12T09:43:05Z</time>
      </trkpt>
      <trkpt lat="42.489889645949006" lon="13.548382809385657">
        <ele>1518.0599999999999</ele>
        <time>2013-09-12T09:43:07Z</time>
      </trkpt>
      <trkpt lat="42.489901129156351" lon="13.548389598727226">
        <ele>1520.9400000000001</ele>
        <time>2013-09-12T09:43:15Z</time>
      </trkpt>
      <trkpt lat="42.489895764738321" lon="13.548365458846092">
        <ele>1517.5799999999999</ele>
        <time>2013-09-12T09:43:31Z</time>
      </trkpt>
      <trkpt lat="42.489919401705265" lon="13.548377696424723">
        <ele>1514.21</ele>
        <time>2013-09-12T09:43:42Z</time>
      </trkpt>
      <trkpt lat="42.489910935983062" lon="13.548382055014372">
        <ele>1514.21</ele>
        <time>2013-09-12T09:43:55Z</time>
      </trkpt>
      <trkpt lat="42.489894591271877" lon="13.548366380855441">
        <ele>1517.0999999999999</ele>
        <time>2013-09-12T09:44:02Z</time>
      </trkpt>
      <trkpt lat="42.489875145256519" lon="13.548368141055107">
        <ele>1520.46</ele>
        <time>2013-09-12T09:44:09Z</time>
      </trkpt>
      <trkpt lat="42.489723432809114" lon="13.548340061679482">
        <ele>1523.8299999999999</ele>
        <time>2013-09-12T09:44:26Z</time>
      </trkpt>
      <trkpt lat="42.489711865782738" lon="13.548344001173973">
        <ele>1526.71</ele>
        <time>2013-09-12T09:44:33Z</time>
      </trkpt>
      <trkpt lat="42.48967775143683" lon="13.548349617049098">
        <ele>1522.3900000000001</ele>
        <time>2013-09-12T09:44:37Z</time>
      </trkpt>
      <trkpt lat="42.489680517464876" lon="13.548351377248764">
        <ele>1522.3900000000001</ele>
        <time>2013-09-12T09:44:38Z</time>
      </trkpt>
      <trkpt lat="42.489686887711287" lon="13.548349197953939">
        <ele>1520.46</ele>
        <time>2013-09-12T09:44:39Z</time>
      </trkpt>
      <trkpt lat="42.489810604602098" lon="13.548342157155275">
        <ele>1517.0999999999999</ele>
        <time>2013-09-12T09:44:50Z</time>
      </trkpt>
      <trkpt lat="42.489826278761029" lon="13.548343330621719">
        <ele>1516.6199999999999</ele>
        <time>2013-09-12T09:44:51Z</time>
      </trkpt>
      <trkpt lat="42.489848909899592" lon="13.548368308693171">
        <ele>1513.25</ele>
        <time>2013-09-12T09:44:57Z</time>
      </trkpt>
      <trkpt lat="42.489923844113946" lon="13.548429245129228">
        <ele>1511.8099999999999</ele>
        <time>2013-09-12T09:45:08Z</time>
      </trkpt>
      <trkpt lat="42.489964999258518" lon="13.548464449122548">
        <ele>1510.8499999999999</ele>
        <time>2013-09-12T09:45:12Z</time>
      </trkpt>
      <trkpt lat="42.490054350346327" lon="13.548488756641746">
        <ele>1512.29</ele>
        <time>2013-09-12T09:45:19Z</time>
      </trkpt>
      <trkpt lat="42.49011654406786" lon="13.548512477427721">
        <ele>1514.21</ele>
        <time>2013-09-12T09:45:25Z</time>
      </trkpt>
      <trkpt lat="42.490171696990728" lon="13.548542903736234">
        <ele>1516.6199999999999</ele>
        <time>2013-09-12T09:45:29Z</time>
      </trkpt>
      <trkpt lat="42.49024654738605" lon="13.54855589568615">
        <ele>1516.6199999999999</ele>
        <time>2013-09-12T09:45:37Z</time>
      </trkpt>
      <trkpt lat="42.490274710580707" lon="13.548558242619038">
        <ele>1519.5</ele>
        <time>2013-09-12T09:45:40Z</time>
      </trkpt>
      <trkpt lat="42.490356769412756" lon="13.548562098294497">
        <ele>1522.3900000000001</ele>
        <time>2013-09-12T09:45:47Z</time>
      </trkpt>
      <trkpt lat="42.490440588444471" lon="13.548568803817034">
        <ele>1524.79</ele>
        <time>2013-09-12T09:45:55Z</time>
      </trkpt>
      <trkpt lat="42.490476043894887" lon="13.548571318387985">
        <ele>1522.8699999999999</ele>
        <time>2013-09-12T09:45:58Z</time>
      </trkpt>
      <trkpt lat="42.490505548194051" lon="13.548567881807685">
        <ele>1520.9400000000001</ele>
        <time>2013-09-12T09:46:01Z</time>
      </trkpt>
      <trkpt lat="42.490535220131278" lon="13.548572240397334">
        <ele>1521.4200000000001</ele>
        <time>2013-09-12T09:46:04Z</time>
      </trkpt>
      <trkpt lat="42.490580482408404" lon="13.548567965626717">
        <ele>1521.4200000000001</ele>
        <time>2013-09-12T09:46:11Z</time>
      </trkpt>
      <trkpt lat="42.490638652816415" lon="13.548582382500172">
        <ele>1522.3900000000001</ele>
        <time>2013-09-12T09:46:17Z</time>
      </trkpt>
      <trkpt lat="42.49067896977067" lon="13.548587411642075">
        <ele>1521.9000000000001</ele>
        <time>2013-09-12T09:46:21Z</time>
      </trkpt>
      <trkpt lat="42.490765806287527" lon="13.548595458269119">
        <ele>1525.75</ele>
        <time>2013-09-12T09:46:30Z</time>
      </trkpt>
      <trkpt lat="42.490803524851799" lon="13.548599984496832">
        <ele>1527.1900000000001</ele>
        <time>2013-09-12T09:46:36Z</time>
      </trkpt>
      <trkpt lat="42.490878291428089" lon="13.548608031123877">
        <ele>1527.6700000000001</ele>
        <time>2013-09-12T09:46:43Z</time>
      </trkpt>
      <trkpt lat="42.490900000557303" lon="13.548610545694828">
        <ele>1525.27</ele>
        <time>2013-09-12T09:46:45Z</time>
      </trkpt>
      <trkpt lat="42.490974934771657" lon="13.548612054437399">
        <ele>1523.3499999999999</ele>
        <time>2013-09-12T09:46:54Z</time>
      </trkpt>
      <trkpt lat="42.491113739088178" lon="13.548601074144244">
        <ele>1521.4200000000001</ele>
        <time>2013-09-12T09:47:06Z</time>
      </trkpt>
      <trkpt lat="42.491156738251448" lon="13.548579616472125">
        <ele>1519.5</ele>
        <time>2013-09-12T09:47:12Z</time>
      </trkpt>
      <trkpt lat="42.491272492334247" lon="13.548547346144915">
        <ele>1521.9000000000001</ele>
        <time>2013-09-12T09:47:25Z</time>
      </trkpt>
      <trkpt lat="42.491390006616712" lon="13.548529911786318">
        <ele>1521.9000000000001</ele>
        <time>2013-09-12T09:47:37Z</time>
      </trkpt>
      <trkpt lat="42.491413475945592" lon="13.548530582338572">
        <ele>1522.3900000000001</ele>
        <time>2013-09-12T09:47:40Z</time>
      </trkpt>
      <trkpt lat="42.491472149267793" lon="13.548509376123548">
        <ele>1525.75</ele>
        <time>2013-09-12T09:47:46Z</time>
      </trkpt>
      <trkpt lat="42.491556974127889" lon="13.548507113009691">
        <ele>1529.1099999999999</ele>
        <time>2013-09-12T09:47:53Z</time>
      </trkpt>
      <trkpt lat="42.491620928049088" lon="13.548489762470126">
        <ele>1528.1500000000001</ele>
        <time>2013-09-12T09:48:03Z</time>
      </trkpt>
      <trkpt lat="42.491692425683141" lon="13.548466796055436">
        <ele>1525.27</ele>
        <time>2013-09-12T09:48:10Z</time>
      </trkpt>
      <trkpt lat="42.491742130368948" lon="13.548462688922882">
        <ele>1521.9000000000001</ele>
        <time>2013-09-12T09:48:14Z</time>
      </trkpt>
      <trkpt lat="42.491778926923871" lon="13.548440895974636">
        <ele>1525.27</ele>
        <time>2013-09-12T09:48:20Z</time>
      </trkpt>
      <trkpt lat="42.491832906380296" lon="13.548425808548927">
        <ele>1528.1500000000001</ele>
        <time>2013-09-12T09:48:29Z</time>
      </trkpt>
      <trkpt lat="42.491903649643064" lon="13.548421785235405">
        <ele>1528.6300000000001</ele>
        <time>2013-09-12T09:48:37Z</time>
      </trkpt>
      <trkpt lat="42.491995934396982" lon="13.548383479937911">
        <ele>1530.5599999999999</ele>
        <time>2013-09-12T09:48:51Z</time>
      </trkpt>
      <trkpt lat="42.492021750658751" lon="13.548370152711868">
        <ele>1533.9200000000001</ele>
        <time>2013-09-12T09:48:55Z</time>
      </trkpt>
      <trkpt lat="42.492069862782955" lon="13.548360262066126">
        <ele>1532.96</ele>
        <time>2013-09-12T09:49:03Z</time>
      </trkpt>
      <trkpt lat="42.492115208879113" lon="13.548379624262452">
        <ele>1532.96</ele>
        <time>2013-09-12T09:49:10Z</time>
      </trkpt>
      <trkpt lat="42.492115376517177" lon="13.548384318128228">
        <ele>1534.4000000000001</ele>
        <time>2013-09-12T09:49:11Z</time>
      </trkpt>
      <trkpt lat="42.492104982957244" lon="13.548380378633738">
        <ele>1535.8399999999999</ele>
        <time>2013-09-12T09:49:12Z</time>
      </trkpt>
      <trkpt lat="42.492104228585958" lon="13.548380713909864">
        <ele>1535.3599999999999</ele>
        <time>2013-09-12T09:49:17Z</time>
      </trkpt>
      <trkpt lat="42.492108503356576" lon="13.548381719738245">
        <ele>1532.48</ele>
        <time>2013-09-12T09:49:18Z</time>
      </trkpt>
      <trkpt lat="42.492114203050733" lon="13.548386329784989">
        <ele>1530.0799999999999</ele>
        <time>2013-09-12T09:49:19Z</time>
      </trkpt>
      <trkpt lat="42.492208750918508" lon="13.54839370585978">
        <ele>1529.5899999999999</ele>
        <time>2013-09-12T09:49:27Z</time>
      </trkpt>
      <trkpt lat="42.492239596322179" lon="13.548404518514872">
        <ele>1530.5599999999999</ele>
        <time>2013-09-12T09:49:30Z</time>
      </trkpt>
      <trkpt lat="42.49227681197226" lon="13.548408960923553">
        <ele>1531.52</ele>
        <time>2013-09-12T09:49:34Z</time>
      </trkpt>
      <trkpt lat="42.492314195260406" lon="13.548428909853101">
        <ele>1530.0799999999999</ele>
        <time>2013-09-12T09:49:37Z</time>
      </trkpt>
      <trkpt lat="42.492340849712491" lon="13.548440979793668">
        <ele>1531.52</ele>
        <time>2013-09-12T09:49:40Z</time>
      </trkpt>
      <trkpt lat="42.492394242435694" lon="13.548451708629727">
        <ele>1535.3599999999999</ele>
        <time>2013-09-12T09:49:46Z</time>
      </trkpt>
      <trkpt lat="42.492434559389949" lon="13.548463024199009">
        <ele>1536.8</ele>
        <time>2013-09-12T09:49:49Z</time>
      </trkpt>
      <trkpt lat="42.492439420893788" lon="13.54846847243607">
        <ele>1538.73</ele>
        <time>2013-09-12T09:49:50Z</time>
      </trkpt>
      <trkpt lat="42.492444282397628" lon="13.548472747206688">
        <ele>1540.1700000000001</ele>
        <time>2013-09-12T09:49:51Z</time>
      </trkpt>
      <trkpt lat="42.492452329024673" lon="13.548471322283149">
        <ele>1540.6500000000001</ele>
        <time>2013-09-12T09:49:52Z</time>
      </trkpt>
      <trkpt lat="42.492513684555888" lon="13.548488589003682">
        <ele>1537.77</ele>
        <time>2013-09-12T09:49:59Z</time>
      </trkpt>
      <trkpt lat="42.492597168311477" lon="13.548491941764951">
        <ele>1535.8399999999999</ele>
        <time>2013-09-12T09:50:12Z</time>
      </trkpt>
      <trkpt lat="42.49268090352416" lon="13.548499485477805">
        <ele>1537.77</ele>
        <time>2013-09-12T09:50:26Z</time>
      </trkpt>
      <trkpt lat="42.49277126044035" lon="13.548504095524549">
        <ele>1540.6500000000001</ele>
        <time>2013-09-12T09:50:41Z</time>
      </trkpt>
      <trkpt lat="42.492876034229994" lon="13.548538042232394">
        <ele>1542.0899999999999</ele>
        <time>2013-09-12T09:50:54Z</time>
      </trkpt>
      <trkpt lat="42.492925906553864" lon="13.548593781888485">
        <ele>1543.53</ele>
        <time>2013-09-12T09:51:03Z</time>
      </trkpt>
      <trkpt lat="42.492983993142843" lon="13.548664022237062">
        <ele>1547.3800000000001</ele>
        <time>2013-09-12T09:51:17Z</time>
      </trkpt>
      <trkpt lat="42.492995643988252" lon="13.548689922317863">
        <ele>1550.74</ele>
        <time>2013-09-12T09:51:21Z</time>
      </trkpt>
      <trkpt lat="42.493003942072392" lon="13.548710541799664">
        <ele>1551.71</ele>
        <time>2013-09-12T09:51:24Z</time>
      </trkpt>
      <trkpt lat="42.493063872680068" lon="13.548790672793984">
        <ele>1552.1900000000001</ele>
        <time>2013-09-12T09:51:36Z</time>
      </trkpt>
      <trkpt lat="42.493130592629313" lon="13.548874910920858">
        <ele>1553.6300000000001</ele>
        <time>2013-09-12T09:51:49Z</time>
      </trkpt>
      <trkpt lat="42.493136627599597" lon="13.548908270895481">
        <ele>1552.6700000000001</ele>
        <time>2013-09-12T09:51:53Z</time>
      </trkpt>
      <trkpt lat="42.493210136890411" lon="13.54900449514389">
        <ele>1556.03</ele>
        <time>2013-09-12T09:52:05Z</time>
      </trkpt>
      <trkpt lat="42.493215249851346" lon="13.549012374132872">
        <ele>1556.03</ele>
        <time>2013-09-12T09:52:06Z</time>
      </trkpt>
      <trkpt lat="42.493256824091077" lon="13.54907775297761">
        <ele>1558.4300000000001</ele>
        <time>2013-09-12T09:52:14Z</time>
      </trkpt>
      <trkpt lat="42.49328725039959" lon="13.549124523997307">
        <ele>1558.4300000000001</ele>
        <time>2013-09-12T09:52:20Z</time>
      </trkpt>
      <trkpt lat="42.493290016427636" lon="13.549130642786622">
        <ele>1558.9200000000001</ele>
        <time>2013-09-12T09:52:21Z</time>
      </trkpt>
      <trkpt lat="42.4933195207268" lon="13.549159727990627">
        <ele>1559.4000000000001</ele>
        <time>2013-09-12T09:52:24Z</time>
      </trkpt>
      <trkpt lat="42.49333418905735" lon="13.549179257825017">
        <ele>1560.8399999999999</ele>
        <time>2013-09-12T09:52:26Z</time>
      </trkpt>
      <trkpt lat="42.493394957855344" lon="13.549304315820336">
        <ele>1558.9200000000001</ele>
        <time>2013-09-12T09:52:35Z</time>
      </trkpt>
      <trkpt lat="42.493459163233638" lon="13.549380423501134">
        <ele>1557.95</ele>
        <time>2013-09-12T09:52:42Z</time>
      </trkpt>
      <trkpt lat="42.49348372220993" lon="13.549433145672083">
        <ele>1556.51</ele>
        <time>2013-09-12T09:52:46Z</time>
      </trkpt>
      <trkpt lat="42.493527643382549" lon="13.549486203119159">
        <ele>1552.6700000000001</ele>
        <time>2013-09-12T09:52:54Z</time>
      </trkpt>
      <trkpt lat="42.49353158287704" lon="13.549506403505802">
        <ele>1551.71</ele>
        <time>2013-09-12T09:52:56Z</time>
      </trkpt>
      <trkpt lat="42.493560584262013" lon="13.549537165090442">
        <ele>1555.55</ele>
        <time>2013-09-12T09:53:00Z</time>
      </trkpt>
      <trkpt lat="42.493566200137138" lon="13.549541020765901">
        <ele>1555.55</ele>
        <time>2013-09-12T09:53:01Z</time>
      </trkpt>
      <trkpt lat="42.493569385260344" lon="13.549549989402294">
        <ele>1556.03</ele>
        <time>2013-09-12T09:53:02Z</time>
      </trkpt>
      <trkpt lat="42.493559746071696" lon="13.549572452902794">
        <ele>1553.6300000000001</ele>
        <time>2013-09-12T09:53:15Z</time>
      </trkpt>
      <trkpt lat="42.493560500442982" lon="13.549572788178921">
        <ele>1552.6700000000001</ele>
        <time>2013-09-12T09:53:17Z</time>
      </trkpt>
      <trkpt lat="42.493583634495735" lon="13.549563232809305">
        <ele>1554.1099999999999</ele>
        <time>2013-09-12T09:53:43Z</time>
      </trkpt>
      <trkpt lat="42.493583131581545" lon="13.549559712409973">
        <ele>1552.1900000000001</ele>
        <time>2013-09-12T09:53:46Z</time>
      </trkpt>
      <trkpt lat="42.493604673072696" lon="13.549561221152544">
        <ele>1552.1900000000001</ele>
        <time>2013-09-12T09:53:56Z</time>
      </trkpt>
      <trkpt lat="42.493601320311427" lon="13.549566082656384">
        <ele>1555.0699999999999</ele>
        <time>2013-09-12T09:54:05Z</time>
      </trkpt>
      <trkpt lat="42.493610205128789" lon="13.549572536721826">
        <ele>1555.0699999999999</ele>
        <time>2013-09-12T09:54:25Z</time>
      </trkpt>
      <trkpt lat="42.49361464753747" lon="13.549566082656384">
        <ele>1556.51</ele>
        <time>2013-09-12T09:54:28Z</time>
      </trkpt>
      <trkpt lat="42.493617748841643" lon="13.549565998837352">
        <ele>1558.4300000000001</ele>
        <time>2013-09-12T09:54:32Z</time>
      </trkpt>
      <trkpt lat="42.493599643930793" lon="13.549590138718486">
        <ele>1557.95</ele>
        <time>2013-09-12T09:54:56Z</time>
      </trkpt>
      <trkpt lat="42.493589334189892" lon="13.54958837851882">
        <ele>1554.5899999999999</ele>
        <time>2013-09-12T09:55:04Z</time>
      </trkpt>
      <trkpt lat="42.493602493777871" lon="13.549604639410973">
        <ele>1558.4300000000001</ele>
        <time>2013-09-12T09:55:15Z</time>
      </trkpt>
      <trkpt lat="42.493603080511093" lon="13.549613105133176">
        <ele>1559.8800000000001</ele>
        <time>2013-09-12T09:55:17Z</time>
      </trkpt>
      <trkpt lat="42.493602409958839" lon="13.54961771517992">
        <ele>1555.55</ele>
        <time>2013-09-12T09:55:24Z</time>
      </trkpt>
      <trkpt lat="42.493604840710759" lon="13.549618972465396">
        <ele>1555.55</ele>
        <time>2013-09-12T09:55:25Z</time>
      </trkpt>
      <trkpt lat="42.493589585646987" lon="13.549600699916482">
        <ele>1552.1900000000001</ele>
        <time>2013-09-12T09:55:48Z</time>
      </trkpt>
      <trkpt lat="42.49360634945333" lon="13.54958301410079">
        <ele>1548.8199999999999</ele>
        <time>2013-09-12T09:55:56Z</time>
      </trkpt>
      <trkpt lat="42.493605762720108" lon="13.549574632197618">
        <ele>1552.1900000000001</ele>
        <time>2013-09-12T09:56:04Z</time>
      </trkpt>
      <trkpt lat="42.493630656972528" lon="13.549559460952878">
        <ele>1551.22</ele>
        <time>2013-09-12T09:56:13Z</time>
      </trkpt>
      <trkpt lat="42.493622191250324" lon="13.549558958038688">
        <ele>1547.8599999999999</ele>
        <time>2013-09-12T09:56:17Z</time>
      </trkpt>
      <trkpt lat="42.493624622002244" lon="13.549559628590941">
        <ele>1547.8599999999999</ele>
        <time>2013-09-12T09:56:18Z</time>
      </trkpt>
      <trkpt lat="42.49363224953413" lon="13.549561304971576">
        <ele>1549.78</ele>
        <time>2013-09-12T09:56:20Z</time>
      </trkpt>
      <trkpt lat="42.493644906207919" lon="13.549559377133846">
        <ele>1546.9000000000001</ele>
        <time>2013-09-12T09:56:27Z</time>
      </trkpt>
      <trkpt lat="42.493640882894397" lon="13.549552001059055">
        <ele>1549.78</ele>
        <time>2013-09-12T09:56:35Z</time>
      </trkpt>
      <trkpt lat="42.493635602295399" lon="13.549547055736184">
        <ele>1550.26</ele>
        <time>2013-09-12T09:56:45Z</time>
      </trkpt>
      <trkpt lat="42.493634512647986" lon="13.549544373527169">
        <ele>1553.6300000000001</ele>
        <time>2013-09-12T09:56:56Z</time>
      </trkpt>
      <trkpt lat="42.493595033884048" lon="13.549618721008301">
        <ele>1551.22</ele>
        <time>2013-09-12T09:57:07Z</time>
      </trkpt>
      <trkpt lat="42.493594950065017" lon="13.54964847676456">
        <ele>1550.26</ele>
        <time>2013-09-12T09:57:13Z</time>
      </trkpt>
      <trkpt lat="42.493591429665685" lon="13.549655517563224">
        <ele>1552.1900000000001</ele>
        <time>2013-09-12T09:57:17Z</time>
      </trkpt>
      <trkpt lat="42.493602242320776" lon="13.549656355753541">
        <ele>1547.8599999999999</ele>
        <time>2013-09-12T09:57:24Z</time>
      </trkpt>
      <trkpt lat="42.493601907044649" lon="13.549659205600619">
        <ele>1548.3399999999999</ele>
        <time>2013-09-12T09:57:25Z</time>
      </trkpt>
      <trkpt lat="42.493600565940142" lon="13.549657613039017">
        <ele>1552.6700000000001</ele>
        <time>2013-09-12T09:57:27Z</time>
      </trkpt>
      <trkpt lat="42.49360391870141" lon="13.549652500078082">
        <ele>1553.1500000000001</ele>
        <time>2013-09-12T09:57:29Z</time>
      </trkpt>
      <trkpt lat="42.493624957278371" lon="13.54970421642065">
        <ele>1553.6300000000001</ele>
        <time>2013-09-12T09:57:41Z</time>
      </trkpt>
      <trkpt lat="42.493657227605581" lon="13.549768170341849">
        <ele>1555.0699999999999</ele>
        <time>2013-09-12T09:57:48Z</time>
      </trkpt>
      <trkpt lat="42.493674661964178" lon="13.549749478697777">
        <ele>1552.6700000000001</ele>
        <time>2013-09-12T09:58:01Z</time>
      </trkpt>
      <trkpt lat="42.493653120473027" lon="13.549720644950867">
        <ele>1553.6300000000001</ele>
        <time>2013-09-12T09:58:14Z</time>
      </trkpt>
      <trkpt lat="42.493679439648986" lon="13.549704719334841">
        <ele>1550.74</ele>
        <time>2013-09-12T09:58:23Z</time>
      </trkpt>
      <trkpt lat="42.493679355829954" lon="13.549706060439348">
        <ele>1550.74</ele>
        <time>2013-09-12T09:58:24Z</time>
      </trkpt>
      <trkpt lat="42.493677511811256" lon="13.549749394878745">
        <ele>1554.1099999999999</ele>
        <time>2013-09-12T09:58:32Z</time>
      </trkpt>
      <trkpt lat="42.493683882057667" lon="13.54975450783968">
        <ele>1555.55</ele>
        <time>2013-09-12T09:58:47Z</time>
      </trkpt>
      <trkpt lat="42.493680026382208" lon="13.549746628850698">
        <ele>1558.4300000000001</ele>
        <time>2013-09-12T09:59:13Z</time>
      </trkpt>
      <trkpt lat="42.493674494326115" lon="13.549747131764889">
        <ele>1555.55</ele>
        <time>2013-09-12T09:59:25Z</time>
      </trkpt>
      <trkpt lat="42.493676338344812" lon="13.549743527546525">
        <ele>1555.0699999999999</ele>
        <time>2013-09-12T09:59:26Z</time>
      </trkpt>
      <trkpt lat="42.493683798238635" lon="13.54974964633584">
        <ele>1552.1900000000001</ele>
        <time>2013-09-12T09:59:30Z</time>
      </trkpt>
      <trkpt lat="42.493677427992225" lon="13.549771858379245">
        <ele>1553.6300000000001</ele>
        <time>2013-09-12T09:59:43Z</time>
      </trkpt>
      <trkpt lat="42.493677008897066" lon="13.549772696569562">
        <ele>1552.1900000000001</ele>
        <time>2013-09-12T09:59:46Z</time>
      </trkpt>
      <trkpt lat="42.493695868179202" lon="13.549752915278077">
        <ele>1553.1500000000001</ele>
        <time>2013-09-12T10:00:26Z</time>
      </trkpt>
      <trkpt lat="42.49369821511209" lon="13.549755429849029">
        <ele>1550.26</ele>
        <time>2013-09-12T10:00:41Z</time>
      </trkpt>
      <trkpt lat="42.493693521246314" lon="13.549764147028327">
        <ele>1553.6300000000001</ele>
        <time>2013-09-12T10:00:47Z</time>
      </trkpt>
      <trkpt lat="42.493695868179202" lon="13.549756687134504">
        <ele>1553.6300000000001</ele>
        <time>2013-09-12T10:01:23Z</time>
      </trkpt>
      <trkpt lat="42.493694275617599" lon="13.549770517274737">
        <ele>1550.26</ele>
        <time>2013-09-12T10:01:45Z</time>
      </trkpt>
      <trkpt lat="42.493693772703409" lon="13.549772780388594">
        <ele>1549.78</ele>
        <time>2013-09-12T10:01:53Z</time>
      </trkpt>
      <trkpt lat="42.493671393021941" lon="13.549764147028327">
        <ele>1551.22</ele>
        <time>2013-09-12T10:02:14Z</time>
      </trkpt>
      <trkpt lat="42.493683965876698" lon="13.54974914342165">
        <ele>1554.1099999999999</ele>
        <time>2013-09-12T10:02:47Z</time>
      </trkpt>
      <trkpt lat="42.493682792410254" lon="13.549748472869396">
        <ele>1550.26</ele>
        <time>2013-09-12T10:03:00Z</time>
      </trkpt>
      <trkpt lat="42.493677763268352" lon="13.549771774560213">
        <ele>1547.3800000000001</ele>
        <time>2013-09-12T10:03:16Z</time>
      </trkpt>
      <trkpt lat="42.493688324466348" lon="13.549760039895773">
        <ele>1550.74</ele>
        <time>2013-09-12T10:03:39Z</time>
      </trkpt>
      <trkpt lat="42.493683379143476" lon="13.54977261275053">
        <ele>1553.6300000000001</ele>
        <time>2013-09-12T10:03:49Z</time>
      </trkpt>
      <trkpt lat="42.493690503761172" lon="13.549763895571232">
        <ele>1556.99</ele>
        <time>2013-09-12T10:04:22Z</time>
      </trkpt>
      <trkpt lat="42.493689749389887" lon="13.549762386828661">
        <ele>1556.99</ele>
        <time>2013-09-12T10:04:23Z</time>
      </trkpt>
      <trkpt lat="42.493680194020271" lon="13.549774121493101">
        <ele>1556.99</ele>
        <time>2013-09-12T10:04:39Z</time>
      </trkpt>
      <trkpt lat="42.493685474619269" lon="13.549757776781917">
        <ele>1555.0699999999999</ele>
        <time>2013-09-12T10:04:47Z</time>
      </trkpt>
      <trkpt lat="42.493686564266682" lon="13.549766158685088">
        <ele>1551.22</ele>
        <time>2013-09-12T10:05:00Z</time>
      </trkpt>
      <trkpt lat="42.493686815723777" lon="13.5497672483325">
        <ele>1551.22</ele>
        <time>2013-09-12T10:05:01Z</time>
      </trkpt>
      <trkpt lat="42.493688156828284" lon="13.549756603315473">
        <ele>1552.1900000000001</ele>
        <time>2013-09-12T10:05:30Z</time>
      </trkpt>
      <trkpt lat="42.493691090494394" lon="13.549771942198277">
        <ele>1553.1500000000001</ele>
        <time>2013-09-12T10:06:04Z</time>
      </trkpt>
      <trkpt lat="42.493681199848652" lon="13.54976431466639">
        <ele>1550.74</ele>
        <time>2013-09-12T10:06:33Z</time>
      </trkpt>
      <trkpt lat="42.493671895936131" lon="13.549768337979913">
        <ele>1552.6700000000001</ele>
        <time>2013-09-12T10:07:02Z</time>
      </trkpt>
      <trkpt lat="42.49367717653513" lon="13.549760626628995">
        <ele>1553.1500000000001</ele>
        <time>2013-09-12T10:07:32Z</time>
      </trkpt>
      <trkpt lat="42.493686396628618" lon="13.549774624407291">
        <ele>1551.71</ele>
        <time>2013-09-12T10:08:13Z</time>
      </trkpt>
      <trkpt lat="42.493683798238635" lon="13.549766577780247">
        <ele>1548.8199999999999</ele>
        <time>2013-09-12T10:08:52Z</time>
      </trkpt>
      <trkpt lat="42.493685306981206" lon="13.549748137593269">
        <ele>1551.71</ele>
        <time>2013-09-12T10:09:17Z</time>
      </trkpt>
      <trkpt lat="42.493684552609921" lon="13.549761800095439">
        <ele>1550.26</ele>
        <time>2013-09-12T10:09:22Z</time>
      </trkpt>
      <trkpt lat="42.493691174313426" lon="13.5497603751719">
        <ele>1547.8599999999999</ele>
        <time>2013-09-12T10:09:27Z</time>
      </trkpt>
      <trkpt lat="42.493684887886047" lon="13.549749394878745">
        <ele>1549.3</ele>
        <time>2013-09-12T10:09:36Z</time>
      </trkpt>
      <trkpt lat="42.49368891119957" lon="13.549742437899113">
        <ele>1550.74</ele>
        <time>2013-09-12T10:09:40Z</time>
      </trkpt>
      <trkpt lat="42.493691258132458" lon="13.54973154142499">
        <ele>1554.1099999999999</ele>
        <time>2013-09-12T10:09:51Z</time>
      </trkpt>
      <trkpt lat="42.493690252304077" lon="13.549733301624656">
        <ele>1554.1099999999999</ele>
        <time>2013-09-12T10:09:52Z</time>
      </trkpt>
      <trkpt lat="42.493680445477366" lon="13.549728021025658">
        <ele>1550.74</ele>
        <time>2013-09-12T10:10:11Z</time>
      </trkpt>
      <trkpt lat="42.493684720247984" lon="13.549735229462385">
        <ele>1548.3399999999999</ele>
        <time>2013-09-12T10:10:14Z</time>
      </trkpt>
      <trkpt lat="42.493686228990555" lon="13.549740007147193">
        <ele>1545.46</ele>
        <time>2013-09-12T10:10:26Z</time>
      </trkpt>
      <trkpt lat="42.493684636428952" lon="13.549739923328161">
        <ele>1545.9400000000001</ele>
        <time>2013-09-12T10:10:27Z</time>
      </trkpt>
      <trkpt lat="42.493686648085713" lon="13.549732714891434">
        <ele>1548.8199999999999</ele>
        <time>2013-09-12T10:10:41Z</time>
      </trkpt>
      <trkpt lat="42.493686061352491" lon="13.549747550860047">
        <ele>1549.3</ele>
        <time>2013-09-12T10:11:18Z</time>
      </trkpt>
      <trkpt lat="42.493685223162174" lon="13.549763057380915">
        <ele>1549.3</ele>
        <time>2013-09-12T10:11:58Z</time>
      </trkpt>
      <trkpt lat="42.493694359436631" lon="13.549760626628995">
        <ele>1550.74</ele>
        <time>2013-09-12T10:12:27Z</time>
      </trkpt>
      <trkpt lat="42.493702741339803" lon="13.549757525324821">
        <ele>1548.8199999999999</ele>
        <time>2013-09-12T10:12:42Z</time>
      </trkpt>
      <trkpt lat="42.493703244253993" lon="13.549751406535506">
        <ele>1550.26</ele>
        <time>2013-09-12T10:12:50Z</time>
      </trkpt>
      <trkpt lat="42.493689330294728" lon="13.549764733761549">
        <ele>1550.74</ele>
        <time>2013-09-12T10:13:30Z</time>
      </trkpt>
      <trkpt lat="42.493685474619269" lon="13.549748975783587">
        <ele>1550.74</ele>
        <time>2013-09-12T10:14:11Z</time>
      </trkpt>
      <trkpt lat="42.493687486276031" lon="13.549751490354538">
        <ele>1554.1099999999999</ele>
        <time>2013-09-12T10:14:32Z</time>
      </trkpt>
      <trkpt lat="42.493686731904745" lon="13.549753837287426">
        <ele>1554.5899999999999</ele>
        <time>2013-09-12T10:14:33Z</time>
      </trkpt>
      <trkpt lat="42.493690419942141" lon="13.549757525324821">
        <ele>1551.71</ele>
        <time>2013-09-12T10:14:39Z</time>
      </trkpt>
      <trkpt lat="42.493685390800238" lon="13.549781162291765">
        <ele>1553.1500000000001</ele>
        <time>2013-09-12T10:15:14Z</time>
      </trkpt>
      <trkpt lat="42.493692934513092" lon="13.54978728108108">
        <ele>1549.78</ele>
        <time>2013-09-12T10:15:36Z</time>
      </trkpt>
      <trkpt lat="42.493695449084044" lon="13.549772696569562">
        <ele>1548.8199999999999</ele>
        <time>2013-09-12T10:16:06Z</time>
      </trkpt>
      <trkpt lat="42.493685809895396" lon="13.549782419577241">
        <ele>1545.9400000000001</ele>
        <time>2013-09-12T10:16:35Z</time>
      </trkpt>
      <trkpt lat="42.493685306981206" lon="13.549782168120146">
        <ele>1549.78</ele>
        <time>2013-09-12T10:16:50Z</time>
      </trkpt>
      <trkpt lat="42.493694191798568" lon="13.549776049330831">
        <ele>1548.3399999999999</ele>
        <time>2013-09-12T10:17:30Z</time>
      </trkpt>
      <trkpt lat="42.49369578436017" lon="13.54977554641664">
        <ele>1548.8199999999999</ele>
        <time>2013-09-12T10:17:40Z</time>
      </trkpt>
      <trkpt lat="42.493694443255663" lon="13.549769930541515">
        <ele>1548.8199999999999</ele>
        <time>2013-09-12T10:17:58Z</time>
      </trkpt>
      <trkpt lat="42.493696874007583" lon="13.549769427627325">
        <ele>1545.46</ele>
        <time>2013-09-12T10:18:11Z</time>
      </trkpt>
      <trkpt lat="42.493699388578534" lon="13.549766996875405">
        <ele>1548.8199999999999</ele>
        <time>2013-09-12T10:18:28Z</time>
      </trkpt>
      <trkpt lat="42.493699556216598" lon="13.549775378778577">
        <ele>1547.3800000000001</ele>
        <time>2013-09-12T10:18:32Z</time>
      </trkpt>
      <trkpt lat="42.493692263960838" lon="13.549784095957875">
        <ele>1547.3800000000001</ele>
        <time>2013-09-12T10:18:51Z</time>
      </trkpt>
      <trkpt lat="42.49369528144598" lon="13.549780156463385">
        <ele>1547.8599999999999</ele>
        <time>2013-09-12T10:18:57Z</time>
      </trkpt>
      <trkpt lat="42.49369578436017" lon="13.549788873642683">
        <ele>1551.22</ele>
        <time>2013-09-12T10:19:28Z</time>
      </trkpt>
      <trkpt lat="42.493687737733126" lon="13.54977848008275">
        <ele>1548.3399999999999</ele>
        <time>2013-09-12T10:19:48Z</time>
      </trkpt>
      <trkpt lat="42.493673572316766" lon="13.549783928319812">
        <ele>1549.3</ele>
        <time>2013-09-12T10:20:23Z</time>
      </trkpt>
      <trkpt lat="42.493661418557167" lon="13.549781246110797">
        <ele>1551.71</ele>
        <time>2013-09-12T10:21:02Z</time>
      </trkpt>
      <trkpt lat="42.493665777146816" lon="13.549780324101448">
        <ele>1553.6300000000001</ele>
        <time>2013-09-12T10:21:28Z</time>
      </trkpt>
      <trkpt lat="42.493671979755163" lon="13.549788286909461">
        <ele>1550.26</ele>
        <time>2013-09-12T10:21:38Z</time>
      </trkpt>
      <trkpt lat="42.493671057745814" lon="13.549788538366556">
        <ele>1549.3</ele>
        <time>2013-09-12T10:21:40Z</time>
      </trkpt>
      <trkpt lat="42.493665190413594" lon="13.549789376556873">
        <ele>1548.8199999999999</ele>
        <time>2013-09-12T10:22:17Z</time>
      </trkpt>
      <trkpt lat="42.493668459355831" lon="13.549784095957875">
        <ele>1548.8199999999999</ele>
        <time>2013-09-12T10:22:52Z</time>
      </trkpt>
      <trkpt lat="42.493671644479036" lon="13.549736654385924">
        <ele>1549.3</ele>
        <time>2013-09-12T10:23:34Z</time>
      </trkpt>
      <trkpt lat="42.493675500154495" lon="13.549753753468394">
        <ele>1548.3399999999999</ele>
        <time>2013-09-12T10:24:20Z</time>
      </trkpt>
      <trkpt lat="42.493670973926783" lon="13.5497672483325">
        <ele>1551.22</ele>
        <time>2013-09-12T10:24:45Z</time>
      </trkpt>
      <trkpt lat="42.49365177936852" lon="13.549794824793935">
        <ele>1549.78</ele>
        <time>2013-09-12T10:25:19Z</time>
      </trkpt>
      <trkpt lat="42.493670051917434" lon="13.549781832844019">
        <ele>1549.78</ele>
        <time>2013-09-12T10:26:03Z</time>
      </trkpt>
      <trkpt lat="42.493678433820605" lon="13.549754256382585">
        <ele>1546.9000000000001</ele>
        <time>2013-09-12T10:26:41Z</time>
      </trkpt>
      <trkpt lat="42.493679188191891" lon="13.549769427627325">
        <ele>1544.98</ele>
        <time>2013-09-12T10:27:22Z</time>
      </trkpt>
      <trkpt lat="42.493680361658335" lon="13.549776636064053">
        <ele>1547.3800000000001</ele>
        <time>2013-09-12T10:27:27Z</time>
      </trkpt>
      <trkpt lat="42.493682624772191" lon="13.549777809530497">
        <ele>1548.8199999999999</ele>
        <time>2013-09-12T10:27:46Z</time>
      </trkpt>
      <trkpt lat="42.493683462962508" lon="13.549769427627325">
        <ele>1548.8199999999999</ele>
        <time>2013-09-12T10:28:24Z</time>
      </trkpt>
      <trkpt lat="42.49367818236351" lon="13.549795327708125">
        <ele>1547.3800000000001</ele>
        <time>2013-09-12T10:29:03Z</time>
      </trkpt>
      <trkpt lat="42.493700897321105" lon="13.54979750700295">
        <ele>1548.3399999999999</ele>
        <time>2013-09-12T10:29:28Z</time>
      </trkpt>
      <trkpt lat="42.493678266182542" lon="13.549778647720814">
        <ele>1547.3800000000001</ele>
        <time>2013-09-12T10:29:48Z</time>
      </trkpt>
      <trkpt lat="42.49368354678154" lon="13.549731373786926">
        <ele>1546.9000000000001</ele>
        <time>2013-09-12T10:30:20Z</time>
      </trkpt>
      <trkpt lat="42.493688575923443" lon="13.549743527546525">
        <ele>1547.8599999999999</ele>
        <time>2013-09-12T10:30:26Z</time>
      </trkpt>
      <trkpt lat="42.493681870400906" lon="13.549746545031667">
        <ele>1544.5</ele>
        <time>2013-09-12T10:30:46Z</time>
      </trkpt>
      <trkpt lat="42.493685893714428" lon="13.54974327608943">
        <ele>1547.3800000000001</ele>
        <time>2013-09-12T10:30:50Z</time>
      </trkpt>
      <trkpt lat="42.493681451305747" lon="13.549756770953536">
        <ele>1548.8199999999999</ele>
        <time>2013-09-12T10:30:54Z</time>
      </trkpt>
      <trkpt lat="42.493672398850322" lon="13.549744701012969">
        <ele>1545.9400000000001</ele>
        <time>2013-09-12T10:31:39Z</time>
      </trkpt>
      <trkpt lat="42.493666699156165" lon="13.549746964126825">
        <ele>1545.46</ele>
        <time>2013-09-12T10:32:09Z</time>
      </trkpt>
      <trkpt lat="42.493671476840973" lon="13.549767835065722">
        <ele>1548.8199999999999</ele>
        <time>2013-09-12T10:32:25Z</time>
      </trkpt>
      <trkpt lat="42.493692096322775" lon="13.549746377393603">
        <ele>1549.78</ele>
        <time>2013-09-12T10:32:53Z</time>
      </trkpt>
      <trkpt lat="42.493720846250653" lon="13.549727350473404">
        <ele>1546.9000000000001</ele>
        <time>2013-09-12T10:33:23Z</time>
      </trkpt>
      <trkpt lat="42.493711793795228" lon="13.549734307453036">
        <ele>1549.78</ele>
        <time>2013-09-12T10:33:30Z</time>
      </trkpt>
      <trkpt lat="42.49371875077486" lon="13.549715112894773">
        <ele>1546.4200000000001</ele>
        <time>2013-09-12T10:33:47Z</time>
      </trkpt>
      <trkpt lat="42.493716152384877" lon="13.549715951085091">
        <ele>1546.4200000000001</ele>
        <time>2013-09-12T10:33:48Z</time>
      </trkpt>
      <trkpt lat="42.493699807673693" lon="13.549715280532837">
        <ele>1546.4200000000001</ele>
        <time>2013-09-12T10:34:16Z</time>
      </trkpt>
      <trkpt lat="42.493699556216598" lon="13.549724835902452">
        <ele>1545.9400000000001</ele>
        <time>2013-09-12T10:34:33Z</time>
      </trkpt>
      <trkpt lat="42.493685558438301" lon="13.549752412363887">
        <ele>1545.46</ele>
        <time>2013-09-12T10:35:06Z</time>
      </trkpt>
      <trkpt lat="42.493689749389887" lon="13.549746964126825">
        <ele>1545.46</ele>
        <time>2013-09-12T10:35:34Z</time>
      </trkpt>
      <trkpt lat="42.493663849309087" lon="13.549740761518478">
        <ele>1542.0899999999999</ele>
        <time>2013-09-12T10:35:59Z</time>
      </trkpt>
      <trkpt lat="42.49370064586401" lon="13.549764147028327">
        <ele>1545.46</ele>
        <time>2013-09-12T10:36:13Z</time>
      </trkpt>
      <trkpt lat="42.493674494326115" lon="13.549748808145523">
        <ele>1546.4200000000001</ele>
        <time>2013-09-12T10:36:42Z</time>
      </trkpt>
      <trkpt lat="42.493676422163844" lon="13.549752663820982">
        <ele>1543.05</ele>
        <time>2013-09-12T10:37:07Z</time>
      </trkpt>
      <trkpt lat="42.493669800460339" lon="13.54975258000195">
        <ele>1544.98</ele>
        <time>2013-09-12T10:37:10Z</time>
      </trkpt>
      <trkpt lat="42.493675500154495" lon="13.549748305231333">
        <ele>1545.46</ele>
        <time>2013-09-12T10:37:13Z</time>
      </trkpt>
      <trkpt lat="42.493668375536799" lon="13.549742521718144">
        <ele>1543.05</ele>
        <time>2013-09-12T10:37:17Z</time>
      </trkpt>
      <trkpt lat="42.493679188191891" lon="13.549749981611967">
        <ele>1545.9400000000001</ele>
        <time>2013-09-12T10:37:45Z</time>
      </trkpt>
      <trkpt lat="42.493688156828284" lon="13.549744952470064">
        <ele>1543.53</ele>
        <time>2013-09-12T10:38:14Z</time>
      </trkpt>
      <trkpt lat="42.49369720928371" lon="13.549739588052034">
        <ele>1544.98</ele>
        <time>2013-09-12T10:38:24Z</time>
      </trkpt>
      <trkpt lat="42.493692599236965" lon="13.5497413482517">
        <ele>1543.05</ele>
        <time>2013-09-12T10:38:50Z</time>
      </trkpt>
      <trkpt lat="42.49368597753346" lon="13.549752328544855">
        <ele>1546.4200000000001</ele>
        <time>2013-09-12T10:39:13Z</time>
      </trkpt>
      <trkpt lat="42.493691509589553" lon="13.549750819802284">
        <ele>1544.98</ele>
        <time>2013-09-12T10:39:32Z</time>
      </trkpt>
      <trkpt lat="42.493684552609921" lon="13.549748137593269">
        <ele>1542.5699999999999</ele>
        <time>2013-09-12T10:39:37Z</time>
      </trkpt>
      <trkpt lat="42.493688743561506" lon="13.549723997712135">
        <ele>1545.46</ele>
        <time>2013-09-12T10:40:13Z</time>
      </trkpt>
      <trkpt lat="42.493691090494394" lon="13.549738163128495">
        <ele>1543.53</ele>
        <time>2013-09-12T10:40:43Z</time>
      </trkpt>
      <trkpt lat="42.493689246475697" lon="13.549740677699447">
        <ele>1541.6099999999999</ele>
        <time>2013-09-12T10:40:53Z</time>
      </trkpt>
      <trkpt lat="42.493697460740805" lon="13.549727266654372">
        <ele>1541.6099999999999</ele>
        <time>2013-09-12T10:41:04Z</time>
      </trkpt>
      <trkpt lat="42.49370944686234" lon="13.549737157300115">
        <ele>1543.53</ele>
        <time>2013-09-12T10:41:41Z</time>
      </trkpt>
      <trkpt lat="42.493685306981206" lon="13.549758363515139">
        <ele>1543.53</ele>
        <time>2013-09-12T10:42:12Z</time>
      </trkpt>
      <trkpt lat="42.493681283667684" lon="13.549752747640014">
        <ele>1542.5699999999999</ele>
        <time>2013-09-12T10:42:41Z</time>
      </trkpt>
      <trkpt lat="42.493684636428952" lon="13.549704300239682">
        <ele>1542.0899999999999</ele>
        <time>2013-09-12T10:43:16Z</time>
      </trkpt>
      <trkpt lat="42.493690503761172" lon="13.549713185057044">
        <ele>1543.05</ele>
        <time>2013-09-12T10:43:36Z</time>
      </trkpt>
      <trkpt lat="42.493680864572525" lon="13.549726093187928">
        <ele>1542.0899999999999</ele>
        <time>2013-09-12T10:44:06Z</time>
      </trkpt>
      <trkpt lat="42.493695449084044" lon="13.549754675477743">
        <ele>1545.46</ele>
        <time>2013-09-12T10:44:35Z</time>
      </trkpt>
      <trkpt lat="42.493677008897066" lon="13.549773115664721">
        <ele>1544.01</ele>
        <time>2013-09-12T10:44:51Z</time>
      </trkpt>
      <trkpt lat="42.493685809895396" lon="13.549770601093769">
        <ele>1542.0899999999999</ele>
        <time>2013-09-12T10:45:24Z</time>
      </trkpt>
      <trkpt lat="42.493690084666014" lon="13.549759536981583">
        <ele>1544.01</ele>
        <time>2013-09-12T10:45:53Z</time>
      </trkpt>
      <trkpt lat="42.49369578436017" lon="13.5497379116714">
        <ele>1544.01</ele>
        <time>2013-09-12T10:46:29Z</time>
      </trkpt>
      <trkpt lat="42.493703663349152" lon="13.549754759296775">
        <ele>1543.53</ele>
        <time>2013-09-12T10:46:52Z</time>
      </trkpt>
      <trkpt lat="42.49370014294982" lon="13.549766577780247">
        <ele>1543.53</ele>
        <time>2013-09-12T10:46:58Z</time>
      </trkpt>
      <trkpt lat="42.493723193183541" lon="13.549749981611967">
        <ele>1544.5</ele>
        <time>2013-09-12T10:47:08Z</time>
      </trkpt>
      <trkpt lat="42.493703998625278" lon="13.549793567508459">
        <ele>1544.98</ele>
        <time>2013-09-12T10:47:34Z</time>
      </trkpt>
      <trkpt lat="42.493639122694731" lon="13.549730116501451">
        <ele>1543.05</ele>
        <time>2013-09-12T10:47:45Z</time>
      </trkpt>
      <trkpt lat="42.493653539568186" lon="13.549724919721484">
        <ele>1544.5</ele>
        <time>2013-09-12T10:47:59Z</time>
      </trkpt>
      <trkpt lat="42.493657059967518" lon="13.54973204433918">
        <ele>1543.05</ele>
        <time>2013-09-12T10:48:01Z</time>
      </trkpt>
      <trkpt lat="42.493656640872359" lon="13.549754424020648">
        <ele>1544.01</ele>
        <time>2013-09-12T10:48:16Z</time>
      </trkpt>
      <trkpt lat="42.493688156828284" lon="13.549759201705456">
        <ele>1545.46</ele>
        <time>2013-09-12T10:48:33Z</time>
      </trkpt>
      <trkpt lat="42.493715733289719" lon="13.549796836450696">
        <ele>1542.5699999999999</ele>
        <time>2013-09-12T10:48:48Z</time>
      </trkpt>
      <trkpt lat="42.493724785745144" lon="13.549809996038675">
        <ele>1544.98</ele>
        <time>2013-09-12T10:48:52Z</time>
      </trkpt>
      <trkpt lat="42.493707435205579" lon="13.549812929704785">
        <ele>1543.53</ele>
        <time>2013-09-12T10:49:12Z</time>
      </trkpt>
      <trkpt lat="42.493689581751823" lon="13.549807230010629">
        <ele>1543.53</ele>
        <time>2013-09-12T10:49:41Z</time>
      </trkpt>
      <trkpt lat="42.493696119636297" lon="13.549808822572231">
        <ele>1543.05</ele>
        <time>2013-09-12T10:50:08Z</time>
      </trkpt>
      <trkpt lat="42.493712967261672" lon="13.549807146191597">
        <ele>1542.0899999999999</ele>
        <time>2013-09-12T10:50:36Z</time>
      </trkpt>
      <trkpt lat="42.4937495123595" lon="13.549839500337839">
        <ele>1544.98</ele>
        <time>2013-09-12T10:50:47Z</time>
      </trkpt>
      <trkpt lat="42.493711961433291" lon="13.549798093736172">
        <ele>1543.53</ele>
        <time>2013-09-12T10:51:02Z</time>
      </trkpt>
      <trkpt lat="42.493714056909084" lon="13.549824832007289">
        <ele>1542.5699999999999</ele>
        <time>2013-09-12T10:51:14Z</time>
      </trkpt>
      <trkpt lat="42.493721935898066" lon="13.549832459539175">
        <ele>1544.01</ele>
        <time>2013-09-12T10:51:26Z</time>
      </trkpt>
      <trkpt lat="42.493742890655994" lon="13.54981318116188">
        <ele>1542.5699999999999</ele>
        <time>2013-09-12T10:51:50Z</time>
      </trkpt>
      <trkpt lat="42.493749177083373" lon="13.549807900562882">
        <ele>1542.5699999999999</ele>
        <time>2013-09-12T10:52:06Z</time>
      </trkpt>
      <trkpt lat="42.493746243417263" lon="13.54982097633183">
        <ele>1543.05</ele>
        <time>2013-09-12T10:52:28Z</time>
      </trkpt>
      <trkpt lat="42.493730736896396" lon="13.549833130091429">
        <ele>1543.05</ele>
        <time>2013-09-12T10:52:50Z</time>
      </trkpt>
      <trkpt lat="42.493732832372189" lon="13.549830699339509">
        <ele>1543.53</ele>
        <time>2013-09-12T10:53:18Z</time>
      </trkpt>
      <trkpt lat="42.493746746331453" lon="13.549842769280076">
        <ele>1544.5</ele>
        <time>2013-09-12T10:53:37Z</time>
      </trkpt>
      <trkpt lat="42.493749596178532" lon="13.549838913604617">
        <ele>1544.5</ele>
        <time>2013-09-12T10:53:55Z</time>
      </trkpt>
      <trkpt lat="42.49378957785666" lon="13.549911333248019">
        <ele>1542.5699999999999</ele>
        <time>2013-09-12T10:54:11Z</time>
      </trkpt>
      <trkpt lat="42.493800222873688" lon="13.549935640767217">
        <ele>1542.0899999999999</ele>
        <time>2013-09-12T10:54:14Z</time>
      </trkpt>
      <trkpt lat="42.493843222036958" lon="13.550046365708113">
        <ele>1541.6099999999999</ele>
        <time>2013-09-12T10:54:26Z</time>
      </trkpt>
      <trkpt lat="42.493884461000562" lon="13.550156587734818">
        <ele>1540.1700000000001</ele>
        <time>2013-09-12T10:54:37Z</time>
      </trkpt>
      <trkpt lat="42.493930896744132" lon="13.550232443958521">
        <ele>1541.1300000000001</ele>
        <time>2013-09-12T10:54:46Z</time>
      </trkpt>
      <trkpt lat="42.493941709399223" lon="13.55026027187705">
        <ele>1538.73</ele>
        <time>2013-09-12T10:54:49Z</time>
      </trkpt>
      <trkpt lat="42.494011530652642" lon="13.550360351800919">
        <ele>1536.8</ele>
        <time>2013-09-12T10:55:01Z</time>
      </trkpt>
      <trkpt lat="42.494083866477013" lon="13.550481973215938">
        <ele>1534.4000000000001</ele>
        <time>2013-09-12T10:55:14Z</time>
      </trkpt>
      <trkpt lat="42.494150083512068" lon="13.550619855523109">
        <ele>1532</ele>
        <time>2013-09-12T10:55:29Z</time>
      </trkpt>
      <trkpt lat="42.494178581982851" lon="13.550662770867348">
        <ele>1530.0799999999999</ele>
        <time>2013-09-12T10:55:34Z</time>
      </trkpt>
      <trkpt lat="42.494278158992529" lon="13.550760755315423">
        <ele>1529.1099999999999</ele>
        <time>2013-09-12T10:55:49Z</time>
      </trkpt>
      <trkpt lat="42.494389889761806" lon="13.55074105784297">
        <ele>1526.23</ele>
        <time>2013-09-12T10:56:03Z</time>
      </trkpt>
      <trkpt lat="42.494464991614223" lon="13.55063502676785">
        <ele>1524.3099999999999</ele>
        <time>2013-09-12T10:56:17Z</time>
      </trkpt>
      <trkpt lat="42.49457236379385" lon="13.550506196916103">
        <ele>1522.8699999999999</ele>
        <time>2013-09-12T10:56:33Z</time>
      </trkpt>
      <trkpt lat="42.494652075693011" lon="13.550447020679712">
        <ele>1519.98</ele>
        <time>2013-09-12T10:56:42Z</time>
      </trkpt>
      <trkpt lat="42.494776966050267" lon="13.550396729260683">
        <ele>1519.5</ele>
        <time>2013-09-12T10:56:57Z</time>
      </trkpt>
      <trkpt lat="42.494920967146754" lon="13.550355741754174">
        <ele>1517.5799999999999</ele>
        <time>2013-09-12T10:57:13Z</time>
      </trkpt>
      <trkpt lat="42.495070332661271" lon="13.55035213753581">
        <ele>1516.6199999999999</ele>
        <time>2013-09-12T10:57:30Z</time>
      </trkpt>
      <trkpt lat="42.495104363188148" lon="13.550375523045659">
        <ele>1516.1400000000001</ele>
        <time>2013-09-12T10:57:32Z</time>
      </trkpt>
      <trkpt lat="42.495142417028546" lon="13.550447272136807">
        <ele>1515.6600000000001</ele>
        <time>2013-09-12T10:57:38Z</time>
      </trkpt>
      <trkpt lat="42.495139902457595" lon="13.55060082860291">
        <ele>1513.73</ele>
        <time>2013-09-12T10:57:51Z</time>
      </trkpt>
      <trkpt lat="42.49516362324357" lon="13.550621950998902">
        <ele>1511.3299999999999</ele>
        <time>2013-09-12T10:57:55Z</time>
      </trkpt>
      <trkpt lat="42.495223553851247" lon="13.550677271559834">
        <ele>1509.8900000000001</ele>
        <time>2013-09-12T10:58:04Z</time>
      </trkpt>
      <trkpt lat="42.495276862755418" lon="13.55068146251142">
        <ele>1509.8900000000001</ele>
        <time>2013-09-12T10:58:09Z</time>
      </trkpt>
      <trkpt lat="42.495398567989469" lon="13.550750277936459">
        <ele>1507.48</ele>
        <time>2013-09-12T10:58:23Z</time>
      </trkpt>
      <trkpt lat="42.495527062565088" lon="13.550893608480692">
        <ele>1506.04</ele>
        <time>2013-09-12T10:58:40Z</time>
      </trkpt>
      <trkpt lat="42.495588921010494" lon="13.551015229895711">
        <ele>1504.5999999999999</ele>
        <time>2013-09-12T10:58:53Z</time>
      </trkpt>
      <trkpt lat="42.495609372854233" lon="13.551069460809231">
        <ele>1504.1199999999999</ele>
        <time>2013-09-12T10:58:57Z</time>
      </trkpt>
      <trkpt lat="42.495704339817166" lon="13.551182197406888">
        <ele>1503.6400000000001</ele>
        <time>2013-09-12T10:59:10Z</time>
      </trkpt>
      <trkpt lat="42.495870217680931" lon="13.551316475495696">
        <ele>1501.72</ele>
        <time>2013-09-12T10:59:27Z</time>
      </trkpt>
      <trkpt lat="42.49590927734971" lon="13.55135235004127">
        <ele>1501.72</ele>
        <time>2013-09-12T10:59:31Z</time>
      </trkpt>
      <trkpt lat="42.49599376693368" lon="13.551419069990516">
        <ele>1500.76</ele>
        <time>2013-09-12T10:59:42Z</time>
      </trkpt>
      <trkpt lat="42.496009524911642" lon="13.551434576511383">
        <ele>1500.27</ele>
        <time>2013-09-12T10:59:44Z</time>
      </trkpt>
      <trkpt lat="42.496102815493941" lon="13.55150431394577">
        <ele>1498.3499999999999</ele>
        <time>2013-09-12T10:59:54Z</time>
      </trkpt>
      <trkpt lat="42.496264921501279" lon="13.55156047269702">
        <ele>1498.3499999999999</ele>
        <time>2013-09-12T11:00:11Z</time>
      </trkpt>
      <trkpt lat="42.496317559853196" lon="13.55156927369535">
        <ele>1495.95</ele>
        <time>2013-09-12T11:00:16Z</time>
      </trkpt>
      <trkpt lat="42.496415879577398" lon="13.55161227285862">
        <ele>1494.03</ele>
        <time>2013-09-12T11:00:27Z</time>
      </trkpt>
      <trkpt lat="42.496543535962701" lon="13.551714364439249">
        <ele>1491.1400000000001</ele>
        <time>2013-09-12T11:00:41Z</time>
      </trkpt>
      <trkpt lat="42.496681166812778" lon="13.55173883959651">
        <ele>1489.22</ele>
        <time>2013-09-12T11:00:55Z</time>
      </trkpt>
      <trkpt lat="42.496844613924623" lon="13.551675388589501">
        <ele>1487.78</ele>
        <time>2013-09-12T11:01:09Z</time>
      </trkpt>
      <trkpt lat="42.496943436563015" lon="13.551694331690669">
        <ele>1485.3699999999999</ele>
        <time>2013-09-12T11:01:23Z</time>
      </trkpt>
      <trkpt lat="42.496962882578373" lon="13.551699109375477">
        <ele>1483.9300000000001</ele>
        <time>2013-09-12T11:01:26Z</time>
      </trkpt>
      <trkpt lat="42.497064974159002" lon="13.551719477400184">
        <ele>1481.53</ele>
        <time>2013-09-12T11:01:39Z</time>
      </trkpt>
      <trkpt lat="42.497163293883204" lon="13.551764572039247">
        <ele>1479.6099999999999</ele>
        <time>2013-09-12T11:01:55Z</time>
      </trkpt>
      <trkpt lat="42.497268738225102" lon="13.551827939227223">
        <ele>1477.2</ele>
        <time>2013-09-12T11:02:12Z</time>
      </trkpt>
      <trkpt lat="42.497359346598387" lon="13.551875967532396">
        <ele>1473.8399999999999</ele>
        <time>2013-09-12T11:02:26Z</time>
      </trkpt>
      <trkpt lat="42.49746261164546" lon="13.552012760192156">
        <ele>1472.8800000000001</ele>
        <time>2013-09-12T11:02:42Z</time>
      </trkpt>
      <trkpt lat="42.497571911662817" lon="13.552020723000169">
        <ele>1470.47</ele>
        <time>2013-09-12T11:02:58Z</time>
      </trkpt>
      <trkpt lat="42.497675511986017" lon="13.552050143480301">
        <ele>1468.0699999999999</ele>
        <time>2013-09-12T11:03:14Z</time>
      </trkpt>
      <trkpt lat="42.497709291055799" lon="13.552173525094986">
        <ele>1465.1900000000001</ele>
        <time>2013-09-12T11:03:25Z</time>
      </trkpt>
      <trkpt lat="42.497758911922574" lon="13.552220044657588">
        <ele>1464.71</ele>
        <time>2013-09-12T11:03:30Z</time>
      </trkpt>
      <trkpt lat="42.497917748987675" lon="13.552270168438554">
        <ele>1462.78</ele>
        <time>2013-09-12T11:03:42Z</time>
      </trkpt>
      <trkpt lat="42.497961670160294" lon="13.55225432664156">
        <ele>1462.78</ele>
        <time>2013-09-12T11:03:46Z</time>
      </trkpt>
      <trkpt lat="42.498023025691509" lon="13.552278634160757">
        <ele>1461.3399999999999</ele>
        <time>2013-09-12T11:03:52Z</time>
      </trkpt>
      <trkpt lat="42.498170044273138" lon="13.552446607500315">
        <ele>1459.4200000000001</ele>
        <time>2013-09-12T11:04:10Z</time>
      </trkpt>
      <trkpt lat="42.49827372841537" lon="13.552610808983445">
        <ele>1458.9400000000001</ele>
        <time>2013-09-12T11:04:25Z</time>
      </trkpt>
      <trkpt lat="42.498302310705185" lon="13.55266822502017">
        <ele>1456.05</ele>
        <time>2013-09-12T11:04:30Z</time>
      </trkpt>
      <trkpt lat="42.498304573819041" lon="13.552679289132357">
        <ele>1456.05</ele>
        <time>2013-09-12T11:04:31Z</time>
      </trkpt>
      <trkpt lat="42.49835193157196" lon="13.552749445661902">
        <ele>1455.0899999999999</ele>
        <time>2013-09-12T11:04:38Z</time>
      </trkpt>
      <trkpt lat="42.498428039252758" lon="13.552891267463565">
        <ele>1454.1300000000001</ele>
        <time>2013-09-12T11:04:52Z</time>
      </trkpt>
      <trkpt lat="42.498481599614024" lon="13.553024288266897">
        <ele>1453.6500000000001</ele>
        <time>2013-09-12T11:05:04Z</time>
      </trkpt>
      <trkpt lat="42.498516719788313" lon="13.553097965195775">
        <ele>1452.6900000000001</ele>
        <time>2013-09-12T11:05:11Z</time>
      </trkpt>
      <trkpt lat="42.498633731156588" lon="13.553303657099605">
        <ele>1453.1700000000001</ele>
        <time>2013-09-12T11:05:28Z</time>
      </trkpt>
      <trkpt lat="42.498730458319187" lon="13.553475150838494">
        <ele>1452.21</ele>
        <time>2013-09-12T11:05:43Z</time>
      </trkpt>
      <trkpt lat="42.498835818842053" lon="13.55367380194366">
        <ele>1452.21</ele>
        <time>2013-09-12T11:05:58Z</time>
      </trkpt>
      <trkpt lat="42.498865909874439" lon="13.55375200510025">
        <ele>1451.25</ele>
        <time>2013-09-12T11:06:04Z</time>
      </trkpt>
      <trkpt lat="42.498887786641717" lon="13.553799949586391">
        <ele>1451.25</ele>
        <time>2013-09-12T11:06:08Z</time>
      </trkpt>
      <trkpt lat="42.499009910970926" lon="13.554011508822441">
        <ele>1448.3599999999999</ele>
        <time>2013-09-12T11:06:25Z</time>
      </trkpt>
      <trkpt lat="42.499096244573593" lon="13.554173782467842">
        <ele>1446.9200000000001</ele>
        <time>2013-09-12T11:06:41Z</time>
      </trkpt>
      <trkpt lat="42.499168664216995" lon="13.554322309792042">
        <ele>1445.96</ele>
        <time>2013-09-12T11:06:54Z</time>
      </trkpt>
      <trkpt lat="42.499278131872416" lon="13.55454065836966">
        <ele>1445.48</ele>
        <time>2013-09-12T11:07:10Z</time>
      </trkpt>
      <trkpt lat="42.499425653368235" lon="13.554780632257462">
        <ele>1444.52</ele>
        <time>2013-09-12T11:07:28Z</time>
      </trkpt>
      <trkpt lat="42.499506119638681" lon="13.554905690252781">
        <ele>1444.04</ele>
        <time>2013-09-12T11:07:40Z</time>
      </trkpt>
      <trkpt lat="42.499514501541853" lon="13.554926058277488">
        <ele>1444.04</ele>
        <time>2013-09-12T11:07:42Z</time>
      </trkpt>
      <trkpt lat="42.499601002782583" lon="13.555071400478482">
        <ele>1444.52</ele>
        <time>2013-09-12T11:07:56Z</time>
      </trkpt>
      <trkpt lat="42.499611647799611" lon="13.555091433227062">
        <ele>1445</ele>
        <time>2013-09-12T11:07:58Z</time>
      </trkpt>
      <trkpt lat="42.499631261453032" lon="13.555124374106526">
        <ele>1444.52</ele>
        <time>2013-09-12T11:08:01Z</time>
      </trkpt>
      <trkpt lat="42.499721031636" lon="13.555320929735899">
        <ele>1444.52</ele>
        <time>2013-09-12T11:08:16Z</time>
      </trkpt>
      <trkpt lat="42.499795127660036" lon="13.555498290807009">
        <ele>1445</ele>
        <time>2013-09-12T11:08:29Z</time>
      </trkpt>
      <trkpt lat="42.499802419915795" lon="13.555670706555247">
        <ele>1445.48</ele>
        <time>2013-09-12T11:08:46Z</time>
      </trkpt>
      <trkpt lat="42.499814908951521" lon="13.555667521432042">
        <ele>1445.48</ele>
        <time>2013-09-12T11:08:52Z</time>
      </trkpt>
      <trkpt lat="42.499863943085074" lon="13.555790400132537">
        <ele>1446.4400000000001</ele>
        <time>2013-09-12T11:09:04Z</time>
      </trkpt>
      <trkpt lat="42.499886658042669" lon="13.55595963075757">
        <ele>1446.9200000000001</ele>
        <time>2013-09-12T11:09:17Z</time>
      </trkpt>
      <trkpt lat="42.499908953905106" lon="13.556106481701136">
        <ele>1446.9200000000001</ele>
        <time>2013-09-12T11:09:31Z</time>
      </trkpt>
      <trkpt lat="42.499933848157525" lon="13.5562689229846">
        <ele>1447.4000000000001</ele>
        <time>2013-09-12T11:09:45Z</time>
      </trkpt>
      <trkpt lat="42.499940469861031" lon="13.556312005966902">
        <ele>1449.3199999999999</ele>
        <time>2013-09-12T11:09:49Z</time>
      </trkpt>
      <trkpt lat="42.499963603913784" lon="13.556547956541181">
        <ele>1448.8399999999999</ele>
        <time>2013-09-12T11:10:05Z</time>
      </trkpt>
      <trkpt lat="42.499989336356521" lon="13.556820619851351">
        <ele>1450.29</ele>
        <time>2013-09-12T11:10:23Z</time>
      </trkpt>
      <trkpt lat="42.499932339414954" lon="13.557174168527126">
        <ele>1451.25</ele>
        <time>2013-09-12T11:10:49Z</time>
      </trkpt>
      <trkpt lat="42.499869056046009" lon="13.557456973940134">
        <ele>1451.73</ele>
        <time>2013-09-12T11:11:09Z</time>
      </trkpt>
      <trkpt lat="42.499835276976228" lon="13.557548001408577">
        <ele>1452.21</ele>
        <time>2013-09-12T11:11:25Z</time>
      </trkpt>
      <trkpt lat="42.499787667766213" lon="13.557815719395876">
        <ele>1452.6900000000001</ele>
        <time>2013-09-12T11:11:44Z</time>
      </trkpt>
      <trkpt lat="42.499777441844344" lon="13.558034906163812">
        <ele>1454.1300000000001</ele>
        <time>2013-09-12T11:12:03Z</time>
      </trkpt>
      <trkpt lat="42.499755984172225" lon="13.558086035773158">
        <ele>1454.1300000000001</ele>
        <time>2013-09-12T11:12:09Z</time>
      </trkpt>
      <trkpt lat="42.499693622812629" lon="13.558215284720063">
        <ele>1454.1300000000001</ele>
        <time>2013-09-12T11:12:19Z</time>
      </trkpt>
      <trkpt lat="42.49960720539093" lon="13.558478727936745">
        <ele>1455.5699999999999</ele>
        <time>2013-09-12T11:12:38Z</time>
      </trkpt>
      <trkpt lat="42.499591279774904" lon="13.558546202257276">
        <ele>1455.5699999999999</ele>
        <time>2013-09-12T11:12:43Z</time>
      </trkpt>
      <trkpt lat="42.499585580080748" lon="13.558596828952432">
        <ele>1457.02</ele>
        <time>2013-09-12T11:12:50Z</time>
      </trkpt>
      <trkpt lat="42.499575186520815" lon="13.558627087622881">
        <ele>1456.53</ele>
        <time>2013-09-12T11:12:52Z</time>
      </trkpt>
      <trkpt lat="42.499548867344856" lon="13.55886111035943">
        <ele>1457.5</ele>
        <time>2013-09-12T11:13:08Z</time>
      </trkpt>
      <trkpt lat="42.499507376924157" lon="13.559091696515679">
        <ele>1459.4200000000001</ele>
        <time>2013-09-12T11:13:23Z</time>
      </trkpt>
      <trkpt lat="42.499475860968232" lon="13.559293113648891">
        <ele>1459.9000000000001</ele>
        <time>2013-09-12T11:13:38Z</time>
      </trkpt>
      <trkpt lat="42.49942984431982" lon="13.559606680646539">
        <ele>1460.8599999999999</ele>
        <time>2013-09-12T11:13:58Z</time>
      </trkpt>
      <trkpt lat="42.499416684731841" lon="13.559703240171075">
        <ele>1460.3800000000001</ele>
        <time>2013-09-12T11:14:12Z</time>
      </trkpt>
      <trkpt lat="42.499401764944196" lon="13.559802733361721">
        <ele>1460.8599999999999</ele>
        <time>2013-09-12T11:14:25Z</time>
      </trkpt>
      <trkpt lat="42.49939514324069" lon="13.55991312302649">
        <ele>1461.3399999999999</ele>
        <time>2013-09-12T11:14:40Z</time>
      </trkpt>
      <trkpt lat="42.499390533193946" lon="13.559979591518641">
        <ele>1461.8199999999999</ele>
        <time>2013-09-12T11:14:54Z</time>
      </trkpt>
      <trkpt lat="42.499372595921159" lon="13.55999082326889">
        <ele>1461.3399999999999</ele>
        <time>2013-09-12T11:15:12Z</time>
      </trkpt>
      <trkpt lat="42.499310318380594" lon="13.560060895979404">
        <ele>1463.74</ele>
        <time>2013-09-12T11:15:27Z</time>
      </trkpt>
      <trkpt lat="42.499295817688107" lon="13.559998702257872">
        <ele>1465.1900000000001</ele>
        <time>2013-09-12T11:15:40Z</time>
      </trkpt>
      <trkpt lat="42.499239072203636" lon="13.559928461909294">
        <ele>1467.1099999999999</ele>
        <time>2013-09-12T11:15:56Z</time>
      </trkpt>
      <trkpt lat="42.499219877645373" lon="13.559998702257872">
        <ele>1469.03</ele>
        <time>2013-09-12T11:16:12Z</time>
      </trkpt>
      <trkpt lat="42.499185428023338" lon="13.560031643137336">
        <ele>1470.47</ele>
        <time>2013-09-12T11:16:28Z</time>
      </trkpt>
      <trkpt lat="42.499182494357228" lon="13.560011861845851">
        <ele>1470.95</ele>
        <time>2013-09-12T11:16:44Z</time>
      </trkpt>
      <trkpt lat="42.499184254556894" lon="13.560021836310625">
        <ele>1470.47</ele>
        <time>2013-09-12T11:17:08Z</time>
      </trkpt>
    </trkseg>
  </trk>

  <trk>
    <name>5-g-p-tivo-madonnina2013-09-12</name>
    <extensions>
      <gpxx:TrackExtension>
        <gpxx:DisplayColor>Yellow</gpxx:DisplayColor>
      </gpxx:TrackExtension>
    </extensions>
    <trkseg>
      <trkpt lat="42.499111080542207" lon="13.559837769716978">
        <ele>1472.8800000000001</ele>
        <time>2013-09-12T12:02:13Z</time>
      </trkpt>
      <trkpt lat="42.499099345877767" lon="13.559815306216478">
        <ele>1472.8800000000001</ele>
        <time>2013-09-12T12:02:15Z</time>
      </trkpt>
      <trkpt lat="42.499005720019341" lon="13.559801978990436">
        <ele>1472.4000000000001</ele>
        <time>2013-09-12T12:02:29Z</time>
      </trkpt>
      <trkpt lat="42.498923242092133" lon="13.559663090854883">
        <ele>1472.8800000000001</ele>
        <time>2013-09-12T12:02:43Z</time>
      </trkpt>
      <trkpt lat="42.498793993145227" lon="13.559545073658228">
        <ele>1473.3599999999999</ele>
        <time>2013-09-12T12:02:58Z</time>
      </trkpt>
      <trkpt lat="42.498719561845064" lon="13.559522023424506">
        <ele>1474.8</ele>
        <time>2013-09-12T12:03:12Z</time>
      </trkpt>
      <trkpt lat="42.498626271262765" lon="13.559547169134021">
        <ele>1476.24</ele>
        <time>2013-09-12T12:03:28Z</time>
      </trkpt>
      <trkpt lat="42.498501800000668" lon="13.559531578794122">
        <ele>1478.1600000000001</ele>
        <time>2013-09-12T12:03:44Z</time>
      </trkpt>
      <trkpt lat="42.498441282659769" lon="13.559428062289953">
        <ele>1479.6099999999999</ele>
        <time>2013-09-12T12:03:58Z</time>
      </trkpt>
      <trkpt lat="42.498380430042744" lon="13.55927349999547">
        <ele>1482.01</ele>
        <time>2013-09-12T12:04:12Z</time>
      </trkpt>
      <trkpt lat="42.498281691223383" lon="13.559392020106316">
        <ele>1484.4100000000001</ele>
        <time>2013-09-12T12:04:28Z</time>
      </trkpt>
      <trkpt lat="42.498187478631735" lon="13.559472570195794">
        <ele>1486.8199999999999</ele>
        <time>2013-09-12T12:04:42Z</time>
      </trkpt>
      <trkpt lat="42.49815110117197" lon="13.559473408386111">
        <ele>1488.26</ele>
        <time>2013-09-12T12:04:46Z</time>
      </trkpt>
      <trkpt lat="42.498042471706867" lon="13.559598969295621">
        <ele>1488.74</ele>
        <time>2013-09-12T12:05:02Z</time>
      </trkpt>
      <trkpt lat="42.497953539714217" lon="13.559683123603463">
        <ele>1490.6600000000001</ele>
        <time>2013-09-12T12:05:18Z</time>
      </trkpt>
      <trkpt lat="42.49790039844811" lon="13.559725033119321">
        <ele>1492.5799999999999</ele>
        <time>2013-09-12T12:05:36Z</time>
      </trkpt>
      <trkpt lat="42.497819261625409" lon="13.559773061424494">
        <ele>1494.51</ele>
        <time>2013-09-12T12:05:50Z</time>
      </trkpt>
      <trkpt lat="42.497671153396368" lon="13.559823017567396">
        <ele>1497.3900000000001</ele>
        <time>2013-09-12T12:06:06Z</time>
      </trkpt>
      <trkpt lat="42.497561518102884" lon="13.559946650639176">
        <ele>1500.76</ele>
        <time>2013-09-12T12:06:25Z</time>
      </trkpt>
      <trkpt lat="42.497467892244458" lon="13.560078665614128">
        <ele>1503.1600000000001</ele>
        <time>2013-09-12T12:06:43Z</time>
      </trkpt>
      <trkpt lat="42.497370326891541" lon="13.56013398617506">
        <ele>1506.52</ele>
        <time>2013-09-12T12:06:57Z</time>
      </trkpt>
      <trkpt lat="42.497274857014418" lon="13.560223923996091">
        <ele>1508.45</ele>
        <time>2013-09-12T12:07:15Z</time>
      </trkpt>
      <trkpt lat="42.497252393513918" lon="13.560231383889914">
        <ele>1509.4100000000001</ele>
        <time>2013-09-12T12:07:37Z</time>
      </trkpt>
      <trkpt lat="42.497134627774358" lon="13.560286452993751">
        <ele>1510.8499999999999</ele>
        <time>2013-09-12T12:07:52Z</time>
      </trkpt>
      <trkpt lat="42.497048797085881" lon="13.560361051931977">
        <ele>1513.73</ele>
        <time>2013-09-12T12:08:07Z</time>
      </trkpt>
      <trkpt lat="42.496967995539308" lon="13.560408996418118">
        <ele>1517.0999999999999</ele>
        <time>2013-09-12T12:08:19Z</time>
      </trkpt>
      <trkpt lat="42.496867161244154" lon="13.560467166826129">
        <ele>1517.5799999999999</ele>
        <time>2013-09-12T12:08:36Z</time>
      </trkpt>
      <trkpt lat="42.496833046898246" lon="13.560484014451504">
        <ele>1519.5</ele>
        <time>2013-09-12T12:08:42Z</time>
      </trkpt>
      <trkpt lat="42.496795244514942" lon="13.560474123805761">
        <ele>1519.5</ele>
        <time>2013-09-12T12:09:04Z</time>
      </trkpt>
      <trkpt lat="42.496786443516612" lon="13.560488121584058">
        <ele>1521.4200000000001</ele>
        <time>2013-09-12T12:09:06Z</time>
      </trkpt>
      <trkpt lat="42.496704217046499" lon="13.560553416609764">
        <ele>1524.3099999999999</ele>
        <time>2013-09-12T12:09:20Z</time>
      </trkpt>
      <trkpt lat="42.496675970032811" lon="13.560584932565689">
        <ele>1524.79</ele>
        <time>2013-09-12T12:09:33Z</time>
      </trkpt>
      <trkpt lat="42.496674880385399" lon="13.560554841533303">
        <ele>1524.3099999999999</ele>
        <time>2013-09-12T12:09:52Z</time>
      </trkpt>
      <trkpt lat="42.496649315580726" lon="13.560629356652498">
        <ele>1525.75</ele>
        <time>2013-09-12T12:10:12Z</time>
      </trkpt>
      <trkpt lat="42.496538842096925" lon="13.560712840408087">
        <ele>1529.1099999999999</ele>
        <time>2013-09-12T12:10:29Z</time>
      </trkpt>
      <trkpt lat="42.496424512937665" lon="13.560791043564677">
        <ele>1532</ele>
        <time>2013-09-12T12:10:44Z</time>
      </trkpt>
      <trkpt lat="42.49635930173099" lon="13.56088500469923">
        <ele>1535.3599999999999</ele>
        <time>2013-09-12T12:10:57Z</time>
      </trkpt>
      <trkpt lat="42.496310770511627" lon="13.560938648879528">
        <ele>1536.3199999999999</ele>
        <time>2013-09-12T12:11:04Z</time>
      </trkpt>
      <trkpt lat="42.49623323790729" lon="13.561023892834783">
        <ele>1538.73</ele>
        <time>2013-09-12T12:11:18Z</time>
      </trkpt>
      <trkpt lat="42.49613449908793" lon="13.561065969988704">
        <ele>1539.21</ele>
        <time>2013-09-12T12:11:33Z</time>
      </trkpt>
      <trkpt lat="42.496089236810803" lon="13.56107703410089">
        <ele>1539.6900000000001</ele>
        <time>2013-09-12T12:11:38Z</time>
      </trkpt>
      <trkpt lat="42.496031317859888" lon="13.56116839684546">
        <ele>1541.6099999999999</ele>
        <time>2013-09-12T12:11:51Z</time>
      </trkpt>
      <trkpt lat="42.495920928195119" lon="13.56118306517601">
        <ele>1544.01</ele>
        <time>2013-09-12T12:12:06Z</time>
      </trkpt>
      <trkpt lat="42.495869211852551" lon="13.561270069330931">
        <ele>1546.4200000000001</ele>
        <time>2013-09-12T12:12:18Z</time>
      </trkpt>
      <trkpt lat="42.495837528258562" lon="13.561297142878175">
        <ele>1548.3399999999999</ele>
        <time>2013-09-12T12:12:23Z</time>
      </trkpt>
      <trkpt lat="42.495794277638197" lon="13.561396384611726">
        <ele>1549.78</ele>
        <time>2013-09-12T12:12:35Z</time>
      </trkpt>
      <trkpt lat="42.49572454020381" lon="13.56148892082274">
        <ele>1552.1900000000001</ele>
        <time>2013-09-12T12:12:49Z</time>
      </trkpt>
      <trkpt lat="42.495648683980107" lon="13.561563603579998">
        <ele>1555.0699999999999</ele>
        <time>2013-09-12T12:13:03Z</time>
      </trkpt>
      <trkpt lat="42.495564613491297" lon="13.561616325750947">
        <ele>1557.47</ele>
        <time>2013-09-12T12:13:16Z</time>
      </trkpt>
      <trkpt lat="42.495557656511664" lon="13.561617666855454">
        <ele>1556.99</ele>
        <time>2013-09-12T12:13:17Z</time>
      </trkpt>
      <trkpt lat="42.495451373979449" lon="13.561647338792682">
        <ele>1560.3599999999999</ele>
        <time>2013-09-12T12:13:32Z</time>
      </trkpt>
      <trkpt lat="42.4953693151474" lon="13.561664689332247">
        <ele>1562.28</ele>
        <time>2013-09-12T12:13:45Z</time>
      </trkpt>
      <trkpt lat="42.49529211781919" lon="13.561675334349275">
        <ele>1564.6800000000001</ele>
        <time>2013-09-12T12:13:58Z</time>
      </trkpt>
      <trkpt lat="42.495227074250579" lon="13.561741635203362">
        <ele>1568.53</ele>
        <time>2013-09-12T12:14:13Z</time>
      </trkpt>
      <trkpt lat="42.49514359049499" lon="13.561796955764294">
        <ele>1571.8900000000001</ele>
        <time>2013-09-12T12:14:28Z</time>
      </trkpt>
      <trkpt lat="42.49507418833673" lon="13.561852443963289">
        <ele>1573.8199999999999</ele>
        <time>2013-09-12T12:14:42Z</time>
      </trkpt>
      <trkpt lat="42.495021214708686" lon="13.561942297965288">
        <ele>1577.1800000000001</ele>
        <time>2013-09-12T12:14:58Z</time>
      </trkpt>
      <trkpt lat="42.494968576356769" lon="13.562004072591662">
        <ele>1579.5799999999999</ele>
        <time>2013-09-12T12:15:13Z</time>
      </trkpt>
      <trkpt lat="42.494957176968455" lon="13.561977669596672">
        <ele>1580.0599999999999</ele>
        <time>2013-09-12T12:15:49Z</time>
      </trkpt>
      <trkpt lat="42.49490269459784" lon="13.56208068318665">
        <ele>1581.99</ele>
        <time>2013-09-12T12:16:07Z</time>
      </trkpt>
      <trkpt lat="42.494844105094671" lon="13.56213198043406">
        <ele>1584.8699999999999</ele>
        <time>2013-09-12T12:16:22Z</time>
      </trkpt>
      <trkpt lat="42.494754837825894" lon="13.562126280739903">
        <ele>1587.27</ele>
        <time>2013-09-12T12:16:35Z</time>
      </trkpt>
      <trkpt lat="42.494750563055277" lon="13.562117647379637">
        <ele>1587.75</ele>
        <time>2013-09-12T12:16:50Z</time>
      </trkpt>
      <trkpt lat="42.49470186419785" lon="13.562166597694159">
        <ele>1589.2</ele>
        <time>2013-09-12T12:17:08Z</time>
      </trkpt>
      <trkpt lat="42.49463053420186" lon="13.562193252146244">
        <ele>1591.5999999999999</ele>
        <time>2013-09-12T12:17:21Z</time>
      </trkpt>
      <trkpt lat="42.49454596079886" lon="13.562257122248411">
        <ele>1594.48</ele>
        <time>2013-09-12T12:17:35Z</time>
      </trkpt>
      <trkpt lat="42.49447169713676" lon="13.562325602397323">
        <ele>1596.8900000000001</ele>
        <time>2013-09-12T12:17:49Z</time>
      </trkpt>
      <trkpt lat="42.494430961087346" lon="13.562405901029706">
        <ele>1598.3299999999999</ele>
        <time>2013-09-12T12:18:02Z</time>
      </trkpt>
      <trkpt lat="42.494395337998867" lon="13.5624666698277">
        <ele>1600.25</ele>
        <time>2013-09-12T12:18:10Z</time>
      </trkpt>
      <trkpt lat="42.494316296651959" lon="13.562536658719182">
        <ele>1602.1700000000001</ele>
        <time>2013-09-12T12:18:25Z</time>
      </trkpt>
      <trkpt lat="42.494269525632262" lon="13.562576808035374">
        <ele>1605.54</ele>
        <time>2013-09-12T12:18:37Z</time>
      </trkpt>
      <trkpt lat="42.494195010513067" lon="13.562609497457743">
        <ele>1608.4200000000001</ele>
        <time>2013-09-12T12:18:51Z</time>
      </trkpt>
      <trkpt lat="42.494132481515408" lon="13.562648305669427">
        <ele>1611.79</ele>
        <time>2013-09-12T12:19:05Z</time>
      </trkpt>
      <trkpt lat="42.494057295843959" lon="13.56266213580966">
        <ele>1615.1500000000001</ele>
        <time>2013-09-12T12:19:19Z</time>
      </trkpt>
      <trkpt lat="42.494025444611907" lon="13.562759198248386">
        <ele>1617.5599999999999</ele>
        <time>2013-09-12T12:19:34Z</time>
      </trkpt>
      <trkpt lat="42.493972135707736" lon="13.562806136906147">
        <ele>1619.96</ele>
        <time>2013-09-12T12:19:47Z</time>
      </trkpt>
      <trkpt lat="42.493963586166501" lon="13.562820386141539">
        <ele>1619.96</ele>
        <time>2013-09-12T12:20:06Z</time>
      </trkpt>
      <trkpt lat="42.493960903957486" lon="13.562824074178934">
        <ele>1620.9200000000001</ele>
        <time>2013-09-12T12:20:19Z</time>
      </trkpt>
      <trkpt lat="42.493971297517419" lon="13.562820553779602">
        <ele>1620.9200000000001</ele>
        <time>2013-09-12T12:20:49Z</time>
      </trkpt>
      <trkpt lat="42.493959227576852" lon="13.562846621498466">
        <ele>1621.8800000000001</ele>
        <time>2013-09-12T12:21:10Z</time>
      </trkpt>
      <trkpt lat="42.493863254785538" lon="13.562939409166574">
        <ele>1624.28</ele>
        <time>2013-09-12T12:21:26Z</time>
      </trkpt>
      <trkpt lat="42.493820004165173" lon="13.562969667837024">
        <ele>1626.21</ele>
        <time>2013-09-12T12:21:38Z</time>
      </trkpt>
      <trkpt lat="42.493760492652655" lon="13.562972098588943">
        <ele>1628.1300000000001</ele>
        <time>2013-09-12T12:21:49Z</time>
      </trkpt>
      <trkpt lat="42.493705172091722" lon="13.563021719455719">
        <ele>1630.53</ele>
        <time>2013-09-12T12:22:06Z</time>
      </trkpt>
      <trkpt lat="42.493648091331124" lon="13.563069244846702">
        <ele>1633.9000000000001</ele>
        <time>2013-09-12T12:22:22Z</time>
      </trkpt>
      <trkpt lat="42.493597632274032" lon="13.563090534880757">
        <ele>1635.8199999999999</ele>
        <time>2013-09-12T12:22:34Z</time>
      </trkpt>
      <trkpt lat="42.493549603968859" lon="13.563119117170572">
        <ele>1638.7</ele>
        <time>2013-09-12T12:22:48Z</time>
      </trkpt>
      <trkpt lat="42.493496797978878" lon="13.563191620633006">
        <ele>1641.5899999999999</ele>
        <time>2013-09-12T12:23:03Z</time>
      </trkpt>
      <trkpt lat="42.493421109393239" lon="13.563223890960217">
        <ele>1644.95</ele>
        <time>2013-09-12T12:23:19Z</time>
      </trkpt>
      <trkpt lat="42.493347348645329" lon="13.563266973942518">
        <ele>1647.3599999999999</ele>
        <time>2013-09-12T12:23:36Z</time>
      </trkpt>
      <trkpt lat="42.49330191873014" lon="13.563331263139844">
        <ele>1649.28</ele>
        <time>2013-09-12T12:23:49Z</time>
      </trkpt>
      <trkpt lat="42.493258751928806" lon="13.563394043594599">
        <ele>1652.6400000000001</ele>
        <time>2013-09-12T12:24:03Z</time>
      </trkpt>
      <trkpt lat="42.493202928453684" lon="13.563465205952525">
        <ele>1654.5699999999999</ele>
        <time>2013-09-12T12:24:19Z</time>
      </trkpt>
      <trkpt lat="42.493118019774556" lon="13.563503595069051">
        <ele>1656.49</ele>
        <time>2013-09-12T12:24:34Z</time>
      </trkpt>
      <trkpt lat="42.493091365322471" lon="13.563519017770886">
        <ele>1657.9300000000001</ele>
        <time>2013-09-12T12:24:52Z</time>
      </trkpt>
      <trkpt lat="42.493033027276397" lon="13.563520023599267">
        <ele>1659.3699999999999</ele>
        <time>2013-09-12T12:25:14Z</time>
      </trkpt>
      <trkpt lat="42.493018945679069" lon="13.56357442215085">
        <ele>1660.8099999999999</ele>
        <time>2013-09-12T12:25:30Z</time>
      </trkpt>
      <trkpt lat="42.492968486621976" lon="13.563572745770216">
        <ele>1663.7</ele>
        <time>2013-09-12T12:25:45Z</time>
      </trkpt>
      <trkpt lat="42.49288659542799" lon="13.563605435192585">
        <ele>1666.5799999999999</ele>
        <time>2013-09-12T12:25:58Z</time>
      </trkpt>
      <trkpt lat="42.492843680083752" lon="13.563683722168207">
        <ele>1669.47</ele>
        <time>2013-09-12T12:26:11Z</time>
      </trkpt>
      <trkpt lat="42.492798082530499" lon="13.563672741875052">
        <ele>1671.3900000000001</ele>
        <time>2013-09-12T12:26:16Z</time>
      </trkpt>
      <trkpt lat="42.492750640958548" lon="13.563755638897419">
        <ele>1673.3099999999999</ele>
        <time>2013-09-12T12:26:29Z</time>
      </trkpt>
      <trkpt lat="42.49270923435688" lon="13.563822777941823">
        <ele>1676.2</ele>
        <time>2013-09-12T12:26:41Z</time>
      </trkpt>
      <trkpt lat="42.492624241858721" lon="13.563827974721789">
        <ele>1678.5999999999999</ele>
        <time>2013-09-12T12:26:55Z</time>
      </trkpt>
      <trkpt lat="42.492562048137188" lon="13.563848594203591">
        <ele>1681.96</ele>
        <time>2013-09-12T12:27:08Z</time>
      </trkpt>
      <trkpt lat="42.49249029904604" lon="13.563884804025292">
        <ele>1684.8499999999999</ele>
        <time>2013-09-12T12:27:25Z</time>
      </trkpt>
      <trkpt lat="42.492408575490117" lon="13.563872063532472">
        <ele>1688.21</ele>
        <time>2013-09-12T12:27:40Z</time>
      </trkpt>
      <trkpt lat="42.492348561063409" lon="13.563899639993906">
        <ele>1691.0999999999999</ele>
        <time>2013-09-12T12:27:56Z</time>
      </trkpt>
      <trkpt lat="42.492295503616333" lon="13.563930317759514">
        <ele>1693.98</ele>
        <time>2013-09-12T12:28:11Z</time>
      </trkpt>
      <trkpt lat="42.49223917722702" lon="13.563964935019612">
        <ele>1696.3800000000001</ele>
        <time>2013-09-12T12:28:25Z</time>
      </trkpt>
      <trkpt lat="42.49216784723103" lon="13.563947500661016">
        <ele>1698.3099999999999</ele>
        <time>2013-09-12T12:28:39Z</time>
      </trkpt>
      <trkpt lat="42.492109509184957" lon="13.563943644985557">
        <ele>1700.71</ele>
        <time>2013-09-12T12:28:53Z</time>
      </trkpt>
      <trkpt lat="42.492045639082789" lon="13.564016735181212">
        <ele>1703.5899999999999</ele>
        <time>2013-09-12T12:29:07Z</time>
      </trkpt>
      <trkpt lat="42.491998868063092" lon="13.564120503142476">
        <ele>1705.52</ele>
        <time>2013-09-12T12:29:21Z</time>
      </trkpt>
      <trkpt lat="42.491970201954246" lon="13.564128382131457">
        <ele>1707.4400000000001</ele>
        <time>2013-09-12T12:29:34Z</time>
      </trkpt>
      <trkpt lat="42.491970956325531" lon="13.564096949994564">
        <ele>1707.4400000000001</ele>
        <time>2013-09-12T12:29:38Z</time>
      </trkpt>
      <trkpt lat="42.491991827264428" lon="13.564249752089381">
        <ele>1707.9200000000001</ele>
        <time>2013-09-12T12:29:50Z</time>
      </trkpt>
      <trkpt lat="42.492002723738551" lon="13.564356453716755">
        <ele>1709.3599999999999</ele>
        <time>2013-09-12T12:30:02Z</time>
      </trkpt>
      <trkpt lat="42.491956036537886" lon="13.564426777884364">
        <ele>1712.25</ele>
        <time>2013-09-12T12:30:16Z</time>
      </trkpt>
      <trkpt lat="42.49188881367445" lon="13.564457204192877">
        <ele>1715.1300000000001</ele>
        <time>2013-09-12T12:30:32Z</time>
      </trkpt>
      <trkpt lat="42.491845227777958" lon="13.564407331869006">
        <ele>1718.01</ele>
        <time>2013-09-12T12:30:46Z</time>
      </trkpt>
      <trkpt lat="42.491758475080132" lon="13.564395597204566">
        <ele>1720.4200000000001</ele>
        <time>2013-09-12T12:31:03Z</time>
      </trkpt>
      <trkpt lat="42.491704160347581" lon="13.564417976886034">
        <ele>1723.3</ele>
        <time>2013-09-12T12:31:20Z</time>
      </trkpt>
      <trkpt lat="42.491680104285479" lon="13.564521661028266">
        <ele>1726.6700000000001</ele>
        <time>2013-09-12T12:31:35Z</time>
      </trkpt>
      <trkpt lat="42.491667196154594" lon="13.564596930518746">
        <ele>1729.55</ele>
        <time>2013-09-12T12:31:51Z</time>
      </trkpt>
      <trkpt lat="42.491676332429051" lon="13.564619394019246">
        <ele>1729.55</ele>
        <time>2013-09-12T12:32:21Z</time>
      </trkpt>
      <trkpt lat="42.491630651056767" lon="13.564628697931767">
        <ele>1730.51</ele>
        <time>2013-09-12T12:32:44Z</time>
      </trkpt>
      <trkpt lat="42.491575079038739" lon="13.564686784520745">
        <ele>1733.8800000000001</ele>
        <time>2013-09-12T12:32:57Z</time>
      </trkpt>
      <trkpt lat="42.491463683545589" lon="13.564662896096706">
        <ele>1737.24</ele>
        <time>2013-09-12T12:33:13Z</time>
      </trkpt>
      <trkpt lat="42.491391934454441" lon="13.56470656581223">
        <ele>1740.1199999999999</ele>
        <time>2013-09-12T12:33:28Z</time>
      </trkpt>
      <trkpt lat="42.49136452563107" lon="13.564772447571158">
        <ele>1743.01</ele>
        <time>2013-09-12T12:33:42Z</time>
      </trkpt>
      <trkpt lat="42.491357233375311" lon="13.564834054559469">
        <ele>1746.3699999999999</ele>
        <time>2013-09-12T12:33:57Z</time>
      </trkpt>
      <trkpt lat="42.491314904764295" lon="13.564851991832256">
        <ele>1748.29</ele>
        <time>2013-09-12T12:34:10Z</time>
      </trkpt>
      <trkpt lat="42.491232929751277" lon="13.564897421747446">
        <ele>1751.1800000000001</ele>
        <time>2013-09-12T12:34:25Z</time>
      </trkpt>
      <trkpt lat="42.491173502057791" lon="13.56495869345963">
        <ele>1754.0599999999999</ele>
        <time>2013-09-12T12:34:40Z</time>
      </trkpt>
      <trkpt lat="42.491133604198694" lon="13.565002446994185">
        <ele>1755.99</ele>
        <time>2013-09-12T12:34:52Z</time>
      </trkpt>
      <trkpt lat="42.491091694682837" lon="13.565083835273981">
        <ele>1757.9100000000001</ele>
        <time>2013-09-12T12:35:05Z</time>
      </trkpt>
      <trkpt lat="42.491088090464473" lon="13.565127337351441">
        <ele>1758.3900000000001</ele>
        <time>2013-09-12T12:35:19Z</time>
      </trkpt>
      <trkpt lat="42.491064285859466" lon="13.565116105601192">
        <ele>1758.8699999999999</ele>
        <time>2013-09-12T12:35:40Z</time>
      </trkpt>
      <trkpt lat="42.491018436849117" lon="13.565047290176153">
        <ele>1758.8699999999999</ele>
        <time>2013-09-12T12:36:00Z</time>
      </trkpt>
      <trkpt lat="42.491087084636092" lon="13.565135970711708">
        <ele>1758.3900000000001</ele>
        <time>2013-09-12T12:36:21Z</time>
      </trkpt>
      <trkpt lat="42.49108012765646" lon="13.565139574930072">
        <ele>1759.3499999999999</ele>
        <time>2013-09-12T12:36:51Z</time>
      </trkpt>
      <trkpt lat="42.49105816707015" lon="13.565145190805197">
        <ele>1758.8699999999999</ele>
        <time>2013-09-12T12:37:04Z</time>
      </trkpt>
      <trkpt lat="42.49103813432157" lon="13.565077632665634">
        <ele>1759.3499999999999</ele>
        <time>2013-09-12T12:37:23Z</time>
      </trkpt>
      <trkpt lat="42.491030758246779" lon="13.565061958506703">
        <ele>1758.3900000000001</ele>
        <time>2013-09-12T12:37:25Z</time>
      </trkpt>
      <trkpt lat="42.49097066000104" lon="13.564983420073986">
        <ele>1757.9100000000001</ele>
        <time>2013-09-12T12:37:39Z</time>
      </trkpt>
      <trkpt lat="42.490961691364646" lon="13.564978893846273">
        <ele>1758.3900000000001</ele>
        <time>2013-09-12T12:37:45Z</time>
      </trkpt>
      <trkpt lat="42.490978371351957" lon="13.565035220235586">
        <ele>1758.3900000000001</ele>
        <time>2013-09-12T12:37:56Z</time>
      </trkpt>
      <trkpt lat="42.490975521504879" lon="13.565037399530411">
        <ele>1758.3900000000001</ele>
        <time>2013-09-12T12:38:11Z</time>
      </trkpt>
      <trkpt lat="42.490900168195367" lon="13.564913850277662">
        <ele>1757.4300000000001</ele>
        <time>2013-09-12T12:38:25Z</time>
      </trkpt>
      <trkpt lat="42.49087636359036" lon="13.564832210540771">
        <ele>1757.4300000000001</ele>
        <time>2013-09-12T12:38:42Z</time>
      </trkpt>
      <trkpt lat="42.490837471559644" lon="13.564798766747117">
        <ele>1757.4300000000001</ele>
        <time>2013-09-12T12:38:52Z</time>
      </trkpt>
      <trkpt lat="42.490847865119576" lon="13.564768675714731">
        <ele>1756.47</ele>
        <time>2013-09-12T12:39:08Z</time>
      </trkpt>
      <trkpt lat="42.490815762430429" lon="13.564744284376502">
        <ele>1757.4300000000001</ele>
        <time>2013-09-12T12:39:27Z</time>
      </trkpt>
      <trkpt lat="42.490772008895874" lon="13.564632637426257">
        <ele>1756.47</ele>
        <time>2013-09-12T12:39:39Z</time>
      </trkpt>
      <trkpt lat="42.490686764940619" lon="13.564590895548463">
        <ele>1758.8699999999999</ele>
        <time>2013-09-12T12:39:56Z</time>
      </trkpt>
      <trkpt lat="42.490609483793378" lon="13.564502047374845">
        <ele>1759.8299999999999</ele>
        <time>2013-09-12T12:40:11Z</time>
      </trkpt>
      <trkpt lat="42.490555504336953" lon="13.564481763169169">
        <ele>1762.23</ele>
        <time>2013-09-12T12:40:27Z</time>
      </trkpt>
      <trkpt lat="42.490539830178022" lon="13.564381515607238">
        <ele>1764.6400000000001</ele>
        <time>2013-09-12T12:40:40Z</time>
      </trkpt>
      <trkpt lat="42.49047520570457" lon="13.564340779557824">
        <ele>1768</ele>
        <time>2013-09-12T12:40:59Z</time>
      </trkpt>
      <trkpt lat="42.490465231239796" lon="13.564396938309073">
        <ele>1769.4400000000001</ele>
        <time>2013-09-12T12:41:15Z</time>
      </trkpt>
      <trkpt lat="42.490436732769012" lon="13.564453013241291">
        <ele>1772.8099999999999</ele>
        <time>2013-09-12T12:41:30Z</time>
      </trkpt>
      <trkpt lat="42.490386441349983" lon="13.564410516992211">
        <ele>1775.21</ele>
        <time>2013-09-12T12:41:44Z</time>
      </trkpt>
      <trkpt lat="42.490397924557328" lon="13.564471453428268">
        <ele>1776.6500000000001</ele>
        <time>2013-09-12T12:41:57Z</time>
      </trkpt>
      <trkpt lat="42.490344615653157" lon="13.564564576372504">
        <ele>1778.5799999999999</ele>
        <time>2013-09-12T12:42:11Z</time>
      </trkpt>
      <trkpt lat="42.490290887653828" lon="13.564605228602886">
        <ele>1780.98</ele>
        <time>2013-09-12T12:42:26Z</time>
      </trkpt>
      <trkpt lat="42.490294324234128" lon="13.56457999907434">
        <ele>1782.4200000000001</ele>
        <time>2013-09-12T12:42:39Z</time>
      </trkpt>
      <trkpt lat="42.490265909582376" lon="13.564653508365154">
        <ele>1783.3800000000001</ele>
        <time>2013-09-12T12:42:53Z</time>
      </trkpt>
      <trkpt lat="42.490228358656168" lon="13.564737914130092">
        <ele>1786.27</ele>
        <time>2013-09-12T12:43:05Z</time>
      </trkpt>
      <trkpt lat="42.490178989246488" lon="13.564763562753797">
        <ele>1788.6700000000001</ele>
        <time>2013-09-12T12:43:19Z</time>
      </trkpt>
      <trkpt lat="42.490156022831798" lon="13.564818548038602">
        <ele>1791.55</ele>
        <time>2013-09-12T12:43:32Z</time>
      </trkpt>
      <trkpt lat="42.490088380873203" lon="13.56481896713376">
        <ele>1794.4400000000001</ele>
        <time>2013-09-12T12:43:45Z</time>
      </trkpt>
      <trkpt lat="42.490029204636812" lon="13.564838748425245">
        <ele>1797.3199999999999</ele>
        <time>2013-09-12T12:44:02Z</time>
      </trkpt>
      <trkpt lat="42.490010429173708" lon="13.564862217754126">
        <ele>1798.76</ele>
        <time>2013-09-12T12:44:07Z</time>
      </trkpt>
      <trkpt lat="42.48998268507421" lon="13.564855009317398">
        <ele>1799.24</ele>
        <time>2013-09-12T12:44:21Z</time>
      </trkpt>
      <trkpt lat="42.489965753629804" lon="13.5649049654603">
        <ele>1800.6900000000001</ele>
        <time>2013-09-12T12:44:34Z</time>
      </trkpt>
      <trkpt lat="42.489916384220123" lon="13.564928015694022">
        <ele>1804.05</ele>
        <time>2013-09-12T12:44:48Z</time>
      </trkpt>
      <trkpt lat="42.489870116114616" lon="13.564967745915055">
        <ele>1806.45</ele>
        <time>2013-09-12T12:45:00Z</time>
      </trkpt>
      <trkpt lat="42.489844970405102" lon="13.564965482801199">
        <ele>1807.9000000000001</ele>
        <time>2013-09-12T12:45:15Z</time>
      </trkpt>
      <trkpt lat="42.489805994555354" lon="13.564990377053618">
        <ele>1808.8599999999999</ele>
        <time>2013-09-12T12:45:32Z</time>
      </trkpt>
      <trkpt lat="42.489705327898264" lon="13.564953077584505">
        <ele>1809.3399999999999</ele>
        <time>2013-09-12T12:45:54Z</time>
      </trkpt>
      <trkpt lat="42.489676410332322" lon="13.564965147525072">
        <ele>1811.26</ele>
        <time>2013-09-12T12:46:09Z</time>
      </trkpt>
      <trkpt lat="42.489608181640506" lon="13.565012756735086">
        <ele>1813.6600000000001</ele>
        <time>2013-09-12T12:46:25Z</time>
      </trkpt>
      <trkpt lat="42.48959175311029" lon="13.565131360664964">
        <ele>1817.03</ele>
        <time>2013-09-12T12:46:41Z</time>
      </trkpt>
      <trkpt lat="42.489597033709288" lon="13.565161367878318">
        <ele>1816.55</ele>
        <time>2013-09-12T12:46:44Z</time>
      </trkpt>
      <trkpt lat="42.489570379257202" lon="13.565338058397174">
        <ele>1818.95</ele>
        <time>2013-09-12T12:47:02Z</time>
      </trkpt>
      <trkpt lat="42.489520339295268" lon="13.565378710627556">
        <ele>1821.8399999999999</ele>
        <time>2013-09-12T12:47:16Z</time>
      </trkpt>
      <trkpt lat="42.489494271576405" lon="13.565467558801174">
        <ele>1824.24</ele>
        <time>2013-09-12T12:47:33Z</time>
      </trkpt>
      <trkpt lat="42.489462336525321" lon="13.565548108890653">
        <ele>1827.5999999999999</ele>
        <time>2013-09-12T12:47:48Z</time>
      </trkpt>
      <trkpt lat="42.489509526640177" lon="13.565581133589149">
        <ele>1829.05</ele>
        <time>2013-09-12T12:47:57Z</time>
      </trkpt>
      <trkpt lat="42.489552106708288" lon="13.56565204448998">
        <ele>1831.45</ele>
        <time>2013-09-12T12:48:10Z</time>
      </trkpt>
      <trkpt lat="42.489537019282579" lon="13.565729074180126">
        <ele>1833.8499999999999</ele>
        <time>2013-09-12T12:48:24Z</time>
      </trkpt>
      <trkpt lat="42.489510951563716" lon="13.565745502710342">
        <ele>1834.8099999999999</ele>
        <time>2013-09-12T12:48:39Z</time>
      </trkpt>
      <trkpt lat="42.489486308768392" lon="13.565769894048572">
        <ele>1836.26</ele>
        <time>2013-09-12T12:48:56Z</time>
      </trkpt>
      <trkpt lat="42.489455211907625" lon="13.565843487158418">
        <ele>1839.6199999999999</ele>
        <time>2013-09-12T12:49:12Z</time>
      </trkpt>
      <trkpt lat="42.489431239664555" lon="13.565850025042892">
        <ele>1841.0599999999999</ele>
        <time>2013-09-12T12:49:29Z</time>
      </trkpt>
      <trkpt lat="42.489383714273572" lon="13.565782718360424">
        <ele>1840.5799999999999</ele>
        <time>2013-09-12T12:49:49Z</time>
      </trkpt>
      <trkpt lat="42.489362508058548" lon="13.565846672281623">
        <ele>1842.98</ele>
        <time>2013-09-12T12:50:09Z</time>
      </trkpt>
      <trkpt lat="42.489364519715309" lon="13.56591934338212">
        <ele>1845.8699999999999</ele>
        <time>2013-09-12T12:50:22Z</time>
      </trkpt>
      <trkpt lat="42.489361837506294" lon="13.566025290638208">
        <ele>1849.23</ele>
        <time>2013-09-12T12:50:35Z</time>
      </trkpt>
      <trkpt lat="42.489346582442522" lon="13.566096369177103">
        <ele>1850.6800000000001</ele>
        <time>2013-09-12T12:50:50Z</time>
      </trkpt>
      <trkpt lat="42.489325040951371" lon="13.566127717494965">
        <ele>1852.5999999999999</ele>
        <time>2013-09-12T12:51:03Z</time>
      </trkpt>
      <trkpt lat="42.489291094243526" lon="13.566169459372759">
        <ele>1855.96</ele>
        <time>2013-09-12T12:51:17Z</time>
      </trkpt>
      <trkpt lat="42.489269804209471" lon="13.566161664202809">
        <ele>1856.4400000000001</ele>
        <time>2013-09-12T12:51:46Z</time>
      </trkpt>
      <trkpt lat="42.489226721227169" lon="13.566223941743374">
        <ele>1859.8099999999999</ele>
        <time>2013-09-12T12:52:02Z</time>
      </trkpt>
      <trkpt lat="42.489208616316319" lon="13.566277585923672">
        <ele>1863.1700000000001</ele>
        <time>2013-09-12T12:52:14Z</time>
      </trkpt>
      <trkpt lat="42.489173663780093" lon="13.566308682784438">
        <ele>1866.0599999999999</ele>
        <time>2013-09-12T12:52:30Z</time>
      </trkpt>
      <trkpt lat="42.489142818376422" lon="13.566364673897624">
        <ele>1869.9000000000001</ele>
        <time>2013-09-12T12:52:44Z</time>
      </trkpt>
      <trkpt lat="42.489124126732349" lon="13.566367188468575">
        <ele>1870.3800000000001</ele>
        <time>2013-09-12T12:52:58Z</time>
      </trkpt>
      <trkpt lat="42.489068219438195" lon="13.56640893034637">
        <ele>1873.75</ele>
        <time>2013-09-12T12:53:12Z</time>
      </trkpt>
      <trkpt lat="42.4889868311584" lon="13.566379509866238">
        <ele>1876.1500000000001</ele>
        <time>2013-09-12T12:53:27Z</time>
      </trkpt>
      <trkpt lat="42.488956404849887" lon="13.566407756879926">
        <ele>1879.03</ele>
        <time>2013-09-12T12:53:38Z</time>
      </trkpt>
      <trkpt lat="42.48894089832902" lon="13.56639577075839">
        <ele>1880.48</ele>
        <time>2013-09-12T12:53:53Z</time>
      </trkpt>
      <trkpt lat="42.48883344233036" lon="13.566289152950048">
        <ele>1880.96</ele>
        <time>2013-09-12T12:54:08Z</time>
      </trkpt>
      <trkpt lat="42.488825395703316" lon="13.566299630329013">
        <ele>1880.48</ele>
        <time>2013-09-12T12:54:26Z</time>
      </trkpt>
      <trkpt lat="42.488799160346389" lon="13.566331649199128">
        <ele>1882.4000000000001</ele>
        <time>2013-09-12T12:54:46Z</time>
      </trkpt>
      <trkpt lat="42.488760687410831" lon="13.566346066072583">
        <ele>1885.28</ele>
        <time>2013-09-12T12:54:59Z</time>
      </trkpt>
      <trkpt lat="42.488740235567093" lon="13.566385712474585">
        <ele>1888.6500000000001</ele>
        <time>2013-09-12T12:55:11Z</time>
      </trkpt>
      <trkpt lat="42.488716850057244" lon="13.566465089097619">
        <ele>1891.53</ele>
        <time>2013-09-12T12:55:27Z</time>
      </trkpt>
      <trkpt lat="42.488649794831872" lon="13.566477997228503">
        <ele>1893.9300000000001</ele>
        <time>2013-09-12T12:55:39Z</time>
      </trkpt>
      <trkpt lat="42.48864040710032" lon="13.566525019705296">
        <ele>1897.3</ele>
        <time>2013-09-12T12:55:51Z</time>
      </trkpt>
      <trkpt lat="42.48862381093204" lon="13.566559636965394">
        <ele>1898.74</ele>
        <time>2013-09-12T12:56:07Z</time>
      </trkpt>
      <trkpt lat="42.488619619980454" lon="13.566565671935678">
        <ele>1899.22</ele>
        <time>2013-09-12T12:56:08Z</time>
      </trkpt>
      <trkpt lat="42.488560276106" lon="13.566582687199116">
        <ele>1903.0699999999999</ele>
        <time>2013-09-12T12:56:22Z</time>
      </trkpt>
      <trkpt lat="42.488558432087302" lon="13.566581681370735">
        <ele>1904.03</ele>
        <time>2013-09-12T12:56:37Z</time>
      </trkpt>
      <trkpt lat="42.488560276106" lon="13.5665990319103">
        <ele>1904.51</ele>
        <time>2013-09-12T12:56:41Z</time>
      </trkpt>
      <trkpt lat="42.4885896127671" lon="13.566738087683916">
        <ele>1906.9100000000001</ele>
        <time>2013-09-12T12:56:55Z</time>
      </trkpt>
      <trkpt lat="42.488561198115349" lon="13.566798772662878">
        <ele>1909.8</ele>
        <time>2013-09-12T12:57:08Z</time>
      </trkpt>
      <trkpt lat="42.48850948177278" lon="13.566764071583748">
        <ele>1912.2</ele>
        <time>2013-09-12T12:57:20Z</time>
      </trkpt>
      <trkpt lat="42.488479977473617" lon="13.566810339689255">
        <ele>1915.0799999999999</ele>
        <time>2013-09-12T12:57:32Z</time>
      </trkpt>
      <trkpt lat="42.488443767651916" lon="13.56679055839777">
        <ele>1917.49</ele>
        <time>2013-09-12T12:57:46Z</time>
      </trkpt>
      <trkpt lat="42.488405294716358" lon="13.566738339141011">
        <ele>1917.97</ele>
        <time>2013-09-12T12:58:03Z</time>
      </trkpt>
      <trkpt lat="42.488397331908345" lon="13.566730124875903">
        <ele>1917.97</ele>
        <time>2013-09-12T12:58:24Z</time>
      </trkpt>
      <trkpt lat="42.48833647929132" lon="13.566744290292263">
        <ele>1921.3299999999999</ele>
        <time>2013-09-12T12:58:35Z</time>
      </trkpt>
      <trkpt lat="42.488297922536731" lon="13.566782092675567">
        <ele>1923.74</ele>
        <time>2013-09-12T12:58:46Z</time>
      </trkpt>
      <trkpt lat="42.488258276134729" lon="13.566815871745348">
        <ele>1926.6199999999999</ele>
        <time>2013-09-12T12:58:59Z</time>
      </trkpt>
      <trkpt lat="42.488230615854263" lon="13.566822158172727">
        <ele>1928.54</ele>
        <time>2013-09-12T12:59:14Z</time>
      </trkpt>
      <trkpt lat="42.488212091848254" lon="13.566860212013125">
        <ele>1930.95</ele>
        <time>2013-09-12T12:59:26Z</time>
      </trkpt>
      <trkpt lat="42.488196920603514" lon="13.566936403512955">
        <ele>1934.3099999999999</ele>
        <time>2013-09-12T12:59:41Z</time>
      </trkpt>
      <trkpt lat="42.488174876198173" lon="13.566959956660867">
        <ele>1936.71</ele>
        <time>2013-09-12T12:59:53Z</time>
      </trkpt>
      <trkpt lat="42.488147551193833" lon="13.567009326070547">
        <ele>1939.1199999999999</ele>
        <time>2013-09-12T13:00:09Z</time>
      </trkpt>
      <trkpt lat="42.488121818751097" lon="13.567018965259194">
        <ele>1941.52</ele>
        <time>2013-09-12T13:00:21Z</time>
      </trkpt>
      <trkpt lat="42.488112263381481" lon="13.567003039643168">
        <ele>1941.04</ele>
        <time>2013-09-12T13:00:28Z</time>
      </trkpt>
      <trkpt lat="42.48804965056479" lon="13.566874880343676">
        <ele>1940.5599999999999</ele>
        <time>2013-09-12T13:00:42Z</time>
      </trkpt>
      <trkpt lat="42.48802375048399" lon="13.566805645823479">
        <ele>1940.5599999999999</ele>
        <time>2013-09-12T13:00:57Z</time>
      </trkpt>
      <trkpt lat="42.48801888898015" lon="13.566791480407119">
        <ele>1940.5599999999999</ele>
        <time>2013-09-12T13:01:13Z</time>
      </trkpt>
      <trkpt lat="42.487983601167798" lon="13.566800113767385">
        <ele>1941.52</ele>
        <time>2013-09-12T13:01:27Z</time>
      </trkpt>
      <trkpt lat="42.487909840419888" lon="13.566794916987419">
        <ele>1944.8800000000001</ele>
        <time>2013-09-12T13:01:40Z</time>
      </trkpt>
      <trkpt lat="42.487914115190506" lon="13.566868677735329">
        <ele>1947.77</ele>
        <time>2013-09-12T13:01:55Z</time>
      </trkpt>
      <trkpt lat="42.487940266728401" lon="13.566978899762034">
        <ele>1950.6500000000001</ele>
        <time>2013-09-12T13:02:10Z</time>
      </trkpt>
      <trkpt lat="42.487956276163459" lon="13.567035812884569">
        <ele>1953.54</ele>
        <time>2013-09-12T13:02:24Z</time>
      </trkpt>
      <trkpt lat="42.488008411601186" lon="13.56712818145752">
        <ele>1954.98</ele>
        <time>2013-09-12T13:02:35Z</time>
      </trkpt>
      <trkpt lat="42.488026600331068" lon="13.567226501181722">
        <ele>1957.8599999999999</ele>
        <time>2013-09-12T13:02:47Z</time>
      </trkpt>
      <trkpt lat="42.48808728531003" lon="13.567338734865189">
        <ele>1959.3</ele>
        <time>2013-09-12T13:03:03Z</time>
      </trkpt>
      <trkpt lat="42.488128943368793" lon="13.567457590252161">
        <ele>1961.71</ele>
        <time>2013-09-12T13:03:17Z</time>
      </trkpt>
      <trkpt lat="42.4881855212152" lon="13.567565213888884">
        <ele>1963.6300000000001</ele>
        <time>2013-09-12T13:03:30Z</time>
      </trkpt>
      <trkpt lat="42.488223323598504" lon="13.567670239135623">
        <ele>1966.99</ele>
        <time>2013-09-12T13:03:44Z</time>
      </trkpt>
      <trkpt lat="42.488279398530722" lon="13.567802589386702">
        <ele>1968.9200000000001</ele>
        <time>2013-09-12T13:04:00Z</time>
      </trkpt>
      <trkpt lat="42.488337233662605" lon="13.567899316549301">
        <ele>1970.8399999999999</ele>
        <time>2013-09-12T13:04:13Z</time>
      </trkpt>
      <trkpt lat="42.488405797630548" lon="13.568000234663486">
        <ele>1972.76</ele>
        <time>2013-09-12T13:04:28Z</time>
      </trkpt>
      <trkpt lat="42.488433290272951" lon="13.568080784752965">
        <ele>1973.72</ele>
        <time>2013-09-12T13:04:40Z</time>
      </trkpt>
      <trkpt lat="42.488536974415183" lon="13.568166699260473">
        <ele>1975.1700000000001</ele>
        <time>2013-09-12T13:04:53Z</time>
      </trkpt>
      <trkpt lat="42.488554576411843" lon="13.568262672051787">
        <ele>1977.5699999999999</ele>
        <time>2013-09-12T13:05:07Z</time>
      </trkpt>
      <trkpt lat="42.488565891981125" lon="13.568289494141936">
        <ele>1979.01</ele>
        <time>2013-09-12T13:05:10Z</time>
      </trkpt>
      <trkpt lat="42.48857737518847" lon="13.568389154970646">
        <ele>1981.9000000000001</ele>
        <time>2013-09-12T13:05:24Z</time>
      </trkpt>
      <trkpt lat="42.488476121798158" lon="13.568376582115889">
        <ele>1983.3399999999999</ele>
        <time>2013-09-12T13:05:39Z</time>
      </trkpt>
      <trkpt lat="42.488439744338393" lon="13.568336684256792">
        <ele>1984.3</ele>
        <time>2013-09-12T13:05:54Z</time>
      </trkpt>
      <trkpt lat="42.488462124019861" lon="13.568446571007371">
        <ele>1986.7</ele>
        <time>2013-09-12T13:06:09Z</time>
      </trkpt>
      <trkpt lat="42.488490538671613" lon="13.568562073633075">
        <ele>1989.0999999999999</ele>
        <time>2013-09-12T13:06:22Z</time>
      </trkpt>
      <trkpt lat="42.488498250022531" lon="13.568574478849769">
        <ele>1989.5899999999999</ele>
        <time>2013-09-12T13:06:24Z</time>
      </trkpt>
      <trkpt lat="42.488518366590142" lon="13.568641450256109">
        <ele>1991.03</ele>
        <time>2013-09-12T13:06:37Z</time>
      </trkpt>
      <trkpt lat="42.488548876717687" lon="13.568606665357947">
        <ele>1990.55</ele>
        <time>2013-09-12T13:06:57Z</time>
      </trkpt>
      <trkpt lat="42.488601598888636" lon="13.568620076403022">
        <ele>1991.03</ele>
        <time>2013-09-12T13:07:03Z</time>
      </trkpt>
      <trkpt lat="42.488566227257252" lon="13.568697357550263">
        <ele>1992.95</ele>
        <time>2013-09-12T13:07:18Z</time>
      </trkpt>
      <trkpt lat="42.488569747656584" lon="13.56868252158165">
        <ele>1991.99</ele>
        <time>2013-09-12T13:07:31Z</time>
      </trkpt>
      <trkpt lat="42.488672761246562" lon="13.56870599091053">
        <ele>1992.95</ele>
        <time>2013-09-12T13:07:58Z</time>
      </trkpt>
      <trkpt lat="42.488630851730704" lon="13.568700458854437">
        <ele>1991.51</ele>
        <time>2013-09-12T13:08:12Z</time>
      </trkpt>
      <trkpt lat="42.48868390917778" lon="13.568757539615035">
        <ele>1990.0699999999999</ele>
        <time>2013-09-12T13:08:19Z</time>
      </trkpt>
      <trkpt lat="42.488704361021519" lon="13.568782014772296">
        <ele>1990.0699999999999</ele>
        <time>2013-09-12T13:08:22Z</time>
      </trkpt>
      <trkpt lat="42.488828077912331" lon="13.568713115528226">
        <ele>1986.7</ele>
        <time>2013-09-12T13:08:38Z</time>
      </trkpt>
      <trkpt lat="42.488923715427518" lon="13.568681096658111">
        <ele>1985.74</ele>
        <time>2013-09-12T13:08:49Z</time>
      </trkpt>
      <trkpt lat="42.488960428163409" lon="13.568681096658111">
        <ele>1984.78</ele>
        <time>2013-09-12T13:08:53Z</time>
      </trkpt>
      <trkpt lat="42.489043576642871" lon="13.568655364215374">
        <ele>1988.6199999999999</ele>
        <time>2013-09-12T13:09:01Z</time>
      </trkpt>
      <trkpt lat="42.489069644361734" lon="13.568646898493171">
        <ele>1985.74</ele>
        <time>2013-09-12T13:09:04Z</time>
      </trkpt>
      <trkpt lat="42.489115493372083" lon="13.568621501326561">
        <ele>1981.4100000000001</ele>
        <time>2013-09-12T13:09:09Z</time>
      </trkpt>
      <trkpt lat="42.489126892760396" lon="13.568616053089499">
        <ele>1981.4100000000001</ele>
        <time>2013-09-12T13:09:10Z</time>
      </trkpt>
      <trkpt lat="42.4891456682235" lon="13.568598786368966">
        <ele>1980.45</ele>
        <time>2013-09-12T13:09:12Z</time>
      </trkpt>
      <trkpt lat="42.489162934944034" lon="13.568582441657782">
        <ele>1979.49</ele>
        <time>2013-09-12T13:09:14Z</time>
      </trkpt>
      <trkpt lat="42.489218004047871" lon="13.568558217957616">
        <ele>1979.49</ele>
        <time>2013-09-12T13:09:20Z</time>
      </trkpt>
      <trkpt lat="42.489335015416145" lon="13.568415306508541">
        <ele>1976.6099999999999</ele>
        <time>2013-09-12T13:09:35Z</time>
      </trkpt>
      <trkpt lat="42.489350521937013" lon="13.568399548530579">
        <ele>1976.1300000000001</ele>
        <time>2013-09-12T13:09:37Z</time>
      </trkpt>
      <trkpt lat="42.489418918266892" lon="13.568316316232085">
        <ele>1976.6099999999999</ele>
        <time>2013-09-12T13:09:52Z</time>
      </trkpt>
      <trkpt lat="42.489432077854872" lon="13.568338360637426">
        <ele>1977.0899999999999</ele>
        <time>2013-09-12T13:10:10Z</time>
      </trkpt>
      <trkpt lat="42.489413805305958" lon="13.568339701741934">
        <ele>1977.0899999999999</ele>
        <time>2013-09-12T13:10:30Z</time>
      </trkpt>
      <trkpt lat="42.489446913823485" lon="13.56838102452457">
        <ele>1976.6099999999999</ele>
        <time>2013-09-12T13:10:40Z</time>
      </trkpt>
      <trkpt lat="42.489453116431832" lon="13.56833852827549">
        <ele>1975.1700000000001</ele>
        <time>2013-09-12T13:10:55Z</time>
      </trkpt>
      <trkpt lat="42.4894461594522" lon="13.568319920450449">
        <ele>1974.6900000000001</ele>
        <time>2013-09-12T13:11:24Z</time>
      </trkpt>
      <trkpt lat="42.489431742578745" lon="13.568325787782669">
        <ele>1975.1700000000001</ele>
        <time>2013-09-12T13:11:52Z</time>
      </trkpt>
      <trkpt lat="42.489431742578745" lon="13.56832142919302">
        <ele>1975.1700000000001</ele>
        <time>2013-09-12T13:12:11Z</time>
      </trkpt>
      <trkpt lat="42.489430066198111" lon="13.568324530497193">
        <ele>1975.6500000000001</ele>
        <time>2013-09-12T13:12:31Z</time>
      </trkpt>
      <trkpt lat="42.489414811134338" lon="13.56832436285913">
        <ele>1976.1300000000001</ele>
        <time>2013-09-12T13:13:00Z</time>
      </trkpt>
      <trkpt lat="42.489411374554038" lon="13.568323189392686">
        <ele>1975.6500000000001</ele>
        <time>2013-09-12T13:13:33Z</time>
      </trkpt>
      <trkpt lat="42.48941388912499" lon="13.56832972727716">
        <ele>1975.6500000000001</ele>
        <time>2013-09-12T13:13:54Z</time>
      </trkpt>
      <trkpt lat="42.489415649324656" lon="13.568322602659464">
        <ele>1975.1700000000001</ele>
        <time>2013-09-12T13:14:15Z</time>
      </trkpt>
      <trkpt lat="42.489423528313637" lon="13.568351268768311">
        <ele>1975.6500000000001</ele>
        <time>2013-09-12T13:14:35Z</time>
      </trkpt>
      <trkpt lat="42.489423528313637" lon="13.568352190777659">
        <ele>1975.6500000000001</ele>
        <time>2013-09-12T13:14:40Z</time>
      </trkpt>
      <trkpt lat="42.489436436444521" lon="13.568376582115889">
        <ele>1976.1300000000001</ele>
        <time>2013-09-12T13:14:50Z</time>
      </trkpt>
      <trkpt lat="42.48943735845387" lon="13.568388232961297">
        <ele>1977.0899999999999</ele>
        <time>2013-09-12T13:15:09Z</time>
      </trkpt>
      <trkpt lat="42.489439873024821" lon="13.568378258496523">
        <ele>1977.0899999999999</ele>
        <time>2013-09-12T13:15:29Z</time>
      </trkpt>
      <trkpt lat="42.489436939358711" lon="13.56838203035295">
        <ele>1977.0899999999999</ele>
        <time>2013-09-12T13:15:52Z</time>
      </trkpt>
      <trkpt lat="42.489405674859881" lon="13.568410947918892">
        <ele>1977.0899999999999</ele>
        <time>2013-09-12T13:16:13Z</time>
      </trkpt>
      <trkpt lat="42.489376086741686" lon="13.568439111113548">
        <ele>1975.6500000000001</ele>
        <time>2013-09-12T13:16:30Z</time>
      </trkpt>
      <trkpt lat="42.489316575229168" lon="13.56847632676363">
        <ele>1976.6099999999999</ele>
        <time>2013-09-12T13:16:43Z</time>
      </trkpt>
      <trkpt lat="42.489233678206801" lon="13.568506585434079">
        <ele>1976.6099999999999</ele>
        <time>2013-09-12T13:16:56Z</time>
      </trkpt>
      <trkpt lat="42.489166874438524" lon="13.568465430289507">
        <ele>1977.5699999999999</ele>
        <time>2013-09-12T13:17:11Z</time>
      </trkpt>
      <trkpt lat="42.489111805334687" lon="13.568457467481494">
        <ele>1976.6099999999999</ele>
        <time>2013-09-12T13:17:27Z</time>
      </trkpt>
      <trkpt lat="42.489081211388111" lon="13.568464759737253">
        <ele>1976.1300000000001</ele>
        <time>2013-09-12T13:17:41Z</time>
      </trkpt>
      <trkpt lat="42.489046258851886" lon="13.568410109728575">
        <ele>1974.6900000000001</ele>
        <time>2013-09-12T13:18:02Z</time>
      </trkpt>
      <trkpt lat="42.488999320194125" lon="13.56837666593492">
        <ele>1974.6900000000001</ele>
        <time>2013-09-12T13:18:13Z</time>
      </trkpt>
      <trkpt lat="42.488981718197465" lon="13.568308856338263">
        <ele>1973.24</ele>
        <time>2013-09-12T13:18:28Z</time>
      </trkpt>
      <trkpt lat="42.488933689892292" lon="13.568272981792688">
        <ele>1971.8</ele>
        <time>2013-09-12T13:18:40Z</time>
      </trkpt>
      <trkpt lat="42.488848110660911" lon="13.56819050386548">
        <ele>1971.8</ele>
        <time>2013-09-12T13:18:54Z</time>
      </trkpt>
      <trkpt lat="42.488780887797475" lon="13.568202825263143">
        <ele>1972.76</ele>
        <time>2013-09-12T13:19:07Z</time>
      </trkpt>
      <trkpt lat="42.488756412640214" lon="13.568205172196031">
        <ele>1972.28</ele>
        <time>2013-09-12T13:19:32Z</time>
      </trkpt>
      <trkpt lat="42.488725734874606" lon="13.568170052021742">
        <ele>1973.24</ele>
        <time>2013-09-12T13:19:49Z</time>
      </trkpt>
      <trkpt lat="42.488742917776108" lon="13.568165022879839">
        <ele>1972.76</ele>
        <time>2013-09-12T13:20:13Z</time>
      </trkpt>
      <trkpt lat="42.488692374899983" lon="13.568202741444111">
        <ele>1972.76</ele>
        <time>2013-09-12T13:20:27Z</time>
      </trkpt>
      <trkpt lat="42.488605957478285" lon="13.568209614604712">
        <ele>1974.2</ele>
        <time>2013-09-12T13:20:39Z</time>
      </trkpt>
      <trkpt lat="42.488524569198489" lon="13.568171560764313">
        <ele>1976.6099999999999</ele>
        <time>2013-09-12T13:20:53Z</time>
      </trkpt>
      <trkpt lat="42.488441336899996" lon="13.568099727854133">
        <ele>1977.0899999999999</ele>
        <time>2013-09-12T13:21:07Z</time>
      </trkpt>
      <trkpt lat="42.488423315808177" lon="13.568053375929594">
        <ele>1976.6099999999999</ele>
        <time>2013-09-12T13:21:11Z</time>
      </trkpt>
      <trkpt lat="42.488404205068946" lon="13.568009287118912">
        <ele>1975.1700000000001</ele>
        <time>2013-09-12T13:21:15Z</time>
      </trkpt>
      <trkpt lat="42.488288031890988" lon="13.567835697904229">
        <ele>1972.76</ele>
        <time>2013-09-12T13:21:29Z</time>
      </trkpt>
      <trkpt lat="42.488250564783812" lon="13.567726481705904">
        <ele>1969.4000000000001</ele>
        <time>2013-09-12T13:21:43Z</time>
      </trkpt>
      <trkpt lat="42.488221898674965" lon="13.567697647958994">
        <ele>1968.9200000000001</ele>
        <time>2013-09-12T13:21:50Z</time>
      </trkpt>
      <trkpt lat="42.488192645832896" lon="13.567606536671519">
        <ele>1966.99</ele>
        <time>2013-09-12T13:22:03Z</time>
      </trkpt>
      <trkpt lat="42.488211756572127" lon="13.567606536671519">
        <ele>1966.99</ele>
        <time>2013-09-12T13:22:24Z</time>
      </trkpt>
      <trkpt lat="42.488208990544081" lon="13.567608213052154">
        <ele>1967.48</ele>
        <time>2013-09-12T13:22:35Z</time>
      </trkpt>
      <trkpt lat="42.488196333870292" lon="13.567597987130284">
        <ele>1966.51</ele>
        <time>2013-09-12T13:22:51Z</time>
      </trkpt>
      <trkpt lat="42.488201446831226" lon="13.567601423710585">
        <ele>1967.48</ele>
        <time>2013-09-12T13:23:13Z</time>
      </trkpt>
      <trkpt lat="42.48818158172071" lon="13.567600836977363">
        <ele>1967.48</ele>
        <time>2013-09-12T13:23:44Z</time>
      </trkpt>
      <trkpt lat="42.488189376890659" lon="13.567610057070851">
        <ele>1967.96</ele>
        <time>2013-09-12T13:24:10Z</time>
      </trkpt>
      <trkpt lat="42.4881820846349" lon="13.567599160596728">
        <ele>1969.4000000000001</ele>
        <time>2013-09-12T13:24:38Z</time>
      </trkpt>
      <trkpt lat="42.488188622519374" lon="13.567604189738631">
        <ele>1967.96</ele>
        <time>2013-09-12T13:25:09Z</time>
      </trkpt>
      <trkpt lat="42.488214606419206" lon="13.567603183910251">
        <ele>1968.9200000000001</ele>
        <time>2013-09-12T13:25:25Z</time>
      </trkpt>
      <trkpt lat="42.48820991255343" lon="13.567632436752319">
        <ele>1968.4400000000001</ele>
        <time>2013-09-12T13:25:36Z</time>
      </trkpt>
      <trkpt lat="42.48820161446929" lon="13.567645428702235">
        <ele>1970.3599999999999</ele>
        <time>2013-09-12T13:25:58Z</time>
      </trkpt>
      <trkpt lat="42.488203207030892" lon="13.567639729008079">
        <ele>1969.8800000000001</ele>
        <time>2013-09-12T13:26:23Z</time>
      </trkpt>
      <trkpt lat="42.488185605034232" lon="13.567656325176358">
        <ele>1970.3599999999999</ele>
        <time>2013-09-12T13:26:48Z</time>
      </trkpt>
      <trkpt lat="42.488197088241577" lon="13.567571751773357">
        <ele>1969.4000000000001</ele>
        <time>2013-09-12T13:26:58Z</time>
      </trkpt>
      <trkpt lat="42.488166661933064" lon="13.567540990188718">
        <ele>1967.48</ele>
        <time>2013-09-12T13:27:17Z</time>
      </trkpt>
      <trkpt lat="42.488164231181145" lon="13.567544426769018">
        <ele>1966.99</ele>
        <time>2013-09-12T13:27:20Z</time>
      </trkpt>
      <trkpt lat="42.488149395212531" lon="13.567509306594729">
        <ele>1966.51</ele>
        <time>2013-09-12T13:27:26Z</time>
      </trkpt>
      <trkpt lat="42.488094493746758" lon="13.567346949130297">
        <ele>1964.5899999999999</ele>
        <time>2013-09-12T13:27:38Z</time>
      </trkpt>
      <trkpt lat="42.488070940598845" lon="13.567279307171702">
        <ele>1963.6300000000001</ele>
        <time>2013-09-12T13:27:43Z</time>
      </trkpt>
      <trkpt lat="42.488024672493339" lon="13.567172521725297">
        <ele>1960.75</ele>
        <time>2013-09-12T13:27:54Z</time>
      </trkpt>
      <trkpt lat="42.487945966422558" lon="13.567027430981398">
        <ele>1958.8199999999999</ele>
        <time>2013-09-12T13:28:09Z</time>
      </trkpt>
      <trkpt lat="42.487950325012207" lon="13.566972948610783">
        <ele>1955.46</ele>
        <time>2013-09-12T13:28:16Z</time>
      </trkpt>
      <trkpt lat="42.487953007221222" lon="13.566951490938663">
        <ele>1956.4200000000001</ele>
        <time>2013-09-12T13:28:19Z</time>
      </trkpt>
      <trkpt lat="42.487940937280655" lon="13.566907737404108">
        <ele>1954.5</ele>
        <time>2013-09-12T13:28:23Z</time>
      </trkpt>
      <trkpt lat="42.487937835976481" lon="13.566896505653858">
        <ele>1953.0599999999999</ele>
        <time>2013-09-12T13:28:25Z</time>
      </trkpt>
      <trkpt lat="42.487935908138752" lon="13.566914359107614">
        <ele>1953.54</ele>
        <time>2013-09-12T13:28:40Z</time>
      </trkpt>
      <trkpt lat="42.487916629761457" lon="13.566841771826148">
        <ele>1952.5699999999999</ele>
        <time>2013-09-12T13:28:44Z</time>
      </trkpt>
      <trkpt lat="42.487915204837918" lon="13.566782427951694">
        <ele>1950.1700000000001</ele>
        <time>2013-09-12T13:28:48Z</time>
      </trkpt>
      <trkpt lat="42.487933058291674" lon="13.566773040220141">
        <ele>1948.73</ele>
        <time>2013-09-12T13:28:50Z</time>
      </trkpt>
      <trkpt lat="42.487962227314711" lon="13.566777817904949">
        <ele>1947.29</ele>
        <time>2013-09-12T13:28:53Z</time>
      </trkpt>
      <trkpt lat="42.488087955862284" lon="13.566871108487248">
        <ele>1943.9200000000001</ele>
        <time>2013-09-12T13:29:06Z</time>
      </trkpt>
      <trkpt lat="42.488120226189494" lon="13.566844370216131">
        <ele>1942</ele>
        <time>2013-09-12T13:29:15Z</time>
      </trkpt>
      <trkpt lat="42.48808728531003" lon="13.566729119047523">
        <ele>1938.6400000000001</ele>
        <time>2013-09-12T13:29:25Z</time>
      </trkpt>
      <trkpt lat="42.488085022196174" lon="13.566714785993099">
        <ele>1938.1600000000001</ele>
        <time>2013-09-12T13:29:26Z</time>
      </trkpt>
      <trkpt lat="42.488077562302351" lon="13.566644713282585">
        <ele>1936.23</ele>
        <time>2013-09-12T13:29:32Z</time>
      </trkpt>
      <trkpt lat="42.488068845123053" lon="13.566578244790435">
        <ele>1933.8299999999999</ele>
        <time>2013-09-12T13:29:39Z</time>
      </trkpt>
      <trkpt lat="42.488062726333737" lon="13.566540610045195">
        <ele>1932.8699999999999</ele>
        <time>2013-09-12T13:30:01Z</time>
      </trkpt>
      <trkpt lat="42.488017715513706" lon="13.566433154046535">
        <ele>1929.5</ele>
        <time>2013-09-12T13:30:12Z</time>
      </trkpt>
      <trkpt lat="42.487991563975811" lon="13.566372720524669">
        <ele>1928.0599999999999</ele>
        <time>2013-09-12T13:30:18Z</time>
      </trkpt>
      <trkpt lat="42.487967507913709" lon="13.56631270609796">
        <ele>1926.1400000000001</ele>
        <time>2013-09-12T13:30:24Z</time>
      </trkpt>
      <trkpt lat="42.487920233979821" lon="13.566223606467247">
        <ele>1923.25</ele>
        <time>2013-09-12T13:30:34Z</time>
      </trkpt>
      <trkpt lat="42.487868098542094" lon="13.56618613936007">
        <ele>1920.3699999999999</ele>
        <time>2013-09-12T13:30:45Z</time>
      </trkpt>
      <trkpt lat="42.487864829599857" lon="13.566102236509323">
        <ele>1917.49</ele>
        <time>2013-09-12T13:30:56Z</time>
      </trkpt>
      <trkpt lat="42.4878297932446" lon="13.566026380285621">
        <ele>1915.5599999999999</ele>
        <time>2013-09-12T13:31:09Z</time>
      </trkpt>
      <trkpt lat="42.487781848758459" lon="13.56593007221818">
        <ele>1912.2</ele>
        <time>2013-09-12T13:31:18Z</time>
      </trkpt>
      <trkpt lat="42.487777238711715" lon="13.565903585404158">
        <ele>1911.72</ele>
        <time>2013-09-12T13:31:20Z</time>
      </trkpt>
      <trkpt lat="42.48775695450604" lon="13.565808953717351">
        <ele>1909.3199999999999</ele>
        <time>2013-09-12T13:31:28Z</time>
      </trkpt>
      <trkpt lat="42.487749997526407" lon="13.565764194354415">
        <ele>1907.3900000000001</ele>
        <time>2013-09-12T13:31:33Z</time>
      </trkpt>
      <trkpt lat="42.487741950899363" lon="13.565719518810511">
        <ele>1906.4300000000001</ele>
        <time>2013-09-12T13:31:37Z</time>
      </trkpt>
      <trkpt lat="42.487718397751451" lon="13.565580127760768">
        <ele>1902.5899999999999</ele>
        <time>2013-09-12T13:31:46Z</time>
      </trkpt>
      <trkpt lat="42.487710686400533" lon="13.565545175224543">
        <ele>1901.1400000000001</ele>
        <time>2013-09-12T13:31:49Z</time>
      </trkpt>
      <trkpt lat="42.48770565725863" lon="13.565516592934728">
        <ele>1900.1800000000001</ele>
        <time>2013-09-12T13:32:03Z</time>
      </trkpt>
      <trkpt lat="42.487654276192188" lon="13.565369239076972">
        <ele>1897.78</ele>
        <time>2013-09-12T13:32:16Z</time>
      </trkpt>
      <trkpt lat="42.487674225121737" lon="13.565226495265961">
        <ele>1894.9000000000001</ele>
        <time>2013-09-12T13:32:28Z</time>
      </trkpt>
      <trkpt lat="42.48767975717783" lon="13.565182825550437">
        <ele>1894.4200000000001</ele>
        <time>2013-09-12T13:32:31Z</time>
      </trkpt>
      <trkpt lat="42.487702639773488" lon="13.565136808902025">
        <ele>1892.49</ele>
        <time>2013-09-12T13:32:39Z</time>
      </trkpt>
      <trkpt lat="42.487699538469315" lon="13.565133456140757">
        <ele>1892.97</ele>
        <time>2013-09-12T13:32:40Z</time>
      </trkpt>
      <trkpt lat="42.487699287012219" lon="13.565110238268971">
        <ele>1893.45</ele>
        <time>2013-09-12T13:32:42Z</time>
      </trkpt>
      <trkpt lat="42.487698281183839" lon="13.565082829445601">
        <ele>1892.97</ele>
        <time>2013-09-12T13:32:44Z</time>
      </trkpt>
      <trkpt lat="42.487735832110047" lon="13.564938493072987">
        <ele>1889.1300000000001</ele>
        <time>2013-09-12T13:32:57Z</time>
      </trkpt>
      <trkpt lat="42.487719655036926" lon="13.564932961016893">
        <ele>1887.6900000000001</ele>
        <time>2013-09-12T13:33:13Z</time>
      </trkpt>
      <trkpt lat="42.487742369994521" lon="13.564865402877331">
        <ele>1886.72</ele>
        <time>2013-09-12T13:33:37Z</time>
      </trkpt>
      <trkpt lat="42.487764582037926" lon="13.564801281318069">
        <ele>1885.28</ele>
        <time>2013-09-12T13:33:45Z</time>
      </trkpt>
      <trkpt lat="42.487764917314053" lon="13.564794743433595">
        <ele>1885.28</ele>
        <time>2013-09-12T13:33:47Z</time>
      </trkpt>
      <trkpt lat="42.487783189862967" lon="13.564722407609224">
        <ele>1883.3599999999999</ele>
        <time>2013-09-12T13:33:52Z</time>
      </trkpt>
      <trkpt lat="42.48782342299819" lon="13.564686449244618">
        <ele>1881.9200000000001</ele>
        <time>2013-09-12T13:33:56Z</time>
      </trkpt>
      <trkpt lat="42.487840941175818" lon="13.564665745943785">
        <ele>1880</ele>
        <time>2013-09-12T13:33:59Z</time>
      </trkpt>
      <trkpt lat="42.487911181524396" lon="13.564616125077009">
        <ele>1876.6300000000001</ele>
        <time>2013-09-12T13:34:09Z</time>
      </trkpt>
      <trkpt lat="42.487981086596847" lon="13.564559295773506">
        <ele>1873.75</ele>
        <time>2013-09-12T13:34:20Z</time>
      </trkpt>
      <trkpt lat="42.487953677773476" lon="13.564550913870335">
        <ele>1873.75</ele>
        <time>2013-09-12T13:34:35Z</time>
      </trkpt>
      <trkpt lat="42.48793775215745" lon="13.564561139792204">
        <ele>1873.27</ele>
        <time>2013-09-12T13:34:48Z</time>
      </trkpt>
      <trkpt lat="42.487988295033574" lon="13.564539263024926">
        <ele>1872.79</ele>
        <time>2013-09-12T13:35:04Z</time>
      </trkpt>
      <trkpt lat="42.488029366359115" lon="13.564490145072341">
        <ele>1870.3800000000001</ele>
        <time>2013-09-12T13:35:17Z</time>
      </trkpt>
      <trkpt lat="42.488063564524055" lon="13.564470950514078">
        <ele>1867.5</ele>
        <time>2013-09-12T13:35:27Z</time>
      </trkpt>
      <trkpt lat="42.488114358857274" lon="13.564458126202226">
        <ele>1867.02</ele>
        <time>2013-09-12T13:35:43Z</time>
      </trkpt>
      <trkpt lat="42.488110419362783" lon="13.564473884180188">
        <ele>1867.98</ele>
        <time>2013-09-12T13:36:00Z</time>
      </trkpt>
      <trkpt lat="42.488149227574468" lon="13.564497772604227">
        <ele>1865.5799999999999</ele>
        <time>2013-09-12T13:36:14Z</time>
      </trkpt>
      <trkpt lat="42.488171355798841" lon="13.564471956342459">
        <ele>1864.1300000000001</ele>
        <time>2013-09-12T13:36:29Z</time>
      </trkpt>
      <trkpt lat="42.488197591155767" lon="13.564458712935448">
        <ele>1862.6900000000001</ele>
        <time>2013-09-12T13:36:34Z</time>
      </trkpt>
      <trkpt lat="42.48821284621954" lon="13.564474135637283">
        <ele>1862.21</ele>
        <time>2013-09-12T13:36:36Z</time>
      </trkpt>
      <trkpt lat="42.488269004970789" lon="13.56445049867034">
        <ele>1860.29</ele>
        <time>2013-09-12T13:36:43Z</time>
      </trkpt>
      <trkpt lat="42.488311836495996" lon="13.564449157565832">
        <ele>1858.8499999999999</ele>
        <time>2013-09-12T13:36:48Z</time>
      </trkpt>
      <trkpt lat="42.488415185362101" lon="13.564441446214914">
        <ele>1855.48</ele>
        <time>2013-09-12T13:36:59Z</time>
      </trkpt>
      <trkpt lat="42.48852314427495" lon="13.564500790089369">
        <ele>1852.1199999999999</ele>
        <time>2013-09-12T13:37:10Z</time>
      </trkpt>
      <trkpt lat="42.488541668280959" lon="13.564497185871005">
        <ele>1852.1199999999999</ele>
        <time>2013-09-12T13:37:13Z</time>
      </trkpt>
      <trkpt lat="42.488650213927031" lon="13.564505483955145">
        <ele>1848.75</ele>
        <time>2013-09-12T13:37:26Z</time>
      </trkpt>
      <trkpt lat="42.48867561109364" lon="13.564488803967834">
        <ele>1847.3099999999999</ele>
        <time>2013-09-12T13:37:29Z</time>
      </trkpt>
      <trkpt lat="42.488728081807494" lon="13.564463909715414">
        <ele>1843.95</ele>
        <time>2013-09-12T13:37:41Z</time>
      </trkpt>
      <trkpt lat="42.488730177283287" lon="13.564435997977853">
        <ele>1843.47</ele>
        <time>2013-09-12T13:37:49Z</time>
      </trkpt>
      <trkpt lat="42.488801255822182" lon="13.564461814239621">
        <ele>1840.5799999999999</ele>
        <time>2013-09-12T13:38:00Z</time>
      </trkpt>
      <trkpt lat="42.48887493275106" lon="13.564472207799554">
        <ele>1837.7</ele>
        <time>2013-09-12T13:38:07Z</time>
      </trkpt>
      <trkpt lat="42.488923463970423" lon="13.56452283449471">
        <ele>1835.29</ele>
        <time>2013-09-12T13:38:19Z</time>
      </trkpt>
      <trkpt lat="42.488954560831189" lon="13.564538257196546">
        <ele>1834.3299999999999</ele>
        <time>2013-09-12T13:38:23Z</time>
      </trkpt>
      <trkpt lat="42.489042906090617" lon="13.56448813341558">
        <ele>1830.97</ele>
        <time>2013-09-12T13:38:35Z</time>
      </trkpt>
      <trkpt lat="42.489066626876593" lon="13.564472543075681">
        <ele>1829.53</ele>
        <time>2013-09-12T13:38:38Z</time>
      </trkpt>
      <trkpt lat="42.489205431193113" lon="13.564473548904061">
        <ele>1826.6400000000001</ele>
        <time>2013-09-12T13:38:52Z</time>
      </trkpt>
      <trkpt lat="42.489260332658887" lon="13.56449349783361">
        <ele>1826.1600000000001</ele>
        <time>2013-09-12T13:38:57Z</time>
      </trkpt>
      <trkpt lat="42.48933526687324" lon="13.564457958564162">
        <ele>1824.24</ele>
        <time>2013-09-12T13:39:10Z</time>
      </trkpt>
      <trkpt lat="42.489307271316648" lon="13.564462149515748">
        <ele>1824.72</ele>
        <time>2013-09-12T13:39:22Z</time>
      </trkpt>
      <trkpt lat="42.489306349307299" lon="13.564499448984861">
        <ele>1824.24</ele>
        <time>2013-09-12T13:39:43Z</time>
      </trkpt>
      <trkpt lat="42.489309450611472" lon="13.564492994919419">
        <ele>1824.72</ele>
        <time>2013-09-12T13:39:55Z</time>
      </trkpt>
      <trkpt lat="42.489313473924994" lon="13.564489977434278">
        <ele>1825.2</ele>
        <time>2013-09-12T13:40:18Z</time>
      </trkpt>
      <trkpt lat="42.489384384825826" lon="13.564428454264998">
        <ele>1824.24</ele>
        <time>2013-09-12T13:40:33Z</time>
      </trkpt>
      <trkpt lat="42.489404669031501" lon="13.564423006027937">
        <ele>1823.28</ele>
        <time>2013-09-12T13:40:46Z</time>
      </trkpt>
      <trkpt lat="42.489437945187092" lon="13.564406326040626">
        <ele>1820.8699999999999</ele>
        <time>2013-09-12T13:41:12Z</time>
      </trkpt>
      <trkpt lat="42.489469796419144" lon="13.564385622739792">
        <ele>1822.3199999999999</ele>
        <time>2013-09-12T13:41:27Z</time>
      </trkpt>
      <trkpt lat="42.489491673186421" lon="13.564364835619926">
        <ele>1821.3499999999999</ele>
        <time>2013-09-12T13:41:36Z</time>
      </trkpt>
      <trkpt lat="42.489503072574735" lon="13.564310101792216">
        <ele>1819.9100000000001</ele>
        <time>2013-09-12T13:41:39Z</time>
      </trkpt>
      <trkpt lat="42.489533750340343" lon="13.564270455390215">
        <ele>1817.51</ele>
        <time>2013-09-12T13:41:42Z</time>
      </trkpt>
      <trkpt lat="42.489618742838502" lon="13.564191330224276">
        <ele>1814.1500000000001</ele>
        <time>2013-09-12T13:41:50Z</time>
      </trkpt>
      <trkpt lat="42.489643301814795" lon="13.564147409051657">
        <ele>1812.7</ele>
        <time>2013-09-12T13:41:53Z</time>
      </trkpt>
      <trkpt lat="42.489710692316294" lon="13.564092926681042">
        <ele>1809.3399999999999</ele>
        <time>2013-09-12T13:41:59Z</time>
      </trkpt>
      <trkpt lat="42.489776238799095" lon="13.564003743231297">
        <ele>1805.97</ele>
        <time>2013-09-12T13:42:06Z</time>
      </trkpt>
      <trkpt lat="42.489832313731313" lon="13.563970131799579">
        <ele>1803.0899999999999</ele>
        <time>2013-09-12T13:42:10Z</time>
      </trkpt>
      <trkpt lat="42.489889059215784" lon="13.563939537853003">
        <ele>1801.1700000000001</ele>
        <time>2013-09-12T13:42:18Z</time>
      </trkpt>
      <trkpt lat="42.489900290966034" lon="13.563889246433973">
        <ele>1799.24</ele>
        <time>2013-09-12T13:42:22Z</time>
      </trkpt>
      <trkpt lat="42.489948989823461" lon="13.563820095732808">
        <ele>1796.8399999999999</ele>
        <time>2013-09-12T13:42:28Z</time>
      </trkpt>
      <trkpt lat="42.489982433617115" lon="13.563787490129471">
        <ele>1794.9200000000001</ele>
        <time>2013-09-12T13:42:31Z</time>
      </trkpt>
      <trkpt lat="42.490065582096577" lon="13.563823951408267">
        <ele>1792.03</ele>
        <time>2013-09-12T13:42:37Z</time>
      </trkpt>
      <trkpt lat="42.490084692835808" lon="13.56381967663765">
        <ele>1791.0699999999999</ele>
        <time>2013-09-12T13:42:39Z</time>
      </trkpt>
      <trkpt lat="42.4901092518121" lon="13.563837027177215">
        <ele>1790.1099999999999</ele>
        <time>2013-09-12T13:42:42Z</time>
      </trkpt>
      <trkpt lat="42.490122998133302" lon="13.563828729093075">
        <ele>1788.6700000000001</ele>
        <time>2013-09-12T13:42:44Z</time>
      </trkpt>
      <trkpt lat="42.490161387249827" lon="13.563760751858354">
        <ele>1787.23</ele>
        <time>2013-09-12T13:42:50Z</time>
      </trkpt>
      <trkpt lat="42.490173205733299" lon="13.56371121481061">
        <ele>1785.3099999999999</ele>
        <time>2013-09-12T13:42:54Z</time>
      </trkpt>
      <trkpt lat="42.490200530737638" lon="13.56364038772881">
        <ele>1784.3399999999999</ele>
        <time>2013-09-12T13:42:59Z</time>
      </trkpt>
      <trkpt lat="42.4902025423944" lon="13.563627060502768">
        <ele>1783.8599999999999</ele>
        <time>2013-09-12T13:43:00Z</time>
      </trkpt>
      <trkpt lat="42.490233890712261" lon="13.563593700528145">
        <ele>1782.4200000000001</ele>
        <time>2013-09-12T13:43:04Z</time>
      </trkpt>
      <trkpt lat="42.490300945937634" lon="13.563503762707114">
        <ele>1780.5</ele>
        <time>2013-09-12T13:43:17Z</time>
      </trkpt>
      <trkpt lat="42.490301784127951" lon="13.563515245914459">
        <ele>1779.0599999999999</ele>
        <time>2013-09-12T13:43:28Z</time>
      </trkpt>
      <trkpt lat="42.490311339497566" lon="13.563523711636662">
        <ele>1780.02</ele>
        <time>2013-09-12T13:43:34Z</time>
      </trkpt>
      <trkpt lat="42.490339251235127" lon="13.563518011942506">
        <ele>1780.02</ele>
        <time>2013-09-12T13:43:36Z</time>
      </trkpt>
      <trkpt lat="42.490380154922605" lon="13.563499739393592">
        <ele>1778.0999999999999</ele>
        <time>2013-09-12T13:43:39Z</time>
      </trkpt>
      <trkpt lat="42.490425584837794" lon="13.56345908716321">
        <ele>1774.73</ele>
        <time>2013-09-12T13:43:45Z</time>
      </trkpt>
      <trkpt lat="42.490487946197391" lon="13.563437210395932">
        <ele>1770.8900000000001</ele>
        <time>2013-09-12T13:43:52Z</time>
      </trkpt>
      <trkpt lat="42.490529855713248" lon="13.563461601734161">
        <ele>1768</ele>
        <time>2013-09-12T13:43:58Z</time>
      </trkpt>
      <trkpt lat="42.49059833586216" lon="13.563405023887753">
        <ele>1764.6400000000001</ele>
        <time>2013-09-12T13:44:10Z</time>
      </trkpt>
      <trkpt lat="42.490626415237784" lon="13.56337258592248">
        <ele>1762.71</ele>
        <time>2013-09-12T13:44:15Z</time>
      </trkpt>
      <trkpt lat="42.490652315318584" lon="13.563396893441677">
        <ele>1761.27</ele>
        <time>2013-09-12T13:44:18Z</time>
      </trkpt>
      <trkpt lat="42.490677963942289" lon="13.563369233161211">
        <ele>1760.79</ele>
        <time>2013-09-12T13:44:22Z</time>
      </trkpt>
      <trkpt lat="42.49074837192893" lon="13.563299831002951">
        <ele>1756.95</ele>
        <time>2013-09-12T13:44:32Z</time>
      </trkpt>
      <trkpt lat="42.490756418555975" lon="13.563297484070063">
        <ele>1756.47</ele>
        <time>2013-09-12T13:44:33Z</time>
      </trkpt>
      <trkpt lat="42.490805704146624" lon="13.563241241499782">
        <ele>1753.5799999999999</ele>
        <time>2013-09-12T13:44:39Z</time>
      </trkpt>
      <trkpt lat="42.490816516801715" lon="13.563239481300116">
        <ele>1753.5799999999999</ele>
        <time>2013-09-12T13:44:40Z</time>
      </trkpt>
      <trkpt lat="42.490852894261479" lon="13.563233781605959">
        <ele>1751.6600000000001</ele>
        <time>2013-09-12T13:44:43Z</time>
      </trkpt>
      <trkpt lat="42.4908880982548" lon="13.563245348632336">
        <ele>1749.74</ele>
        <time>2013-09-12T13:44:46Z</time>
      </trkpt>
      <trkpt lat="42.49091500416398" lon="13.563236463814974">
        <ele>1749.74</ele>
        <time>2013-09-12T13:44:49Z</time>
      </trkpt>
      <trkpt lat="42.490947525948286" lon="13.563217520713806">
        <ele>1748.29</ele>
        <time>2013-09-12T13:44:52Z</time>
      </trkpt>
      <trkpt lat="42.49097409658134" lon="13.563215509057045">
        <ele>1747.3299999999999</ele>
        <time>2013-09-12T13:44:54Z</time>
      </trkpt>
      <trkpt lat="42.49099756591022" lon="13.56321576051414">
        <ele>1746.3699999999999</ele>
        <time>2013-09-12T13:44:56Z</time>
      </trkpt>
      <trkpt lat="42.491029165685177" lon="13.56322355568409">
        <ele>1744.9300000000001</ele>
        <time>2013-09-12T13:44:59Z</time>
      </trkpt>
      <trkpt lat="42.491078535094857" lon="13.563166810199618">
        <ele>1743.49</ele>
        <time>2013-09-12T13:45:04Z</time>
      </trkpt>
      <trkpt lat="42.491154810413718" lon="13.563126744702458">
        <ele>1740.5999999999999</ele>
        <time>2013-09-12T13:45:10Z</time>
      </trkpt>
      <trkpt lat="42.491193367168307" lon="13.563094055280089">
        <ele>1739.6400000000001</ele>
        <time>2013-09-12T13:45:14Z</time>
      </trkpt>
      <trkpt lat="42.491237875074148" lon="13.563072765246034">
        <ele>1738.2</ele>
        <time>2013-09-12T13:45:18Z</time>
      </trkpt>
      <trkpt lat="42.491254387423396" lon="13.563030855730176">
        <ele>1738.2</ele>
        <time>2013-09-12T13:45:21Z</time>
      </trkpt>
      <trkpt lat="42.491307947784662" lon="13.562996909022331">
        <ele>1735.3199999999999</ele>
        <time>2013-09-12T13:45:26Z</time>
      </trkpt>
      <trkpt lat="42.491349438205361" lon="13.562961537390947">
        <ele>1734.3599999999999</ele>
        <time>2013-09-12T13:45:30Z</time>
      </trkpt>
      <trkpt lat="42.491388078778982" lon="13.562912000343204">
        <ele>1733.8800000000001</ele>
        <time>2013-09-12T13:45:34Z</time>
      </trkpt>
      <trkpt lat="42.491488577798009" lon="13.562749559059739">
        <ele>1730.03</ele>
        <time>2013-09-12T13:45:46Z</time>
      </trkpt>
      <trkpt lat="42.491516573354602" lon="13.562713349238038">
        <ele>1729.0699999999999</ele>
        <time>2013-09-12T13:45:49Z</time>
      </trkpt>
      <trkpt lat="42.491629645228386" lon="13.562557362020016">
        <ele>1725.7</ele>
        <time>2013-09-12T13:46:02Z</time>
      </trkpt>
      <trkpt lat="42.491677924990654" lon="13.562464909628034">
        <ele>1723.3</ele>
        <time>2013-09-12T13:46:08Z</time>
      </trkpt>
      <trkpt lat="42.491708351299167" lon="13.562418390065432">
        <ele>1720.9000000000001</ele>
        <time>2013-09-12T13:46:13Z</time>
      </trkpt>
      <trkpt lat="42.491710195317864" lon="13.562353262677789">
        <ele>1719.46</ele>
        <time>2013-09-12T13:46:17Z</time>
      </trkpt>
      <trkpt lat="42.491713799536228" lon="13.562310263514519">
        <ele>1716.5699999999999</ele>
        <time>2013-09-12T13:46:23Z</time>
      </trkpt>
      <trkpt lat="42.491714805364609" lon="13.562322333455086">
        <ele>1716.5699999999999</ele>
        <time>2013-09-12T13:46:47Z</time>
      </trkpt>
      <trkpt lat="42.491729557514191" lon="13.562296098098159">
        <ele>1716.5699999999999</ele>
        <time>2013-09-12T13:46:54Z</time>
      </trkpt>
      <trkpt lat="42.491850676015019" lon="13.562234239652753">
        <ele>1712.25</ele>
        <time>2013-09-12T13:47:07Z</time>
      </trkpt>
      <trkpt lat="42.491924855858088" lon="13.562227198854089">
        <ele>1709.3599999999999</ele>
        <time>2013-09-12T13:47:22Z</time>
      </trkpt>
      <trkpt lat="42.49194061383605" lon="13.562209596857429">
        <ele>1708.8800000000001</ele>
        <time>2013-09-12T13:47:33Z</time>
      </trkpt>
      <trkpt lat="42.491961903870106" lon="13.562189061194658">
        <ele>1707.4400000000001</ele>
        <time>2013-09-12T13:47:37Z</time>
      </trkpt>
      <trkpt lat="42.491955449804664" lon="13.562127035111189">
        <ele>1705.52</ele>
        <time>2013-09-12T13:47:41Z</time>
      </trkpt>
      <trkpt lat="42.49198017641902" lon="13.562069367617369">
        <ele>1704.0699999999999</ele>
        <time>2013-09-12T13:47:45Z</time>
      </trkpt>
      <trkpt lat="42.491988893598318" lon="13.562023937702179">
        <ele>1703.1099999999999</ele>
        <time>2013-09-12T13:47:48Z</time>
      </trkpt>
      <trkpt lat="42.492001550272107" lon="13.561997199431062">
        <ele>1702.1500000000001</ele>
        <time>2013-09-12T13:47:50Z</time>
      </trkpt>
      <trkpt lat="42.492066510021687" lon="13.561959816142917">
        <ele>1701.1900000000001</ele>
        <time>2013-09-12T13:47:55Z</time>
      </trkpt>
      <trkpt lat="42.492089727893472" lon="13.561912877485156">
        <ele>1699.27</ele>
        <time>2013-09-12T13:47:59Z</time>
      </trkpt>
      <trkpt lat="42.492154520004988" lon="13.561778515577316">
        <ele>1695.4200000000001</ele>
        <time>2013-09-12T13:48:11Z</time>
      </trkpt>
      <trkpt lat="42.492165165022016" lon="13.561751190572977">
        <ele>1695.4200000000001</ele>
        <time>2013-09-12T13:48:13Z</time>
      </trkpt>
      <trkpt lat="42.492201374843717" lon="13.561712298542261">
        <ele>1694.46</ele>
        <time>2013-09-12T13:48:17Z</time>
      </trkpt>
      <trkpt lat="42.492281422019005" lon="13.561639627441764">
        <ele>1691.0999999999999</ele>
        <time>2013-09-12T13:48:26Z</time>
      </trkpt>
      <trkpt lat="42.49232710339129" lon="13.5616325866431">
        <ele>1690.6199999999999</ele>
        <time>2013-09-12T13:48:38Z</time>
      </trkpt>
      <trkpt lat="42.492324253544211" lon="13.561588078737259">
        <ele>1689.1700000000001</ele>
        <time>2013-09-12T13:48:41Z</time>
      </trkpt>
      <trkpt lat="42.49234420247376" lon="13.561519263312221">
        <ele>1687.73</ele>
        <time>2013-09-12T13:48:47Z</time>
      </trkpt>
      <trkpt lat="42.492368845269084" lon="13.561490261927247">
        <ele>1686.77</ele>
        <time>2013-09-12T13:48:50Z</time>
      </trkpt>
      <trkpt lat="42.492397595196962" lon="13.561427900567651">
        <ele>1682.4400000000001</ele>
        <time>2013-09-12T13:48:55Z</time>
      </trkpt>
      <trkpt lat="42.492433218285441" lon="13.561361264437437">
        <ele>1682.4400000000001</ele>
        <time>2013-09-12T13:49:01Z</time>
      </trkpt>
      <trkpt lat="42.492509661242366" lon="13.561320276930928">
        <ele>1679.0799999999999</ele>
        <time>2013-09-12T13:49:09Z</time>
      </trkpt>
      <trkpt lat="42.4925372377038" lon="13.561270739883184">
        <ele>1678.1199999999999</ele>
        <time>2013-09-12T13:49:13Z</time>
      </trkpt>
      <trkpt lat="42.492554001510143" lon="13.561233356595039">
        <ele>1675.72</ele>
        <time>2013-09-12T13:49:16Z</time>
      </trkpt>
      <trkpt lat="42.492584930732846" lon="13.561190357431769">
        <ele>1673.79</ele>
        <time>2013-09-12T13:49:20Z</time>
      </trkpt>
      <trkpt lat="42.492604544386268" lon="13.561169905588031">
        <ele>1674.27</ele>
        <time>2013-09-12T13:49:22Z</time>
      </trkpt>
      <trkpt lat="42.492701187729836" lon="13.561181807890534">
        <ele>1671.3900000000001</ele>
        <time>2013-09-12T13:49:30Z</time>
      </trkpt>
      <trkpt lat="42.492728345096111" lon="13.561159679666162">
        <ele>1669.47</ele>
        <time>2013-09-12T13:49:33Z</time>
      </trkpt>
      <trkpt lat="42.492774110287428" lon="13.561142748221755">
        <ele>1668.02</ele>
        <time>2013-09-12T13:49:37Z</time>
      </trkpt>
      <trkpt lat="42.492796070873737" lon="13.561132103204727">
        <ele>1667.0599999999999</ele>
        <time>2013-09-12T13:49:39Z</time>
      </trkpt>
      <trkpt lat="42.492820713669062" lon="13.561123721301556">
        <ele>1665.1400000000001</ele>
        <time>2013-09-12T13:49:42Z</time>
      </trkpt>
      <trkpt lat="42.492826748639345" lon="13.561110980808735">
        <ele>1664.1800000000001</ele>
        <time>2013-09-12T13:49:50Z</time>
      </trkpt>
      <trkpt lat="42.49284896068275" lon="13.561098407953978">
        <ele>1663.22</ele>
        <time>2013-09-12T13:49:52Z</time>
      </trkpt>
      <trkpt lat="42.49288173392415" lon="13.56109312735498">
        <ele>1662.26</ele>
        <time>2013-09-12T13:49:55Z</time>
      </trkpt>
      <trkpt lat="42.492896905168891" lon="13.561073262244463">
        <ele>1661.3</ele>
        <time>2013-09-12T13:49:57Z</time>
      </trkpt>
      <trkpt lat="42.492920877411962" lon="13.561055408790708">
        <ele>1659.3699999999999</ele>
        <time>2013-09-12T13:50:00Z</time>
      </trkpt>
      <trkpt lat="42.492939149960876" lon="13.561033615842462">
        <ele>1658.4100000000001</ele>
        <time>2013-09-12T13:50:02Z</time>
      </trkpt>
      <trkpt lat="42.49295013025403" lon="13.561029005795717">
        <ele>1657.9300000000001</ele>
        <time>2013-09-12T13:50:03Z</time>
      </trkpt>
      <trkpt lat="42.492998158559203" lon="13.561035376042128">
        <ele>1656.97</ele>
        <time>2013-09-12T13:50:07Z</time>
      </trkpt>
      <trkpt lat="42.493048952892423" lon="13.561023557558656">
        <ele>1654.0899999999999</ele>
        <time>2013-09-12T13:50:12Z</time>
      </trkpt>
      <trkpt lat="42.49309279024601" lon="13.56103009544313">
        <ele>1651.2</ele>
        <time>2013-09-12T13:50:18Z</time>
      </trkpt>
      <trkpt lat="42.493150793015957" lon="13.560978295281529">
        <ele>1647.3599999999999</ele>
        <time>2013-09-12T13:50:25Z</time>
      </trkpt>
      <trkpt lat="42.493177615106106" lon="13.561008218675852">
        <ele>1646.8800000000001</ele>
        <time>2013-09-12T13:50:28Z</time>
      </trkpt>
      <trkpt lat="42.493206281214952" lon="13.560986341908574">
        <ele>1645.4300000000001</ele>
        <time>2013-09-12T13:50:31Z</time>
      </trkpt>
      <trkpt lat="42.493243580684066" lon="13.560956418514252">
        <ele>1643.51</ele>
        <time>2013-09-12T13:50:36Z</time>
      </trkpt>
      <trkpt lat="42.493299152702093" lon="13.560959435999393">
        <ele>1640.6300000000001</ele>
        <time>2013-09-12T13:50:41Z</time>
      </trkpt>
      <trkpt lat="42.493318598717451" lon="13.560957759618759">
        <ele>1639.1900000000001</ele>
        <time>2013-09-12T13:50:43Z</time>
      </trkpt>
      <trkpt lat="42.493412727490067" lon="13.560924232006073">
        <ele>1633.9000000000001</ele>
        <time>2013-09-12T13:50:53Z</time>
      </trkpt>
      <trkpt lat="42.493473663926125" lon="13.560920627787709">
        <ele>1633.4200000000001</ele>
        <time>2013-09-12T13:51:00Z</time>
      </trkpt>
      <trkpt lat="42.493522698059678" lon="13.560908557847142">
        <ele>1632.9400000000001</ele>
        <time>2013-09-12T13:51:04Z</time>
      </trkpt>
      <trkpt lat="42.493563182651997" lon="13.560899924486876">
        <ele>1630.53</ele>
        <time>2013-09-12T13:51:08Z</time>
      </trkpt>
      <trkpt lat="42.493619341403246" lon="13.560914760455489">
        <ele>1629.5699999999999</ele>
        <time>2013-09-12T13:51:13Z</time>
      </trkpt>
      <trkpt lat="42.493632668629289" lon="13.560894727706909">
        <ele>1628.6099999999999</ele>
        <time>2013-09-12T13:51:15Z</time>
      </trkpt>
      <trkpt lat="42.493654377758503" lon="13.560876455157995">
        <ele>1627.6500000000001</ele>
        <time>2013-09-12T13:51:18Z</time>
      </trkpt>
      <trkpt lat="42.493737693876028" lon="13.560912664979696">
        <ele>1625.25</ele>
        <time>2013-09-12T13:51:26Z</time>
      </trkpt>
      <trkpt lat="42.493760073557496" lon="13.560949042439461">
        <ele>1623.8</ele>
        <time>2013-09-12T13:51:29Z</time>
      </trkpt>
      <trkpt lat="42.493766443803906" lon="13.560961866751313">
        <ele>1623.8</ele>
        <time>2013-09-12T13:51:30Z</time>
      </trkpt>
      <trkpt lat="42.493809191510081" lon="13.561014169827104">
        <ele>1621.8800000000001</ele>
        <time>2013-09-12T13:51:35Z</time>
      </trkpt>
      <trkpt lat="42.493858225643635" lon="13.561003608629107">
        <ele>1619.48</ele>
        <time>2013-09-12T13:51:40Z</time>
      </trkpt>
      <trkpt lat="42.493868535384536" lon="13.560996232554317">
        <ele>1619.48</ele>
        <time>2013-09-12T13:51:41Z</time>
      </trkpt>
      <trkpt lat="42.493957383558154" lon="13.560992209240794">
        <ele>1616.1099999999999</ele>
        <time>2013-09-12T13:51:49Z</time>
      </trkpt>
      <trkpt lat="42.494097696617246" lon="13.560916353017092">
        <ele>1613.23</ele>
        <time>2013-09-12T13:52:01Z</time>
      </trkpt>
      <trkpt lat="42.494199201464653" lon="13.560806298628449">
        <ele>1609.8599999999999</ele>
        <time>2013-09-12T13:52:13Z</time>
      </trkpt>
      <trkpt lat="42.494213199242949" lon="13.560800850391388">
        <ele>1608.9000000000001</ele>
        <time>2013-09-12T13:52:15Z</time>
      </trkpt>
      <trkpt lat="42.49422887340188" lon="13.560786936432123">
        <ele>1608.4200000000001</ele>
        <time>2013-09-12T13:52:18Z</time>
      </trkpt>
      <trkpt lat="42.494286624714732" lon="13.560663806274533">
        <ele>1604.5799999999999</ele>
        <time>2013-09-12T13:52:30Z</time>
      </trkpt>
      <trkpt lat="42.494322163984179" lon="13.560602786019444">
        <ele>1603.6199999999999</ele>
        <time>2013-09-12T13:52:35Z</time>
      </trkpt>
      <trkpt lat="42.494375389069319" lon="13.560546208173037">
        <ele>1601.21</ele>
        <time>2013-09-12T13:52:41Z</time>
      </trkpt>
      <trkpt lat="42.494404977187514" lon="13.560500694438815">
        <ele>1600.73</ele>
        <time>2013-09-12T13:52:45Z</time>
      </trkpt>
      <trkpt lat="42.494468847289681" lon="13.560476722195745">
        <ele>1598.3299999999999</ele>
        <time>2013-09-12T13:52:55Z</time>
      </trkpt>
      <trkpt lat="42.494488544762135" lon="13.560459623113275">
        <ele>1597.8499999999999</ele>
        <time>2013-09-12T13:52:58Z</time>
      </trkpt>
      <trkpt lat="42.494547301903367" lon="13.560394831001759">
        <ele>1594.48</ele>
        <time>2013-09-12T13:53:09Z</time>
      </trkpt>
      <trkpt lat="42.49460069462657" lon="13.560355268418789">
        <ele>1591.1199999999999</ele>
        <time>2013-09-12T13:53:23Z</time>
      </trkpt>
      <trkpt lat="42.494636485353112" lon="13.560310257598758">
        <ele>1589.2</ele>
        <time>2013-09-12T13:53:30Z</time>
      </trkpt>
      <trkpt lat="42.494661128148437" lon="13.560287794098258">
        <ele>1588.24</ele>
        <time>2013-09-12T13:53:33Z</time>
      </trkpt>
      <trkpt lat="42.494645873084664" lon="13.56024538166821">
        <ele>1587.75</ele>
        <time>2013-09-12T13:53:46Z</time>
      </trkpt>
      <trkpt lat="42.494613938033581" lon="13.56025661341846">
        <ele>1587.75</ele>
        <time>2013-09-12T13:53:55Z</time>
      </trkpt>
      <trkpt lat="42.49460999853909" lon="13.560212021693587">
        <ele>1588.24</ele>
        <time>2013-09-12T13:53:58Z</time>
      </trkpt>
      <trkpt lat="42.494638832286" lon="13.560180254280567">
        <ele>1586.79</ele>
        <time>2013-09-12T13:54:09Z</time>
      </trkpt>
      <trkpt lat="42.494622068479657" lon="13.560218559578061">
        <ele>1587.27</ele>
        <time>2013-09-12T13:54:29Z</time>
      </trkpt>
      <trkpt lat="42.494619386270642" lon="13.560293074697256">
        <ele>1588.24</ele>
        <time>2013-09-12T13:54:45Z</time>
      </trkpt>
      <trkpt lat="42.494646878913045" lon="13.560327859595418">
        <ele>1588.24</ele>
        <time>2013-09-12T13:54:58Z</time>
      </trkpt>
      <trkpt lat="42.494685016572475" lon="13.560260720551014">
        <ele>1586.3099999999999</ele>
        <time>2013-09-12T13:55:15Z</time>
      </trkpt>
      <trkpt lat="42.494744025170803" lon="13.560264240950346">
        <ele>1584.8699999999999</ele>
        <time>2013-09-12T13:55:26Z</time>
      </trkpt>
      <trkpt lat="42.494772775098681" lon="13.560296595096588">
        <ele>1582.47</ele>
        <time>2013-09-12T13:55:37Z</time>
      </trkpt>
      <trkpt lat="42.494814768433571" lon="13.560242531821132">
        <ele>1579.5799999999999</ele>
        <time>2013-09-12T13:55:49Z</time>
      </trkpt>
      <trkpt lat="42.494822647422552" lon="13.560234485194087">
        <ele>1578.6199999999999</ele>
        <time>2013-09-12T13:55:52Z</time>
      </trkpt>
      <trkpt lat="42.494859863072634" lon="13.560251332819462">
        <ele>1577.1800000000001</ele>
        <time>2013-09-12T13:56:02Z</time>
      </trkpt>
      <trkpt lat="42.494904957711697" lon="13.560244543477893">
        <ele>1575.26</ele>
        <time>2013-09-12T13:56:11Z</time>
      </trkpt>
      <trkpt lat="42.494952734559774" lon="13.560222079977393">
        <ele>1572.8499999999999</ele>
        <time>2013-09-12T13:56:16Z</time>
      </trkpt>
      <trkpt lat="42.494965139776468" lon="13.560223337262869">
        <ele>1572.8499999999999</ele>
        <time>2013-09-12T13:56:18Z</time>
      </trkpt>
      <trkpt lat="42.495051305741072" lon="13.560248482972383">
        <ele>1569.49</ele>
        <time>2013-09-12T13:56:27Z</time>
      </trkpt>
      <trkpt lat="42.495092293247581" lon="13.560258373618126">
        <ele>1567.5699999999999</ele>
        <time>2013-09-12T13:56:31Z</time>
      </trkpt>
      <trkpt lat="42.495155325159431" lon="13.56020288541913">
        <ele>1564.6800000000001</ele>
        <time>2013-09-12T13:56:38Z</time>
      </trkpt>
      <trkpt lat="42.495172927156091" lon="13.560195844620466">
        <ele>1563.72</ele>
        <time>2013-09-12T13:56:40Z</time>
      </trkpt>
      <trkpt lat="42.495245095342398" lon="13.560170028358698">
        <ele>1560.3599999999999</ele>
        <time>2013-09-12T13:56:49Z</time>
      </trkpt>
      <trkpt lat="42.495275437831879" lon="13.560159634798765">
        <ele>1559.4000000000001</ele>
        <time>2013-09-12T13:56:52Z</time>
      </trkpt>
      <trkpt lat="42.495333272963762" lon="13.560173884034157">
        <ele>1557.47</ele>
        <time>2013-09-12T13:56:59Z</time>
      </trkpt>
      <trkpt lat="42.495412146672606" lon="13.560165921226144">
        <ele>1555.55</ele>
        <time>2013-09-12T13:57:10Z</time>
      </trkpt>
      <trkpt lat="42.495531672611833" lon="13.560167429968715">
        <ele>1552.1900000000001</ele>
        <time>2013-09-12T13:57:24Z</time>
      </trkpt>
      <trkpt lat="42.495643990114331" lon="13.560167262330651">
        <ele>1549.3</ele>
        <time>2013-09-12T13:57:38Z</time>
      </trkpt>
      <trkpt lat="42.495711548253894" lon="13.560123760253191">
        <ele>1546.9000000000001</ele>
        <time>2013-09-12T13:57:48Z</time>
      </trkpt>
      <trkpt lat="42.49581933952868" lon="13.560112612321973">
        <ele>1543.53</ele>
        <time>2013-09-12T13:58:02Z</time>
      </trkpt>
      <trkpt lat="42.495870720595121" lon="13.560109678655863">
        <ele>1543.05</ele>
        <time>2013-09-12T13:58:08Z</time>
      </trkpt>
      <trkpt lat="42.495955461636186" lon="13.560077073052526">
        <ele>1540.6500000000001</ele>
        <time>2013-09-12T13:58:20Z</time>
      </trkpt>
      <trkpt lat="42.496028048917651" lon="13.560024183243513">
        <ele>1539.21</ele>
        <time>2013-09-12T13:58:37Z</time>
      </trkpt>
      <trkpt lat="42.49604556709528" lon="13.560031056404114">
        <ele>1538.25</ele>
        <time>2013-09-12T13:58:39Z</time>
      </trkpt>
      <trkpt lat="42.49607540667057" lon="13.560085706412792">
        <ele>1537.77</ele>
        <time>2013-09-12T13:58:43Z</time>
      </trkpt>
      <trkpt lat="42.496088063344359" lon="13.560112779960036">
        <ele>1537.29</ele>
        <time>2013-09-12T13:58:45Z</time>
      </trkpt>
      <trkpt lat="42.496120585128665" lon="13.560139182955027">
        <ele>1536.3199999999999</ele>
        <time>2013-09-12T13:58:48Z</time>
      </trkpt>
      <trkpt lat="42.496165595948696" lon="13.560187295079231">
        <ele>1535.3599999999999</ele>
        <time>2013-09-12T13:58:54Z</time>
      </trkpt>
      <trkpt lat="42.496226448565722" lon="13.5601716209203">
        <ele>1532.96</ele>
        <time>2013-09-12T13:59:01Z</time>
      </trkpt>
      <trkpt lat="42.496357290074229" lon="13.56017648242414">
        <ele>1529.5899999999999</ele>
        <time>2013-09-12T13:59:15Z</time>
      </trkpt>
      <trkpt lat="42.496415209025145" lon="13.5601872112602">
        <ele>1528.1500000000001</ele>
        <time>2013-09-12T13:59:23Z</time>
      </trkpt>
      <trkpt lat="42.496468937024474" lon="13.56012811884284">
        <ele>1526.71</ele>
        <time>2013-09-12T13:59:29Z</time>
      </trkpt>
      <trkpt lat="42.496534734964371" lon="13.560001803562045">
        <ele>1525.27</ele>
        <time>2013-09-12T13:59:38Z</time>
      </trkpt>
      <trkpt lat="42.496587205678225" lon="13.559889737516642">
        <ele>1523.3499999999999</ele>
        <time>2013-09-12T13:59:49Z</time>
      </trkpt>
      <trkpt lat="42.496711257845163" lon="13.559812540188432">
        <ele>1519.98</ele>
        <time>2013-09-12T14:00:04Z</time>
      </trkpt>
      <trkpt lat="42.496805051341653" lon="13.559773312881589">
        <ele>1518.54</ele>
        <time>2013-09-12T14:00:14Z</time>
      </trkpt>
      <trkpt lat="42.496869591996074" lon="13.559758057817817">
        <ele>1516.1400000000001</ele>
        <time>2013-09-12T14:00:26Z</time>
      </trkpt>
      <trkpt lat="42.496908735483885" lon="13.559747748076916">
        <ele>1514.6900000000001</ele>
        <time>2013-09-12T14:00:29Z</time>
      </trkpt>
      <trkpt lat="42.497038319706917" lon="13.559670047834516">
        <ele>1511.8099999999999</ele>
        <time>2013-09-12T14:00:43Z</time>
      </trkpt>
      <trkpt lat="42.497109482064843" lon="13.559651942923665">
        <ele>1509.8900000000001</ele>
        <time>2013-09-12T14:00:52Z</time>
      </trkpt>
      <trkpt lat="42.497156755998731" lon="13.559628138318658">
        <ele>1508.45</ele>
        <time>2013-09-12T14:00:57Z</time>
      </trkpt>
      <trkpt lat="42.497280724346638" lon="13.559593856334686">
        <ele>1505.5599999999999</ele>
        <time>2013-09-12T14:01:10Z</time>
      </trkpt>
      <trkpt lat="42.49735708348453" lon="13.559573320671916">
        <ele>1504.1199999999999</ele>
        <time>2013-09-12T14:01:17Z</time>
      </trkpt>
      <trkpt lat="42.497406871989369" lon="13.559557730332017">
        <ele>1502.6800000000001</ele>
        <time>2013-09-12T14:01:22Z</time>
      </trkpt>
      <trkpt lat="42.497547771781683" lon="13.559488244354725">
        <ele>1499.3099999999999</ele>
        <time>2013-09-12T14:01:37Z</time>
      </trkpt>
      <trkpt lat="42.497662771493196" lon="13.559457818046212">
        <ele>1496.9100000000001</ele>
        <time>2013-09-12T14:01:49Z</time>
      </trkpt>
      <trkpt lat="42.497759247198701" lon="13.559411466121674">
        <ele>1494.03</ele>
        <time>2013-09-12T14:01:58Z</time>
      </trkpt>
      <trkpt lat="42.497810963541269" lon="13.559384308755398">
        <ele>1492.5799999999999</ele>
        <time>2013-09-12T14:02:03Z</time>
      </trkpt>
      <trkpt lat="42.497951444238424" lon="13.559335861355066">
        <ele>1489.7</ele>
        <time>2013-09-12T14:02:16Z</time>
      </trkpt>
      <trkpt lat="42.497974243015051" lon="13.55932873673737">
        <ele>1489.7</ele>
        <time>2013-09-12T14:02:18Z</time>
      </trkpt>
      <trkpt lat="42.497999640181661" lon="13.559309877455235">
        <ele>1488.26</ele>
        <time>2013-09-12T14:02:21Z</time>
      </trkpt>
      <trkpt lat="42.498010620474815" lon="13.559303339570761">
        <ele>1488.26</ele>
        <time>2013-09-12T14:02:22Z</time>
      </trkpt>
      <trkpt lat="42.498040124773979" lon="13.559312140569091">
        <ele>1487.3</ele>
        <time>2013-09-12T14:02:25Z</time>
      </trkpt>
      <trkpt lat="42.498095529153943" lon="13.559299064800143">
        <ele>1485.8499999999999</ele>
        <time>2013-09-12T14:02:30Z</time>
      </trkpt>
      <trkpt lat="42.498105922713876" lon="13.559298142790794">
        <ele>1485.8499999999999</ele>
        <time>2013-09-12T14:02:31Z</time>
      </trkpt>
      <trkpt lat="42.498245816677809" lon="13.559324126690626">
        <ele>1482.97</ele>
        <time>2013-09-12T14:02:44Z</time>
      </trkpt>
      <trkpt lat="42.498283954337239" lon="13.559368886053562">
        <ele>1482.49</ele>
        <time>2013-09-12T14:02:48Z</time>
      </trkpt>
      <trkpt lat="42.498306753113866" lon="13.559374753385782">
        <ele>1482.01</ele>
        <time>2013-09-12T14:02:50Z</time>
      </trkpt>
      <trkpt lat="42.498368276283145" lon="13.559312894940376">
        <ele>1481.05</ele>
        <time>2013-09-12T14:02:56Z</time>
      </trkpt>
      <trkpt lat="42.498467182740569" lon="13.559445329010487">
        <ele>1478.1600000000001</ele>
        <time>2013-09-12T14:03:10Z</time>
      </trkpt>
      <trkpt lat="42.498506074771285" lon="13.559470642358065">
        <ele>1478.6500000000001</ele>
        <time>2013-09-12T14:03:27Z</time>
      </trkpt>
      <trkpt lat="42.498582433909178" lon="13.559498051181436">
        <ele>1475.76</ele>
        <time>2013-09-12T14:03:41Z</time>
      </trkpt>
      <trkpt lat="42.498622080311179" lon="13.55952319689095">
        <ele>1474.8</ele>
        <time>2013-09-12T14:03:44Z</time>
      </trkpt>
      <trkpt lat="42.498664073646069" lon="13.55956569314003">
        <ele>1473.3599999999999</ele>
        <time>2013-09-12T14:03:49Z</time>
      </trkpt>
      <trkpt lat="42.498816791921854" lon="13.559535518288612">
        <ele>1471.4400000000001</ele>
        <time>2013-09-12T14:04:02Z</time>
      </trkpt>
      <trkpt lat="42.498879991471767" lon="13.559649009257555">
        <ele>1469.99</ele>
        <time>2013-09-12T14:04:09Z</time>
      </trkpt>
      <trkpt lat="42.498928355053067" lon="13.559739701449871">
        <ele>1469.99</ele>
        <time>2013-09-12T14:04:15Z</time>
      </trkpt>
      <trkpt lat="42.498983424156904" lon="13.559776246547699">
        <ele>1469.51</ele>
        <time>2013-09-12T14:04:20Z</time>
      </trkpt>
      <trkpt lat="42.499023741111159" lon="13.559787729755044">
        <ele>1469.03</ele>
        <time>2013-09-12T14:04:24Z</time>
      </trkpt>
      <trkpt lat="42.499079648405313" lon="13.559902142733335">
        <ele>1469.51</ele>
        <time>2013-09-12T14:04:33Z</time>
      </trkpt>
      <trkpt lat="42.499234210699797" lon="13.559999540448189">
        <ele>1469.03</ele>
        <time>2013-09-12T14:04:50Z</time>
      </trkpt>
      <trkpt lat="42.499260529875755" lon="13.559942962601781">
        <ele>1466.6300000000001</ele>
        <time>2013-09-12T14:05:01Z</time>
      </trkpt>
    </trkseg>
  </trk>

</gpx>